<?xml version='1.0' encoding='UTF-8'?><gpx version="1.1" creator="JPX - https://github.com/jenetics/jpx" xmlns="http://www.topografix.com/GPX/1/1"><trk><trkseg><trkpt lat="41.72135514362317" lon="2.927320871870343"><ele>12.999999999999998</ele><time>2026-04-08T09:43:32.999Z</time></trkpt><trkpt lat="41.721290060187066" lon="2.927354647515819"><ele>13.0</ele><time>2026-04-08T09:43:38.999Z</time></trkpt><trkpt lat="41.72132273523441" lon="2.927489536823711"><ele>13.0</ele><time>2026-04-08T09:43:40.999Z</time></trkpt><trkpt lat="41.721361453462706" lon="2.9275637811458255"><ele>13.0</ele><time>2026-04-08T09:43:41.999Z</time></trkpt><trkpt lat="41.72140071082331" lon="2.9276381385563526"><ele>12.999999999999998</ele><time>2026-04-08T09:43:42.999Z</time></trkpt><trkpt lat="41.721455323215146" lon="2.9277442773222933"><ele>13.0</ele><time>2026-04-08T09:43:44.999Z</time></trkpt><trkpt lat="41.72150525558961" lon="2.927816157273048"><ele>12.999999999999998</ele><time>2026-04-08T09:43:46.999Z</time></trkpt><trkpt lat="41.721571284912365" lon="2.927854004356637"><ele>13.0</ele><time>2026-04-08T09:43:49.999Z</time></trkpt><trkpt lat="41.72162627069876" lon="2.927933514422605"><ele>13.0</ele><time>2026-04-08T09:43:53.999Z</time></trkpt><trkpt lat="41.721583789438974" lon="2.9280345956296197"><ele>13.0</ele><time>2026-04-08T09:43:55.999Z</time></trkpt><trkpt lat="41.72152101388969" lon="2.928100740620455"><ele>12.999999999999998</ele><time>2026-04-08T09:43:56.999Z</time></trkpt><trkpt lat="41.721456077159736" lon="2.928165930476128"><ele>13.0</ele><time>2026-04-08T09:43:57.999Z</time></trkpt><trkpt lat="41.72140364741529" lon="2.9282246554349505"><ele>13.0</ele><time>2026-04-08T09:43:58.999Z</time></trkpt><trkpt lat="41.72132152119229" lon="2.9283284888608083"><ele>13.0</ele><time>2026-04-08T09:44:00.999Z</time></trkpt><trkpt lat="41.721247257530266" lon="2.928446906565281"><ele>13.0</ele><time>2026-04-08T09:44:02.999Z</time></trkpt><trkpt lat="41.72125617821546" lon="2.9285844731667297"><ele>13.0</ele><time>2026-04-08T09:44:04.999Z</time></trkpt><trkpt lat="41.721365041540466" lon="2.928594431071114"><ele>13.0</ele><time>2026-04-08T09:44:06.999Z</time></trkpt><trkpt lat="41.72141354544953" lon="2.9285361545378854"><ele>12.999999999999998</ele><time>2026-04-08T09:44:07.999Z</time></trkpt><trkpt lat="41.721446641467686" lon="2.928441592213463"><ele>13.0</ele><time>2026-04-08T09:44:08.999Z</time></trkpt><trkpt lat="41.72147031909686" lon="2.9283408038871896"><ele>13.0</ele><time>2026-04-08T09:44:09.999Z</time></trkpt><trkpt lat="41.721503631708984" lon="2.9282415278461977"><ele>13.0</ele><time>2026-04-08T09:44:10.999Z</time></trkpt><trkpt lat="41.721559267028404" lon="2.928149965307484"><ele>12.999999999999998</ele><time>2026-04-08T09:44:11.999Z</time></trkpt><trkpt lat="41.7216312233289" lon="2.928058882206851"><ele>13.0</ele><time>2026-04-08T09:44:12.999Z</time></trkpt><trkpt lat="41.72170483723799" lon="2.9279670567288356"><ele>13.0</ele><time>2026-04-08T09:44:13.999Z</time></trkpt><trkpt lat="41.72178031434274" lon="2.9278731479317686"><ele>13.0</ele><time>2026-04-08T09:44:14.999Z</time></trkpt><trkpt lat="41.72185877306399" lon="2.927779399621954"><ele>13.0</ele><time>2026-04-08T09:44:15.999Z</time></trkpt><trkpt lat="41.721937824609505" lon="2.9276772843783605"><ele>13.0</ele><time>2026-04-08T09:44:16.999Z</time></trkpt><trkpt lat="41.722021325466066" lon="2.927575109978129"><ele>13.0</ele><time>2026-04-08T09:44:17.999Z</time></trkpt><trkpt lat="41.722105066204534" lon="2.927463659861411"><ele>12.75</ele><time>2026-04-08T09:44:18.999Z</time></trkpt><trkpt lat="41.722184884436395" lon="2.9273440224734344"><ele>12.5</ele><time>2026-04-08T09:44:19.999Z</time></trkpt><trkpt lat="41.722256435047406" lon="2.927210869692493"><ele>12.25</ele><time>2026-04-08T09:44:20.999Z</time></trkpt><trkpt lat="41.72232087470312" lon="2.927070530888783"><ele>12.0</ele><time>2026-04-08T09:44:21.999Z</time></trkpt><trkpt lat="41.72237249885779" lon="2.9269317586137436"><ele>12.0</ele><time>2026-04-08T09:44:22.999Z</time></trkpt><trkpt lat="41.72241777376314" lon="2.9268076658261237"><ele>12.0</ele><time>2026-04-08T09:44:23.999Z</time></trkpt><trkpt lat="41.722457085092074" lon="2.9266965951584525"><ele>12.0</ele><time>2026-04-08T09:44:24.999Z</time></trkpt><trkpt lat="41.722496479398146" lon="2.926586533528788"><ele>12.0</ele><time>2026-04-08T09:44:25.999Z</time></trkpt><trkpt lat="41.72253811190793" lon="2.9264713119494234"><ele>12.0</ele><time>2026-04-08T09:44:26.999Z</time></trkpt><trkpt lat="41.72258196418604" lon="2.9263508810471115"><ele>11.666666666666666</ele><time>2026-04-08T09:44:27.999Z</time></trkpt><trkpt lat="41.72262317437561" lon="2.926241114552313"><ele>11.333333333333334</ele><time>2026-04-08T09:44:28.999Z</time></trkpt><trkpt lat="41.72266656046434" lon="2.9261567274551323"><ele>11.0</ele><time>2026-04-08T09:44:29.999Z</time></trkpt><trkpt lat="41.72277169779752" lon="2.9260968416825506"><ele>10.666666666666668</ele><time>2026-04-08T09:44:31.999Z</time></trkpt><trkpt lat="41.72284241622149" lon="2.9261016176684684"><ele>10.333333333333334</ele><time>2026-04-08T09:44:32.999Z</time></trkpt><trkpt lat="41.722918112136135" lon="2.9261126526673626"><ele>10.0</ele><time>2026-04-08T09:44:33.999Z</time></trkpt><trkpt lat="41.72299030411585" lon="2.9260724255804353"><ele>10.0</ele><time>2026-04-08T09:44:34.999Z</time></trkpt><trkpt lat="41.72305242654199" lon="2.9260031685136494"><ele>10.0</ele><time>2026-04-08T09:44:35.999Z</time></trkpt><trkpt lat="41.72308332864679" lon="2.9259209375274144"><ele>10.0</ele><time>2026-04-08T09:44:36.999Z</time></trkpt><trkpt lat="41.72307990513274" lon="2.9258204483273573"><ele>10.0</ele><time>2026-04-08T09:44:37.999Z</time></trkpt><trkpt lat="41.72304781655053" lon="2.925723548676945"><ele>10.0</ele><time>2026-04-08T09:44:38.999Z</time></trkpt><trkpt lat="41.723003679361675" lon="2.925625720300439"><ele>10.0</ele><time>2026-04-08T09:44:39.999Z</time></trkpt><trkpt lat="41.72296821377892" lon="2.9255086484090853"><ele>10.8</ele><time>2026-04-08T09:44:40.999Z</time></trkpt><trkpt lat="41.722959707339335" lon="2.925388663525569"><ele>11.6</ele><time>2026-04-08T09:44:41.999Z</time></trkpt><trkpt lat="41.72297394282026" lon="2.9252688432536536"><ele>12.399999999999999</ele><time>2026-04-08T09:44:42.999Z</time></trkpt><trkpt lat="41.72301032035579" lon="2.9251578381012453"><ele>13.2</ele><time>2026-04-08T09:44:43.999Z</time></trkpt><trkpt lat="41.72305968333978" lon="2.925053552515258"><ele>14.0</ele><time>2026-04-08T09:44:44.999Z</time></trkpt><trkpt lat="41.72312414165524" lon="2.9249456140713646"><ele>15.2</ele><time>2026-04-08T09:44:45.999Z</time></trkpt><trkpt lat="41.72320752551658" lon="2.924844002986814"><ele>16.4</ele><time>2026-04-08T09:44:46.999Z</time></trkpt><trkpt lat="41.72329761081204" lon="2.924772853740985"><ele>17.6</ele><time>2026-04-08T09:44:47.999Z</time></trkpt><trkpt lat="41.72340492869602" lon="2.9247289130613106"><ele>18.8</ele><time>2026-04-08T09:44:48.999Z</time></trkpt><trkpt lat="41.723524265976614" lon="2.924717133854897"><ele>20.0</ele><time>2026-04-08T09:44:49.999Z</time></trkpt><trkpt lat="41.72364937125401" lon="2.9247328424373435"><ele>20.25</ele><time>2026-04-08T09:44:50.999Z</time></trkpt><trkpt lat="41.72378054630518" lon="2.924766318863585"><ele>20.5</ele><time>2026-04-08T09:44:51.999Z</time></trkpt><trkpt lat="41.72391049894223" lon="2.9248077151046123"><ele>20.75</ele><time>2026-04-08T09:44:52.999Z</time></trkpt><trkpt lat="41.7240472786835" lon="2.9248473284368237"><ele>21.0</ele><time>2026-04-08T09:44:53.999Z</time></trkpt><trkpt lat="41.72419035608798" lon="2.9248780570853583"><ele>21.0</ele><time>2026-04-08T09:44:54.999Z</time></trkpt><trkpt lat="41.724330088821944" lon="2.9248954534912612"><ele>21.0</ele><time>2026-04-08T09:44:55.999Z</time></trkpt><trkpt lat="41.7244641771608" lon="2.924886168627783"><ele>21.0</ele><time>2026-04-08T09:44:56.999Z</time></trkpt><trkpt lat="41.724589604109596" lon="2.9248421439451695"><ele>21.0</ele><time>2026-04-08T09:44:57.999Z</time></trkpt><trkpt lat="41.724706660601235" lon="2.9247644415858787"><ele>20.75</ele><time>2026-04-08T09:44:58.999Z</time></trkpt><trkpt lat="41.72481237898079" lon="2.924664682400832"><ele>20.5</ele><time>2026-04-08T09:44:59.999Z</time></trkpt><trkpt lat="41.724906401306846" lon="2.9245537599262033"><ele>20.25</ele><time>2026-04-08T09:45:00.999Z</time></trkpt><trkpt lat="41.72498645786282" lon="2.924456983671334"><ele>20.0</ele><time>2026-04-08T09:45:01.999Z</time></trkpt><trkpt lat="41.725076049649886" lon="2.9243789277048005"><ele>20.0</ele><time>2026-04-08T09:45:02.999Z</time></trkpt><trkpt lat="41.72517765303049" lon="2.9243325991134026"><ele>20.0</ele><time>2026-04-08T09:45:03.999Z</time></trkpt><trkpt lat="41.725279408673565" lon="2.9243281019730007"><ele>20.0</ele><time>2026-04-08T09:45:04.999Z</time></trkpt><trkpt lat="41.72538007105153" lon="2.9243645785305223"><ele>20.0</ele><time>2026-04-08T09:45:05.999Z</time></trkpt><trkpt lat="41.72547666591841" lon="2.9244277849914266"><ele>20.0</ele><time>2026-04-08T09:45:06.999Z</time></trkpt><trkpt lat="41.725570175620646" lon="2.9244955229289054"><ele>20.2</ele><time>2026-04-08T09:45:07.999Z</time></trkpt><trkpt lat="41.725666818896336" lon="2.9245396548777256"><ele>20.4</ele><time>2026-04-08T09:45:08.999Z</time></trkpt><trkpt lat="41.72576043591436" lon="2.924565651703125"><ele>20.6</ele><time>2026-04-08T09:45:09.999Z</time></trkpt><trkpt lat="41.72585639844379" lon="2.9245612778492664"><ele>20.8</ele><time>2026-04-08T09:45:10.997Z</time></trkpt><trkpt lat="41.7259443782721" lon="2.924512911937176"><ele>21.0</ele><time>2026-04-08T09:45:11.997Z</time></trkpt><trkpt lat="41.72602145447169" lon="2.924427127727606"><ele>22.75</ele><time>2026-04-08T09:45:12.997Z</time></trkpt><trkpt lat="41.72609868567158" lon="2.9243313400835222"><ele>24.5</ele><time>2026-04-08T09:45:13.997Z</time></trkpt><trkpt lat="41.72618587021126" lon="2.9242262247859094"><ele>26.25</ele><time>2026-04-08T09:45:14.997Z</time></trkpt><trkpt lat="41.72629916125572" lon="2.9240909244468627"><ele>28.0</ele><time>2026-04-08T09:45:15.997Z</time></trkpt><trkpt lat="41.726416890641985" lon="2.923945994465717"><ele>28.0</ele><time>2026-04-08T09:45:16.998Z</time></trkpt><trkpt lat="41.726528653033924" lon="2.9238212744057277"><ele>28.0</ele><time>2026-04-08T09:45:17.998Z</time></trkpt><trkpt lat="41.726640819264894" lon="2.9237023006510583"><ele>28.0</ele><time>2026-04-08T09:45:18.998Z</time></trkpt><trkpt lat="41.7267555706578" lon="2.923591275646024"><ele>28.0</ele><time>2026-04-08T09:45:19.998Z</time></trkpt><trkpt lat="41.726874087298576" lon="2.923498580219372"><ele>26.75</ele><time>2026-04-08T09:45:20.998Z</time></trkpt><trkpt lat="41.72699140039828" lon="2.923424175550559"><ele>25.5</ele><time>2026-04-08T09:45:21.998Z</time></trkpt><trkpt lat="41.72710742007304" lon="2.923353770084271"><ele>24.25</ele><time>2026-04-08T09:45:22.998Z</time></trkpt><trkpt lat="41.727221939200724" lon="2.9232919474414345"><ele>23.0</ele><time>2026-04-08T09:45:23.998Z</time></trkpt><trkpt lat="41.72732523829374" lon="2.923230701010364"><ele>23.2</ele><time>2026-04-08T09:45:24.998Z</time></trkpt><trkpt lat="41.72742940191473" lon="2.9231776599000305"><ele>23.4</ele><time>2026-04-08T09:45:25.998Z</time></trkpt><trkpt lat="41.727527436971506" lon="2.923129744671095"><ele>23.599999999999998</ele><time>2026-04-08T09:45:26.998Z</time></trkpt><trkpt lat="41.7276110239264" lon="2.923083617452752"><ele>23.799999999999997</ele><time>2026-04-08T09:45:27.998Z</time></trkpt><trkpt lat="41.72767975343378" lon="2.9230186687091986"><ele>24.0</ele><time>2026-04-08T09:45:28.998Z</time></trkpt><trkpt lat="41.72773136446699" lon="2.9229304826511733"><ele>24.0</ele><time>2026-04-08T09:45:29.998Z</time></trkpt><trkpt lat="41.72775828703526" lon="2.922825344984142"><ele>24.0</ele><time>2026-04-08T09:45:30.998Z</time></trkpt><trkpt lat="41.72776487008195" lon="2.922719889978238"><ele>24.0</ele><time>2026-04-08T09:45:31.998Z</time></trkpt><trkpt lat="41.72773713775699" lon="2.9226208871747095"><ele>24.0</ele><time>2026-04-08T09:45:32.998Z</time></trkpt><trkpt lat="41.72769550394669" lon="2.922533464718707"><ele>24.0</ele><time>2026-04-08T09:45:33.998Z</time></trkpt><trkpt lat="41.72763778314624" lon="2.922458595202574"><ele>24.0</ele><time>2026-04-08T09:45:34.998Z</time></trkpt><trkpt lat="41.727566138878956" lon="2.9223956063457646"><ele>29.0</ele><time>2026-04-08T09:45:35.998Z</time></trkpt><trkpt lat="41.72748442035335" lon="2.922355522887196"><ele>34.0</ele><time>2026-04-08T09:45:36.999Z</time></trkpt><trkpt lat="41.72738654096125" lon="2.9223092264874673"><ele>39.0</ele><time>2026-04-08T09:45:37.999Z</time></trkpt><trkpt lat="41.727255901577614" lon="2.9223053453306207"><ele>44.0</ele><time>2026-04-08T09:45:38.999Z</time></trkpt><trkpt lat="41.72710432785464" lon="2.922303712028367"><ele>44.0</ele><time>2026-04-08T09:45:39.999Z</time></trkpt><trkpt lat="41.72693300427485" lon="2.9223068369496583"><ele>44.0</ele><time>2026-04-08T09:45:40.999Z</time></trkpt><trkpt lat="41.72679187235042" lon="2.922326987993924"><ele>44.0</ele><time>2026-04-08T09:45:41.999Z</time></trkpt><trkpt lat="41.72665835392187" lon="2.92232408153781"><ele>44.0</ele><time>2026-04-08T09:45:42.999Z</time></trkpt><trkpt lat="41.72653130287912" lon="2.922311794971461"><ele>47.0</ele><time>2026-04-08T09:45:43.999Z</time></trkpt><trkpt lat="41.72641784953642" lon="2.922252050015867"><ele>50.0</ele><time>2026-04-08T09:45:44.999Z</time></trkpt><trkpt lat="41.726314449628525" lon="2.9221924939666297"><ele>53.0</ele><time>2026-04-08T09:45:45.999Z</time></trkpt><trkpt lat="41.72621404996914" lon="2.9221174978697526"><ele>56.0</ele><time>2026-04-08T09:45:46.999Z</time></trkpt><trkpt lat="41.72611523168726" lon="2.9220379429146996"><ele>57.25</ele><time>2026-04-08T09:45:47.999Z</time></trkpt><trkpt lat="41.72600876772226" lon="2.9219664298857864"><ele>58.5</ele><time>2026-04-08T09:45:48.999Z</time></trkpt><trkpt lat="41.725909389570425" lon="2.921874622859635"><ele>59.75</ele><time>2026-04-08T09:45:49.999Z</time></trkpt><trkpt lat="41.72582036758543" lon="2.92177264585951"><ele>61.0</ele><time>2026-04-08T09:45:50.999Z</time></trkpt><trkpt lat="41.725723604388676" lon="2.921688898470839"><ele>61.0</ele><time>2026-04-08T09:45:51.999Z</time></trkpt><trkpt lat="41.72562366656018" lon="2.9216068736501533"><ele>61.0</ele><time>2026-04-08T09:45:52.999Z</time></trkpt><trkpt lat="41.72551176271733" lon="2.921551011312565"><ele>61.0</ele><time>2026-04-08T09:45:53.999Z</time></trkpt><trkpt lat="41.72540653785772" lon="2.9214958057561766"><ele>61.0</ele><time>2026-04-08T09:45:54.999Z</time></trkpt><trkpt lat="41.72529902794114" lon="2.921445723643084"><ele>64.25</ele><time>2026-04-08T09:45:55.999Z</time></trkpt><trkpt lat="41.72519881563801" lon="2.921401339604375"><ele>67.5</ele><time>2026-04-08T09:45:56.999Z</time></trkpt><trkpt lat="41.725077596845495" lon="2.921338862606486"><ele>70.75</ele><time>2026-04-08T09:45:57.999Z</time></trkpt><trkpt lat="41.724967225362626" lon="2.921274271595158"><ele>74.0</ele><time>2026-04-08T09:45:58.999Z</time></trkpt><trkpt lat="41.72487419822568" lon="2.9211959669850187"><ele>74.0</ele><time>2026-04-08T09:45:59.999Z</time></trkpt><trkpt lat="41.72477911847331" lon="2.921117630619769"><ele>74.0</ele><time>2026-04-08T09:46:00.999Z</time></trkpt><trkpt lat="41.72466688429604" lon="2.921009597031503"><ele>74.0</ele><time>2026-04-08T09:46:01.999Z</time></trkpt><trkpt lat="41.7245295238804" lon="2.920885097520296"><ele>74.0</ele><time>2026-04-08T09:46:02.999Z</time></trkpt><trkpt lat="41.724383378738224" lon="2.920727781144996"><ele>75.66666666666667</ele><time>2026-04-08T09:46:03.999Z</time></trkpt><trkpt lat="41.724226839053394" lon="2.920583927455776"><ele>77.33333333333333</ele><time>2026-04-08T09:46:04.999Z</time></trkpt><trkpt lat="41.724050199878235" lon="2.920421603146504"><ele>79.0</ele><time>2026-04-08T09:46:05.999Z</time></trkpt><trkpt lat="41.72385441709677" lon="2.920254506872869"><ele>79.0</ele><time>2026-04-08T09:46:06.999Z</time></trkpt><trkpt lat="41.723676388635205" lon="2.920067142906686"><ele>79.0</ele><time>2026-04-08T09:46:07.999Z</time></trkpt><trkpt lat="41.72351237917054" lon="2.9199095888723856"><ele>79.0</ele><time>2026-04-08T09:46:08.999Z</time></trkpt><trkpt lat="41.7233581150891" lon="2.9197762386750328"><ele>79.33333333333333</ele><time>2026-04-08T09:46:09.999Z</time></trkpt><trkpt lat="41.723216477945215" lon="2.919655689218818"><ele>79.66666666666667</ele><time>2026-04-08T09:46:10.999Z</time></trkpt><trkpt lat="41.72309508452216" lon="2.919538785189257"><ele>80.0</ele><time>2026-04-08T09:46:11.999Z</time></trkpt><trkpt lat="41.72299759442567" lon="2.9194145956742776"><ele>80.0</ele><time>2026-04-08T09:46:12.999Z</time></trkpt><trkpt lat="41.722926115662126" lon="2.9192817129677584"><ele>80.0</ele><time>2026-04-08T09:46:13.999Z</time></trkpt><trkpt lat="41.72287909654694" lon="2.9191433758892593"><ele>80.0</ele><time>2026-04-08T09:46:14.999Z</time></trkpt><trkpt lat="41.722863742577516" lon="2.9189981232491613"><ele>80.0</ele><time>2026-04-08T09:46:15.999Z</time></trkpt><trkpt lat="41.72288360653599" lon="2.9188343962340015"><ele>79.66666666666667</ele><time>2026-04-08T09:46:16.999Z</time></trkpt><trkpt lat="41.72293269472346" lon="2.9186544896790907"><ele>79.33333333333333</ele><time>2026-04-08T09:46:17.999Z</time></trkpt><trkpt lat="41.72300664004089" lon="2.918457486375395"><ele>79.0</ele><time>2026-04-08T09:46:18.999Z</time></trkpt><trkpt lat="41.72308218734359" lon="2.918244114898081"><ele>81.0</ele><time>2026-04-08T09:46:19.999Z</time></trkpt><trkpt lat="41.7231465729684" lon="2.91805490709174"><ele>83.0</ele><time>2026-04-08T09:46:20.999Z</time></trkpt><trkpt lat="41.72320692964675" lon="2.9178848619349003"><ele>85.0</ele><time>2026-04-08T09:46:21.999Z</time></trkpt><trkpt lat="41.72323817840786" lon="2.9177234782177957"><ele>87.0</ele><time>2026-04-08T09:46:22.999Z</time></trkpt><trkpt lat="41.723231046103024" lon="2.917546761286218"><ele>88.33333333333333</ele><time>2026-04-08T09:46:23.999Z</time></trkpt><trkpt lat="41.72318538269788" lon="2.917364119943349"><ele>89.66666666666666</ele><time>2026-04-08T09:46:24.999Z</time></trkpt><trkpt lat="41.723116374960135" lon="2.9171614778588806"><ele>91.0</ele><time>2026-04-08T09:46:25.999Z</time></trkpt><trkpt lat="41.723053061459204" lon="2.9169397865962976"><ele>91.0</ele><time>2026-04-08T09:46:26.999Z</time></trkpt><trkpt lat="41.722971055407285" lon="2.9167518889385926"><ele>91.0</ele><time>2026-04-08T09:46:27.999Z</time></trkpt><trkpt lat="41.72291819465343" lon="2.916575918762507"><ele>91.0</ele><time>2026-04-08T09:46:28.999Z</time></trkpt><trkpt lat="41.72288966962755" lon="2.9164101101332784"><ele>91.0</ele><time>2026-04-08T09:46:29.999Z</time></trkpt><trkpt lat="41.72289565368805" lon="2.91624739175269"><ele>90.25</ele><time>2026-04-08T09:46:30.999Z</time></trkpt><trkpt lat="41.72293689988307" lon="2.916090290941008"><ele>89.5</ele><time>2026-04-08T09:46:31.999Z</time></trkpt><trkpt lat="41.72300266596914" lon="2.9159318648056587"><ele>88.75</ele><time>2026-04-08T09:46:32.999Z</time></trkpt><trkpt lat="41.72306245992482" lon="2.915791296707597"><ele>88.0</ele><time>2026-04-08T09:46:33.999Z</time></trkpt><trkpt lat="41.7230992554355" lon="2.9156458050129004"><ele>89.5</ele><time>2026-04-08T09:46:34.999Z</time></trkpt><trkpt lat="41.72309839577462" lon="2.9154884080398613"><ele>91.0</ele><time>2026-04-08T09:46:35.999Z</time></trkpt><trkpt lat="41.723051718082786" lon="2.9153237275648416"><ele>92.5</ele><time>2026-04-08T09:46:36.999Z</time></trkpt><trkpt lat="41.72297573734037" lon="2.9151549682999445"><ele>94.0</ele><time>2026-04-08T09:46:37.999Z</time></trkpt><trkpt lat="41.722885096898054" lon="2.914967303176978"><ele>94.0</ele><time>2026-04-08T09:46:38.999Z</time></trkpt><trkpt lat="41.722804670828246" lon="2.9147979767281247"><ele>94.0</ele><time>2026-04-08T09:46:39.999Z</time></trkpt><trkpt lat="41.722740911387255" lon="2.9146414991443286"><ele>94.0</ele><time>2026-04-08T09:46:40.999Z</time></trkpt><trkpt lat="41.72270032162312" lon="2.914480567812837"><ele>94.0</ele><time>2026-04-08T09:46:41.999Z</time></trkpt><trkpt lat="41.72268547421649" lon="2.9143114288715752"><ele>97.0</ele><time>2026-04-08T09:46:42.999Z</time></trkpt><trkpt lat="41.72270934064951" lon="2.914157766140323"><ele>100.0</ele><time>2026-04-08T09:46:43.999Z</time></trkpt><trkpt lat="41.722766266360495" lon="2.914023524764992"><ele>103.0</ele><time>2026-04-08T09:46:44.999Z</time></trkpt><trkpt lat="41.72285382056418" lon="2.913904032269108"><ele>106.0</ele><time>2026-04-08T09:46:45.999Z</time></trkpt><trkpt lat="41.72296567625397" lon="2.91377240079585"><ele>106.0</ele><time>2026-04-08T09:46:46.999Z</time></trkpt><trkpt lat="41.723093147550074" lon="2.9136191938032057"><ele>106.0</ele><time>2026-04-08T09:46:47.999Z</time></trkpt><trkpt lat="41.72323029257809" lon="2.9134551717022954"><ele>106.0</ele><time>2026-04-08T09:46:48.999Z</time></trkpt><trkpt lat="41.723363249123885" lon="2.913300293025161"><ele>104.5</ele><time>2026-04-08T09:46:49.999Z</time></trkpt><trkpt lat="41.723483974229545" lon="2.9131595391348037"><ele>103.0</ele><time>2026-04-08T09:46:50.999Z</time></trkpt><trkpt lat="41.723589671113274" lon="2.913026413835814"><ele>101.5</ele><time>2026-04-08T09:46:51.999Z</time></trkpt><trkpt lat="41.72368311075585" lon="2.9128924226306476"><ele>100.0</ele><time>2026-04-08T09:46:52.999Z</time></trkpt><trkpt lat="41.723749063827924" lon="2.91275657362075"><ele>100.0</ele><time>2026-04-08T09:46:53.999Z</time></trkpt><trkpt lat="41.72377590521529" lon="2.912617165288182"><ele>100.0</ele><time>2026-04-08T09:46:54.999Z</time></trkpt><trkpt lat="41.723767043212526" lon="2.91246771146319"><ele>100.0</ele><time>2026-04-08T09:46:55.999Z</time></trkpt><trkpt lat="41.72372833781" lon="2.9123118075658825"><ele>100.0</ele><time>2026-04-08T09:46:56.999Z</time></trkpt><trkpt lat="41.723666810808965" lon="2.9121661360845366"><ele>106.75</ele><time>2026-04-08T09:46:57.999Z</time></trkpt><trkpt lat="41.72354568826368" lon="2.91208084563918"><ele>113.5</ele><time>2026-04-08T09:46:58.999Z</time></trkpt><trkpt lat="41.723415449462536" lon="2.9120218338210457"><ele>120.25</ele><time>2026-04-08T09:46:59.999Z</time></trkpt><trkpt lat="41.72325987721332" lon="2.911989716590365"><ele>127.0</ele><time>2026-04-08T09:47:00.999Z</time></trkpt><trkpt lat="41.72307977116794" lon="2.911973555743257"><ele>127.0</ele><time>2026-04-08T09:47:01.999Z</time></trkpt><trkpt lat="41.72291962976258" lon="2.911964495117975"><ele>127.0</ele><time>2026-04-08T09:47:02.999Z</time></trkpt><trkpt lat="41.72277873687907" lon="2.9119666212343467"><ele>127.0</ele><time>2026-04-08T09:47:03.999Z</time></trkpt><trkpt lat="41.72264722353786" lon="2.9119915356805013"><ele>127.0</ele><time>2026-04-08T09:47:04.999Z</time></trkpt><trkpt lat="41.72253722886611" lon="2.9120616333388814"><ele>128.0</ele><time>2026-04-08T09:47:05.999Z</time></trkpt><trkpt lat="41.72243953515907" lon="2.91218402777902"><ele>129.0</ele><time>2026-04-08T09:47:06.999Z</time></trkpt><trkpt lat="41.72234801746946" lon="2.912351194787271"><ele>130.0</ele><time>2026-04-08T09:47:07.999Z</time></trkpt><trkpt lat="41.72225971951822" lon="2.912532330560087"><ele>131.0</ele><time>2026-04-08T09:47:08.999Z</time></trkpt><trkpt lat="41.722173402871675" lon="2.9126895372519743"><ele>132.0</ele><time>2026-04-08T09:47:09.999Z</time></trkpt><trkpt lat="41.7220867541476" lon="2.912815846797632"><ele>133.0</ele><time>2026-04-08T09:47:10.999Z</time></trkpt><trkpt lat="41.72198315020055" lon="2.9129193064545564"><ele>134.0</ele><time>2026-04-08T09:47:11.999Z</time></trkpt><trkpt lat="41.72185931797549" lon="2.9129718312028294"><ele>135.33333333333331</ele><time>2026-04-08T09:47:12.999Z</time></trkpt><trkpt lat="41.721709024351284" lon="2.9129860671251313"><ele>136.66666666666666</ele><time>2026-04-08T09:47:13.999Z</time></trkpt><trkpt lat="41.721548796199656" lon="2.9129594055783965"><ele>138.0</ele><time>2026-04-08T09:47:14.999Z</time></trkpt><trkpt lat="41.72137652111798" lon="2.9129166646290288"><ele>138.0</ele><time>2026-04-08T09:47:15.999Z</time></trkpt><trkpt lat="41.72121657221177" lon="2.9128860077155023"><ele>138.0</ele><time>2026-04-08T09:47:16.998Z</time></trkpt><trkpt lat="41.72107069286504" lon="2.912853628791357"><ele>138.0</ele><time>2026-04-08T09:47:17.998Z</time></trkpt><trkpt lat="41.72093882106281" lon="2.9128005193463737"><ele>138.0</ele><time>2026-04-08T09:47:18.998Z</time></trkpt><trkpt lat="41.72081969523268" lon="2.9127036332787473"><ele>134.75</ele><time>2026-04-08T09:47:19.998Z</time></trkpt><trkpt lat="41.720718869080805" lon="2.912568853883896"><ele>131.5</ele><time>2026-04-08T09:47:20.998Z</time></trkpt><trkpt lat="41.720630140369" lon="2.912423304880985"><ele>128.25</ele><time>2026-04-08T09:47:21.998Z</time></trkpt><trkpt lat="41.72052872837867" lon="2.912305183397965"><ele>125.0</ele><time>2026-04-08T09:47:22.998Z</time></trkpt><trkpt lat="41.72040263181084" lon="2.912228519389739"><ele>125.0</ele><time>2026-04-08T09:47:23.998Z</time></trkpt><trkpt lat="41.72026676933176" lon="2.9121941305167387"><ele>125.0</ele><time>2026-04-08T09:47:24.998Z</time></trkpt><trkpt lat="41.72013675808426" lon="2.912180637279075"><ele>125.0</ele><time>2026-04-08T09:47:25.998Z</time></trkpt><trkpt lat="41.7200265111293" lon="2.9121423216946996"><ele>125.0</ele><time>2026-04-08T09:47:26.998Z</time></trkpt><trkpt lat="41.71993422779369" lon="2.9120687453628253"><ele>125.25</ele><time>2026-04-08T09:47:27.998Z</time></trkpt><trkpt lat="41.71984582903645" lon="2.9119605784938765"><ele>125.5</ele><time>2026-04-08T09:47:28.998Z</time></trkpt><trkpt lat="41.7197582105968" lon="2.9118058615906532"><ele>125.75</ele><time>2026-04-08T09:47:29.998Z</time></trkpt><trkpt lat="41.71966860095689" lon="2.911629938828721"><ele>126.0</ele><time>2026-04-08T09:47:30.998Z</time></trkpt><trkpt lat="41.71957599739033" lon="2.911450033564097"><ele>126.0</ele><time>2026-04-08T09:47:31.998Z</time></trkpt><trkpt lat="41.719480256163685" lon="2.91126824112222"><ele>126.0</ele><time>2026-04-08T09:47:32.998Z</time></trkpt><trkpt lat="41.719387394021325" lon="2.9110883195987927"><ele>126.0</ele><time>2026-04-08T09:47:33.999Z</time></trkpt><trkpt lat="41.71930688857274" lon="2.9109137348248573"><ele>127.0</ele><time>2026-04-08T09:47:34.999Z</time></trkpt><trkpt lat="41.71924946952227" lon="2.910731970882974"><ele>128.0</ele><time>2026-04-08T09:47:35.999Z</time></trkpt><trkpt lat="41.71921833791719" lon="2.9105423460964177"><ele>129.0</ele><time>2026-04-08T09:47:36.999Z</time></trkpt><trkpt lat="41.71920801968885" lon="2.9103404183222623"><ele>130.0</ele><time>2026-04-08T09:47:37.999Z</time></trkpt><trkpt lat="41.71921254400299" lon="2.910139207476541"><ele>130.0</ele><time>2026-04-08T09:47:38.999Z</time></trkpt><trkpt lat="41.719214310736625" lon="2.9099341469943036"><ele>130.0</ele><time>2026-04-08T09:47:39.999Z</time></trkpt><trkpt lat="41.7192218054233" lon="2.9097380582988936"><ele>130.0</ele><time>2026-04-08T09:47:40.999Z</time></trkpt><trkpt lat="41.71922979286507" lon="2.9095345457158306"><ele>130.0</ele><time>2026-04-08T09:47:41.999Z</time></trkpt><trkpt lat="41.71923561027904" lon="2.9093404423339444"><ele>130.0</ele><time>2026-04-08T09:47:42.999Z</time></trkpt><trkpt lat="41.71923963002853" lon="2.9091560786382487"><ele>130.0</ele><time>2026-04-08T09:47:43.999Z</time></trkpt><trkpt lat="41.7192426287238" lon="2.908980281365997"><ele>130.0</ele><time>2026-04-08T09:47:44.999Z</time></trkpt><trkpt lat="41.719247968835354" lon="2.908814991351176"><ele>130.0</ele><time>2026-04-08T09:47:45.999Z</time></trkpt><trkpt lat="41.71925506574458" lon="2.908654081095956"><ele>130.0</ele><time>2026-04-08T09:47:46.999Z</time></trkpt><trkpt lat="41.719263472133555" lon="2.9084958966677483"><ele>130.0</ele><time>2026-04-08T09:47:47.999Z</time></trkpt><trkpt lat="41.71926721430029" lon="2.9083410370133156"><ele>130.0</ele><time>2026-04-08T09:47:48.999Z</time></trkpt><trkpt lat="41.71927478037196" lon="2.9081849854260247"><ele>130.0</ele><time>2026-04-08T09:47:49.999Z</time></trkpt><trkpt lat="41.719287722693146" lon="2.908022786487456"><ele>130.0</ele><time>2026-04-08T09:47:50.999Z</time></trkpt><trkpt lat="41.719311025616534" lon="2.907861731636749"><ele>130.0</ele><time>2026-04-08T09:47:51.999Z</time></trkpt><trkpt lat="41.719337847574266" lon="2.907711307709716"><ele>130.0</ele><time>2026-04-08T09:47:52.999Z</time></trkpt><trkpt lat="41.71935649350157" lon="2.90757511523199"><ele>131.0</ele><time>2026-04-08T09:47:53.999Z</time></trkpt><trkpt lat="41.71936255114825" lon="2.907433825691311"><ele>132.0</ele><time>2026-04-08T09:47:54.999Z</time></trkpt><trkpt lat="41.71939217597996" lon="2.9072863915591447"><ele>133.0</ele><time>2026-04-08T09:47:55.999Z</time></trkpt><trkpt lat="41.71940674137374" lon="2.907131723912236"><ele>134.0</ele><time>2026-04-08T09:47:56.999Z</time></trkpt><trkpt lat="41.71939832378669" lon="2.906971545066288"><ele>134.0</ele><time>2026-04-08T09:47:57.999Z</time></trkpt><trkpt lat="41.71940024548763" lon="2.9068209057804673"><ele>134.0</ele><time>2026-04-08T09:47:58.999Z</time></trkpt><trkpt lat="41.719391711680416" lon="2.9066865833626077"><ele>134.0</ele><time>2026-04-08T09:47:59.999Z</time></trkpt><trkpt lat="41.71938270860858" lon="2.9065671546664213"><ele>134.0</ele><time>2026-04-08T09:48:00.999Z</time></trkpt><trkpt lat="41.71938372379416" lon="2.906441755681611"><ele>134.0</ele><time>2026-04-08T09:48:01.999Z</time></trkpt><trkpt lat="41.719393638224105" lon="2.9063193684924973"><ele>136.0</ele><time>2026-04-08T09:48:02.999Z</time></trkpt><trkpt lat="41.719410423108606" lon="2.906199335451196"><ele>138.0</ele><time>2026-04-08T09:48:03.999Z</time></trkpt><trkpt lat="41.719434049096314" lon="2.9060614117442203"><ele>140.0</ele><time>2026-04-08T09:48:04.999Z</time></trkpt><trkpt lat="41.71947104862563" lon="2.9059009578353256"><ele>142.0</ele><time>2026-04-08T09:48:05.999Z</time></trkpt><trkpt lat="41.71952281642887" lon="2.9057218661570556"><ele>142.66666666666669</ele><time>2026-04-08T09:48:06.999Z</time></trkpt><trkpt lat="41.7195826792807" lon="2.9055295416678466"><ele>143.33333333333334</ele><time>2026-04-08T09:48:07.999Z</time></trkpt><trkpt lat="41.71965148817006" lon="2.9053216366673054"><ele>144.0</ele><time>2026-04-08T09:48:08.999Z</time></trkpt><trkpt lat="41.71972200997979" lon="2.9051098571411416"><ele>145.0</ele><time>2026-04-08T09:48:09.999Z</time></trkpt><trkpt lat="41.71979295737207" lon="2.9049008168435555"><ele>146.0</ele><time>2026-04-08T09:48:11Z</time></trkpt><trkpt lat="41.71986465745498" lon="2.9046840573030916"><ele>147.0</ele><time>2026-04-08T09:48:12Z</time></trkpt><trkpt lat="41.719941674992675" lon="2.90445042591775"><ele>149.33333333333334</ele><time>2026-04-08T09:48:13Z</time></trkpt><trkpt lat="41.72002285496742" lon="2.9042028136406244"><ele>151.66666666666669</ele><time>2026-04-08T09:48:14Z</time></trkpt><trkpt lat="41.720105440661165" lon="2.9039392707854175"><ele>154.0</ele><time>2026-04-08T09:48:15Z</time></trkpt><trkpt lat="41.720182432196104" lon="2.9036690040755717"><ele>155.0</ele><time>2026-04-08T09:48:16Z</time></trkpt><trkpt lat="41.72024593003278" lon="2.9034173169215998"><ele>156.0</ele><time>2026-04-08T09:48:17Z</time></trkpt><trkpt lat="41.720298374088266" lon="2.9031420695015666"><ele>157.0</ele><time>2026-04-08T09:48:18Z</time></trkpt><trkpt lat="41.720336014613345" lon="2.9028833283978823"><ele>157.0</ele><time>2026-04-08T09:48:19Z</time></trkpt><trkpt lat="41.72037696457414" lon="2.9026416779028885"><ele>157.0</ele><time>2026-04-08T09:48:20Z</time></trkpt><trkpt lat="41.72040302920046" lon="2.9024012726118547"><ele>157.0</ele><time>2026-04-08T09:48:21Z</time></trkpt><trkpt lat="41.72041503736195" lon="2.902184510099042"><ele>157.66666666666669</ele><time>2026-04-08T09:48:22Z</time></trkpt><trkpt lat="41.72043307136918" lon="2.9019693232412527"><ele>158.33333333333334</ele><time>2026-04-08T09:48:23Z</time></trkpt><trkpt lat="41.72042464652421" lon="2.901739498714799"><ele>159.0</ele><time>2026-04-08T09:48:24Z</time></trkpt><trkpt lat="41.72040478154219" lon="2.9014958099290444"><ele>160.66666666666666</ele><time>2026-04-08T09:48:25Z</time></trkpt><trkpt lat="41.72037935340096" lon="2.9012502250892607"><ele>162.33333333333331</ele><time>2026-04-08T09:48:26Z</time></trkpt><trkpt lat="41.72035678056719" lon="2.9010036659332097"><ele>164.0</ele><time>2026-04-08T09:48:27Z</time></trkpt><trkpt lat="41.720333807481026" lon="2.9007514270641575"><ele>164.33333333333331</ele><time>2026-04-08T09:48:28Z</time></trkpt><trkpt lat="41.72031114682394" lon="2.9004960739944017"><ele>164.66666666666666</ele><time>2026-04-08T09:48:29Z</time></trkpt><trkpt lat="41.72028933761083" lon="2.9002396026876975"><ele>165.0</ele><time>2026-04-08T09:48:30Z</time></trkpt><trkpt lat="41.72026864086831" lon="2.8999811205024804"><ele>165.0</ele><time>2026-04-08T09:48:31Z</time></trkpt><trkpt lat="41.72024402584386" lon="2.899722947809185"><ele>165.0</ele><time>2026-04-08T09:48:32Z</time></trkpt><trkpt lat="41.72021897429587" lon="2.899472324768133"><ele>165.0</ele><time>2026-04-08T09:48:33Z</time></trkpt><trkpt lat="41.72019758931637" lon="2.8992274708024475"><ele>166.66666666666666</ele><time>2026-04-08T09:48:34Z</time></trkpt><trkpt lat="41.720177078041374" lon="2.898996343772948"><ele>168.33333333333331</ele><time>2026-04-08T09:48:35Z</time></trkpt><trkpt lat="41.72015271838204" lon="2.8987882809609298"><ele>170.0</ele><time>2026-04-08T09:48:36Z</time></trkpt><trkpt lat="41.720144367313786" lon="2.8986034728601733"><ele>170.0</ele><time>2026-04-08T09:48:37Z</time></trkpt><trkpt lat="41.720097881114164" lon="2.8984420299545977"><ele>170.0</ele><time>2026-04-08T09:48:38Z</time></trkpt><trkpt lat="41.72005997418091" lon="2.8982891348547266"><ele>170.0</ele><time>2026-04-08T09:48:39Z</time></trkpt><trkpt lat="41.72001481856262" lon="2.8981561007720824"><ele>170.0</ele><time>2026-04-08T09:48:40Z</time></trkpt><trkpt lat="41.719961379299555" lon="2.8980372223349753"><ele>170.6</ele><time>2026-04-08T09:48:41Z</time></trkpt><trkpt lat="41.71990539964658" lon="2.897941209223989"><ele>171.2</ele><time>2026-04-08T09:48:42Z</time></trkpt><trkpt lat="41.71985197152176" lon="2.897866469566617"><ele>171.8</ele><time>2026-04-08T09:48:43Z</time></trkpt><trkpt lat="41.719798502183984" lon="2.8978050336728702"><ele>172.4</ele><time>2026-04-08T09:48:44Z</time></trkpt><trkpt lat="41.7197005666487" lon="2.8977162986326017"><ele>173.0</ele><time>2026-04-08T09:48:46Z</time></trkpt><trkpt lat="41.7195989109449" lon="2.8976374005352277"><ele>173.0</ele><time>2026-04-08T09:48:48Z</time></trkpt><trkpt lat="41.719539201530495" lon="2.8975914373809895"><ele>173.0</ele><time>2026-04-08T09:48:49Z</time></trkpt><trkpt lat="41.71947791809312" lon="2.8975545757247323"><ele>173.0</ele><time>2026-04-08T09:48:50Z</time></trkpt><trkpt lat="41.71941830229574" lon="2.8975174217798987"><ele>173.0</ele><time>2026-04-08T09:48:51Z</time></trkpt><trkpt lat="41.719307667509916" lon="2.897449598306157"><ele>173.0</ele><time>2026-04-08T09:48:53Z</time></trkpt><trkpt lat="41.71924965463623" lon="2.897409469144682"><ele>173.0</ele><time>2026-04-08T09:48:54Z</time></trkpt><trkpt lat="41.7191395090983" lon="2.8973348023279253"><ele>173.0</ele><time>2026-04-08T09:48:56Z</time></trkpt><trkpt lat="41.719078467200866" lon="2.8972985215317704"><ele>173.0</ele><time>2026-04-08T09:48:57Z</time></trkpt><trkpt lat="41.719018675940426" lon="2.8972539311254355"><ele>173.0</ele><time>2026-04-08T09:48:58Z</time></trkpt><trkpt lat="41.71896516686017" lon="2.8971810978292183"><ele>173.0</ele><time>2026-04-08T09:48:59Z</time></trkpt><trkpt lat="41.718921134861496" lon="2.8971093444886127"><ele>173.0</ele><time>2026-04-08T09:49:00Z</time></trkpt><trkpt lat="41.71888266904358" lon="2.8970293687087962"><ele>173.0</ele><time>2026-04-08T09:49:01Z</time></trkpt><trkpt lat="41.71886124206647" lon="2.8969386143434277"><ele>173.0</ele><time>2026-04-08T09:49:02Z</time></trkpt><trkpt lat="41.71884325674125" lon="2.896850673400973"><ele>173.0</ele><time>2026-04-08T09:49:03Z</time></trkpt><trkpt lat="41.71883921133989" lon="2.896755420825744"><ele>173.0</ele><time>2026-04-08T09:49:04Z</time></trkpt><trkpt lat="41.71883756929358" lon="2.8966587762077824"><ele>173.0</ele><time>2026-04-08T09:49:05Z</time></trkpt><trkpt lat="41.71883515038822" lon="2.896559606286458"><ele>173.0</ele><time>2026-04-08T09:49:06Z</time></trkpt><trkpt lat="41.718836917492546" lon="2.896459613876757"><ele>173.0</ele><time>2026-04-08T09:49:07Z</time></trkpt><trkpt lat="41.71884173101307" lon="2.896368608002588"><ele>173.0</ele><time>2026-04-08T09:49:08Z</time></trkpt><trkpt lat="41.718849913708524" lon="2.8962811621115865"><ele>173.0</ele><time>2026-04-08T09:49:09Z</time></trkpt><trkpt lat="41.7188607744254" lon="2.8961146399762066"><ele>174.7142857142857</ele><time>2026-04-08T09:49:11Z</time></trkpt><trkpt lat="41.71886582667065" lon="2.896021555282073"><ele>176.42857142857144</ele><time>2026-04-08T09:49:12Z</time></trkpt><trkpt lat="41.71885096740118" lon="2.895923468304456"><ele>178.14285714285714</ele><time>2026-04-08T09:49:13Z</time></trkpt><trkpt lat="41.71882581175037" lon="2.8958273554312113"><ele>179.85714285714283</ele><time>2026-04-08T09:49:14Z</time></trkpt><trkpt lat="41.71878892883733" lon="2.8957383952538085"><ele>181.57142857142856</ele><time>2026-04-08T09:49:15Z</time></trkpt><trkpt lat="41.71874181790603" lon="2.8956593637336527"><ele>183.28571428571428</ele><time>2026-04-08T09:49:16Z</time></trkpt><trkpt lat="41.71868617092981" lon="2.8955891361266333"><ele>185.0</ele><time>2026-04-08T09:49:17Z</time></trkpt><trkpt lat="41.71862006197479" lon="2.8955342866524725"><ele>182.66666666666666</ele><time>2026-04-08T09:49:18Z</time></trkpt><trkpt lat="41.71854604187467" lon="2.8954968170339486"><ele>180.33333333333331</ele><time>2026-04-08T09:49:19Z</time></trkpt><trkpt lat="41.718471129460994" lon="2.8954659936857823"><ele>178.0</ele><time>2026-04-08T09:49:20Z</time></trkpt><trkpt lat="41.718392712698524" lon="2.8954475951534437"><ele>175.66666666666666</ele><time>2026-04-08T09:49:21Z</time></trkpt><trkpt lat="41.71831581695479" lon="2.8954335396060227"><ele>173.33333333333334</ele><time>2026-04-08T09:49:22Z</time></trkpt><trkpt lat="41.718239420581995" lon="2.8954234279624043"><ele>171.0</ele><time>2026-04-08T09:49:22.999Z</time></trkpt><trkpt lat="41.718166756816096" lon="2.8954181530422995"><ele>171.0</ele><time>2026-04-08T09:49:23.999Z</time></trkpt><trkpt lat="41.71809678576111" lon="2.895410905241075"><ele>171.0</ele><time>2026-04-08T09:49:24.999Z</time></trkpt><trkpt lat="41.71803190493994" lon="2.8953948601285724"><ele>171.0</ele><time>2026-04-08T09:49:25.999Z</time></trkpt><trkpt lat="41.71791224736469" lon="2.8953621080382095"><ele>171.0</ele><time>2026-04-08T09:49:27.999Z</time></trkpt><trkpt lat="41.71784744755443" lon="2.895338249049949"><ele>171.0</ele><time>2026-04-08T09:49:28.999Z</time></trkpt><trkpt lat="41.7177839085444" lon="2.8953134338468165"><ele>171.0</ele><time>2026-04-08T09:49:29.999Z</time></trkpt><trkpt lat="41.71772657401914" lon="2.8952630237800725"><ele>170.99999999999997</ele><time>2026-04-08T09:49:30.999Z</time></trkpt><trkpt lat="41.71767259456115" lon="2.8952075217443944"><ele>171.0</ele><time>2026-04-08T09:49:31.999Z</time></trkpt><trkpt lat="41.71762665767339" lon="2.895133055563322"><ele>171.0</ele><time>2026-04-08T09:49:32.999Z</time></trkpt><trkpt lat="41.717604352109795" lon="2.895037869128569"><ele>171.0</ele><time>2026-04-08T09:49:33.999Z</time></trkpt><trkpt lat="41.7175833350155" lon="2.894941892001707"><ele>171.0</ele><time>2026-04-08T09:49:34.999Z</time></trkpt><trkpt lat="41.717567896613126" lon="2.8948331199796273"><ele>170.99999999999997</ele><time>2026-04-08T09:49:35.999Z</time></trkpt><trkpt lat="41.71755662360857" lon="2.8947318276156606"><ele>171.0</ele><time>2026-04-08T09:49:36.999Z</time></trkpt><trkpt lat="41.717551471209184" lon="2.8946355146141687"><ele>170.99999999999997</ele><time>2026-04-08T09:49:37.999Z</time></trkpt><trkpt lat="41.71755119110698" lon="2.894535529798977"><ele>171.0</ele><time>2026-04-08T09:49:38.999Z</time></trkpt><trkpt lat="41.717546815222335" lon="2.8944351601651954"><ele>171.0</ele><time>2026-04-08T09:49:39.999Z</time></trkpt><trkpt lat="41.71752127824627" lon="2.8943439705472627"><ele>171.0</ele><time>2026-04-08T09:49:40.999Z</time></trkpt><trkpt lat="41.71748565694116" lon="2.8942602021418415"><ele>171.0</ele><time>2026-04-08T09:49:41.999Z</time></trkpt><trkpt lat="41.71743886939584" lon="2.894189455260656"><ele>170.99999999999997</ele><time>2026-04-08T09:49:42.999Z</time></trkpt><trkpt lat="41.71738024936545" lon="2.8941302874837023"><ele>171.0</ele><time>2026-04-08T09:49:44Z</time></trkpt><trkpt lat="41.7173075750215" lon="2.8940896261378617"><ele>172.75</ele><time>2026-04-08T09:49:45Z</time></trkpt><trkpt lat="41.71722797622611" lon="2.8940836906515424"><ele>174.5</ele><time>2026-04-08T09:49:46Z</time></trkpt><trkpt lat="41.71712743198438" lon="2.894106315610068"><ele>176.25</ele><time>2026-04-08T09:49:47Z</time></trkpt><trkpt lat="41.71698767752324" lon="2.8941528435054575"><ele>178.0</ele><time>2026-04-08T09:49:48Z</time></trkpt><trkpt lat="41.716846209171926" lon="2.894192584106767"><ele>178.0</ele><time>2026-04-08T09:49:49Z</time></trkpt><trkpt lat="41.71671773518421" lon="2.89422264766886"><ele>178.0</ele><time>2026-04-08T09:49:50Z</time></trkpt><trkpt lat="41.71660546051309" lon="2.8942420847785546"><ele>178.0</ele><time>2026-04-08T09:49:51Z</time></trkpt><trkpt lat="41.7164954651061" lon="2.894237831731449"><ele>178.0</ele><time>2026-04-08T09:49:52Z</time></trkpt><trkpt lat="41.7163888650447" lon="2.8942005342574935"><ele>178.0</ele><time>2026-04-08T09:49:53Z</time></trkpt><trkpt lat="41.716295067828774" lon="2.894132951994795"><ele>178.0</ele><time>2026-04-08T09:49:54Z</time></trkpt><trkpt lat="41.716220326437565" lon="2.894047615224882"><ele>178.0</ele><time>2026-04-08T09:49:55Z</time></trkpt><trkpt lat="41.71615883364831" lon="2.8939577719241623"><ele>178.0</ele><time>2026-04-08T09:49:56Z</time></trkpt><trkpt lat="41.716098637416" lon="2.8938737238916223"><ele>178.0</ele><time>2026-04-08T09:49:57Z</time></trkpt><trkpt lat="41.716036379837384" lon="2.893795027038521"><ele>177.16666666666669</ele><time>2026-04-08T09:49:58Z</time></trkpt><trkpt lat="41.715975236057396" lon="2.893717286465183"><ele>176.33333333333334</ele><time>2026-04-08T09:49:59Z</time></trkpt><trkpt lat="41.71591457050166" lon="2.8936476815027654"><ele>175.5</ele><time>2026-04-08T09:50:00Z</time></trkpt><trkpt lat="41.71584401314274" lon="2.8935836888097195"><ele>174.66666666666666</ele><time>2026-04-08T09:50:01Z</time></trkpt><trkpt lat="41.71576656602028" lon="2.893539206196626"><ele>173.83333333333331</ele><time>2026-04-08T09:50:02Z</time></trkpt><trkpt lat="41.71568437590039" lon="2.8935137205434427"><ele>173.0</ele><time>2026-04-08T09:50:03Z</time></trkpt><trkpt lat="41.715602529334845" lon="2.8935048769016483"><ele>173.0</ele><time>2026-04-08T09:50:04Z</time></trkpt><trkpt lat="41.715523248277435" lon="2.8935081119734796"><ele>173.0</ele><time>2026-04-08T09:50:05Z</time></trkpt><trkpt lat="41.71543454740335" lon="2.893505897311144"><ele>173.0</ele><time>2026-04-08T09:50:06Z</time></trkpt><trkpt lat="41.71533959718899" lon="2.893505513950621"><ele>173.0</ele><time>2026-04-08T09:50:07Z</time></trkpt><trkpt lat="41.71523050821753" lon="2.8935125446481202"><ele>173.0</ele><time>2026-04-08T09:50:08Z</time></trkpt><trkpt lat="41.715116953231984" lon="2.8935199444275157"><ele>171.25</ele><time>2026-04-08T09:50:09Z</time></trkpt><trkpt lat="41.71500611921076" lon="2.893526915803144"><ele>169.5</ele><time>2026-04-08T09:50:10Z</time></trkpt><trkpt lat="41.71489307949442" lon="2.8935276383839197"><ele>167.75</ele><time>2026-04-08T09:50:11Z</time></trkpt><trkpt lat="41.71477836364364" lon="2.8935248235417323"><ele>166.0</ele><time>2026-04-08T09:50:12Z</time></trkpt><trkpt lat="41.714660272518344" lon="2.893520605884485"><ele>166.0</ele><time>2026-04-08T09:50:13Z</time></trkpt><trkpt lat="41.71454017689737" lon="2.8935191521936434"><ele>166.0</ele><time>2026-04-08T09:50:14Z</time></trkpt><trkpt lat="41.71442248351666" lon="2.8935247832067934"><ele>166.0</ele><time>2026-04-08T09:50:15Z</time></trkpt><trkpt lat="41.7143216799776" lon="2.893526329777227"><ele>166.0</ele><time>2026-04-08T09:50:16Z</time></trkpt><trkpt lat="41.71423883153828" lon="2.8935140124743755"><ele>166.0</ele><time>2026-04-08T09:50:17Z</time></trkpt><trkpt lat="41.71415871483215" lon="2.893478414153472"><ele>167.20000000000002</ele><time>2026-04-08T09:50:18Z</time></trkpt><trkpt lat="41.71408480872118" lon="2.893411111757746"><ele>168.4</ele><time>2026-04-08T09:50:19Z</time></trkpt><trkpt lat="41.71402337153504" lon="2.8933160654859167"><ele>169.6</ele><time>2026-04-08T09:50:20Z</time></trkpt><trkpt lat="41.713975593165934" lon="2.8932048311514658"><ele>170.8</ele><time>2026-04-08T09:50:21Z</time></trkpt><trkpt lat="41.71392950179069" lon="2.8930943071079316"><ele>172.0</ele><time>2026-04-08T09:50:22Z</time></trkpt><trkpt lat="41.71388397402389" lon="2.8929894292855702"><ele>172.0</ele><time>2026-04-08T09:50:23Z</time></trkpt><trkpt lat="41.71383471072267" lon="2.8928976409380325"><ele>172.0</ele><time>2026-04-08T09:50:24Z</time></trkpt><trkpt lat="41.71376833982667" lon="2.892820875214076"><ele>172.0</ele><time>2026-04-08T09:50:25Z</time></trkpt><trkpt lat="41.71368821068672" lon="2.892769765731013"><ele>172.0</ele><time>2026-04-08T09:50:26Z</time></trkpt><trkpt lat="41.71359764787445" lon="2.8927513233236373"><ele>172.0</ele><time>2026-04-08T09:50:27Z</time></trkpt><trkpt lat="41.71350278777993" lon="2.892766957583878"><ele>172.0</ele><time>2026-04-08T09:50:28Z</time></trkpt><trkpt lat="41.71341379805036" lon="2.8928204683346506"><ele>170.2</ele><time>2026-04-08T09:50:29Z</time></trkpt><trkpt lat="41.71333942575133" lon="2.892902667750578"><ele>168.39999999999998</ele><time>2026-04-08T09:50:30Z</time></trkpt><trkpt lat="41.71327900952875" lon="2.8930045620262437"><ele>166.60000000000002</ele><time>2026-04-08T09:50:31Z</time></trkpt><trkpt lat="41.713225903140085" lon="2.893119566687404"><ele>164.8</ele><time>2026-04-08T09:50:32Z</time></trkpt><trkpt lat="41.71316795886586" lon="2.8932275736395483"><ele>163.0</ele><time>2026-04-08T09:50:33Z</time></trkpt><trkpt lat="41.71309715399785" lon="2.8933161602485615"><ele>163.0</ele><time>2026-04-08T09:50:34Z</time></trkpt><trkpt lat="41.71300536040136" lon="2.8933982732627213"><ele>163.0</ele><time>2026-04-08T09:50:35Z</time></trkpt><trkpt lat="41.71289829669844" lon="2.8934508672007913"><ele>163.0</ele><time>2026-04-08T09:50:36Z</time></trkpt><trkpt lat="41.71277870771131" lon="2.893466925362676"><ele>163.0</ele><time>2026-04-08T09:50:37Z</time></trkpt><trkpt lat="41.712652085319256" lon="2.893466106066071"><ele>164.0</ele><time>2026-04-08T09:50:38Z</time></trkpt><trkpt lat="41.7125305835282" lon="2.8934601026608795"><ele>165.0</ele><time>2026-04-08T09:50:39Z</time></trkpt><trkpt lat="41.712418206242546" lon="2.8934592764440477"><ele>166.0</ele><time>2026-04-08T09:50:40Z</time></trkpt><trkpt lat="41.71230918685954" lon="2.893455179904094"><ele>167.0</ele><time>2026-04-08T09:50:41Z</time></trkpt><trkpt lat="41.71220606665611" lon="2.893431173840758"><ele>168.0</ele><time>2026-04-08T09:50:42Z</time></trkpt><trkpt lat="41.712106244973974" lon="2.8933845473425137"><ele>168.0</ele><time>2026-04-08T09:50:43Z</time></trkpt><trkpt lat="41.71201532448414" lon="2.893303951455963"><ele>168.0</ele><time>2026-04-08T09:50:44Z</time></trkpt><trkpt lat="41.711939181306306" lon="2.8931954663912234"><ele>168.0</ele><time>2026-04-08T09:50:45Z</time></trkpt><trkpt lat="41.7118878324086" lon="2.893057107050361"><ele>168.0</ele><time>2026-04-08T09:50:46.001Z</time></trkpt><trkpt lat="41.71184983607624" lon="2.89290479494975"><ele>164.25</ele><time>2026-04-08T09:50:47.001Z</time></trkpt><trkpt lat="41.71181882563036" lon="2.8927275262155834"><ele>160.5</ele><time>2026-04-08T09:50:48.001Z</time></trkpt><trkpt lat="41.71179132938854" lon="2.8925416655814384"><ele>156.75</ele><time>2026-04-08T09:50:49.001Z</time></trkpt><trkpt lat="41.71177249947237" lon="2.892365625146981"><ele>153.0</ele><time>2026-04-08T09:50:50.001Z</time></trkpt><trkpt lat="41.711768498745634" lon="2.8921861567809417"><ele>153.0</ele><time>2026-04-08T09:50:51.001Z</time></trkpt><trkpt lat="41.711777794883616" lon="2.8919954717874536"><ele>153.0</ele><time>2026-04-08T09:50:52.001Z</time></trkpt><trkpt lat="41.71180072171508" lon="2.8918030081092896"><ele>153.0</ele><time>2026-04-08T09:50:53.001Z</time></trkpt><trkpt lat="41.71182131223531" lon="2.89161313422019"><ele>153.0</ele><time>2026-04-08T09:50:54.001Z</time></trkpt><trkpt lat="41.71183351897672" lon="2.891429410653306"><ele>152.5</ele><time>2026-04-08T09:50:55.001Z</time></trkpt><trkpt lat="41.71182022334997" lon="2.8912555469174337"><ele>152.0</ele><time>2026-04-08T09:50:56.001Z</time></trkpt><trkpt lat="41.711786967900835" lon="2.8910842117213513"><ele>151.5</ele><time>2026-04-08T09:50:57.001Z</time></trkpt><trkpt lat="41.711757723854674" lon="2.8909108048841166"><ele>151.0</ele><time>2026-04-08T09:50:58.001Z</time></trkpt><trkpt lat="41.71173591683517" lon="2.890736106687023"><ele>150.8</ele><time>2026-04-08T09:50:59.001Z</time></trkpt><trkpt lat="41.71171890328869" lon="2.890574987691026"><ele>150.6</ele><time>2026-04-08T09:51:00.001Z</time></trkpt><trkpt lat="41.711716567051376" lon="2.890432269180085"><ele>150.4</ele><time>2026-04-08T09:51:01.001Z</time></trkpt><trkpt lat="41.71173207849251" lon="2.890309044104929"><ele>150.2</ele><time>2026-04-08T09:51:02.001Z</time></trkpt><trkpt lat="41.7117692658992" lon="2.8902003839360173"><ele>150.0</ele><time>2026-04-08T09:51:03.001Z</time></trkpt><trkpt lat="41.71183063327205" lon="2.8901138247540747"><ele>151.5</ele><time>2026-04-08T09:51:04.001Z</time></trkpt><trkpt lat="41.71192015682292" lon="2.8900419938273822"><ele>153.0</ele><time>2026-04-08T09:51:05.001Z</time></trkpt><trkpt lat="41.71202648422077" lon="2.889993875093551"><ele>154.5</ele><time>2026-04-08T09:51:06.001Z</time></trkpt><trkpt lat="41.71213649614065" lon="2.8899292712526243"><ele>156.0</ele><time>2026-04-08T09:51:07.001Z</time></trkpt><trkpt lat="41.712258051248256" lon="2.8898534873253543"><ele>156.0</ele><time>2026-04-08T09:51:08.001Z</time></trkpt><trkpt lat="41.712387567307246" lon="2.889758897634156"><ele>156.0</ele><time>2026-04-08T09:51:09.001Z</time></trkpt><trkpt lat="41.71251930549754" lon="2.889672991323265"><ele>156.0</ele><time>2026-04-08T09:51:10.001Z</time></trkpt><trkpt lat="41.71261705613557" lon="2.889521011169931"><ele>156.0</ele><time>2026-04-08T09:51:11.001Z</time></trkpt><trkpt lat="41.71271522692353" lon="2.8893695172540133"><ele>155.5</ele><time>2026-04-08T09:51:12.001Z</time></trkpt><trkpt lat="41.71282515844109" lon="2.8892350809877914"><ele>155.0</ele><time>2026-04-08T09:51:13.001Z</time></trkpt><trkpt lat="41.71291807637601" lon="2.889091645731842"><ele>154.5</ele><time>2026-04-08T09:51:14.001Z</time></trkpt><trkpt lat="41.71300737809951" lon="2.88896327123662"><ele>154.0</ele><time>2026-04-08T09:51:15.001Z</time></trkpt><trkpt lat="41.71309693894139" lon="2.8888592824361"><ele>154.0</ele><time>2026-04-08T09:51:16.001Z</time></trkpt><trkpt lat="41.713185523107455" lon="2.888772838751192"><ele>154.0</ele><time>2026-04-08T09:51:17.001Z</time></trkpt><trkpt lat="41.71329324706678" lon="2.8887344980569303"><ele>154.0</ele><time>2026-04-08T09:51:18.001Z</time></trkpt><trkpt lat="41.71341691348852" lon="2.8887224311907658"><ele>154.0</ele><time>2026-04-08T09:51:19.001Z</time></trkpt><trkpt lat="41.71355029126356" lon="2.8887580655029073"><ele>154.25</ele><time>2026-04-08T09:51:20.001Z</time></trkpt><trkpt lat="41.71369481129211" lon="2.888783256445717"><ele>154.5</ele><time>2026-04-08T09:51:21.001Z</time></trkpt><trkpt lat="41.71384098278413" lon="2.8887808313544237"><ele>154.75</ele><time>2026-04-08T09:51:22.001Z</time></trkpt><trkpt lat="41.713966273434814" lon="2.8887874507691382"><ele>155.0</ele><time>2026-04-08T09:51:23.001Z</time></trkpt><trkpt lat="41.714082181584985" lon="2.8888017023835495"><ele>155.0</ele><time>2026-04-08T09:51:24.001Z</time></trkpt><trkpt lat="41.71419438657354" lon="2.8887766793483065"><ele>155.0</ele><time>2026-04-08T09:51:25.001Z</time></trkpt><trkpt lat="41.71430037391331" lon="2.8887331421845532"><ele>155.0</ele><time>2026-04-08T09:51:26.001Z</time></trkpt><trkpt lat="41.71440396166787" lon="2.888652033796665"><ele>155.0</ele><time>2026-04-08T09:51:27.001Z</time></trkpt><trkpt lat="41.71448589904469" lon="2.8885430130331935"><ele>154.0</ele><time>2026-04-08T09:51:28.001Z</time></trkpt><trkpt lat="41.714549158344006" lon="2.8884139239945905"><ele>153.0</ele><time>2026-04-08T09:51:29Z</time></trkpt><trkpt lat="41.714571709569576" lon="2.888264229452255"><ele>152.0</ele><time>2026-04-08T09:51:30Z</time></trkpt><trkpt lat="41.7145812129048" lon="2.8881151108071053"><ele>151.0</ele><time>2026-04-08T09:51:31Z</time></trkpt><trkpt lat="41.71456539219668" lon="2.8879639226003837"><ele>151.0</ele><time>2026-04-08T09:51:32Z</time></trkpt><trkpt lat="41.71452208371938" lon="2.8878187250260243"><ele>151.0</ele><time>2026-04-08T09:51:33Z</time></trkpt><trkpt lat="41.71445685216899" lon="2.8876895239931724"><ele>151.0</ele><time>2026-04-08T09:51:34Z</time></trkpt><trkpt lat="41.714368544910585" lon="2.8875822271241267"><ele>151.0</ele><time>2026-04-08T09:51:35Z</time></trkpt><trkpt lat="41.71426172373688" lon="2.8875130449173256"><ele>146.75</ele><time>2026-04-08T09:51:36Z</time></trkpt><trkpt lat="41.71414086390843" lon="2.88746427404506"><ele>142.5</ele><time>2026-04-08T09:51:37Z</time></trkpt><trkpt lat="41.71400842334618" lon="2.887438426939227"><ele>138.25</ele><time>2026-04-08T09:51:38Z</time></trkpt><trkpt lat="41.713865873360405" lon="2.8874259569267458"><ele>134.0</ele><time>2026-04-08T09:51:39Z</time></trkpt><trkpt lat="41.713717938004734" lon="2.8874188843426913"><ele>130.0</ele><time>2026-04-08T09:51:40Z</time></trkpt><trkpt lat="41.71356715482302" lon="2.887405167215391"><ele>126.0</ele><time>2026-04-08T09:51:41Z</time></trkpt><trkpt lat="41.713410098351645" lon="2.8873905446870514"><ele>122.0</ele><time>2026-04-08T09:51:42Z</time></trkpt><trkpt lat="41.71324828448925" lon="2.8873794029798243"><ele>122.0</ele><time>2026-04-08T09:51:43Z</time></trkpt><trkpt lat="41.71309612668195" lon="2.887371713323937"><ele>122.0</ele><time>2026-04-08T09:51:44Z</time></trkpt><trkpt lat="41.71295374964159" lon="2.887358000439952"><ele>122.0</ele><time>2026-04-08T09:51:45Z</time></trkpt><trkpt lat="41.71281225413789" lon="2.887348279768817"><ele>122.0</ele><time>2026-04-08T09:51:46Z</time></trkpt><trkpt lat="41.71267027666953" lon="2.8873257569866473"><ele>119.75</ele><time>2026-04-08T09:51:47Z</time></trkpt><trkpt lat="41.71253203429147" lon="2.887272270426296"><ele>117.5</ele><time>2026-04-08T09:51:48Z</time></trkpt><trkpt lat="41.71240376337749" lon="2.8871836363245627"><ele>115.25</ele><time>2026-04-08T09:51:49Z</time></trkpt><trkpt lat="41.71228347806135" lon="2.8870751243540913"><ele>113.0</ele><time>2026-04-08T09:51:50Z</time></trkpt><trkpt lat="41.712172736002245" lon="2.8869456760864525"><ele>113.0</ele><time>2026-04-08T09:51:51Z</time></trkpt><trkpt lat="41.71206933242017" lon="2.8868086167660034"><ele>113.0</ele><time>2026-04-08T09:51:52Z</time></trkpt><trkpt lat="41.71196240497757" lon="2.886682240945267"><ele>113.0</ele><time>2026-04-08T09:51:53Z</time></trkpt><trkpt lat="41.71185886462312" lon="2.886566566638028"><ele>113.0</ele><time>2026-04-08T09:51:54Z</time></trkpt><trkpt lat="41.711763222444766" lon="2.8864579868056732"><ele>112.60000000000001</ele><time>2026-04-08T09:51:55Z</time></trkpt><trkpt lat="41.711673006730265" lon="2.8863541367358243"><ele>112.20000000000002</ele><time>2026-04-08T09:51:56Z</time></trkpt><trkpt lat="41.71159601849051" lon="2.8862446641564046"><ele>111.8</ele><time>2026-04-08T09:51:57Z</time></trkpt><trkpt lat="41.71153544829228" lon="2.8861247936656667"><ele>111.4</ele><time>2026-04-08T09:51:58Z</time></trkpt><trkpt lat="41.711497703486735" lon="2.88599742069965"><ele>111.0</ele><time>2026-04-08T09:51:59Z</time></trkpt><trkpt lat="41.711483172268885" lon="2.885865407315057"><ele>113.6</ele><time>2026-04-08T09:52:00Z</time></trkpt><trkpt lat="41.71149261118282" lon="2.8857286343885007"><ele>116.19999999999999</ele><time>2026-04-08T09:52:01Z</time></trkpt><trkpt lat="41.711529070482705" lon="2.8855888933045546"><ele>118.80000000000001</ele><time>2026-04-08T09:52:02Z</time></trkpt><trkpt lat="41.71157904830767" lon="2.8854536109503837"><ele>121.4</ele><time>2026-04-08T09:52:03Z</time></trkpt><trkpt lat="41.711639146328956" lon="2.8853132300910804"><ele>124.0</ele><time>2026-04-08T09:52:04Z</time></trkpt><trkpt lat="41.71170734711662" lon="2.885164971383104"><ele>121.5</ele><time>2026-04-08T09:52:05Z</time></trkpt><trkpt lat="41.71178111473511" lon="2.885010722644787"><ele>119.0</ele><time>2026-04-08T09:52:06Z</time></trkpt><trkpt lat="41.711855038801204" lon="2.8848470489947253"><ele>116.5</ele><time>2026-04-08T09:52:07Z</time></trkpt><trkpt lat="41.71192555797696" lon="2.884688409789599"><ele>114.0</ele><time>2026-04-08T09:52:08Z</time></trkpt><trkpt lat="41.71199633393735" lon="2.884537371674752"><ele>117.75</ele><time>2026-04-08T09:52:09Z</time></trkpt><trkpt lat="41.712077972444916" lon="2.8843984587047773"><ele>121.5</ele><time>2026-04-08T09:52:10Z</time></trkpt><trkpt lat="41.71218045835459" lon="2.884285971596962"><ele>125.25</ele><time>2026-04-08T09:52:11Z</time></trkpt><trkpt lat="41.712275438837665" lon="2.884171103736802"><ele>129.0</ele><time>2026-04-08T09:52:12Z</time></trkpt><trkpt lat="41.71236226424343" lon="2.884046552422863"><ele>129.0</ele><time>2026-04-08T09:52:13Z</time></trkpt><trkpt lat="41.71246255426199" lon="2.883945454447734"><ele>129.0</ele><time>2026-04-08T09:52:14Z</time></trkpt><trkpt lat="41.71254957626456" lon="2.8838363831673663"><ele>129.0</ele><time>2026-04-08T09:52:15Z</time></trkpt><trkpt lat="41.712619597118056" lon="2.883719744294041"><ele>129.0</ele><time>2026-04-08T09:52:16Z</time></trkpt><trkpt lat="41.71266641486617" lon="2.88358670769248"><ele>129.0</ele><time>2026-04-08T09:52:17Z</time></trkpt><trkpt lat="41.71268997745731" lon="2.8834473302031487"><ele>129.0</ele><time>2026-04-08T09:52:18Z</time></trkpt><trkpt lat="41.71268102953408" lon="2.8833024310131923"><ele>129.0</ele><time>2026-04-08T09:52:19.001Z</time></trkpt><trkpt lat="41.71264000003377" lon="2.8831624020284563"><ele>129.0</ele><time>2026-04-08T09:52:20.001Z</time></trkpt><trkpt lat="41.71257015944988" lon="2.883031824701601"><ele>129.0</ele><time>2026-04-08T09:52:21.001Z</time></trkpt><trkpt lat="41.71247840450773" lon="2.8829167092131947"><ele>126.5</ele><time>2026-04-08T09:52:22.001Z</time></trkpt><trkpt lat="41.712370124979934" lon="2.8828189542349434"><ele>124.0</ele><time>2026-04-08T09:52:23.001Z</time></trkpt><trkpt lat="41.712255181871626" lon="2.8827298102521333"><ele>121.5</ele><time>2026-04-08T09:52:24.001Z</time></trkpt><trkpt lat="41.712134147894865" lon="2.882640863613326"><ele>119.0</ele><time>2026-04-08T09:52:25.001Z</time></trkpt><trkpt lat="41.71201277549452" lon="2.8825500966915087"><ele>118.0</ele><time>2026-04-08T09:52:26.001Z</time></trkpt><trkpt lat="41.711893499282034" lon="2.882454040488474"><ele>117.0</ele><time>2026-04-08T09:52:27.001Z</time></trkpt><trkpt lat="41.71177320917633" lon="2.8823614850286368"><ele>116.0</ele><time>2026-04-08T09:52:28.001Z</time></trkpt><trkpt lat="41.71165075627738" lon="2.882276333411072"><ele>115.0</ele><time>2026-04-08T09:52:29.001Z</time></trkpt><trkpt lat="41.71153398299623" lon="2.88218548409297"><ele>115.0</ele><time>2026-04-08T09:52:30.001Z</time></trkpt><trkpt lat="41.71142375066574" lon="2.882099107403397"><ele>115.0</ele><time>2026-04-08T09:52:31.001Z</time></trkpt><trkpt lat="41.71132094815713" lon="2.882024035186316"><ele>115.0</ele><time>2026-04-08T09:52:32.001Z</time></trkpt><trkpt lat="41.71122922047946" lon="2.8819534343556166"><ele>115.0</ele><time>2026-04-08T09:52:33.001Z</time></trkpt><trkpt lat="41.71114844157986" lon="2.8818848878698184"><ele>115.0</ele><time>2026-04-08T09:52:34.001Z</time></trkpt><trkpt lat="41.71108477740108" lon="2.8818062767016777"><ele>114.2</ele><time>2026-04-08T09:52:35.001Z</time></trkpt><trkpt lat="41.7110363098835" lon="2.881706331989923"><ele>113.4</ele><time>2026-04-08T09:52:36.001Z</time></trkpt><trkpt lat="41.71100234589132" lon="2.8815829781384616"><ele>112.6</ele><time>2026-04-08T09:52:37.001Z</time></trkpt><trkpt lat="41.710994022071" lon="2.8814577923359215"><ele>111.8</ele><time>2026-04-08T09:52:38.001Z</time></trkpt><trkpt lat="41.71100513747125" lon="2.8813193358544913"><ele>111.0</ele><time>2026-04-08T09:52:39.001Z</time></trkpt><trkpt lat="41.71102860775499" lon="2.8811786007279805"><ele>111.0</ele><time>2026-04-08T09:52:40.001Z</time></trkpt><trkpt lat="41.711051505976684" lon="2.8810286544429466"><ele>111.0</ele><time>2026-04-08T09:52:41.001Z</time></trkpt><trkpt lat="41.711060762271174" lon="2.880878260048421"><ele>111.0</ele><time>2026-04-08T09:52:42.001Z</time></trkpt><trkpt lat="41.711045041173136" lon="2.880738539115899"><ele>111.0</ele><time>2026-04-08T09:52:43.001Z</time></trkpt><trkpt lat="41.711006672952465" lon="2.880615845707931"><ele>111.0</ele><time>2026-04-08T09:52:44.001Z</time></trkpt><trkpt lat="41.71096296820022" lon="2.88049858771001"><ele>110.19999999999999</ele><time>2026-04-08T09:52:45.001Z</time></trkpt><trkpt lat="41.71092259080665" lon="2.8803749413108206"><ele>109.39999999999999</ele><time>2026-04-08T09:52:46.001Z</time></trkpt><trkpt lat="41.71089579629524" lon="2.8802492732738183"><ele>108.6</ele><time>2026-04-08T09:52:47.001Z</time></trkpt><trkpt lat="41.71088732372876" lon="2.88012376347575"><ele>107.8</ele><time>2026-04-08T09:52:48.001Z</time></trkpt><trkpt lat="41.7109022716515" lon="2.879995619766135"><ele>107.0</ele><time>2026-04-08T09:52:49.001Z</time></trkpt><trkpt lat="41.71094300084958" lon="2.8798727345501822"><ele>105.75</ele><time>2026-04-08T09:52:50.001Z</time></trkpt><trkpt lat="41.711005175946596" lon="2.8797619903325926"><ele>104.5</ele><time>2026-04-08T09:52:51.001Z</time></trkpt><trkpt lat="41.71108910485752" lon="2.8796659008701626"><ele>103.25</ele><time>2026-04-08T09:52:52.001Z</time></trkpt><trkpt lat="41.711187258912695" lon="2.8795748771631953"><ele>102.0</ele><time>2026-04-08T09:52:53.001Z</time></trkpt><trkpt lat="41.71129262334618" lon="2.8794788435233336"><ele>103.5</ele><time>2026-04-08T09:52:54.001Z</time></trkpt><trkpt lat="41.711392811013084" lon="2.879365406272375"><ele>105.0</ele><time>2026-04-08T09:52:55.001Z</time></trkpt><trkpt lat="41.71147701693642" lon="2.87923697731249"><ele>106.5</ele><time>2026-04-08T09:52:56.001Z</time></trkpt><trkpt lat="41.71153981270599" lon="2.879094763762769"><ele>108.0</ele><time>2026-04-08T09:52:57.001Z</time></trkpt><trkpt lat="41.711613638988226" lon="2.8789753408134557"><ele>108.0</ele><time>2026-04-08T09:52:58.001Z</time></trkpt><trkpt lat="41.71167285671489" lon="2.8788537918644446"><ele>108.00000000000001</ele><time>2026-04-08T09:52:59.001Z</time></trkpt><trkpt lat="41.71175774019381" lon="2.8787695952522645"><ele>108.00000000000001</ele><time>2026-04-08T09:53:00.001Z</time></trkpt><trkpt lat="41.71185645884295" lon="2.878704889763372"><ele>108.0</ele><time>2026-04-08T09:53:01.001Z</time></trkpt><trkpt lat="41.71197533970001" lon="2.8786831616831363"><ele>108.0</ele><time>2026-04-08T09:53:02.001Z</time></trkpt><trkpt lat="41.71209997293054" lon="2.8786256281722165"><ele>111.5</ele><time>2026-04-08T09:53:03.001Z</time></trkpt><trkpt lat="41.712231853251566" lon="2.878602482296699"><ele>115.0</ele><time>2026-04-08T09:53:04.001Z</time></trkpt><trkpt lat="41.71235641259936" lon="2.8785676341882507"><ele>118.5</ele><time>2026-04-08T09:53:05.001Z</time></trkpt><trkpt lat="41.71248129387475" lon="2.8785336813256257"><ele>122.0</ele><time>2026-04-08T09:53:06.001Z</time></trkpt><trkpt lat="41.712612312000346" lon="2.8785047977368037"><ele>120.0</ele><time>2026-04-08T09:53:07.001Z</time></trkpt><trkpt lat="41.71274907490536" lon="2.8784943695284553"><ele>118.0</ele><time>2026-04-08T09:53:08.001Z</time></trkpt><trkpt lat="41.71289057292539" lon="2.8784958703957155"><ele>116.0</ele><time>2026-04-08T09:53:09.001Z</time></trkpt><trkpt lat="41.71303297199859" lon="2.878506876489832"><ele>114.0</ele><time>2026-04-08T09:53:10.001Z</time></trkpt><trkpt lat="41.713171706909804" lon="2.878514937260929"><ele>114.0</ele><time>2026-04-08T09:53:11.001Z</time></trkpt><trkpt lat="41.713306650909445" lon="2.8785216835346437"><ele>114.0</ele><time>2026-04-08T09:53:12.001Z</time></trkpt><trkpt lat="41.71343680656723" lon="2.878528168649304"><ele>114.0</ele><time>2026-04-08T09:53:13.001Z</time></trkpt><trkpt lat="41.713561617343984" lon="2.8785273100837743"><ele>114.0</ele><time>2026-04-08T09:53:14.001Z</time></trkpt><trkpt lat="41.71367360712563" lon="2.8785110418120636"><ele>112.2</ele><time>2026-04-08T09:53:15.001Z</time></trkpt><trkpt lat="41.71377032554728" lon="2.8784700742547487"><ele>110.4</ele><time>2026-04-08T09:53:16.001Z</time></trkpt><trkpt lat="41.71385020037683" lon="2.8784009451670878"><ele>108.6</ele><time>2026-04-08T09:53:17.001Z</time></trkpt><trkpt lat="41.713912339646065" lon="2.878312704765505"><ele>106.8</ele><time>2026-04-08T09:53:18.001Z</time></trkpt><trkpt lat="41.71395360956394" lon="2.878205733627452"><ele>105.0</ele><time>2026-04-08T09:53:19.001Z</time></trkpt><trkpt lat="41.71397183543982" lon="2.878083190745518"><ele>102.4</ele><time>2026-04-08T09:53:20.001Z</time></trkpt><trkpt lat="41.71395392777713" lon="2.8779597110846034"><ele>99.8</ele><time>2026-04-08T09:53:21.001Z</time></trkpt><trkpt lat="41.713903332525604" lon="2.877845787287292"><ele>97.19999999999999</ele><time>2026-04-08T09:53:22.001Z</time></trkpt><trkpt lat="41.71382213879988" lon="2.877750520137806"><ele>94.6</ele><time>2026-04-08T09:53:23.001Z</time></trkpt><trkpt lat="41.71372033559254" lon="2.8776780972915383"><ele>92.0</ele><time>2026-04-08T09:53:24.001Z</time></trkpt><trkpt lat="41.713598831413826" lon="2.8776222078965925"><ele>91.75</ele><time>2026-04-08T09:53:25.001Z</time></trkpt><trkpt lat="41.7134658443753" lon="2.877581398111668"><ele>91.5</ele><time>2026-04-08T09:53:26.001Z</time></trkpt><trkpt lat="41.71332728561127" lon="2.8775497233388174"><ele>91.25</ele><time>2026-04-08T09:53:27.001Z</time></trkpt><trkpt lat="41.71319643753615" lon="2.877518187552307"><ele>91.0</ele><time>2026-04-08T09:53:28.001Z</time></trkpt><trkpt lat="41.71305974606547" lon="2.8774890809428424"><ele>91.0</ele><time>2026-04-08T09:53:29.001Z</time></trkpt><trkpt lat="41.71292772960509" lon="2.8774514228198074"><ele>91.0</ele><time>2026-04-08T09:53:30.001Z</time></trkpt><trkpt lat="41.71280002604957" lon="2.8774196127421887"><ele>91.0</ele><time>2026-04-08T09:53:31.001Z</time></trkpt><trkpt lat="41.71267338285813" lon="2.8773906765263098"><ele>91.0</ele><time>2026-04-08T09:53:32.001Z</time></trkpt><trkpt lat="41.712555905607815" lon="2.877364016156809"><ele>87.0</ele><time>2026-04-08T09:53:33.001Z</time></trkpt><trkpt lat="41.7124437991976" lon="2.877316205339424"><ele>83.0</ele><time>2026-04-08T09:53:34.001Z</time></trkpt><trkpt lat="41.712334785941025" lon="2.877244116321307"><ele>79.0</ele><time>2026-04-08T09:53:35Z</time></trkpt><trkpt lat="41.712224156400495" lon="2.877138692480956"><ele>75.0</ele><time>2026-04-08T09:53:36Z</time></trkpt><trkpt lat="41.71211493461876" lon="2.877003019348381"><ele>75.0</ele><time>2026-04-08T09:53:37Z</time></trkpt><trkpt lat="41.712007493365284" lon="2.8768520746423403"><ele>75.0</ele><time>2026-04-08T09:53:38Z</time></trkpt><trkpt lat="41.71190033152795" lon="2.8766941721025474"><ele>75.0</ele><time>2026-04-08T09:53:39Z</time></trkpt><trkpt lat="41.711794786088895" lon="2.876549059088367"><ele>71.75</ele><time>2026-04-08T09:53:40Z</time></trkpt><trkpt lat="41.71169623944161" lon="2.876410909256339"><ele>68.5</ele><time>2026-04-08T09:53:41Z</time></trkpt><trkpt lat="41.71160099064414" lon="2.8762830106027284"><ele>65.25</ele><time>2026-04-08T09:53:42Z</time></trkpt><trkpt lat="41.71149851973249" lon="2.8761787345125027"><ele>62.0</ele><time>2026-04-08T09:53:43Z</time></trkpt><trkpt lat="41.71138636079625" lon="2.8761149850642544"><ele>62.0</ele><time>2026-04-08T09:53:44Z</time></trkpt><trkpt lat="41.71126707377124" lon="2.876088031779681"><ele>62.0</ele><time>2026-04-08T09:53:45Z</time></trkpt><trkpt lat="41.71114578297259" lon="2.8761016104238286"><ele>62.0</ele><time>2026-04-08T09:53:46Z</time></trkpt><trkpt lat="41.71102832822371" lon="2.8761630792202557"><ele>62.0</ele><time>2026-04-08T09:53:47Z</time></trkpt><trkpt lat="41.71091893298709" lon="2.876260847512212"><ele>61.25</ele><time>2026-04-08T09:53:48Z</time></trkpt><trkpt lat="41.71082029397487" lon="2.876371402222065"><ele>60.5</ele><time>2026-04-08T09:53:49Z</time></trkpt><trkpt lat="41.71072733776764" lon="2.87647473235944"><ele>59.75</ele><time>2026-04-08T09:53:50Z</time></trkpt><trkpt lat="41.71063257778978" lon="2.876573617289157"><ele>59.0</ele><time>2026-04-08T09:53:51Z</time></trkpt><trkpt lat="41.71053877885701" lon="2.8766647693824043"><ele>59.0</ele><time>2026-04-08T09:53:52Z</time></trkpt><trkpt lat="41.710455254665824" lon="2.876749008141306"><ele>59.00000000000001</ele><time>2026-04-08T09:53:53Z</time></trkpt><trkpt lat="41.71037053692116" lon="2.8768315561204987"><ele>59.00000000000001</ele><time>2026-04-08T09:53:54Z</time></trkpt><trkpt lat="41.7102833182896" lon="2.8768945740572693"><ele>59.0</ele><time>2026-04-08T09:53:55Z</time></trkpt><trkpt lat="41.7102021597401" lon="2.876930251970612"><ele>59.0</ele><time>2026-04-08T09:53:56Z</time></trkpt><trkpt lat="41.71011245119704" lon="2.8769258142624716"><ele>60.400000000000006</ele><time>2026-04-08T09:53:57Z</time></trkpt><trkpt lat="41.71002893250108" lon="2.8768909911354594"><ele>61.800000000000004</ele><time>2026-04-08T09:53:58Z</time></trkpt><trkpt lat="41.709951546203065" lon="2.8768283158227623"><ele>63.199999999999996</ele><time>2026-04-08T09:53:59Z</time></trkpt><trkpt lat="41.709886939111996" lon="2.876730563369708"><ele>64.6</ele><time>2026-04-08T09:54:00Z</time></trkpt><trkpt lat="41.70983385056048" lon="2.8766142778275454"><ele>66.0</ele><time>2026-04-08T09:54:01Z</time></trkpt><trkpt lat="41.70977900872752" lon="2.876512613359684"><ele>66.0</ele><time>2026-04-08T09:54:02Z</time></trkpt><trkpt lat="41.709729596893006" lon="2.8763911092815144"><ele>66.0</ele><time>2026-04-08T09:54:03Z</time></trkpt><trkpt lat="41.70967310177544" lon="2.8762667386509553"><ele>66.0</ele><time>2026-04-08T09:54:04Z</time></trkpt><trkpt lat="41.7096078294513" lon="2.8761585107954133"><ele>66.0</ele><time>2026-04-08T09:54:05Z</time></trkpt><trkpt lat="41.7095300690278" lon="2.8760734837776125"><ele>66.0</ele><time>2026-04-08T09:54:06Z</time></trkpt><trkpt lat="41.709433163325" lon="2.8760087165309374"><ele>63.199999999999996</ele><time>2026-04-08T09:54:07Z</time></trkpt><trkpt lat="41.70932697097552" lon="2.875973418700862"><ele>60.39999999999999</ele><time>2026-04-08T09:54:08Z</time></trkpt><trkpt lat="41.7092116977175" lon="2.8759678916945264"><ele>57.6</ele><time>2026-04-08T09:54:09Z</time></trkpt><trkpt lat="41.70910107990161" lon="2.875980686878979"><ele>54.8</ele><time>2026-04-08T09:54:10Z</time></trkpt><trkpt lat="41.70899959337052" lon="2.875995830622299"><ele>52.0</ele><time>2026-04-08T09:54:11Z</time></trkpt><trkpt lat="41.70890587004994" lon="2.875994374034063"><ele>51.99999999999999</ele><time>2026-04-08T09:54:12Z</time></trkpt><trkpt lat="41.708830648455084" lon="2.8759660684150092"><ele>52.0</ele><time>2026-04-08T09:54:13Z</time></trkpt><trkpt lat="41.70876778994148" lon="2.8759168972320523"><ele>52.0</ele><time>2026-04-08T09:54:14.001Z</time></trkpt><trkpt lat="41.708707285148265" lon="2.8758410117145923"><ele>52.0</ele><time>2026-04-08T09:54:15.001Z</time></trkpt><trkpt lat="41.70865565450971" lon="2.875729200883145"><ele>51.99999999999999</ele><time>2026-04-08T09:54:16.001Z</time></trkpt><trkpt lat="41.70861758617767" lon="2.875593441664772"><ele>52.0</ele><time>2026-04-08T09:54:17.001Z</time></trkpt><trkpt lat="41.70859244477792" lon="2.8754485898577444"><ele>54.2</ele><time>2026-04-08T09:54:18.001Z</time></trkpt><trkpt lat="41.70857314314939" lon="2.8753017444510767"><ele>56.400000000000006</ele><time>2026-04-08T09:54:19.001Z</time></trkpt><trkpt lat="41.70854463262421" lon="2.875162299885893"><ele>58.599999999999994</ele><time>2026-04-08T09:54:20.001Z</time></trkpt><trkpt lat="41.708513172965226" lon="2.8750244819615105"><ele>60.8</ele><time>2026-04-08T09:54:21.001Z</time></trkpt><trkpt lat="41.70848200310621" lon="2.8748811923511597"><ele>63.0</ele><time>2026-04-08T09:54:22.001Z</time></trkpt><trkpt lat="41.70845333352601" lon="2.874732145815791"><ele>65.75</ele><time>2026-04-08T09:54:23.001Z</time></trkpt><trkpt lat="41.70842339069427" lon="2.874582183868713"><ele>68.5</ele><time>2026-04-08T09:54:24.001Z</time></trkpt><trkpt lat="41.70839763332863" lon="2.8744282894118496"><ele>71.25</ele><time>2026-04-08T09:54:25.001Z</time></trkpt><trkpt lat="41.7083668869925" lon="2.874273448817164"><ele>74.0</ele><time>2026-04-08T09:54:26.001Z</time></trkpt><trkpt lat="41.708339986404965" lon="2.8741147864227883"><ele>76.25</ele><time>2026-04-08T09:54:27.001Z</time></trkpt><trkpt lat="41.708308363294215" lon="2.8739548326098854"><ele>78.5</ele><time>2026-04-08T09:54:28.001Z</time></trkpt><trkpt lat="41.70827941773812" lon="2.8737923376223073"><ele>80.75</ele><time>2026-04-08T09:54:29.001Z</time></trkpt><trkpt lat="41.70825117432127" lon="2.873631900465862"><ele>83.0</ele><time>2026-04-08T09:54:30.001Z</time></trkpt><trkpt lat="41.70822162427341" lon="2.873465394877641"><ele>84.75</ele><time>2026-04-08T09:54:31.001Z</time></trkpt><trkpt lat="41.7081909261324" lon="2.873295085899371"><ele>86.5</ele><time>2026-04-08T09:54:32.001Z</time></trkpt><trkpt lat="41.70816070650167" lon="2.873122798100349"><ele>88.25</ele><time>2026-04-08T09:54:33.001Z</time></trkpt><trkpt lat="41.708129772174814" lon="2.872949553981016"><ele>90.0</ele><time>2026-04-08T09:54:34.001Z</time></trkpt><trkpt lat="41.70809744118201" lon="2.8727675309100387"><ele>89.33333333333333</ele><time>2026-04-08T09:54:35.001Z</time></trkpt><trkpt lat="41.70806287689045" lon="2.8725760429965206"><ele>88.66666666666666</ele><time>2026-04-08T09:54:36.001Z</time></trkpt><trkpt lat="41.70802592273549" lon="2.872378002005559"><ele>88.0</ele><time>2026-04-08T09:54:37.001Z</time></trkpt><trkpt lat="41.70799175885766" lon="2.872174731892733"><ele>88.0</ele><time>2026-04-08T09:54:38.001Z</time></trkpt><trkpt lat="41.70795872997165" lon="2.8719611516416808"><ele>88.0</ele><time>2026-04-08T09:54:39.001Z</time></trkpt><trkpt lat="41.70792309522029" lon="2.8717404842289946"><ele>88.0</ele><time>2026-04-08T09:54:40.001Z</time></trkpt><trkpt lat="41.70788488710198" lon="2.8715174326673414"><ele>86.66666666666666</ele><time>2026-04-08T09:54:41.001Z</time></trkpt><trkpt lat="41.7078498783046" lon="2.8712942274137685"><ele>85.33333333333333</ele><time>2026-04-08T09:54:42.001Z</time></trkpt><trkpt lat="41.70781589488462" lon="2.8710702427165935"><ele>84.0</ele><time>2026-04-08T09:54:43.001Z</time></trkpt><trkpt lat="41.707774703828306" lon="2.870846369975793"><ele>80.0</ele><time>2026-04-08T09:54:44.001Z</time></trkpt><trkpt lat="41.70773320423006" lon="2.8706158042582284"><ele>76.0</ele><time>2026-04-08T09:54:45.001Z</time></trkpt><trkpt lat="41.70768795505134" lon="2.870384157382741"><ele>72.0</ele><time>2026-04-08T09:54:46.001Z</time></trkpt><trkpt lat="41.70763489082618" lon="2.870147665734791"><ele>71.0</ele><time>2026-04-08T09:54:47.001Z</time></trkpt><trkpt lat="41.70757023661278" lon="2.869912109483079"><ele>70.0</ele><time>2026-04-08T09:54:48.001Z</time></trkpt><trkpt lat="41.70751672457095" lon="2.869668679744998"><ele>69.0</ele><time>2026-04-08T09:54:49.001Z</time></trkpt><trkpt lat="41.70744079556482" lon="2.8694393608126405"><ele>67.66666666666667</ele><time>2026-04-08T09:54:50.001Z</time></trkpt><trkpt lat="41.70736188414178" lon="2.869210051025011"><ele>66.33333333333334</ele><time>2026-04-08T09:54:51.001Z</time></trkpt><trkpt lat="41.707265885203455" lon="2.8689914498974995"><ele>65.0</ele><time>2026-04-08T09:54:52.001Z</time></trkpt><trkpt lat="41.707187572001736" lon="2.868768548373737"><ele>65.0</ele><time>2026-04-08T09:54:53.001Z</time></trkpt><trkpt lat="41.70711050935848" lon="2.868558183480092"><ele>65.0</ele><time>2026-04-08T09:54:54.001Z</time></trkpt><trkpt lat="41.70703995091993" lon="2.8683534829474118"><ele>65.0</ele><time>2026-04-08T09:54:55.001Z</time></trkpt><trkpt lat="41.70697734227924" lon="2.8681449848742613"><ele>62.333333333333336</ele><time>2026-04-08T09:54:56.001Z</time></trkpt><trkpt lat="41.70693274115203" lon="2.8679358912394286"><ele>59.66666666666667</ele><time>2026-04-08T09:54:57.001Z</time></trkpt><trkpt lat="41.706910100248145" lon="2.867714742047757"><ele>57.0</ele><time>2026-04-08T09:54:58.001Z</time></trkpt><trkpt lat="41.70691155314234" lon="2.8674931540018536"><ele>56.33333333333333</ele><time>2026-04-08T09:54:59.001Z</time></trkpt><trkpt lat="41.70692581968295" lon="2.8672761071798556"><ele>55.666666666666664</ele><time>2026-04-08T09:55:00.001Z</time></trkpt><trkpt lat="41.70694459693168" lon="2.8670482319600916"><ele>55.0</ele><time>2026-04-08T09:55:01.001Z</time></trkpt><trkpt lat="41.70695984067124" lon="2.8668162877954453"><ele>57.0</ele><time>2026-04-08T09:55:02.001Z</time></trkpt><trkpt lat="41.706965209952045" lon="2.866572954270886"><ele>59.0</ele><time>2026-04-08T09:55:03.001Z</time></trkpt><trkpt lat="41.70695684425259" lon="2.866319146799367"><ele>61.0</ele><time>2026-04-08T09:55:04.001Z</time></trkpt><trkpt lat="41.70693315522177" lon="2.8660658700612114"><ele>56.33333333333333</ele><time>2026-04-08T09:55:05.001Z</time></trkpt><trkpt lat="41.70689778788319" lon="2.8658146726415863"><ele>51.666666666666664</ele><time>2026-04-08T09:55:06.001Z</time></trkpt><trkpt lat="41.7068535241618" lon="2.8655591665709284"><ele>47.0</ele><time>2026-04-08T09:55:07.001Z</time></trkpt><trkpt lat="41.7068113838285" lon="2.8653066750868192"><ele>47.666666666666664</ele><time>2026-04-08T09:55:08.001Z</time></trkpt><trkpt lat="41.7067723707692" lon="2.8650536559334863"><ele>48.33333333333333</ele><time>2026-04-08T09:55:09.001Z</time></trkpt><trkpt lat="41.70673008345446" lon="2.8648008059455283"><ele>49.0</ele><time>2026-04-08T09:55:10.001Z</time></trkpt><trkpt lat="41.70668485555479" lon="2.8645492821224674"><ele>49.0</ele><time>2026-04-08T09:55:11.001Z</time></trkpt><trkpt lat="41.706635441412736" lon="2.864301477224968"><ele>49.0</ele><time>2026-04-08T09:55:12.001Z</time></trkpt><trkpt lat="41.70657916060679" lon="2.864055329277869"><ele>49.0</ele><time>2026-04-08T09:55:13.001Z</time></trkpt><trkpt lat="41.70652461596381" lon="2.863814471455766"><ele>49.0</ele><time>2026-04-08T09:55:14.001Z</time></trkpt><trkpt lat="41.70647215071963" lon="2.8635817607135796"><ele>49.0</ele><time>2026-04-08T09:55:15.001Z</time></trkpt><trkpt lat="41.70642119904949" lon="2.8633510750143136"><ele>49.0</ele><time>2026-04-08T09:55:16.001Z</time></trkpt><trkpt lat="41.706370609132115" lon="2.8631188222379675"><ele>47.666666666666664</ele><time>2026-04-08T09:55:17.001Z</time></trkpt><trkpt lat="41.70631747742293" lon="2.8628899844203097"><ele>46.33333333333333</ele><time>2026-04-08T09:55:18.001Z</time></trkpt><trkpt lat="41.70626113068008" lon="2.862659708941796"><ele>45.0</ele><time>2026-04-08T09:55:19.001Z</time></trkpt><trkpt lat="41.706210240410265" lon="2.862440935317784"><ele>43.0</ele><time>2026-04-08T09:55:20.001Z</time></trkpt><trkpt lat="41.7061543886158" lon="2.8622279564865605"><ele>41.0</ele><time>2026-04-08T09:55:21.001Z</time></trkpt><trkpt lat="41.70608964576604" lon="2.862018245740909"><ele>39.0</ele><time>2026-04-08T09:55:22.001Z</time></trkpt><trkpt lat="41.70601573632009" lon="2.861825987504855"><ele>37.666666666666664</ele><time>2026-04-08T09:55:23.001Z</time></trkpt><trkpt lat="41.7059397888885" lon="2.8616442959411135"><ele>36.33333333333333</ele><time>2026-04-08T09:55:24.001Z</time></trkpt><trkpt lat="41.705856701658476" lon="2.8614710423841987"><ele>35.0</ele><time>2026-04-08T09:55:25.001Z</time></trkpt><trkpt lat="41.70576882447929" lon="2.861303501132493"><ele>35.0</ele><time>2026-04-08T09:55:26.001Z</time></trkpt><trkpt lat="41.70567805152088" lon="2.8611354504704787"><ele>35.0</ele><time>2026-04-08T09:55:27.001Z</time></trkpt><trkpt lat="41.705592699516195" lon="2.8609673128380484"><ele>35.0</ele><time>2026-04-08T09:55:28.001Z</time></trkpt><trkpt lat="41.705511439487736" lon="2.860805438047689"><ele>36.25</ele><time>2026-04-08T09:55:29.001Z</time></trkpt><trkpt lat="41.70543052285304" lon="2.8606510220019015"><ele>37.5</ele><time>2026-04-08T09:55:30.001Z</time></trkpt><trkpt lat="41.705354515245524" lon="2.8605021704005296"><ele>38.75</ele><time>2026-04-08T09:55:31.001Z</time></trkpt><trkpt lat="41.70529184869639" lon="2.8603696394069056"><ele>40.0</ele><time>2026-04-08T09:55:32.001Z</time></trkpt><trkpt lat="41.70523440571588" lon="2.8602441833253707"><ele>37.833333333333336</ele><time>2026-04-08T09:55:33.001Z</time></trkpt><trkpt lat="41.70518152901187" lon="2.8601208531483726"><ele>35.66666666666667</ele><time>2026-04-08T09:55:34.001Z</time></trkpt><trkpt lat="41.705135868616274" lon="2.8600136895383153"><ele>33.5</ele><time>2026-04-08T09:55:35.001Z</time></trkpt><trkpt lat="41.705093673853845" lon="2.8599170011498485"><ele>31.333333333333336</ele><time>2026-04-08T09:55:36.001Z</time></trkpt><trkpt lat="41.705061174076185" lon="2.859827517870464"><ele>29.166666666666668</ele><time>2026-04-08T09:55:37.001Z</time></trkpt><trkpt lat="41.705028935789045" lon="2.8597416571124143"><ele>27.0</ele><time>2026-04-08T09:55:38.001Z</time></trkpt><trkpt lat="41.704993825329865" lon="2.8596504429335523"><ele>27.0</ele><time>2026-04-08T09:55:39.001Z</time></trkpt><trkpt lat="41.70495878449061" lon="2.8595550857648186"><ele>27.000000000000004</ele><time>2026-04-08T09:55:40.001Z</time></trkpt><trkpt lat="41.70492767762123" lon="2.8594690558324043"><ele>27.000000000000004</ele><time>2026-04-08T09:55:41.001Z</time></trkpt><trkpt lat="41.70486919430041" lon="2.8593289916172786"><ele>27.0</ele><time>2026-04-08T09:55:43.001Z</time></trkpt><trkpt lat="41.704821879976514" lon="2.8591981180009207"><ele>27.0</ele><time>2026-04-08T09:55:45.001Z</time></trkpt><trkpt lat="41.70475713524299" lon="2.859070521241317"><ele>27.8</ele><time>2026-04-08T09:55:47.001Z</time></trkpt><trkpt lat="41.70472398009342" lon="2.8589868199845587"><ele>28.6</ele><time>2026-04-08T09:55:48Z</time></trkpt><trkpt lat="41.70467984967534" lon="2.8588991125606107"><ele>29.400000000000002</ele><time>2026-04-08T09:55:49Z</time></trkpt><trkpt lat="41.704632168372854" lon="2.858801994632056"><ele>30.200000000000003</ele><time>2026-04-08T09:55:50Z</time></trkpt><trkpt lat="41.704582760924566" lon="2.8586847152636743"><ele>31.0</ele><time>2026-04-08T09:55:51Z</time></trkpt><trkpt lat="41.70453238157048" lon="2.8585388632919773"><ele>29.5</ele><time>2026-04-08T09:55:52Z</time></trkpt><trkpt lat="41.70447774485669" lon="2.8583867278345747"><ele>28.0</ele><time>2026-04-08T09:55:53Z</time></trkpt><trkpt lat="41.704419248925696" lon="2.858214019529631"><ele>26.5</ele><time>2026-04-08T09:55:54Z</time></trkpt><trkpt lat="41.70436458661846" lon="2.8580390079916533"><ele>25.0</ele><time>2026-04-08T09:55:55Z</time></trkpt><trkpt lat="41.70432095449576" lon="2.857870175553087"><ele>25.0</ele><time>2026-04-08T09:55:56Z</time></trkpt><trkpt lat="41.704287650474754" lon="2.857715369505881"><ele>25.0</ele><time>2026-04-08T09:55:57Z</time></trkpt><trkpt lat="41.704261257000084" lon="2.8575670200611856"><ele>25.0</ele><time>2026-04-08T09:55:58Z</time></trkpt><trkpt lat="41.704240658335095" lon="2.8574265109511283"><ele>25.0</ele><time>2026-04-08T09:55:59Z</time></trkpt><trkpt lat="41.70422935375894" lon="2.857294196831182"><ele>25.0</ele><time>2026-04-08T09:56:00Z</time></trkpt><trkpt lat="41.704228649000775" lon="2.8571740142965316"><ele>25.166666666666668</ele><time>2026-04-08T09:56:01Z</time></trkpt><trkpt lat="41.704235885459" lon="2.85706040743838"><ele>25.333333333333336</ele><time>2026-04-08T09:56:02Z</time></trkpt><trkpt lat="41.70424714110653" lon="2.8569742213043723"><ele>25.5</ele><time>2026-04-08T09:56:03Z</time></trkpt><trkpt lat="41.704305146489524" lon="2.8568363622367525"><ele>25.666666666666664</ele><time>2026-04-08T09:56:05Z</time></trkpt><trkpt lat="41.70435390271761" lon="2.856744382414554"><ele>25.833333333333332</ele><time>2026-04-08T09:56:06Z</time></trkpt><trkpt lat="41.70438600633721" lon="2.856647994053109"><ele>26.0</ele><time>2026-04-08T09:56:07Z</time></trkpt><trkpt lat="41.704391537982296" lon="2.8565489166560933"><ele>26.166666666666664</ele><time>2026-04-08T09:56:08Z</time></trkpt><trkpt lat="41.704384836835494" lon="2.856454341253828"><ele>26.333333333333332</ele><time>2026-04-08T09:56:09Z</time></trkpt><trkpt lat="41.70429591858961" lon="2.8563900632435795"><ele>26.5</ele><time>2026-04-08T09:56:10Z</time></trkpt><trkpt lat="41.70422255392091" lon="2.8563367822119217"><ele>26.666666666666664</ele><time>2026-04-08T09:56:11Z</time></trkpt><trkpt lat="41.70414986696693" lon="2.85628240684678"><ele>26.833333333333332</ele><time>2026-04-08T09:56:12Z</time></trkpt><trkpt lat="41.704093662170195" lon="2.856213523508183"><ele>27.0</ele><time>2026-04-08T09:56:13Z</time></trkpt><trkpt lat="41.704049435322595" lon="2.8561169329688463"><ele>27.0</ele><time>2026-04-08T09:56:14Z</time></trkpt><trkpt lat="41.70402071966681" lon="2.855994029587469"><ele>27.000000000000004</ele><time>2026-04-08T09:56:15Z</time></trkpt><trkpt lat="41.703998692789796" lon="2.8558529464956712"><ele>27.000000000000004</ele><time>2026-04-08T09:56:16Z</time></trkpt><trkpt lat="41.70397532797267" lon="2.855719170489593"><ele>27.0</ele><time>2026-04-08T09:56:17Z</time></trkpt><trkpt lat="41.70395482139563" lon="2.8555938035377193"><ele>27.0</ele><time>2026-04-08T09:56:18.001Z</time></trkpt><trkpt lat="41.70392968502441" lon="2.8554703677619844"><ele>27.200000000000003</ele><time>2026-04-08T09:56:19.001Z</time></trkpt><trkpt lat="41.703901974277294" lon="2.8553423939506866"><ele>27.400000000000002</ele><time>2026-04-08T09:56:20.001Z</time></trkpt><trkpt lat="41.703875299990926" lon="2.8552226331186903"><ele>27.599999999999998</ele><time>2026-04-08T09:56:21.001Z</time></trkpt><trkpt lat="41.70384535556067" lon="2.855105719626428"><ele>27.799999999999997</ele><time>2026-04-08T09:56:22.001Z</time></trkpt><trkpt lat="41.70381483616409" lon="2.854979127166592"><ele>28.0</ele><time>2026-04-08T09:56:23.001Z</time></trkpt><trkpt lat="41.703786494837715" lon="2.8548581804843765"><ele>28.599999999999998</ele><time>2026-04-08T09:56:24.001Z</time></trkpt><trkpt lat="41.70375559503212" lon="2.8547271809152446"><ele>29.199999999999996</ele><time>2026-04-08T09:56:25.001Z</time></trkpt><trkpt lat="41.70372157598226" lon="2.8545986406842423"><ele>29.8</ele><time>2026-04-08T09:56:26.001Z</time></trkpt><trkpt lat="41.703686014912904" lon="2.8544685720650707"><ele>30.4</ele><time>2026-04-08T09:56:27.001Z</time></trkpt><trkpt lat="41.703654805428954" lon="2.8543516500371067"><ele>31.0</ele><time>2026-04-08T09:56:28.001Z</time></trkpt><trkpt lat="41.703626025687605" lon="2.8542321817648277"><ele>31.333333333333336</ele><time>2026-04-08T09:56:29.001Z</time></trkpt><trkpt lat="41.703598204312684" lon="2.854113997163198"><ele>31.666666666666668</ele><time>2026-04-08T09:56:30.001Z</time></trkpt><trkpt lat="41.703570908322696" lon="2.8540015277324327"><ele>32.0</ele><time>2026-04-08T09:56:31.001Z</time></trkpt><trkpt lat="41.703553740581995" lon="2.853890464638775"><ele>32.333333333333336</ele><time>2026-04-08T09:56:32.001Z</time></trkpt><trkpt lat="41.703538516219176" lon="2.853787404613743"><ele>32.666666666666664</ele><time>2026-04-08T09:56:33.001Z</time></trkpt><trkpt lat="41.7035295669807" lon="2.8536728505128677"><ele>33.0</ele><time>2026-04-08T09:56:34.001Z</time></trkpt><trkpt lat="41.70352978289949" lon="2.853549244815288"><ele>32.4</ele><time>2026-04-08T09:56:35.001Z</time></trkpt><trkpt lat="41.70353791386749" lon="2.853409683568054"><ele>31.799999999999997</ele><time>2026-04-08T09:56:36.001Z</time></trkpt><trkpt lat="41.70355619439334" lon="2.853272432151056"><ele>31.2</ele><time>2026-04-08T09:56:37.001Z</time></trkpt><trkpt lat="41.70357811824441" lon="2.853148723290796"><ele>30.6</ele><time>2026-04-08T09:56:38.001Z</time></trkpt><trkpt lat="41.70360047324841" lon="2.8530468886562352"><ele>30.0</ele><time>2026-04-08T09:56:39.001Z</time></trkpt><trkpt lat="41.70365382528205" lon="2.852925494128775"><ele>30.333333333333332</ele><time>2026-04-08T09:56:41.001Z</time></trkpt><trkpt lat="41.70371146170225" lon="2.8528860042324045"><ele>30.666666666666664</ele><time>2026-04-08T09:56:43.001Z</time></trkpt><trkpt lat="41.70372975163182" lon="2.8528050445808737"><ele>31.0</ele><time>2026-04-08T09:59:41.001Z</time></trkpt><trkpt lat="41.70366192256707" lon="2.8527241181348932"><ele>31.333333333333332</ele><time>2026-04-08T09:59:43.001Z</time></trkpt><trkpt lat="41.70367686215884" lon="2.852565586142307"><ele>31.666666666666664</ele><time>2026-04-08T09:59:45.001Z</time></trkpt><trkpt lat="41.70370412900218" lon="2.8524761311267155"><ele>32.0</ele><time>2026-04-08T09:59:46.001Z</time></trkpt><trkpt lat="41.703730395515336" lon="2.8523750072840293"><ele>31.999999999999996</ele><time>2026-04-08T09:59:47.001Z</time></trkpt><trkpt lat="41.703747984191445" lon="2.852269928197791"><ele>32.0</ele><time>2026-04-08T09:59:48.001Z</time></trkpt><trkpt lat="41.703761345205365" lon="2.85216767936404"><ele>32.0</ele><time>2026-04-08T09:59:49.001Z</time></trkpt><trkpt lat="41.703775330588364" lon="2.852059998902698"><ele>32.0</ele><time>2026-04-08T09:59:50.001Z</time></trkpt><trkpt lat="41.70379237792253" lon="2.8519497130030165"><ele>31.999999999999996</ele><time>2026-04-08T09:59:51.001Z</time></trkpt><trkpt lat="41.7038126754493" lon="2.851835526138463"><ele>32.0</ele><time>2026-04-08T09:59:52.001Z</time></trkpt><trkpt lat="41.70383223636375" lon="2.8517335316501757"><ele>31.833333333333332</ele><time>2026-04-08T09:59:53.001Z</time></trkpt><trkpt lat="41.70385195089218" lon="2.851648047136929"><ele>31.666666666666664</ele><time>2026-04-08T09:59:54.001Z</time></trkpt><trkpt lat="41.70388163530159" lon="2.8515047210840176"><ele>31.5</ele><time>2026-04-08T09:59:56.001Z</time></trkpt><trkpt lat="41.70390334088967" lon="2.8514042537177833"><ele>31.333333333333336</ele><time>2026-04-08T09:59:59.001Z</time></trkpt><trkpt lat="41.703934800000034" lon="2.8512822967168394"><ele>31.166666666666668</ele><time>2026-04-08T10:00:02.001Z</time></trkpt><trkpt lat="41.70394626266706" lon="2.8511948184271287"><ele>31.0</ele><time>2026-04-08T10:00:03.001Z</time></trkpt><trkpt lat="41.70396029175591" lon="2.851103197528349"><ele>31.0</ele><time>2026-04-08T10:00:04.001Z</time></trkpt><trkpt lat="41.70398236388078" lon="2.8510094546437923"><ele>31.0</ele><time>2026-04-08T10:00:05.001Z</time></trkpt><trkpt lat="41.70400434485527" lon="2.850901986853698"><ele>31.0</ele><time>2026-04-08T10:00:06.001Z</time></trkpt><trkpt lat="41.70402621381016" lon="2.850789493964936"><ele>31.0</ele><time>2026-04-08T10:00:07.001Z</time></trkpt><trkpt lat="41.70405200304117" lon="2.850662812324142"><ele>31.0</ele><time>2026-04-08T10:00:08.001Z</time></trkpt><trkpt lat="41.70408216684443" lon="2.85052088534016"><ele>30.25</ele><time>2026-04-08T10:00:09.001Z</time></trkpt><trkpt lat="41.70411030359659" lon="2.850363369347259"><ele>29.5</ele><time>2026-04-08T10:00:10.001Z</time></trkpt><trkpt lat="41.70413969359582" lon="2.850216315670593"><ele>28.75</ele><time>2026-04-08T10:00:11.001Z</time></trkpt><trkpt lat="41.7041640896917" lon="2.8500631123582365"><ele>28.0</ele><time>2026-04-08T10:00:12.001Z</time></trkpt><trkpt lat="41.70419320494441" lon="2.8498909049062178"><ele>27.75</ele><time>2026-04-08T10:00:13.001Z</time></trkpt><trkpt lat="41.70421248424458" lon="2.8497031315574093"><ele>27.5</ele><time>2026-04-08T10:00:14.001Z</time></trkpt><trkpt lat="41.7042168774862" lon="2.849506076722432"><ele>27.25</ele><time>2026-04-08T10:00:15.001Z</time></trkpt><trkpt lat="41.70421313987506" lon="2.8493120148369684"><ele>27.0</ele><time>2026-04-08T10:00:16.001Z</time></trkpt><trkpt lat="41.70420136914932" lon="2.849125071568977"><ele>27.5</ele><time>2026-04-08T10:00:17.001Z</time></trkpt><trkpt lat="41.70417524761369" lon="2.8489516646499293"><ele>28.0</ele><time>2026-04-08T10:00:18.001Z</time></trkpt><trkpt lat="41.704145363076705" lon="2.8487925200323"><ele>28.5</ele><time>2026-04-08T10:00:19.001Z</time></trkpt><trkpt lat="41.70412239934952" lon="2.8486457240886964"><ele>29.0</ele><time>2026-04-08T10:00:20.001Z</time></trkpt><trkpt lat="41.704094278108606" lon="2.8485175583752103"><ele>28.2</ele><time>2026-04-08T10:00:21.001Z</time></trkpt><trkpt lat="41.70407362452483" lon="2.848397453885761"><ele>27.4</ele><time>2026-04-08T10:00:22.001Z</time></trkpt><trkpt lat="41.70406775478472" lon="2.8482923828322995"><ele>26.6</ele><time>2026-04-08T10:00:23.001Z</time></trkpt><trkpt lat="41.70408153366659" lon="2.8482088740928315"><ele>25.8</ele><time>2026-04-08T10:00:24.001Z</time></trkpt><trkpt lat="41.70416678556147" lon="2.848063497470812"><ele>25.0</ele><time>2026-04-08T10:00:26.001Z</time></trkpt><trkpt lat="41.70421965124067" lon="2.847981036660963"><ele>25.000000000000004</ele><time>2026-04-08T10:00:27.001Z</time></trkpt><trkpt lat="41.70424776563718" lon="2.8478906712491994"><ele>25.0</ele><time>2026-04-08T10:00:28.001Z</time></trkpt><trkpt lat="41.704235732728065" lon="2.8478048548773"><ele>25.0</ele><time>2026-04-08T10:00:29.001Z</time></trkpt><trkpt lat="41.70418953866099" lon="2.8477311775097416"><ele>25.0</ele><time>2026-04-08T10:00:30.001Z</time></trkpt><trkpt lat="41.70411745156005" lon="2.84767671686573"><ele>25.0</ele><time>2026-04-08T10:00:31.001Z</time></trkpt><trkpt lat="41.70404211146376" lon="2.847641634828165"><ele>25.000000000000004</ele><time>2026-04-08T10:00:32.001Z</time></trkpt><trkpt lat="41.70397405025614" lon="2.8476025150263524"><ele>25.0</ele><time>2026-04-08T10:00:33.001Z</time></trkpt><trkpt lat="41.70391849275666" lon="2.8475326760568245"><ele>24.4</ele><time>2026-04-08T10:00:34.001Z</time></trkpt><trkpt lat="41.70387668685324" lon="2.847436392034257"><ele>23.8</ele><time>2026-04-08T10:00:35.001Z</time></trkpt><trkpt lat="41.703864475779376" lon="2.8473173068038995"><ele>23.200000000000003</ele><time>2026-04-08T10:00:36.001Z</time></trkpt><trkpt lat="41.70384288449118" lon="2.8472011652825313"><ele>22.6</ele><time>2026-04-08T10:00:37.001Z</time></trkpt><trkpt lat="41.703807351335804" lon="2.8470845224730894"><ele>22.0</ele><time>2026-04-08T10:00:38.001Z</time></trkpt><trkpt lat="41.703787548585694" lon="2.8469545832611423"><ele>22.0</ele><time>2026-04-08T10:00:39.001Z</time></trkpt><trkpt lat="41.70376414819096" lon="2.8468215521255478"><ele>22.0</ele><time>2026-04-08T10:00:40.001Z</time></trkpt><trkpt lat="41.70373776474482" lon="2.846686509335825"><ele>22.0</ele><time>2026-04-08T10:00:41.001Z</time></trkpt><trkpt lat="41.703709077965996" lon="2.8465682651135804"><ele>22.0</ele><time>2026-04-08T10:00:42.001Z</time></trkpt><trkpt lat="41.70368775901253" lon="2.846460223155256"><ele>22.0</ele><time>2026-04-08T10:00:43.001Z</time></trkpt><trkpt lat="41.70366573318179" lon="2.8463526793607015"><ele>22.333333333333332</ele><time>2026-04-08T10:00:44.001Z</time></trkpt><trkpt lat="41.70363685569136" lon="2.8462356669179742"><ele>22.666666666666664</ele><time>2026-04-08T10:00:45.001Z</time></trkpt><trkpt lat="41.703603225308534" lon="2.8461232471273514"><ele>23.0</ele><time>2026-04-08T10:00:46.001Z</time></trkpt><trkpt lat="41.70357209692647" lon="2.846016554144523"><ele>23.333333333333332</ele><time>2026-04-08T10:00:47.001Z</time></trkpt><trkpt lat="41.703539567059124" lon="2.845915943684736"><ele>23.666666666666668</ele><time>2026-04-08T10:00:48.001Z</time></trkpt><trkpt lat="41.703506826756346" lon="2.8458230754117215"><ele>24.0</ele><time>2026-04-08T10:00:49.001Z</time></trkpt><trkpt lat="41.70347632141368" lon="2.845743362588639"><ele>23.0</ele><time>2026-04-08T10:00:50.001Z</time></trkpt><trkpt lat="41.703419665863045" lon="2.8456028800795754"><ele>22.0</ele><time>2026-04-08T10:00:52.001Z</time></trkpt><trkpt lat="41.70335953316752" lon="2.8454931721202397"><ele>21.0</ele><time>2026-04-08T10:00:54.001Z</time></trkpt><trkpt lat="41.70331311485179" lon="2.8454158453755345"><ele>20.0</ele><time>2026-04-08T10:00:56.001Z</time></trkpt><trkpt lat="41.70327299646148" lon="2.8453420689225433"><ele>19.0</ele><time>2026-04-08T10:00:58.001Z</time></trkpt><trkpt lat="41.70323780625667" lon="2.845261715694238"><ele>18.0</ele><time>2026-04-08T10:01:00.001Z</time></trkpt><trkpt lat="41.70318514515388" lon="2.8451779163184234"><ele>18.0</ele><time>2026-04-08T10:01:02.001Z</time></trkpt><trkpt lat="41.70311667916611" lon="2.845070604933606"><ele>18.0</ele><time>2026-04-08T10:01:04.001Z</time></trkpt><trkpt lat="41.703052966525775" lon="2.8449686808510353"><ele>18.0</ele><time>2026-04-08T10:01:06.001Z</time></trkpt><trkpt lat="41.70299401945788" lon="2.844875270854242"><ele>18.0</ele><time>2026-04-08T10:01:08.001Z</time></trkpt><trkpt lat="41.70291954446762" lon="2.8447522620533245"><ele>18.0</ele><time>2026-04-08T10:01:10.001Z</time></trkpt><trkpt lat="41.70287722715744" lon="2.8446839081694213"><ele>18.0</ele><time>2026-04-08T10:01:11.001Z</time></trkpt><trkpt lat="41.70283226081605" lon="2.844610807262947"><ele>18.0</ele><time>2026-04-08T10:01:12.001Z</time></trkpt><trkpt lat="41.70278173415215" lon="2.8445312654816735"><ele>18.0</ele><time>2026-04-08T10:01:13.001Z</time></trkpt><trkpt lat="41.70272805060096" lon="2.844449954342019"><ele>18.0</ele><time>2026-04-08T10:01:14.001Z</time></trkpt><trkpt lat="41.70267033782922" lon="2.8443645128901007"><ele>18.0</ele><time>2026-04-08T10:01:15.001Z</time></trkpt><trkpt lat="41.70261578684031" lon="2.8442702882199864"><ele>18.0</ele><time>2026-04-08T10:01:16.001Z</time></trkpt><trkpt lat="41.702556664000284" lon="2.8441738275545676"><ele>16.8</ele><time>2026-04-08T10:01:17.001Z</time></trkpt><trkpt lat="41.70249447141328" lon="2.844073736965166"><ele>15.600000000000001</ele><time>2026-04-08T10:01:18.001Z</time></trkpt><trkpt lat="41.702431921476794" lon="2.84396828328409"><ele>14.399999999999999</ele><time>2026-04-08T10:01:19.001Z</time></trkpt><trkpt lat="41.70236917543067" lon="2.8438645485217293"><ele>13.2</ele><time>2026-04-08T10:01:20.001Z</time></trkpt><trkpt lat="41.70231080965788" lon="2.8437698893679175"><ele>12.0</ele><time>2026-04-08T10:01:21.001Z</time></trkpt><trkpt lat="41.70226382536702" lon="2.8436945075787454"><ele>12.0</ele><time>2026-04-08T10:01:22.001Z</time></trkpt><trkpt lat="41.70219952790825" lon="2.843596854749613"><ele>12.0</ele><time>2026-04-08T10:01:24.001Z</time></trkpt><trkpt lat="41.702154810582904" lon="2.8435229236070887"><ele>12.0</ele><time>2026-04-08T10:01:48.001Z</time></trkpt><trkpt lat="41.70206257191256" lon="2.843386943459798"><ele>12.0</ele><time>2026-04-08T10:01:50.001Z</time></trkpt><trkpt lat="41.70201185247729" lon="2.8433062959353324"><ele>12.0</ele><time>2026-04-08T10:01:51.001Z</time></trkpt><trkpt lat="41.701947811913996" lon="2.8432118856520545"><ele>13.0</ele><time>2026-04-08T10:01:52.001Z</time></trkpt><trkpt lat="41.701882011008536" lon="2.8431082486079706"><ele>14.0</ele><time>2026-04-08T10:01:53.001Z</time></trkpt><trkpt lat="41.70181514747478" lon="2.8430015889196842"><ele>15.0</ele><time>2026-04-08T10:01:54.001Z</time></trkpt><trkpt lat="41.70175016746753" lon="2.842895479348524"><ele>16.0</ele><time>2026-04-08T10:01:55.001Z</time></trkpt><trkpt lat="41.701683247798684" lon="2.842789111566002"><ele>17.0</ele><time>2026-04-08T10:01:56.001Z</time></trkpt><trkpt lat="41.701619044731146" lon="2.8426795776430644"><ele>15.8</ele><time>2026-04-08T10:01:57.001Z</time></trkpt><trkpt lat="41.70155028167062" lon="2.842569885012868"><ele>14.6</ele><time>2026-04-08T10:01:58.001Z</time></trkpt><trkpt lat="41.70148254722731" lon="2.842470912190205"><ele>13.4</ele><time>2026-04-08T10:01:58.998Z</time></trkpt><trkpt lat="41.70142905911012" lon="2.842397266555218"><ele>12.200000000000001</ele><time>2026-04-08T10:01:59.998Z</time></trkpt><trkpt lat="41.701383441488524" lon="2.842337933718711"><ele>11.0</ele><time>2026-04-08T10:02:00.998Z</time></trkpt><trkpt lat="41.70131306811165" lon="2.842222751646715"><ele>11.0</ele><time>2026-04-08T10:02:02.998Z</time></trkpt><trkpt lat="41.70124432980102" lon="2.8421139828185633"><ele>11.0</ele><time>2026-04-08T10:02:04.998Z</time></trkpt><trkpt lat="41.7011725563726" lon="2.8420061597112323"><ele>11.0</ele><time>2026-04-08T10:02:06.998Z</time></trkpt><trkpt lat="41.70111557253579" lon="2.8419222850691512"><ele>11.0</ele><time>2026-04-08T10:02:08.998Z</time></trkpt><trkpt lat="41.70106652106232" lon="2.8418486905533107"><ele>11.0</ele><time>2026-04-08T10:02:12.998Z</time></trkpt><trkpt lat="41.70100477962688" lon="2.8417596868177877"><ele>11.0</ele><time>2026-04-08T10:02:14.999Z</time></trkpt><trkpt lat="41.700954710874335" lon="2.8416726665665863"><ele>11.0</ele><time>2026-04-08T10:02:21.999Z</time></trkpt><trkpt lat="41.70089355720391" lon="2.8415839971729953"><ele>11.0</ele><time>2026-04-08T10:02:23.999Z</time></trkpt><trkpt lat="41.700850846772184" lon="2.8414428672495715"><ele>11.0</ele><time>2026-04-08T10:02:25.999Z</time></trkpt><trkpt lat="41.70082540737238" lon="2.841283231513302"><ele>11.0</ele><time>2026-04-08T10:02:27.999Z</time></trkpt><trkpt lat="41.70078937208279" lon="2.8411471103378907"><ele>11.0</ele><time>2026-04-08T10:02:29.999Z</time></trkpt><trkpt lat="41.70071092544676" lon="2.8410175346470727"><ele>11.0</ele><time>2026-04-08T10:02:31.999Z</time></trkpt><trkpt lat="41.70061207105609" lon="2.8410086953573646"><ele>11.0</ele><time>2026-04-08T10:02:33.999Z</time></trkpt><trkpt lat="41.70054460281973" lon="2.840846152023056"><ele>11.0</ele><time>2026-04-08T10:02:35.999Z</time></trkpt><trkpt lat="41.70050765607798" lon="2.8407527341685297"><ele>11.0</ele><time>2026-04-08T10:02:36.999Z</time></trkpt><trkpt lat="41.700488443471095" lon="2.8406524134909232"><ele>10.8</ele><time>2026-04-08T10:02:37.999Z</time></trkpt><trkpt lat="41.70047442100439" lon="2.8405484632367144"><ele>10.600000000000001</ele><time>2026-04-08T10:02:38.999Z</time></trkpt><trkpt lat="41.70046816061028" lon="2.8404351522826112"><ele>10.4</ele><time>2026-04-08T10:02:39.999Z</time></trkpt><trkpt lat="41.70047137633582" lon="2.840299938256016"><ele>10.2</ele><time>2026-04-08T10:02:40.999Z</time></trkpt><trkpt lat="41.700490302604344" lon="2.8401545199814375"><ele>10.0</ele><time>2026-04-08T10:02:41.999Z</time></trkpt><trkpt lat="41.7005198647069" lon="2.840008118141838"><ele>9.5</ele><time>2026-04-08T10:02:42.999Z</time></trkpt><trkpt lat="41.70055674300378" lon="2.839855954440685"><ele>9.0</ele><time>2026-04-08T10:02:43.999Z</time></trkpt><trkpt lat="41.70059251176103" lon="2.839697717847783"><ele>8.5</ele><time>2026-04-08T10:02:44.999Z</time></trkpt><trkpt lat="41.700627301621395" lon="2.8395399897970086"><ele>8.0</ele><time>2026-04-08T10:02:45.999Z</time></trkpt><trkpt lat="41.700662499328224" lon="2.8393763901966573"><ele>8.5</ele><time>2026-04-08T10:02:46.999Z</time></trkpt><trkpt lat="41.70069366710474" lon="2.839205031633047"><ele>9.0</ele><time>2026-04-08T10:02:47.999Z</time></trkpt><trkpt lat="41.7007179595155" lon="2.8390236400794886"><ele>9.5</ele><time>2026-04-08T10:02:48.999Z</time></trkpt><trkpt lat="41.70073639020885" lon="2.838844695410035"><ele>10.0</ele><time>2026-04-08T10:02:50Z</time></trkpt><trkpt lat="41.70075070859671" lon="2.838665293222804"><ele>10.0</ele><time>2026-04-08T10:02:51Z</time></trkpt><trkpt lat="41.70076471634167" lon="2.83848820403711"><ele>10.0</ele><time>2026-04-08T10:02:52Z</time></trkpt><trkpt lat="41.70077694953433" lon="2.8383145597217774"><ele>10.0</ele><time>2026-04-08T10:02:53Z</time></trkpt><trkpt lat="41.700786319724735" lon="2.8381415414251743"><ele>10.0</ele><time>2026-04-08T10:02:54Z</time></trkpt><trkpt lat="41.70078883657565" lon="2.83796705612921"><ele>11.5</ele><time>2026-04-08T10:02:55Z</time></trkpt><trkpt lat="41.700782648252016" lon="2.8377883444328496"><ele>13.0</ele><time>2026-04-08T10:02:56Z</time></trkpt><trkpt lat="41.700766715012826" lon="2.8376187229498617"><ele>14.5</ele><time>2026-04-08T10:02:57Z</time></trkpt><trkpt lat="41.700749636765465" lon="2.837445573894142"><ele>16.0</ele><time>2026-04-08T10:02:58Z</time></trkpt><trkpt lat="41.70073542961577" lon="2.837276929857063"><ele>16.75</ele><time>2026-04-08T10:02:59Z</time></trkpt><trkpt lat="41.700719125442234" lon="2.8371046491829346"><ele>17.5</ele><time>2026-04-08T10:03:00Z</time></trkpt><trkpt lat="41.70070257680072" lon="2.836941832289975"><ele>18.25</ele><time>2026-04-08T10:03:01Z</time></trkpt><trkpt lat="41.70068564292889" lon="2.8367960525268856"><ele>19.0</ele><time>2026-04-08T10:03:02Z</time></trkpt><trkpt lat="41.70066544685685" lon="2.8366525816168244"><ele>19.6</ele><time>2026-04-08T10:03:03Z</time></trkpt><trkpt lat="41.70064680175842" lon="2.836510475537171"><ele>20.2</ele><time>2026-04-08T10:03:04Z</time></trkpt><trkpt lat="41.70062927808346" lon="2.836359874824155"><ele>20.8</ele><time>2026-04-08T10:03:05Z</time></trkpt><trkpt lat="41.700611188286295" lon="2.836221905397764"><ele>21.400000000000002</ele><time>2026-04-08T10:03:06Z</time></trkpt><trkpt lat="41.700593385014066" lon="2.8360773156472567"><ele>22.0</ele><time>2026-04-08T10:03:07Z</time></trkpt><trkpt lat="41.70057810658818" lon="2.835934068536687"><ele>22.333333333333332</ele><time>2026-04-08T10:03:08Z</time></trkpt><trkpt lat="41.700569995795455" lon="2.8358085864205083"><ele>22.666666666666664</ele><time>2026-04-08T10:03:09Z</time></trkpt><trkpt lat="41.70056145294603" lon="2.835693384185368"><ele>23.0</ele><time>2026-04-08T10:03:10Z</time></trkpt><trkpt lat="41.700550517572246" lon="2.835597273614598"><ele>23.333333333333332</ele><time>2026-04-08T10:03:11Z</time></trkpt><trkpt lat="41.7005421368613" lon="2.8354467928651896"><ele>23.666666666666668</ele><time>2026-04-08T10:03:13Z</time></trkpt><trkpt lat="41.70055746594178" lon="2.835355059815462"><ele>24.0</ele><time>2026-04-08T10:03:15Z</time></trkpt><trkpt lat="41.70067372981086" lon="2.8353410364460334"><ele>24.0</ele><time>2026-04-08T10:03:17Z</time></trkpt><trkpt lat="41.70076386723849" lon="2.835487422333325"><ele>24.0</ele><time>2026-04-08T10:03:20Z</time></trkpt><trkpt lat="41.70078709359226" lon="2.8355764813106776"><ele>24.0</ele><time>2026-04-08T10:03:21Z</time></trkpt><trkpt lat="41.70081068836133" lon="2.835665840617931"><ele>24.0</ele><time>2026-04-08T10:03:22Z</time></trkpt><trkpt lat="41.70083664856793" lon="2.835761252362163"><ele>24.0</ele><time>2026-04-08T10:03:23Z</time></trkpt><trkpt lat="41.700861866955314" lon="2.8358579721104307"><ele>24.0</ele><time>2026-04-08T10:03:24Z</time></trkpt><trkpt lat="41.700891944628815" lon="2.8359590269225157"><ele>23.6</ele><time>2026-04-08T10:03:25Z</time></trkpt><trkpt lat="41.70091857718654" lon="2.836042004826817"><ele>23.2</ele><time>2026-04-08T10:03:26Z</time></trkpt><trkpt lat="41.70096108764072" lon="2.8361822182777425"><ele>22.8</ele><time>2026-04-08T10:03:28Z</time></trkpt><trkpt lat="41.70098878376051" lon="2.8363134553343747"><ele>22.400000000000002</ele><time>2026-04-08T10:03:30Z</time></trkpt><trkpt lat="41.70102791892033" lon="2.836437986597683"><ele>22.0</ele><time>2026-04-08T10:03:32Z</time></trkpt><trkpt lat="41.70104737894064" lon="2.836536961690012"><ele>22.0</ele><time>2026-04-08T10:03:34Z</time></trkpt><trkpt lat="41.7010258272777" lon="2.8366281519737506"><ele>22.0</ele><time>2026-04-08T10:03:36Z</time></trkpt><trkpt lat="41.70090220388044" lon="2.836634830326135"><ele>22.0</ele><time>2026-04-08T10:03:44Z</time></trkpt><trkpt lat="41.70083746336029" lon="2.836635056472106"><ele>22.0</ele><time>2026-04-08T10:03:45Z</time></trkpt><trkpt lat="41.700764262864006" lon="2.836649527469238"><ele>22.0</ele><time>2026-04-08T10:03:46Z</time></trkpt><trkpt lat="41.7006907832887" lon="2.8366669461061806"><ele>22.0</ele><time>2026-04-08T10:03:47Z</time></trkpt><trkpt lat="41.700610677369625" lon="2.836689542039777"><ele>22.0</ele><time>2026-04-08T10:03:48Z</time></trkpt><trkpt lat="41.7005300516048" lon="2.8367067042445466"><ele>22.0</ele><time>2026-04-08T10:03:49Z</time></trkpt><trkpt lat="41.700446606065476" lon="2.8367269539530477"><ele>22.0</ele><time>2026-04-08T10:03:50Z</time></trkpt><trkpt lat="41.700364871120016" lon="2.8367656701814727"><ele>22.0</ele><time>2026-04-08T10:03:51Z</time></trkpt><trkpt lat="41.70029448457722" lon="2.836831792685286"><ele>22.0</ele><time>2026-04-08T10:03:52Z</time></trkpt><trkpt lat="41.70023700457668" lon="2.8369276945766857"><ele>22.0</ele><time>2026-04-08T10:03:53Z</time></trkpt><trkpt lat="41.70019165987102" lon="2.8370469075309623"><ele>22.0</ele><time>2026-04-08T10:03:54Z</time></trkpt><trkpt lat="41.700170119568114" lon="2.8371730211213"><ele>22.0</ele><time>2026-04-08T10:03:55Z</time></trkpt><trkpt lat="41.70017628582323" lon="2.8372905702125695"><ele>22.0</ele><time>2026-04-08T10:03:56Z</time></trkpt><trkpt lat="41.700205308353084" lon="2.8374075923675286"><ele>22.0</ele><time>2026-04-08T10:03:57Z</time></trkpt><trkpt lat="41.700253633708854" lon="2.8375059311123354"><ele>22.0</ele><time>2026-04-08T10:03:58Z</time></trkpt><trkpt lat="41.70032393449412" lon="2.83759275308212"><ele>21.0</ele><time>2026-04-08T10:03:59Z</time></trkpt><trkpt lat="41.70039478419108" lon="2.837660408874479"><ele>20.0</ele><time>2026-04-08T10:04:00Z</time></trkpt><trkpt lat="41.700455763391204" lon="2.8377239315744895"><ele>19.0</ele><time>2026-04-08T10:04:01Z</time></trkpt><trkpt lat="41.70054284874945" lon="2.8378260765136223"><ele>18.0</ele><time>2026-04-08T10:04:03Z</time></trkpt><trkpt lat="41.70059976201787" lon="2.837905574798664"><ele>17.0</ele><time>2026-04-08T10:04:05.998Z</time></trkpt><trkpt lat="41.70064499888331" lon="2.837981125362"><ele>16.0</ele><time>2026-04-08T10:04:08.998Z</time></trkpt><trkpt lat="41.70068063702996" lon="2.838065133361787"><ele>16.0</ele><time>2026-04-08T10:04:10.998Z</time></trkpt><trkpt lat="41.70070493513179" lon="2.8382403335189927"><ele>16.0</ele><time>2026-04-08T10:04:12.998Z</time></trkpt><trkpt lat="41.70070599209178" lon="2.8383562132877653"><ele>16.0</ele><time>2026-04-08T10:04:13.998Z</time></trkpt><trkpt lat="41.70073104803771" lon="2.8384865147590808"><ele>16.0</ele><time>2026-04-08T10:04:14.998Z</time></trkpt><trkpt lat="41.70068732348339" lon="2.8386201071025714"><ele>16.0</ele><time>2026-04-08T10:04:15.998Z</time></trkpt><trkpt lat="41.700679441604045" lon="2.8387429933286072"><ele>14.8</ele><time>2026-04-08T10:04:16.998Z</time></trkpt><trkpt lat="41.70067002556966" lon="2.838868987240016"><ele>13.600000000000001</ele><time>2026-04-08T10:04:17.998Z</time></trkpt><trkpt lat="41.70065658691709" lon="2.8389847374702155"><ele>12.4</ele><time>2026-04-08T10:04:18.998Z</time></trkpt><trkpt lat="41.700635173045754" lon="2.8391052956785554"><ele>11.2</ele><time>2026-04-08T10:04:19.998Z</time></trkpt><trkpt lat="41.70061071080339" lon="2.8392301059927787"><ele>10.0</ele><time>2026-04-08T10:04:20.998Z</time></trkpt><trkpt lat="41.70058443883307" lon="2.839360754547903"><ele>9.6</ele><time>2026-04-08T10:04:21.998Z</time></trkpt><trkpt lat="41.70055599723262" lon="2.839495800466211"><ele>9.2</ele><time>2026-04-08T10:04:22.998Z</time></trkpt><trkpt lat="41.70052747255388" lon="2.8396325834727847"><ele>8.8</ele><time>2026-04-08T10:04:23.998Z</time></trkpt><trkpt lat="41.700503523835685" lon="2.8397578290357885"><ele>8.4</ele><time>2026-04-08T10:04:24.999Z</time></trkpt><trkpt lat="41.70048184892278" lon="2.8398753154055516"><ele>8.0</ele><time>2026-04-08T10:04:25.999Z</time></trkpt><trkpt lat="41.700462361801534" lon="2.839986677459514"><ele>7.999999999999999</ele><time>2026-04-08T10:04:26.999Z</time></trkpt><trkpt lat="41.70044346619498" lon="2.840099089232945"><ele>8.0</ele><time>2026-04-08T10:04:27.999Z</time></trkpt><trkpt lat="41.700426921487505" lon="2.840215458220674"><ele>8.0</ele><time>2026-04-08T10:04:28.999Z</time></trkpt><trkpt lat="41.700416899549616" lon="2.840321607631673"><ele>8.0</ele><time>2026-04-08T10:04:29.999Z</time></trkpt><trkpt lat="41.70041373736033" lon="2.840417714276303"><ele>7.999999999999999</ele><time>2026-04-08T10:04:30.999Z</time></trkpt><trkpt lat="41.70042257363661" lon="2.840576820766202"><ele>8.0</ele><time>2026-04-08T10:04:32.999Z</time></trkpt><trkpt lat="41.700438395859784" lon="2.840702513818274"><ele>8.285714285714285</ele><time>2026-04-08T10:04:34.999Z</time></trkpt><trkpt lat="41.70045746356457" lon="2.8407977735546885"><ele>8.571428571428571</ele><time>2026-04-08T10:04:37.999Z</time></trkpt><trkpt lat="41.70047275920898" lon="2.8408829103176116"><ele>8.857142857142858</ele><time>2026-04-08T10:05:13Z</time></trkpt><trkpt lat="41.700497188875865" lon="2.840960807428118"><ele>9.142857142857142</ele><time>2026-04-08T10:05:15Z</time></trkpt><trkpt lat="41.700535381449704" lon="2.8410769499663333"><ele>9.428571428571429</ele><time>2026-04-08T10:05:17Z</time></trkpt><trkpt lat="41.700553076843796" lon="2.8411621408907233"><ele>9.714285714285714</ele><time>2026-04-08T10:05:18Z</time></trkpt><trkpt lat="41.70056639649038" lon="2.841256396278496"><ele>10.0</ele><time>2026-04-08T10:05:19Z</time></trkpt><trkpt lat="41.7005782739076" lon="2.8413608091331715"><ele>10.2</ele><time>2026-04-08T10:05:20Z</time></trkpt><trkpt lat="41.700588528848016" lon="2.8414554664003098"><ele>10.4</ele><time>2026-04-08T10:05:21Z</time></trkpt><trkpt lat="41.700598444519905" lon="2.8415412560510345"><ele>10.600000000000001</ele><time>2026-04-08T10:05:22Z</time></trkpt><trkpt lat="41.70062450684466" lon="2.8416728922638126"><ele>10.8</ele><time>2026-04-08T10:05:24Z</time></trkpt><trkpt lat="41.700755727180685" lon="2.8416825497863876"><ele>11.0</ele><time>2026-04-08T10:05:26Z</time></trkpt><trkpt lat="41.70081943264727" lon="2.8415762687983084"><ele>11.0</ele><time>2026-04-08T10:05:28Z</time></trkpt><trkpt lat="41.70082327326716" lon="2.8414334797238907"><ele>11.0</ele><time>2026-04-08T10:05:30Z</time></trkpt><trkpt lat="41.700806325018966" lon="2.8412807388688006"><ele>11.0</ele><time>2026-04-08T10:05:32Z</time></trkpt><trkpt lat="41.70078869498004" lon="2.841155847286078"><ele>11.0</ele><time>2026-04-08T10:05:34Z</time></trkpt><trkpt lat="41.70074710094979" lon="2.8410579487881504"><ele>11.0</ele><time>2026-04-08T10:05:36Z</time></trkpt><trkpt lat="41.700651399350605" lon="2.8409845044067645"><ele>10.8</ele><time>2026-04-08T10:05:38Z</time></trkpt><trkpt lat="41.700558774962055" lon="2.8408910082023233"><ele>10.600000000000001</ele><time>2026-04-08T10:05:40Z</time></trkpt><trkpt lat="41.70050876433695" lon="2.840726995859626"><ele>10.4</ele><time>2026-04-08T10:05:42Z</time></trkpt><trkpt lat="41.70048872540734" lon="2.8406260076449765"><ele>10.2</ele><time>2026-04-08T10:05:43Z</time></trkpt><trkpt lat="41.70047741749559" lon="2.8405183621332397"><ele>10.0</ele><time>2026-04-08T10:05:44Z</time></trkpt><trkpt lat="41.700472231884504" lon="2.8404031407008157"><ele>10.0</ele><time>2026-04-08T10:05:45Z</time></trkpt><trkpt lat="41.7004788142571" lon="2.8402846214445474"><ele>10.0</ele><time>2026-04-08T10:05:46Z</time></trkpt><trkpt lat="41.700498174936286" lon="2.840164736388417"><ele>10.0</ele><time>2026-04-08T10:05:47Z</time></trkpt><trkpt lat="41.70052175172817" lon="2.840048760194986"><ele>10.0</ele><time>2026-04-08T10:05:48Z</time></trkpt><trkpt lat="41.700546088023565" lon="2.839934589669652"><ele>10.0</ele><time>2026-04-08T10:05:49Z</time></trkpt><trkpt lat="41.700570578140066" lon="2.8398208712317397"><ele>10.0</ele><time>2026-04-08T10:05:50Z</time></trkpt><trkpt lat="41.70059531136127" lon="2.8397095164763595"><ele>10.0</ele><time>2026-04-08T10:05:51Z</time></trkpt><trkpt lat="41.700618531702816" lon="2.8396010127799407"><ele>10.0</ele><time>2026-04-08T10:05:52.001Z</time></trkpt><trkpt lat="41.7006394937865" lon="2.83950028979626"><ele>10.0</ele><time>2026-04-08T10:05:53.001Z</time></trkpt><trkpt lat="41.70066141470496" lon="2.8393983862711383"><ele>10.0</ele><time>2026-04-08T10:05:54.001Z</time></trkpt><trkpt lat="41.70067980020146" lon="2.839306050220822"><ele>10.0</ele><time>2026-04-08T10:05:55.001Z</time></trkpt><trkpt lat="41.70070760398174" lon="2.83916385755738"><ele>10.0</ele><time>2026-04-08T10:05:57.001Z</time></trkpt><trkpt lat="41.70074076714249" lon="2.8389876530229317"><ele>10.0</ele><time>2026-04-08T10:05:59.001Z</time></trkpt><trkpt lat="41.70075251555631" lon="2.8388981758105913"><ele>10.0</ele><time>2026-04-08T10:06:00.001Z</time></trkpt><trkpt lat="41.70076277433963" lon="2.838810823622086"><ele>10.0</ele><time>2026-04-08T10:06:01.001Z</time></trkpt><trkpt lat="41.700775533010365" lon="2.8386499018298355"><ele>10.0</ele><time>2026-04-08T10:06:03.001Z</time></trkpt><trkpt lat="41.700789424694825" lon="2.8384941933357983"><ele>10.0</ele><time>2026-04-08T10:06:05.001Z</time></trkpt><trkpt lat="41.70080502167306" lon="2.838352453573485"><ele>11.2</ele><time>2026-04-08T10:06:07.001Z</time></trkpt><trkpt lat="41.70082760246866" lon="2.838201315108091"><ele>12.4</ele><time>2026-04-08T10:06:09.001Z</time></trkpt><trkpt lat="41.70087855546806" lon="2.8380551023378553"><ele>13.600000000000001</ele><time>2026-04-08T10:06:10.999Z</time></trkpt><trkpt lat="41.70095704573023" lon="2.8379369534510683"><ele>14.8</ele><time>2026-04-08T10:06:12.999Z</time></trkpt><trkpt lat="41.70100622034402" lon="2.837882541259699"><ele>16.0</ele><time>2026-04-08T10:06:13.999Z</time></trkpt><trkpt lat="41.70106069739884" lon="2.8378358124034664"><ele>16.333333333333332</ele><time>2026-04-08T10:06:14.999Z</time></trkpt><trkpt lat="41.70112080491444" lon="2.837795622100147"><ele>16.666666666666664</ele><time>2026-04-08T10:06:15.999Z</time></trkpt><trkpt lat="41.70118749317151" lon="2.8377522922404568"><ele>17.0</ele><time>2026-04-08T10:06:16.999Z</time></trkpt><trkpt lat="41.70125928617026" lon="2.837701398461916"><ele>17.333333333333332</ele><time>2026-04-08T10:06:17.999Z</time></trkpt><trkpt lat="41.70134103532897" lon="2.8376421902403712"><ele>17.666666666666668</ele><time>2026-04-08T10:06:18.999Z</time></trkpt><trkpt lat="41.70142710025212" lon="2.837578908239864"><ele>18.0</ele><time>2026-04-08T10:06:19.999Z</time></trkpt><trkpt lat="41.70151551736552" lon="2.8375172797195836"><ele>18.0</ele><time>2026-04-08T10:06:20.999Z</time></trkpt><trkpt lat="41.70159936547869" lon="2.837464393546399"><ele>18.0</ele><time>2026-04-08T10:06:21.999Z</time></trkpt><trkpt lat="41.701672941486585" lon="2.8374170202998408"><ele>18.0</ele><time>2026-04-08T10:06:22.999Z</time></trkpt><trkpt lat="41.701750713719726" lon="2.8373714596756807"><ele>18.0</ele><time>2026-04-08T10:06:23.999Z</time></trkpt><trkpt lat="41.70182812656272" lon="2.837324052110579"><ele>18.0</ele><time>2026-04-08T10:06:24.999Z</time></trkpt><trkpt lat="41.701901201209395" lon="2.8372729396076877"><ele>18.0</ele><time>2026-04-08T10:06:25.999Z</time></trkpt><trkpt lat="41.70197663092559" lon="2.837210850329081"><ele>17.2</ele><time>2026-04-08T10:06:27.999Z</time></trkpt><trkpt lat="41.702065884242174" lon="2.8371532912057065"><ele>16.4</ele><time>2026-04-08T10:06:30.999Z</time></trkpt><trkpt lat="41.702142321090335" lon="2.837101600539814"><ele>15.599999999999998</ele><time>2026-04-08T10:06:33Z</time></trkpt><trkpt lat="41.70223295896409" lon="2.8370519134559316"><ele>14.799999999999999</ele><time>2026-04-08T10:06:35Z</time></trkpt><trkpt lat="41.702328126308906" lon="2.836984830103594"><ele>14.0</ele><time>2026-04-08T10:06:37Z</time></trkpt><trkpt lat="41.70243292734967" lon="2.8369141134185596"><ele>14.000000000000002</ele><time>2026-04-08T10:06:39Z</time></trkpt><trkpt lat="41.70249593275739" lon="2.836873356092934"><ele>14.0</ele><time>2026-04-08T10:06:40Z</time></trkpt><trkpt lat="41.70256757794116" lon="2.8368322659737184"><ele>14.0</ele><time>2026-04-08T10:06:41Z</time></trkpt><trkpt lat="41.70264001332161" lon="2.8367802070962282"><ele>14.0</ele><time>2026-04-08T10:06:42Z</time></trkpt><trkpt lat="41.70271871821167" lon="2.836723158330108"><ele>14.000000000000002</ele><time>2026-04-08T10:06:43Z</time></trkpt><trkpt lat="41.7028026348772" lon="2.836669081765801"><ele>14.0</ele><time>2026-04-08T10:06:44Z</time></trkpt><trkpt lat="41.702888252841056" lon="2.836613074128173"><ele>14.000000000000002</ele><time>2026-04-08T10:06:45Z</time></trkpt><trkpt lat="41.702963874211164" lon="2.83656361862869"><ele>14.0</ele><time>2026-04-08T10:06:46Z</time></trkpt><trkpt lat="41.70304363669436" lon="2.836514096753357"><ele>14.0</ele><time>2026-04-08T10:06:47Z</time></trkpt><trkpt lat="41.70312084666076" lon="2.8364614511971804"><ele>14.0</ele><time>2026-04-08T10:06:48Z</time></trkpt><trkpt lat="41.70320125880203" lon="2.836405878391595"><ele>14.000000000000002</ele><time>2026-04-08T10:06:49Z</time></trkpt><trkpt lat="41.703284931048174" lon="2.836352768383489"><ele>14.0</ele><time>2026-04-08T10:06:50Z</time></trkpt><trkpt lat="41.70336821436577" lon="2.8363064016350292"><ele>14.000000000000002</ele><time>2026-04-08T10:06:51Z</time></trkpt><trkpt lat="41.70345086522181" lon="2.836259385912901"><ele>14.0</ele><time>2026-04-08T10:06:52Z</time></trkpt><trkpt lat="41.70353586306562" lon="2.8362148348860363"><ele>14.0</ele><time>2026-04-08T10:06:53Z</time></trkpt><trkpt lat="41.70361743342793" lon="2.8361745910105105"><ele>14.0</ele><time>2026-04-08T10:06:54Z</time></trkpt><trkpt lat="41.70369575285838" lon="2.8361346028345773"><ele>14.000000000000002</ele><time>2026-04-08T10:06:55Z</time></trkpt><trkpt lat="41.703769721724946" lon="2.836102051990973"><ele>14.0</ele><time>2026-04-08T10:06:56Z</time></trkpt><trkpt lat="41.703833570292375" lon="2.8360742792326468"><ele>14.333333333333334</ele><time>2026-04-08T10:06:57Z</time></trkpt><trkpt lat="41.703941677341795" lon="2.8360226218326323"><ele>14.666666666666668</ele><time>2026-04-08T10:06:59Z</time></trkpt><trkpt lat="41.704010625967555" lon="2.835990117257609"><ele>15.0</ele><time>2026-04-08T10:07:01Z</time></trkpt><trkpt lat="41.70410216385283" lon="2.83596232864317"><ele>15.333333333333332</ele><time>2026-04-08T10:07:06Z</time></trkpt><trkpt lat="41.70416669529281" lon="2.835953907855283"><ele>15.666666666666666</ele><time>2026-04-08T10:07:09Z</time></trkpt><trkpt lat="41.70422932420305" lon="2.835994199469464"><ele>16.0</ele><time>2026-04-08T10:07:10Z</time></trkpt><trkpt lat="41.70429754219351" lon="2.836039117543123"><ele>16.400000000000002</ele><time>2026-04-08T10:07:11Z</time></trkpt><trkpt lat="41.70436966710268" lon="2.836032747993592"><ele>16.8</ele><time>2026-04-08T10:07:12Z</time></trkpt><trkpt lat="41.704461650234116" lon="2.8359590837857613"><ele>17.200000000000003</ele><time>2026-04-08T10:07:14Z</time></trkpt><trkpt lat="41.704512561865066" lon="2.8358642111848766"><ele>17.6</ele><time>2026-04-08T10:07:16.001Z</time></trkpt><trkpt lat="41.70456988671271" lon="2.835753127315016"><ele>18.0</ele><time>2026-04-08T10:07:18.001Z</time></trkpt><trkpt lat="41.70467839907782" lon="2.8356962610681715"><ele>18.0</ele><time>2026-04-08T10:07:20.001Z</time></trkpt><trkpt lat="41.70475086237355" lon="2.835656324624266"><ele>18.0</ele><time>2026-04-08T10:07:21.001Z</time></trkpt><trkpt lat="41.7048435877078" lon="2.8355935108445447"><ele>18.0</ele><time>2026-04-08T10:07:22.001Z</time></trkpt><trkpt lat="41.704939926116886" lon="2.8355573328543002"><ele>18.0</ele><time>2026-04-08T10:07:23.001Z</time></trkpt><trkpt lat="41.705046258119005" lon="2.8355125900272595"><ele>18.0</ele><time>2026-04-08T10:07:24.001Z</time></trkpt><trkpt lat="41.70515648376654" lon="2.8354630479659337"><ele>19.0</ele><time>2026-04-08T10:07:25.001Z</time></trkpt><trkpt lat="41.70526862445459" lon="2.835413538421117"><ele>20.0</ele><time>2026-04-08T10:07:26.001Z</time></trkpt><trkpt lat="41.705385755568535" lon="2.8353637594482017"><ele>21.0</ele><time>2026-04-08T10:07:27.001Z</time></trkpt><trkpt lat="41.70550515263909" lon="2.835314597478806"><ele>22.0</ele><time>2026-04-08T10:07:28.001Z</time></trkpt><trkpt lat="41.705624810528896" lon="2.835263220167101"><ele>22.0</ele><time>2026-04-08T10:07:29.001Z</time></trkpt><trkpt lat="41.70574143840922" lon="2.8352111552640356"><ele>22.0</ele><time>2026-04-08T10:07:30.001Z</time></trkpt><trkpt lat="41.70586293004225" lon="2.835156010498094"><ele>22.0</ele><time>2026-04-08T10:07:31.001Z</time></trkpt><trkpt lat="41.705980885369314" lon="2.8351122787603638"><ele>22.0</ele><time>2026-04-08T10:07:32.001Z</time></trkpt><trkpt lat="41.70608951771145" lon="2.8350745976077674"><ele>21.0</ele><time>2026-04-08T10:07:33.001Z</time></trkpt><trkpt lat="41.706190998672476" lon="2.8350249685004307"><ele>20.0</ele><time>2026-04-08T10:07:34.001Z</time></trkpt><trkpt lat="41.70629674640968" lon="2.8349790720971932"><ele>19.0</ele><time>2026-04-08T10:07:35.001Z</time></trkpt><trkpt lat="41.706399712710784" lon="2.834933855927888"><ele>18.0</ele><time>2026-04-08T10:07:36.001Z</time></trkpt><trkpt lat="41.70650385660662" lon="2.8348903717746397"><ele>17.0</ele><time>2026-04-08T10:07:37.001Z</time></trkpt><trkpt lat="41.70660773236008" lon="2.834829275511219"><ele>17.0</ele><time>2026-04-08T10:07:38.001Z</time></trkpt><trkpt lat="41.70671797203747" lon="2.8347620359477887"><ele>17.0</ele><time>2026-04-08T10:07:39.001Z</time></trkpt><trkpt lat="41.70683067794891" lon="2.8346840518064274"><ele>17.0</ele><time>2026-04-08T10:07:40.001Z</time></trkpt><trkpt lat="41.70694056426316" lon="2.8346003007551532"><ele>17.0</ele><time>2026-04-08T10:07:41.001Z</time></trkpt><trkpt lat="41.707048625182225" lon="2.8345098889449036"><ele>17.25</ele><time>2026-04-08T10:07:42.001Z</time></trkpt><trkpt lat="41.7071479344439" lon="2.8344111538579035"><ele>17.5</ele><time>2026-04-08T10:07:43.001Z</time></trkpt><trkpt lat="41.70724409982151" lon="2.8343075049948814"><ele>17.75</ele><time>2026-04-08T10:07:44.001Z</time></trkpt><trkpt lat="41.70733406864809" lon="2.834206328549928"><ele>18.0</ele><time>2026-04-08T10:07:45.001Z</time></trkpt><trkpt lat="41.7074151036026" lon="2.834109012348826"><ele>17.4</ele><time>2026-04-08T10:07:46.001Z</time></trkpt><trkpt lat="41.70749204218592" lon="2.8340057467904005"><ele>16.8</ele><time>2026-04-08T10:07:47.001Z</time></trkpt><trkpt lat="41.70756934852706" lon="2.833901588361472"><ele>16.2</ele><time>2026-04-08T10:07:48.001Z</time></trkpt><trkpt lat="41.707646587894374" lon="2.8337966141465842"><ele>15.6</ele><time>2026-04-08T10:07:49.001Z</time></trkpt><trkpt lat="41.70772505363562" lon="2.8336907994683695"><ele>15.0</ele><time>2026-04-08T10:07:50.001Z</time></trkpt><trkpt lat="41.70780390603734" lon="2.833582216641081"><ele>14.5</ele><time>2026-04-08T10:07:51.001Z</time></trkpt><trkpt lat="41.707884678445616" lon="2.833469719238457"><ele>14.0</ele><time>2026-04-08T10:07:52.001Z</time></trkpt><trkpt lat="41.70796440091111" lon="2.833352577410386"><ele>13.5</ele><time>2026-04-08T10:07:53.001Z</time></trkpt><trkpt lat="41.70804927765318" lon="2.8332418091434453"><ele>13.0</ele><time>2026-04-08T10:07:54.001Z</time></trkpt><trkpt lat="41.70813543607055" lon="2.8331404879138464"><ele>13.0</ele><time>2026-04-08T10:07:55.001Z</time></trkpt><trkpt lat="41.708219236172056" lon="2.8330361674175792"><ele>13.0</ele><time>2026-04-08T10:07:56.001Z</time></trkpt><trkpt lat="41.708307262688685" lon="2.8329405112256536"><ele>13.0</ele><time>2026-04-08T10:07:57.001Z</time></trkpt><trkpt lat="41.70839480055938" lon="2.832853147261803"><ele>13.0</ele><time>2026-04-08T10:07:58.001Z</time></trkpt><trkpt lat="41.70847915338564" lon="2.832776931100468"><ele>13.0</ele><time>2026-04-08T10:07:59.001Z</time></trkpt><trkpt lat="41.708558479959194" lon="2.832709426105908"><ele>14.166666666666666</ele><time>2026-04-08T10:08:00.001Z</time></trkpt><trkpt lat="41.70863079096116" lon="2.8326496811411204"><ele>15.333333333333332</ele><time>2026-04-08T10:08:01.001Z</time></trkpt><trkpt lat="41.70870309767983" lon="2.832598028551202"><ele>16.5</ele><time>2026-04-08T10:08:02.001Z</time></trkpt><trkpt lat="41.70877369972182" lon="2.832566295260959"><ele>17.666666666666668</ele><time>2026-04-08T10:08:03.001Z</time></trkpt><trkpt lat="41.708883592040785" lon="2.832558045710667"><ele>18.833333333333336</ele><time>2026-04-08T10:08:05.001Z</time></trkpt><trkpt lat="41.70896055918594" lon="2.8325456408296885"><ele>20.0</ele><time>2026-04-08T10:08:06.001Z</time></trkpt><trkpt lat="41.70903869899697" lon="2.832517712660958"><ele>20.2</ele><time>2026-04-08T10:08:07.001Z</time></trkpt><trkpt lat="41.70910828242134" lon="2.8324651559702523"><ele>20.4</ele><time>2026-04-08T10:08:08.001Z</time></trkpt><trkpt lat="41.709175680721984" lon="2.8323981191632024"><ele>20.6</ele><time>2026-04-08T10:08:09.001Z</time></trkpt><trkpt lat="41.709256228949066" lon="2.8323336147701017"><ele>20.8</ele><time>2026-04-08T10:08:10.002Z</time></trkpt><trkpt lat="41.70934521972347" lon="2.8322864108241115"><ele>21.0</ele><time>2026-04-08T10:08:11.002Z</time></trkpt><trkpt lat="41.70944164893329" lon="2.832249924792423"><ele>22.4</ele><time>2026-04-08T10:08:12.002Z</time></trkpt><trkpt lat="41.70954037973304" lon="2.832221439923344"><ele>23.8</ele><time>2026-04-08T10:08:13.002Z</time></trkpt><trkpt lat="41.709640493262974" lon="2.832195523418099"><ele>25.199999999999996</ele><time>2026-04-08T10:08:14.002Z</time></trkpt><trkpt lat="41.7097454085057" lon="2.8321703793344404"><ele>26.599999999999998</ele><time>2026-04-08T10:08:15.002Z</time></trkpt><trkpt lat="41.709860762064416" lon="2.832145256609176"><ele>28.0</ele><time>2026-04-08T10:08:16.002Z</time></trkpt><trkpt lat="41.70997710617168" lon="2.8321214921056277"><ele>28.0</ele><time>2026-04-08T10:08:16.999Z</time></trkpt><trkpt lat="41.710096475983946" lon="2.8320977261477847"><ele>28.0</ele><time>2026-04-08T10:08:17.999Z</time></trkpt><trkpt lat="41.71021712487434" lon="2.8320734665395637"><ele>28.0</ele><time>2026-04-08T10:08:18.999Z</time></trkpt><trkpt lat="41.71034175945736" lon="2.8320503201475975"><ele>28.0</ele><time>2026-04-08T10:08:19.999Z</time></trkpt><trkpt lat="41.71046914989835" lon="2.832029923590751"><ele>26.75</ele><time>2026-04-08T10:08:20.999Z</time></trkpt><trkpt lat="41.71059530622645" lon="2.83201181086138"><ele>25.5</ele><time>2026-04-08T10:08:21.999Z</time></trkpt><trkpt lat="41.71071509852884" lon="2.8319871429681585"><ele>24.25</ele><time>2026-04-08T10:08:22.999Z</time></trkpt><trkpt lat="41.71082618036964" lon="2.831965399290728"><ele>23.0</ele><time>2026-04-08T10:08:23.999Z</time></trkpt><trkpt lat="41.710935695131134" lon="2.831944590243045"><ele>23.0</ele><time>2026-04-08T10:08:24.999Z</time></trkpt><trkpt lat="41.71104706377477" lon="2.8319264061085274"><ele>23.0</ele><time>2026-04-08T10:08:25.999Z</time></trkpt><trkpt lat="41.71116022586367" lon="2.8319056478887874"><ele>23.0</ele><time>2026-04-08T10:08:26.999Z</time></trkpt><trkpt lat="41.71127852166191" lon="2.8318841382697792"><ele>23.0</ele><time>2026-04-08T10:08:27.999Z</time></trkpt><trkpt lat="41.711398572703494" lon="2.831860336019669"><ele>22.75</ele><time>2026-04-08T10:08:28.999Z</time></trkpt><trkpt lat="41.711517442698785" lon="2.831835903261159"><ele>22.5</ele><time>2026-04-08T10:08:29.999Z</time></trkpt><trkpt lat="41.71163472346084" lon="2.8318139882243103"><ele>22.25</ele><time>2026-04-08T10:08:30.999Z</time></trkpt><trkpt lat="41.711751125007886" lon="2.831792905789754"><ele>22.0</ele><time>2026-04-08T10:08:31.999Z</time></trkpt><trkpt lat="41.711869510659156" lon="2.8317723653359015"><ele>22.0</ele><time>2026-04-08T10:08:32.999Z</time></trkpt><trkpt lat="41.711989346063795" lon="2.831751790716509"><ele>22.0</ele><time>2026-04-08T10:08:33.999Z</time></trkpt><trkpt lat="41.712108993028735" lon="2.831730127245482"><ele>22.0</ele><time>2026-04-08T10:08:34.999Z</time></trkpt><trkpt lat="41.71223031634054" lon="2.8317082056947753"><ele>22.0</ele><time>2026-04-08T10:08:35.999Z</time></trkpt><trkpt lat="41.71235436669392" lon="2.8316893861647467"><ele>22.0</ele><time>2026-04-08T10:08:36.999Z</time></trkpt><trkpt lat="41.71248403627747" lon="2.831667958124294"><ele>22.0</ele><time>2026-04-08T10:08:37.999Z</time></trkpt><trkpt lat="41.71261101203976" lon="2.8316466829370124"><ele>22.0</ele><time>2026-04-08T10:08:38.999Z</time></trkpt><trkpt lat="41.71273532010042" lon="2.831623856218678"><ele>22.0</ele><time>2026-04-08T10:08:39.999Z</time></trkpt><trkpt lat="41.71285847107998" lon="2.831599746530195"><ele>22.8</ele><time>2026-04-08T10:08:40.999Z</time></trkpt><trkpt lat="41.71297663334187" lon="2.831573796015835"><ele>23.6</ele><time>2026-04-08T10:08:41.999Z</time></trkpt><trkpt lat="41.71308345394823" lon="2.831544258134428"><ele>24.400000000000002</ele><time>2026-04-08T10:08:42.999Z</time></trkpt><trkpt lat="41.71318126596245" lon="2.8315079022825853"><ele>25.200000000000003</ele><time>2026-04-08T10:08:44Z</time></trkpt><trkpt lat="41.713267918730544" lon="2.8314716657683077"><ele>26.0</ele><time>2026-04-08T10:08:45Z</time></trkpt><trkpt lat="41.71334125264859" lon="2.831439343555768"><ele>26.0</ele><time>2026-04-08T10:08:46Z</time></trkpt><trkpt lat="41.71344718516067" lon="2.8313890069116154"><ele>26.0</ele><time>2026-04-08T10:08:48Z</time></trkpt><trkpt lat="41.71353595808932" lon="2.831341895701036"><ele>26.0</ele><time>2026-04-08T10:08:50Z</time></trkpt><trkpt lat="41.71361306689976" lon="2.8312992223997235"><ele>26.0</ele><time>2026-04-08T10:08:52Z</time></trkpt><trkpt lat="41.71367479415993" lon="2.8312642784238826"><ele>26.0</ele><time>2026-04-08T10:08:54Z</time></trkpt><trkpt lat="41.71375868928887" lon="2.8312133147462073"><ele>26.200000000000003</ele><time>2026-04-08T10:08:57Z</time></trkpt><trkpt lat="41.71385233088496" lon="2.8312040531427787"><ele>26.400000000000002</ele><time>2026-04-08T10:08:59Z</time></trkpt><trkpt lat="41.713968394421144" lon="2.831232519934052"><ele>26.6</ele><time>2026-04-08T10:09:01Z</time></trkpt><trkpt lat="41.714068547601144" lon="2.831172496554417"><ele>26.8</ele><time>2026-04-08T10:09:03Z</time></trkpt><trkpt lat="41.71411230740057" lon="2.8311101218754984"><ele>27.0</ele><time>2026-04-08T10:09:04Z</time></trkpt><trkpt lat="41.71416002481831" lon="2.8310380269241073"><ele>26.400000000000002</ele><time>2026-04-08T10:09:05Z</time></trkpt><trkpt lat="41.714214026231545" lon="2.830962720813316"><ele>25.800000000000004</ele><time>2026-04-08T10:09:06Z</time></trkpt><trkpt lat="41.714281383497074" lon="2.8308942165165765"><ele>25.2</ele><time>2026-04-08T10:09:07Z</time></trkpt><trkpt lat="41.714371426710635" lon="2.830836810374948"><ele>24.6</ele><time>2026-04-08T10:09:08Z</time></trkpt><trkpt lat="41.714466016114756" lon="2.830780052102107"><ele>24.0</ele><time>2026-04-08T10:09:09Z</time></trkpt><trkpt lat="41.71456848017532" lon="2.830721950464099"><ele>24.0</ele><time>2026-04-08T10:09:10Z</time></trkpt><trkpt lat="41.71467794210608" lon="2.8306608778850983"><ele>24.0</ele><time>2026-04-08T10:09:11Z</time></trkpt><trkpt lat="41.71478946329616" lon="2.8305982657785376"><ele>24.0</ele><time>2026-04-08T10:09:12Z</time></trkpt><trkpt lat="41.71490111308144" lon="2.830531426866849"><ele>24.0</ele><time>2026-04-08T10:09:13Z</time></trkpt><trkpt lat="41.715014292229384" lon="2.830463519061282"><ele>24.0</ele><time>2026-04-08T10:09:14Z</time></trkpt><trkpt lat="41.715134938809385" lon="2.830390123011473"><ele>24.0</ele><time>2026-04-08T10:09:15Z</time></trkpt><trkpt lat="41.71526206659933" lon="2.830311638438936"><ele>24.0</ele><time>2026-04-08T10:09:16Z</time></trkpt><trkpt lat="41.71538877272669" lon="2.8302316016278115"><ele>24.0</ele><time>2026-04-08T10:09:17Z</time></trkpt><trkpt lat="41.71550958675196" lon="2.8301570400201186"><ele>23.75</ele><time>2026-04-08T10:09:18Z</time></trkpt><trkpt lat="41.71563720919321" lon="2.830078476787919"><ele>23.5</ele><time>2026-04-08T10:09:19.001Z</time></trkpt><trkpt lat="41.715770983938924" lon="2.829995057323506"><ele>23.25</ele><time>2026-04-08T10:09:20.001Z</time></trkpt><trkpt lat="41.71590642316182" lon="2.829917513304125"><ele>23.0</ele><time>2026-04-08T10:09:21.001Z</time></trkpt><trkpt lat="41.71602721708933" lon="2.8298487834607475"><ele>22.75</ele><time>2026-04-08T10:09:22.001Z</time></trkpt><trkpt lat="41.71614539947284" lon="2.8297784712597474"><ele>22.5</ele><time>2026-04-08T10:09:23.001Z</time></trkpt><trkpt lat="41.716258850646916" lon="2.8297076815923754"><ele>22.25</ele><time>2026-04-08T10:09:24.001Z</time></trkpt><trkpt lat="41.71636621341412" lon="2.8296440800737463"><ele>22.0</ele><time>2026-04-08T10:09:25.001Z</time></trkpt><trkpt lat="41.71645961437578" lon="2.8295878398576453"><ele>22.0</ele><time>2026-04-08T10:09:26.001Z</time></trkpt><trkpt lat="41.71654585835173" lon="2.8295363276220074"><ele>22.0</ele><time>2026-04-08T10:09:27.001Z</time></trkpt><trkpt lat="41.71663837750876" lon="2.8294823595264633"><ele>22.0</ele><time>2026-04-08T10:09:28.001Z</time></trkpt><trkpt lat="41.71673295012147" lon="2.8294261743534967"><ele>22.0</ele><time>2026-04-08T10:09:29.001Z</time></trkpt><trkpt lat="41.716826803673094" lon="2.8293717690421274"><ele>22.0</ele><time>2026-04-08T10:09:30.001Z</time></trkpt><trkpt lat="41.71692662235421" lon="2.8293138034366265"><ele>25.5</ele><time>2026-04-08T10:09:31.001Z</time></trkpt><trkpt lat="41.717030125201966" lon="2.8292532486273045"><ele>29.0</ele><time>2026-04-08T10:09:32.001Z</time></trkpt><trkpt lat="41.717136207571315" lon="2.829188287187573"><ele>32.5</ele><time>2026-04-08T10:09:33.001Z</time></trkpt><trkpt lat="41.71724433033598" lon="2.8291151325077015"><ele>36.0</ele><time>2026-04-08T10:09:34.001Z</time></trkpt><trkpt lat="41.717353137527276" lon="2.8290294906044595"><ele>36.0</ele><time>2026-04-08T10:09:35.001Z</time></trkpt><trkpt lat="41.71746027344542" lon="2.8289324377411464"><ele>36.0</ele><time>2026-04-08T10:09:36.001Z</time></trkpt><trkpt lat="41.71756367052844" lon="2.8288219346959607"><ele>36.0</ele><time>2026-04-08T10:09:37.001Z</time></trkpt><trkpt lat="41.7176629980576" lon="2.8286896280271425"><ele>36.0</ele><time>2026-04-08T10:09:38.001Z</time></trkpt><trkpt lat="41.717752771457114" lon="2.828535588833102"><ele>41.0</ele><time>2026-04-08T10:09:39.001Z</time></trkpt><trkpt lat="41.717845275850785" lon="2.828379555668031"><ele>46.0</ele><time>2026-04-08T10:09:40.001Z</time></trkpt><trkpt lat="41.71791561534804" lon="2.8281947381433348"><ele>51.0</ele><time>2026-04-08T10:09:41.001Z</time></trkpt><trkpt lat="41.71795522092832" lon="2.8279841825597707"><ele>51.0</ele><time>2026-04-08T10:09:42.001Z</time></trkpt><trkpt lat="41.7180149507587" lon="2.827775889966638"><ele>51.0</ele><time>2026-04-08T10:09:43.001Z</time></trkpt><trkpt lat="41.718030026341886" lon="2.827557454937594"><ele>51.0</ele><time>2026-04-08T10:09:44.001Z</time></trkpt><trkpt lat="41.718057382086144" lon="2.8273305025146582"><ele>51.66666666666667</ele><time>2026-04-08T10:09:45.001Z</time></trkpt><trkpt lat="41.71809145662784" lon="2.8271056297468387"><ele>52.333333333333336</ele><time>2026-04-08T10:09:46.001Z</time></trkpt><trkpt lat="41.718128366165075" lon="2.826897083733837"><ele>53.0</ele><time>2026-04-08T10:09:47.001Z</time></trkpt><trkpt lat="41.718183556637555" lon="2.8266968105738233"><ele>53.0</ele><time>2026-04-08T10:09:48.001Z</time></trkpt><trkpt lat="41.71825636046929" lon="2.8264998086792636"><ele>53.0</ele><time>2026-04-08T10:09:49.001Z</time></trkpt><trkpt lat="41.718341090319136" lon="2.8263179390113105"><ele>53.0</ele><time>2026-04-08T10:09:50.001Z</time></trkpt><trkpt lat="41.71844235587519" lon="2.8261543316658275"><ele>53.0</ele><time>2026-04-08T10:09:51.001Z</time></trkpt><trkpt lat="41.718558148713655" lon="2.825998031126548"><ele>53.0</ele><time>2026-04-08T10:09:52.001Z</time></trkpt><trkpt lat="41.71870159616778" lon="2.825861228206669"><ele>53.0</ele><time>2026-04-08T10:09:53.001Z</time></trkpt><trkpt lat="41.718848098661375" lon="2.8257464057020467"><ele>55.0</ele><time>2026-04-08T10:09:54.001Z</time></trkpt><trkpt lat="41.71900343913011" lon="2.8256594325223108"><ele>57.0</ele><time>2026-04-08T10:09:55.001Z</time></trkpt><trkpt lat="41.719169981764715" lon="2.8255988478050185"><ele>59.0</ele><time>2026-04-08T10:09:56.001Z</time></trkpt><trkpt lat="41.71933972685492" lon="2.8255651001862123"><ele>58.333333333333336</ele><time>2026-04-08T10:09:57.001Z</time></trkpt><trkpt lat="41.71951622643519" lon="2.825554862919225"><ele>57.66666666666667</ele><time>2026-04-08T10:09:58.001Z</time></trkpt><trkpt lat="41.71969558896172" lon="2.825558282004321"><ele>57.0</ele><time>2026-04-08T10:09:59.001Z</time></trkpt><trkpt lat="41.719870574639614" lon="2.8255520597883645"><ele>57.0</ele><time>2026-04-08T10:10:00.001Z</time></trkpt><trkpt lat="41.72004880390045" lon="2.8255268840121723"><ele>57.0</ele><time>2026-04-08T10:10:01.001Z</time></trkpt><trkpt lat="41.72022583822652" lon="2.8254755946862926"><ele>57.0</ele><time>2026-04-08T10:10:02.001Z</time></trkpt><trkpt lat="41.72040097166756" lon="2.8254013808774636"><ele>56.66666666666667</ele><time>2026-04-08T10:10:03.001Z</time></trkpt><trkpt lat="41.720569658255" lon="2.8253169591964578"><ele>56.333333333333336</ele><time>2026-04-08T10:10:04.002Z</time></trkpt><trkpt lat="41.72073651124182" lon="2.825232326718648"><ele>56.0</ele><time>2026-04-08T10:10:05.002Z</time></trkpt><trkpt lat="41.720896720802806" lon="2.82515921340584"><ele>56.0</ele><time>2026-04-08T10:10:06.002Z</time></trkpt><trkpt lat="41.72105841697458" lon="2.8251111322377325"><ele>56.0</ele><time>2026-04-08T10:10:07.002Z</time></trkpt><trkpt lat="41.72122542418545" lon="2.825086143969969"><ele>56.0</ele><time>2026-04-08T10:10:08.002Z</time></trkpt><trkpt lat="41.72139142177277" lon="2.825081569772406"><ele>56.66666666666667</ele><time>2026-04-08T10:10:09.002Z</time></trkpt><trkpt lat="41.72155432576432" lon="2.825099510655378"><ele>57.33333333333333</ele><time>2026-04-08T10:10:10.002Z</time></trkpt><trkpt lat="41.72170826024284" lon="2.825132925711323"><ele>58.0</ele><time>2026-04-08T10:10:11.002Z</time></trkpt><trkpt lat="41.72185702413297" lon="2.8251692281148344"><ele>61.33333333333333</ele><time>2026-04-08T10:10:12.002Z</time></trkpt><trkpt lat="41.72200656219745" lon="2.825194001682994"><ele>64.66666666666667</ele><time>2026-04-08T10:10:13.002Z</time></trkpt><trkpt lat="41.72216392890352" lon="2.825207931337457"><ele>68.0</ele><time>2026-04-08T10:10:14.002Z</time></trkpt><trkpt lat="41.722323538029364" lon="2.825227218051051"><ele>68.0</ele><time>2026-04-08T10:10:15.002Z</time></trkpt><trkpt lat="41.722488802734475" lon="2.8251998962287286"><ele>68.0</ele><time>2026-04-08T10:10:16.002Z</time></trkpt><trkpt lat="41.72265969843985" lon="2.8251331442957763"><ele>68.0</ele><time>2026-04-08T10:10:17.002Z</time></trkpt><trkpt lat="41.72281846787277" lon="2.8250341613843304"><ele>74.0</ele><time>2026-04-08T10:10:18.002Z</time></trkpt><trkpt lat="41.72297569668405" lon="2.824893169498319"><ele>80.0</ele><time>2026-04-08T10:10:19.002Z</time></trkpt><trkpt lat="41.7231169614441" lon="2.8247215927037566"><ele>86.0</ele><time>2026-04-08T10:10:20.002Z</time></trkpt><trkpt lat="41.72325049448497" lon="2.824532030339635"><ele>86.0</ele><time>2026-04-08T10:10:21.002Z</time></trkpt><trkpt lat="41.72337985167918" lon="2.8243352900679866"><ele>86.0</ele><time>2026-04-08T10:10:22.002Z</time></trkpt><trkpt lat="41.72350787364597" lon="2.8241301481835577"><ele>86.0</ele><time>2026-04-08T10:10:22.999Z</time></trkpt><trkpt lat="41.72363552955001" lon="2.8239220568725507"><ele>87.66666666666667</ele><time>2026-04-08T10:10:23.999Z</time></trkpt><trkpt lat="41.7237561798194" lon="2.823707483398381"><ele>89.33333333333333</ele><time>2026-04-08T10:10:24.999Z</time></trkpt><trkpt lat="41.723859864930176" lon="2.8234834501414894"><ele>91.0</ele><time>2026-04-08T10:10:25.999Z</time></trkpt><trkpt lat="41.72394147318472" lon="2.823250414108735"><ele>92.0</ele><time>2026-04-08T10:10:26.999Z</time></trkpt><trkpt lat="41.724032889962515" lon="2.8230173144229864"><ele>93.0</ele><time>2026-04-08T10:10:27.999Z</time></trkpt><trkpt lat="41.72412119940434" lon="2.822777865273238"><ele>94.0</ele><time>2026-04-08T10:10:28.999Z</time></trkpt><trkpt lat="41.72420500952429" lon="2.8225306296822263"><ele>95.33333333333333</ele><time>2026-04-08T10:10:29.999Z</time></trkpt><trkpt lat="41.72428750780491" lon="2.822281504371251"><ele>96.66666666666666</ele><time>2026-04-08T10:10:30.999Z</time></trkpt><trkpt lat="41.72438588644056" lon="2.822045005534748"><ele>98.0</ele><time>2026-04-08T10:10:31.999Z</time></trkpt><trkpt lat="41.72447088058086" lon="2.8218033860969114"><ele>98.66666666666666</ele><time>2026-04-08T10:10:32.999Z</time></trkpt><trkpt lat="41.72454051718586" lon="2.82155812209457"><ele>99.33333333333334</ele><time>2026-04-08T10:10:33.999Z</time></trkpt><trkpt lat="41.72462437476735" lon="2.8213235427335097"><ele>100.0</ele><time>2026-04-08T10:10:34.999Z</time></trkpt><trkpt lat="41.724707562837246" lon="2.821087648176876"><ele>100.66666666666667</ele><time>2026-04-08T10:10:35.999Z</time></trkpt><trkpt lat="41.72479353803561" lon="2.8208508985104257"><ele>101.33333333333334</ele><time>2026-04-08T10:10:36.999Z</time></trkpt><trkpt lat="41.724878172537984" lon="2.8206164661878277"><ele>102.0</ele><time>2026-04-08T10:10:37.999Z</time></trkpt><trkpt lat="41.72496240593833" lon="2.8203782388975305"><ele>102.66666666666666</ele><time>2026-04-08T10:10:38.999Z</time></trkpt><trkpt lat="41.72504321079746" lon="2.820139542144594"><ele>103.33333333333333</ele><time>2026-04-08T10:10:40Z</time></trkpt><trkpt lat="41.72512620444714" lon="2.8198999357812338"><ele>104.0</ele><time>2026-04-08T10:10:41Z</time></trkpt><trkpt lat="41.725225923061764" lon="2.8196708138955024"><ele>104.0</ele><time>2026-04-08T10:10:42Z</time></trkpt><trkpt lat="41.72529575905419" lon="2.819426572335832"><ele>104.0</ele><time>2026-04-08T10:10:43Z</time></trkpt><trkpt lat="41.72538341857607" lon="2.819188889248725"><ele>104.0</ele><time>2026-04-08T10:10:44Z</time></trkpt><trkpt lat="41.72547416611254" lon="2.8189540179886863"><ele>107.66666666666666</ele><time>2026-04-08T10:10:45Z</time></trkpt><trkpt lat="41.72557141510844" lon="2.818730671615092"><ele>111.33333333333334</ele><time>2026-04-08T10:10:46Z</time></trkpt><trkpt lat="41.725674703471846" lon="2.818512759895477"><ele>115.0</ele><time>2026-04-08T10:10:47Z</time></trkpt><trkpt lat="41.72577918709408" lon="2.8183175110732774"><ele>114.66666666666667</ele><time>2026-04-08T10:10:48Z</time></trkpt><trkpt lat="41.72588247759929" lon="2.8181391491514396"><ele>114.33333333333334</ele><time>2026-04-08T10:10:49Z</time></trkpt><trkpt lat="41.72598463062399" lon="2.8179715324273005"><ele>114.0</ele><time>2026-04-08T10:10:50Z</time></trkpt><trkpt lat="41.726089305758116" lon="2.8177985758660853"><ele>116.33333333333334</ele><time>2026-04-08T10:10:51Z</time></trkpt><trkpt lat="41.72619596380611" lon="2.817626000445942"><ele>118.66666666666667</ele><time>2026-04-08T10:10:52Z</time></trkpt><trkpt lat="41.72630442350069" lon="2.817459176133342"><ele>121.0</ele><time>2026-04-08T10:10:53Z</time></trkpt><trkpt lat="41.72641184923984" lon="2.8172969482444303"><ele>121.0</ele><time>2026-04-08T10:10:54Z</time></trkpt><trkpt lat="41.72652908039124" lon="2.817140019348962"><ele>121.0</ele><time>2026-04-08T10:10:55Z</time></trkpt><trkpt lat="41.72665931125711" lon="2.8170006298604475"><ele>121.0</ele><time>2026-04-08T10:10:56Z</time></trkpt><trkpt lat="41.72680076235987" lon="2.816880603567974"><ele>122.33333333333334</ele><time>2026-04-08T10:10:57Z</time></trkpt><trkpt lat="41.72694912258719" lon="2.8167760238957538"><ele>123.66666666666666</ele><time>2026-04-08T10:10:58Z</time></trkpt><trkpt lat="41.72710405340367" lon="2.8166889835480533"><ele>125.0</ele><time>2026-04-08T10:10:59Z</time></trkpt><trkpt lat="41.72726415091298" lon="2.8166170842308205"><ele>125.0</ele><time>2026-04-08T10:11:00Z</time></trkpt><trkpt lat="41.72742984749014" lon="2.816566746938633"><ele>125.0</ele><time>2026-04-08T10:11:01Z</time></trkpt><trkpt lat="41.72759517633498" lon="2.8165303976833242"><ele>125.0</ele><time>2026-04-08T10:11:02Z</time></trkpt><trkpt lat="41.72776426276684" lon="2.8165111530301514"><ele>127.66666666666666</ele><time>2026-04-08T10:11:03Z</time></trkpt><trkpt lat="41.72793545968376" lon="2.81649788472277"><ele>130.33333333333334</ele><time>2026-04-08T10:11:04Z</time></trkpt><trkpt lat="41.72810886445483" lon="2.8164885808823183"><ele>133.0</ele><time>2026-04-08T10:11:05Z</time></trkpt><trkpt lat="41.7282879196094" lon="2.8164790862548013"><ele>133.0</ele><time>2026-04-08T10:11:06Z</time></trkpt><trkpt lat="41.728468146628934" lon="2.8164684540750278"><ele>133.0</ele><time>2026-04-08T10:11:07Z</time></trkpt><trkpt lat="41.728642610160286" lon="2.8164531064813687"><ele>133.0</ele><time>2026-04-08T10:11:08Z</time></trkpt><trkpt lat="41.7288115244985" lon="2.816439087063968"><ele>132.66666666666669</ele><time>2026-04-08T10:11:09Z</time></trkpt><trkpt lat="41.72897792989156" lon="2.816422217211654"><ele>132.33333333333334</ele><time>2026-04-08T10:11:10Z</time></trkpt><trkpt lat="41.72914339842053" lon="2.816395897283164"><ele>132.0</ele><time>2026-04-08T10:11:11Z</time></trkpt><trkpt lat="41.72930583881752" lon="2.8163618969294486"><ele>128.66666666666666</ele><time>2026-04-08T10:11:12.001Z</time></trkpt><trkpt lat="41.72946687313552" lon="2.816318276051062"><ele>125.33333333333333</ele><time>2026-04-08T10:11:13.001Z</time></trkpt><trkpt lat="41.72963247162901" lon="2.8162924422152487"><ele>122.0</ele><time>2026-04-08T10:11:14.001Z</time></trkpt><trkpt lat="41.729799768483886" lon="2.816237434575912"><ele>122.0</ele><time>2026-04-08T10:11:15.001Z</time></trkpt><trkpt lat="41.72995523845904" lon="2.816165461843407"><ele>122.0</ele><time>2026-04-08T10:11:16.001Z</time></trkpt><trkpt lat="41.730119026877276" lon="2.816112198006841"><ele>122.0</ele><time>2026-04-08T10:11:17.001Z</time></trkpt><trkpt lat="41.73027983438061" lon="2.816059259521828"><ele>121.33333333333333</ele><time>2026-04-08T10:11:18.001Z</time></trkpt><trkpt lat="41.73044402143163" lon="2.8160060142595915"><ele>120.66666666666666</ele><time>2026-04-08T10:11:19.001Z</time></trkpt><trkpt lat="41.730605053929786" lon="2.815953793698424"><ele>120.0</ele><time>2026-04-08T10:11:20.001Z</time></trkpt><trkpt lat="41.73076801219763" lon="2.8158978913082"><ele>122.0</ele><time>2026-04-08T10:11:21.001Z</time></trkpt><trkpt lat="41.73093103449114" lon="2.8158436662386452"><ele>124.0</ele><time>2026-04-08T10:11:22.001Z</time></trkpt><trkpt lat="41.73109437187275" lon="2.81578916104519"><ele>126.0</ele><time>2026-04-08T10:11:23.001Z</time></trkpt><trkpt lat="41.73126044851057" lon="2.8157339206789045"><ele>127.66666666666666</ele><time>2026-04-08T10:11:24.001Z</time></trkpt><trkpt lat="41.73142660357882" lon="2.8156758209618666"><ele>129.33333333333331</ele><time>2026-04-08T10:11:25.001Z</time></trkpt><trkpt lat="41.7315948962379" lon="2.8156186826537404"><ele>131.0</ele><time>2026-04-08T10:11:26.001Z</time></trkpt><trkpt lat="41.73176275679058" lon="2.8155648036038947"><ele>133.33333333333331</ele><time>2026-04-08T10:11:27.001Z</time></trkpt><trkpt lat="41.731930408032504" lon="2.8155212854113785"><ele>135.66666666666666</ele><time>2026-04-08T10:11:28.001Z</time></trkpt><trkpt lat="41.732096040012124" lon="2.815502175314481"><ele>138.0</ele><time>2026-04-08T10:11:29.001Z</time></trkpt><trkpt lat="41.73226158317601" lon="2.8155107427664054"><ele>138.0</ele><time>2026-04-08T10:11:30.001Z</time></trkpt><trkpt lat="41.732425433825576" lon="2.815552773004192"><ele>138.0</ele><time>2026-04-08T10:11:31.001Z</time></trkpt><trkpt lat="41.73258032717479" lon="2.8156217264284704"><ele>138.0</ele><time>2026-04-08T10:11:32.001Z</time></trkpt><trkpt lat="41.73272860587624" lon="2.815719754331012"><ele>138.0</ele><time>2026-04-08T10:11:33.001Z</time></trkpt><trkpt lat="41.73287328749655" lon="2.8158246163857394"><ele>138.0</ele><time>2026-04-08T10:11:34.001Z</time></trkpt><trkpt lat="41.73301603650775" lon="2.8159365772940386"><ele>138.0</ele><time>2026-04-08T10:11:35.001Z</time></trkpt><trkpt lat="41.733169346418556" lon="2.816019475099401"><ele>138.33333333333334</ele><time>2026-04-08T10:11:36.001Z</time></trkpt><trkpt lat="41.73333237924641" lon="2.8160735893146747"><ele>138.66666666666669</ele><time>2026-04-08T10:11:37.001Z</time></trkpt><trkpt lat="41.7334922700303" lon="2.816096260564989"><ele>139.0</ele><time>2026-04-08T10:11:38.001Z</time></trkpt><trkpt lat="41.733655808621116" lon="2.816095073243391"><ele>141.66666666666669</ele><time>2026-04-08T10:11:39.001Z</time></trkpt><trkpt lat="41.73381710737983" lon="2.8160747702252475"><ele>144.33333333333334</ele><time>2026-04-08T10:11:40.001Z</time></trkpt><trkpt lat="41.73397981878278" lon="2.816048620291972"><ele>147.0</ele><time>2026-04-08T10:11:41.001Z</time></trkpt><trkpt lat="41.73414151362045" lon="2.816026312398912"><ele>147.0</ele><time>2026-04-08T10:11:42.001Z</time></trkpt><trkpt lat="41.73430409372326" lon="2.816005429618416"><ele>147.0</ele><time>2026-04-08T10:11:43.001Z</time></trkpt><trkpt lat="41.73447220981283" lon="2.81598859530768"><ele>147.0</ele><time>2026-04-08T10:11:44.001Z</time></trkpt><trkpt lat="41.73463622915665" lon="2.815985504109865"><ele>151.33333333333334</ele><time>2026-04-08T10:11:45.001Z</time></trkpt><trkpt lat="41.73480127094714" lon="2.8159955783277826"><ele>155.66666666666669</ele><time>2026-04-08T10:11:46.001Z</time></trkpt><trkpt lat="41.734960975865" lon="2.8160162945761646"><ele>160.0</ele><time>2026-04-08T10:11:47.001Z</time></trkpt><trkpt lat="41.73512228540047" lon="2.816043937104865"><ele>162.33333333333334</ele><time>2026-04-08T10:11:48.001Z</time></trkpt><trkpt lat="41.735285006286176" lon="2.8160831417692544"><ele>164.66666666666666</ele><time>2026-04-08T10:11:49.001Z</time></trkpt><trkpt lat="41.73544496195763" lon="2.816133820445626"><ele>167.0</ele><time>2026-04-08T10:11:50.001Z</time></trkpt><trkpt lat="41.73560214750764" lon="2.816188949198197"><ele>167.0</ele><time>2026-04-08T10:11:51.001Z</time></trkpt><trkpt lat="41.73576460601942" lon="2.8162396329532724"><ele>167.0</ele><time>2026-04-08T10:11:52.001Z</time></trkpt><trkpt lat="41.73591427537288" lon="2.8162988515988037"><ele>167.0</ele><time>2026-04-08T10:11:53.002Z</time></trkpt><trkpt lat="41.7360706892205" lon="2.816358577134649"><ele>168.33333333333331</ele><time>2026-04-08T10:11:54.002Z</time></trkpt><trkpt lat="41.73622403488386" lon="2.81641568426947"><ele>169.66666666666666</ele><time>2026-04-08T10:11:55.002Z</time></trkpt><trkpt lat="41.73637822400033" lon="2.8164675290795893"><ele>171.0</ele><time>2026-04-08T10:11:56.002Z</time></trkpt><trkpt lat="41.736531232051355" lon="2.816527204823044"><ele>171.0</ele><time>2026-04-08T10:11:57.002Z</time></trkpt><trkpt lat="41.73668912865604" lon="2.816583403906863"><ele>171.0</ele><time>2026-04-08T10:11:58.002Z</time></trkpt><trkpt lat="41.73684202094439" lon="2.8166398815158744"><ele>171.0</ele><time>2026-04-08T10:11:59.002Z</time></trkpt><trkpt lat="41.736987485589815" lon="2.8166841608632027"><ele>171.0</ele><time>2026-04-08T10:12:00.002Z</time></trkpt><trkpt lat="41.73713680493206" lon="2.8167106316046406"><ele>171.0</ele><time>2026-04-08T10:12:01.002Z</time></trkpt><trkpt lat="41.73728581894963" lon="2.8167220391248837"><ele>171.0</ele><time>2026-04-08T10:12:02.002Z</time></trkpt><trkpt lat="41.73742274210752" lon="2.81671903834767"><ele>171.0</ele><time>2026-04-08T10:12:03.002Z</time></trkpt><trkpt lat="41.7375586914879" lon="2.816697203222188"><ele>171.0</ele><time>2026-04-08T10:12:04.002Z</time></trkpt><trkpt lat="41.737690263163785" lon="2.816659870321515"><ele>171.0</ele><time>2026-04-08T10:12:05.002Z</time></trkpt><trkpt lat="41.73783089824963" lon="2.8166014291327794"><ele>171.0</ele><time>2026-04-08T10:12:06.002Z</time></trkpt><trkpt lat="41.73794360499744" lon="2.8165367714586673"><ele>171.0</ele><time>2026-04-08T10:12:07.002Z</time></trkpt><trkpt lat="41.7381156988024" lon="2.8164960946364936"><ele>173.66666666666666</ele><time>2026-04-08T10:12:08.002Z</time></trkpt><trkpt lat="41.73828330816021" lon="2.8164063659118956"><ele>176.33333333333331</ele><time>2026-04-08T10:12:09.002Z</time></trkpt><trkpt lat="41.73845911869673" lon="2.8163115372859853"><ele>179.0</ele><time>2026-04-08T10:12:10.002Z</time></trkpt><trkpt lat="41.7386984210154" lon="2.8161567120436426"><ele>180.66666666666666</ele><time>2026-04-08T10:12:11.002Z</time></trkpt><trkpt lat="41.73886741218667" lon="2.816089889671707"><ele>182.33333333333334</ele><time>2026-04-08T10:12:12.002Z</time></trkpt><trkpt lat="41.739027338973656" lon="2.8160141173187836"><ele>184.0</ele><time>2026-04-08T10:12:13.002Z</time></trkpt><trkpt lat="41.739186765492505" lon="2.815938146931853"><ele>184.0</ele><time>2026-04-08T10:12:14.002Z</time></trkpt><trkpt lat="41.73934961925402" lon="2.8158732855300457"><ele>184.0</ele><time>2026-04-08T10:12:15.002Z</time></trkpt><trkpt lat="41.73951843838789" lon="2.815817961335904"><ele>184.0</ele><time>2026-04-08T10:12:16.002Z</time></trkpt><trkpt lat="41.73968875611466" lon="2.815778449788498"><ele>191.0</ele><time>2026-04-08T10:12:17.002Z</time></trkpt><trkpt lat="41.73985243232493" lon="2.8157407604302604"><ele>198.0</ele><time>2026-04-08T10:12:18.002Z</time></trkpt><trkpt lat="41.74001394791571" lon="2.8157215761769128"><ele>205.0</ele><time>2026-04-08T10:12:19.002Z</time></trkpt><trkpt lat="41.74020436465573" lon="2.8157112981524737"><ele>208.33333333333331</ele><time>2026-04-08T10:12:20.002Z</time></trkpt><trkpt lat="41.74038231111644" lon="2.8157099391347544"><ele>211.66666666666669</ele><time>2026-04-08T10:12:21.002Z</time></trkpt><trkpt lat="41.74056407396775" lon="2.815724123945602"><ele>215.0</ele><time>2026-04-08T10:12:22.018Z</time></trkpt><trkpt lat="41.74074554547056" lon="2.8157382860357005"><ele>215.0</ele><time>2026-04-08T10:12:23.022Z</time></trkpt><trkpt lat="41.74091921387691" lon="2.815757480605597"><ele>215.0</ele><time>2026-04-08T10:12:24.025Z</time></trkpt><trkpt lat="41.741095603924705" lon="2.815783064393221"><ele>215.0</ele><time>2026-04-08T10:12:25.02Z</time></trkpt><trkpt lat="41.74127306604186" lon="2.81580880367227"><ele>193.0</ele><time>2026-04-08T10:12:26.02Z</time></trkpt><trkpt lat="41.74201324585987" lon="2.8158938325967786"><ele>193.0</ele><time>2026-04-08T10:12:30.002Z</time></trkpt><trkpt lat="41.74219783889115" lon="2.8159104934279346"><ele>193.0</ele><time>2026-04-08T10:12:31.002Z</time></trkpt><trkpt lat="41.742392298208856" lon="2.815909708383072"><ele>193.0</ele><time>2026-04-08T10:12:32.002Z</time></trkpt><trkpt lat="41.74254779925836" lon="2.815911953343754"><ele>190.66666666666666</ele><time>2026-04-08T10:12:33.002Z</time></trkpt><trkpt lat="41.74273124297845" lon="2.815894516283777"><ele>188.33333333333331</ele><time>2026-04-08T10:12:34.003Z</time></trkpt><trkpt lat="41.74292283514275" lon="2.8158806500359335"><ele>186.0</ele><time>2026-04-08T10:12:35.003Z</time></trkpt><trkpt lat="41.74308497086093" lon="2.8158174606364317"><ele>186.0</ele><time>2026-04-08T10:12:36Z</time></trkpt><trkpt lat="41.74327646521959" lon="2.8157761440548073"><ele>186.0</ele><time>2026-04-08T10:12:37Z</time></trkpt><trkpt lat="41.74347467026244" lon="2.8157622200959485"><ele>186.0</ele><time>2026-04-08T10:12:38Z</time></trkpt><trkpt lat="41.743666098005264" lon="2.815710414887264"><ele>183.0</ele><time>2026-04-08T10:12:39Z</time></trkpt><trkpt lat="41.74386039257417" lon="2.8156984152618243"><ele>180.0</ele><time>2026-04-08T10:12:40Z</time></trkpt><trkpt lat="41.74405291114364" lon="2.8156972073014903"><ele>177.0</ele><time>2026-04-08T10:12:41Z</time></trkpt><trkpt lat="41.74424357347733" lon="2.815700618787986"><ele>175.66666666666666</ele><time>2026-04-08T10:12:42Z</time></trkpt><trkpt lat="41.744433876596474" lon="2.815726791473652"><ele>174.33333333333331</ele><time>2026-04-08T10:12:43Z</time></trkpt><trkpt lat="41.74462720486543" lon="2.8157708781107287"><ele>173.0</ele><time>2026-04-08T10:12:44Z</time></trkpt><trkpt lat="41.74481582147252" lon="2.8158286420609646"><ele>173.0</ele><time>2026-04-08T10:12:45Z</time></trkpt><trkpt lat="41.74500290465452" lon="2.8158951090734505"><ele>173.0</ele><time>2026-04-08T10:12:46Z</time></trkpt><trkpt lat="41.74519321805586" lon="2.815962229021861"><ele>173.0</ele><time>2026-04-08T10:12:47Z</time></trkpt><trkpt lat="41.745388074427254" lon="2.8160257017958905"><ele>169.0</ele><time>2026-04-08T10:12:48Z</time></trkpt><trkpt lat="41.745582449940315" lon="2.8160792530011545"><ele>165.0</ele><time>2026-04-08T10:12:49Z</time></trkpt><trkpt lat="41.74577661952268" lon="2.816127463574132"><ele>161.0</ele><time>2026-04-08T10:12:50Z</time></trkpt><trkpt lat="41.74596513351855" lon="2.8161900138499583"><ele>158.66666666666666</ele><time>2026-04-08T10:12:51Z</time></trkpt><trkpt lat="41.746158777411914" lon="2.8162035240355943"><ele>156.33333333333334</ele><time>2026-04-08T10:12:52Z</time></trkpt><trkpt lat="41.7463450640609" lon="2.8162474556532335"><ele>154.0</ele><time>2026-04-08T10:12:53Z</time></trkpt><trkpt lat="41.74652989155347" lon="2.816246566440434"><ele>154.0</ele><time>2026-04-08T10:12:54Z</time></trkpt><trkpt lat="41.7467101890556" lon="2.8162730156022584"><ele>154.0</ele><time>2026-04-08T10:12:55Z</time></trkpt><trkpt lat="41.746898683376656" lon="2.8162410746577717"><ele>154.0</ele><time>2026-04-08T10:12:56Z</time></trkpt><trkpt lat="41.747096293630115" lon="2.816235118064604"><ele>153.0</ele><time>2026-04-08T10:12:57Z</time></trkpt><trkpt lat="41.7472932260544" lon="2.8161947352417784"><ele>152.0</ele><time>2026-04-08T10:12:58Z</time></trkpt><trkpt lat="41.74748334534568" lon="2.8161159161855966"><ele>151.0</ele><time>2026-04-08T10:12:59Z</time></trkpt><trkpt lat="41.74766559916801" lon="2.816059754111768"><ele>150.66666666666669</ele><time>2026-04-08T10:13:00Z</time></trkpt><trkpt lat="41.74785176921721" lon="2.816015862121109"><ele>150.33333333333334</ele><time>2026-04-08T10:13:01Z</time></trkpt><trkpt lat="41.74803754191093" lon="2.8159491601612197"><ele>150.0</ele><time>2026-04-08T10:13:02.001Z</time></trkpt><trkpt lat="41.748235003382234" lon="2.815898598353807"><ele>150.66666666666666</ele><time>2026-04-08T10:13:03.001Z</time></trkpt><trkpt lat="41.74842649703874" lon="2.8158415297404162"><ele>151.33333333333331</ele><time>2026-04-08T10:13:04.001Z</time></trkpt><trkpt lat="41.748614318990924" lon="2.815786569546164"><ele>152.0</ele><time>2026-04-08T10:13:05.001Z</time></trkpt><trkpt lat="41.74879129261364" lon="2.815716514917256"><ele>148.66666666666666</ele><time>2026-04-08T10:13:06.001Z</time></trkpt><trkpt lat="41.748968553723905" lon="2.8156485509476763"><ele>145.33333333333334</ele><time>2026-04-08T10:13:07.001Z</time></trkpt><trkpt lat="41.749118515487474" lon="2.815539691255324"><ele>142.0</ele><time>2026-04-08T10:13:08.001Z</time></trkpt><trkpt lat="41.74927992992916" lon="2.8154400650576075"><ele>140.66666666666669</ele><time>2026-04-08T10:13:09.001Z</time></trkpt><trkpt lat="41.749427159385114" lon="2.815287605038"><ele>139.33333333333334</ele><time>2026-04-08T10:13:10.001Z</time></trkpt><trkpt lat="41.74955826982158" lon="2.8151142020082256"><ele>138.0</ele><time>2026-04-08T10:13:11.001Z</time></trkpt><trkpt lat="41.749680404409716" lon="2.8149171384138523"><ele>138.0</ele><time>2026-04-08T10:13:12.001Z</time></trkpt><trkpt lat="41.7497829571001" lon="2.8146960440077726"><ele>138.0</ele><time>2026-04-08T10:13:13.001Z</time></trkpt><trkpt lat="41.74986650163178" lon="2.8144611173346674"><ele>138.0</ele><time>2026-04-08T10:13:14.001Z</time></trkpt><trkpt lat="41.74996256377977" lon="2.8142254523715775"><ele>137.33333333333334</ele><time>2026-04-08T10:13:15.001Z</time></trkpt><trkpt lat="41.75004619051633" lon="2.8139717104286976"><ele>136.66666666666669</ele><time>2026-04-08T10:13:16.001Z</time></trkpt><trkpt lat="41.75013079397845" lon="2.813711681217944"><ele>136.0</ele><time>2026-04-08T10:13:17.001Z</time></trkpt><trkpt lat="41.750235988628454" lon="2.8134670154536647"><ele>136.0</ele><time>2026-04-08T10:13:18.001Z</time></trkpt><trkpt lat="41.750324074433884" lon="2.813218877469344"><ele>136.0</ele><time>2026-04-08T10:13:19.001Z</time></trkpt><trkpt lat="41.750410915390844" lon="2.812974246348751"><ele>136.0</ele><time>2026-04-08T10:13:20.001Z</time></trkpt><trkpt lat="41.750494497001455" lon="2.812738796999704"><ele>135.66666666666669</ele><time>2026-04-08T10:13:21.001Z</time></trkpt><trkpt lat="41.75057747456603" lon="2.812504580426666"><ele>135.33333333333334</ele><time>2026-04-08T10:13:22.001Z</time></trkpt><trkpt lat="41.75064290107474" lon="2.8122714844067347"><ele>135.0</ele><time>2026-04-08T10:13:23.001Z</time></trkpt><trkpt lat="41.750717417232735" lon="2.8120612377604197"><ele>135.0</ele><time>2026-04-08T10:13:24.001Z</time></trkpt><trkpt lat="41.75078751955506" lon="2.8118596265968194"><ele>135.0</ele><time>2026-04-08T10:13:25.001Z</time></trkpt><trkpt lat="41.75085661294398" lon="2.811669306044422"><ele>135.0</ele><time>2026-04-08T10:13:26.001Z</time></trkpt><trkpt lat="41.75091897703827" lon="2.811483755066875"><ele>135.0</ele><time>2026-04-08T10:13:27.001Z</time></trkpt><trkpt lat="41.750996385286655" lon="2.811318575759184"><ele>135.0</ele><time>2026-04-08T10:13:28.001Z</time></trkpt><trkpt lat="41.751058762245215" lon="2.811147028755066"><ele>135.0</ele><time>2026-04-08T10:13:29.001Z</time></trkpt><trkpt lat="41.75110684706017" lon="2.810984948912003"><ele>135.0</ele><time>2026-04-08T10:13:30.001Z</time></trkpt><trkpt lat="41.75116830434027" lon="2.8108497435819326"><ele>136.0</ele><time>2026-04-08T10:13:31.001Z</time></trkpt><trkpt lat="41.751228696139826" lon="2.810735475946462"><ele>137.0</ele><time>2026-04-08T10:13:32.001Z</time></trkpt><trkpt lat="41.75128707208806" lon="2.8106474619501975"><ele>138.0</ele><time>2026-04-08T10:13:33.001Z</time></trkpt><trkpt lat="41.75135039434636" lon="2.810556272922308"><ele>139.0</ele><time>2026-04-08T10:13:34.001Z</time></trkpt><trkpt lat="41.75143585269624" lon="2.8104775560570388"><ele>140.0</ele><time>2026-04-08T10:13:35.001Z</time></trkpt><trkpt lat="41.751490224926975" lon="2.8103472100028495"><ele>140.0</ele><time>2026-04-08T10:13:36.001Z</time></trkpt><trkpt lat="41.75148725971756" lon="2.8101773672799317"><ele>140.0</ele><time>2026-04-08T10:13:37.001Z</time></trkpt><trkpt lat="41.75150599363715" lon="2.8100129723323803"><ele>140.0</ele><time>2026-04-08T10:13:38.001Z</time></trkpt><trkpt lat="41.75155762827755" lon="2.8098423778627577"><ele>140.0</ele><time>2026-04-08T10:13:39.001Z</time></trkpt><trkpt lat="41.751649921768255" lon="2.8096773837473523"><ele>139.33333333333331</ele><time>2026-04-08T10:13:40.001Z</time></trkpt><trkpt lat="41.751737197154355" lon="2.8094980274440595"><ele>138.66666666666666</ele><time>2026-04-08T10:13:41.001Z</time></trkpt><trkpt lat="41.751822761895376" lon="2.8093225940511215"><ele>138.0</ele><time>2026-04-08T10:13:42.001Z</time></trkpt><trkpt lat="41.75190716719085" lon="2.8091491774740764"><ele>139.33333333333334</ele><time>2026-04-08T10:13:43.001Z</time></trkpt><trkpt lat="41.75199479352964" lon="2.8089709735514266"><ele>140.66666666666669</ele><time>2026-04-08T10:13:44.001Z</time></trkpt><trkpt lat="41.7520812823447" lon="2.808792925506796"><ele>142.0</ele><time>2026-04-08T10:13:45.001Z</time></trkpt><trkpt lat="41.75216199282483" lon="2.808623655196415"><ele>139.66666666666669</ele><time>2026-04-08T10:13:46.001Z</time></trkpt><trkpt lat="41.75224409979779" lon="2.808450571224023"><ele>137.33333333333334</ele><time>2026-04-08T10:13:47.001Z</time></trkpt><trkpt lat="41.752320702508705" lon="2.8082608349909286"><ele>135.0</ele><time>2026-04-08T10:13:48.002Z</time></trkpt><trkpt lat="41.75241332954033" lon="2.8080750209785186"><ele>135.0</ele><time>2026-04-08T10:13:49.002Z</time></trkpt><trkpt lat="41.75250193462694" lon="2.8078881860020712"><ele>135.0</ele><time>2026-04-08T10:13:50.002Z</time></trkpt><trkpt lat="41.75259288575768" lon="2.807704141972354"><ele>135.0</ele><time>2026-04-08T10:13:51.002Z</time></trkpt><trkpt lat="41.752671972499535" lon="2.8075053565488775"><ele>136.33333333333334</ele><time>2026-04-08T10:13:52.002Z</time></trkpt><trkpt lat="41.75273662028441" lon="2.8072945420913755"><ele>137.66666666666669</ele><time>2026-04-08T10:13:53.002Z</time></trkpt><trkpt lat="41.75279499875136" lon="2.8070750722234514"><ele>139.0</ele><time>2026-04-08T10:13:54.002Z</time></trkpt><trkpt lat="41.752852547278074" lon="2.806845874510685"><ele>138.66666666666669</ele><time>2026-04-08T10:13:55.002Z</time></trkpt><trkpt lat="41.75291050066956" lon="2.806614461208442"><ele>138.33333333333334</ele><time>2026-04-08T10:13:56.002Z</time></trkpt><trkpt lat="41.752971619621874" lon="2.806381899854811"><ele>138.0</ele><time>2026-04-08T10:13:57.002Z</time></trkpt><trkpt lat="41.75303618963854" lon="2.806146290651202"><ele>136.0</ele><time>2026-04-08T10:13:58.002Z</time></trkpt><trkpt lat="41.753098510738546" lon="2.8059063148198984"><ele>134.0</ele><time>2026-04-08T10:13:59.002Z</time></trkpt><trkpt lat="41.75315831356861" lon="2.8056659131250896"><ele>132.0</ele><time>2026-04-08T10:14:00.002Z</time></trkpt><trkpt lat="41.75321841177728" lon="2.8054211439339367"><ele>132.0</ele><time>2026-04-08T10:14:01.002Z</time></trkpt><trkpt lat="41.75329721419143" lon="2.8051841122751195"><ele>132.0</ele><time>2026-04-08T10:14:02.002Z</time></trkpt><trkpt lat="41.75336035288591" lon="2.804938203901875"><ele>132.0</ele><time>2026-04-08T10:14:03.002Z</time></trkpt><trkpt lat="41.75341120593804" lon="2.8046823591864554"><ele>133.0</ele><time>2026-04-08T10:14:04.002Z</time></trkpt><trkpt lat="41.75348980806616" lon="2.8044435640053114"><ele>134.0</ele><time>2026-04-08T10:14:05.002Z</time></trkpt><trkpt lat="41.75355622913987" lon="2.8041993593676136"><ele>135.0</ele><time>2026-04-08T10:14:06.002Z</time></trkpt><trkpt lat="41.75361806012314" lon="2.8039642526232895"><ele>135.0</ele><time>2026-04-08T10:14:07.002Z</time></trkpt><trkpt lat="41.75367288317883" lon="2.803731161782246"><ele>135.0</ele><time>2026-04-08T10:14:08.002Z</time></trkpt><trkpt lat="41.75372009378097" lon="2.8034936889458963"><ele>135.0</ele><time>2026-04-08T10:14:09.002Z</time></trkpt><trkpt lat="41.7537509531632" lon="2.8032616302254425"><ele>134.33333333333334</ele><time>2026-04-08T10:14:10.002Z</time></trkpt><trkpt lat="41.75377391287299" lon="2.8030198022596537"><ele>133.66666666666669</ele><time>2026-04-08T10:14:11.002Z</time></trkpt><trkpt lat="41.75379513511023" lon="2.8027805324449537"><ele>133.0</ele><time>2026-04-08T10:14:12.002Z</time></trkpt><trkpt lat="41.753817810318786" lon="2.802547622324514"><ele>131.66666666666669</ele><time>2026-04-08T10:14:13.002Z</time></trkpt><trkpt lat="41.75386017784456" lon="2.8023278739832644"><ele>130.33333333333334</ele><time>2026-04-08T10:14:14.002Z</time></trkpt><trkpt lat="41.753918343003775" lon="2.8021105156015866"><ele>129.0</ele><time>2026-04-08T10:14:15.002Z</time></trkpt><trkpt lat="41.753988636561" lon="2.8018976983555444"><ele>127.66666666666666</ele><time>2026-04-08T10:14:16.002Z</time></trkpt><trkpt lat="41.75406808040524" lon="2.801685257659624"><ele>126.33333333333333</ele><time>2026-04-08T10:14:17.002Z</time></trkpt><trkpt lat="41.754131966765044" lon="2.8014760233587768"><ele>125.0</ele><time>2026-04-08T10:14:18.002Z</time></trkpt><trkpt lat="41.75421091256951" lon="2.801278040236778"><ele>125.0</ele><time>2026-04-08T10:14:19.002Z</time></trkpt><trkpt lat="41.754292449790626" lon="2.8010729173584394"><ele>125.0</ele><time>2026-04-08T10:14:20.002Z</time></trkpt><trkpt lat="41.75437211126703" lon="2.800871503117892"><ele>125.0</ele><time>2026-04-08T10:14:21.002Z</time></trkpt><trkpt lat="41.75446650119465" lon="2.8006701292245335"><ele>125.0</ele><time>2026-04-08T10:14:22.002Z</time></trkpt><trkpt lat="41.75454366703538" lon="2.800473466450603"><ele>125.0</ele><time>2026-04-08T10:14:23.002Z</time></trkpt><trkpt lat="41.754616514273856" lon="2.8002878099926356"><ele>125.0</ele><time>2026-04-08T10:14:24.002Z</time></trkpt><trkpt lat="41.7546925345062" lon="2.800092294875583"><ele>125.0</ele><time>2026-04-08T10:14:25.002Z</time></trkpt><trkpt lat="41.75477209253599" lon="2.7998811434431197"><ele>125.0</ele><time>2026-04-08T10:14:26.002Z</time></trkpt><trkpt lat="41.75483216661457" lon="2.7996634746606848"><ele>125.0</ele><time>2026-04-08T10:14:27.002Z</time></trkpt><trkpt lat="41.75492145327025" lon="2.799463403134164"><ele>124.0</ele><time>2026-04-08T10:14:28.002Z</time></trkpt><trkpt lat="41.754977330962014" lon="2.799250362689955"><ele>123.0</ele><time>2026-04-08T10:14:29.002Z</time></trkpt><trkpt lat="41.75505014189409" lon="2.79904498368936"><ele>122.0</ele><time>2026-04-08T10:14:30.003Z</time></trkpt><trkpt lat="41.75511658344312" lon="2.798847505006708"><ele>122.0</ele><time>2026-04-08T10:14:31.003Z</time></trkpt><trkpt lat="41.75517802674449" lon="2.7986488368806626"><ele>122.0</ele><time>2026-04-08T10:14:32.003Z</time></trkpt><trkpt lat="41.75523592963497" lon="2.7984542053336323"><ele>122.0</ele><time>2026-04-08T10:14:33.003Z</time></trkpt><trkpt lat="41.75528757977918" lon="2.798251593051204"><ele>124.0</ele><time>2026-04-08T10:14:34.003Z</time></trkpt><trkpt lat="41.755335222419696" lon="2.7980444035606014"><ele>126.0</ele><time>2026-04-08T10:14:35.003Z</time></trkpt><trkpt lat="41.755368142431735" lon="2.7978367948582963"><ele>128.0</ele><time>2026-04-08T10:14:36.003Z</time></trkpt><trkpt lat="41.75538993607498" lon="2.7976305198709555"><ele>128.0</ele><time>2026-04-08T10:14:37.003Z</time></trkpt><trkpt lat="41.7553967414289" lon="2.7974163609399074"><ele>128.0</ele><time>2026-04-08T10:14:38.003Z</time></trkpt><trkpt lat="41.755392270412166" lon="2.797208466010062"><ele>128.0</ele><time>2026-04-08T10:14:39.003Z</time></trkpt><trkpt lat="41.75537170494555" lon="2.7969865488389054"><ele>129.0</ele><time>2026-04-08T10:14:40.003Z</time></trkpt><trkpt lat="41.75533886591705" lon="2.796776516690871"><ele>130.0</ele><time>2026-04-08T10:14:41.003Z</time></trkpt><trkpt lat="41.75529640719301" lon="2.7965657524638936"><ele>131.0</ele><time>2026-04-08T10:14:42.001Z</time></trkpt><trkpt lat="41.755238392507806" lon="2.7963532924982606"><ele>128.0</ele><time>2026-04-08T10:14:43.001Z</time></trkpt><trkpt lat="41.75516729101885" lon="2.7961385048020455"><ele>125.0</ele><time>2026-04-08T10:14:44.001Z</time></trkpt><trkpt lat="41.7550872629134" lon="2.795928542171895"><ele>122.0</ele><time>2026-04-08T10:14:45.001Z</time></trkpt><trkpt lat="41.7550151954202" lon="2.795718200023317"><ele>122.0</ele><time>2026-04-08T10:14:46.001Z</time></trkpt><trkpt lat="41.75494536121107" lon="2.7955076881271026"><ele>122.0</ele><time>2026-04-08T10:14:47.001Z</time></trkpt><trkpt lat="41.754879016004466" lon="2.7952995869494073"><ele>122.0</ele><time>2026-04-08T10:14:48.001Z</time></trkpt><trkpt lat="41.75481700924985" lon="2.795088100787466"><ele>122.33333333333333</ele><time>2026-04-08T10:14:49.001Z</time></trkpt><trkpt lat="41.75476530110133" lon="2.7948772926252814"><ele>122.66666666666666</ele><time>2026-04-08T10:14:50.001Z</time></trkpt><trkpt lat="41.75472504322701" lon="2.794669431975931"><ele>123.0</ele><time>2026-04-08T10:14:51.001Z</time></trkpt><trkpt lat="41.754702477779304" lon="2.794461990226065"><ele>123.66666666666666</ele><time>2026-04-08T10:14:52.001Z</time></trkpt><trkpt lat="41.754687913301225" lon="2.794252652660687"><ele>124.33333333333333</ele><time>2026-04-08T10:14:53.001Z</time></trkpt><trkpt lat="41.75468282209854" lon="2.7940531946670255"><ele>125.0</ele><time>2026-04-08T10:14:54.001Z</time></trkpt><trkpt lat="41.75467014927523" lon="2.793840428836008"><ele>125.0</ele><time>2026-04-08T10:14:55.001Z</time></trkpt><trkpt lat="41.754653476296" lon="2.7936348524562606"><ele>125.0</ele><time>2026-04-08T10:14:56.001Z</time></trkpt><trkpt lat="41.75464002591728" lon="2.793428922732263"><ele>125.0</ele><time>2026-04-08T10:14:57.001Z</time></trkpt><trkpt lat="41.75462954260764" lon="2.7932218391676145"><ele>125.33333333333333</ele><time>2026-04-08T10:14:58.001Z</time></trkpt><trkpt lat="41.754617213107096" lon="2.793019813389368"><ele>125.66666666666666</ele><time>2026-04-08T10:14:59.001Z</time></trkpt><trkpt lat="41.75460533891381" lon="2.7928160537105473"><ele>126.0</ele><time>2026-04-08T10:15:00.001Z</time></trkpt><trkpt lat="41.7545950181031" lon="2.7926163947732476"><ele>126.0</ele><time>2026-04-08T10:15:01.001Z</time></trkpt><trkpt lat="41.75459034372696" lon="2.792424951558589"><ele>126.0</ele><time>2026-04-08T10:15:02.001Z</time></trkpt><trkpt lat="41.75459120855498" lon="2.7922365131823113"><ele>126.0</ele><time>2026-04-08T10:15:03.001Z</time></trkpt><trkpt lat="41.75460298768627" lon="2.7920537631941174"><ele>126.0</ele><time>2026-04-08T10:15:04.001Z</time></trkpt><trkpt lat="41.75462189662614" lon="2.791882519882032"><ele>126.0</ele><time>2026-04-08T10:15:05.001Z</time></trkpt><trkpt lat="41.75464283613739" lon="2.7917250130802276"><ele>126.0</ele><time>2026-04-08T10:15:06.001Z</time></trkpt><trkpt lat="41.754664914834194" lon="2.791581141555142"><ele>126.0</ele><time>2026-04-08T10:15:07.001Z</time></trkpt><trkpt lat="41.75468819793758" lon="2.791443261746335"><ele>126.0</ele><time>2026-04-08T10:15:08.001Z</time></trkpt><trkpt lat="41.75471100404798" lon="2.791312014047697"><ele>126.0</ele><time>2026-04-08T10:15:09.001Z</time></trkpt><trkpt lat="41.75473196483379" lon="2.7911785877308515"><ele>126.0</ele><time>2026-04-08T10:15:10.001Z</time></trkpt><trkpt lat="41.75475234817021" lon="2.7910503994027573"><ele>126.0</ele><time>2026-04-08T10:15:11.001Z</time></trkpt><trkpt lat="41.75477926400126" lon="2.790933264403591"><ele>126.0</ele><time>2026-04-08T10:15:12.001Z</time></trkpt><trkpt lat="41.75481184197781" lon="2.7908143256957447"><ele>126.0</ele><time>2026-04-08T10:15:13.001Z</time></trkpt><trkpt lat="41.754845268777174" lon="2.790692420301346"><ele>126.0</ele><time>2026-04-08T10:15:14.001Z</time></trkpt><trkpt lat="41.7548771928224" lon="2.7905774445041955"><ele>125.19999999999999</ele><time>2026-04-08T10:15:15.001Z</time></trkpt><trkpt lat="41.7549211313308" lon="2.79047745236955"><ele>124.39999999999999</ele><time>2026-04-08T10:15:16.001Z</time></trkpt><trkpt lat="41.75497590119845" lon="2.7903903848641987"><ele>123.6</ele><time>2026-04-08T10:15:17.001Z</time></trkpt><trkpt lat="41.75500023229908" lon="2.7902702045646453"><ele>122.8</ele><time>2026-04-08T10:15:18.001Z</time></trkpt><trkpt lat="41.754997006376556" lon="2.7901368820807724"><ele>122.0</ele><time>2026-04-08T10:15:19.001Z</time></trkpt><trkpt lat="41.75497189502153" lon="2.7899999534844637"><ele>120.6</ele><time>2026-04-08T10:15:20.001Z</time></trkpt><trkpt lat="41.754957962120564" lon="2.789877914316457"><ele>119.19999999999999</ele><time>2026-04-08T10:15:21.001Z</time></trkpt><trkpt lat="41.7549651933284" lon="2.7897550526881045"><ele>117.8</ele><time>2026-04-08T10:15:22.001Z</time></trkpt><trkpt lat="41.754980348153296" lon="2.789634625480595"><ele>116.4</ele><time>2026-04-08T10:15:23.001Z</time></trkpt><trkpt lat="41.75499604174916" lon="2.7895203825455144"><ele>115.0</ele><time>2026-04-08T10:15:24.001Z</time></trkpt><trkpt lat="41.755013493496016" lon="2.789394258074987"><ele>114.6</ele><time>2026-04-08T10:15:25.001Z</time></trkpt><trkpt lat="41.755036294712504" lon="2.789260955895762"><ele>114.2</ele><time>2026-04-08T10:15:26.001Z</time></trkpt><trkpt lat="41.75505668452419" lon="2.7891282944701707"><ele>113.80000000000001</ele><time>2026-04-08T10:15:27.001Z</time></trkpt><trkpt lat="41.7550784032803" lon="2.7889897945855164"><ele>113.4</ele><time>2026-04-08T10:15:28.001Z</time></trkpt><trkpt lat="41.755098566122996" lon="2.788832887027054"><ele>113.0</ele><time>2026-04-08T10:15:29.001Z</time></trkpt><trkpt lat="41.75512406353957" lon="2.7886576963859406"><ele>113.0</ele><time>2026-04-08T10:15:30.001Z</time></trkpt><trkpt lat="41.75515200402007" lon="2.788483427509481"><ele>113.0</ele><time>2026-04-08T10:15:31.001Z</time></trkpt><trkpt lat="41.75518037734813" lon="2.7883098133356348"><ele>113.0</ele><time>2026-04-08T10:15:32.001Z</time></trkpt><trkpt lat="41.7552074712957" lon="2.7881361953188826"><ele>113.0</ele><time>2026-04-08T10:15:33.001Z</time></trkpt><trkpt lat="41.75523662381153" lon="2.7879609784469133"><ele>114.0</ele><time>2026-04-08T10:15:34.001Z</time></trkpt><trkpt lat="41.75526370428913" lon="2.7877838638385506"><ele>115.0</ele><time>2026-04-08T10:15:35.001Z</time></trkpt><trkpt lat="41.75529413771119" lon="2.7876061921376514"><ele>116.0</ele><time>2026-04-08T10:15:36.001Z</time></trkpt><trkpt lat="41.755323149968895" lon="2.787425111161649"><ele>117.0</ele><time>2026-04-08T10:15:37.001Z</time></trkpt><trkpt lat="41.755352288256326" lon="2.7872430013838323"><ele>117.0</ele><time>2026-04-08T10:15:38.001Z</time></trkpt><trkpt lat="41.7553826325225" lon="2.7870602411953627"><ele>117.0</ele><time>2026-04-08T10:15:39.001Z</time></trkpt><trkpt lat="41.755411083852245" lon="2.7868588373196044"><ele>117.0</ele><time>2026-04-08T10:15:40.001Z</time></trkpt><trkpt lat="41.75544305602993" lon="2.7866577223810873"><ele>117.0</ele><time>2026-04-08T10:15:41.001Z</time></trkpt><trkpt lat="41.75547783060093" lon="2.7864507002749495"><ele>117.0</ele><time>2026-04-08T10:15:42.001Z</time></trkpt><trkpt lat="41.75551080609528" lon="2.78624982303907"><ele>117.0</ele><time>2026-04-08T10:15:43.001Z</time></trkpt><trkpt lat="41.75554590398267" lon="2.7860588396425685"><ele>117.0</ele><time>2026-04-08T10:15:44.001Z</time></trkpt><trkpt lat="41.75558749539615" lon="2.7858817744552655"><ele>117.0</ele><time>2026-04-08T10:15:45.001Z</time></trkpt><trkpt lat="41.755648221743364" lon="2.7857092379165334"><ele>116.25</ele><time>2026-04-08T10:15:46.001Z</time></trkpt><trkpt lat="41.755723242989596" lon="2.7855509190380388"><ele>115.5</ele><time>2026-04-08T10:15:47.001Z</time></trkpt><trkpt lat="41.75580734423567" lon="2.7854079544928543"><ele>114.75</ele><time>2026-04-08T10:15:48.001Z</time></trkpt><trkpt lat="41.755900770975806" lon="2.785284018196617"><ele>114.0</ele><time>2026-04-08T10:15:49.001Z</time></trkpt><trkpt lat="41.75600348242791" lon="2.7851762622080862"><ele>113.25</ele><time>2026-04-08T10:15:50.002Z</time></trkpt><trkpt lat="41.7561143791968" lon="2.785081702204472"><ele>112.5</ele><time>2026-04-08T10:15:51.002Z</time></trkpt><trkpt lat="41.75623654067047" lon="2.7850092774990634"><ele>111.75</ele><time>2026-04-08T10:15:52.002Z</time></trkpt><trkpt lat="41.756366509314006" lon="2.784953358697361"><ele>111.0</ele><time>2026-04-08T10:15:53.002Z</time></trkpt><trkpt lat="41.75649776140812" lon="2.784913256712485"><ele>111.0</ele><time>2026-04-08T10:15:54.002Z</time></trkpt><trkpt lat="41.75663296825941" lon="2.784896555515743"><ele>111.0</ele><time>2026-04-08T10:15:55.002Z</time></trkpt><trkpt lat="41.75676951707704" lon="2.7849076585463375"><ele>111.0</ele><time>2026-04-08T10:15:56.002Z</time></trkpt><trkpt lat="41.75690865825921" lon="2.784941963040971"><ele>111.0</ele><time>2026-04-08T10:15:57.002Z</time></trkpt><trkpt lat="41.75704952880894" lon="2.784997119377385"><ele>111.33333333333334</ele><time>2026-04-08T10:15:58.002Z</time></trkpt><trkpt lat="41.75719216515533" lon="2.785074638434923"><ele>111.66666666666667</ele><time>2026-04-08T10:15:59.002Z</time></trkpt><trkpt lat="41.757331272044524" lon="2.7851682558984745"><ele>112.0</ele><time>2026-04-08T10:16:00.002Z</time></trkpt><trkpt lat="41.75746837779613" lon="2.7852648534513653"><ele>112.0</ele><time>2026-04-08T10:16:01.002Z</time></trkpt><trkpt lat="41.75760700378181" lon="2.7853515709636754"><ele>112.0</ele><time>2026-04-08T10:16:02.002Z</time></trkpt><trkpt lat="41.757749864788366" lon="2.7854216197103105"><ele>112.0</ele><time>2026-04-08T10:16:03.002Z</time></trkpt><trkpt lat="41.75789439414221" lon="2.785476817927095"><ele>111.0</ele><time>2026-04-08T10:16:04.002Z</time></trkpt><trkpt lat="41.75803993865278" lon="2.7855052931901585"><ele>110.0</ele><time>2026-04-08T10:16:05.002Z</time></trkpt><trkpt lat="41.758182284484135" lon="2.7855060666727094"><ele>109.0</ele><time>2026-04-08T10:16:06.002Z</time></trkpt><trkpt lat="41.75831120396378" lon="2.7854785496426016"><ele>108.0</ele><time>2026-04-08T10:16:07.002Z</time></trkpt><trkpt lat="41.75843690132883" lon="2.7854303209455775"><ele>107.0</ele><time>2026-04-08T10:16:08.002Z</time></trkpt><trkpt lat="41.75856199306899" lon="2.7853653050998037"><ele>106.0</ele><time>2026-04-08T10:16:09.002Z</time></trkpt><trkpt lat="41.7586820770492" lon="2.785286207487068"><ele>105.0</ele><time>2026-04-08T10:16:10.002Z</time></trkpt><trkpt lat="41.75879765022084" lon="2.7851816031613588"><ele>104.0</ele><time>2026-04-08T10:16:11.002Z</time></trkpt><trkpt lat="41.758910303374094" lon="2.7850664877929803"><ele>103.75</ele><time>2026-04-08T10:16:12.002Z</time></trkpt><trkpt lat="41.759020651461626" lon="2.784944242238729"><ele>103.5</ele><time>2026-04-08T10:16:13.002Z</time></trkpt><trkpt lat="41.75913006654817" lon="2.7848190890489324"><ele>103.25</ele><time>2026-04-08T10:16:14.002Z</time></trkpt><trkpt lat="41.75924075534156" lon="2.78469262407908"><ele>103.0</ele><time>2026-04-08T10:16:15.002Z</time></trkpt><trkpt lat="41.75934243325107" lon="2.7845601180609916"><ele>103.75</ele><time>2026-04-08T10:16:16.002Z</time></trkpt><trkpt lat="41.75942935876049" lon="2.78441930317859"><ele>104.5</ele><time>2026-04-08T10:16:17.002Z</time></trkpt><trkpt lat="41.759500900133304" lon="2.7842779341284665"><ele>105.25</ele><time>2026-04-08T10:16:18.002Z</time></trkpt><trkpt lat="41.75956464521537" lon="2.7841368125217696"><ele>106.0</ele><time>2026-04-08T10:16:19.002Z</time></trkpt><trkpt lat="41.759619385914434" lon="2.783991419018546"><ele>106.0</ele><time>2026-04-08T10:16:20.002Z</time></trkpt><trkpt lat="41.75966458996134" lon="2.78384264815152"><ele>106.0</ele><time>2026-04-08T10:16:21.002Z</time></trkpt><trkpt lat="41.7597052898542" lon="2.783705346469899"><ele>106.0</ele><time>2026-04-08T10:16:22.002Z</time></trkpt><trkpt lat="41.75975673138325" lon="2.783578087534848"><ele>106.0</ele><time>2026-04-08T10:16:23.002Z</time></trkpt><trkpt lat="41.75977748217396" lon="2.783445552407"><ele>106.0</ele><time>2026-04-08T10:16:24.002Z</time></trkpt><trkpt lat="41.75980954949245" lon="2.7833235272836467"><ele>105.83333333333334</ele><time>2026-04-08T10:16:25.002Z</time></trkpt><trkpt lat="41.759837228684106" lon="2.7832054482355866"><ele>105.66666666666667</ele><time>2026-04-08T10:16:26.002Z</time></trkpt><trkpt lat="41.759860979964905" lon="2.78310325694944"><ele>105.5</ele><time>2026-04-08T10:16:27.002Z</time></trkpt><trkpt lat="41.759882530389625" lon="2.783019592948844"><ele>105.33333333333334</ele><time>2026-04-08T10:16:28.002Z</time></trkpt><trkpt lat="41.75991843576912" lon="2.7829003873432683"><ele>105.16666666666667</ele><time>2026-04-08T10:16:30.002Z</time></trkpt><trkpt lat="41.759934639719106" lon="2.7828171720500436"><ele>105.0</ele><time>2026-04-08T10:16:32.002Z</time></trkpt><trkpt lat="41.7599618470619" lon="2.7827077984037287"><ele>104.8</ele><time>2026-04-08T10:16:35.002Z</time></trkpt><trkpt lat="41.75999752508357" lon="2.782614725480612"><ele>104.6</ele><time>2026-04-08T10:16:37.002Z</time></trkpt><trkpt lat="41.76003558184623" lon="2.78249414266917"><ele>104.4</ele><time>2026-04-08T10:16:39.003Z</time></trkpt><trkpt lat="41.76008062004297" lon="2.7823666547736696"><ele>104.2</ele><time>2026-04-08T10:16:41.003Z</time></trkpt><trkpt lat="41.760159276521314" lon="2.782227728083991"><ele>104.0</ele><time>2026-04-08T10:16:43.003Z</time></trkpt><trkpt lat="41.7602096007796" lon="2.7821385558226344"><ele>104.49999999999999</ele><time>2026-04-08T10:16:44.003Z</time></trkpt><trkpt lat="41.760251175624816" lon="2.782041662466477"><ele>105.0</ele><time>2026-04-08T10:16:45.003Z</time></trkpt><trkpt lat="41.760280361424016" lon="2.78194308422568"><ele>105.5</ele><time>2026-04-08T10:16:46.003Z</time></trkpt><trkpt lat="41.760322627660834" lon="2.7818519511664923"><ele>106.0</ele><time>2026-04-08T10:16:47.003Z</time></trkpt><trkpt lat="41.760387487235946" lon="2.78176977696124"><ele>106.49999999999999</ele><time>2026-04-08T10:16:48Z</time></trkpt><trkpt lat="41.760469207496854" lon="2.7816973065784087"><ele>107.0</ele><time>2026-04-08T10:16:49Z</time></trkpt><trkpt lat="41.76057518456959" lon="2.78163506016298"><ele>107.0</ele><time>2026-04-08T10:16:50Z</time></trkpt><trkpt lat="41.7606929516753" lon="2.7815953549114796"><ele>107.0</ele><time>2026-04-08T10:16:51Z</time></trkpt><trkpt lat="41.760812103956134" lon="2.781570553280589"><ele>107.0</ele><time>2026-04-08T10:16:52Z</time></trkpt><trkpt lat="41.76093540914373" lon="2.7815622343187196"><ele>107.0</ele><time>2026-04-08T10:16:53Z</time></trkpt><trkpt lat="41.76105965761205" lon="2.7815783308172866"><ele>107.0</ele><time>2026-04-08T10:16:54Z</time></trkpt><trkpt lat="41.76118625502081" lon="2.781608757491983"><ele>107.0</ele><time>2026-04-08T10:16:55Z</time></trkpt><trkpt lat="41.76131460470362" lon="2.781659501604033"><ele>107.0</ele><time>2026-04-08T10:16:56Z</time></trkpt><trkpt lat="41.76144302338431" lon="2.781723672562511"><ele>107.0</ele><time>2026-04-08T10:16:57Z</time></trkpt><trkpt lat="41.76156917489588" lon="2.781809935126259"><ele>108.0</ele><time>2026-04-08T10:16:58Z</time></trkpt><trkpt lat="41.76169480098362" lon="2.7819123651404736"><ele>109.0</ele><time>2026-04-08T10:16:59Z</time></trkpt><trkpt lat="41.76183416964715" lon="2.782016061175367"><ele>110.0</ele><time>2026-04-08T10:17:00Z</time></trkpt><trkpt lat="41.76197702357451" lon="2.782122246213139"><ele>110.0</ele><time>2026-04-08T10:17:01Z</time></trkpt><trkpt lat="41.76212181124766" lon="2.7822126119837605"><ele>110.0</ele><time>2026-04-08T10:17:02Z</time></trkpt><trkpt lat="41.76227237277056" lon="2.78229508289547"><ele>110.0</ele><time>2026-04-08T10:17:03Z</time></trkpt><trkpt lat="41.76242491788951" lon="2.7823540418781674"><ele>110.0</ele><time>2026-04-08T10:17:04Z</time></trkpt><trkpt lat="41.76258179156332" lon="2.7823929589585097"><ele>110.0</ele><time>2026-04-08T10:17:05Z</time></trkpt><trkpt lat="41.76274101527296" lon="2.7824019561973357"><ele>110.0</ele><time>2026-04-08T10:17:06Z</time></trkpt><trkpt lat="41.76290500100394" lon="2.782391415553103"><ele>108.66666666666666</ele><time>2026-04-08T10:17:07Z</time></trkpt><trkpt lat="41.76306982326807" lon="2.782351176042663"><ele>107.33333333333334</ele><time>2026-04-08T10:17:08Z</time></trkpt><trkpt lat="41.76322856921597" lon="2.782288097417782"><ele>106.0</ele><time>2026-04-08T10:17:09Z</time></trkpt><trkpt lat="41.76338299076499" lon="2.782209301675235"><ele>106.66666666666667</ele><time>2026-04-08T10:17:10Z</time></trkpt><trkpt lat="41.763536376160246" lon="2.7821135930436838"><ele>107.33333333333334</ele><time>2026-04-08T10:17:11Z</time></trkpt><trkpt lat="41.76368577365008" lon="2.782013413004003"><ele>108.0</ele><time>2026-04-08T10:17:12Z</time></trkpt><trkpt lat="41.76383050718779" lon="2.7819162142304017"><ele>106.33333333333334</ele><time>2026-04-08T10:17:13Z</time></trkpt><trkpt lat="41.76397632197682" lon="2.7818179914403176"><ele>104.66666666666667</ele><time>2026-04-08T10:17:14Z</time></trkpt><trkpt lat="41.7641220123571" lon="2.7817253561170796"><ele>103.0</ele><time>2026-04-08T10:17:15Z</time></trkpt><trkpt lat="41.76426339535202" lon="2.781633605201627"><ele>102.75</ele><time>2026-04-08T10:17:16Z</time></trkpt><trkpt lat="41.764396622692495" lon="2.781542098272785"><ele>102.5</ele><time>2026-04-08T10:17:17Z</time></trkpt><trkpt lat="41.764528434676095" lon="2.7814549575713277"><ele>102.25</ele><time>2026-04-08T10:17:18.001Z</time></trkpt><trkpt lat="41.76466204999966" lon="2.7813663125793826"><ele>102.0</ele><time>2026-04-08T10:17:19.001Z</time></trkpt><trkpt lat="41.76479880270054" lon="2.78128385896016"><ele>102.0</ele><time>2026-04-08T10:17:20.001Z</time></trkpt><trkpt lat="41.764941084337686" lon="2.781219882478637"><ele>102.0</ele><time>2026-04-08T10:17:21.001Z</time></trkpt><trkpt lat="41.76508563537227" lon="2.7811701946979355"><ele>102.0</ele><time>2026-04-08T10:17:22.001Z</time></trkpt><trkpt lat="41.76523017276124" lon="2.781137493199094"><ele>102.0</ele><time>2026-04-08T10:17:23.001Z</time></trkpt><trkpt lat="41.76536880421527" lon="2.781111247921259"><ele>102.75</ele><time>2026-04-08T10:17:24.001Z</time></trkpt><trkpt lat="41.76550076595335" lon="2.781089325663218"><ele>103.5</ele><time>2026-04-08T10:17:25.001Z</time></trkpt><trkpt lat="41.76562818103804" lon="2.7810681970772504"><ele>104.25</ele><time>2026-04-08T10:17:26.001Z</time></trkpt><trkpt lat="41.76574983447989" lon="2.781043946375731"><ele>105.0</ele><time>2026-04-08T10:17:27.001Z</time></trkpt><trkpt lat="41.76587643551868" lon="2.781025936840421"><ele>103.0</ele><time>2026-04-08T10:17:28.001Z</time></trkpt><trkpt lat="41.76600318196053" lon="2.7810126382822546"><ele>101.0</ele><time>2026-04-08T10:17:29.001Z</time></trkpt><trkpt lat="41.76612840650749" lon="2.7809943322599926"><ele>99.0</ele><time>2026-04-08T10:17:30.001Z</time></trkpt><trkpt lat="41.76625407922245" lon="2.780976623844703"><ele>97.0</ele><time>2026-04-08T10:17:31.001Z</time></trkpt><trkpt lat="41.766373212982295" lon="2.7809499047177217"><ele>96.25</ele><time>2026-04-08T10:17:32.001Z</time></trkpt><trkpt lat="41.76648296461837" lon="2.780927280700644"><ele>95.5</ele><time>2026-04-08T10:17:33.001Z</time></trkpt><trkpt lat="41.76658022135039" lon="2.780923752739564"><ele>94.75</ele><time>2026-04-08T10:17:34.001Z</time></trkpt><trkpt lat="41.76664890347259" lon="2.780913900438741"><ele>94.0</ele><time>2026-04-08T10:17:35.001Z</time></trkpt><trkpt lat="41.76656947098273" lon="2.780664114743168"><ele>94.0</ele><time>2026-04-08T10:17:40.001Z</time></trkpt><trkpt lat="41.76654062011089" lon="2.7805847420043546"><ele>94.0</ele><time>2026-04-08T10:17:41.001Z</time></trkpt><trkpt lat="41.76646579885032" lon="2.780660469678219"><ele>94.0</ele><time>2026-04-08T10:17:42.001Z</time></trkpt><trkpt lat="41.766415754496386" lon="2.7805742364797474"><ele>94.0</ele><time>2026-04-08T10:17:44.001Z</time></trkpt><trkpt lat="41.76634960397021" lon="2.78054509652538"><ele>94.0</ele><time>2026-04-08T10:19:34.001Z</time></trkpt><trkpt lat="41.76629638478974" lon="2.7804771135088115"><ele>94.0</ele><time>2026-04-08T10:19:36.001Z</time></trkpt><trkpt lat="41.7660869966411" lon="2.7807169089247137"><ele>94.75</ele><time>2026-04-08T10:20:05.002Z</time></trkpt><trkpt lat="41.765955351684376" lon="2.780702138070161"><ele>95.5</ele><time>2026-04-08T10:20:06.002Z</time></trkpt><trkpt lat="41.76587937946039" lon="2.7808166643065286"><ele>96.25</ele><time>2026-04-08T10:20:07.002Z</time></trkpt><trkpt lat="41.76585290549941" lon="2.780902195561679"><ele>97.0</ele><time>2026-04-08T10:20:11.002Z</time></trkpt><trkpt lat="41.76599080587734" lon="2.7810241761948746"><ele>96.39999999999999</ele><time>2026-04-08T10:20:12.002Z</time></trkpt><trkpt lat="41.76606858076165" lon="2.7810325444493165"><ele>95.8</ele><time>2026-04-08T10:20:13.002Z</time></trkpt><trkpt lat="41.76617458337537" lon="2.781023294668364"><ele>95.2</ele><time>2026-04-08T10:20:14.002Z</time></trkpt><trkpt lat="41.76627754399971" lon="2.7810000368765477"><ele>94.6</ele><time>2026-04-08T10:20:15.002Z</time></trkpt><trkpt lat="41.766413324459855" lon="2.7809731409439307"><ele>94.0</ele><time>2026-04-08T10:20:16.002Z</time></trkpt><trkpt lat="41.76657302748738" lon="2.7809473434796423"><ele>94.0</ele><time>2026-04-08T10:20:17.002Z</time></trkpt><trkpt lat="41.766738382661224" lon="2.780923967814493"><ele>94.0</ele><time>2026-04-08T10:20:18.002Z</time></trkpt><trkpt lat="41.766919847679326" lon="2.780896442907847"><ele>94.0</ele><time>2026-04-08T10:20:19.002Z</time></trkpt><trkpt lat="41.76714353776582" lon="2.7808643677801146"><ele>95.5</ele><time>2026-04-08T10:20:20.002Z</time></trkpt><trkpt lat="41.767363684362756" lon="2.7808299365339924"><ele>97.0</ele><time>2026-04-08T10:20:21.002Z</time></trkpt><trkpt lat="41.76759049316841" lon="2.78079276661897"><ele>95.5</ele><time>2026-04-08T10:20:22.002Z</time></trkpt><trkpt lat="41.76784644917583" lon="2.7807574916535573"><ele>94.0</ele><time>2026-04-08T10:20:23.002Z</time></trkpt><trkpt lat="41.76810911809931" lon="2.7807210633310038"><ele>94.0</ele><time>2026-04-08T10:20:24.002Z</time></trkpt><trkpt lat="41.76835976820485" lon="2.7806814114047453"><ele>94.0</ele><time>2026-04-08T10:20:25.002Z</time></trkpt><trkpt lat="41.768613602297485" lon="2.780643438001232"><ele>94.0</ele><time>2026-04-08T10:20:26.002Z</time></trkpt><trkpt lat="41.768875074397116" lon="2.780606711596681"><ele>94.0</ele><time>2026-04-08T10:20:27.002Z</time></trkpt><trkpt lat="41.76912903422446" lon="2.7805680718850296"><ele>92.5</ele><time>2026-04-08T10:20:28.002Z</time></trkpt><trkpt lat="41.76938382385884" lon="2.780530808450234"><ele>91.0</ele><time>2026-04-08T10:20:29.002Z</time></trkpt><trkpt lat="41.76963582442868" lon="2.780491948287976"><ele>91.0</ele><time>2026-04-08T10:20:30.002Z</time></trkpt><trkpt lat="41.769888413809284" lon="2.7804559669374727"><ele>91.0</ele><time>2026-04-08T10:20:31.002Z</time></trkpt><trkpt lat="41.77013519926311" lon="2.7804131436323707"><ele>90.0</ele><time>2026-04-08T10:20:32.002Z</time></trkpt><trkpt lat="41.77038430604486" lon="2.780370207422876"><ele>89.0</ele><time>2026-04-08T10:20:33.002Z</time></trkpt><trkpt lat="41.770631545926825" lon="2.7803315804096695"><ele>89.0</ele><time>2026-04-08T10:20:34.002Z</time></trkpt><trkpt lat="41.770874479037275" lon="2.780297852256613"><ele>89.0</ele><time>2026-04-08T10:20:35.002Z</time></trkpt><trkpt lat="41.77110423464466" lon="2.780266333191719"><ele>90.33333333333334</ele><time>2026-04-08T10:20:36.002Z</time></trkpt><trkpt lat="41.771326156615416" lon="2.7802322831545494"><ele>91.66666666666667</ele><time>2026-04-08T10:20:37.002Z</time></trkpt><trkpt lat="41.77153519211054" lon="2.7801935530211765"><ele>93.0</ele><time>2026-04-08T10:20:38.002Z</time></trkpt><trkpt lat="41.771733150001005" lon="2.780154865986815"><ele>93.66666666666667</ele><time>2026-04-08T10:20:39.002Z</time></trkpt><trkpt lat="41.771902199827124" lon="2.780093605151192"><ele>94.33333333333334</ele><time>2026-04-08T10:20:40.002Z</time></trkpt><trkpt lat="41.772080726191156" lon="2.779994018939199"><ele>95.0</ele><time>2026-04-08T10:20:41.002Z</time></trkpt><trkpt lat="41.77224526512605" lon="2.779848638103825"><ele>95.0</ele><time>2026-04-08T10:20:42.002Z</time></trkpt><trkpt lat="41.77239902112381" lon="2.779683686937548"><ele>95.0</ele><time>2026-04-08T10:20:43.002Z</time></trkpt><trkpt lat="41.77254920763659" lon="2.779482972855834"><ele>95.0</ele><time>2026-04-08T10:20:44.002Z</time></trkpt><trkpt lat="41.772681054312415" lon="2.779265381592784"><ele>95.0</ele><time>2026-04-08T10:20:45.002Z</time></trkpt><trkpt lat="41.77282739372097" lon="2.7790860896228144"><ele>95.0</ele><time>2026-04-08T10:20:46.002Z</time></trkpt><trkpt lat="41.77294709781795" lon="2.7789297923009446"><ele>95.0</ele><time>2026-04-08T10:20:47.002Z</time></trkpt><trkpt lat="41.77306957375208" lon="2.778763660576553"><ele>95.0</ele><time>2026-04-08T10:20:48.002Z</time></trkpt><trkpt lat="41.77321735308698" lon="2.7786386881292287"><ele>95.0</ele><time>2026-04-08T10:20:49.002Z</time></trkpt><trkpt lat="41.7733607271286" lon="2.778535444669757"><ele>95.0</ele><time>2026-04-08T10:20:50.002Z</time></trkpt><trkpt lat="41.7735063248276" lon="2.7784526331754686"><ele>93.66666666666667</ele><time>2026-04-08T10:20:51.002Z</time></trkpt><trkpt lat="41.77365682484916" lon="2.7783994515864148"><ele>92.33333333333333</ele><time>2026-04-08T10:20:52.002Z</time></trkpt><trkpt lat="41.77381751726601" lon="2.7783506640943534"><ele>91.0</ele><time>2026-04-08T10:20:53.002Z</time></trkpt><trkpt lat="41.773983592848815" lon="2.778312019065845"><ele>91.0</ele><time>2026-04-08T10:20:54.002Z</time></trkpt><trkpt lat="41.77415205565176" lon="2.7782826723599174"><ele>91.0</ele><time>2026-04-08T10:20:55.002Z</time></trkpt><trkpt lat="41.77432532254805" lon="2.778259164810297"><ele>91.0</ele><time>2026-04-08T10:20:56.002Z</time></trkpt><trkpt lat="41.77449785912456" lon="2.778237347338376"><ele>91.0</ele><time>2026-04-08T10:20:57.002Z</time></trkpt><trkpt lat="41.77466201494288" lon="2.7782082034633335"><ele>91.0</ele><time>2026-04-08T10:20:58.002Z</time></trkpt><trkpt lat="41.77481537290868" lon="2.7781776988090554"><ele>91.0</ele><time>2026-04-08T10:20:59.002Z</time></trkpt><trkpt lat="41.77496332419403" lon="2.778151665161705"><ele>91.0</ele><time>2026-04-08T10:21:00.002Z</time></trkpt><trkpt lat="41.7751106498582" lon="2.7781276477666847"><ele>91.0</ele><time>2026-04-08T10:21:01.002Z</time></trkpt><trkpt lat="41.77525985399632" lon="2.778101703577607"><ele>91.0</ele><time>2026-04-08T10:21:02.002Z</time></trkpt><trkpt lat="41.77540554114215" lon="2.7780732942331"><ele>91.0</ele><time>2026-04-08T10:21:03.002Z</time></trkpt><trkpt lat="41.77555448234737" lon="2.778041960145196"><ele>90.33333333333333</ele><time>2026-04-08T10:21:04.001Z</time></trkpt><trkpt lat="41.775706172471665" lon="2.7780139586927404"><ele>89.66666666666667</ele><time>2026-04-08T10:21:05.001Z</time></trkpt><trkpt lat="41.77586325116659" lon="2.7779838293371304"><ele>89.0</ele><time>2026-04-08T10:21:06.001Z</time></trkpt><trkpt lat="41.77601714014437" lon="2.7779522932637755"><ele>88.33333333333334</ele><time>2026-04-08T10:21:07.001Z</time></trkpt><trkpt lat="41.776172311068976" lon="2.777922517672593"><ele>87.66666666666667</ele><time>2026-04-08T10:21:08.001Z</time></trkpt><trkpt lat="41.77633122741282" lon="2.7778929425236756"><ele>87.0</ele><time>2026-04-08T10:21:09.001Z</time></trkpt><trkpt lat="41.77649447092782" lon="2.7778625282639737"><ele>87.0</ele><time>2026-04-08T10:21:10.001Z</time></trkpt><trkpt lat="41.776656277911684" lon="2.777832422496908"><ele>87.0</ele><time>2026-04-08T10:21:11.001Z</time></trkpt><trkpt lat="41.776815345756646" lon="2.7778009212457855"><ele>87.0</ele><time>2026-04-08T10:21:12.001Z</time></trkpt><trkpt lat="41.77697488960304" lon="2.7777726147559187"><ele>87.0</ele><time>2026-04-08T10:21:13.001Z</time></trkpt><trkpt lat="41.77712914992164" lon="2.777744157835973"><ele>87.0</ele><time>2026-04-08T10:21:14.001Z</time></trkpt><trkpt lat="41.77727391673088" lon="2.777717649027732"><ele>87.0</ele><time>2026-04-08T10:21:15.001Z</time></trkpt><trkpt lat="41.77742049561058" lon="2.7776896871577406"><ele>87.0</ele><time>2026-04-08T10:21:16.001Z</time></trkpt><trkpt lat="41.77756911560018" lon="2.7776576766191674"><ele>87.0</ele><time>2026-04-08T10:21:17.001Z</time></trkpt><trkpt lat="41.777721560660964" lon="2.7776364512982474"><ele>87.0</ele><time>2026-04-08T10:21:18.001Z</time></trkpt><trkpt lat="41.77787693495883" lon="2.777610191482341"><ele>87.0</ele><time>2026-04-08T10:21:19.001Z</time></trkpt><trkpt lat="41.77803195994231" lon="2.7775834776423047"><ele>87.0</ele><time>2026-04-08T10:21:20.001Z</time></trkpt><trkpt lat="41.77818560417472" lon="2.7775540079866885"><ele>87.0</ele><time>2026-04-08T10:21:21.001Z</time></trkpt><trkpt lat="41.778343916367206" lon="2.7775247537236396"><ele>87.0</ele><time>2026-04-08T10:21:22.001Z</time></trkpt><trkpt lat="41.77850482250248" lon="2.7774933430858466"><ele>87.0</ele><time>2026-04-08T10:21:23.001Z</time></trkpt><trkpt lat="41.77866467457948" lon="2.777462700933506"><ele>87.0</ele><time>2026-04-08T10:21:24.001Z</time></trkpt><trkpt lat="41.778821834112314" lon="2.777428350707383"><ele>86.66666666666667</ele><time>2026-04-08T10:21:25.001Z</time></trkpt><trkpt lat="41.77898370850895" lon="2.7774034538713774"><ele>86.33333333333334</ele><time>2026-04-08T10:21:26.001Z</time></trkpt><trkpt lat="41.779138574745176" lon="2.777372520935224"><ele>86.0</ele><time>2026-04-08T10:21:27.001Z</time></trkpt><trkpt lat="41.77929166631353" lon="2.7773467316362677"><ele>86.0</ele><time>2026-04-08T10:21:28.001Z</time></trkpt><trkpt lat="41.77944457782447" lon="2.7773143892152143"><ele>86.0</ele><time>2026-04-08T10:21:29.001Z</time></trkpt><trkpt lat="41.77960343268618" lon="2.7772834149853436"><ele>86.0</ele><time>2026-04-08T10:21:30.001Z</time></trkpt><trkpt lat="41.77976727302154" lon="2.777249949574855"><ele>86.0</ele><time>2026-04-08T10:21:31.001Z</time></trkpt><trkpt lat="41.77993303036668" lon="2.777222835770642"><ele>86.0</ele><time>2026-04-08T10:21:32.001Z</time></trkpt><trkpt lat="41.78009650266709" lon="2.777195517408361"><ele>86.0</ele><time>2026-04-08T10:21:33.001Z</time></trkpt><trkpt lat="41.780256595867414" lon="2.7771657064755497"><ele>85.33333333333334</ele><time>2026-04-08T10:21:34.001Z</time></trkpt><trkpt lat="41.780416202742714" lon="2.7771392312154815"><ele>84.66666666666667</ele><time>2026-04-08T10:21:35.001Z</time></trkpt><trkpt lat="41.780576331097905" lon="2.777109448862279"><ele>84.0</ele><time>2026-04-08T10:21:36.001Z</time></trkpt><trkpt lat="41.78073386405969" lon="2.7770831433697927"><ele>84.0</ele><time>2026-04-08T10:21:37.001Z</time></trkpt><trkpt lat="41.78089406742521" lon="2.7770588770250404"><ele>84.0</ele><time>2026-04-08T10:21:38.001Z</time></trkpt><trkpt lat="41.78104844578299" lon="2.7770224166003845"><ele>84.0</ele><time>2026-04-08T10:21:39.001Z</time></trkpt><trkpt lat="41.78119862186961" lon="2.7769968286192808"><ele>84.0</ele><time>2026-04-08T10:21:40.001Z</time></trkpt><trkpt lat="41.78133615983627" lon="2.7769752136535857"><ele>84.0</ele><time>2026-04-08T10:21:41.001Z</time></trkpt><trkpt lat="41.78146936427499" lon="2.776956021479823"><ele>84.0</ele><time>2026-04-08T10:21:42.001Z</time></trkpt><trkpt lat="41.78159979847663" lon="2.7769278984974264"><ele>84.0</ele><time>2026-04-08T10:21:43.001Z</time></trkpt><trkpt lat="41.781736661739714" lon="2.7769054346038398"><ele>84.33333333333333</ele><time>2026-04-08T10:21:44.001Z</time></trkpt><trkpt lat="41.78188171859095" lon="2.7768715621361224"><ele>84.66666666666666</ele><time>2026-04-08T10:21:45.001Z</time></trkpt><trkpt lat="41.78203122921723" lon="2.7768421593860566"><ele>85.0</ele><time>2026-04-08T10:21:46.001Z</time></trkpt><trkpt lat="41.7821870133156" lon="2.7768111847170585"><ele>85.25</ele><time>2026-04-08T10:21:47.001Z</time></trkpt><trkpt lat="41.78234175654114" lon="2.7767805952961635"><ele>85.5</ele><time>2026-04-08T10:21:48.001Z</time></trkpt><trkpt lat="41.78249114634907" lon="2.7767518914324727"><ele>85.75</ele><time>2026-04-08T10:21:49.001Z</time></trkpt><trkpt lat="41.78262920248282" lon="2.7767283138876544"><ele>86.0</ele><time>2026-04-08T10:21:50.001Z</time></trkpt><trkpt lat="41.782762369216755" lon="2.776699991701146"><ele>86.0</ele><time>2026-04-08T10:21:51.001Z</time></trkpt><trkpt lat="41.78290019497068" lon="2.776672284297071"><ele>86.0</ele><time>2026-04-08T10:21:52.001Z</time></trkpt><trkpt lat="41.783044687403375" lon="2.7766385781532756"><ele>86.0</ele><time>2026-04-08T10:21:53.002Z</time></trkpt><trkpt lat="41.783186645302415" lon="2.7766077268781117"><ele>86.0</ele><time>2026-04-08T10:21:54.002Z</time></trkpt><trkpt lat="41.78332775905403" lon="2.7765787980073373"><ele>86.0</ele><time>2026-04-08T10:21:55.002Z</time></trkpt><trkpt lat="41.783475220552226" lon="2.776548337441833"><ele>86.0</ele><time>2026-04-08T10:21:56.002Z</time></trkpt><trkpt lat="41.78361798544233" lon="2.776521248093863"><ele>86.0</ele><time>2026-04-08T10:21:57.002Z</time></trkpt><trkpt lat="41.78375716574077" lon="2.7764915179069836"><ele>86.0</ele><time>2026-04-08T10:21:58.002Z</time></trkpt><trkpt lat="41.783893178274845" lon="2.7764673964256184"><ele>85.75</ele><time>2026-04-08T10:21:59.002Z</time></trkpt><trkpt lat="41.784020668377046" lon="2.7764444849038803"><ele>85.5</ele><time>2026-04-08T10:22:00.002Z</time></trkpt><trkpt lat="41.784147311664434" lon="2.776420263120043"><ele>85.25</ele><time>2026-04-08T10:22:01.002Z</time></trkpt><trkpt lat="41.78427231847643" lon="2.7763972466263422"><ele>85.0</ele><time>2026-04-08T10:22:02.002Z</time></trkpt><trkpt lat="41.78440627478859" lon="2.776371618729887"><ele>85.0</ele><time>2026-04-08T10:22:03.002Z</time></trkpt><trkpt lat="41.78455195737576" lon="2.776335931326543"><ele>85.0</ele><time>2026-04-08T10:22:04.002Z</time></trkpt><trkpt lat="41.784676855982816" lon="2.776328595083557"><ele>85.0</ele><time>2026-04-08T10:22:05.002Z</time></trkpt><trkpt lat="41.78480618783363" lon="2.776305359983887"><ele>85.0</ele><time>2026-04-08T10:22:06.002Z</time></trkpt><trkpt lat="41.78493524411527" lon="2.7762851269822515"><ele>85.0</ele><time>2026-04-08T10:22:07.002Z</time></trkpt><trkpt lat="41.78507267813609" lon="2.776264250325858"><ele>85.0</ele><time>2026-04-08T10:22:08.002Z</time></trkpt><trkpt lat="41.78521289317739" lon="2.776236339437516"><ele>85.0</ele><time>2026-04-08T10:22:09.002Z</time></trkpt><trkpt lat="41.78536447863965" lon="2.7762090168501166"><ele>85.0</ele><time>2026-04-08T10:22:10.002Z</time></trkpt><trkpt lat="41.78551528855195" lon="2.776181465693886"><ele>85.5</ele><time>2026-04-08T10:22:11.002Z</time></trkpt><trkpt lat="41.78565653574781" lon="2.7761553851711414"><ele>86.0</ele><time>2026-04-08T10:22:12.002Z</time></trkpt><trkpt lat="41.785792637635424" lon="2.7761308342064117"><ele>86.5</ele><time>2026-04-08T10:22:13.002Z</time></trkpt><trkpt lat="41.785922902610494" lon="2.776103922105151"><ele>87.0</ele><time>2026-04-08T10:22:14.002Z</time></trkpt><trkpt lat="41.78605072914575" lon="2.77608404490925"><ele>87.0</ele><time>2026-04-08T10:22:15.002Z</time></trkpt><trkpt lat="41.78616232689457" lon="2.77605651879508"><ele>87.0</ele><time>2026-04-08T10:22:16.002Z</time></trkpt><trkpt lat="41.78628629284066" lon="2.7760282103764258"><ele>87.0</ele><time>2026-04-08T10:22:17.002Z</time></trkpt><trkpt lat="41.78639571068107" lon="2.776010670818229"><ele>87.0</ele><time>2026-04-08T10:22:18.002Z</time></trkpt><trkpt lat="41.786487913723064" lon="2.7759909169124373"><ele>87.0</ele><time>2026-04-08T10:22:19.002Z</time></trkpt><trkpt lat="41.78656918601231" lon="2.77596707771553"><ele>87.0</ele><time>2026-04-08T10:22:20.002Z</time></trkpt><trkpt lat="41.78664868985742" lon="2.7759557614574577"><ele>87.0</ele><time>2026-04-08T10:22:21.002Z</time></trkpt><trkpt lat="41.78672215812131" lon="2.775943040484154"><ele>87.0</ele><time>2026-04-08T10:22:22.002Z</time></trkpt><trkpt lat="41.78678938500924" lon="2.775929687640111"><ele>87.0</ele><time>2026-04-08T10:22:23.002Z</time></trkpt><trkpt lat="41.786875850241046" lon="2.7759092807428885"><ele>87.0</ele><time>2026-04-08T10:22:25.002Z</time></trkpt><trkpt lat="41.78696667558806" lon="2.775884546411566"><ele>87.0</ele><time>2026-04-08T10:22:28.002Z</time></trkpt><trkpt lat="41.78705543500137" lon="2.775875465543332"><ele>87.25</ele><time>2026-04-08T10:22:29.002Z</time></trkpt><trkpt lat="41.78715830746219" lon="2.7758847893064758"><ele>87.5</ele><time>2026-04-08T10:22:30.002Z</time></trkpt><trkpt lat="41.78726156264195" lon="2.7759198914100622"><ele>87.75</ele><time>2026-04-08T10:22:31.002Z</time></trkpt><trkpt lat="41.78737986549098" lon="2.7759759881075543"><ele>88.0</ele><time>2026-04-08T10:22:32.002Z</time></trkpt><trkpt lat="41.78749497615741" lon="2.7760335800783524"><ele>88.5</ele><time>2026-04-08T10:22:33.002Z</time></trkpt><trkpt lat="41.7876103465658" lon="2.7761007855275253"><ele>89.0</ele><time>2026-04-08T10:22:34.002Z</time></trkpt><trkpt lat="41.78772390497708" lon="2.776169556699233"><ele>89.5</ele><time>2026-04-08T10:22:35.002Z</time></trkpt><trkpt lat="41.78783437328081" lon="2.776230951914319"><ele>90.0</ele><time>2026-04-08T10:22:36.002Z</time></trkpt><trkpt lat="41.787954132775454" lon="2.776296608868604"><ele>90.5</ele><time>2026-04-08T10:22:37.002Z</time></trkpt><trkpt lat="41.78807564018503" lon="2.776367138881832"><ele>91.0</ele><time>2026-04-08T10:22:38.002Z</time></trkpt><trkpt lat="41.78818846281973" lon="2.776434396318305"><ele>91.5</ele><time>2026-04-08T10:22:39.002Z</time></trkpt><trkpt lat="41.7883013295567" lon="2.7765026600648"><ele>92.0</ele><time>2026-04-08T10:22:40.002Z</time></trkpt><trkpt lat="41.78841377524368" lon="2.7765667936916305"><ele>92.5</ele><time>2026-04-08T10:22:41.002Z</time></trkpt><trkpt lat="41.788525006393975" lon="2.7766301993157434"><ele>93.0</ele><time>2026-04-08T10:22:42.002Z</time></trkpt><trkpt lat="41.788636467091" lon="2.776692595349052"><ele>93.5</ele><time>2026-04-08T10:22:43.002Z</time></trkpt><trkpt lat="41.78874474448746" lon="2.7767558097999405"><ele>94.0</ele><time>2026-04-08T10:22:44.002Z</time></trkpt><trkpt lat="41.78885341045276" lon="2.776820475013775"><ele>94.0</ele><time>2026-04-08T10:22:45.002Z</time></trkpt><trkpt lat="41.78896238154096" lon="2.7768822932508486"><ele>94.0</ele><time>2026-04-08T10:22:46.002Z</time></trkpt><trkpt lat="41.789069711364945" lon="2.776946227100988"><ele>94.0</ele><time>2026-04-08T10:22:47.002Z</time></trkpt><trkpt lat="41.78917302691891" lon="2.777006761694581"><ele>94.0</ele><time>2026-04-08T10:22:48.002Z</time></trkpt><trkpt lat="41.789278475133464" lon="2.7770670266149775"><ele>93.75</ele><time>2026-04-08T10:22:49.002Z</time></trkpt><trkpt lat="41.789382585602205" lon="2.7771289317248438"><ele>93.5</ele><time>2026-04-08T10:22:50.002Z</time></trkpt><trkpt lat="41.789491024912174" lon="2.777189726986235"><ele>93.25</ele><time>2026-04-08T10:22:51Z</time></trkpt><trkpt lat="41.78959406916982" lon="2.7772534645928144"><ele>93.0</ele><time>2026-04-08T10:22:52Z</time></trkpt><trkpt lat="41.78970088334163" lon="2.7773159466093604"><ele>93.0</ele><time>2026-04-08T10:22:53Z</time></trkpt><trkpt lat="41.78979940192239" lon="2.777372152525663"><ele>93.0</ele><time>2026-04-08T10:22:54Z</time></trkpt><trkpt lat="41.78988421287766" lon="2.7774235139138255"><ele>93.0</ele><time>2026-04-08T10:22:55Z</time></trkpt><trkpt lat="41.789954509767746" lon="2.777468659103112"><ele>93.0</ele><time>2026-04-08T10:22:56Z</time></trkpt><trkpt lat="41.790055518877985" lon="2.7775615664798354"><ele>93.0</ele><time>2026-04-08T10:22:58Z</time></trkpt><trkpt lat="41.79009906922794" lon="2.777635647640073"><ele>92.5</ele><time>2026-04-08T10:22:59Z</time></trkpt><trkpt lat="41.790199923202444" lon="2.777701775921164"><ele>92.0</ele><time>2026-04-08T10:23:01Z</time></trkpt><trkpt lat="41.7902624040731" lon="2.777689197141861"><ele>91.5</ele><time>2026-04-08T10:23:02Z</time></trkpt><trkpt lat="41.790322122397235" lon="2.7776380829388407"><ele>91.0</ele><time>2026-04-08T10:23:03Z</time></trkpt><trkpt lat="41.79039162711427" lon="2.777573337723695"><ele>90.5</ele><time>2026-04-08T10:23:04Z</time></trkpt><trkpt lat="41.790476060895905" lon="2.7775260314263517"><ele>90.0</ele><time>2026-04-08T10:23:05Z</time></trkpt><trkpt lat="41.79056579703178" lon="2.7775004564328927"><ele>90.0</ele><time>2026-04-08T10:23:06Z</time></trkpt><trkpt lat="41.79065201428352" lon="2.7774884114920133"><ele>90.0</ele><time>2026-04-08T10:23:07Z</time></trkpt><trkpt lat="41.7907345923437" lon="2.7774709952514263"><ele>90.0</ele><time>2026-04-08T10:23:08Z</time></trkpt><trkpt lat="41.79080927369589" lon="2.7774538366866546"><ele>90.0</ele><time>2026-04-08T10:23:09Z</time></trkpt><trkpt lat="41.79088367104049" lon="2.777424937936057"><ele>90.0</ele><time>2026-04-08T10:23:10Z</time></trkpt><trkpt lat="41.79098094872708" lon="2.7773915802227913"><ele>90.0</ele><time>2026-04-08T10:23:11Z</time></trkpt><trkpt lat="41.79108779347344" lon="2.777415220119753"><ele>89.5</ele><time>2026-04-08T10:23:12Z</time></trkpt><trkpt lat="41.79120772671674" lon="2.777394027283429"><ele>89.0</ele><time>2026-04-08T10:23:13Z</time></trkpt><trkpt lat="41.791344000866275" lon="2.7773693866843647"><ele>88.5</ele><time>2026-04-08T10:23:14Z</time></trkpt><trkpt lat="41.79148233412966" lon="2.7773230026937603"><ele>88.0</ele><time>2026-04-08T10:23:15Z</time></trkpt><trkpt lat="41.791623205673645" lon="2.7772992086999713"><ele>88.0</ele><time>2026-04-08T10:23:16Z</time></trkpt><trkpt lat="41.79176968991557" lon="2.7772757645184587"><ele>88.0</ele><time>2026-04-08T10:23:17Z</time></trkpt><trkpt lat="41.79192145273171" lon="2.7772540038719447"><ele>88.0</ele><time>2026-04-08T10:23:18Z</time></trkpt><trkpt lat="41.792070848651385" lon="2.7772279479295894"><ele>88.33333333333333</ele><time>2026-04-08T10:23:19Z</time></trkpt><trkpt lat="41.79221567415152" lon="2.777208670742575"><ele>88.66666666666667</ele><time>2026-04-08T10:23:20Z</time></trkpt><trkpt lat="41.79236662999528" lon="2.7771855824822307"><ele>89.0</ele><time>2026-04-08T10:23:21Z</time></trkpt><trkpt lat="41.79251844361905" lon="2.777159495427639"><ele>89.0</ele><time>2026-04-08T10:23:22Z</time></trkpt><trkpt lat="41.79266900323213" lon="2.7771331618720967"><ele>89.0</ele><time>2026-04-08T10:23:23Z</time></trkpt><trkpt lat="41.79281949554318" lon="2.777107435028556"><ele>89.0</ele><time>2026-04-08T10:23:24Z</time></trkpt><trkpt lat="41.79297119539604" lon="2.777079835216421"><ele>89.25</ele><time>2026-04-08T10:23:25Z</time></trkpt><trkpt lat="41.79312176714396" lon="2.777048653016742"><ele>89.5</ele><time>2026-04-08T10:23:26Z</time></trkpt><trkpt lat="41.793268760923276" lon="2.777015060485904"><ele>89.75</ele><time>2026-04-08T10:23:27Z</time></trkpt><trkpt lat="41.79341224311825" lon="2.776972955975795"><ele>90.0</ele><time>2026-04-08T10:23:28Z</time></trkpt><trkpt lat="41.79354436865693" lon="2.7769251411198272"><ele>90.0</ele><time>2026-04-08T10:23:29Z</time></trkpt><trkpt lat="41.79367016223819" lon="2.776877683059364"><ele>90.0</ele><time>2026-04-08T10:23:30Z</time></trkpt><trkpt lat="41.79378693005616" lon="2.776834163822901"><ele>90.0</ele><time>2026-04-08T10:23:31Z</time></trkpt><trkpt lat="41.79389865905114" lon="2.7767981039636656"><ele>90.0</ele><time>2026-04-08T10:23:32Z</time></trkpt><trkpt lat="41.79399222935561" lon="2.776770643275198"><ele>89.4</ele><time>2026-04-08T10:23:33Z</time></trkpt><trkpt lat="41.79405699623264" lon="2.7767591412015937"><ele>88.8</ele><time>2026-04-08T10:23:34Z</time></trkpt><trkpt lat="41.794152941226564" lon="2.7767765889792195"><ele>88.19999999999999</ele><time>2026-04-08T10:23:36Z</time></trkpt><trkpt lat="41.79425169734268" lon="2.7768108128458873"><ele>87.6</ele><time>2026-04-08T10:23:38Z</time></trkpt><trkpt lat="41.79436562057115" lon="2.776747637602769"><ele>87.0</ele><time>2026-04-08T10:23:40Z</time></trkpt><trkpt lat="41.79441726243079" lon="2.776684330109633"><ele>87.0</ele><time>2026-04-08T10:23:41Z</time></trkpt><trkpt lat="41.79446819044399" lon="2.7766120467328985"><ele>87.0</ele><time>2026-04-08T10:23:42Z</time></trkpt><trkpt lat="41.794533431776344" lon="2.776555368061519"><ele>87.0</ele><time>2026-04-08T10:23:43Z</time></trkpt><trkpt lat="41.79461243106978" lon="2.7765138377350493"><ele>87.0</ele><time>2026-04-08T10:23:44Z</time></trkpt><trkpt lat="41.79470120658474" lon="2.7764751662505502"><ele>87.0</ele><time>2026-04-08T10:23:45.001Z</time></trkpt><trkpt lat="41.79479559680657" lon="2.7764369218609697"><ele>87.0</ele><time>2026-04-08T10:23:46.001Z</time></trkpt><trkpt lat="41.79489359654093" lon="2.7763953557680194"><ele>87.0</ele><time>2026-04-08T10:23:47.001Z</time></trkpt><trkpt lat="41.79500210922155" lon="2.7763504419325487"><ele>87.0</ele><time>2026-04-08T10:23:48.001Z</time></trkpt><trkpt lat="41.795116179005724" lon="2.77630856363117"><ele>87.0</ele><time>2026-04-08T10:23:49.001Z</time></trkpt><trkpt lat="41.795235600583595" lon="2.776259747654526"><ele>87.0</ele><time>2026-04-08T10:23:50.001Z</time></trkpt><trkpt lat="41.79535721794646" lon="2.7762104927284272"><ele>88.5</ele><time>2026-04-08T10:23:51.001Z</time></trkpt><trkpt lat="41.79547824514572" lon="2.7761617586178167"><ele>90.0</ele><time>2026-04-08T10:23:52.001Z</time></trkpt><trkpt lat="41.79560326683869" lon="2.776110719082521"><ele>91.5</ele><time>2026-04-08T10:23:53.001Z</time></trkpt><trkpt lat="41.79572636001292" lon="2.7760608640467086"><ele>93.0</ele><time>2026-04-08T10:23:54.001Z</time></trkpt><trkpt lat="41.79585158578118" lon="2.776010336323905"><ele>93.25</ele><time>2026-04-08T10:23:55.001Z</time></trkpt><trkpt lat="41.795977209291685" lon="2.7759587786251645"><ele>93.5</ele><time>2026-04-08T10:23:56.001Z</time></trkpt><trkpt lat="41.79609935325237" lon="2.7759095487950898"><ele>93.75</ele><time>2026-04-08T10:23:57.001Z</time></trkpt><trkpt lat="41.796220012769254" lon="2.775862693244942"><ele>94.0</ele><time>2026-04-08T10:23:58.001Z</time></trkpt><trkpt lat="41.79634131601735" lon="2.7758184755259783"><ele>94.0</ele><time>2026-04-08T10:23:59.001Z</time></trkpt><trkpt lat="41.79646157593836" lon="2.775777378365965"><ele>94.0</ele><time>2026-04-08T10:24:00.001Z</time></trkpt><trkpt lat="41.7965826872441" lon="2.775725368347391"><ele>94.0</ele><time>2026-04-08T10:24:01.001Z</time></trkpt><trkpt lat="41.796709248584385" lon="2.7756682182870325"><ele>94.0</ele><time>2026-04-08T10:24:02.001Z</time></trkpt><trkpt lat="41.79684341839184" lon="2.775598975733944"><ele>94.0</ele><time>2026-04-08T10:24:03.001Z</time></trkpt><trkpt lat="41.796975401779875" lon="2.7755161388217586"><ele>94.0</ele><time>2026-04-08T10:24:04.001Z</time></trkpt><trkpt lat="41.79710443856114" lon="2.775422697261181"><ele>94.0</ele><time>2026-04-08T10:24:05.001Z</time></trkpt><trkpt lat="41.797230691593754" lon="2.7753205216643804"><ele>94.0</ele><time>2026-04-08T10:24:06.001Z</time></trkpt><trkpt lat="41.79735406782861" lon="2.7752148189795687"><ele>94.33333333333333</ele><time>2026-04-08T10:24:07.001Z</time></trkpt><trkpt lat="41.79747673684187" lon="2.7751073588722956"><ele>94.66666666666667</ele><time>2026-04-08T10:24:08.001Z</time></trkpt><trkpt lat="41.79760274972208" lon="2.7749948333662773"><ele>95.0</ele><time>2026-04-08T10:24:09.001Z</time></trkpt><trkpt lat="41.797749557573816" lon="2.77486773831528"><ele>94.0</ele><time>2026-04-08T10:24:10.001Z</time></trkpt><trkpt lat="41.79791361105956" lon="2.77471035347159"><ele>93.0</ele><time>2026-04-08T10:24:11.001Z</time></trkpt><trkpt lat="41.79809422165215" lon="2.774565531384026"><ele>92.0</ele><time>2026-04-08T10:24:12.001Z</time></trkpt><trkpt lat="41.798278481509605" lon="2.774395081941011"><ele>93.0</ele><time>2026-04-08T10:24:13.001Z</time></trkpt><trkpt lat="41.79846870291488" lon="2.7742211613847028"><ele>94.0</ele><time>2026-04-08T10:24:14.001Z</time></trkpt><trkpt lat="41.798651623250976" lon="2.774027170833348"><ele>94.5</ele><time>2026-04-08T10:24:15.001Z</time></trkpt><trkpt lat="41.79884948305399" lon="2.773858939452278"><ele>95.0</ele><time>2026-04-08T10:24:16.001Z</time></trkpt><trkpt lat="41.79905254016158" lon="2.773682863245929"><ele>94.5</ele><time>2026-04-08T10:24:17.001Z</time></trkpt><trkpt lat="41.79925697787263" lon="2.77350308337369"><ele>94.0</ele><time>2026-04-08T10:24:18.001Z</time></trkpt><trkpt lat="41.799461614223986" lon="2.773321439051277"><ele>94.0</ele><time>2026-04-08T10:24:19.001Z</time></trkpt><trkpt lat="41.79966545185473" lon="2.773137003875533"><ele>94.0</ele><time>2026-04-08T10:24:20.001Z</time></trkpt><trkpt lat="41.799870016186176" lon="2.7729543357727544"><ele>94.0</ele><time>2026-04-08T10:24:21.001Z</time></trkpt><trkpt lat="41.80007618142746" lon="2.7727735457910634"><ele>94.0</ele><time>2026-04-08T10:24:22.001Z</time></trkpt><trkpt lat="41.8002836152443" lon="2.7725908763398732"><ele>95.5</ele><time>2026-04-08T10:24:23.001Z</time></trkpt><trkpt lat="41.80049047719282" lon="2.7724094145358804"><ele>97.0</ele><time>2026-04-08T10:24:24.001Z</time></trkpt><trkpt lat="41.80069665068838" lon="2.7722284966391633"><ele>97.0</ele><time>2026-04-08T10:24:25.001Z</time></trkpt><trkpt lat="41.80090247217538" lon="2.7720453288517706"><ele>97.0</ele><time>2026-04-08T10:24:26.001Z</time></trkpt><trkpt lat="41.80110699294121" lon="2.7718620714651174"><ele>94.5</ele><time>2026-04-08T10:24:27.001Z</time></trkpt><trkpt lat="41.80130603010818" lon="2.7716742856646035"><ele>92.0</ele><time>2026-04-08T10:24:28.001Z</time></trkpt><trkpt lat="41.801504365529006" lon="2.771496131524305"><ele>92.0</ele><time>2026-04-08T10:24:29.001Z</time></trkpt><trkpt lat="41.80169176304465" lon="2.7713327393812746"><ele>92.0</ele><time>2026-04-08T10:24:30.001Z</time></trkpt><trkpt lat="41.80187144248941" lon="2.7711719195328612"><ele>92.0</ele><time>2026-04-08T10:24:31.001Z</time></trkpt><trkpt lat="41.80205238797233" lon="2.77101492818446"><ele>92.33333333333334</ele><time>2026-04-08T10:24:32.001Z</time></trkpt><trkpt lat="41.8022362939624" lon="2.7708540443354415"><ele>92.66666666666667</ele><time>2026-04-08T10:24:33.001Z</time></trkpt><trkpt lat="41.802405125119485" lon="2.7707051446837982"><ele>93.0</ele><time>2026-04-08T10:24:34.001Z</time></trkpt><trkpt lat="41.80255474412496" lon="2.7705520568588926"><ele>93.33333333333333</ele><time>2026-04-08T10:24:35.001Z</time></trkpt><trkpt lat="41.802696579050846" lon="2.7703777999066137"><ele>93.66666666666666</ele><time>2026-04-08T10:24:36.001Z</time></trkpt><trkpt lat="41.802825139490835" lon="2.770184210300434"><ele>94.0</ele><time>2026-04-08T10:24:37.001Z</time></trkpt><trkpt lat="41.80294443051098" lon="2.769966529459137"><ele>93.33333333333333</ele><time>2026-04-08T10:24:38.001Z</time></trkpt><trkpt lat="41.803043345551615" lon="2.769738363754989"><ele>92.66666666666667</ele><time>2026-04-08T10:24:39.001Z</time></trkpt><trkpt lat="41.80311251617049" lon="2.7694939013711966"><ele>92.0</ele><time>2026-04-08T10:24:40.001Z</time></trkpt><trkpt lat="41.80316453554164" lon="2.7692377592867485"><ele>92.0</ele><time>2026-04-08T10:24:41.001Z</time></trkpt><trkpt lat="41.803207611440286" lon="2.7689701897712338"><ele>92.0</ele><time>2026-04-08T10:24:42.001Z</time></trkpt><trkpt lat="41.803260010731435" lon="2.768696767429188"><ele>92.0</ele><time>2026-04-08T10:24:43.001Z</time></trkpt><trkpt lat="41.80329047287474" lon="2.7684301723181846"><ele>91.66666666666667</ele><time>2026-04-08T10:24:44.001Z</time></trkpt><trkpt lat="41.80331945069262" lon="2.7681782017273235"><ele>91.33333333333333</ele><time>2026-04-08T10:24:45.001Z</time></trkpt><trkpt lat="41.80334790808352" lon="2.7679307562908813"><ele>91.0</ele><time>2026-04-08T10:24:46.001Z</time></trkpt><trkpt lat="41.80337628351827" lon="2.767684243860874"><ele>90.66666666666666</ele><time>2026-04-08T10:24:47.001Z</time></trkpt><trkpt lat="41.803403922788455" lon="2.76744430458209"><ele>90.33333333333333</ele><time>2026-04-08T10:24:48.001Z</time></trkpt><trkpt lat="41.8034150030983" lon="2.767213034138273"><ele>90.0</ele><time>2026-04-08T10:24:49.001Z</time></trkpt><trkpt lat="41.80344413561032" lon="2.766993746878196"><ele>89.66666666666667</ele><time>2026-04-08T10:24:50.001Z</time></trkpt><trkpt lat="41.803469648512284" lon="2.7667760637617347"><ele>89.33333333333334</ele><time>2026-04-08T10:24:51.001Z</time></trkpt><trkpt lat="41.80349163234152" lon="2.7665634443817093"><ele>89.0</ele><time>2026-04-08T10:24:52.001Z</time></trkpt><trkpt lat="41.80351630429488" lon="2.7663590740503126"><ele>89.0</ele><time>2026-04-08T10:24:53.001Z</time></trkpt><trkpt lat="41.80353893968236" lon="2.7661652517575166"><ele>89.0</ele><time>2026-04-08T10:24:54.001Z</time></trkpt><trkpt lat="41.80356080934952" lon="2.7659774005004527"><ele>89.0</ele><time>2026-04-08T10:24:55.001Z</time></trkpt><trkpt lat="41.80358493599735" lon="2.76579411446146"><ele>89.0</ele><time>2026-04-08T10:24:56.001Z</time></trkpt><trkpt lat="41.803604595524284" lon="2.7656200398089945"><ele>89.0</ele><time>2026-04-08T10:24:56.999Z</time></trkpt><trkpt lat="41.80362632724563" lon="2.7654613293505235"><ele>89.0</ele><time>2026-04-08T10:24:57.999Z</time></trkpt><trkpt lat="41.80365394550967" lon="2.765315083937644"><ele>89.0</ele><time>2026-04-08T10:24:58.999Z</time></trkpt><trkpt lat="41.80369328702684" lon="2.765185770488689"><ele>89.0</ele><time>2026-04-08T10:24:59.999Z</time></trkpt><trkpt lat="41.803741997625394" lon="2.765069630920085"><ele>89.0</ele><time>2026-04-08T10:25:00.999Z</time></trkpt><trkpt lat="41.803798108686415" lon="2.7649748316561085"><ele>88.25</ele><time>2026-04-08T10:25:01.999Z</time></trkpt><trkpt lat="41.8038719093272" lon="2.7648784191052465"><ele>87.5</ele><time>2026-04-08T10:25:02.999Z</time></trkpt><trkpt lat="41.80394091889843" lon="2.7647579649722704"><ele>86.75</ele><time>2026-04-08T10:25:03.999Z</time></trkpt><trkpt lat="41.80405277405111" lon="2.764666371136831"><ele>86.0</ele><time>2026-04-08T10:25:04.999Z</time></trkpt><trkpt lat="41.804122065146935" lon="2.764533578986956"><ele>86.0</ele><time>2026-04-08T10:25:05.999Z</time></trkpt><trkpt lat="41.80416702632764" lon="2.7643899793268685"><ele>86.0</ele><time>2026-04-08T10:25:06.999Z</time></trkpt><trkpt lat="41.80419015232485" lon="2.7642430247254843"><ele>86.0</ele><time>2026-04-08T10:25:07.999Z</time></trkpt><trkpt lat="41.80419963958764" lon="2.764088869330567"><ele>86.0</ele><time>2026-04-08T10:25:08.999Z</time></trkpt><trkpt lat="41.804192063592986" lon="2.7639442030342747"><ele>85.75</ele><time>2026-04-08T10:25:09.999Z</time></trkpt><trkpt lat="41.80416523873935" lon="2.7637987211453523"><ele>85.5</ele><time>2026-04-08T10:25:10.999Z</time></trkpt><trkpt lat="41.80411945758882" lon="2.7636472154557667"><ele>85.25</ele><time>2026-04-08T10:25:11.999Z</time></trkpt><trkpt lat="41.80405477559613" lon="2.763491697695053"><ele>85.0</ele><time>2026-04-08T10:25:12.999Z</time></trkpt><trkpt lat="41.803995913815065" lon="2.7633309959995334"><ele>85.0</ele><time>2026-04-08T10:25:13.999Z</time></trkpt><trkpt lat="41.803958466728844" lon="2.7631593580421754"><ele>85.0</ele><time>2026-04-08T10:25:14.999Z</time></trkpt><trkpt lat="41.803941217377385" lon="2.762976779871056"><ele>85.0</ele><time>2026-04-08T10:25:15.999Z</time></trkpt><trkpt lat="41.803945564880074" lon="2.762780671848721"><ele>85.0</ele><time>2026-04-08T10:25:16.999Z</time></trkpt><trkpt lat="41.8039653619944" lon="2.7625692867807925"><ele>84.33333333333333</ele><time>2026-04-08T10:25:17.999Z</time></trkpt><trkpt lat="41.80400652142555" lon="2.7623590143488808"><ele>83.66666666666667</ele><time>2026-04-08T10:25:18.999Z</time></trkpt><trkpt lat="41.80403465825373" lon="2.762122734074113"><ele>83.0</ele><time>2026-04-08T10:25:19.999Z</time></trkpt><trkpt lat="41.80406388075814" lon="2.7618773368459606"><ele>82.0</ele><time>2026-04-08T10:25:20.999Z</time></trkpt><trkpt lat="41.80409269047712" lon="2.761635405943205"><ele>81.0</ele><time>2026-04-08T10:25:21.999Z</time></trkpt><trkpt lat="41.80412123857497" lon="2.7613941231490124"><ele>80.0</ele><time>2026-04-08T10:25:23Z</time></trkpt><trkpt lat="41.80414941545501" lon="2.7611519985483355"><ele>80.0</ele><time>2026-04-08T10:25:24Z</time></trkpt><trkpt lat="41.804177132845204" lon="2.760913822389927"><ele>80.0</ele><time>2026-04-08T10:25:25Z</time></trkpt><trkpt lat="41.80420321462094" lon="2.760689700738198"><ele>80.0</ele><time>2026-04-08T10:25:26Z</time></trkpt><trkpt lat="41.80422912671031" lon="2.760462956890603"><ele>80.0</ele><time>2026-04-08T10:25:27Z</time></trkpt><trkpt lat="41.80425560275391" lon="2.7602317930875353"><ele>80.0</ele><time>2026-04-08T10:25:28Z</time></trkpt><trkpt lat="41.80428238647068" lon="2.7599979429586745"><ele>80.0</ele><time>2026-04-08T10:25:29Z</time></trkpt><trkpt lat="41.804308801172354" lon="2.759767314732277"><ele>79.0</ele><time>2026-04-08T10:25:30Z</time></trkpt><trkpt lat="41.80433478024975" lon="2.759540489951885"><ele>78.0</ele><time>2026-04-08T10:25:31Z</time></trkpt><trkpt lat="41.80436049520435" lon="2.7593159615957252"><ele>77.0</ele><time>2026-04-08T10:25:32Z</time></trkpt><trkpt lat="41.804386953430885" lon="2.7590886808415784"><ele>77.0</ele><time>2026-04-08T10:25:33Z</time></trkpt><trkpt lat="41.80441323819725" lon="2.758859970531911"><ele>77.0</ele><time>2026-04-08T10:25:34Z</time></trkpt><trkpt lat="41.80443947590077" lon="2.7586316697416984"><ele>77.0</ele><time>2026-04-08T10:25:35Z</time></trkpt><trkpt lat="41.804465830400076" lon="2.7584023525986896"><ele>76.66666666666667</ele><time>2026-04-08T10:25:36Z</time></trkpt><trkpt lat="41.804492345781306" lon="2.7581723108828187"><ele>76.33333333333333</ele><time>2026-04-08T10:25:37Z</time></trkpt><trkpt lat="41.804519294181105" lon="2.7579385054558174"><ele>76.0</ele><time>2026-04-08T10:25:38Z</time></trkpt><trkpt lat="41.804545995936266" lon="2.757706839933857"><ele>75.0</ele><time>2026-04-08T10:25:39Z</time></trkpt><trkpt lat="41.80457294962335" lon="2.757476767075924"><ele>74.0</ele><time>2026-04-08T10:25:40Z</time></trkpt><trkpt lat="41.80460000085602" lon="2.757251039061115"><ele>73.0</ele><time>2026-04-08T10:25:41Z</time></trkpt><trkpt lat="41.80462811466692" lon="2.7570252762989513"><ele>72.33333333333333</ele><time>2026-04-08T10:25:42Z</time></trkpt><trkpt lat="41.80466291016524" lon="2.756795373689993"><ele>71.66666666666667</ele><time>2026-04-08T10:25:43Z</time></trkpt><trkpt lat="41.804708014750055" lon="2.7565612830346797"><ele>71.0</ele><time>2026-04-08T10:25:44Z</time></trkpt><trkpt lat="41.80476284329079" lon="2.756340227658166"><ele>71.0</ele><time>2026-04-08T10:25:45Z</time></trkpt><trkpt lat="41.804826233568825" lon="2.756123532836046"><ele>71.0</ele><time>2026-04-08T10:25:46Z</time></trkpt><trkpt lat="41.80489392170095" lon="2.7559100411729793"><ele>71.0</ele><time>2026-04-08T10:25:47Z</time></trkpt><trkpt lat="41.80496621721945" lon="2.755701677655978"><ele>71.0</ele><time>2026-04-08T10:25:48Z</time></trkpt><trkpt lat="41.80503891397522" lon="2.7555008605849576"><ele>71.0</ele><time>2026-04-08T10:25:49Z</time></trkpt><trkpt lat="41.805113255317416" lon="2.7552976207027333"><ele>71.0</ele><time>2026-04-08T10:25:50Z</time></trkpt><trkpt lat="41.80518728647809" lon="2.7551016730860707"><ele>71.33333333333334</ele><time>2026-04-08T10:25:51Z</time></trkpt><trkpt lat="41.80526033867732" lon="2.7549106559205185"><ele>71.66666666666667</ele><time>2026-04-08T10:25:52Z</time></trkpt><trkpt lat="41.80533323466489" lon="2.7547133377178588"><ele>72.0</ele><time>2026-04-08T10:25:53Z</time></trkpt><trkpt lat="41.80540451493224" lon="2.754514270393174"><ele>72.66666666666667</ele><time>2026-04-08T10:25:54Z</time></trkpt><trkpt lat="41.80547369512641" lon="2.7543129020914865"><ele>73.33333333333334</ele><time>2026-04-08T10:25:55Z</time></trkpt><trkpt lat="41.80553892538321" lon="2.754114876730269"><ele>74.0</ele><time>2026-04-08T10:25:56Z</time></trkpt><trkpt lat="41.80560268137054" lon="2.753912016729498"><ele>74.0</ele><time>2026-04-08T10:25:57Z</time></trkpt><trkpt lat="41.805656081024175" lon="2.753709270831903"><ele>74.0</ele><time>2026-04-08T10:25:58Z</time></trkpt><trkpt lat="41.80570088105746" lon="2.7535175856096443"><ele>74.0</ele><time>2026-04-08T10:25:59Z</time></trkpt><trkpt lat="41.8057360193907" lon="2.7533355005720663"><ele>74.5</ele><time>2026-04-08T10:26:00Z</time></trkpt><trkpt lat="41.80576779596591" lon="2.753165095880873"><ele>75.0</ele><time>2026-04-08T10:26:01Z</time></trkpt><trkpt lat="41.80580887380851" lon="2.75298103366496"><ele>75.5</ele><time>2026-04-08T10:26:02Z</time></trkpt><trkpt lat="41.80585293488195" lon="2.7527901907834793"><ele>76.0</ele><time>2026-04-08T10:26:03Z</time></trkpt><trkpt lat="41.80589898077506" lon="2.7525907501442313"><ele>76.66666666666666</ele><time>2026-04-08T10:26:04Z</time></trkpt><trkpt lat="41.805947784788614" lon="2.752369538131178"><ele>77.33333333333333</ele><time>2026-04-08T10:26:05Z</time></trkpt><trkpt lat="41.80599785873154" lon="2.7521480358734123"><ele>78.0</ele><time>2026-04-08T10:26:06Z</time></trkpt><trkpt lat="41.80604446215981" lon="2.7519388382913577"><ele>78.0</ele><time>2026-04-08T10:26:07Z</time></trkpt><trkpt lat="41.806091616644025" lon="2.7517329507520025"><ele>78.0</ele><time>2026-04-08T10:26:08Z</time></trkpt><trkpt lat="41.806137908263985" lon="2.7515317031365676"><ele>78.0</ele><time>2026-04-08T10:26:09Z</time></trkpt><trkpt lat="41.80618317606427" lon="2.751334906433341"><ele>78.0</ele><time>2026-04-08T10:26:10Z</time></trkpt><trkpt lat="41.806225804814645" lon="2.75114467067497"><ele>78.0</ele><time>2026-04-08T10:26:11Z</time></trkpt><trkpt lat="41.8062648134661" lon="2.7509632122585628"><ele>78.0</ele><time>2026-04-08T10:26:12.001Z</time></trkpt><trkpt lat="41.80630167235919" lon="2.750791753945241"><ele>78.0</ele><time>2026-04-08T10:26:13.001Z</time></trkpt><trkpt lat="41.806340210938465" lon="2.750612482172389"><ele>78.0</ele><time>2026-04-08T10:26:14.001Z</time></trkpt><trkpt lat="41.80635914899635" lon="2.750420844090567"><ele>78.0</ele><time>2026-04-08T10:26:15.001Z</time></trkpt><trkpt lat="41.80639866576054" lon="2.7502301459151695"><ele>78.0</ele><time>2026-04-08T10:26:16.001Z</time></trkpt><trkpt lat="41.80643845854424" lon="2.7500463052178885"><ele>78.0</ele><time>2026-04-08T10:26:17.001Z</time></trkpt><trkpt lat="41.80647837482302" lon="2.7498618476629955"><ele>78.0</ele><time>2026-04-08T10:26:18.001Z</time></trkpt><trkpt lat="41.80651914178502" lon="2.7496778868846596"><ele>78.0</ele><time>2026-04-08T10:26:19.001Z</time></trkpt><trkpt lat="41.8065760467023" lon="2.749500546057708"><ele>78.0</ele><time>2026-04-08T10:26:20.001Z</time></trkpt><trkpt lat="41.8066182737451" lon="2.749310190584348"><ele>78.0</ele><time>2026-04-08T10:26:21.001Z</time></trkpt><trkpt lat="41.80665858128749" lon="2.749123274903947"><ele>78.0</ele><time>2026-04-08T10:26:22.001Z</time></trkpt><trkpt lat="41.80669354865955" lon="2.7489558313483773"><ele>78.0</ele><time>2026-04-08T10:26:23.001Z</time></trkpt><trkpt lat="41.80671602277347" lon="2.748782998024108"><ele>78.0</ele><time>2026-04-08T10:26:24.001Z</time></trkpt><trkpt lat="41.80675459768944" lon="2.748616804939967"><ele>78.0</ele><time>2026-04-08T10:26:25.001Z</time></trkpt><trkpt lat="41.806797838271144" lon="2.748445940308215"><ele>79.0</ele><time>2026-04-08T10:26:26.001Z</time></trkpt><trkpt lat="41.806847167560996" lon="2.7482936800323476"><ele>80.0</ele><time>2026-04-08T10:26:27.001Z</time></trkpt><trkpt lat="41.80691757140538" lon="2.748169111006803"><ele>81.0</ele><time>2026-04-08T10:26:28.001Z</time></trkpt><trkpt lat="41.80700444943535" lon="2.7480725736958806"><ele>82.0</ele><time>2026-04-08T10:26:29.001Z</time></trkpt><trkpt lat="41.807111236792075" lon="2.747994150135179"><ele>82.0</ele><time>2026-04-08T10:26:30.001Z</time></trkpt><trkpt lat="41.80724187149986" lon="2.7479300647478215"><ele>82.0</ele><time>2026-04-08T10:26:31.001Z</time></trkpt><trkpt lat="41.80739010424855" lon="2.7478882784990026"><ele>82.0</ele><time>2026-04-08T10:26:32.001Z</time></trkpt><trkpt lat="41.80755419721472" lon="2.747860291762512"><ele>82.33333333333333</ele><time>2026-04-08T10:26:33.001Z</time></trkpt><trkpt lat="41.807714235013925" lon="2.7478414018784396"><ele>82.66666666666667</ele><time>2026-04-08T10:26:34.001Z</time></trkpt><trkpt lat="41.807867843329" lon="2.7478357195378362"><ele>83.0</ele><time>2026-04-08T10:26:35.001Z</time></trkpt><trkpt lat="41.80800780668763" lon="2.747820460900964"><ele>83.0</ele><time>2026-04-08T10:26:36.001Z</time></trkpt><trkpt lat="41.80813465787808" lon="2.747803255995734"><ele>83.0</ele><time>2026-04-08T10:26:37.001Z</time></trkpt><trkpt lat="41.8082425810326" lon="2.747779239899079"><ele>83.0</ele><time>2026-04-08T10:26:38.001Z</time></trkpt><trkpt lat="41.80834040911856" lon="2.747737119961163"><ele>83.0</ele><time>2026-04-08T10:26:39.001Z</time></trkpt><trkpt lat="41.808427625969365" lon="2.7476767303861083"><ele>83.0</ele><time>2026-04-08T10:26:40.001Z</time></trkpt><trkpt lat="41.808501249017546" lon="2.7476202509385383"><ele>83.33333333333334</ele><time>2026-04-08T10:26:41.001Z</time></trkpt><trkpt lat="41.808566374870345" lon="2.747567207984406"><ele>83.66666666666667</ele><time>2026-04-08T10:26:42.001Z</time></trkpt><trkpt lat="41.80866304585837" lon="2.747486174958433"><ele>84.0</ele><time>2026-04-08T10:26:44.001Z</time></trkpt><trkpt lat="41.80874400481968" lon="2.7474164811616055"><ele>84.33333333333333</ele><time>2026-04-08T10:26:46.001Z</time></trkpt><trkpt lat="41.808802680527464" lon="2.7473663887719817"><ele>84.66666666666666</ele><time>2026-04-08T10:26:52.001Z</time></trkpt><trkpt lat="41.808863429783884" lon="2.7473153007954862"><ele>85.0</ele><time>2026-04-08T10:26:53.001Z</time></trkpt><trkpt lat="41.80893561589628" lon="2.747245623578305"><ele>85.0</ele><time>2026-04-08T10:26:54.001Z</time></trkpt><trkpt lat="41.80899063617871" lon="2.7471452193586092"><ele>85.0</ele><time>2026-04-08T10:26:55.001Z</time></trkpt><trkpt lat="41.809009563296925" lon="2.7469977201474007"><ele>85.0</ele><time>2026-04-08T10:26:56.001Z</time></trkpt><trkpt lat="41.80899155608343" lon="2.746871912130012"><ele>85.0</ele><time>2026-04-08T10:26:57.001Z</time></trkpt><trkpt lat="41.80895552729586" lon="2.746736695427875"><ele>85.0</ele><time>2026-04-08T10:26:58.001Z</time></trkpt><trkpt lat="41.808913711189355" lon="2.746597787064848"><ele>85.0</ele><time>2026-04-08T10:26:59.001Z</time></trkpt><trkpt lat="41.80887884859972" lon="2.7464728133787917"><ele>85.0</ele><time>2026-04-08T10:27:00.001Z</time></trkpt><trkpt lat="41.80884408114326" lon="2.746346252976093"><ele>85.0</ele><time>2026-04-08T10:27:01.001Z</time></trkpt><trkpt lat="41.808807662663696" lon="2.7462136825088166"><ele>85.0</ele><time>2026-04-08T10:27:02.001Z</time></trkpt><trkpt lat="41.80877135170042" lon="2.7460815034359722"><ele>85.0</ele><time>2026-04-08T10:27:02.999Z</time></trkpt><trkpt lat="41.80872581700225" lon="2.745957138128909"><ele>85.0</ele><time>2026-04-08T10:27:03.999Z</time></trkpt><trkpt lat="41.808689602227886" lon="2.74583157963643"><ele>85.0</ele><time>2026-04-08T10:27:04.999Z</time></trkpt><trkpt lat="41.80866172987965" lon="2.7457003076355058"><ele>85.0</ele><time>2026-04-08T10:27:05.999Z</time></trkpt><trkpt lat="41.80862096965254" lon="2.7455735232846252"><ele>85.0</ele><time>2026-04-08T10:27:06.999Z</time></trkpt><trkpt lat="41.808589241898545" lon="2.745442110769379"><ele>85.0</ele><time>2026-04-08T10:27:07.999Z</time></trkpt><trkpt lat="41.80855538686261" lon="2.7453130295189103"><ele>84.8</ele><time>2026-04-08T10:27:08.999Z</time></trkpt><trkpt lat="41.8085161839297" lon="2.7451867736088484"><ele>84.6</ele><time>2026-04-08T10:27:09.999Z</time></trkpt><trkpt lat="41.808485663803026" lon="2.7450605717126497"><ele>84.4</ele><time>2026-04-08T10:27:10.999Z</time></trkpt><trkpt lat="41.80845586924503" lon="2.744938679850787"><ele>84.2</ele><time>2026-04-08T10:27:11.999Z</time></trkpt><trkpt lat="41.80842106414577" lon="2.744820389333012"><ele>84.0</ele><time>2026-04-08T10:27:12.999Z</time></trkpt><trkpt lat="41.80838411483429" lon="2.7447082711024016"><ele>83.33333333333333</ele><time>2026-04-08T10:27:13.999Z</time></trkpt><trkpt lat="41.808360825347805" lon="2.7445981490611255"><ele>82.66666666666667</ele><time>2026-04-08T10:27:14.999Z</time></trkpt><trkpt lat="41.80835495219294" lon="2.7444958447048826"><ele>82.0</ele><time>2026-04-08T10:27:15.999Z</time></trkpt><trkpt lat="41.80838040008811" lon="2.7443894916083105"><ele>81.33333333333334</ele><time>2026-04-08T10:27:16.999Z</time></trkpt><trkpt lat="41.808420792110844" lon="2.7443061000510562"><ele>80.66666666666667</ele><time>2026-04-08T10:27:17.999Z</time></trkpt><trkpt lat="41.80848815585137" lon="2.744240565879979"><ele>80.0</ele><time>2026-04-08T10:27:18.999Z</time></trkpt><trkpt lat="41.80856112912483" lon="2.74415811183892"><ele>80.0</ele><time>2026-04-08T10:27:19.999Z</time></trkpt><trkpt lat="41.80862890909275" lon="2.7440548982653445"><ele>80.0</ele><time>2026-04-08T10:27:20.999Z</time></trkpt><trkpt lat="41.80871447905537" lon="2.743975927439565"><ele>80.0</ele><time>2026-04-08T10:27:21.999Z</time></trkpt><trkpt lat="41.80878900959687" lon="2.743884501851365"><ele>80.0</ele><time>2026-04-08T10:27:22.999Z</time></trkpt><trkpt lat="41.808864326410465" lon="2.7437958999247547"><ele>80.0</ele><time>2026-04-08T10:27:23.999Z</time></trkpt><trkpt lat="41.80893986274963" lon="2.7437100140573385"><ele>80.0</ele><time>2026-04-08T10:27:25Z</time></trkpt><trkpt lat="41.809018760373064" lon="2.7436288205976496"><ele>80.0</ele><time>2026-04-08T10:27:26Z</time></trkpt><trkpt lat="41.80909811478276" lon="2.7435444858232794"><ele>80.0</ele><time>2026-04-08T10:27:27Z</time></trkpt><trkpt lat="41.80917837393439" lon="2.7434805758528724"><ele>80.0</ele><time>2026-04-08T10:27:28Z</time></trkpt><trkpt lat="41.809251903427324" lon="2.7433873612137085"><ele>80.0</ele><time>2026-04-08T10:27:29Z</time></trkpt><trkpt lat="41.809332175683295" lon="2.7432906866103224"><ele>80.2</ele><time>2026-04-08T10:27:30Z</time></trkpt><trkpt lat="41.80941409453875" lon="2.7432000867351136"><ele>80.4</ele><time>2026-04-08T10:27:31Z</time></trkpt><trkpt lat="41.80950484433365" lon="2.7431026508041927"><ele>80.6</ele><time>2026-04-08T10:27:32Z</time></trkpt><trkpt lat="41.80959238978979" lon="2.7430009525402195"><ele>80.8</ele><time>2026-04-08T10:27:33Z</time></trkpt><trkpt lat="41.80967662380753" lon="2.74290374454704"><ele>81.0</ele><time>2026-04-08T10:27:34Z</time></trkpt><trkpt lat="41.80975913228343" lon="2.742806136497279"><ele>81.0</ele><time>2026-04-08T10:27:35Z</time></trkpt><trkpt lat="41.80983733599822" lon="2.742719094880676"><ele>81.0</ele><time>2026-04-08T10:27:36Z</time></trkpt><trkpt lat="41.80990983594425" lon="2.742629008934012"><ele>81.0</ele><time>2026-04-08T10:27:37Z</time></trkpt><trkpt lat="41.809987911006274" lon="2.7425404675847003"><ele>81.0</ele><time>2026-04-08T10:27:38Z</time></trkpt><trkpt lat="41.810067208674596" lon="2.742457903229082"><ele>81.0</ele><time>2026-04-08T10:27:39Z</time></trkpt><trkpt lat="41.81014269725629" lon="2.7423723272057545"><ele>81.19999999999999</ele><time>2026-04-08T10:27:40Z</time></trkpt><trkpt lat="41.81021814812728" lon="2.7422838556720546"><ele>81.39999999999999</ele><time>2026-04-08T10:27:41Z</time></trkpt><trkpt lat="41.810294739672344" lon="2.7421958810550153"><ele>81.6</ele><time>2026-04-08T10:27:42Z</time></trkpt><trkpt lat="41.810371410006894" lon="2.7421090584822814"><ele>81.8</ele><time>2026-04-08T10:27:43Z</time></trkpt><trkpt lat="41.81045379210564" lon="2.7420250092403715"><ele>82.0</ele><time>2026-04-08T10:27:44Z</time></trkpt><trkpt lat="41.810533506879096" lon="2.741937098548792"><ele>82.39999999999999</ele><time>2026-04-08T10:27:45Z</time></trkpt><trkpt lat="41.81061411306944" lon="2.741851468521997"><ele>82.8</ele><time>2026-04-08T10:27:46Z</time></trkpt><trkpt lat="41.81069658111889" lon="2.7417584087960276"><ele>83.2</ele><time>2026-04-08T10:27:47Z</time></trkpt><trkpt lat="41.810774411832355" lon="2.7416656806072375"><ele>83.6</ele><time>2026-04-08T10:27:48Z</time></trkpt><trkpt lat="41.810853737615396" lon="2.7415734791180593"><ele>84.0</ele><time>2026-04-08T10:27:49Z</time></trkpt><trkpt lat="41.8109365062808" lon="2.7414796435193307"><ele>84.0</ele><time>2026-04-08T10:27:50Z</time></trkpt><trkpt lat="41.811023834518444" lon="2.741377252896005"><ele>84.0</ele><time>2026-04-08T10:27:51Z</time></trkpt><trkpt lat="41.81111526877285" lon="2.741269106567318"><ele>84.0</ele><time>2026-04-08T10:27:52Z</time></trkpt><trkpt lat="41.811219794863604" lon="2.7411433618318704"><ele>84.0</ele><time>2026-04-08T10:27:53Z</time></trkpt><trkpt lat="41.811339570829055" lon="2.7410060372924745"><ele>85.0</ele><time>2026-04-08T10:27:54Z</time></trkpt><trkpt lat="41.81147491023068" lon="2.740850285664485"><ele>86.0</ele><time>2026-04-08T10:27:55Z</time></trkpt><trkpt lat="41.81162453709514" lon="2.7406987634089646"><ele>87.0</ele><time>2026-04-08T10:27:56Z</time></trkpt><trkpt lat="41.81176638115006" lon="2.7405408864373104"><ele>86.66666666666667</ele><time>2026-04-08T10:27:57Z</time></trkpt><trkpt lat="41.81191039156689" lon="2.740375203642374"><ele>86.33333333333334</ele><time>2026-04-08T10:27:58Z</time></trkpt><trkpt lat="41.81205568007578" lon="2.740209397544513"><ele>86.0</ele><time>2026-04-08T10:27:59Z</time></trkpt><trkpt lat="41.812201792106265" lon="2.7400420004832706"><ele>87.0</ele><time>2026-04-08T10:28:00Z</time></trkpt><trkpt lat="41.81234389126366" lon="2.7398825354275873"><ele>88.0</ele><time>2026-04-08T10:28:01Z</time></trkpt><trkpt lat="41.812491549802324" lon="2.739717037775592"><ele>89.0</ele><time>2026-04-08T10:28:02Z</time></trkpt><trkpt lat="41.81263285860955" lon="2.739554218952001"><ele>88.66666666666667</ele><time>2026-04-08T10:28:03Z</time></trkpt><trkpt lat="41.81277798788033" lon="2.739386443735047"><ele>88.33333333333333</ele><time>2026-04-08T10:28:04Z</time></trkpt><trkpt lat="41.812916084030704" lon="2.739226239730592"><ele>88.0</ele><time>2026-04-08T10:28:05Z</time></trkpt><trkpt lat="41.813044260740085" lon="2.7390788763077714"><ele>88.0</ele><time>2026-04-08T10:28:06Z</time></trkpt><trkpt lat="41.813164989247696" lon="2.7389397996880485"><ele>88.0</ele><time>2026-04-08T10:28:07.001Z</time></trkpt><trkpt lat="41.81328007553579" lon="2.738812238992059"><ele>88.0</ele><time>2026-04-08T10:28:08.001Z</time></trkpt><trkpt lat="41.813390458821104" lon="2.738697480515367"><ele>88.0</ele><time>2026-04-08T10:28:09.001Z</time></trkpt><trkpt lat="41.81350686501944" lon="2.7385977391761727"><ele>88.75</ele><time>2026-04-08T10:28:10.001Z</time></trkpt><trkpt lat="41.81362469400689" lon="2.7385201904000525"><ele>89.5</ele><time>2026-04-08T10:28:11.001Z</time></trkpt><trkpt lat="41.813751013572805" lon="2.7384875691511144"><ele>90.25</ele><time>2026-04-08T10:28:12.001Z</time></trkpt><trkpt lat="41.81385077259201" lon="2.7384224131611243"><ele>91.0</ele><time>2026-04-08T10:28:13.001Z</time></trkpt><trkpt lat="41.813936497009394" lon="2.7383638006393176"><ele>91.0</ele><time>2026-04-08T10:28:14.001Z</time></trkpt><trkpt lat="41.81403364102996" lon="2.7383492638582623"><ele>91.0</ele><time>2026-04-08T10:28:15.001Z</time></trkpt><trkpt lat="41.814123412625165" lon="2.7383294980164594"><ele>91.0</ele><time>2026-04-08T10:28:16.001Z</time></trkpt><trkpt lat="41.81419886886822" lon="2.738282148841761"><ele>91.0</ele><time>2026-04-08T10:28:17.001Z</time></trkpt><trkpt lat="41.81424331858284" lon="2.7382040828979863"><ele>91.0</ele><time>2026-04-08T10:28:18.001Z</time></trkpt><trkpt lat="41.814261765657264" lon="2.738102798594464"><ele>91.0</ele><time>2026-04-08T10:28:19.001Z</time></trkpt><trkpt lat="41.814255530453636" lon="2.7379805813095444"><ele>91.0</ele><time>2026-04-08T10:28:20.001Z</time></trkpt><trkpt lat="41.81426032033515" lon="2.7378594396913014"><ele>91.0</ele><time>2026-04-08T10:28:21.001Z</time></trkpt><trkpt lat="41.81430320668248" lon="2.73774128210888"><ele>91.0</ele><time>2026-04-08T10:28:22.001Z</time></trkpt><trkpt lat="41.81437479863644" lon="2.737608170974046"><ele>91.0</ele><time>2026-04-08T10:28:23.001Z</time></trkpt><trkpt lat="41.81446811606542" lon="2.737466876004686"><ele>91.33333333333333</ele><time>2026-04-08T10:28:24.001Z</time></trkpt><trkpt lat="41.81458690630714" lon="2.737309782545873"><ele>91.66666666666667</ele><time>2026-04-08T10:28:25.001Z</time></trkpt><trkpt lat="41.814713987704806" lon="2.73716017110998"><ele>92.0</ele><time>2026-04-08T10:28:26.001Z</time></trkpt><trkpt lat="41.81484089429147" lon="2.7370096670322326"><ele>94.0</ele><time>2026-04-08T10:28:27.001Z</time></trkpt><trkpt lat="41.81497719007575" lon="2.7368408627930454"><ele>96.0</ele><time>2026-04-08T10:28:28.001Z</time></trkpt><trkpt lat="41.81514053843647" lon="2.7367024132378575"><ele>98.0</ele><time>2026-04-08T10:28:29.001Z</time></trkpt><trkpt lat="41.81526709698939" lon="2.736537396972234"><ele>98.66666666666666</ele><time>2026-04-08T10:28:30.001Z</time></trkpt><trkpt lat="41.8153874503572" lon="2.73637857449121"><ele>99.33333333333334</ele><time>2026-04-08T10:28:31.001Z</time></trkpt><trkpt lat="41.815516144194795" lon="2.7362087456053135"><ele>100.0</ele><time>2026-04-08T10:28:32.001Z</time></trkpt><trkpt lat="41.81564118497664" lon="2.736037852749601"><ele>98.66666666666667</ele><time>2026-04-08T10:28:33.001Z</time></trkpt><trkpt lat="41.81576783378386" lon="2.735854728376402"><ele>97.33333333333334</ele><time>2026-04-08T10:28:34.001Z</time></trkpt><trkpt lat="41.815891027177976" lon="2.735667178628183"><ele>96.0</ele><time>2026-04-08T10:28:35.001Z</time></trkpt><trkpt lat="41.816011055164886" lon="2.735482192701591"><ele>96.0</ele><time>2026-04-08T10:28:36.001Z</time></trkpt><trkpt lat="41.81613279933295" lon="2.7352877460597256"><ele>96.0</ele><time>2026-04-08T10:28:37.001Z</time></trkpt><trkpt lat="41.81625015908245" lon="2.7350983360108354"><ele>96.0</ele><time>2026-04-08T10:28:38.001Z</time></trkpt><trkpt lat="41.81636409053805" lon="2.7349179393638674"><ele>96.0</ele><time>2026-04-08T10:28:39.001Z</time></trkpt><trkpt lat="41.8164728774122" lon="2.7347408285044894"><ele>96.0</ele><time>2026-04-08T10:28:40.001Z</time></trkpt><trkpt lat="41.816575232363256" lon="2.7345756406948287"><ele>96.0</ele><time>2026-04-08T10:28:41.001Z</time></trkpt><trkpt lat="41.81667138246525" lon="2.7344205617864765"><ele>96.0</ele><time>2026-04-08T10:28:42.001Z</time></trkpt><trkpt lat="41.81676559903224" lon="2.7342684169560645"><ele>96.0</ele><time>2026-04-08T10:28:43.001Z</time></trkpt><trkpt lat="41.816833699737245" lon="2.7340761577477175"><ele>96.0</ele><time>2026-04-08T10:28:44.001Z</time></trkpt><trkpt lat="41.816937319582024" lon="2.733914008196776"><ele>96.0</ele><time>2026-04-08T10:28:45.001Z</time></trkpt><trkpt lat="41.817044043243655" lon="2.7337462074668393"><ele>96.0</ele><time>2026-04-08T10:28:46.001Z</time></trkpt><trkpt lat="41.81714790746989" lon="2.7335810991536613"><ele>96.0</ele><time>2026-04-08T10:28:47.001Z</time></trkpt><trkpt lat="41.81727635045084" lon="2.733446432184744"><ele>97.66666666666666</ele><time>2026-04-08T10:28:48.001Z</time></trkpt><trkpt lat="41.817381173102234" lon="2.733280171146903"><ele>99.33333333333333</ele><time>2026-04-08T10:28:49.001Z</time></trkpt><trkpt lat="41.81748744168955" lon="2.7331149050997925"><ele>101.0</ele><time>2026-04-08T10:28:50.001Z</time></trkpt><trkpt lat="41.81758823285017" lon="2.7329577562498204"><ele>101.0</ele><time>2026-04-08T10:28:51.001Z</time></trkpt><trkpt lat="41.81768099208005" lon="2.7328041488873467"><ele>101.0</ele><time>2026-04-08T10:28:52.001Z</time></trkpt><trkpt lat="41.81776121828748" lon="2.7326615149057143"><ele>101.0</ele><time>2026-04-08T10:28:53.001Z</time></trkpt><trkpt lat="41.817840869463765" lon="2.7325198926704375"><ele>101.0</ele><time>2026-04-08T10:28:54.001Z</time></trkpt><trkpt lat="41.8178919189025" lon="2.7323695939804056"><ele>101.0</ele><time>2026-04-08T10:28:55.001Z</time></trkpt><trkpt lat="41.817959608420864" lon="2.7322635945521383"><ele>101.0</ele><time>2026-04-08T10:28:56.001Z</time></trkpt><trkpt lat="41.81802602303875" lon="2.7321781980148256"><ele>101.0</ele><time>2026-04-08T10:28:57.001Z</time></trkpt><trkpt lat="41.81810071827046" lon="2.732118537634516"><ele>101.0</ele><time>2026-04-08T10:28:58.001Z</time></trkpt><trkpt lat="41.81817770107558" lon="2.7320693211565152"><ele>101.0</ele><time>2026-04-08T10:28:59.001Z</time></trkpt><trkpt lat="41.81825427165079" lon="2.7320052423125443"><ele>101.0</ele><time>2026-04-08T10:29:00.001Z</time></trkpt><trkpt lat="41.81833390071092" lon="2.7319287224664577"><ele>101.0</ele><time>2026-04-08T10:29:01.002Z</time></trkpt><trkpt lat="41.81836158095056" lon="2.731784759056474"><ele>101.0</ele><time>2026-04-08T10:29:02.002Z</time></trkpt><trkpt lat="41.818395084120795" lon="2.7316451456562563"><ele>101.0</ele><time>2026-04-08T10:29:03.002Z</time></trkpt><trkpt lat="41.81844714527016" lon="2.7315075426254176"><ele>101.0</ele><time>2026-04-08T10:29:04.002Z</time></trkpt><trkpt lat="41.81852282372496" lon="2.7313876023887995"><ele>100.8</ele><time>2026-04-08T10:29:05.002Z</time></trkpt><trkpt lat="41.81859547599423" lon="2.7312792949169626"><ele>100.6</ele><time>2026-04-08T10:29:06.002Z</time></trkpt><trkpt lat="41.8186783702874" lon="2.7311934922646057"><ele>100.4</ele><time>2026-04-08T10:29:07.002Z</time></trkpt><trkpt lat="41.818746220955376" lon="2.731090579986143"><ele>100.2</ele><time>2026-04-08T10:29:08.002Z</time></trkpt><trkpt lat="41.81880543794637" lon="2.7310007628247694"><ele>100.0</ele><time>2026-04-08T10:29:08.999Z</time></trkpt><trkpt lat="41.818870766077254" lon="2.7309016766283984"><ele>99.75</ele><time>2026-04-08T10:29:09.999Z</time></trkpt><trkpt lat="41.81894015084975" lon="2.7307922079517257"><ele>99.5</ele><time>2026-04-08T10:29:10.999Z</time></trkpt><trkpt lat="41.81901317844449" lon="2.7306749683291343"><ele>99.25</ele><time>2026-04-08T10:29:11.999Z</time></trkpt><trkpt lat="41.819091067007655" lon="2.730549924859323"><ele>99.0</ele><time>2026-04-08T10:29:12.999Z</time></trkpt><trkpt lat="41.81917145798977" lon="2.7304208639400254"><ele>99.0</ele><time>2026-04-08T10:29:13.999Z</time></trkpt><trkpt lat="41.8192568723842" lon="2.7302837383723166"><ele>99.0</ele><time>2026-04-08T10:29:14.999Z</time></trkpt><trkpt lat="41.819336784193275" lon="2.730155446739265"><ele>99.0</ele><time>2026-04-08T10:29:15.999Z</time></trkpt><trkpt lat="41.81941328507416" lon="2.7300326310738203"><ele>99.0</ele><time>2026-04-08T10:29:16.999Z</time></trkpt><trkpt lat="41.81948777720194" lon="2.7299130402627774"><ele>99.75</ele><time>2026-04-08T10:29:17.999Z</time></trkpt><trkpt lat="41.81956472846739" lon="2.7297886324368545"><ele>100.5</ele><time>2026-04-08T10:29:18.999Z</time></trkpt><trkpt lat="41.8196419025305" lon="2.729663726027311"><ele>101.25</ele><time>2026-04-08T10:29:19.999Z</time></trkpt><trkpt lat="41.819719686863216" lon="2.7295378318952674"><ele>102.0</ele><time>2026-04-08T10:29:20.999Z</time></trkpt><trkpt lat="41.819798072618546" lon="2.729410964358458"><ele>100.75</ele><time>2026-04-08T10:29:21.999Z</time></trkpt><trkpt lat="41.81987792429162" lon="2.729281724231774"><ele>99.5</ele><time>2026-04-08T10:29:22.999Z</time></trkpt><trkpt lat="41.81995939141294" lon="2.729149869496406"><ele>98.25</ele><time>2026-04-08T10:29:23.999Z</time></trkpt><trkpt lat="41.82004283167415" lon="2.7290148212292826"><ele>97.0</ele><time>2026-04-08T10:29:25Z</time></trkpt><trkpt lat="41.820129653440155" lon="2.7288742999908515"><ele>97.75</ele><time>2026-04-08T10:29:26Z</time></trkpt><trkpt lat="41.82021999835018" lon="2.7287280765236193"><ele>98.5</ele><time>2026-04-08T10:29:27Z</time></trkpt><trkpt lat="41.820309012939546" lon="2.728584006190735"><ele>99.25</ele><time>2026-04-08T10:29:28Z</time></trkpt><trkpt lat="41.82039412059301" lon="2.728446259246205"><ele>100.0</ele><time>2026-04-08T10:29:29Z</time></trkpt><trkpt lat="41.820480828188614" lon="2.728306032465823"><ele>100.0</ele><time>2026-04-08T10:29:30Z</time></trkpt><trkpt lat="41.82056550705644" lon="2.7281687324082404"><ele>100.0</ele><time>2026-04-08T10:29:31Z</time></trkpt><trkpt lat="41.82064838663359" lon="2.7280341815730145"><ele>100.0</ele><time>2026-04-08T10:29:32Z</time></trkpt><trkpt lat="41.82073397618028" lon="2.727896609501593"><ele>100.0</ele><time>2026-04-08T10:29:33Z</time></trkpt><trkpt lat="41.820820614302285" lon="2.727756525539747"><ele>100.33333333333334</ele><time>2026-04-08T10:29:34Z</time></trkpt><trkpt lat="41.820918848046574" lon="2.727598870081879"><ele>100.66666666666666</ele><time>2026-04-08T10:29:35Z</time></trkpt><trkpt lat="41.8210057126827" lon="2.727424174377518"><ele>101.0</ele><time>2026-04-08T10:29:36Z</time></trkpt><trkpt lat="41.82110294372111" lon="2.727273962976215"><ele>101.0</ele><time>2026-04-08T10:29:37Z</time></trkpt><trkpt lat="41.8212032540733" lon="2.7271138357773976"><ele>101.0</ele><time>2026-04-08T10:29:38Z</time></trkpt><trkpt lat="41.82130260076366" lon="2.726954648102646"><ele>101.0</ele><time>2026-04-08T10:29:39Z</time></trkpt><trkpt lat="41.82140233585544" lon="2.7267965116372155"><ele>99.75</ele><time>2026-04-08T10:29:40Z</time></trkpt><trkpt lat="41.82149684136541" lon="2.726639760588801"><ele>98.5</ele><time>2026-04-08T10:29:41Z</time></trkpt><trkpt lat="41.821587683024546" lon="2.7264754340888735"><ele>97.25</ele><time>2026-04-08T10:29:42Z</time></trkpt><trkpt lat="41.821666581285115" lon="2.7263097196952053"><ele>96.0</ele><time>2026-04-08T10:29:43Z</time></trkpt><trkpt lat="41.82175085159095" lon="2.7261511818458493"><ele>95.25</ele><time>2026-04-08T10:29:44Z</time></trkpt><trkpt lat="41.821808339990554" lon="2.7259778428042325"><ele>94.5</ele><time>2026-04-08T10:29:45Z</time></trkpt><trkpt lat="41.82185897965961" lon="2.7258061033639573"><ele>93.75</ele><time>2026-04-08T10:29:46Z</time></trkpt><trkpt lat="41.82190264220277" lon="2.7256297630551716"><ele>93.0</ele><time>2026-04-08T10:29:47Z</time></trkpt><trkpt lat="41.821944566012874" lon="2.725453909367618"><ele>93.0</ele><time>2026-04-08T10:29:48Z</time></trkpt><trkpt lat="41.821985088639856" lon="2.725284359408119"><ele>93.0</ele><time>2026-04-08T10:29:49Z</time></trkpt><trkpt lat="41.82202561186191" lon="2.7251152102488545"><ele>93.0</ele><time>2026-04-08T10:29:50Z</time></trkpt><trkpt lat="41.822066697661434" lon="2.7249437127946554"><ele>93.0</ele><time>2026-04-08T10:29:51Z</time></trkpt><trkpt lat="41.82210663735753" lon="2.7247769993465396"><ele>92.25</ele><time>2026-04-08T10:29:52Z</time></trkpt><trkpt lat="41.8221454775681" lon="2.724614875300724"><ele>91.5</ele><time>2026-04-08T10:29:53Z</time></trkpt><trkpt lat="41.82216634183076" lon="2.724452078630506"><ele>90.75</ele><time>2026-04-08T10:29:54Z</time></trkpt><trkpt lat="41.822207376917724" lon="2.7243051112409313"><ele>90.0</ele><time>2026-04-08T10:29:55Z</time></trkpt><trkpt lat="41.82223937981465" lon="2.7241648719579086"><ele>89.83333333333333</ele><time>2026-04-08T10:29:56Z</time></trkpt><trkpt lat="41.82226795617638" lon="2.7240422889012885"><ele>89.66666666666667</ele><time>2026-04-08T10:29:57Z</time></trkpt><trkpt lat="41.822292877253325" lon="2.723940484816969"><ele>89.5</ele><time>2026-04-08T10:29:58Z</time></trkpt><trkpt lat="41.822313386635365" lon="2.723837529339953"><ele>89.33333333333334</ele><time>2026-04-08T10:29:59Z</time></trkpt><trkpt lat="41.82233476903709" lon="2.72374152613446"><ele>89.16666666666667</ele><time>2026-04-08T10:30:00Z</time></trkpt><trkpt lat="41.82235688573425" lon="2.72365833388224"><ele>89.0</ele><time>2026-04-08T10:30:01Z</time></trkpt><trkpt lat="41.8223955762415" lon="2.7235023691562055"><ele>88.6</ele><time>2026-04-08T10:30:03.001Z</time></trkpt><trkpt lat="41.822430503506666" lon="2.7233587688634087"><ele>88.2</ele><time>2026-04-08T10:30:05.001Z</time></trkpt><trkpt lat="41.82246227510091" lon="2.7232304418517694"><ele>87.8</ele><time>2026-04-08T10:30:07.001Z</time></trkpt><trkpt lat="41.82252081655041" lon="2.7231007981029003"><ele>87.39999999999999</ele><time>2026-04-08T10:30:09.001Z</time></trkpt><trkpt lat="41.82256751196583" lon="2.7230423393650343"><ele>87.0</ele><time>2026-04-08T10:30:10.001Z</time></trkpt><trkpt lat="41.82261704271522" lon="2.72297966309057"><ele>87.16666666666667</ele><time>2026-04-08T10:30:11.001Z</time></trkpt><trkpt lat="41.82266460886774" lon="2.7229115812476645"><ele>87.33333333333333</ele><time>2026-04-08T10:30:12.001Z</time></trkpt><trkpt lat="41.8226893716033" lon="2.7228247855478678"><ele>87.5</ele><time>2026-04-08T10:30:13.001Z</time></trkpt><trkpt lat="41.822688037662125" lon="2.72265527418676"><ele>87.66666666666666</ele><time>2026-04-08T10:30:15.001Z</time></trkpt><trkpt lat="41.82267013811567" lon="2.722566358333944"><ele>87.83333333333333</ele><time>2026-04-08T10:30:16.001Z</time></trkpt><trkpt lat="41.82266466678367" lon="2.7224690486774694"><ele>88.0</ele><time>2026-04-08T10:30:17.001Z</time></trkpt><trkpt lat="41.822672785766905" lon="2.722363505791159"><ele>88.0</ele><time>2026-04-08T10:30:18.001Z</time></trkpt><trkpt lat="41.822682964243334" lon="2.7222502010351777"><ele>88.0</ele><time>2026-04-08T10:30:19.001Z</time></trkpt><trkpt lat="41.822722945876535" lon="2.7221594701882754"><ele>88.0</ele><time>2026-04-08T10:30:20.001Z</time></trkpt><trkpt lat="41.82274301599271" lon="2.7220748794365868"><ele>88.0</ele><time>2026-04-08T10:30:21.001Z</time></trkpt><trkpt lat="41.82276317592957" lon="2.72198991038027"><ele>88.0</ele><time>2026-04-08T10:30:22.001Z</time></trkpt><trkpt lat="41.82278387311814" lon="2.721902676686162"><ele>88.0</ele><time>2026-04-08T10:30:23.001Z</time></trkpt><trkpt lat="41.82280661070944" lon="2.7218068429382005"><ele>88.0</ele><time>2026-04-08T10:30:24.001Z</time></trkpt><trkpt lat="41.822832423617335" lon="2.7216980475012718"><ele>88.0</ele><time>2026-04-08T10:30:25.001Z</time></trkpt><trkpt lat="41.82284681019726" lon="2.7215673316562734"><ele>88.0</ele><time>2026-04-08T10:30:26.001Z</time></trkpt><trkpt lat="41.82288272106966" lon="2.7214319505175206"><ele>88.0</ele><time>2026-04-08T10:30:27.001Z</time></trkpt><trkpt lat="41.82291456382045" lon="2.7213074636706938"><ele>88.0</ele><time>2026-04-08T10:30:28.001Z</time></trkpt><trkpt lat="41.822948954526325" lon="2.721164113416629"><ele>88.0</ele><time>2026-04-08T10:30:29.001Z</time></trkpt><trkpt lat="41.8229830555616" lon="2.7210062220571825"><ele>88.0</ele><time>2026-04-08T10:30:30.001Z</time></trkpt><trkpt lat="41.82302512079771" lon="2.7208441678391724"><ele>88.0</ele><time>2026-04-08T10:30:31.001Z</time></trkpt><trkpt lat="41.823065490400694" lon="2.7206756470820403"><ele>88.0</ele><time>2026-04-08T10:30:32.001Z</time></trkpt><trkpt lat="41.82310663746187" lon="2.7205047993180043"><ele>88.0</ele><time>2026-04-08T10:30:33.001Z</time></trkpt><trkpt lat="41.823145174677215" lon="2.7203310747556593"><ele>87.5</ele><time>2026-04-08T10:30:34.001Z</time></trkpt><trkpt lat="41.82318587505923" lon="2.720158115617526"><ele>87.0</ele><time>2026-04-08T10:30:35.001Z</time></trkpt><trkpt lat="41.823226159404406" lon="2.7199867158343864"><ele>86.5</ele><time>2026-04-08T10:30:36.001Z</time></trkpt><trkpt lat="41.82326348645605" lon="2.7198200861176134"><ele>86.0</ele><time>2026-04-08T10:30:37.001Z</time></trkpt><trkpt lat="41.82330113260859" lon="2.71964783704715"><ele>86.0</ele><time>2026-04-08T10:30:38.001Z</time></trkpt><trkpt lat="41.8233439638621" lon="2.719481465023637"><ele>86.0</ele><time>2026-04-08T10:30:39.001Z</time></trkpt><trkpt lat="41.8233779357449" lon="2.719316266315106"><ele>86.0</ele><time>2026-04-08T10:30:40.001Z</time></trkpt><trkpt lat="41.823421680675864" lon="2.7191578492645707"><ele>86.0</ele><time>2026-04-08T10:30:41.001Z</time></trkpt><trkpt lat="41.82345859482216" lon="2.719000664963335"><ele>85.5</ele><time>2026-04-08T10:30:42.001Z</time></trkpt><trkpt lat="41.82349310746827" lon="2.7188387921106716"><ele>85.0</ele><time>2026-04-08T10:30:43.001Z</time></trkpt><trkpt lat="41.82353522465403" lon="2.718678630057936"><ele>84.5</ele><time>2026-04-08T10:30:44.001Z</time></trkpt><trkpt lat="41.82357284869269" lon="2.71851445879409"><ele>84.0</ele><time>2026-04-08T10:30:45.001Z</time></trkpt><trkpt lat="41.82360961730156" lon="2.718353830892019"><ele>84.0</ele><time>2026-04-08T10:30:46.001Z</time></trkpt><trkpt lat="41.823642632669554" lon="2.7182057525365866"><ele>84.0</ele><time>2026-04-08T10:30:47.001Z</time></trkpt><trkpt lat="41.823677181070245" lon="2.7180668762236664"><ele>84.0</ele><time>2026-04-08T10:30:48.001Z</time></trkpt><trkpt lat="41.823701244696935" lon="2.7179615562220776"><ele>84.0</ele><time>2026-04-08T10:30:49.001Z</time></trkpt><trkpt lat="41.82374036978902" lon="2.7178566924708307"><ele>84.0</ele><time>2026-04-08T10:31:21Z</time></trkpt><trkpt lat="41.82376400827816" lon="2.717770459266917"><ele>84.5</ele><time>2026-04-08T10:31:22Z</time></trkpt><trkpt lat="41.823793165257115" lon="2.7176640949041566"><ele>85.0</ele><time>2026-04-08T10:31:23Z</time></trkpt><trkpt lat="41.82382214286454" lon="2.7175652368209695"><ele>85.5</ele><time>2026-04-08T10:31:24Z</time></trkpt><trkpt lat="41.823839662431816" lon="2.7174597352440992"><ele>86.0</ele><time>2026-04-08T10:31:25Z</time></trkpt><trkpt lat="41.82388672412887" lon="2.7173551760079873"><ele>86.5</ele><time>2026-04-08T10:31:26Z</time></trkpt><trkpt lat="41.8239393921778" lon="2.717241722747957"><ele>87.0</ele><time>2026-04-08T10:31:27Z</time></trkpt><trkpt lat="41.824000899754495" lon="2.7171357269546"><ele>87.0</ele><time>2026-04-08T10:31:28Z</time></trkpt><trkpt lat="41.824068798435015" lon="2.7170329509136777"><ele>87.0</ele><time>2026-04-08T10:31:29Z</time></trkpt><trkpt lat="41.824143884621606" lon="2.716936987266792"><ele>87.0</ele><time>2026-04-08T10:31:30Z</time></trkpt><trkpt lat="41.82422434498851" lon="2.7168482193139036"><ele>87.0</ele><time>2026-04-08T10:31:31Z</time></trkpt><trkpt lat="41.824313010140855" lon="2.716760502614612"><ele>87.0</ele><time>2026-04-08T10:31:32Z</time></trkpt><trkpt lat="41.82440772258066" lon="2.7166700130681507"><ele>87.0</ele><time>2026-04-08T10:31:33Z</time></trkpt><trkpt lat="41.8245023441869" lon="2.7165686870648824"><ele>87.0</ele><time>2026-04-08T10:31:34Z</time></trkpt><trkpt lat="41.82459849390605" lon="2.71646802167309"><ele>87.0</ele><time>2026-04-08T10:31:35Z</time></trkpt><trkpt lat="41.82469669618174" lon="2.7163666225748364"><ele>87.0</ele><time>2026-04-08T10:31:36Z</time></trkpt><trkpt lat="41.82479563162813" lon="2.716260364042253"><ele>87.0</ele><time>2026-04-08T10:31:37Z</time></trkpt><trkpt lat="41.824895991169036" lon="2.7161533828288844"><ele>87.0</ele><time>2026-04-08T10:31:38Z</time></trkpt><trkpt lat="41.82499478136242" lon="2.7160481887060963"><ele>87.0</ele><time>2026-04-08T10:31:39Z</time></trkpt><trkpt lat="41.82509637304202" lon="2.7159394151175844"><ele>87.0</ele><time>2026-04-08T10:31:40Z</time></trkpt><trkpt lat="41.82519922956273" lon="2.7158328320869765"><ele>87.0</ele><time>2026-04-08T10:31:41Z</time></trkpt><trkpt lat="41.825301828436984" lon="2.7157264177635962"><ele>87.0</ele><time>2026-04-08T10:31:42Z</time></trkpt><trkpt lat="41.825403252109055" lon="2.71561992118661"><ele>87.0</ele><time>2026-04-08T10:31:43Z</time></trkpt><trkpt lat="41.82550761360771" lon="2.715513342557196"><ele>87.0</ele><time>2026-04-08T10:31:44Z</time></trkpt><trkpt lat="41.82561219260205" lon="2.7154084561729284"><ele>87.0</ele><time>2026-04-08T10:31:45Z</time></trkpt><trkpt lat="41.82571699799503" lon="2.715302263517655"><ele>87.0</ele><time>2026-04-08T10:31:46Z</time></trkpt><trkpt lat="41.82581658009203" lon="2.71519861347352"><ele>87.0</ele><time>2026-04-08T10:31:47Z</time></trkpt><trkpt lat="41.825910055777776" lon="2.7150953194479492"><ele>87.0</ele><time>2026-04-08T10:31:48Z</time></trkpt><trkpt lat="41.82600443879661" lon="2.714996529795984"><ele>87.75</ele><time>2026-04-08T10:31:49Z</time></trkpt><trkpt lat="41.826107841564976" lon="2.71490760838376"><ele>88.5</ele><time>2026-04-08T10:31:50Z</time></trkpt><trkpt lat="41.826206076109955" lon="2.714796214804795"><ele>89.25</ele><time>2026-04-08T10:31:51Z</time></trkpt><trkpt lat="41.82629953201025" lon="2.7146955122330816"><ele>90.0</ele><time>2026-04-08T10:31:52Z</time></trkpt><trkpt lat="41.826387667770675" lon="2.7146066472438615"><ele>90.0</ele><time>2026-04-08T10:31:53Z</time></trkpt><trkpt lat="41.82646593781548" lon="2.714529148933204"><ele>90.0</ele><time>2026-04-08T10:31:54Z</time></trkpt><trkpt lat="41.82653687476694" lon="2.7144623791532916"><ele>90.0</ele><time>2026-04-08T10:31:55Z</time></trkpt><trkpt lat="41.826600386042195" lon="2.7144026987454732"><ele>90.0</ele><time>2026-04-08T10:31:56Z</time></trkpt><trkpt lat="41.82665801736985" lon="2.714340788780099"><ele>90.0</ele><time>2026-04-08T10:31:57Z</time></trkpt><trkpt lat="41.826729233640336" lon="2.714262207658131"><ele>90.0</ele><time>2026-04-08T10:31:59.001Z</time></trkpt><trkpt lat="41.82679043225045" lon="2.714193212677478"><ele>90.5</ele><time>2026-04-08T10:32:01.001Z</time></trkpt><trkpt lat="41.826860180896055" lon="2.7141597642649886"><ele>91.0</ele><time>2026-04-08T10:32:02.001Z</time></trkpt><trkpt lat="41.82697856542188" lon="2.7141390490997805"><ele>91.5</ele><time>2026-04-08T10:32:04.001Z</time></trkpt><trkpt lat="41.82704085070828" lon="2.714095816664412"><ele>92.0</ele><time>2026-04-08T10:32:06.001Z</time></trkpt><trkpt lat="41.82708491009996" lon="2.714030143521276"><ele>92.5</ele><time>2026-04-08T10:32:08.001Z</time></trkpt><trkpt lat="41.827119018361486" lon="2.713956386971986"><ele>93.0</ele><time>2026-04-08T10:32:09.001Z</time></trkpt><trkpt lat="41.82715902054076" lon="2.7138688408498237"><ele>93.00000000000001</ele><time>2026-04-08T10:32:10.001Z</time></trkpt><trkpt lat="41.827201469436844" lon="2.713798880689499"><ele>93.0</ele><time>2026-04-08T10:32:11.001Z</time></trkpt><trkpt lat="41.827253034402204" lon="2.7137406614046053"><ele>93.0</ele><time>2026-04-08T10:32:12.001Z</time></trkpt><trkpt lat="41.82730674395154" lon="2.7136855663429786"><ele>93.0</ele><time>2026-04-08T10:32:13.001Z</time></trkpt><trkpt lat="41.82735903883082" lon="2.7136320840537453"><ele>93.0</ele><time>2026-04-08T10:32:14.001Z</time></trkpt><trkpt lat="41.82741996299313" lon="2.713598278858084"><ele>93.00000000000001</ele><time>2026-04-08T10:32:15.001Z</time></trkpt><trkpt lat="41.827475736235016" lon="2.7135527643294943"><ele>93.0</ele><time>2026-04-08T10:32:16.001Z</time></trkpt><trkpt lat="41.827582821421394" lon="2.7134653760091414"><ele>93.66666666666667</ele><time>2026-04-08T10:32:18.001Z</time></trkpt><trkpt lat="41.827643387093715" lon="2.7134159505335034"><ele>94.33333333333334</ele><time>2026-04-08T10:32:19.001Z</time></trkpt><trkpt lat="41.827702525181174" lon="2.713367690115205"><ele>95.0</ele><time>2026-04-08T10:32:20.001Z</time></trkpt><trkpt lat="41.82775697343449" lon="2.713310060278617"><ele>95.66666666666667</ele><time>2026-04-08T10:32:21.001Z</time></trkpt><trkpt lat="41.827820772209606" lon="2.713260231052352"><ele>96.33333333333334</ele><time>2026-04-08T10:32:22.001Z</time></trkpt><trkpt lat="41.82789391355227" lon="2.713202366699659"><ele>97.0</ele><time>2026-04-08T10:32:23.001Z</time></trkpt><trkpt lat="41.8279675179086" lon="2.7131437517273294"><ele>97.19999999999999</ele><time>2026-04-08T10:32:24.001Z</time></trkpt><trkpt lat="41.82804574899381" lon="2.7130827356761262"><ele>97.4</ele><time>2026-04-08T10:32:25.001Z</time></trkpt><trkpt lat="41.828128660683454" lon="2.713015241188505"><ele>97.6</ele><time>2026-04-08T10:32:26.001Z</time></trkpt><trkpt lat="41.82821652032193" lon="2.712944938473843"><ele>97.80000000000001</ele><time>2026-04-08T10:32:27.001Z</time></trkpt><trkpt lat="41.82830310831449" lon="2.712875683045734"><ele>98.0</ele><time>2026-04-08T10:32:28.001Z</time></trkpt><trkpt lat="41.82838907797127" lon="2.712802406138552"><ele>98.0</ele><time>2026-04-08T10:32:29.001Z</time></trkpt><trkpt lat="41.82847736989408" lon="2.7127263737490566"><ele>98.0</ele><time>2026-04-08T10:32:30.001Z</time></trkpt><trkpt lat="41.828567335976224" lon="2.712654148542854"><ele>98.0</ele><time>2026-04-08T10:32:31.001Z</time></trkpt><trkpt lat="41.82865918965454" lon="2.712584694729609"><ele>98.0</ele><time>2026-04-08T10:32:32.001Z</time></trkpt><trkpt lat="41.8287531312123" lon="2.712512875077135"><ele>98.0</ele><time>2026-04-08T10:32:33.001Z</time></trkpt><trkpt lat="41.82884894975081" lon="2.7124378412986676"><ele>98.0</ele><time>2026-04-08T10:32:34.001Z</time></trkpt><trkpt lat="41.8289455810849" lon="2.7123591099995896"><ele>98.0</ele><time>2026-04-08T10:32:35.001Z</time></trkpt><trkpt lat="41.82904795845198" lon="2.7122748580004887"><ele>98.0</ele><time>2026-04-08T10:32:36.001Z</time></trkpt><trkpt lat="41.829153137944274" lon="2.712189325693536"><ele>98.0</ele><time>2026-04-08T10:32:37.001Z</time></trkpt><trkpt lat="41.82925929445161" lon="2.712101723928723"><ele>97.75</ele><time>2026-04-08T10:32:38.001Z</time></trkpt><trkpt lat="41.829368786668326" lon="2.712011467342973"><ele>97.5</ele><time>2026-04-08T10:32:39.001Z</time></trkpt><trkpt lat="41.82948398275078" lon="2.711920553034106"><ele>97.25</ele><time>2026-04-08T10:32:40.001Z</time></trkpt><trkpt lat="41.82960404520917" lon="2.711833652557094"><ele>97.0</ele><time>2026-04-08T10:32:41.001Z</time></trkpt><trkpt lat="41.82972196316677" lon="2.711741877811595"><ele>97.0</ele><time>2026-04-08T10:32:42.001Z</time></trkpt><trkpt lat="41.829842956497174" lon="2.711644831129981"><ele>97.0</ele><time>2026-04-08T10:32:43.001Z</time></trkpt><trkpt lat="41.82996850153183" lon="2.711541051002257"><ele>97.0</ele><time>2026-04-08T10:32:44.001Z</time></trkpt><trkpt lat="41.83009672278787" lon="2.711440875593438"><ele>97.0</ele><time>2026-04-08T10:32:45.002Z</time></trkpt><trkpt lat="41.830226031899066" lon="2.711342075467624"><ele>96.33333333333334</ele><time>2026-04-08T10:32:46.002Z</time></trkpt><trkpt lat="41.830356742683186" lon="2.711240807677787"><ele>95.66666666666667</ele><time>2026-04-08T10:32:47.002Z</time></trkpt><trkpt lat="41.83048799526342" lon="2.711137798804958"><ele>95.0</ele><time>2026-04-08T10:32:48.002Z</time></trkpt><trkpt lat="41.830621981918355" lon="2.711027912329476"><ele>94.33333333333334</ele><time>2026-04-08T10:32:49.002Z</time></trkpt><trkpt lat="41.83076170174202" lon="2.7109160941291095"><ele>93.66666666666667</ele><time>2026-04-08T10:32:50.002Z</time></trkpt><trkpt lat="41.83090453650788" lon="2.710800299849626"><ele>93.0</ele><time>2026-04-08T10:32:51.002Z</time></trkpt><trkpt lat="41.831056484934145" lon="2.7106910329837053"><ele>93.0</ele><time>2026-04-08T10:32:52.002Z</time></trkpt><trkpt lat="41.83120636295376" lon="2.71058189264113"><ele>93.0</ele><time>2026-04-08T10:32:53.002Z</time></trkpt><trkpt lat="41.831358993950275" lon="2.7104755989948766"><ele>93.0</ele><time>2026-04-08T10:32:54.002Z</time></trkpt><trkpt lat="41.831515708951436" lon="2.710358992588049"><ele>94.0</ele><time>2026-04-08T10:32:55.002Z</time></trkpt><trkpt lat="41.83167548362671" lon="2.710237896405064"><ele>95.0</ele><time>2026-04-08T10:32:56.002Z</time></trkpt><trkpt lat="41.831835458203386" lon="2.710113502041879"><ele>96.0</ele><time>2026-04-08T10:32:57.002Z</time></trkpt><trkpt lat="41.83199575387576" lon="2.709987676116234"><ele>96.0</ele><time>2026-04-08T10:32:58.002Z</time></trkpt><trkpt lat="41.832156570784235" lon="2.709861006058306"><ele>96.0</ele><time>2026-04-08T10:32:59.002Z</time></trkpt><trkpt lat="41.83231878191501" lon="2.709732130286678"><ele>96.0</ele><time>2026-04-08T10:33:00.002Z</time></trkpt><trkpt lat="41.83248012977866" lon="2.7095985219334318"><ele>96.33333333333334</ele><time>2026-04-08T10:33:01.002Z</time></trkpt><trkpt lat="41.83264140149189" lon="2.709459074147697"><ele>96.66666666666667</ele><time>2026-04-08T10:33:02.002Z</time></trkpt><trkpt lat="41.832804092143824" lon="2.7093181435628844"><ele>97.0</ele><time>2026-04-08T10:33:03.002Z</time></trkpt><trkpt lat="41.83296773161876" lon="2.7091810358695194"><ele>97.0</ele><time>2026-04-08T10:33:04.002Z</time></trkpt><trkpt lat="41.83313048880809" lon="2.7090444090299592"><ele>97.0</ele><time>2026-04-08T10:33:05.002Z</time></trkpt><trkpt lat="41.83329538507134" lon="2.708911459916345"><ele>97.0</ele><time>2026-04-08T10:33:06.002Z</time></trkpt><trkpt lat="41.8334593317574" lon="2.7087838132158737"><ele>96.66666666666667</ele><time>2026-04-08T10:33:07.002Z</time></trkpt><trkpt lat="41.83362106227466" lon="2.7086585186517396"><ele>96.33333333333334</ele><time>2026-04-08T10:33:08.002Z</time></trkpt><trkpt lat="41.83378468882848" lon="2.708529963924866"><ele>96.0</ele><time>2026-04-08T10:33:09.002Z</time></trkpt><trkpt lat="41.83394505246541" lon="2.708392893847714"><ele>97.0</ele><time>2026-04-08T10:33:10.002Z</time></trkpt><trkpt lat="41.8341004716972" lon="2.708241025898379"><ele>98.0</ele><time>2026-04-08T10:33:11.002Z</time></trkpt><trkpt lat="41.83425207470071" lon="2.70807317013556"><ele>99.0</ele><time>2026-04-08T10:33:12.002Z</time></trkpt><trkpt lat="41.83439052043153" lon="2.7078873350484995"><ele>100.33333333333334</ele><time>2026-04-08T10:33:13.002Z</time></trkpt><trkpt lat="41.834518555245" lon="2.7076885652156157"><ele>101.66666666666667</ele><time>2026-04-08T10:33:14.002Z</time></trkpt><trkpt lat="41.834633551287375" lon="2.707472044094163"><ele>103.0</ele><time>2026-04-08T10:33:15.002Z</time></trkpt><trkpt lat="41.83474085645733" lon="2.707250599880995"><ele>103.0</ele><time>2026-04-08T10:33:16.002Z</time></trkpt><trkpt lat="41.83485042861886" lon="2.707029232274307"><ele>103.0</ele><time>2026-04-08T10:33:17.002Z</time></trkpt><trkpt lat="41.83495722900048" lon="2.7068047891707665"><ele>103.0</ele><time>2026-04-08T10:33:18.002Z</time></trkpt><trkpt lat="41.83506403157759" lon="2.7065873621360272"><ele>104.0</ele><time>2026-04-08T10:33:19.002Z</time></trkpt><trkpt lat="41.83517024336758" lon="2.7063704896562712"><ele>105.0</ele><time>2026-04-08T10:33:20.002Z</time></trkpt><trkpt lat="41.83527686131519" lon="2.7061566985739898"><ele>106.0</ele><time>2026-04-08T10:33:21Z</time></trkpt><trkpt lat="41.83538271082303" lon="2.7059433569301667"><ele>106.0</ele><time>2026-04-08T10:33:22Z</time></trkpt><trkpt lat="41.83548802522858" lon="2.7057317838193566"><ele>106.0</ele><time>2026-04-08T10:33:23Z</time></trkpt><trkpt lat="41.83559367901304" lon="2.7055232396788025"><ele>106.0</ele><time>2026-04-08T10:33:24Z</time></trkpt><trkpt lat="41.83569607526415" lon="2.7053092228094657"><ele>106.33333333333334</ele><time>2026-04-08T10:33:25Z</time></trkpt><trkpt lat="41.83580049576572" lon="2.7050961444081105"><ele>106.66666666666666</ele><time>2026-04-08T10:33:26Z</time></trkpt><trkpt lat="41.835909941733156" lon="2.7048872710511502"><ele>107.0</ele><time>2026-04-08T10:33:27Z</time></trkpt><trkpt lat="41.83603074097354" lon="2.7046877982984743"><ele>107.33333333333333</ele><time>2026-04-08T10:33:28Z</time></trkpt><trkpt lat="41.836158582055305" lon="2.704496345391224"><ele>107.66666666666666</ele><time>2026-04-08T10:33:29Z</time></trkpt><trkpt lat="41.83629688912351" lon="2.7043143156354814"><ele>108.0</ele><time>2026-04-08T10:33:30Z</time></trkpt><trkpt lat="41.83644720345765" lon="2.704142498692584"><ele>108.0</ele><time>2026-04-08T10:33:31Z</time></trkpt><trkpt lat="41.83659597379099" lon="2.7039678817987793"><ele>108.0</ele><time>2026-04-08T10:33:32Z</time></trkpt><trkpt lat="41.836748045538776" lon="2.703791037812283"><ele>108.0</ele><time>2026-04-08T10:33:33Z</time></trkpt><trkpt lat="41.83690102969436" lon="2.703620580903902"><ele>109.0</ele><time>2026-04-08T10:33:34Z</time></trkpt><trkpt lat="41.83705348598662" lon="2.703450743833722"><ele>110.0</ele><time>2026-04-08T10:33:35Z</time></trkpt><trkpt lat="41.83720461814258" lon="2.703276934339252"><ele>111.0</ele><time>2026-04-08T10:33:36Z</time></trkpt><trkpt lat="41.8373527911999" lon="2.703106216837672"><ele>111.0</ele><time>2026-04-08T10:33:37Z</time></trkpt><trkpt lat="41.837500017437414" lon="2.7029375656940684"><ele>111.0</ele><time>2026-04-08T10:33:38Z</time></trkpt><trkpt lat="41.83764773881021" lon="2.7027742174154437"><ele>111.0</ele><time>2026-04-08T10:33:39Z</time></trkpt><trkpt lat="41.83779384640608" lon="2.702607384454132"><ele>110.0</ele><time>2026-04-08T10:33:40Z</time></trkpt><trkpt lat="41.837938778020195" lon="2.702439937211681"><ele>109.0</ele><time>2026-04-08T10:33:41Z</time></trkpt><trkpt lat="41.83808307653172" lon="2.7022726658295104"><ele>108.0</ele><time>2026-04-08T10:33:42Z</time></trkpt><trkpt lat="41.83822537501672" lon="2.7021064985162617"><ele>108.0</ele><time>2026-04-08T10:33:43Z</time></trkpt><trkpt lat="41.83836714366195" lon="2.7019480472855975"><ele>108.0</ele><time>2026-04-08T10:33:44Z</time></trkpt><trkpt lat="41.83850343262517" lon="2.7017939117408387"><ele>108.0</ele><time>2026-04-08T10:33:45Z</time></trkpt><trkpt lat="41.838643150558255" lon="2.7016346287318207"><ele>108.66666666666666</ele><time>2026-04-08T10:33:46Z</time></trkpt><trkpt lat="41.83878589360866" lon="2.7014702710959506"><ele>109.33333333333333</ele><time>2026-04-08T10:33:47Z</time></trkpt><trkpt lat="41.83892968463873" lon="2.7013047877869227"><ele>110.0</ele><time>2026-04-08T10:33:48Z</time></trkpt><trkpt lat="41.83907457549106" lon="2.7011365761933748"><ele>110.33333333333333</ele><time>2026-04-08T10:33:49Z</time></trkpt><trkpt lat="41.83922012879831" lon="2.7009638489013"><ele>110.66666666666666</ele><time>2026-04-08T10:33:50Z</time></trkpt><trkpt lat="41.83937152033568" lon="2.700791315462986"><ele>111.0</ele><time>2026-04-08T10:33:51Z</time></trkpt><trkpt lat="41.839524798316624" lon="2.700619215618786"><ele>111.33333333333334</ele><time>2026-04-08T10:33:52Z</time></trkpt><trkpt lat="41.839679666524134" lon="2.7004489033044607"><ele>111.66666666666667</ele><time>2026-04-08T10:33:53Z</time></trkpt><trkpt lat="41.8398334003684" lon="2.7002727970553253"><ele>112.0</ele><time>2026-04-08T10:33:54Z</time></trkpt><trkpt lat="41.83998742138517" lon="2.700096257380177"><ele>112.0</ele><time>2026-04-08T10:33:55Z</time></trkpt><trkpt lat="41.84014084663404" lon="2.6999217720776696"><ele>112.0</ele><time>2026-04-08T10:33:56Z</time></trkpt><trkpt lat="41.84029514053702" lon="2.6997483936668853"><ele>112.0</ele><time>2026-04-08T10:33:57Z</time></trkpt><trkpt lat="41.84045254452659" lon="2.699576280484363"><ele>112.33333333333334</ele><time>2026-04-08T10:33:58Z</time></trkpt><trkpt lat="41.840603894646925" lon="2.6994089104297077"><ele>112.66666666666666</ele><time>2026-04-08T10:33:59Z</time></trkpt><trkpt lat="41.84075276913499" lon="2.6992352010138885"><ele>113.0</ele><time>2026-04-08T10:34:00Z</time></trkpt><trkpt lat="41.84090333050108" lon="2.699063806487011"><ele>113.0</ele><time>2026-04-08T10:34:01Z</time></trkpt><trkpt lat="41.84105356999423" lon="2.6988927160260197"><ele>113.0</ele><time>2026-04-08T10:34:02Z</time></trkpt><trkpt lat="41.841203148532216" lon="2.698721257571354"><ele>113.0</ele><time>2026-04-08T10:34:03Z</time></trkpt><trkpt lat="41.84135170958107" lon="2.6985466934111404"><ele>113.0</ele><time>2026-04-08T10:34:04Z</time></trkpt><trkpt lat="41.841502195775185" lon="2.6983737460781967"><ele>113.0</ele><time>2026-04-08T10:34:05Z</time></trkpt><trkpt lat="41.84164810235767" lon="2.6982120300513253"><ele>113.0</ele><time>2026-04-08T10:34:06Z</time></trkpt><trkpt lat="41.84179555732333" lon="2.6980450422777116"><ele>113.0</ele><time>2026-04-08T10:34:07.001Z</time></trkpt><trkpt lat="41.841944366247624" lon="2.697873973871433"><ele>113.0</ele><time>2026-04-08T10:34:08.001Z</time></trkpt><trkpt lat="41.84209438346062" lon="2.6976996184687536"><ele>113.0</ele><time>2026-04-08T10:34:09.001Z</time></trkpt><trkpt lat="41.842245116262575" lon="2.6975259594434253"><ele>113.33333333333333</ele><time>2026-04-08T10:34:10.001Z</time></trkpt><trkpt lat="41.84239824121132" lon="2.697351282578395"><ele>113.66666666666666</ele><time>2026-04-08T10:34:11.001Z</time></trkpt><trkpt lat="41.842552194597125" lon="2.6971766247907025"><ele>114.0</ele><time>2026-04-08T10:34:12.001Z</time></trkpt><trkpt lat="41.84270304801267" lon="2.69700888196108"><ele>114.66666666666666</ele><time>2026-04-08T10:34:13.001Z</time></trkpt><trkpt lat="41.842849955915014" lon="2.696842540243688"><ele>115.33333333333333</ele><time>2026-04-08T10:34:14.001Z</time></trkpt><trkpt lat="41.84299505361059" lon="2.696674446764796"><ele>116.0</ele><time>2026-04-08T10:34:15.001Z</time></trkpt><trkpt lat="41.84313915424186" lon="2.6965114407779147"><ele>116.0</ele><time>2026-04-08T10:34:16.001Z</time></trkpt><trkpt lat="41.843279536895814" lon="2.696351901933533"><ele>116.0</ele><time>2026-04-08T10:34:17.001Z</time></trkpt><trkpt lat="41.843418232689864" lon="2.696194755502057"><ele>116.0</ele><time>2026-04-08T10:34:18.001Z</time></trkpt><trkpt lat="41.84355641221881" lon="2.69604004622449"><ele>116.33333333333333</ele><time>2026-04-08T10:34:19.001Z</time></trkpt><trkpt lat="41.843697552891236" lon="2.695881148327986"><ele>116.66666666666666</ele><time>2026-04-08T10:34:20.001Z</time></trkpt><trkpt lat="41.84384447648726" lon="2.6957155883101245"><ele>117.0</ele><time>2026-04-08T10:34:21.001Z</time></trkpt><trkpt lat="41.84399116213025" lon="2.6955496845970397"><ele>117.0</ele><time>2026-04-08T10:34:22.001Z</time></trkpt><trkpt lat="41.84413874792897" lon="2.695382058068841"><ele>117.0</ele><time>2026-04-08T10:34:23.001Z</time></trkpt><trkpt lat="41.84428509489732" lon="2.6952173863124584"><ele>117.0</ele><time>2026-04-08T10:34:24.001Z</time></trkpt><trkpt lat="41.84442933692073" lon="2.6950561546867706"><ele>116.33333333333334</ele><time>2026-04-08T10:34:25.001Z</time></trkpt><trkpt lat="41.84457495648637" lon="2.694894518786672"><ele>115.66666666666667</ele><time>2026-04-08T10:34:26.001Z</time></trkpt><trkpt lat="41.84471867030813" lon="2.6947353559521305"><ele>115.0</ele><time>2026-04-08T10:34:27.001Z</time></trkpt><trkpt lat="41.84486273566064" lon="2.6945743626470704"><ele>114.66666666666667</ele><time>2026-04-08T10:34:28.001Z</time></trkpt><trkpt lat="41.845006581692694" lon="2.69441093685523"><ele>114.33333333333334</ele><time>2026-04-08T10:34:29.001Z</time></trkpt><trkpt lat="41.84515122850634" lon="2.694244134756514"><ele>114.0</ele><time>2026-04-08T10:34:30.001Z</time></trkpt><trkpt lat="41.84529591593307" lon="2.6940757035245024"><ele>115.66666666666666</ele><time>2026-04-08T10:34:31.001Z</time></trkpt><trkpt lat="41.845440993263644" lon="2.693909459438253"><ele>117.33333333333333</ele><time>2026-04-08T10:34:32.001Z</time></trkpt><trkpt lat="41.8455885925925" lon="2.6937418855530137"><ele>119.0</ele><time>2026-04-08T10:34:33.001Z</time></trkpt><trkpt lat="41.84573632634686" lon="2.693577130133839"><ele>119.0</ele><time>2026-04-08T10:34:34.001Z</time></trkpt><trkpt lat="41.84588526519473" lon="2.6934107424401272"><ele>119.0</ele><time>2026-04-08T10:34:35.001Z</time></trkpt><trkpt lat="41.846033584004594" lon="2.693242233547188"><ele>119.0</ele><time>2026-04-08T10:34:36.001Z</time></trkpt><trkpt lat="41.84618280869134" lon="2.693071635162352"><ele>119.33333333333333</ele><time>2026-04-08T10:34:37.001Z</time></trkpt><trkpt lat="41.84633269915795" lon="2.6928973827127782"><ele>119.66666666666666</ele><time>2026-04-08T10:34:38.001Z</time></trkpt><trkpt lat="41.84648250147135" lon="2.6927245079650834"><ele>120.0</ele><time>2026-04-08T10:34:39.001Z</time></trkpt><trkpt lat="41.846633376914596" lon="2.692551491343645"><ele>120.0</ele><time>2026-04-08T10:34:40.001Z</time></trkpt><trkpt lat="41.84678495477211" lon="2.6923804060357885"><ele>120.0</ele><time>2026-04-08T10:34:41.001Z</time></trkpt><trkpt lat="41.846936102755045" lon="2.6922112793020325"><ele>120.0</ele><time>2026-04-08T10:34:42.001Z</time></trkpt><trkpt lat="41.84708718897212" lon="2.6920405976497648"><ele>120.33333333333334</ele><time>2026-04-08T10:34:43.001Z</time></trkpt><trkpt lat="41.84723723584172" lon="2.6918680208846206"><ele>120.66666666666667</ele><time>2026-04-08T10:34:44.001Z</time></trkpt><trkpt lat="41.847386450290124" lon="2.691698798965735"><ele>121.0</ele><time>2026-04-08T10:34:45.001Z</time></trkpt><trkpt lat="41.84753427740402" lon="2.691529837265116"><ele>121.0</ele><time>2026-04-08T10:34:46.001Z</time></trkpt><trkpt lat="41.847683512782794" lon="2.691362617488895"><ele>121.0</ele><time>2026-04-08T10:34:47.001Z</time></trkpt><trkpt lat="41.84783268502955" lon="2.6911965467749326"><ele>121.0</ele><time>2026-04-08T10:34:48.001Z</time></trkpt><trkpt lat="41.84798239734046" lon="2.691029556438173"><ele>121.0</ele><time>2026-04-08T10:34:49.001Z</time></trkpt><trkpt lat="41.84813164687016" lon="2.690861953208027"><ele>121.0</ele><time>2026-04-08T10:34:50.001Z</time></trkpt><trkpt lat="41.84828117856873" lon="2.6906938235453612"><ele>121.0</ele><time>2026-04-08T10:34:51.001Z</time></trkpt><trkpt lat="41.8484298202146" lon="2.6905238093020656"><ele>121.33333333333334</ele><time>2026-04-08T10:34:52.002Z</time></trkpt><trkpt lat="41.848580262498366" lon="2.6903527248944172"><ele>121.66666666666666</ele><time>2026-04-08T10:34:53.002Z</time></trkpt><trkpt lat="41.84872913767652" lon="2.6901830244305986"><ele>122.0</ele><time>2026-04-08T10:34:54.002Z</time></trkpt><trkpt lat="41.84887875774388" lon="2.690009158763823"><ele>122.0</ele><time>2026-04-08T10:34:55.002Z</time></trkpt><trkpt lat="41.84902814119382" lon="2.689836079499472"><ele>122.0</ele><time>2026-04-08T10:34:56.002Z</time></trkpt><trkpt lat="41.849176019058156" lon="2.6896583832111727"><ele>122.0</ele><time>2026-04-08T10:34:57.002Z</time></trkpt><trkpt lat="41.849323835887176" lon="2.6894747353595223"><ele>122.0</ele><time>2026-04-08T10:34:58.002Z</time></trkpt><trkpt lat="41.849470494246006" lon="2.6892835991654436"><ele>122.0</ele><time>2026-04-08T10:34:59.002Z</time></trkpt><trkpt lat="41.8496136556141" lon="2.6890833292789975"><ele>122.0</ele><time>2026-04-08T10:35:00.002Z</time></trkpt><trkpt lat="41.8497516035644" lon="2.6888719275137563"><ele>122.0</ele><time>2026-04-08T10:35:01.002Z</time></trkpt><trkpt lat="41.84988025978846" lon="2.688650968782365"><ele>122.0</ele><time>2026-04-08T10:35:02.002Z</time></trkpt><trkpt lat="41.850005504526486" lon="2.6884217532937718"><ele>122.0</ele><time>2026-04-08T10:35:03.002Z</time></trkpt><trkpt lat="41.85012522935567" lon="2.688187746556084"><ele>122.66666666666666</ele><time>2026-04-08T10:35:04.002Z</time></trkpt><trkpt lat="41.850244754615744" lon="2.6879591899761697"><ele>123.33333333333334</ele><time>2026-04-08T10:35:05.002Z</time></trkpt><trkpt lat="41.850364757536376" lon="2.6877351950782766"><ele>124.0</ele><time>2026-04-08T10:35:06.002Z</time></trkpt><trkpt lat="41.850483835738224" lon="2.687509954646092"><ele>124.66666666666667</ele><time>2026-04-08T10:35:07.002Z</time></trkpt><trkpt lat="41.85060163605909" lon="2.6872868601709254"><ele>125.33333333333334</ele><time>2026-04-08T10:35:08.002Z</time></trkpt><trkpt lat="41.850719802178524" lon="2.687065630898722"><ele>126.0</ele><time>2026-04-08T10:35:09.002Z</time></trkpt><trkpt lat="41.85083796061743" lon="2.6868465554249057"><ele>125.66666666666666</ele><time>2026-04-08T10:35:10.002Z</time></trkpt><trkpt lat="41.85095406295869" lon="2.6866261745105633"><ele>125.33333333333333</ele><time>2026-04-08T10:35:11.002Z</time></trkpt><trkpt lat="41.85106836318847" lon="2.6864128176858775"><ele>125.0</ele><time>2026-04-08T10:35:12.002Z</time></trkpt><trkpt lat="41.851179065174804" lon="2.6862036841033796"><ele>126.0</ele><time>2026-04-08T10:35:13.002Z</time></trkpt><trkpt lat="41.85129013864016" lon="2.6859975906363442"><ele>127.0</ele><time>2026-04-08T10:35:14.002Z</time></trkpt><trkpt lat="41.85139675903524" lon="2.6857918453830023"><ele>128.0</ele><time>2026-04-08T10:35:15.002Z</time></trkpt><trkpt lat="41.85150157301821" lon="2.6855922886195267"><ele>128.0</ele><time>2026-04-08T10:35:16.002Z</time></trkpt><trkpt lat="41.85160190657823" lon="2.6854049568328278"><ele>128.0</ele><time>2026-04-08T10:35:17.002Z</time></trkpt><trkpt lat="41.851694679578486" lon="2.685225845980936"><ele>128.0</ele><time>2026-04-08T10:35:18.002Z</time></trkpt><trkpt lat="41.85178423013206" lon="2.685052784009843"><ele>129.0</ele><time>2026-04-08T10:35:19.002Z</time></trkpt><trkpt lat="41.85187202111326" lon="2.6848829679131168"><ele>130.0</ele><time>2026-04-08T10:35:20.002Z</time></trkpt><trkpt lat="41.85196017183291" lon="2.684713597306334"><ele>131.0</ele><time>2026-04-08T10:35:21.002Z</time></trkpt><trkpt lat="41.852046239844455" lon="2.684549661739647"><ele>131.0</ele><time>2026-04-08T10:35:22.002Z</time></trkpt><trkpt lat="41.852128744309944" lon="2.6843933228774763"><ele>131.0</ele><time>2026-04-08T10:35:23.002Z</time></trkpt><trkpt lat="41.852204049828124" lon="2.68425103673293"><ele>131.0</ele><time>2026-04-08T10:35:24.002Z</time></trkpt><trkpt lat="41.85227521434415" lon="2.6841178449879215"><ele>131.0</ele><time>2026-04-08T10:35:25.002Z</time></trkpt><trkpt lat="41.85234420998448" lon="2.68398974347932"><ele>131.0</ele><time>2026-04-08T10:35:26.002Z</time></trkpt><trkpt lat="41.85241502696997" lon="2.6838547517175804"><ele>131.0</ele><time>2026-04-08T10:35:27Z</time></trkpt><trkpt lat="41.85248372044857" lon="2.6837188532661034"><ele>131.0</ele><time>2026-04-08T10:35:28Z</time></trkpt><trkpt lat="41.8525471475819" lon="2.683592788424901"><ele>131.0</ele><time>2026-04-08T10:35:29Z</time></trkpt><trkpt lat="41.852607373952985" lon="2.6834795121364765"><ele>130.8</ele><time>2026-04-08T10:35:30Z</time></trkpt><trkpt lat="41.852658326049955" lon="2.6833868810143024"><ele>130.6</ele><time>2026-04-08T10:35:31Z</time></trkpt><trkpt lat="41.852707812398506" lon="2.6832942154812316"><ele>130.4</ele><time>2026-04-08T10:35:32Z</time></trkpt><trkpt lat="41.85276361518804" lon="2.6831881317128516"><ele>130.2</ele><time>2026-04-08T10:35:33Z</time></trkpt><trkpt lat="41.8528271462254" lon="2.683063464916523"><ele>130.0</ele><time>2026-04-08T10:35:34Z</time></trkpt><trkpt lat="41.85289415551454" lon="2.6829358698857484"><ele>130.0</ele><time>2026-04-08T10:35:35Z</time></trkpt><trkpt lat="41.85296838979741" lon="2.6827940061497264"><ele>130.0</ele><time>2026-04-08T10:35:36Z</time></trkpt><trkpt lat="41.853049163920744" lon="2.682638540780032"><ele>130.0</ele><time>2026-04-08T10:35:37Z</time></trkpt><trkpt lat="41.85313445214166" lon="2.682478235593208"><ele>130.0</ele><time>2026-04-08T10:35:38Z</time></trkpt><trkpt lat="41.853226934119505" lon="2.6823104182326083"><ele>130.0</ele><time>2026-04-08T10:35:39Z</time></trkpt><trkpt lat="41.853318512001266" lon="2.682137995307668"><ele>130.0</ele><time>2026-04-08T10:35:40Z</time></trkpt><trkpt lat="41.853407330020886" lon="2.6819633706102906"><ele>130.0</ele><time>2026-04-08T10:35:41Z</time></trkpt><trkpt lat="41.85349972865272" lon="2.681783034251927"><ele>130.0</ele><time>2026-04-08T10:35:42Z</time></trkpt><trkpt lat="41.853597685821505" lon="2.6815959542233827"><ele>130.0</ele><time>2026-04-08T10:35:43Z</time></trkpt><trkpt lat="41.85369283918347" lon="2.6814097304080855"><ele>130.0</ele><time>2026-04-08T10:35:44Z</time></trkpt><trkpt lat="41.85379109526221" lon="2.681222860814329"><ele>129.33333333333334</ele><time>2026-04-08T10:35:45Z</time></trkpt><trkpt lat="41.85388543337516" lon="2.68104581411762"><ele>128.66666666666666</ele><time>2026-04-08T10:35:46Z</time></trkpt><trkpt lat="41.85397562794428" lon="2.6808665336335062"><ele>128.0</ele><time>2026-04-08T10:35:47Z</time></trkpt><trkpt lat="41.85407051323472" lon="2.680686043042015"><ele>128.0</ele><time>2026-04-08T10:35:48Z</time></trkpt><trkpt lat="41.85416440230927" lon="2.6805105686064103"><ele>128.0</ele><time>2026-04-08T10:35:49Z</time></trkpt><trkpt lat="41.85425379484665" lon="2.6803551723640076"><ele>128.0</ele><time>2026-04-08T10:35:50Z</time></trkpt><trkpt lat="41.854343858377575" lon="2.68021391324061"><ele>128.0</ele><time>2026-04-08T10:35:51Z</time></trkpt><trkpt lat="41.854441782870715" lon="2.680079420732025"><ele>128.75</ele><time>2026-04-08T10:35:52Z</time></trkpt><trkpt lat="41.8545338407932" lon="2.6799434696846296"><ele>129.5</ele><time>2026-04-08T10:35:53Z</time></trkpt><trkpt lat="41.854613245781934" lon="2.6798008596329423"><ele>130.25</ele><time>2026-04-08T10:35:54Z</time></trkpt><trkpt lat="41.854687356554265" lon="2.6796629412082176"><ele>131.0</ele><time>2026-04-08T10:35:55Z</time></trkpt><trkpt lat="41.85475253343233" lon="2.679544021481151"><ele>131.0</ele><time>2026-04-08T10:35:56Z</time></trkpt><trkpt lat="41.854820684852044" lon="2.679446586389289"><ele>131.0</ele><time>2026-04-08T10:35:57Z</time></trkpt><trkpt lat="41.85489516934661" lon="2.6793701092608884"><ele>131.0</ele><time>2026-04-08T10:35:58Z</time></trkpt><trkpt lat="41.854967043876705" lon="2.679316123220272"><ele>131.0</ele><time>2026-04-08T10:35:59Z</time></trkpt><trkpt lat="41.855042709756944" lon="2.679262110618314"><ele>131.0</ele><time>2026-04-08T10:36:00.001Z</time></trkpt><trkpt lat="41.85514417008379" lon="2.679235469526227"><ele>131.16666666666666</ele><time>2026-04-08T10:36:01.001Z</time></trkpt><trkpt lat="41.85520390691541" lon="2.6791747255548337"><ele>131.33333333333331</ele><time>2026-04-08T10:36:02.001Z</time></trkpt><trkpt lat="41.85525189705617" lon="2.679081994956667"><ele>131.5</ele><time>2026-04-08T10:36:03.001Z</time></trkpt><trkpt lat="41.85526554601565" lon="2.678971073643101"><ele>131.66666666666666</ele><time>2026-04-08T10:36:04.001Z</time></trkpt><trkpt lat="41.8552550095717" lon="2.678850563913795"><ele>131.83333333333334</ele><time>2026-04-08T10:36:05.001Z</time></trkpt><trkpt lat="41.85522506854719" lon="2.6787312616869796"><ele>132.0</ele><time>2026-04-08T10:36:06.001Z</time></trkpt><trkpt lat="41.855211276822246" lon="2.6786268016819337"><ele>132.57142857142856</ele><time>2026-04-08T10:36:07.001Z</time></trkpt><trkpt lat="41.85521831521322" lon="2.6785282260997803"><ele>133.14285714285714</ele><time>2026-04-08T10:36:08.001Z</time></trkpt><trkpt lat="41.85524569308131" lon="2.6784375655028168"><ele>133.71428571428572</ele><time>2026-04-08T10:36:09.001Z</time></trkpt><trkpt lat="41.855281958282546" lon="2.678363013627581"><ele>134.28571428571428</ele><time>2026-04-08T10:36:10.001Z</time></trkpt><trkpt lat="41.855317823808605" lon="2.678288722008798"><ele>134.85714285714286</ele><time>2026-04-08T10:36:11.001Z</time></trkpt><trkpt lat="41.85535160750109" lon="2.6782140029848547"><ele>135.42857142857142</ele><time>2026-04-08T10:36:12.001Z</time></trkpt><trkpt lat="41.85540696753277" lon="2.6781020599682166"><ele>136.0</ele><time>2026-04-08T10:36:14.001Z</time></trkpt><trkpt lat="41.855457370894385" lon="2.678004210813341"><ele>136.0</ele><time>2026-04-08T10:36:16.001Z</time></trkpt><trkpt lat="41.85552088363138" lon="2.6778928989423725"><ele>136.0</ele><time>2026-04-08T10:36:18.001Z</time></trkpt><trkpt lat="41.855593719964034" lon="2.677756704944637"><ele>136.0</ele><time>2026-04-08T10:36:20.001Z</time></trkpt><trkpt lat="41.85566804864284" lon="2.6776340195847617"><ele>136.0</ele><time>2026-04-08T10:36:22.001Z</time></trkpt><trkpt lat="41.85570204107844" lon="2.677559044010839"><ele>136.0</ele><time>2026-04-08T10:36:23.001Z</time></trkpt><trkpt lat="41.85573981007973" lon="2.677473304933823"><ele>136.0</ele><time>2026-04-08T10:36:24.001Z</time></trkpt><trkpt lat="41.85578626316282" lon="2.677381934270732"><ele>136.0</ele><time>2026-04-08T10:36:25.001Z</time></trkpt><trkpt lat="41.85583887866624" lon="2.6772855015821544"><ele>136.0</ele><time>2026-04-08T10:36:26.001Z</time></trkpt><trkpt lat="41.855893731383304" lon="2.677189966959892"><ele>136.0</ele><time>2026-04-08T10:36:27.001Z</time></trkpt><trkpt lat="41.85594758416065" lon="2.6770926097875125"><ele>136.0</ele><time>2026-04-08T10:36:28.001Z</time></trkpt><trkpt lat="41.85599812577465" lon="2.6769912966308596"><ele>136.0</ele><time>2026-04-08T10:36:29.001Z</time></trkpt><trkpt lat="41.856045068472326" lon="2.676890392737131"><ele>135.8</ele><time>2026-04-08T10:36:30.001Z</time></trkpt><trkpt lat="41.85609413876414" lon="2.6767928328818615"><ele>135.6</ele><time>2026-04-08T10:36:31.001Z</time></trkpt><trkpt lat="41.856146602930174" lon="2.676691705431714"><ele>135.4</ele><time>2026-04-08T10:36:32.001Z</time></trkpt><trkpt lat="41.856201298510754" lon="2.676587997035822"><ele>135.2</ele><time>2026-04-08T10:36:33.001Z</time></trkpt><trkpt lat="41.8562515280225" lon="2.676491536695974"><ele>135.0</ele><time>2026-04-08T10:36:34.001Z</time></trkpt><trkpt lat="41.85630704542401" lon="2.676388806695551"><ele>135.0</ele><time>2026-04-08T10:36:35.001Z</time></trkpt><trkpt lat="41.856359920684454" lon="2.6762886192705624"><ele>135.0</ele><time>2026-04-08T10:36:36.001Z</time></trkpt><trkpt lat="41.85640744519705" lon="2.676207320439255"><ele>135.0</ele><time>2026-04-08T10:36:37.001Z</time></trkpt><trkpt lat="41.8564533731279" lon="2.676124261247567"><ele>135.0</ele><time>2026-04-08T10:36:38.001Z</time></trkpt><trkpt lat="41.85650506192155" lon="2.6760326199254374"><ele>135.0</ele><time>2026-04-08T10:36:39.001Z</time></trkpt><trkpt lat="41.85655807219538" lon="2.675939766116974"><ele>135.0</ele><time>2026-04-08T10:36:40.001Z</time></trkpt><trkpt lat="41.85661418475079" lon="2.6758400267260334"><ele>134.4</ele><time>2026-04-08T10:36:41.001Z</time></trkpt><trkpt lat="41.856669659030494" lon="2.6757277636359316"><ele>133.8</ele><time>2026-04-08T10:36:42.001Z</time></trkpt><trkpt lat="41.8567279015784" lon="2.6756184763472697"><ele>133.2</ele><time>2026-04-08T10:36:43.001Z</time></trkpt><trkpt lat="41.85678736100008" lon="2.6754949981233342"><ele>132.6</ele><time>2026-04-08T10:36:44.001Z</time></trkpt><trkpt lat="41.85683791831594" lon="2.675404835645048"><ele>132.0</ele><time>2026-04-08T10:36:45.001Z</time></trkpt><trkpt lat="41.856877999577215" lon="2.6753365587362463"><ele>133.0</ele><time>2026-04-08T10:36:46.002Z</time></trkpt><trkpt lat="41.85695001979186" lon="2.6751975404393447"><ele>134.0</ele><time>2026-04-08T10:36:48.002Z</time></trkpt><trkpt lat="41.85701784327198" lon="2.6750705565360526"><ele>135.0</ele><time>2026-04-08T10:36:50.002Z</time></trkpt><trkpt lat="41.85707288422504" lon="2.6749819109555806"><ele>136.0</ele><time>2026-04-08T10:36:52.002Z</time></trkpt><trkpt lat="41.85711598953663" lon="2.6749057785705794"><ele>137.0</ele><time>2026-04-08T10:36:54.002Z</time></trkpt><trkpt lat="41.85718313000258" lon="2.674772948808473"><ele>137.0</ele><time>2026-04-08T10:36:56.002Z</time></trkpt><trkpt lat="41.85722159717997" lon="2.6746985768306453"><ele>137.0</ele><time>2026-04-08T10:36:57.002Z</time></trkpt><trkpt lat="41.85727024220223" lon="2.674617280010207"><ele>137.0</ele><time>2026-04-08T10:36:58.002Z</time></trkpt><trkpt lat="41.85732177664138" lon="2.674513724537605"><ele>137.0</ele><time>2026-04-08T10:36:59.002Z</time></trkpt><trkpt lat="41.85737511868852" lon="2.6744018693915446"><ele>137.0</ele><time>2026-04-08T10:37:00.002Z</time></trkpt><trkpt lat="41.85742958186008" lon="2.674289008502857"><ele>137.0</ele><time>2026-04-08T10:37:01.002Z</time></trkpt><trkpt lat="41.85748282496718" lon="2.6741775160550767"><ele>136.79999999999998</ele><time>2026-04-08T10:37:02.002Z</time></trkpt><trkpt lat="41.85753742056875" lon="2.674073495923258"><ele>136.6</ele><time>2026-04-08T10:37:03.002Z</time></trkpt><trkpt lat="41.857582197264634" lon="2.673970020499298"><ele>136.39999999999998</ele><time>2026-04-08T10:37:04.002Z</time></trkpt><trkpt lat="41.85764331984492" lon="2.6738584417225773"><ele>136.2</ele><time>2026-04-08T10:37:05.002Z</time></trkpt><trkpt lat="41.85770783731764" lon="2.6737335102217097"><ele>136.0</ele><time>2026-04-08T10:37:06.002Z</time></trkpt><trkpt lat="41.85776739544915" lon="2.6736130602588"><ele>136.2</ele><time>2026-04-08T10:37:07.002Z</time></trkpt><trkpt lat="41.8578274126918" lon="2.6734988005742495"><ele>136.39999999999998</ele><time>2026-04-08T10:37:08.002Z</time></trkpt><trkpt lat="41.85789647775451" lon="2.6733732394181007"><ele>136.6</ele><time>2026-04-08T10:37:09.002Z</time></trkpt><trkpt lat="41.85796220693805" lon="2.6732542568521707"><ele>136.79999999999998</ele><time>2026-04-08T10:37:10.002Z</time></trkpt><trkpt lat="41.85803043883551" lon="2.6731331390645874"><ele>137.0</ele><time>2026-04-08T10:37:11.002Z</time></trkpt><trkpt lat="41.85810120578637" lon="2.673009965188038"><ele>137.0</ele><time>2026-04-08T10:37:12.002Z</time></trkpt><trkpt lat="41.85816914058276" lon="2.6728869647117186"><ele>137.0</ele><time>2026-04-08T10:37:13.002Z</time></trkpt><trkpt lat="41.85823728863322" lon="2.672760341658633"><ele>137.0</ele><time>2026-04-08T10:37:14.002Z</time></trkpt><trkpt lat="41.858304137635145" lon="2.6726206847357163"><ele>137.0</ele><time>2026-04-08T10:37:15.002Z</time></trkpt><trkpt lat="41.8583646771594" lon="2.672491624501818"><ele>136.79999999999998</ele><time>2026-04-08T10:37:16.002Z</time></trkpt><trkpt lat="41.85843363578895" lon="2.6723591183484974"><ele>136.6</ele><time>2026-04-08T10:37:17.002Z</time></trkpt><trkpt lat="41.85849781405089" lon="2.6722318815706334"><ele>136.39999999999998</ele><time>2026-04-08T10:37:18.002Z</time></trkpt><trkpt lat="41.85855979829496" lon="2.6721116442896653"><ele>136.2</ele><time>2026-04-08T10:37:19.002Z</time></trkpt><trkpt lat="41.85862223176854" lon="2.6719972904983726"><ele>136.0</ele><time>2026-04-08T10:37:20.002Z</time></trkpt><trkpt lat="41.85867984621382" lon="2.671883188616614"><ele>136.0</ele><time>2026-04-08T10:37:21.002Z</time></trkpt><trkpt lat="41.85874159932252" lon="2.671765070786401"><ele>136.0</ele><time>2026-04-08T10:37:22.002Z</time></trkpt><trkpt lat="41.858810264153874" lon="2.671638086002087"><ele>136.0</ele><time>2026-04-08T10:37:23.002Z</time></trkpt><trkpt lat="41.85887667984349" lon="2.6715204462260074"><ele>136.0</ele><time>2026-04-08T10:37:24.002Z</time></trkpt><trkpt lat="41.85893439024772" lon="2.671406403248274"><ele>136.0</ele><time>2026-04-08T10:37:25.002Z</time></trkpt><trkpt lat="41.85899640394413" lon="2.6712908895567593"><ele>136.0</ele><time>2026-04-08T10:37:26.002Z</time></trkpt><trkpt lat="41.85905622471764" lon="2.671178118182375"><ele>136.0</ele><time>2026-04-08T10:37:27.002Z</time></trkpt><trkpt lat="41.8591159870208" lon="2.671062157528508"><ele>136.0</ele><time>2026-04-08T10:37:28.002Z</time></trkpt><trkpt lat="41.85917634129308" lon="2.670948637378963"><ele>136.0</ele><time>2026-04-08T10:37:29.002Z</time></trkpt><trkpt lat="41.859236972919255" lon="2.6708322146901864"><ele>136.0</ele><time>2026-04-08T10:37:30.002Z</time></trkpt><trkpt lat="41.85929975061606" lon="2.6707171221494685"><ele>136.8</ele><time>2026-04-08T10:37:31.002Z</time></trkpt><trkpt lat="41.8593601324033" lon="2.6706060406250773"><ele>137.6</ele><time>2026-04-08T10:37:32.003Z</time></trkpt><trkpt lat="41.85941514629788" lon="2.6705006644872307"><ele>138.4</ele><time>2026-04-08T10:37:33Z</time></trkpt><trkpt lat="41.859472050531984" lon="2.6703951889613795"><ele>139.2</ele><time>2026-04-08T10:37:34Z</time></trkpt><trkpt lat="41.85952415368513" lon="2.6702915026475202"><ele>140.0</ele><time>2026-04-08T10:37:35Z</time></trkpt><trkpt lat="41.85957171319295" lon="2.6701872875435684"><ele>140.0</ele><time>2026-04-08T10:37:36Z</time></trkpt><trkpt lat="41.859618705767545" lon="2.6700862212502368"><ele>140.0</ele><time>2026-04-08T10:37:37Z</time></trkpt><trkpt lat="41.85966533132937" lon="2.6699991358609427"><ele>140.0</ele><time>2026-04-08T10:37:38Z</time></trkpt><trkpt lat="41.859705839659114" lon="2.6699174365779177"><ele>140.0</ele><time>2026-04-08T10:37:39Z</time></trkpt><trkpt lat="41.859747945915" lon="2.6698392039860916"><ele>140.0</ele><time>2026-04-08T10:37:40Z</time></trkpt><trkpt lat="41.85979079832719" lon="2.669755429967395"><ele>140.0</ele><time>2026-04-08T10:37:41Z</time></trkpt><trkpt lat="41.85983880956351" lon="2.669670966533672"><ele>140.0</ele><time>2026-04-08T10:37:42Z</time></trkpt><trkpt lat="41.85988414715012" lon="2.6695788817877215"><ele>140.0</ele><time>2026-04-08T10:37:43Z</time></trkpt><trkpt lat="41.859930271128476" lon="2.6694757411134584"><ele>140.0</ele><time>2026-04-08T10:37:44Z</time></trkpt><trkpt lat="41.859979783034206" lon="2.669382625397237"><ele>140.0</ele><time>2026-04-08T10:37:45Z</time></trkpt><trkpt lat="41.860022251330356" lon="2.669297794964973"><ele>140.0</ele><time>2026-04-08T10:37:46Z</time></trkpt><trkpt lat="41.86006561912997" lon="2.669214062493077"><ele>140.0</ele><time>2026-04-08T10:37:47Z</time></trkpt><trkpt lat="41.86010715281778" lon="2.669141994283138"><ele>140.2</ele><time>2026-04-08T10:37:48Z</time></trkpt><trkpt lat="41.86017997469935" lon="2.669013822140971"><ele>140.4</ele><time>2026-04-08T10:37:50Z</time></trkpt><trkpt lat="41.860219199053006" lon="2.668943815474271"><ele>140.6</ele><time>2026-04-08T10:37:51Z</time></trkpt><trkpt lat="41.860292942608616" lon="2.668813159836791"><ele>140.8</ele><time>2026-04-08T10:37:53Z</time></trkpt><trkpt lat="41.86035328473189" lon="2.6687050555988407"><ele>141.0</ele><time>2026-04-08T10:37:55Z</time></trkpt><trkpt lat="41.86039065352685" lon="2.6686365309735107"><ele>141.0</ele><time>2026-04-08T10:37:58Z</time></trkpt><trkpt lat="41.86042554907803" lon="2.6685500786813843"><ele>141.0</ele><time>2026-04-08T10:38:10Z</time></trkpt><trkpt lat="41.86050169836357" lon="2.668417437021183"><ele>141.0</ele><time>2026-04-08T10:38:12Z</time></trkpt><trkpt lat="41.86054038233379" lon="2.6683377497461827"><ele>141.0</ele><time>2026-04-08T10:38:13.001Z</time></trkpt><trkpt lat="41.86058498472066" lon="2.6682572470522046"><ele>141.0</ele><time>2026-04-08T10:38:14.001Z</time></trkpt><trkpt lat="41.86061706540652" lon="2.6681768147859377"><ele>141.0</ele><time>2026-04-08T10:38:15.001Z</time></trkpt><trkpt lat="41.86065507576123" lon="2.668107712257214"><ele>141.0</ele><time>2026-04-08T10:38:16.001Z</time></trkpt><trkpt lat="41.8607171839567" lon="2.6679814175237437"><ele>141.0</ele><time>2026-04-08T10:38:18.001Z</time></trkpt><trkpt lat="41.86072188250817" lon="2.6678829146452583"><ele>141.0</ele><time>2026-04-08T10:38:20.001Z</time></trkpt><trkpt lat="41.86061926242584" lon="2.667885871749713"><ele>141.0</ele><time>2026-04-08T10:38:23.001Z</time></trkpt><trkpt lat="41.860512712381635" lon="2.667954522218244"><ele>141.0</ele><time>2026-04-08T10:38:25.001Z</time></trkpt><trkpt lat="41.86044518565559" lon="2.6679927027168677"><ele>141.0</ele><time>2026-04-08T10:38:26.001Z</time></trkpt><trkpt lat="41.8603790446039" lon="2.6680229415895207"><ele>141.0</ele><time>2026-04-08T10:38:27.001Z</time></trkpt><trkpt lat="41.86031820966746" lon="2.668056129222372"><ele>141.0</ele><time>2026-04-08T10:38:28.001Z</time></trkpt><trkpt lat="41.86025232784977" lon="2.6680723570709444"><ele>141.0</ele><time>2026-04-08T10:38:29.001Z</time></trkpt><trkpt lat="41.860180786925596" lon="2.668104881834784"><ele>141.0</ele><time>2026-04-08T10:38:30.001Z</time></trkpt><trkpt lat="41.860105362849424" lon="2.668141559890928"><ele>141.0</ele><time>2026-04-08T10:38:31.001Z</time></trkpt><trkpt lat="41.860038791568904" lon="2.668192652898139"><ele>141.0</ele><time>2026-04-08T10:38:32.001Z</time></trkpt><trkpt lat="41.8599656098952" lon="2.6682272202901243"><ele>140.66666666666666</ele><time>2026-04-08T10:38:33.001Z</time></trkpt><trkpt lat="41.859895941733605" lon="2.668259460317215"><ele>140.33333333333334</ele><time>2026-04-08T10:38:34.001Z</time></trkpt><trkpt lat="41.85983158416391" lon="2.6683114132137504"><ele>140.0</ele><time>2026-04-08T10:38:35.001Z</time></trkpt><trkpt lat="41.85973175569949" lon="2.6683506261713243"><ele>139.66666666666669</ele><time>2026-04-08T10:38:37.001Z</time></trkpt><trkpt lat="41.85965968084337" lon="2.6683559071249716"><ele>139.33333333333334</ele><time>2026-04-08T10:38:39.001Z</time></trkpt><trkpt lat="41.85959452694269" lon="2.668395359355503"><ele>139.0</ele><time>2026-04-08T10:38:40.001Z</time></trkpt><trkpt lat="41.85951295859139" lon="2.6683836236717555"><ele>139.0</ele><time>2026-04-08T10:38:41.001Z</time></trkpt><trkpt lat="41.85944563003228" lon="2.6683959061950695"><ele>139.0</ele><time>2026-04-08T10:38:42.001Z</time></trkpt><trkpt lat="41.85936884579331" lon="2.6684048662486037"><ele>139.0</ele><time>2026-04-08T10:38:43.001Z</time></trkpt><trkpt lat="41.85928508885852" lon="2.6684190779586565"><ele>139.0</ele><time>2026-04-08T10:38:44.001Z</time></trkpt><trkpt lat="41.85920374988758" lon="2.6684344818467847"><ele>139.0</ele><time>2026-04-08T10:38:45.001Z</time></trkpt><trkpt lat="41.859133271959124" lon="2.6684473424783315"><ele>139.0</ele><time>2026-04-08T10:38:46.001Z</time></trkpt><trkpt lat="41.85906813726544" lon="2.6684569460665175"><ele>139.0</ele><time>2026-04-08T10:38:47.001Z</time></trkpt><trkpt lat="41.85894675128948" lon="2.668468663160829"><ele>138.16666666666669</ele><time>2026-04-08T10:38:49.001Z</time></trkpt><trkpt lat="41.858878597420905" lon="2.668478000468195"><ele>137.33333333333334</ele><time>2026-04-08T10:38:50.001Z</time></trkpt><trkpt lat="41.85875967860076" lon="2.66848525649838"><ele>136.5</ele><time>2026-04-08T10:38:52.001Z</time></trkpt><trkpt lat="41.85868366731844" lon="2.6684105233309907"><ele>135.66666666666666</ele><time>2026-04-08T10:38:54.001Z</time></trkpt><trkpt lat="41.85865977226849" lon="2.668323327322144"><ele>134.83333333333331</ele><time>2026-04-08T10:38:56.001Z</time></trkpt><trkpt lat="41.85866462002054" lon="2.6682286039895766"><ele>134.0</ele><time>2026-04-08T10:39:04.002Z</time></trkpt><trkpt lat="41.858644415499974" lon="2.668098015927051"><ele>134.0</ele><time>2026-04-08T10:39:06.002Z</time></trkpt><trkpt lat="41.8585214758115" lon="2.6680576734019112"><ele>134.0</ele><time>2026-04-08T10:39:07.002Z</time></trkpt><trkpt lat="41.85847320356871" lon="2.667991763893352"><ele>134.0</ele><time>2026-04-08T10:39:08.002Z</time></trkpt><trkpt lat="41.858425564452745" lon="2.6679192590919047"><ele>134.0</ele><time>2026-04-08T10:39:09.002Z</time></trkpt><trkpt lat="41.85837464775947" lon="2.667845131083062"><ele>134.0</ele><time>2026-04-08T10:39:10.002Z</time></trkpt><trkpt lat="41.85832125193779" lon="2.6677804207900855"><ele>134.0</ele><time>2026-04-08T10:39:11.002Z</time></trkpt><trkpt lat="41.85826656534783" lon="2.667707051151754"><ele>133.66666666666666</ele><time>2026-04-08T10:39:12.002Z</time></trkpt><trkpt lat="41.85821233576414" lon="2.667630096492961"><ele>133.33333333333331</ele><time>2026-04-08T10:39:13.002Z</time></trkpt><trkpt lat="41.85815662613862" lon="2.6675511738645383"><ele>133.0</ele><time>2026-04-08T10:39:14.002Z</time></trkpt><trkpt lat="41.858093320311696" lon="2.667458415161681"><ele>132.66666666666666</ele><time>2026-04-08T10:39:15.002Z</time></trkpt><trkpt lat="41.858036220499045" lon="2.667379128107055"><ele>132.33333333333334</ele><time>2026-04-08T10:39:16.002Z</time></trkpt><trkpt lat="41.85798797478841" lon="2.6673110854012676"><ele>132.0</ele><time>2026-04-08T10:39:17.002Z</time></trkpt><trkpt lat="41.85792367112252" lon="2.667203042120036"><ele>132.0</ele><time>2026-04-08T10:39:19.002Z</time></trkpt><trkpt lat="41.857880826445495" lon="2.667131236039285"><ele>132.0</ele><time>2026-04-08T10:39:21.002Z</time></trkpt><trkpt lat="41.85795571096668" lon="2.6669457976860063"><ele>132.0</ele><time>2026-04-08T10:39:24.002Z</time></trkpt><trkpt lat="41.85805805432253" lon="2.666814996578506"><ele>132.0</ele><time>2026-04-08T10:39:26.002Z</time></trkpt><trkpt lat="41.85811031734442" lon="2.666748693323814"><ele>132.0</ele><time>2026-04-08T10:39:27.002Z</time></trkpt><trkpt lat="41.85821609530797" lon="2.666636149058443"><ele>132.16666666666666</ele><time>2026-04-08T10:39:29.002Z</time></trkpt><trkpt lat="41.858279604413845" lon="2.6665652308466252"><ele>132.33333333333334</ele><time>2026-04-08T10:39:31.002Z</time></trkpt><trkpt lat="41.858349885863305" lon="2.6665040566318794"><ele>132.5</ele><time>2026-04-08T10:39:35.002Z</time></trkpt><trkpt lat="41.85842963835186" lon="2.6663768429466352"><ele>132.66666666666669</ele><time>2026-04-08T10:39:37.002Z</time></trkpt><trkpt lat="41.858476871546635" lon="2.6663138242816893"><ele>132.83333333333334</ele><time>2026-04-08T10:39:38.002Z</time></trkpt><trkpt lat="41.85852938653276" lon="2.6662511609872643"><ele>133.0</ele><time>2026-04-08T10:39:39Z</time></trkpt><trkpt lat="41.85862028161762" lon="2.6661186024660473"><ele>133.33333333333334</ele><time>2026-04-08T10:39:41Z</time></trkpt><trkpt lat="41.85867736384479" lon="2.6660505985323453"><ele>133.66666666666669</ele><time>2026-04-08T10:39:42Z</time></trkpt><trkpt lat="41.85872583433313" lon="2.665988361845159"><ele>134.0</ele><time>2026-04-08T10:39:43Z</time></trkpt><trkpt lat="41.8588048113755" lon="2.665883582611691"><ele>134.33333333333334</ele><time>2026-04-08T10:39:45Z</time></trkpt><trkpt lat="41.858875197576296" lon="2.665794991897811"><ele>134.66666666666666</ele><time>2026-04-08T10:39:47Z</time></trkpt><trkpt lat="41.85893161593229" lon="2.6657209786933773"><ele>135.0</ele><time>2026-04-08T10:39:50Z</time></trkpt><trkpt lat="41.85898559508937" lon="2.6656480070431194"><ele>135.0</ele><time>2026-04-08T10:39:52Z</time></trkpt><trkpt lat="41.85905751078371" lon="2.6655212054629325"><ele>135.0</ele><time>2026-04-08T10:39:54Z</time></trkpt><trkpt lat="41.85910907769576" lon="2.6654544372512023"><ele>135.0</ele><time>2026-04-08T10:39:55Z</time></trkpt><trkpt lat="41.85916308092545" lon="2.6653869645923547"><ele>135.0</ele><time>2026-04-08T10:39:56Z</time></trkpt><trkpt lat="41.859227490333716" lon="2.6653059432199306"><ele>135.0</ele><time>2026-04-08T10:39:57Z</time></trkpt><trkpt lat="41.859291720775126" lon="2.6652219212298234"><ele>135.0</ele><time>2026-04-08T10:39:58Z</time></trkpt><trkpt lat="41.85935298581687" lon="2.6651426658837476"><ele>135.16666666666666</ele><time>2026-04-08T10:39:59Z</time></trkpt><trkpt lat="41.85941119074356" lon="2.6650671938547825"><ele>135.33333333333334</ele><time>2026-04-08T10:40:00Z</time></trkpt><trkpt lat="41.85946466722272" lon="2.6650011877707356"><ele>135.5</ele><time>2026-04-08T10:40:01Z</time></trkpt><trkpt lat="41.85951573812899" lon="2.6649458545379425"><ele>135.66666666666669</ele><time>2026-04-08T10:40:02Z</time></trkpt><trkpt lat="41.8595804125226" lon="2.6648767801286923"><ele>135.83333333333334</ele><time>2026-04-08T10:40:04Z</time></trkpt><trkpt lat="41.859657546522726" lon="2.6648080876616005"><ele>136.0</ele><time>2026-04-08T10:40:06Z</time></trkpt><trkpt lat="41.859703035409154" lon="2.6647354283086577"><ele>136.0</ele><time>2026-04-08T10:40:07Z</time></trkpt><trkpt lat="41.8597550989809" lon="2.6646660763714203"><ele>136.0</ele><time>2026-04-08T10:40:08Z</time></trkpt><trkpt lat="41.859816440709125" lon="2.6645874899394295"><ele>136.0</ele><time>2026-04-08T10:40:09Z</time></trkpt><trkpt lat="41.85987812207865" lon="2.6645053567489385"><ele>136.0</ele><time>2026-04-08T10:40:10Z</time></trkpt><trkpt lat="41.85993512914245" lon="2.6644272242922775"><ele>136.0</ele><time>2026-04-08T10:40:11Z</time></trkpt><trkpt lat="41.85998897472024" lon="2.6643597411730604"><ele>136.0</ele><time>2026-04-08T10:40:12Z</time></trkpt><trkpt lat="41.86003933564569" lon="2.664300441230553"><ele>136.0</ele><time>2026-04-08T10:40:13Z</time></trkpt><trkpt lat="41.8601060122818" lon="2.6641960166026477"><ele>136.0</ele><time>2026-04-08T10:40:15Z</time></trkpt><trkpt lat="41.86014378565426" lon="2.6641282014937215"><ele>136.0</ele><time>2026-04-08T10:40:18.001Z</time></trkpt><trkpt lat="41.860095620516226" lon="2.6640574085494544"><ele>136.0</ele><time>2026-04-08T10:40:19.001Z</time></trkpt><trkpt lat="41.860051942683846" lon="2.6639925164054"><ele>136.0</ele><time>2026-04-08T10:40:20.001Z</time></trkpt><trkpt lat="41.85998627586804" lon="2.6639117936716703"><ele>136.0</ele><time>2026-04-08T10:40:21.001Z</time></trkpt><trkpt lat="41.85992308375021" lon="2.663840284999477"><ele>136.0</ele><time>2026-04-08T10:40:22.001Z</time></trkpt><trkpt lat="41.85985227623868" lon="2.6637375504319234"><ele>136.0</ele><time>2026-04-08T10:40:24.001Z</time></trkpt><trkpt lat="41.85986105081798" lon="2.66363490850697"><ele>136.0</ele><time>2026-04-08T10:40:27.001Z</time></trkpt><trkpt lat="41.85998093514266" lon="2.6636090563042623"><ele>136.0</ele><time>2026-04-08T10:40:29.001Z</time></trkpt><trkpt lat="41.86006392331932" lon="2.663616304918725"><ele>136.0</ele><time>2026-04-08T10:40:30.001Z</time></trkpt><trkpt lat="41.8601437745501" lon="2.6636122861373814"><ele>136.4</ele><time>2026-04-08T10:40:31.001Z</time></trkpt><trkpt lat="41.86023727866553" lon="2.663611646876707"><ele>136.8</ele><time>2026-04-08T10:40:32.001Z</time></trkpt><trkpt lat="41.86033692085533" lon="2.6636108228289768"><ele>137.20000000000002</ele><time>2026-04-08T10:40:33.001Z</time></trkpt><trkpt lat="41.860443260127276" lon="2.6636021224990727"><ele>137.6</ele><time>2026-04-08T10:40:34.001Z</time></trkpt><trkpt lat="41.86054208837696" lon="2.6636010268009525"><ele>138.0</ele><time>2026-04-08T10:40:35.001Z</time></trkpt><trkpt lat="41.860632070310764" lon="2.6635975284164997"><ele>138.0</ele><time>2026-04-08T10:40:36.001Z</time></trkpt><trkpt lat="41.86071628810565" lon="2.663589347494818"><ele>138.0</ele><time>2026-04-08T10:40:37.001Z</time></trkpt><trkpt lat="41.860788520176264" lon="2.6635913994990497"><ele>138.0</ele><time>2026-04-08T10:40:38.001Z</time></trkpt><trkpt lat="41.86085189506832" lon="2.663593648252803"><ele>138.0</ele><time>2026-04-08T10:40:39.001Z</time></trkpt><trkpt lat="41.8609416897925" lon="2.6635918602427444"><ele>138.0</ele><time>2026-04-08T10:40:41.001Z</time></trkpt><trkpt lat="41.86104722504118" lon="2.663576709701013"><ele>138.0</ele><time>2026-04-08T10:40:44.001Z</time></trkpt><trkpt lat="41.86112778061747" lon="2.6635812604890683"><ele>138.5</ele><time>2026-04-08T10:40:46.001Z</time></trkpt><trkpt lat="41.861142593818464" lon="2.6632677196530405"><ele>139.0</ele><time>2026-04-08T10:40:52.001Z</time></trkpt><trkpt lat="41.86109257265699" lon="2.6631772185690266"><ele>139.5</ele><time>2026-04-08T10:40:55.001Z</time></trkpt><trkpt lat="41.86106891760414" lon="2.6630453623863786"><ele>140.0</ele><time>2026-04-08T10:40:58.001Z</time></trkpt><trkpt lat="41.86105583529283" lon="2.6629182595963674"><ele>140.0</ele><time>2026-04-08T10:41:00.001Z</time></trkpt><trkpt lat="41.861037473091926" lon="2.6627925714703102"><ele>140.0</ele><time>2026-04-08T10:41:02.001Z</time></trkpt><trkpt lat="41.86101448149487" lon="2.662626497718373"><ele>140.0</ele><time>2026-04-08T10:41:04.002Z</time></trkpt><trkpt lat="41.86100491559913" lon="2.6625345813991275"><ele>140.0</ele><time>2026-04-08T10:41:05.002Z</time></trkpt><trkpt lat="41.86099101682255" lon="2.662437715366507"><ele>140.0</ele><time>2026-04-08T10:41:06.002Z</time></trkpt><trkpt lat="41.8609744688379" lon="2.662329363009715"><ele>140.0</ele><time>2026-04-08T10:41:07.002Z</time></trkpt><trkpt lat="41.86096673186331" lon="2.662227386869947"><ele>139.83333333333331</ele><time>2026-04-08T10:41:08.002Z</time></trkpt><trkpt lat="41.86095758122396" lon="2.662125306691534"><ele>139.66666666666666</ele><time>2026-04-08T10:41:09.002Z</time></trkpt><trkpt lat="41.86094357862382" lon="2.6620228257608067"><ele>139.5</ele><time>2026-04-08T10:41:10.002Z</time></trkpt><trkpt lat="41.86092760719682" lon="2.6619130614233812"><ele>139.33333333333334</ele><time>2026-04-08T10:41:11.002Z</time></trkpt><trkpt lat="41.86091096793648" lon="2.6617992700793027"><ele>139.16666666666669</ele><time>2026-04-08T10:41:12.002Z</time></trkpt><trkpt lat="41.86089699590314" lon="2.661684221278263"><ele>139.0</ele><time>2026-04-08T10:41:13.002Z</time></trkpt><trkpt lat="41.86088184476159" lon="2.661577075501683"><ele>139.0</ele><time>2026-04-08T10:41:14.002Z</time></trkpt><trkpt lat="41.86086777286039" lon="2.6614856767842405"><ele>139.0</ele><time>2026-04-08T10:41:15.002Z</time></trkpt><trkpt lat="41.86085534981696" lon="2.661394564842428"><ele>139.0</ele><time>2026-04-08T10:41:16.002Z</time></trkpt><trkpt lat="41.860842945576344" lon="2.661302742505777"><ele>139.0</ele><time>2026-04-08T10:41:17.002Z</time></trkpt><trkpt lat="41.860832715462166" lon="2.6611983101661933"><ele>139.0</ele><time>2026-04-08T10:41:18.002Z</time></trkpt><trkpt lat="41.860819578423225" lon="2.66107923155164"><ele>139.0</ele><time>2026-04-08T10:41:19.002Z</time></trkpt><trkpt lat="41.86080412749489" lon="2.6609514353586903"><ele>139.0</ele><time>2026-04-08T10:41:20.002Z</time></trkpt><trkpt lat="41.86078356420307" lon="2.660819148327149"><ele>139.0</ele><time>2026-04-08T10:41:21.002Z</time></trkpt><trkpt lat="41.860768881639856" lon="2.6606770641540947"><ele>139.0</ele><time>2026-04-08T10:41:22.002Z</time></trkpt><trkpt lat="41.860750403433805" lon="2.660530497439881"><ele>139.0</ele><time>2026-04-08T10:41:23.002Z</time></trkpt><trkpt lat="41.860735533996355" lon="2.660391116502418"><ele>139.0</ele><time>2026-04-08T10:41:24.002Z</time></trkpt><trkpt lat="41.860728901113745" lon="2.6602597627188"><ele>139.0</ele><time>2026-04-08T10:41:25.002Z</time></trkpt><trkpt lat="41.86073711629866" lon="2.6601320722180466"><ele>139.0</ele><time>2026-04-08T10:41:26.002Z</time></trkpt><trkpt lat="41.86077718534731" lon="2.6600193686965317"><ele>139.0</ele><time>2026-04-08T10:41:27.002Z</time></trkpt><trkpt lat="41.860825207351766" lon="2.6599059541867205"><ele>139.0</ele><time>2026-04-08T10:41:28.002Z</time></trkpt><trkpt lat="41.860892144897704" lon="2.6598203606525095"><ele>139.0</ele><time>2026-04-08T10:41:29.002Z</time></trkpt><trkpt lat="41.860971283339815" lon="2.659762390550295"><ele>139.5</ele><time>2026-04-08T10:41:30.002Z</time></trkpt><trkpt lat="41.861065804785355" lon="2.6597051655660433"><ele>140.0</ele><time>2026-04-08T10:41:31.002Z</time></trkpt><trkpt lat="41.861168179541544" lon="2.659630978015815"><ele>140.5</ele><time>2026-04-08T10:41:32.002Z</time></trkpt><trkpt lat="41.861286873861324" lon="2.6595785936035514"><ele>141.0</ele><time>2026-04-08T10:41:33.002Z</time></trkpt><trkpt lat="41.86141217444957" lon="2.6595188070519207"><ele>141.0</ele><time>2026-04-08T10:41:34.002Z</time></trkpt><trkpt lat="41.861533724227385" lon="2.659455289831763"><ele>141.0</ele><time>2026-04-08T10:41:35.002Z</time></trkpt><trkpt lat="41.861648501748206" lon="2.659381729799103"><ele>141.0</ele><time>2026-04-08T10:41:36.002Z</time></trkpt><trkpt lat="41.86175897791503" lon="2.6592907246438786"><ele>141.0</ele><time>2026-04-08T10:41:37.002Z</time></trkpt><trkpt lat="41.86185802222705" lon="2.659192450678589"><ele>141.6</ele><time>2026-04-08T10:41:38.002Z</time></trkpt><trkpt lat="41.86195198241655" lon="2.659091009732012"><ele>142.2</ele><time>2026-04-08T10:41:39.002Z</time></trkpt><trkpt lat="41.86203630064971" lon="2.658990754040385"><ele>142.8</ele><time>2026-04-08T10:41:40.002Z</time></trkpt><trkpt lat="41.862105893017315" lon="2.6588975821361345"><ele>143.4</ele><time>2026-04-08T10:41:41.002Z</time></trkpt><trkpt lat="41.86216785673949" lon="2.6588090744197603"><ele>144.0</ele><time>2026-04-08T10:41:42.002Z</time></trkpt><trkpt lat="41.86221926081264" lon="2.6587155482105076"><ele>144.0</ele><time>2026-04-08T10:41:43.002Z</time></trkpt><trkpt lat="41.86226276686531" lon="2.6586218999154094"><ele>144.0</ele><time>2026-04-08T10:41:44.002Z</time></trkpt><trkpt lat="41.862287260329445" lon="2.6585170054425054"><ele>144.0</ele><time>2026-04-08T10:41:45Z</time></trkpt><trkpt lat="41.8622800023375" lon="2.6584000933554166"><ele>144.0</ele><time>2026-04-08T10:41:46Z</time></trkpt><trkpt lat="41.862252045136756" lon="2.658278425723135"><ele>144.0</ele><time>2026-04-08T10:41:47Z</time></trkpt><trkpt lat="41.86221661304295" lon="2.6581318751626184"><ele>143.5</ele><time>2026-04-08T10:41:48Z</time></trkpt><trkpt lat="41.862185027690614" lon="2.657948634779535"><ele>143.0</ele><time>2026-04-08T10:41:49Z</time></trkpt><trkpt lat="41.86214118441405" lon="2.6577780541386273"><ele>142.5</ele><time>2026-04-08T10:41:50Z</time></trkpt><trkpt lat="41.862094372477" lon="2.6575978782034504"><ele>142.0</ele><time>2026-04-08T10:41:51Z</time></trkpt><trkpt lat="41.86204578565746" lon="2.657408239480473"><ele>141.25</ele><time>2026-04-08T10:41:52Z</time></trkpt><trkpt lat="41.86199936750089" lon="2.6572225699409233"><ele>140.5</ele><time>2026-04-08T10:41:53Z</time></trkpt><trkpt lat="41.86193974972353" lon="2.657062717223757"><ele>139.75</ele><time>2026-04-08T10:41:54Z</time></trkpt><trkpt lat="41.861915522258556" lon="2.656900472131535"><ele>139.0</ele><time>2026-04-08T10:41:55Z</time></trkpt><trkpt lat="41.86186461821741" lon="2.6567409543700253"><ele>138.75</ele><time>2026-04-08T10:41:56Z</time></trkpt><trkpt lat="41.86184758150782" lon="2.656592614070598"><ele>138.5</ele><time>2026-04-08T10:41:57Z</time></trkpt><trkpt lat="41.86185234569675" lon="2.6564515534802746"><ele>138.25</ele><time>2026-04-08T10:41:58Z</time></trkpt><trkpt lat="41.86188152143535" lon="2.6563014643459137"><ele>138.0</ele><time>2026-04-08T10:41:59Z</time></trkpt><trkpt lat="41.861951137409676" lon="2.6561606113774427"><ele>138.33333333333334</ele><time>2026-04-08T10:42:00Z</time></trkpt><trkpt lat="41.86202194867541" lon="2.6559928566896946"><ele>138.66666666666669</ele><time>2026-04-08T10:42:01Z</time></trkpt><trkpt lat="41.86209839800773" lon="2.6558119939438645"><ele>139.0</ele><time>2026-04-08T10:42:02Z</time></trkpt><trkpt lat="41.862174534692954" lon="2.6556297940981453"><ele>139.0</ele><time>2026-04-08T10:42:03Z</time></trkpt><trkpt lat="41.86223395912942" lon="2.655441567432899"><ele>139.0</ele><time>2026-04-08T10:42:04Z</time></trkpt><trkpt lat="41.86231207608881" lon="2.6552619105244206"><ele>139.0</ele><time>2026-04-08T10:42:05Z</time></trkpt><trkpt lat="41.86239071871364" lon="2.655077077325016"><ele>139.33333333333334</ele><time>2026-04-08T10:42:06Z</time></trkpt><trkpt lat="41.86246821018051" lon="2.6548848069310482"><ele>139.66666666666666</ele><time>2026-04-08T10:42:07Z</time></trkpt><trkpt lat="41.86254795741595" lon="2.6546892876194086"><ele>140.0</ele><time>2026-04-08T10:42:08Z</time></trkpt><trkpt lat="41.86263194855567" lon="2.6544901334925526"><ele>141.66666666666666</ele><time>2026-04-08T10:42:09Z</time></trkpt><trkpt lat="41.862717719078454" lon="2.654284925893876"><ele>143.33333333333334</ele><time>2026-04-08T10:42:10Z</time></trkpt><trkpt lat="41.862796467187806" lon="2.6540801427490086"><ele>145.0</ele><time>2026-04-08T10:42:11Z</time></trkpt><trkpt lat="41.862878120496404" lon="2.653875994982639"><ele>145.0</ele><time>2026-04-08T10:42:12Z</time></trkpt><trkpt lat="41.86296103975862" lon="2.653672207818922"><ele>145.0</ele><time>2026-04-08T10:42:13Z</time></trkpt><trkpt lat="41.863047292795436" lon="2.6534701628773987"><ele>145.0</ele><time>2026-04-08T10:42:14Z</time></trkpt><trkpt lat="41.86313082872819" lon="2.653268332399644"><ele>145.0</ele><time>2026-04-08T10:42:15Z</time></trkpt><trkpt lat="41.863212750933315" lon="2.653061693299632"><ele>145.0</ele><time>2026-04-08T10:42:16Z</time></trkpt><trkpt lat="41.863294484127465" lon="2.652856641053082"><ele>145.0</ele><time>2026-04-08T10:42:17Z</time></trkpt><trkpt lat="41.863375209713816" lon="2.6526614164770197"><ele>147.0</ele><time>2026-04-08T10:42:18Z</time></trkpt><trkpt lat="41.86345549086903" lon="2.652468752724164"><ele>149.0</ele><time>2026-04-08T10:42:19Z</time></trkpt><trkpt lat="41.863534482681565" lon="2.6522770726937166"><ele>151.0</ele><time>2026-04-08T10:42:20Z</time></trkpt><trkpt lat="41.863608453521" lon="2.652095423565105"><ele>151.5</ele><time>2026-04-08T10:42:21Z</time></trkpt><trkpt lat="41.86367254411099" lon="2.6519311455225747"><ele>152.0</ele><time>2026-04-08T10:42:22Z</time></trkpt><trkpt lat="41.86372995798438" lon="2.651788372631494"><ele>152.5</ele><time>2026-04-08T10:42:23Z</time></trkpt><trkpt lat="41.86378469721418" lon="2.6516588869037716"><ele>153.0</ele><time>2026-04-08T10:42:24Z</time></trkpt><trkpt lat="41.86383851133852" lon="2.651533013943861"><ele>153.0</ele><time>2026-04-08T10:42:25Z</time></trkpt><trkpt lat="41.86390057480623" lon="2.651383893364799"><ele>153.0</ele><time>2026-04-08T10:42:26.001Z</time></trkpt><trkpt lat="41.86398104620767" lon="2.651195536750292"><ele>153.0</ele><time>2026-04-08T10:42:27.001Z</time></trkpt><trkpt lat="41.86406316205034" lon="2.6509968613413695"><ele>152.66666666666666</ele><time>2026-04-08T10:42:28.001Z</time></trkpt><trkpt lat="41.86414348607539" lon="2.650805218861132"><ele>152.33333333333331</ele><time>2026-04-08T10:42:29.001Z</time></trkpt><trkpt lat="41.864218179382874" lon="2.650608824559556"><ele>152.0</ele><time>2026-04-08T10:42:30.001Z</time></trkpt><trkpt lat="41.864296487603475" lon="2.6504132852421725"><ele>153.0</ele><time>2026-04-08T10:42:31.001Z</time></trkpt><trkpt lat="41.86437623547558" lon="2.650218455791311"><ele>154.0</ele><time>2026-04-08T10:42:32.001Z</time></trkpt><trkpt lat="41.86445516317465" lon="2.650022919964681"><ele>155.0</ele><time>2026-04-08T10:42:33.001Z</time></trkpt><trkpt lat="41.86453035679379" lon="2.6498273555977545"><ele>155.0</ele><time>2026-04-08T10:42:34.001Z</time></trkpt><trkpt lat="41.86460138844327" lon="2.649643830602893"><ele>155.0</ele><time>2026-04-08T10:42:35.001Z</time></trkpt><trkpt lat="41.86466809017136" lon="2.649473193509471"><ele>155.0</ele><time>2026-04-08T10:42:36.001Z</time></trkpt><trkpt lat="41.86473683428752" lon="2.649308254787733"><ele>155.0</ele><time>2026-04-08T10:42:37.001Z</time></trkpt><trkpt lat="41.86481473548613" lon="2.6491361387099785"><ele>153.66666666666666</ele><time>2026-04-08T10:42:38.001Z</time></trkpt><trkpt lat="41.86492136503737" lon="2.6489792899324556"><ele>152.33333333333334</ele><time>2026-04-08T10:42:39.001Z</time></trkpt><trkpt lat="41.865035300817496" lon="2.64880067402462"><ele>151.0</ele><time>2026-04-08T10:42:40.001Z</time></trkpt><trkpt lat="41.86515690717407" lon="2.6486100922621714"><ele>151.0</ele><time>2026-04-08T10:42:41.001Z</time></trkpt><trkpt lat="41.86527778496689" lon="2.648395130713286"><ele>151.0</ele><time>2026-04-08T10:42:42.001Z</time></trkpt><trkpt lat="41.86541702154192" lon="2.648193761473583"><ele>151.0</ele><time>2026-04-08T10:42:43.001Z</time></trkpt><trkpt lat="41.86555207538321" lon="2.6479840906287233"><ele>151.0</ele><time>2026-04-08T10:42:44.001Z</time></trkpt><trkpt lat="41.865686080765045" lon="2.6477729686318243"><ele>151.0</ele><time>2026-04-08T10:42:45.001Z</time></trkpt><trkpt lat="41.865822522017844" lon="2.647560343729853"><ele>151.0</ele><time>2026-04-08T10:42:46.001Z</time></trkpt><trkpt lat="41.865960975447386" lon="2.64735112580697"><ele>151.0</ele><time>2026-04-08T10:42:47.001Z</time></trkpt><trkpt lat="41.86610143273872" lon="2.647140549168226"><ele>151.0</ele><time>2026-04-08T10:42:48.001Z</time></trkpt><trkpt lat="41.86624284535474" lon="2.6469262587249722"><ele>151.0</ele><time>2026-04-08T10:42:49.001Z</time></trkpt><trkpt lat="41.866383414199774" lon="2.646710843412974"><ele>151.0</ele><time>2026-04-08T10:42:50.001Z</time></trkpt><trkpt lat="41.86652369559366" lon="2.6464976911652762"><ele>151.0</ele><time>2026-04-08T10:42:51.001Z</time></trkpt><trkpt lat="41.866664260921944" lon="2.6462818345407144"><ele>151.0</ele><time>2026-04-08T10:42:52.001Z</time></trkpt><trkpt lat="41.866804350078574" lon="2.6460637287118014"><ele>152.66666666666669</ele><time>2026-04-08T10:42:53.001Z</time></trkpt><trkpt lat="41.866951396312" lon="2.6458496740526156"><ele>154.33333333333334</ele><time>2026-04-08T10:42:54.001Z</time></trkpt><trkpt lat="41.86709424912918" lon="2.645628923081631"><ele>156.0</ele><time>2026-04-08T10:42:55.001Z</time></trkpt><trkpt lat="41.867243615622996" lon="2.6454103690150754"><ele>155.66666666666666</ele><time>2026-04-08T10:42:56.001Z</time></trkpt><trkpt lat="41.867387973728796" lon="2.6451869235726746"><ele>155.33333333333331</ele><time>2026-04-08T10:42:57.001Z</time></trkpt><trkpt lat="41.86753326239776" lon="2.644968673838732"><ele>155.0</ele><time>2026-04-08T10:42:58.001Z</time></trkpt><trkpt lat="41.86767613340915" lon="2.64474494885617"><ele>155.66666666666666</ele><time>2026-04-08T10:42:59.001Z</time></trkpt><trkpt lat="41.86782005170396" lon="2.644523480258979"><ele>156.33333333333334</ele><time>2026-04-08T10:43:00.001Z</time></trkpt><trkpt lat="41.86796404886571" lon="2.6443067887111322"><ele>157.0</ele><time>2026-04-08T10:43:01.001Z</time></trkpt><trkpt lat="41.868105180411135" lon="2.6440860582680665"><ele>157.0</ele><time>2026-04-08T10:43:02.001Z</time></trkpt><trkpt lat="41.86824383831812" lon="2.643878312381068"><ele>157.0</ele><time>2026-04-08T10:43:03.001Z</time></trkpt><trkpt lat="41.86838667360987" lon="2.643656890760736"><ele>157.0</ele><time>2026-04-08T10:43:04.001Z</time></trkpt><trkpt lat="41.86852661058331" lon="2.643444960992294"><ele>156.66666666666669</ele><time>2026-04-08T10:43:05.001Z</time></trkpt><trkpt lat="41.868682286934536" lon="2.6432498028020777"><ele>156.33333333333334</ele><time>2026-04-08T10:43:06.001Z</time></trkpt><trkpt lat="41.868831506436045" lon="2.643043077136461"><ele>156.0</ele><time>2026-04-08T10:43:07.001Z</time></trkpt><trkpt lat="41.86897953643092" lon="2.642835012480402"><ele>155.33333333333334</ele><time>2026-04-08T10:43:08.001Z</time></trkpt><trkpt lat="41.869120237521535" lon="2.642605670810004"><ele>154.66666666666669</ele><time>2026-04-08T10:43:09.001Z</time></trkpt><trkpt lat="41.86927167827443" lon="2.642393949355291"><ele>154.0</ele><time>2026-04-08T10:43:10.002Z</time></trkpt><trkpt lat="41.86943131631396" lon="2.642199817791957"><ele>155.33333333333334</ele><time>2026-04-08T10:43:11.002Z</time></trkpt><trkpt lat="41.86957992521607" lon="2.6419928828872776"><ele>156.66666666666666</ele><time>2026-04-08T10:43:12.002Z</time></trkpt><trkpt lat="41.869729728946034" lon="2.6417853833845215"><ele>158.0</ele><time>2026-04-08T10:43:13.002Z</time></trkpt><trkpt lat="41.869875505877445" lon="2.64157683726137"><ele>158.0</ele><time>2026-04-08T10:43:14.002Z</time></trkpt><trkpt lat="41.87001722089248" lon="2.641374357536272"><ele>158.0</ele><time>2026-04-08T10:43:15.002Z</time></trkpt><trkpt lat="41.87014874755978" lon="2.641157797559907"><ele>158.0</ele><time>2026-04-08T10:43:16.002Z</time></trkpt><trkpt lat="41.87030112627774" lon="2.640975995898462"><ele>159.33333333333331</ele><time>2026-04-08T10:43:17.002Z</time></trkpt><trkpt lat="41.87044791143623" lon="2.6407711601121817"><ele>160.66666666666666</ele><time>2026-04-08T10:43:18.002Z</time></trkpt><trkpt lat="41.870597780937146" lon="2.640562020225594"><ele>162.0</ele><time>2026-04-08T10:43:19.002Z</time></trkpt><trkpt lat="41.87074677961427" lon="2.640354095389114"><ele>161.0</ele><time>2026-04-08T10:43:20.002Z</time></trkpt><trkpt lat="41.87089717466838" lon="2.640142137092672"><ele>160.0</ele><time>2026-04-08T10:43:21.002Z</time></trkpt><trkpt lat="41.871049963409234" lon="2.639926734711617"><ele>159.0</ele><time>2026-04-08T10:43:22.002Z</time></trkpt><trkpt lat="41.871199458631914" lon="2.639715976879061"><ele>161.0</ele><time>2026-04-08T10:43:23.002Z</time></trkpt><trkpt lat="41.87133586187676" lon="2.6395236760714975"><ele>163.0</ele><time>2026-04-08T10:43:24.002Z</time></trkpt><trkpt lat="41.871461037473416" lon="2.6393185030870248"><ele>165.0</ele><time>2026-04-08T10:43:25.002Z</time></trkpt><trkpt lat="41.87160173689797" lon="2.6391431766096263"><ele>165.66666666666666</ele><time>2026-04-08T10:43:26.002Z</time></trkpt><trkpt lat="41.87173128234035" lon="2.6389752442105645"><ele>166.33333333333331</ele><time>2026-04-08T10:43:27.002Z</time></trkpt><trkpt lat="41.87187112672728" lon="2.6388196696987825"><ele>167.0</ele><time>2026-04-08T10:43:28.002Z</time></trkpt><trkpt lat="41.87202375482358" lon="2.63867511640069"><ele>168.66666666666666</ele><time>2026-04-08T10:43:29.002Z</time></trkpt><trkpt lat="41.87218971960556" lon="2.6385247628791464"><ele>170.33333333333334</ele><time>2026-04-08T10:43:30.002Z</time></trkpt><trkpt lat="41.872362625031464" lon="2.638374492837222"><ele>172.0</ele><time>2026-04-08T10:43:31.002Z</time></trkpt><trkpt lat="41.87253277139053" lon="2.638229412070791"><ele>172.33333333333334</ele><time>2026-04-08T10:43:32.002Z</time></trkpt><trkpt lat="41.87270316913124" lon="2.638073667165024"><ele>172.66666666666666</ele><time>2026-04-08T10:43:33.002Z</time></trkpt><trkpt lat="41.87286058672506" lon="2.6378976321725625"><ele>173.0</ele><time>2026-04-08T10:43:34.002Z</time></trkpt><trkpt lat="41.873027725946976" lon="2.6377015902708645"><ele>173.0</ele><time>2026-04-08T10:43:35.002Z</time></trkpt><trkpt lat="41.87319185359876" lon="2.6375090763573943"><ele>173.0</ele><time>2026-04-08T10:43:36.002Z</time></trkpt><trkpt lat="41.87335155952783" lon="2.6373199375739014"><ele>173.0</ele><time>2026-04-08T10:43:37.002Z</time></trkpt><trkpt lat="41.87350175821315" lon="2.6371407505883355"><ele>174.33333333333331</ele><time>2026-04-08T10:43:38.002Z</time></trkpt><trkpt lat="41.8736514028881" lon="2.636984506460834"><ele>175.66666666666666</ele><time>2026-04-08T10:43:39.002Z</time></trkpt><trkpt lat="41.873792280011905" lon="2.6368277043597095"><ele>177.0</ele><time>2026-04-08T10:43:40.002Z</time></trkpt><trkpt lat="41.873933679584674" lon="2.6366958478216507"><ele>177.0</ele><time>2026-04-08T10:43:41.002Z</time></trkpt><trkpt lat="41.8740509713738" lon="2.6366054001110735"><ele>177.0</ele><time>2026-04-08T10:43:42.002Z</time></trkpt><trkpt lat="41.874148857861286" lon="2.636538257217481"><ele>177.0</ele><time>2026-04-08T10:43:43.002Z</time></trkpt><trkpt lat="41.87422146334095" lon="2.636474695126754"><ele>177.0</ele><time>2026-04-08T10:43:44.002Z</time></trkpt><trkpt lat="41.87429279383409" lon="2.636406641837799"><ele>177.0</ele><time>2026-04-08T10:43:45.002Z</time></trkpt><trkpt lat="41.874359117192405" lon="2.636285474281652"><ele>181.5</ele><time>2026-04-08T10:43:46.002Z</time></trkpt><trkpt lat="41.874426435313104" lon="2.6361316528992207"><ele>186.0</ele><time>2026-04-08T10:43:47.002Z</time></trkpt><trkpt lat="41.87449213391067" lon="2.6359934020755893"><ele>190.5</ele><time>2026-04-08T10:43:48.002Z</time></trkpt><trkpt lat="41.87454273139842" lon="2.635827795892378"><ele>195.0</ele><time>2026-04-08T10:43:49.002Z</time></trkpt><trkpt lat="41.87456894121293" lon="2.6356279629237545"><ele>195.0</ele><time>2026-04-08T10:43:50.002Z</time></trkpt><trkpt lat="41.8745793125236" lon="2.635407782071002"><ele>195.0</ele><time>2026-04-08T10:43:51Z</time></trkpt><trkpt lat="41.87460299065803" lon="2.635193330282472"><ele>195.0</ele><time>2026-04-08T10:43:52Z</time></trkpt><trkpt lat="41.874643033851605" lon="2.635002337934393"><ele>193.25</ele><time>2026-04-08T10:43:53Z</time></trkpt><trkpt lat="41.874700167841084" lon="2.6348212199491616"><ele>191.5</ele><time>2026-04-08T10:43:54Z</time></trkpt><trkpt lat="41.874764312203006" lon="2.6346615977646053"><ele>189.75</ele><time>2026-04-08T10:43:55Z</time></trkpt><trkpt lat="41.874799998920864" lon="2.634492325763685"><ele>188.0</ele><time>2026-04-08T10:43:56Z</time></trkpt><trkpt lat="41.87480032172487" lon="2.6342877846313244"><ele>187.25</ele><time>2026-04-08T10:43:57Z</time></trkpt><trkpt lat="41.874797449375144" lon="2.6340798744720737"><ele>186.5</ele><time>2026-04-08T10:43:58Z</time></trkpt><trkpt lat="41.87479544739722" lon="2.633893715642487"><ele>185.75</ele><time>2026-04-08T10:43:59Z</time></trkpt><trkpt lat="41.87477202817969" lon="2.6337054001571434"><ele>185.0</ele><time>2026-04-08T10:44:00Z</time></trkpt><trkpt lat="41.874714595605376" lon="2.6335321540443575"><ele>185.0</ele><time>2026-04-08T10:44:01Z</time></trkpt><trkpt lat="41.874630359858536" lon="2.6333567796956427"><ele>185.0</ele><time>2026-04-08T10:44:02Z</time></trkpt><trkpt lat="41.87453480112762" lon="2.633182938648559"><ele>185.0</ele><time>2026-04-08T10:44:03Z</time></trkpt><trkpt lat="41.87445558659081" lon="2.6330104084604096"><ele>185.0</ele><time>2026-04-08T10:44:04Z</time></trkpt><trkpt lat="41.87437420666388" lon="2.632866031147438"><ele>185.0</ele><time>2026-04-08T10:44:05Z</time></trkpt><trkpt lat="41.87426843363869" lon="2.63272273225109"><ele>185.0</ele><time>2026-04-08T10:44:06Z</time></trkpt><trkpt lat="41.874147724472934" lon="2.6326204568010083"><ele>185.0</ele><time>2026-04-08T10:44:07Z</time></trkpt><trkpt lat="41.87402407614237" lon="2.632507915649747"><ele>183.75</ele><time>2026-04-08T10:44:08Z</time></trkpt><trkpt lat="41.87391189734464" lon="2.6323693991419352"><ele>182.5</ele><time>2026-04-08T10:44:09Z</time></trkpt><trkpt lat="41.87382730655181" lon="2.632229645479281"><ele>181.25</ele><time>2026-04-08T10:44:10Z</time></trkpt><trkpt lat="41.87377261156625" lon="2.6320827463316157"><ele>180.0</ele><time>2026-04-08T10:44:11Z</time></trkpt><trkpt lat="41.873731976456206" lon="2.631904380731471"><ele>180.0</ele><time>2026-04-08T10:44:12Z</time></trkpt><trkpt lat="41.87370893242242" lon="2.6316990828116134"><ele>180.0</ele><time>2026-04-08T10:44:13Z</time></trkpt><trkpt lat="41.873691280586264" lon="2.6314902838823135"><ele>180.0</ele><time>2026-04-08T10:44:14Z</time></trkpt><trkpt lat="41.87366030269172" lon="2.631288774686311"><ele>179.33333333333334</ele><time>2026-04-08T10:44:15Z</time></trkpt><trkpt lat="41.8736026915461" lon="2.631097821302722"><ele>178.66666666666669</ele><time>2026-04-08T10:44:16Z</time></trkpt><trkpt lat="41.87351736960543" lon="2.630896643186038"><ele>178.0</ele><time>2026-04-08T10:44:17Z</time></trkpt><trkpt lat="41.87341158189838" lon="2.6306798231130073"><ele>178.0</ele><time>2026-04-08T10:44:18Z</time></trkpt><trkpt lat="41.87329979209014" lon="2.6304456509163137"><ele>178.0</ele><time>2026-04-08T10:44:19Z</time></trkpt><trkpt lat="41.87319048170647" lon="2.6302119483457815"><ele>178.0</ele><time>2026-04-08T10:44:20Z</time></trkpt><trkpt lat="41.87308745287166" lon="2.6299868629361116"><ele>180.66666666666669</ele><time>2026-04-08T10:44:21Z</time></trkpt><trkpt lat="41.872993318695016" lon="2.6297814959387287"><ele>183.33333333333334</ele><time>2026-04-08T10:44:22Z</time></trkpt><trkpt lat="41.87290902210354" lon="2.629589256332677"><ele>186.0</ele><time>2026-04-08T10:44:23Z</time></trkpt><trkpt lat="41.87282955054276" lon="2.6294214072309807"><ele>186.8</ele><time>2026-04-08T10:44:24Z</time></trkpt><trkpt lat="41.87277012635745" lon="2.6292837140461027"><ele>187.60000000000002</ele><time>2026-04-08T10:44:25Z</time></trkpt><trkpt lat="41.87273564970864" lon="2.629157140160314"><ele>188.4</ele><time>2026-04-08T10:44:26Z</time></trkpt><trkpt lat="41.87274649276598" lon="2.6290465231402274"><ele>189.2</ele><time>2026-04-08T10:44:27Z</time></trkpt><trkpt lat="41.87276652614263" lon="2.6289455106169206"><ele>190.0</ele><time>2026-04-08T10:44:28Z</time></trkpt><trkpt lat="41.87281989364225" lon="2.6288476284194773"><ele>190.0</ele><time>2026-04-08T10:44:29Z</time></trkpt><trkpt lat="41.872902917803756" lon="2.6287419459570174"><ele>190.0</ele><time>2026-04-08T10:44:30Z</time></trkpt><trkpt lat="41.8730095034524" lon="2.628624127173711"><ele>190.0</ele><time>2026-04-08T10:44:31Z</time></trkpt><trkpt lat="41.8731240575773" lon="2.6284966074512246"><ele>190.0</ele><time>2026-04-08T10:44:32Z</time></trkpt><trkpt lat="41.87322150794475" lon="2.6283856988657237"><ele>189.5</ele><time>2026-04-08T10:44:33.001Z</time></trkpt><trkpt lat="41.8733078702289" lon="2.6282837344891465"><ele>189.0</ele><time>2026-04-08T10:44:34.001Z</time></trkpt><trkpt lat="41.873375183064915" lon="2.6281637293749323"><ele>188.5</ele><time>2026-04-08T10:44:35.001Z</time></trkpt><trkpt lat="41.87343738270352" lon="2.6280349820072764"><ele>188.0</ele><time>2026-04-08T10:44:36.001Z</time></trkpt><trkpt lat="41.87342543596161" lon="2.627857022675193"><ele>187.0</ele><time>2026-04-08T10:44:37.001Z</time></trkpt><trkpt lat="41.87340759737413" lon="2.627686036141592"><ele>186.0</ele><time>2026-04-08T10:44:38.001Z</time></trkpt><trkpt lat="41.87340562469654" lon="2.627512092995624"><ele>185.0</ele><time>2026-04-08T10:44:39.001Z</time></trkpt><trkpt lat="41.87338269268767" lon="2.627349440421939"><ele>184.0</ele><time>2026-04-08T10:44:40.001Z</time></trkpt><trkpt lat="41.873361100772925" lon="2.627174574630027"><ele>184.0</ele><time>2026-04-08T10:44:41.001Z</time></trkpt><trkpt lat="41.87330736064512" lon="2.6270000660811506"><ele>184.0</ele><time>2026-04-08T10:44:42.001Z</time></trkpt><trkpt lat="41.87322837452662" lon="2.62682796973662"><ele>184.0</ele><time>2026-04-08T10:44:43.001Z</time></trkpt><trkpt lat="41.87315486612061" lon="2.6266539211422875"><ele>184.0</ele><time>2026-04-08T10:44:44.001Z</time></trkpt><trkpt lat="41.8731463009584" lon="2.6264374886762862"><ele>185.33333333333334</ele><time>2026-04-08T10:44:45.001Z</time></trkpt><trkpt lat="41.87306921906929" lon="2.6262564116672205"><ele>186.66666666666666</ele><time>2026-04-08T10:44:46.001Z</time></trkpt><trkpt lat="41.87299297187424" lon="2.6260570440137805"><ele>188.0</ele><time>2026-04-08T10:44:47.001Z</time></trkpt><trkpt lat="41.87289412211119" lon="2.625850457317579"><ele>191.33333333333331</ele><time>2026-04-08T10:44:48.001Z</time></trkpt><trkpt lat="41.87279112203785" lon="2.6256367478662344"><ele>194.66666666666666</ele><time>2026-04-08T10:44:49.001Z</time></trkpt><trkpt lat="41.872704692181856" lon="2.6254375996993233"><ele>198.0</ele><time>2026-04-08T10:44:50.001Z</time></trkpt><trkpt lat="41.87262853775545" lon="2.6252434880403497"><ele>194.33333333333334</ele><time>2026-04-08T10:44:51.001Z</time></trkpt><trkpt lat="41.87257044398455" lon="2.6250411223767838"><ele>190.66666666666669</ele><time>2026-04-08T10:44:52.001Z</time></trkpt><trkpt lat="41.87253230787402" lon="2.6248292829396553"><ele>187.0</ele><time>2026-04-08T10:44:53.001Z</time></trkpt><trkpt lat="41.872506941590515" lon="2.624643121756845"><ele>187.25</ele><time>2026-04-08T10:44:54.001Z</time></trkpt><trkpt lat="41.87250159843312" lon="2.624474726554889"><ele>187.5</ele><time>2026-04-08T10:44:55.001Z</time></trkpt><trkpt lat="41.872516160224265" lon="2.624322290946059"><ele>187.75</ele><time>2026-04-08T10:44:56.001Z</time></trkpt><trkpt lat="41.87256333307336" lon="2.62417101527492"><ele>188.0</ele><time>2026-04-08T10:44:57.001Z</time></trkpt><trkpt lat="41.872631907570785" lon="2.6240178466218174"><ele>189.75</ele><time>2026-04-08T10:44:58.001Z</time></trkpt><trkpt lat="41.87269917839749" lon="2.6238590943382505"><ele>191.5</ele><time>2026-04-08T10:44:59.001Z</time></trkpt><trkpt lat="41.87274036403727" lon="2.6237089331794197"><ele>193.25</ele><time>2026-04-08T10:45:00.001Z</time></trkpt><trkpt lat="41.87276794030103" lon="2.623551781769462"><ele>195.0</ele><time>2026-04-08T10:45:01.001Z</time></trkpt><trkpt lat="41.87273046200845" lon="2.623359976002007"><ele>195.0</ele><time>2026-04-08T10:45:02.001Z</time></trkpt><trkpt lat="41.87271583880256" lon="2.62315270440921"><ele>195.0</ele><time>2026-04-08T10:45:03.001Z</time></trkpt><trkpt lat="41.87268585135292" lon="2.622930636582089"><ele>195.0</ele><time>2026-04-08T10:45:04.001Z</time></trkpt><trkpt lat="41.872655109212694" lon="2.6227029803814856"><ele>193.33333333333334</ele><time>2026-04-08T10:45:05.001Z</time></trkpt><trkpt lat="41.87262545941932" lon="2.622483413328933"><ele>191.66666666666669</ele><time>2026-04-08T10:45:06.001Z</time></trkpt><trkpt lat="41.872595036572406" lon="2.622258121557328"><ele>190.0</ele><time>2026-04-08T10:45:07.001Z</time></trkpt><trkpt lat="41.872563669700206" lon="2.622033220864791"><ele>191.33333333333334</ele><time>2026-04-08T10:45:08.001Z</time></trkpt><trkpt lat="41.87252723568981" lon="2.6218056565423002"><ele>192.66666666666669</ele><time>2026-04-08T10:45:09.001Z</time></trkpt><trkpt lat="41.87248932628068" lon="2.6215798406830144"><ele>194.0</ele><time>2026-04-08T10:45:10.001Z</time></trkpt><trkpt lat="41.87244976125413" lon="2.621352555539046"><ele>194.33333333333334</ele><time>2026-04-08T10:45:11.001Z</time></trkpt><trkpt lat="41.872409725859654" lon="2.6211225682990444"><ele>194.66666666666669</ele><time>2026-04-08T10:45:12.001Z</time></trkpt><trkpt lat="41.872369551643615" lon="2.6208893909962607"><ele>195.0</ele><time>2026-04-08T10:45:13.001Z</time></trkpt><trkpt lat="41.872329053858664" lon="2.6206539849197292"><ele>195.0</ele><time>2026-04-08T10:45:14.002Z</time></trkpt><trkpt lat="41.87228853370949" lon="2.620415496555364"><ele>195.0</ele><time>2026-04-08T10:45:15.002Z</time></trkpt><trkpt lat="41.87224806502322" lon="2.6201728890225633"><ele>195.0</ele><time>2026-04-08T10:45:16.002Z</time></trkpt><trkpt lat="41.872207543033454" lon="2.61992996193442"><ele>195.33333333333331</ele><time>2026-04-08T10:45:17.002Z</time></trkpt><trkpt lat="41.87216569808029" lon="2.6196847997254533"><ele>195.66666666666666</ele><time>2026-04-08T10:45:18.002Z</time></trkpt><trkpt lat="41.872123351962344" lon="2.6194369450469233"><ele>196.0</ele><time>2026-04-08T10:45:19.002Z</time></trkpt><trkpt lat="41.87208071300307" lon="2.619187376105569"><ele>196.66666666666666</ele><time>2026-04-08T10:45:20.002Z</time></trkpt><trkpt lat="41.87203900169981" lon="2.618938070084649"><ele>197.33333333333331</ele><time>2026-04-08T10:45:21.002Z</time></trkpt><trkpt lat="41.87200017480384" lon="2.6187032159314603"><ele>198.0</ele><time>2026-04-08T10:45:22.002Z</time></trkpt><trkpt lat="41.87196985946444" lon="2.6184796309288814"><ele>200.0</ele><time>2026-04-08T10:45:23.002Z</time></trkpt><trkpt lat="41.87195515465894" lon="2.618253973963101"><ele>202.0</ele><time>2026-04-08T10:45:24.002Z</time></trkpt><trkpt lat="41.87196294631155" lon="2.6180166396691433"><ele>204.0</ele><time>2026-04-08T10:45:25.002Z</time></trkpt><trkpt lat="41.87197185748505" lon="2.6177782401649274"><ele>206.66666666666669</ele><time>2026-04-08T10:45:26.002Z</time></trkpt><trkpt lat="41.87198077049864" lon="2.6175444554215237"><ele>209.33333333333334</ele><time>2026-04-08T10:45:27.002Z</time></trkpt><trkpt lat="41.871988979500784" lon="2.6173291362334328"><ele>212.0</ele><time>2026-04-08T10:45:28.002Z</time></trkpt><trkpt lat="41.87199540541077" lon="2.617128147637669"><ele>212.75</ele><time>2026-04-08T10:45:29.002Z</time></trkpt><trkpt lat="41.8720064131412" lon="2.6169422825206183"><ele>213.5</ele><time>2026-04-08T10:45:30.002Z</time></trkpt><trkpt lat="41.872030640269486" lon="2.616764868052445"><ele>214.25</ele><time>2026-04-08T10:45:31.002Z</time></trkpt><trkpt lat="41.87206325378129" lon="2.616579435022068"><ele>215.0</ele><time>2026-04-08T10:45:32.002Z</time></trkpt><trkpt lat="41.872139026597516" lon="2.6163963067742486"><ele>215.0</ele><time>2026-04-08T10:45:33.002Z</time></trkpt><trkpt lat="41.87222466346146" lon="2.616208144130752"><ele>215.0</ele><time>2026-04-08T10:45:34.002Z</time></trkpt><trkpt lat="41.872299016262005" lon="2.6160180678892355"><ele>215.0</ele><time>2026-04-08T10:45:35.002Z</time></trkpt><trkpt lat="41.87236420857125" lon="2.6158296304403605"><ele>214.0</ele><time>2026-04-08T10:45:36.002Z</time></trkpt><trkpt lat="41.872421464095254" lon="2.615654366685208"><ele>213.0</ele><time>2026-04-08T10:45:37.002Z</time></trkpt><trkpt lat="41.87248275687222" lon="2.6154929678938417"><ele>212.0</ele><time>2026-04-08T10:45:38.002Z</time></trkpt><trkpt lat="41.87256620120147" lon="2.6153432002948436"><ele>211.0</ele><time>2026-04-08T10:45:39.002Z</time></trkpt><trkpt lat="41.8726631934907" lon="2.6151908854067485"><ele>214.33333333333331</ele><time>2026-04-08T10:45:40.002Z</time></trkpt><trkpt lat="41.872774449396665" lon="2.6150299618520254"><ele>217.66666666666669</ele><time>2026-04-08T10:45:41.002Z</time></trkpt><trkpt lat="41.87288853079271" lon="2.6148586063658388"><ele>221.0</ele><time>2026-04-08T10:45:42.002Z</time></trkpt><trkpt lat="41.873004587746514" lon="2.6146993573137634"><ele>221.0</ele><time>2026-04-08T10:45:43.002Z</time></trkpt><trkpt lat="41.87311633570721" lon="2.6145409556112678"><ele>221.0</ele><time>2026-04-08T10:45:44.002Z</time></trkpt><trkpt lat="41.873221323413816" lon="2.6143929091807947"><ele>221.0</ele><time>2026-04-08T10:45:45.002Z</time></trkpt><trkpt lat="41.87332273978021" lon="2.614249387536283"><ele>221.5</ele><time>2026-04-08T10:45:46.002Z</time></trkpt><trkpt lat="41.8734181319588" lon="2.6141195260344285"><ele>222.0</ele><time>2026-04-08T10:45:47.002Z</time></trkpt><trkpt lat="41.87352045771579" lon="2.614034874933027"><ele>222.5</ele><time>2026-04-08T10:45:48.002Z</time></trkpt><trkpt lat="41.873617655024944" lon="2.6139557981304287"><ele>223.0</ele><time>2026-04-08T10:45:49.002Z</time></trkpt><trkpt lat="41.87370356210919" lon="2.613870787722903"><ele>223.0</ele><time>2026-04-08T10:45:50.002Z</time></trkpt><trkpt lat="41.87379851877903" lon="2.613819247027649"><ele>223.0</ele><time>2026-04-08T10:45:51.002Z</time></trkpt><trkpt lat="41.87387340559056" lon="2.613736099176057"><ele>223.0</ele><time>2026-04-08T10:45:52.002Z</time></trkpt><trkpt lat="41.87390927530173" lon="2.613621802678045"><ele>223.0</ele><time>2026-04-08T10:45:53.002Z</time></trkpt><trkpt lat="41.87394642883809" lon="2.6134897045312053"><ele>223.0</ele><time>2026-04-08T10:45:54.002Z</time></trkpt><trkpt lat="41.873910617409614" lon="2.6133281344385426"><ele>223.5</ele><time>2026-04-08T10:45:55.002Z</time></trkpt><trkpt lat="41.873860568980334" lon="2.6131691807907305"><ele>224.0</ele><time>2026-04-08T10:45:56.003Z</time></trkpt><trkpt lat="41.873800357314146" lon="2.6130020461944796"><ele>224.5</ele><time>2026-04-08T10:45:57Z</time></trkpt><trkpt lat="41.87375408497199" lon="2.6128413894261864"><ele>225.0</ele><time>2026-04-08T10:45:58Z</time></trkpt><trkpt lat="41.87372069037387" lon="2.6126680732768492"><ele>225.0</ele><time>2026-04-08T10:45:59Z</time></trkpt><trkpt lat="41.873743980549364" lon="2.612470534093867"><ele>225.0</ele><time>2026-04-08T10:46:00Z</time></trkpt><trkpt lat="41.87374405341088" lon="2.6122505787911523"><ele>225.0</ele><time>2026-04-08T10:46:01Z</time></trkpt><trkpt lat="41.87376693022228" lon="2.6120238497663038"><ele>225.75</ele><time>2026-04-08T10:46:02Z</time></trkpt><trkpt lat="41.87379405714031" lon="2.611804477805396"><ele>226.5</ele><time>2026-04-08T10:46:03Z</time></trkpt><trkpt lat="41.87382819750928" lon="2.6116060821284552"><ele>227.25</ele><time>2026-04-08T10:46:04Z</time></trkpt><trkpt lat="41.873869809208706" lon="2.6114451916416828"><ele>228.0</ele><time>2026-04-08T10:46:05Z</time></trkpt><trkpt lat="41.87392785714839" lon="2.61130445713637"><ele>228.0</ele><time>2026-04-08T10:46:06Z</time></trkpt><trkpt lat="41.87399800188399" lon="2.6111920666185364"><ele>228.0</ele><time>2026-04-08T10:46:07Z</time></trkpt><trkpt lat="41.874085971699884" lon="2.6110923110605047"><ele>228.0</ele><time>2026-04-08T10:46:08Z</time></trkpt><trkpt lat="41.87419716822581" lon="2.611020765518326"><ele>228.0</ele><time>2026-04-08T10:46:09Z</time></trkpt><trkpt lat="41.87431003031128" lon="2.610966095619072"><ele>233.25</ele><time>2026-04-08T10:46:10Z</time></trkpt><trkpt lat="41.874404689970866" lon="2.610879678013357"><ele>238.5</ele><time>2026-04-08T10:46:11Z</time></trkpt><trkpt lat="41.87446841249949" lon="2.6107444270401468"><ele>243.75</ele><time>2026-04-08T10:46:12Z</time></trkpt><trkpt lat="41.874510684401415" lon="2.6106032633555114"><ele>249.0</ele><time>2026-04-08T10:46:13Z</time></trkpt><trkpt lat="41.87455476719381" lon="2.61046822579073"><ele>249.0</ele><time>2026-04-08T10:46:14Z</time></trkpt><trkpt lat="41.87459898723339" lon="2.6103403687997706"><ele>249.0</ele><time>2026-04-08T10:46:15Z</time></trkpt><trkpt lat="41.87464399285935" lon="2.6102419504533576"><ele>249.0</ele><time>2026-04-08T10:46:16Z</time></trkpt><trkpt lat="41.874686800986815" lon="2.610150059325079"><ele>249.0</ele><time>2026-04-08T10:46:17Z</time></trkpt><trkpt lat="41.874748062809" lon="2.6100741793453475"><ele>249.0</ele><time>2026-04-08T10:46:18Z</time></trkpt><trkpt lat="41.87482496243601" lon="2.610028998088742"><ele>249.0</ele><time>2026-04-08T10:46:19Z</time></trkpt><trkpt lat="41.874911624200735" lon="2.610021592075715"><ele>249.0</ele><time>2026-04-08T10:46:20Z</time></trkpt><trkpt lat="41.87500918500638" lon="2.6100221791511173"><ele>248.99999999999997</ele><time>2026-04-08T10:46:21Z</time></trkpt><trkpt lat="41.87513446512357" lon="2.6100187787011744"><ele>248.99999999999997</ele><time>2026-04-08T10:46:22Z</time></trkpt><trkpt lat="41.875245953710845" lon="2.610027676090581"><ele>249.0</ele><time>2026-04-08T10:46:23Z</time></trkpt><trkpt lat="41.875336642868255" lon="2.6100517248379527"><ele>249.0</ele><time>2026-04-08T10:46:24Z</time></trkpt><trkpt lat="41.87543438140587" lon="2.6100544100296537"><ele>249.0</ele><time>2026-04-08T10:46:25Z</time></trkpt><trkpt lat="41.875541916066254" lon="2.6100008237940537"><ele>249.0</ele><time>2026-04-08T10:46:26Z</time></trkpt><trkpt lat="41.875641390401036" lon="2.6099198960944023"><ele>249.0</ele><time>2026-04-08T10:46:27Z</time></trkpt><trkpt lat="41.875745203404236" lon="2.6098472444037433"><ele>249.0</ele><time>2026-04-08T10:46:28Z</time></trkpt><trkpt lat="41.875840284404305" lon="2.6097514085530444"><ele>249.0</ele><time>2026-04-08T10:46:29Z</time></trkpt><trkpt lat="41.87591231397322" lon="2.6096105541417454"><ele>249.0</ele><time>2026-04-08T10:46:30.001Z</time></trkpt><trkpt lat="41.875961254763695" lon="2.6094387307102873"><ele>249.0</ele><time>2026-04-08T10:46:31.001Z</time></trkpt><trkpt lat="41.87603390116711" lon="2.609271389530128"><ele>249.0</ele><time>2026-04-08T10:46:32.001Z</time></trkpt><trkpt lat="41.876144622379165" lon="2.6091126871615873"><ele>245.75</ele><time>2026-04-08T10:46:33.001Z</time></trkpt><trkpt lat="41.876257856099876" lon="2.6089560381630257"><ele>242.5</ele><time>2026-04-08T10:46:34.001Z</time></trkpt><trkpt lat="41.87635040607935" lon="2.608817124398242"><ele>239.25</ele><time>2026-04-08T10:46:35.001Z</time></trkpt><trkpt lat="41.87642168218886" lon="2.608677207933922"><ele>236.0</ele><time>2026-04-08T10:46:36.001Z</time></trkpt><trkpt lat="41.87648505884089" lon="2.6085692368427202"><ele>236.0</ele><time>2026-04-08T10:46:37.001Z</time></trkpt><trkpt lat="41.876570127530314" lon="2.6084924428001295"><ele>236.00000000000003</ele><time>2026-04-08T10:46:38.001Z</time></trkpt><trkpt lat="41.87668104074064" lon="2.608432413271792"><ele>236.00000000000003</ele><time>2026-04-08T10:46:39.001Z</time></trkpt><trkpt lat="41.87678416993808" lon="2.608379689425693"><ele>236.0</ele><time>2026-04-08T10:46:40.001Z</time></trkpt><trkpt lat="41.876863638405304" lon="2.608325018429831"><ele>236.0</ele><time>2026-04-08T10:46:41.001Z</time></trkpt><trkpt lat="41.8769148916346" lon="2.60825014212547"><ele>240.5</ele><time>2026-04-08T10:46:42.001Z</time></trkpt><trkpt lat="41.87693486080612" lon="2.608141633786681"><ele>245.0</ele><time>2026-04-08T10:46:43.001Z</time></trkpt><trkpt lat="41.876951175965864" lon="2.608006772835569"><ele>249.5</ele><time>2026-04-08T10:46:44.001Z</time></trkpt><trkpt lat="41.876933780995905" lon="2.60783331458154"><ele>254.0</ele><time>2026-04-08T10:46:45.001Z</time></trkpt><trkpt lat="41.87689324990732" lon="2.607648306665032"><ele>254.0</ele><time>2026-04-08T10:46:46.001Z</time></trkpt><trkpt lat="41.87687217527517" lon="2.6074742513332936"><ele>253.99999999999997</ele><time>2026-04-08T10:46:47.001Z</time></trkpt><trkpt lat="41.87685480833233" lon="2.607322684967801"><ele>253.99999999999997</ele><time>2026-04-08T10:46:48.001Z</time></trkpt><trkpt lat="41.87683568528955" lon="2.6071879884493385"><ele>254.0</ele><time>2026-04-08T10:46:49.001Z</time></trkpt><trkpt lat="41.87680097357355" lon="2.607092055980031"><ele>254.0</ele><time>2026-04-08T10:46:50.001Z</time></trkpt><trkpt lat="41.87676640075168" lon="2.606985289828326"><ele>254.75</ele><time>2026-04-08T10:46:51.001Z</time></trkpt><trkpt lat="41.87666244542979" lon="2.606919758361821"><ele>255.5</ele><time>2026-04-08T10:46:52.001Z</time></trkpt><trkpt lat="41.87653610852706" lon="2.606897926987064"><ele>256.25</ele><time>2026-04-08T10:46:53.001Z</time></trkpt><trkpt lat="41.876400842364944" lon="2.6068703637337167"><ele>257.0</ele><time>2026-04-08T10:46:54.001Z</time></trkpt><trkpt lat="41.87626340148891" lon="2.606796824042198"><ele>257.0</ele><time>2026-04-08T10:46:55.001Z</time></trkpt><trkpt lat="41.87610256890637" lon="2.606722555351985"><ele>257.0</ele><time>2026-04-08T10:46:56.001Z</time></trkpt><trkpt lat="41.87593287726781" lon="2.606671772017538"><ele>257.0</ele><time>2026-04-08T10:46:57.001Z</time></trkpt><trkpt lat="41.87577487227771" lon="2.6066425332057936"><ele>254.0</ele><time>2026-04-08T10:46:58.001Z</time></trkpt><trkpt lat="41.875604881839585" lon="2.606639480127211"><ele>251.0</ele><time>2026-04-08T10:46:59.001Z</time></trkpt><trkpt lat="41.87543522018596" lon="2.606672988230644"><ele>248.0</ele><time>2026-04-08T10:47:00.001Z</time></trkpt><trkpt lat="41.8752766111434" lon="2.606731634928803"><ele>248.0</ele><time>2026-04-08T10:47:01.001Z</time></trkpt><trkpt lat="41.875117621928794" lon="2.606814998738581"><ele>248.0</ele><time>2026-04-08T10:47:02.001Z</time></trkpt><trkpt lat="41.874973025672126" lon="2.6069299201416483"><ele>248.0</ele><time>2026-04-08T10:47:03.001Z</time></trkpt><trkpt lat="41.87484669228737" lon="2.607027391436885"><ele>245.4</ele><time>2026-04-08T10:47:04.001Z</time></trkpt><trkpt lat="41.87474545398683" lon="2.6071372307782568"><ele>242.8</ele><time>2026-04-08T10:47:05.001Z</time></trkpt><trkpt lat="41.87465122957752" lon="2.6071939353270923"><ele>240.2</ele><time>2026-04-08T10:47:06.001Z</time></trkpt><trkpt lat="41.87455822188953" lon="2.6072054763481374"><ele>237.6</ele><time>2026-04-08T10:47:07.001Z</time></trkpt><trkpt lat="41.87445380227855" lon="2.607212849837685"><ele>235.0</ele><time>2026-04-08T10:47:08.001Z</time></trkpt><trkpt lat="41.87435175069838" lon="2.6072105079020758"><ele>235.4</ele><time>2026-04-08T10:47:09.001Z</time></trkpt><trkpt lat="41.87424602100645" lon="2.6071835290454812"><ele>235.8</ele><time>2026-04-08T10:47:10.001Z</time></trkpt><trkpt lat="41.87417798232291" lon="2.607139987474264"><ele>236.2</ele><time>2026-04-08T10:47:11.001Z</time></trkpt><trkpt lat="41.87412039158268" lon="2.6070637693254235"><ele>236.6</ele><time>2026-04-08T10:47:12.001Z</time></trkpt><trkpt lat="41.87405341387553" lon="2.6069402808210946"><ele>237.0</ele><time>2026-04-08T10:47:13.002Z</time></trkpt><trkpt lat="41.87396197457049" lon="2.606786651011287"><ele>240.66666666666669</ele><time>2026-04-08T10:47:14.002Z</time></trkpt><trkpt lat="41.87384072874188" lon="2.6066656940961197"><ele>244.33333333333334</ele><time>2026-04-08T10:47:15.002Z</time></trkpt><trkpt lat="41.87368923846962" lon="2.606555181004549"><ele>248.0</ele><time>2026-04-08T10:47:16.002Z</time></trkpt><trkpt lat="41.87354019525383" lon="2.6064440129154502"><ele>248.66666666666669</ele><time>2026-04-08T10:47:17.002Z</time></trkpt><trkpt lat="41.87341561259141" lon="2.6062979137217996"><ele>249.33333333333331</ele><time>2026-04-08T10:47:18.002Z</time></trkpt><trkpt lat="41.87328336524115" lon="2.6061110627160717"><ele>250.0</ele><time>2026-04-08T10:47:19.002Z</time></trkpt><trkpt lat="41.87313635662769" lon="2.605905817714841"><ele>250.0</ele><time>2026-04-08T10:47:20.002Z</time></trkpt><trkpt lat="41.872981850087534" lon="2.605721562372607"><ele>250.0</ele><time>2026-04-08T10:47:21.002Z</time></trkpt><trkpt lat="41.87284360800924" lon="2.60554423953435"><ele>250.0</ele><time>2026-04-08T10:47:22.002Z</time></trkpt><trkpt lat="41.8727139659568" lon="2.605371072757174"><ele>248.33333333333331</ele><time>2026-04-08T10:47:23.002Z</time></trkpt><trkpt lat="41.87258825832735" lon="2.6052101946374058"><ele>246.66666666666669</ele><time>2026-04-08T10:47:24.002Z</time></trkpt><trkpt lat="41.87247363872746" lon="2.6050566741127663"><ele>245.0</ele><time>2026-04-08T10:47:25.002Z</time></trkpt><trkpt lat="41.872363552533855" lon="2.604908105480492"><ele>245.0</ele><time>2026-04-08T10:47:26.002Z</time></trkpt><trkpt lat="41.872241064484264" lon="2.6047935901523034"><ele>245.0</ele><time>2026-04-08T10:47:27.002Z</time></trkpt><trkpt lat="41.87216717650547" lon="2.6046309106578347"><ele>245.0</ele><time>2026-04-08T10:47:28.002Z</time></trkpt><trkpt lat="41.87210531466794" lon="2.604460504689159"><ele>245.0</ele><time>2026-04-08T10:47:29.002Z</time></trkpt><trkpt lat="41.87203896558107" lon="2.604262844669312"><ele>251.0</ele><time>2026-04-08T10:47:30.002Z</time></trkpt><trkpt lat="41.87197144525503" lon="2.604052973548046"><ele>257.0</ele><time>2026-04-08T10:47:31.002Z</time></trkpt><trkpt lat="41.87191623312526" lon="2.6038630722852036"><ele>263.0</ele><time>2026-04-08T10:47:32.002Z</time></trkpt><trkpt lat="41.871865951997776" lon="2.6036755091766812"><ele>264.8</ele><time>2026-04-08T10:47:33.002Z</time></trkpt><trkpt lat="41.871819776165914" lon="2.6035217648088933"><ele>266.6</ele><time>2026-04-08T10:47:34.002Z</time></trkpt><trkpt lat="41.87178295031588" lon="2.6033872711550416"><ele>268.4</ele><time>2026-04-08T10:47:35.002Z</time></trkpt><trkpt lat="41.871789926178316" lon="2.6032486772236223"><ele>270.2</ele><time>2026-04-08T10:47:36.002Z</time></trkpt><trkpt lat="41.87182619951613" lon="2.603109288746704"><ele>272.0</ele><time>2026-04-08T10:47:37.002Z</time></trkpt><trkpt lat="41.87189853479035" lon="2.602970588087663"><ele>270.25</ele><time>2026-04-08T10:47:38.002Z</time></trkpt><trkpt lat="41.871982558776054" lon="2.6028265780280524"><ele>268.5</ele><time>2026-04-08T10:47:39.002Z</time></trkpt><trkpt lat="41.872077460041176" lon="2.6026734036269588"><ele>266.75</ele><time>2026-04-08T10:47:40.002Z</time></trkpt><trkpt lat="41.87216413708288" lon="2.602511945857211"><ele>265.0</ele><time>2026-04-08T10:47:41.002Z</time></trkpt><trkpt lat="41.87224701563827" lon="2.6023369746619243"><ele>265.0</ele><time>2026-04-08T10:47:42.002Z</time></trkpt><trkpt lat="41.87232194326333" lon="2.6021504751228806"><ele>265.0</ele><time>2026-04-08T10:47:43.002Z</time></trkpt><trkpt lat="41.87238231030283" lon="2.6019582826085275"><ele>265.0</ele><time>2026-04-08T10:47:44.002Z</time></trkpt><trkpt lat="41.87242013457827" lon="2.6017625142422385"><ele>263.0</ele><time>2026-04-08T10:47:45.002Z</time></trkpt><trkpt lat="41.87243418911616" lon="2.6015481919179435"><ele>261.0</ele><time>2026-04-08T10:47:46.002Z</time></trkpt><trkpt lat="41.87242730357147" lon="2.60131750825564"><ele>259.0</ele><time>2026-04-08T10:47:47.002Z</time></trkpt><trkpt lat="41.87241195888979" lon="2.6010792881734086"><ele>258.3333333333333</ele><time>2026-04-08T10:47:48.002Z</time></trkpt><trkpt lat="41.8724115368786" lon="2.600856109700223"><ele>257.6666666666667</ele><time>2026-04-08T10:47:49.002Z</time></trkpt><trkpt lat="41.87237916725041" lon="2.600649321868145"><ele>257.0</ele><time>2026-04-08T10:47:50.002Z</time></trkpt><trkpt lat="41.87238231688383" lon="2.60046189289345"><ele>256.5</ele><time>2026-04-08T10:47:51.002Z</time></trkpt><trkpt lat="41.87239560755008" lon="2.600284329231783"><ele>256.0</ele><time>2026-04-08T10:47:52.002Z</time></trkpt><trkpt lat="41.872426185479526" lon="2.6001146977341576"><ele>255.5</ele><time>2026-04-08T10:47:53.002Z</time></trkpt><trkpt lat="41.872477464055876" lon="2.599952916179977"><ele>255.0</ele><time>2026-04-08T10:47:54.002Z</time></trkpt><trkpt lat="41.87255660202778" lon="2.599814033624287"><ele>260.0</ele><time>2026-04-08T10:47:55.003Z</time></trkpt><trkpt lat="41.87264833147292" lon="2.599703604725523"><ele>265.0</ele><time>2026-04-08T10:47:56.003Z</time></trkpt><trkpt lat="41.872719409052934" lon="2.599590160851512"><ele>270.0</ele><time>2026-04-08T10:47:57.003Z</time></trkpt><trkpt lat="41.87276544661767" lon="2.599464535536144"><ele>275.0</ele><time>2026-04-08T10:47:58.003Z</time></trkpt><trkpt lat="41.87275945829738" lon="2.599303782359198"><ele>275.0</ele><time>2026-04-08T10:47:59.003Z</time></trkpt><trkpt lat="41.87276373594589" lon="2.599122290650601"><ele>275.0</ele><time>2026-04-08T10:48:00.003Z</time></trkpt><trkpt lat="41.872736226504486" lon="2.598910310809309"><ele>275.0</ele><time>2026-04-08T10:48:01.003Z</time></trkpt><trkpt lat="41.87270236912234" lon="2.598682945850574"><ele>274.0</ele><time>2026-04-08T10:48:02.003Z</time></trkpt><trkpt lat="41.87266594308378" lon="2.5984613325474717"><ele>273.0</ele><time>2026-04-08T10:48:03.001Z</time></trkpt><trkpt lat="41.87263003314882" lon="2.5982689816798614"><ele>272.0</ele><time>2026-04-08T10:48:04.001Z</time></trkpt><trkpt lat="41.87258640750346" lon="2.59809817902893"><ele>273.25</ele><time>2026-04-08T10:48:05.001Z</time></trkpt><trkpt lat="41.87256536785908" lon="2.5979210685270253"><ele>274.5</ele><time>2026-04-08T10:48:06.001Z</time></trkpt><trkpt lat="41.87255988361577" lon="2.597719836248494"><ele>275.75</ele><time>2026-04-08T10:48:07.001Z</time></trkpt><trkpt lat="41.872594215472596" lon="2.597522229244088"><ele>277.0</ele><time>2026-04-08T10:48:08.001Z</time></trkpt><trkpt lat="41.872619294732196" lon="2.597327078509495"><ele>277.0</ele><time>2026-04-08T10:48:09.001Z</time></trkpt><trkpt lat="41.87262923363183" lon="2.5971410552702494"><ele>277.0</ele><time>2026-04-08T10:48:10.001Z</time></trkpt><trkpt lat="41.87265588722504" lon="2.5969746934321174"><ele>277.0</ele><time>2026-04-08T10:48:11.001Z</time></trkpt><trkpt lat="41.87264533512836" lon="2.5967932987669333"><ele>277.0</ele><time>2026-04-08T10:48:12.001Z</time></trkpt><trkpt lat="41.87260550650934" lon="2.5966235094697665"><ele>276.25</ele><time>2026-04-08T10:48:13.001Z</time></trkpt><trkpt lat="41.872539521642594" lon="2.5964641258512073"><ele>275.5</ele><time>2026-04-08T10:48:14.001Z</time></trkpt><trkpt lat="41.87245115075971" lon="2.5963315234500177"><ele>274.75</ele><time>2026-04-08T10:48:15Z</time></trkpt><trkpt lat="41.87234105509479" lon="2.59623049851883"><ele>274.0</ele><time>2026-04-08T10:48:16Z</time></trkpt><trkpt lat="41.87223030169555" lon="2.596128267552496"><ele>274.0</ele><time>2026-04-08T10:48:17Z</time></trkpt><trkpt lat="41.87212989448703" lon="2.5959778659743185"><ele>274.0</ele><time>2026-04-08T10:48:18.001Z</time></trkpt><trkpt lat="41.87205420289075" lon="2.595791204314968"><ele>274.0</ele><time>2026-04-08T10:48:19.001Z</time></trkpt><trkpt lat="41.87196596676138" lon="2.595606730819491"><ele>274.0</ele><time>2026-04-08T10:48:20.001Z</time></trkpt><trkpt lat="41.871861242208595" lon="2.5954267060209304"><ele>274.0</ele><time>2026-04-08T10:48:21.001Z</time></trkpt><trkpt lat="41.87178848316079" lon="2.5952345238365653"><ele>274.0</ele><time>2026-04-08T10:48:22.001Z</time></trkpt><trkpt lat="41.87168888927606" lon="2.59506966183557"><ele>274.0</ele><time>2026-04-08T10:48:23.001Z</time></trkpt><trkpt lat="41.87160563689506" lon="2.5949008902183635"><ele>274.0</ele><time>2026-04-08T10:48:24.001Z</time></trkpt><trkpt lat="41.87151113554131" lon="2.5947402861082094"><ele>274.0</ele><time>2026-04-08T10:48:25.001Z</time></trkpt><trkpt lat="41.871412114918286" lon="2.594608911630298"><ele>274.0</ele><time>2026-04-08T10:48:26.001Z</time></trkpt><trkpt lat="41.87131091565248" lon="2.5945006766964966"><ele>276.0</ele><time>2026-04-08T10:48:27.001Z</time></trkpt><trkpt lat="41.87121478002564" lon="2.594427491346666"><ele>278.0</ele><time>2026-04-08T10:48:28.001Z</time></trkpt><trkpt lat="41.871124232087304" lon="2.5943664516135723"><ele>280.0</ele><time>2026-04-08T10:48:29.001Z</time></trkpt><trkpt lat="41.87101382448201" lon="2.5943722816860215"><ele>282.0</ele><time>2026-04-08T10:48:30.001Z</time></trkpt><trkpt lat="41.87091041827139" lon="2.594399852274048"><ele>284.0</ele><time>2026-04-08T10:48:31.001Z</time></trkpt><trkpt lat="41.870812073660304" lon="2.594412349829053"><ele>284.25</ele><time>2026-04-08T10:48:32.001Z</time></trkpt><trkpt lat="41.87068555033485" lon="2.594409581140536"><ele>284.5</ele><time>2026-04-08T10:48:33.001Z</time></trkpt><trkpt lat="41.8705449428288" lon="2.5944215985959858"><ele>284.75</ele><time>2026-04-08T10:48:34.001Z</time></trkpt><trkpt lat="41.870400033136" lon="2.5944582089487342"><ele>285.0</ele><time>2026-04-08T10:48:35.001Z</time></trkpt><trkpt lat="41.87026551285439" lon="2.59454475343826"><ele>281.75</ele><time>2026-04-08T10:48:36.001Z</time></trkpt><trkpt lat="41.87012854481019" lon="2.5945858527016896"><ele>278.5</ele><time>2026-04-08T10:48:37.001Z</time></trkpt><trkpt lat="41.8700019673672" lon="2.5946527256917564"><ele>275.25</ele><time>2026-04-08T10:48:38.001Z</time></trkpt><trkpt lat="41.869858749641075" lon="2.5946972289101353"><ele>272.0</ele><time>2026-04-08T10:48:39.001Z</time></trkpt><trkpt lat="41.869702635131276" lon="2.5947220947452876"><ele>272.0</ele><time>2026-04-08T10:48:40.001Z</time></trkpt><trkpt lat="41.86953833290969" lon="2.5947353285132917"><ele>272.0</ele><time>2026-04-08T10:48:41.001Z</time></trkpt><trkpt lat="41.8693739161689" lon="2.5947489011231792"><ele>272.0</ele><time>2026-04-08T10:48:42.001Z</time></trkpt><trkpt lat="41.86920587345621" lon="2.594766496438412"><ele>272.33333333333337</ele><time>2026-04-08T10:48:43.001Z</time></trkpt><trkpt lat="41.86904121381312" lon="2.594793287701401"><ele>272.6666666666667</ele><time>2026-04-08T10:48:44.001Z</time></trkpt><trkpt lat="41.868876858990696" lon="2.5948399803661633"><ele>273.0</ele><time>2026-04-08T10:48:45.001Z</time></trkpt><trkpt lat="41.868716735284046" lon="2.5948909775468123"><ele>273.0</ele><time>2026-04-08T10:48:46.001Z</time></trkpt><trkpt lat="41.868560868142055" lon="2.5949440161376502"><ele>273.0</ele><time>2026-04-08T10:48:47.001Z</time></trkpt><trkpt lat="41.86841561109213" lon="2.594996222351126"><ele>273.0</ele><time>2026-04-08T10:48:48.001Z</time></trkpt><trkpt lat="41.86828641114375" lon="2.5950195360937354"><ele>273.0</ele><time>2026-04-08T10:48:49.001Z</time></trkpt><trkpt lat="41.868158874942615" lon="2.594993407788832"><ele>274.5</ele><time>2026-04-08T10:48:50.001Z</time></trkpt><trkpt lat="41.868025264421654" lon="2.5949481868382955"><ele>276.0</ele><time>2026-04-08T10:48:51.001Z</time></trkpt><trkpt lat="41.86789789163819" lon="2.594899972260214"><ele>277.5</ele><time>2026-04-08T10:48:52.001Z</time></trkpt><trkpt lat="41.867789193175" lon="2.5948532676717773"><ele>279.0</ele><time>2026-04-08T10:48:53.001Z</time></trkpt><trkpt lat="41.867691545050036" lon="2.594770735828533"><ele>279.3333333333333</ele><time>2026-04-08T10:48:54.001Z</time></trkpt><trkpt lat="41.86759091684071" lon="2.594636003655183"><ele>279.66666666666663</ele><time>2026-04-08T10:48:55.001Z</time></trkpt><trkpt lat="41.86748222717694" lon="2.5944767866919185"><ele>280.0</ele><time>2026-04-08T10:48:56.001Z</time></trkpt><trkpt lat="41.867369379175734" lon="2.594309339757651"><ele>280.0</ele><time>2026-04-08T10:48:57.001Z</time></trkpt><trkpt lat="41.867267360224396" lon="2.5941513761579067"><ele>280.0</ele><time>2026-04-08T10:48:58.001Z</time></trkpt><trkpt lat="41.867174903589266" lon="2.593998690515925"><ele>280.0</ele><time>2026-04-08T10:48:59.001Z</time></trkpt><trkpt lat="41.86707488747613" lon="2.5938577039600634"><ele>280.0</ele><time>2026-04-08T10:49:00.001Z</time></trkpt><trkpt lat="41.866992564413565" lon="2.5936907030933343"><ele>277.66666666666663</ele><time>2026-04-08T10:49:01.001Z</time></trkpt><trkpt lat="41.86692898236553" lon="2.5935077615809465"><ele>275.3333333333333</ele><time>2026-04-08T10:49:02.001Z</time></trkpt><trkpt lat="41.866840147036065" lon="2.5933435068465576"><ele>273.0</ele><time>2026-04-08T10:49:03.001Z</time></trkpt><trkpt lat="41.86673735358902" lon="2.5931898098092705"><ele>273.0</ele><time>2026-04-08T10:49:04.001Z</time></trkpt><trkpt lat="41.86663020378079" lon="2.593057238989613"><ele>273.0</ele><time>2026-04-08T10:49:05.001Z</time></trkpt><trkpt lat="41.86648632820978" lon="2.5929283436150565"><ele>273.0</ele><time>2026-04-08T10:49:06.001Z</time></trkpt><trkpt lat="41.866345738180065" lon="2.592836648803464"><ele>274.0</ele><time>2026-04-08T10:49:07.001Z</time></trkpt><trkpt lat="41.86624457583151" lon="2.59275638415907"><ele>275.0</ele><time>2026-04-08T10:49:08.001Z</time></trkpt><trkpt lat="41.8661692035328" lon="2.592661926025839"><ele>276.0</ele><time>2026-04-08T10:49:09.001Z</time></trkpt><trkpt lat="41.86611992169437" lon="2.592581133557307"><ele>277.0</ele><time>2026-04-08T10:49:10.001Z</time></trkpt><trkpt lat="41.86611737447207" lon="2.5924735917023556"><ele>278.0</ele><time>2026-04-08T10:49:11.001Z</time></trkpt><trkpt lat="41.86613430240755" lon="2.592371126707226"><ele>278.0</ele><time>2026-04-08T10:49:12.002Z</time></trkpt><trkpt lat="41.86612792597421" lon="2.5922814905099667"><ele>278.0</ele><time>2026-04-08T10:49:13.002Z</time></trkpt><trkpt lat="41.86600319559264" lon="2.592198539964663"><ele>278.0</ele><time>2026-04-08T10:49:15.002Z</time></trkpt><trkpt lat="41.86591042263387" lon="2.5922300806959235"><ele>278.0</ele><time>2026-04-08T10:49:16.002Z</time></trkpt><trkpt lat="41.86582873164146" lon="2.592308436766419"><ele>278.0</ele><time>2026-04-08T10:49:17.002Z</time></trkpt><trkpt lat="41.86576398469894" lon="2.592442477820822"><ele>277.25</ele><time>2026-04-08T10:49:18.002Z</time></trkpt><trkpt lat="41.86568934555605" lon="2.5926103857027054"><ele>276.5</ele><time>2026-04-08T10:49:19.002Z</time></trkpt><trkpt lat="41.86560932094815" lon="2.5927422590575024"><ele>275.75</ele><time>2026-04-08T10:49:20.002Z</time></trkpt><trkpt lat="41.86550643146456" lon="2.5928372411739566"><ele>275.0</ele><time>2026-04-08T10:49:21.002Z</time></trkpt><trkpt lat="41.86536549685392" lon="2.5929309920802783"><ele>274.33333333333337</ele><time>2026-04-08T10:49:22.002Z</time></trkpt><trkpt lat="41.86519354349754" lon="2.5930293534837574"><ele>273.6666666666667</ele><time>2026-04-08T10:49:23.002Z</time></trkpt><trkpt lat="41.86501686636409" lon="2.5931030110480404"><ele>273.0</ele><time>2026-04-08T10:49:24.002Z</time></trkpt><trkpt lat="41.86486896456" lon="2.5931921773851236"><ele>273.0</ele><time>2026-04-08T10:49:25.002Z</time></trkpt><trkpt lat="41.86473975847585" lon="2.5932701603081747"><ele>273.0</ele><time>2026-04-08T10:49:26.002Z</time></trkpt><trkpt lat="41.86462429913718" lon="2.5933296099869305"><ele>273.0</ele><time>2026-04-08T10:49:27.002Z</time></trkpt><trkpt lat="41.86451046607232" lon="2.5933738975324507"><ele>273.0</ele><time>2026-04-08T10:49:28.002Z</time></trkpt><trkpt lat="41.86439536729006" lon="2.5933943841215883"><ele>273.0</ele><time>2026-04-08T10:49:29.002Z</time></trkpt><trkpt lat="41.8642827234545" lon="2.593390271753935"><ele>273.0</ele><time>2026-04-08T10:49:30.002Z</time></trkpt><trkpt lat="41.86415658277054" lon="2.5933452847888745"><ele>273.0</ele><time>2026-04-08T10:49:31.002Z</time></trkpt><trkpt lat="41.8640145847522" lon="2.5932863690709764"><ele>273.0</ele><time>2026-04-08T10:49:32.002Z</time></trkpt><trkpt lat="41.863899365777925" lon="2.593205825560896"><ele>275.0</ele><time>2026-04-08T10:49:33.002Z</time></trkpt><trkpt lat="41.863786353491754" lon="2.5931204640152017"><ele>277.0</ele><time>2026-04-08T10:49:34.002Z</time></trkpt><trkpt lat="41.863661422642394" lon="2.5930367256916638"><ele>279.0</ele><time>2026-04-08T10:49:35.002Z</time></trkpt><trkpt lat="41.86354670727673" lon="2.592927234427983"><ele>281.0</ele><time>2026-04-08T10:49:36.002Z</time></trkpt><trkpt lat="41.86342058615647" lon="2.5928357413344543"><ele>286.6666666666667</ele><time>2026-04-08T10:49:37.002Z</time></trkpt><trkpt lat="41.86328244927764" lon="2.592739912590194"><ele>292.3333333333333</ele><time>2026-04-08T10:49:38.002Z</time></trkpt><trkpt lat="41.863144063937256" lon="2.592615391353281"><ele>298.0</ele><time>2026-04-08T10:49:39.002Z</time></trkpt><trkpt lat="41.86301354156346" lon="2.5925365138662846"><ele>298.0</ele><time>2026-04-08T10:49:40.002Z</time></trkpt><trkpt lat="41.862907979932004" lon="2.592437800778726"><ele>298.0</ele><time>2026-04-08T10:49:41.002Z</time></trkpt><trkpt lat="41.86282546669435" lon="2.592351765165197"><ele>298.0</ele><time>2026-04-08T10:49:42.002Z</time></trkpt><trkpt lat="41.862764050113576" lon="2.5922562979902937"><ele>298.0</ele><time>2026-04-08T10:49:43.002Z</time></trkpt><trkpt lat="41.86273321366101" lon="2.5921527063351606"><ele>298.0</ele><time>2026-04-08T10:49:44.002Z</time></trkpt><trkpt lat="41.86275530419764" lon="2.5920578512380894"><ele>300.8</ele><time>2026-04-08T10:49:45.002Z</time></trkpt><trkpt lat="41.8628131112992" lon="2.5919642438649144"><ele>303.6</ele><time>2026-04-08T10:49:46.002Z</time></trkpt><trkpt lat="41.862886357653885" lon="2.591872255921828"><ele>306.4</ele><time>2026-04-08T10:49:47.002Z</time></trkpt><trkpt lat="41.86294650895194" lon="2.591743535214969"><ele>309.2</ele><time>2026-04-08T10:49:48.002Z</time></trkpt><trkpt lat="41.86297250085637" lon="2.5915638116919175"><ele>312.0</ele><time>2026-04-08T10:49:49.002Z</time></trkpt><trkpt lat="41.86299001007008" lon="2.591371814155343"><ele>313.0</ele><time>2026-04-08T10:49:50.002Z</time></trkpt><trkpt lat="41.86298730577689" lon="2.591165433285835"><ele>314.0</ele><time>2026-04-08T10:49:51.002Z</time></trkpt><trkpt lat="41.86296070147454" lon="2.5909488097956563"><ele>315.0</ele><time>2026-04-08T10:49:52.002Z</time></trkpt><trkpt lat="41.86291048024874" lon="2.5907133379287823"><ele>315.0</ele><time>2026-04-08T10:49:53.002Z</time></trkpt><trkpt lat="41.862855991358025" lon="2.5904769398347303"><ele>315.0</ele><time>2026-04-08T10:49:54.002Z</time></trkpt><trkpt lat="41.86279626517578" lon="2.5902683958427137"><ele>315.0</ele><time>2026-04-08T10:49:55.002Z</time></trkpt><trkpt lat="41.862737216486494" lon="2.590085017980274"><ele>315.5</ele><time>2026-04-08T10:49:56.002Z</time></trkpt><trkpt lat="41.862698504792434" lon="2.589915291032569"><ele>316.0</ele><time>2026-04-08T10:49:57.002Z</time></trkpt><trkpt lat="41.862687839647045" lon="2.5897586506696317"><ele>316.5</ele><time>2026-04-08T10:49:58.003Z</time></trkpt><trkpt lat="41.86271188718165" lon="2.589610934399337"><ele>317.0</ele><time>2026-04-08T10:49:59.003Z</time></trkpt><trkpt lat="41.86276485942523" lon="2.5894679159324774"><ele>314.0</ele><time>2026-04-08T10:50:00.003Z</time></trkpt><trkpt lat="41.86284847900332" lon="2.5893180619957414"><ele>311.0</ele><time>2026-04-08T10:50:01.003Z</time></trkpt><trkpt lat="41.862950606386924" lon="2.5891542946895867"><ele>308.0</ele><time>2026-04-08T10:50:02.003Z</time></trkpt><trkpt lat="41.863063595206135" lon="2.589000539455884"><ele>308.0</ele><time>2026-04-08T10:50:03.003Z</time></trkpt><trkpt lat="41.86319649775063" lon="2.5888665224474035"><ele>308.0</ele><time>2026-04-08T10:50:04.003Z</time></trkpt><trkpt lat="41.86333464056234" lon="2.5887455757890123"><ele>308.0</ele><time>2026-04-08T10:50:05.003Z</time></trkpt><trkpt lat="41.86347031327117" lon="2.588628029397697"><ele>308.5</ele><time>2026-04-08T10:50:06.003Z</time></trkpt><trkpt lat="41.86358779054741" lon="2.5885026891011136"><ele>309.0</ele><time>2026-04-08T10:50:07.003Z</time></trkpt><trkpt lat="41.863690100235644" lon="2.5883782956984414"><ele>309.5</ele><time>2026-04-08T10:50:08.003Z</time></trkpt><trkpt lat="41.86378539117655" lon="2.5882612188209815"><ele>310.0</ele><time>2026-04-08T10:50:09.001Z</time></trkpt><trkpt lat="41.86385808015161" lon="2.58815060230223"><ele>310.0</ele><time>2026-04-08T10:50:10.001Z</time></trkpt><trkpt lat="41.863941496681754" lon="2.5880708047593877"><ele>310.0</ele><time>2026-04-08T10:50:11.001Z</time></trkpt><trkpt lat="41.864047360708994" lon="2.588021753766733"><ele>310.0</ele><time>2026-04-08T10:50:12.001Z</time></trkpt><trkpt lat="41.86417091897114" lon="2.587986023058838"><ele>310.0</ele><time>2026-04-08T10:50:13.001Z</time></trkpt><trkpt lat="41.86428219033169" lon="2.5879623794119007"><ele>311.4</ele><time>2026-04-08T10:50:14.001Z</time></trkpt><trkpt lat="41.86436550056572" lon="2.5879085698456157"><ele>312.8</ele><time>2026-04-08T10:50:15.001Z</time></trkpt><trkpt lat="41.86442481873393" lon="2.587818493155982"><ele>314.2</ele><time>2026-04-08T10:50:16.001Z</time></trkpt><trkpt lat="41.86445161705448" lon="2.5876898168889886"><ele>315.6</ele><time>2026-04-08T10:50:17.001Z</time></trkpt><trkpt lat="41.864446637756984" lon="2.587535515176517"><ele>317.0</ele><time>2026-04-08T10:50:18.001Z</time></trkpt><trkpt lat="41.86443534721701" lon="2.5873660567188206"><ele>317.0</ele><time>2026-04-08T10:50:19.001Z</time></trkpt><trkpt lat="41.86441789946846" lon="2.5871690039936994"><ele>317.0</ele><time>2026-04-08T10:50:20.001Z</time></trkpt><trkpt lat="41.8644056754989" lon="2.586956497655613"><ele>317.0</ele><time>2026-04-08T10:50:21.001Z</time></trkpt><trkpt lat="41.864393133758995" lon="2.586744523265264"><ele>317.33333333333337</ele><time>2026-04-08T10:50:22.001Z</time></trkpt><trkpt lat="41.86437498048433" lon="2.586533728243062"><ele>317.6666666666667</ele><time>2026-04-08T10:50:23.001Z</time></trkpt><trkpt lat="41.864360175883434" lon="2.5863182801799516"><ele>318.0</ele><time>2026-04-08T10:50:24.001Z</time></trkpt><trkpt lat="41.864348692916714" lon="2.5860972878415103"><ele>318.6666666666667</ele><time>2026-04-08T10:50:25.001Z</time></trkpt><trkpt lat="41.864337078510765" lon="2.585869838467374"><ele>319.33333333333337</ele><time>2026-04-08T10:50:26.001Z</time></trkpt><trkpt lat="41.864322889191754" lon="2.585653591357775"><ele>320.0</ele><time>2026-04-08T10:50:27.001Z</time></trkpt><trkpt lat="41.86430618166883" lon="2.5854551231017058"><ele>320.25</ele><time>2026-04-08T10:50:28.001Z</time></trkpt><trkpt lat="41.86429278433687" lon="2.585266408729431"><ele>320.5</ele><time>2026-04-08T10:50:29.001Z</time></trkpt><trkpt lat="41.86429887835081" lon="2.5850900014723996"><ele>320.75</ele><time>2026-04-08T10:50:30.001Z</time></trkpt><trkpt lat="41.86431900607759" lon="2.5849166256075864"><ele>321.0</ele><time>2026-04-08T10:50:31.001Z</time></trkpt><trkpt lat="41.86435669360952" lon="2.5847528646763114"><ele>321.0</ele><time>2026-04-08T10:50:32.001Z</time></trkpt><trkpt lat="41.86440366893937" lon="2.584612784341071"><ele>321.0</ele><time>2026-04-08T10:50:33.001Z</time></trkpt><trkpt lat="41.864426175342274" lon="2.584484079515365"><ele>321.0</ele><time>2026-04-08T10:50:34.001Z</time></trkpt><trkpt lat="41.864428180985435" lon="2.584360085564179"><ele>321.0</ele><time>2026-04-08T10:50:35.001Z</time></trkpt><trkpt lat="41.86439071130013" lon="2.5842363738235097"><ele>321.0</ele><time>2026-04-08T10:50:36.001Z</time></trkpt><trkpt lat="41.86432981466714" lon="2.5840945292505544"><ele>314.0</ele><time>2026-04-08T10:50:37.001Z</time></trkpt><trkpt lat="41.86425327970911" lon="2.583928617898721"><ele>307.0</ele><time>2026-04-08T10:50:38.001Z</time></trkpt><trkpt lat="41.864179293108506" lon="2.583732102421042"><ele>300.0</ele><time>2026-04-08T10:50:39.001Z</time></trkpt><trkpt lat="41.86411494627102" lon="2.58353288378155"><ele>300.0</ele><time>2026-04-08T10:50:40.001Z</time></trkpt><trkpt lat="41.8640616538328" lon="2.583319205986259"><ele>300.0</ele><time>2026-04-08T10:50:41.001Z</time></trkpt><trkpt lat="41.86402603690413" lon="2.583079477804794"><ele>300.0</ele><time>2026-04-08T10:50:42.001Z</time></trkpt><trkpt lat="41.86400633777124" lon="2.5828359041519255"><ele>301.6666666666667</ele><time>2026-04-08T10:50:43.001Z</time></trkpt><trkpt lat="41.8639886115983" lon="2.582593198109558"><ele>303.33333333333337</ele><time>2026-04-08T10:50:44.001Z</time></trkpt><trkpt lat="41.86396057375818" lon="2.5823588523039382"><ele>305.0</ele><time>2026-04-08T10:50:45.001Z</time></trkpt><trkpt lat="41.863920775465736" lon="2.582127201910079"><ele>305.6666666666667</ele><time>2026-04-08T10:50:46.001Z</time></trkpt><trkpt lat="41.86387684969342" lon="2.58190434164173"><ele>306.3333333333333</ele><time>2026-04-08T10:50:47.001Z</time></trkpt><trkpt lat="41.86383967850453" lon="2.58169200792483"><ele>307.0</ele><time>2026-04-08T10:50:48.001Z</time></trkpt><trkpt lat="41.86380207344723" lon="2.5815020119659318"><ele>307.0</ele><time>2026-04-08T10:50:49.001Z</time></trkpt><trkpt lat="41.86377648441209" lon="2.581326050711552"><ele>307.0</ele><time>2026-04-08T10:50:50.001Z</time></trkpt><trkpt lat="41.86377049436614" lon="2.581162197875742"><ele>307.0</ele><time>2026-04-08T10:50:51.001Z</time></trkpt><trkpt lat="41.86378605652032" lon="2.5810037602564067"><ele>307.0</ele><time>2026-04-08T10:50:52.001Z</time></trkpt><trkpt lat="41.863840764273256" lon="2.5808570954498777"><ele>308.25</ele><time>2026-04-08T10:50:53.001Z</time></trkpt><trkpt lat="41.863927159195995" lon="2.5807269779261337"><ele>309.5</ele><time>2026-04-08T10:50:54.001Z</time></trkpt><trkpt lat="41.86404012226984" lon="2.5806116197230846"><ele>310.75</ele><time>2026-04-08T10:50:55.001Z</time></trkpt><trkpt lat="41.86415955561053" lon="2.5805189217950213"><ele>312.0</ele><time>2026-04-08T10:50:56.001Z</time></trkpt><trkpt lat="41.86425230611136" lon="2.580441913750572"><ele>312.8</ele><time>2026-04-08T10:50:57.001Z</time></trkpt><trkpt lat="41.86431256081672" lon="2.5803540776973577"><ele>313.6</ele><time>2026-04-08T10:50:58.001Z</time></trkpt><trkpt lat="41.8643379075983" lon="2.5802366488386927"><ele>314.40000000000003</ele><time>2026-04-08T10:50:59.001Z</time></trkpt><trkpt lat="41.86432271885632" lon="2.58011633904054"><ele>315.2</ele><time>2026-04-08T10:51:00.001Z</time></trkpt><trkpt lat="41.864270819809434" lon="2.5800175873631757"><ele>316.0</ele><time>2026-04-08T10:51:01.001Z</time></trkpt><trkpt lat="41.86418183085175" lon="2.579926288792963"><ele>316.5</ele><time>2026-04-08T10:51:02.001Z</time></trkpt><trkpt lat="41.86407805004314" lon="2.5798338001842893"><ele>317.0</ele><time>2026-04-08T10:51:03.001Z</time></trkpt><trkpt lat="41.863963866249236" lon="2.5797298777903386"><ele>317.5</ele><time>2026-04-08T10:51:04.001Z</time></trkpt><trkpt lat="41.86385609372164" lon="2.579613031808036"><ele>318.0</ele><time>2026-04-08T10:51:05.001Z</time></trkpt><trkpt lat="41.86377168770608" lon="2.5794628389041274"><ele>316.6666666666667</ele><time>2026-04-08T10:51:06.001Z</time></trkpt><trkpt lat="41.86367457221806" lon="2.5793138152229673"><ele>315.33333333333337</ele><time>2026-04-08T10:51:07.001Z</time></trkpt><trkpt lat="41.86359299516443" lon="2.5791341626666022"><ele>314.0</ele><time>2026-04-08T10:51:08.001Z</time></trkpt><trkpt lat="41.863507692660605" lon="2.5789466420842664"><ele>317.6666666666667</ele><time>2026-04-08T10:51:09.002Z</time></trkpt><trkpt lat="41.8634197579192" lon="2.578752017580289"><ele>321.3333333333333</ele><time>2026-04-08T10:51:10.002Z</time></trkpt><trkpt lat="41.863332588087374" lon="2.578554614430849"><ele>325.0</ele><time>2026-04-08T10:51:11.002Z</time></trkpt><trkpt lat="41.863240792519704" lon="2.578368805281729"><ele>325.0</ele><time>2026-04-08T10:51:12.002Z</time></trkpt><trkpt lat="41.86313839966543" lon="2.5782010510836075"><ele>325.0</ele><time>2026-04-08T10:51:13.002Z</time></trkpt><trkpt lat="41.86303083985984" lon="2.578042277689669"><ele>325.0</ele><time>2026-04-08T10:51:14.002Z</time></trkpt><trkpt lat="41.862924306149026" lon="2.577896472072237"><ele>323.75</ele><time>2026-04-08T10:51:15.002Z</time></trkpt><trkpt lat="41.86282833293826" lon="2.5777602218005744"><ele>322.5</ele><time>2026-04-08T10:51:16.002Z</time></trkpt><trkpt lat="41.86275218771233" lon="2.5776332103408337"><ele>321.25</ele><time>2026-04-08T10:51:17.002Z</time></trkpt><trkpt lat="41.862694521905105" lon="2.5774977723684676"><ele>320.0</ele><time>2026-04-08T10:51:18.002Z</time></trkpt><trkpt lat="41.86265772618387" lon="2.5773393909038225"><ele>320.0</ele><time>2026-04-08T10:51:19.002Z</time></trkpt><trkpt lat="41.86263667947457" lon="2.57716293737611"><ele>320.0</ele><time>2026-04-08T10:51:20.002Z</time></trkpt><trkpt lat="41.86262094825469" lon="2.5769820797758194"><ele>320.0</ele><time>2026-04-08T10:51:21.002Z</time></trkpt><trkpt lat="41.86260257098951" lon="2.5768060379616453"><ele>320.0</ele><time>2026-04-08T10:51:22.002Z</time></trkpt><trkpt lat="41.86258427156771" lon="2.5766504654357063"><ele>326.25</ele><time>2026-04-08T10:51:23.002Z</time></trkpt><trkpt lat="41.86256731988967" lon="2.5764933091190176"><ele>332.5</ele><time>2026-04-08T10:51:24.002Z</time></trkpt><trkpt lat="41.86252775158055" lon="2.576348429413192"><ele>338.75</ele><time>2026-04-08T10:51:25.002Z</time></trkpt><trkpt lat="41.86246033119342" lon="2.5762274468560094"><ele>345.0</ele><time>2026-04-08T10:51:26.002Z</time></trkpt><trkpt lat="41.86236421391897" lon="2.576127067579439"><ele>345.0</ele><time>2026-04-08T10:51:27.002Z</time></trkpt><trkpt lat="41.862246038829966" lon="2.5760449483531063"><ele>345.0</ele><time>2026-04-08T10:51:28.002Z</time></trkpt><trkpt lat="41.862148649023844" lon="2.5759305511758495"><ele>345.0</ele><time>2026-04-08T10:51:29.002Z</time></trkpt><trkpt lat="41.86208209642549" lon="2.575785901600614"><ele>345.0</ele><time>2026-04-08T10:51:30.002Z</time></trkpt><trkpt lat="41.862040095595425" lon="2.5756327736779627"><ele>345.0</ele><time>2026-04-08T10:51:31.002Z</time></trkpt><trkpt lat="41.86200507536838" lon="2.575450525292649"><ele>345.0</ele><time>2026-04-08T10:51:32.002Z</time></trkpt><trkpt lat="41.861972888397915" lon="2.575264919410808"><ele>345.0</ele><time>2026-04-08T10:51:33.002Z</time></trkpt><trkpt lat="41.86191776664514" lon="2.5750800403447065"><ele>345.0</ele><time>2026-04-08T10:51:34.002Z</time></trkpt><trkpt lat="41.86187086222578" lon="2.574889979387447"><ele>345.6</ele><time>2026-04-08T10:51:35.002Z</time></trkpt><trkpt lat="41.861853128904436" lon="2.574715783235992"><ele>346.2</ele><time>2026-04-08T10:51:36.002Z</time></trkpt><trkpt lat="41.86184676167402" lon="2.5745668306738745"><ele>346.79999999999995</ele><time>2026-04-08T10:51:37.002Z</time></trkpt><trkpt lat="41.86184602304845" lon="2.5744341541787477"><ele>347.4</ele><time>2026-04-08T10:51:38.002Z</time></trkpt><trkpt lat="41.86186513268722" lon="2.574340253444446"><ele>348.0</ele><time>2026-04-08T10:51:39.002Z</time></trkpt><trkpt lat="41.86198389291236" lon="2.5743092704113058"><ele>349.1666666666667</ele><time>2026-04-08T10:51:41.002Z</time></trkpt><trkpt lat="41.862058398370884" lon="2.574342227463185"><ele>350.3333333333333</ele><time>2026-04-08T10:51:42.002Z</time></trkpt><trkpt lat="41.862135406022155" lon="2.5743313393943605"><ele>351.5</ele><time>2026-04-08T10:51:43.002Z</time></trkpt><trkpt lat="41.86221491264524" lon="2.574288088001149"><ele>352.66666666666663</ele><time>2026-04-08T10:51:44.002Z</time></trkpt><trkpt lat="41.862279435162854" lon="2.574199990726511"><ele>353.8333333333333</ele><time>2026-04-08T10:51:45.002Z</time></trkpt><trkpt lat="41.86232481554166" lon="2.574071901468008"><ele>355.0</ele><time>2026-04-08T10:51:46.002Z</time></trkpt><trkpt lat="41.86236034802504" lon="2.573905525060187"><ele>355.0</ele><time>2026-04-08T10:51:47.002Z</time></trkpt><trkpt lat="41.862399142169295" lon="2.5737296767457667"><ele>355.0</ele><time>2026-04-08T10:51:48.002Z</time></trkpt><trkpt lat="41.86243348781796" lon="2.5735819733969882"><ele>355.0</ele><time>2026-04-08T10:51:49.002Z</time></trkpt><trkpt lat="41.86245604071037" lon="2.573446950001704"><ele>355.0</ele><time>2026-04-08T10:51:50.002Z</time></trkpt><trkpt lat="41.86244657293655" lon="2.5733254346515784"><ele>355.0</ele><time>2026-04-08T10:51:51.002Z</time></trkpt><trkpt lat="41.86240471797079" lon="2.5731948034156438"><ele>356.6</ele><time>2026-04-08T10:51:52.002Z</time></trkpt><trkpt lat="41.86233679941063" lon="2.5730644321599847"><ele>358.2</ele><time>2026-04-08T10:51:53.002Z</time></trkpt><trkpt lat="41.862258467300606" lon="2.5729445171676457"><ele>359.79999999999995</ele><time>2026-04-08T10:51:54.002Z</time></trkpt><trkpt lat="41.862215806792335" lon="2.5728344345159972"><ele>361.4</ele><time>2026-04-08T10:51:55.002Z</time></trkpt><trkpt lat="41.86221342372621" lon="2.572727821962125"><ele>363.0</ele><time>2026-04-08T10:51:56.002Z</time></trkpt><trkpt lat="41.86225137144118" lon="2.5726302251826847"><ele>365.0</ele><time>2026-04-08T10:51:57.002Z</time></trkpt><trkpt lat="41.862326298989245" lon="2.57259365645429"><ele>367.0</ele><time>2026-04-08T10:51:58.002Z</time></trkpt><trkpt lat="41.862399307877936" lon="2.572593587804302"><ele>369.0</ele><time>2026-04-08T10:51:59.002Z</time></trkpt><trkpt lat="41.862465060847626" lon="2.572550555091867"><ele>371.0</ele><time>2026-04-08T10:52:00.002Z</time></trkpt><trkpt lat="41.86253930069991" lon="2.5725198339068704"><ele>373.0</ele><time>2026-04-08T10:52:01.002Z</time></trkpt><trkpt lat="41.862590081733025" lon="2.5724179849638227"><ele>375.0</ele><time>2026-04-08T10:52:02.002Z</time></trkpt><trkpt lat="41.86258860954114" lon="2.5722768764744357"><ele>375.0</ele><time>2026-04-08T10:52:03.002Z</time></trkpt><trkpt lat="41.86257331869778" lon="2.5721373970319372"><ele>375.0</ele><time>2026-04-08T10:52:04.003Z</time></trkpt><trkpt lat="41.86253102135395" lon="2.5719761680340105"><ele>375.0</ele><time>2026-04-08T10:52:05.003Z</time></trkpt><trkpt lat="41.862481142699814" lon="2.571812681149595"><ele>375.0</ele><time>2026-04-08T10:52:06.003Z</time></trkpt><trkpt lat="41.86243273886608" lon="2.571682218673736"><ele>375.6</ele><time>2026-04-08T10:52:07.003Z</time></trkpt><trkpt lat="41.86236862855135" lon="2.5715623160847003"><ele>376.2</ele><time>2026-04-08T10:52:08.003Z</time></trkpt><trkpt lat="41.862278496076556" lon="2.5714729218677177"><ele>376.79999999999995</ele><time>2026-04-08T10:52:09.003Z</time></trkpt><trkpt lat="41.862204279607724" lon="2.5713726364310663"><ele>377.4</ele><time>2026-04-08T10:52:10.003Z</time></trkpt><trkpt lat="41.86217018374872" lon="2.571244302458883"><ele>378.0</ele><time>2026-04-08T10:52:11.003Z</time></trkpt><trkpt lat="41.862155850518356" lon="2.5711017229066746"><ele>379.8333333333333</ele><time>2026-04-08T10:52:12.003Z</time></trkpt><trkpt lat="41.862156450957464" lon="2.5709745743258576"><ele>381.66666666666663</ele><time>2026-04-08T10:52:13.003Z</time></trkpt><trkpt lat="41.86217231270432" lon="2.5708656338282863"><ele>383.5</ele><time>2026-04-08T10:52:14.003Z</time></trkpt><trkpt lat="41.86220419229657" lon="2.5707824490404625"><ele>385.3333333333333</ele><time>2026-04-08T10:52:15.002Z</time></trkpt><trkpt lat="41.86226838102882" lon="2.570767522356848"><ele>387.16666666666663</ele><time>2026-04-08T10:52:16.002Z</time></trkpt><trkpt lat="41.8623971797014" lon="2.5707812106284162"><ele>389.0</ele><time>2026-04-08T10:52:18.002Z</time></trkpt><trkpt lat="41.86247732628261" lon="2.570796803092331"><ele>388.99999999999994</ele><time>2026-04-08T10:52:19.002Z</time></trkpt><trkpt lat="41.86254945904146" lon="2.570768994340572"><ele>389.0</ele><time>2026-04-08T10:52:20.002Z</time></trkpt><trkpt lat="41.862606741466365" lon="2.570699368507034"><ele>389.0</ele><time>2026-04-08T10:52:21.002Z</time></trkpt><trkpt lat="41.86264043199815" lon="2.5705932892301084"><ele>389.0</ele><time>2026-04-08T10:52:22.002Z</time></trkpt><trkpt lat="41.862653776894376" lon="2.5704659950942648"><ele>388.99999999999994</ele><time>2026-04-08T10:52:23.001Z</time></trkpt><trkpt lat="41.862671705427516" lon="2.5703152753452017"><ele>389.0</ele><time>2026-04-08T10:52:24.001Z</time></trkpt><trkpt lat="41.862714762910855" lon="2.570192559243912"><ele>391.79999999999995</ele><time>2026-04-08T10:52:25.001Z</time></trkpt><trkpt lat="41.86275187111583" lon="2.570093129636054"><ele>394.59999999999997</ele><time>2026-04-08T10:52:26.001Z</time></trkpt><trkpt lat="41.86275724973788" lon="2.5699894525939455"><ele>397.4</ele><time>2026-04-08T10:52:27.001Z</time></trkpt><trkpt lat="41.86272952930995" lon="2.569880618054352"><ele>400.2</ele><time>2026-04-08T10:52:28.001Z</time></trkpt><trkpt lat="41.862656751524604" lon="2.5697849908750054"><ele>403.0</ele><time>2026-04-08T10:52:29.001Z</time></trkpt><trkpt lat="41.86256860132581" lon="2.5696978440359493"><ele>403.0</ele><time>2026-04-08T10:52:30.001Z</time></trkpt><trkpt lat="41.86250840285869" lon="2.569586395994065"><ele>403.0</ele><time>2026-04-08T10:52:31.001Z</time></trkpt><trkpt lat="41.862499097994906" lon="2.5694524018753153"><ele>403.0</ele><time>2026-04-08T10:52:32.001Z</time></trkpt><trkpt lat="41.862472894945036" lon="2.569327262883441"><ele>403.0</ele><time>2026-04-08T10:52:33.001Z</time></trkpt><trkpt lat="41.86242935915828" lon="2.5692182966908708"><ele>403.0</ele><time>2026-04-08T10:52:34.001Z</time></trkpt><trkpt lat="41.862356260998126" lon="2.5691410715702214"><ele>403.83333333333337</ele><time>2026-04-08T10:52:35.001Z</time></trkpt><trkpt lat="41.86230894173909" lon="2.56905172313646"><ele>404.6666666666667</ele><time>2026-04-08T10:52:36.001Z</time></trkpt><trkpt lat="41.862306429992415" lon="2.5689448159391985"><ele>405.5</ele><time>2026-04-08T10:52:37.001Z</time></trkpt><trkpt lat="41.86234335872211" lon="2.568851837369758"><ele>406.33333333333337</ele><time>2026-04-08T10:52:38.001Z</time></trkpt><trkpt lat="41.86241082725818" lon="2.5687586132316103"><ele>407.1666666666667</ele><time>2026-04-08T10:52:39.001Z</time></trkpt><trkpt lat="41.86249429942317" lon="2.5686616272115934"><ele>408.0</ele><time>2026-04-08T10:52:40.001Z</time></trkpt><trkpt lat="41.86255274083314" lon="2.5685631841160252"><ele>408.0</ele><time>2026-04-08T10:52:41.001Z</time></trkpt><trkpt lat="41.862590251639425" lon="2.5684479905956166"><ele>408.0</ele><time>2026-04-08T10:52:42.001Z</time></trkpt><trkpt lat="41.86259280629466" lon="2.568315870152639"><ele>408.0</ele><time>2026-04-08T10:52:43.001Z</time></trkpt><trkpt lat="41.862564989896036" lon="2.568175574448375"><ele>408.0</ele><time>2026-04-08T10:52:44.001Z</time></trkpt><trkpt lat="41.8625088817972" lon="2.5680174145679215"><ele>408.0</ele><time>2026-04-08T10:52:45.001Z</time></trkpt><trkpt lat="41.862436439003304" lon="2.567860587211371"><ele>409.3333333333333</ele><time>2026-04-08T10:52:46.001Z</time></trkpt><trkpt lat="41.862361129466315" lon="2.5677447661337856"><ele>410.66666666666663</ele><time>2026-04-08T10:52:47.001Z</time></trkpt><trkpt lat="41.86229209502936" lon="2.5676759501606305"><ele>412.0</ele><time>2026-04-08T10:52:48.001Z</time></trkpt><trkpt lat="41.862243003963414" lon="2.5676124284298765"><ele>413.3333333333333</ele><time>2026-04-08T10:52:49.001Z</time></trkpt><trkpt lat="41.86222648644342" lon="2.567528753863102"><ele>414.66666666666663</ele><time>2026-04-08T10:52:50.001Z</time></trkpt><trkpt lat="41.8622409039604" lon="2.5674189091431376"><ele>416.0</ele><time>2026-04-08T10:52:51.001Z</time></trkpt><trkpt lat="41.86229335662342" lon="2.5673377727365962"><ele>416.0</ele><time>2026-04-08T10:52:52.001Z</time></trkpt><trkpt lat="41.862363709237" lon="2.567295342481379"><ele>416.0</ele><time>2026-04-08T10:52:53.001Z</time></trkpt><trkpt lat="41.862459350162574" lon="2.5673250799905794"><ele>416.0</ele><time>2026-04-08T10:52:54.001Z</time></trkpt><trkpt lat="41.86257237356026" lon="2.5673542702476855"><ele>416.0</ele><time>2026-04-08T10:52:55.001Z</time></trkpt><trkpt lat="41.862717891780825" lon="2.5673923502906275"><ele>416.0</ele><time>2026-04-08T10:52:56.001Z</time></trkpt><trkpt lat="41.862848498781126" lon="2.5674148152166696"><ele>412.66666666666663</ele><time>2026-04-08T10:52:57.001Z</time></trkpt><trkpt lat="41.86295354007583" lon="2.5674491000214466"><ele>409.3333333333333</ele><time>2026-04-08T10:52:58.001Z</time></trkpt><trkpt lat="41.86303858209883" lon="2.5674740545569827"><ele>406.0</ele><time>2026-04-08T10:52:59.001Z</time></trkpt><trkpt lat="41.86310898874603" lon="2.567494441086914"><ele>402.66666666666663</ele><time>2026-04-08T10:53:00.001Z</time></trkpt><trkpt lat="41.86317799888693" lon="2.5674034299421304"><ele>399.3333333333333</ele><time>2026-04-08T10:53:02.001Z</time></trkpt><trkpt lat="41.863212516914324" lon="2.5673283592899776"><ele>396.0</ele><time>2026-04-08T10:53:05.001Z</time></trkpt><trkpt lat="41.863200781322" lon="2.5672361937554804"><ele>396.0</ele><time>2026-04-08T10:53:19.001Z</time></trkpt><trkpt lat="41.86308612764711" lon="2.5671672903248544"><ele>396.0</ele><time>2026-04-08T10:53:21.001Z</time></trkpt><trkpt lat="41.86298807232037" lon="2.56714166502793"><ele>396.0</ele><time>2026-04-08T10:53:22.001Z</time></trkpt><trkpt lat="41.86288575391127" lon="2.567122610186763"><ele>396.0</ele><time>2026-04-08T10:53:23.001Z</time></trkpt><trkpt lat="41.86277990726173" lon="2.5671090084063146"><ele>396.0</ele><time>2026-04-08T10:53:24.001Z</time></trkpt><trkpt lat="41.86266374809102" lon="2.567082252518398"><ele>400.0</ele><time>2026-04-08T10:53:25.001Z</time></trkpt><trkpt lat="41.86255253495373" lon="2.567030501732232"><ele>404.0</ele><time>2026-04-08T10:53:26.001Z</time></trkpt><trkpt lat="41.8624573101492" lon="2.566990250262713"><ele>408.0</ele><time>2026-04-08T10:53:27.002Z</time></trkpt><trkpt lat="41.86236478637062" lon="2.566985841288181"><ele>412.0</ele><time>2026-04-08T10:53:28.002Z</time></trkpt><trkpt lat="41.862269194916614" lon="2.567031143172132"><ele>416.0</ele><time>2026-04-08T10:53:29.002Z</time></trkpt><trkpt lat="41.86217591295453" lon="2.5671175497402574"><ele>416.0</ele><time>2026-04-08T10:53:30.002Z</time></trkpt><trkpt lat="41.862091388202565" lon="2.5672256747135407"><ele>416.0</ele><time>2026-04-08T10:53:31.002Z</time></trkpt><trkpt lat="41.86202900552513" lon="2.5673365601690277"><ele>416.0</ele><time>2026-04-08T10:53:32.002Z</time></trkpt><trkpt lat="41.86199386648987" lon="2.567451530461417"><ele>416.0</ele><time>2026-04-08T10:53:33.002Z</time></trkpt><trkpt lat="41.86199963208031" lon="2.5675691623541073"><ele>416.0</ele><time>2026-04-08T10:53:34.002Z</time></trkpt><trkpt lat="41.86204200920595" lon="2.5676872973927884"><ele>416.0</ele><time>2026-04-08T10:53:35.002Z</time></trkpt><trkpt lat="41.86211594143459" lon="2.567797625314643"><ele>416.0</ele><time>2026-04-08T10:53:36.002Z</time></trkpt><trkpt lat="41.862163342458246" lon="2.567909779984998"><ele>416.0</ele><time>2026-04-08T10:53:37.002Z</time></trkpt><trkpt lat="41.86220802057078" lon="2.568023196174026"><ele>416.0</ele><time>2026-04-08T10:53:38.002Z</time></trkpt><trkpt lat="41.86220386630464" lon="2.568144482979224"><ele>416.0</ele><time>2026-04-08T10:53:39.002Z</time></trkpt><trkpt lat="41.86216609847773" lon="2.568246228087284"><ele>414.4</ele><time>2026-04-08T10:53:40.002Z</time></trkpt><trkpt lat="41.86209436054312" lon="2.56834195113571"><ele>412.8</ele><time>2026-04-08T10:53:41.002Z</time></trkpt><trkpt lat="41.86199089023815" lon="2.5684178845048287"><ele>411.2</ele><time>2026-04-08T10:53:42.002Z</time></trkpt><trkpt lat="41.8618776867453" lon="2.5684865490976283"><ele>409.59999999999997</ele><time>2026-04-08T10:53:43.002Z</time></trkpt><trkpt lat="41.86178795576898" lon="2.5685546456532626"><ele>408.0</ele><time>2026-04-08T10:53:44.002Z</time></trkpt><trkpt lat="41.861717968999386" lon="2.568637576884527"><ele>408.0</ele><time>2026-04-08T10:53:45.002Z</time></trkpt><trkpt lat="41.86167774781242" lon="2.5687431054351513"><ele>408.0</ele><time>2026-04-08T10:53:46.002Z</time></trkpt><trkpt lat="41.861671047112175" lon="2.5688757832731093"><ele>408.0</ele><time>2026-04-08T10:53:47.002Z</time></trkpt><trkpt lat="41.861687461752425" lon="2.569018356511687"><ele>408.0</ele><time>2026-04-08T10:53:48.002Z</time></trkpt><trkpt lat="41.86175890459963" lon="2.569145172913814"><ele>408.0</ele><time>2026-04-08T10:53:49.002Z</time></trkpt><trkpt lat="41.861811403031744" lon="2.5692676318633993"><ele>408.0</ele><time>2026-04-08T10:53:50.002Z</time></trkpt><trkpt lat="41.86184876302775" lon="2.5693819876922204"><ele>408.0</ele><time>2026-04-08T10:53:51.002Z</time></trkpt><trkpt lat="41.86181060169817" lon="2.5695075133283276"><ele>408.0</ele><time>2026-04-08T10:53:52.002Z</time></trkpt><trkpt lat="41.86177148644552" lon="2.5696367341030366"><ele>408.0</ele><time>2026-04-08T10:53:53.002Z</time></trkpt><trkpt lat="41.86169692886251" lon="2.5697607760473957"><ele>408.0</ele><time>2026-04-08T10:53:54.002Z</time></trkpt><trkpt lat="41.86159717852957" lon="2.569880663249169"><ele>414.25</ele><time>2026-04-08T10:53:55.002Z</time></trkpt><trkpt lat="41.861487143961426" lon="2.5700042425961707"><ele>420.5</ele><time>2026-04-08T10:53:56.002Z</time></trkpt><trkpt lat="41.861386036374356" lon="2.57012215043394"><ele>426.75</ele><time>2026-04-08T10:53:57.002Z</time></trkpt><trkpt lat="41.86129611181009" lon="2.5702238959643995"><ele>433.0</ele><time>2026-04-08T10:53:58.002Z</time></trkpt><trkpt lat="41.86119774625855" lon="2.5703043197092983"><ele>433.0</ele><time>2026-04-08T10:53:59.002Z</time></trkpt><trkpt lat="41.86108899566896" lon="2.5703507777826697"><ele>432.99999999999994</ele><time>2026-04-08T10:54:00.002Z</time></trkpt><trkpt lat="41.86098885757131" lon="2.5703577878357042"><ele>432.99999999999994</ele><time>2026-04-08T10:54:01.002Z</time></trkpt><trkpt lat="41.86090958429932" lon="2.570341896915769"><ele>433.0</ele><time>2026-04-08T10:54:02.002Z</time></trkpt><trkpt lat="41.860851001884136" lon="2.570301642474809"><ele>433.0</ele><time>2026-04-08T10:54:03.002Z</time></trkpt><trkpt lat="41.86080626366184" lon="2.5701204560618938"><ele>433.75</ele><time>2026-04-08T10:54:05.002Z</time></trkpt><trkpt lat="41.86080035349734" lon="2.569985007240842"><ele>434.5</ele><time>2026-04-08T10:54:06.002Z</time></trkpt><trkpt lat="41.86080223779644" lon="2.569813212047789"><ele>435.25</ele><time>2026-04-08T10:54:07.002Z</time></trkpt><trkpt lat="41.86079352304506" lon="2.569632860295551"><ele>436.0</ele><time>2026-04-08T10:54:08.002Z</time></trkpt><trkpt lat="41.86079008347612" lon="2.569450616230723"><ele>436.0</ele><time>2026-04-08T10:54:09.002Z</time></trkpt><trkpt lat="41.86078553733139" lon="2.5692443301449432"><ele>436.0</ele><time>2026-04-08T10:54:10.002Z</time></trkpt><trkpt lat="41.86077824583053" lon="2.5690372077630697"><ele>436.0</ele><time>2026-04-08T10:54:11.002Z</time></trkpt><trkpt lat="41.860768671921825" lon="2.5688396004527467"><ele>439.20000000000005</ele><time>2026-04-08T10:54:12.002Z</time></trkpt><trkpt lat="41.86075934916677" lon="2.5686656677576636"><ele>442.40000000000003</ele><time>2026-04-08T10:54:13.002Z</time></trkpt><trkpt lat="41.86074061184745" lon="2.5685240239118796"><ele>445.6</ele><time>2026-04-08T10:54:14.002Z</time></trkpt><trkpt lat="41.86069531330083" lon="2.5684259530591564"><ele>448.8</ele><time>2026-04-08T10:54:15.002Z</time></trkpt><trkpt lat="41.86063045545458" lon="2.5683610861139754"><ele>452.0</ele><time>2026-04-08T10:54:16.002Z</time></trkpt><trkpt lat="41.86053497700442" lon="2.568342169988305"><ele>452.0</ele><time>2026-04-08T10:54:17.002Z</time></trkpt><trkpt lat="41.86043348570027" lon="2.5683558824074466"><ele>452.00000000000006</ele><time>2026-04-08T10:54:18.002Z</time></trkpt><trkpt lat="41.86032804874574" lon="2.56835849779548"><ele>452.00000000000006</ele><time>2026-04-08T10:54:19.002Z</time></trkpt><trkpt lat="41.86022913746013" lon="2.568311078283673"><ele>452.0</ele><time>2026-04-08T10:54:20.002Z</time></trkpt><trkpt lat="41.86013978217423" lon="2.5682184051943633"><ele>452.0</ele><time>2026-04-08T10:54:21.001Z</time></trkpt><trkpt lat="41.860055295612035" lon="2.5680951285665516"><ele>450.5</ele><time>2026-04-08T10:54:22.001Z</time></trkpt><trkpt lat="41.859994617005405" lon="2.567972937538646"><ele>449.0</ele><time>2026-04-08T10:54:23.001Z</time></trkpt><trkpt lat="41.85996585256278" lon="2.567831428619791"><ele>447.5</ele><time>2026-04-08T10:54:24.001Z</time></trkpt><trkpt lat="41.85996352028576" lon="2.567665114959986"><ele>446.0</ele><time>2026-04-08T10:54:25.001Z</time></trkpt><trkpt lat="41.859982632068395" lon="2.5674981002776245"><ele>446.0</ele><time>2026-04-08T10:54:26.001Z</time></trkpt><trkpt lat="41.86003309795784" lon="2.567329601567575"><ele>446.0</ele><time>2026-04-08T10:54:27.001Z</time></trkpt><trkpt lat="41.86011567430655" lon="2.5671491160385513"><ele>446.0</ele><time>2026-04-08T10:54:28.001Z</time></trkpt><trkpt lat="41.86021571610958" lon="2.566948306912749"><ele>452.0</ele><time>2026-04-08T10:54:29.001Z</time></trkpt><trkpt lat="41.86031541280145" lon="2.566742927546476"><ele>458.0</ele><time>2026-04-08T10:54:30.001Z</time></trkpt><trkpt lat="41.860407497663104" lon="2.5665517670185047"><ele>464.0</ele><time>2026-04-08T10:54:31.001Z</time></trkpt><trkpt lat="41.860490221680756" lon="2.5663726916169196"><ele>462.66666666666663</ele><time>2026-04-08T10:54:32.001Z</time></trkpt><trkpt lat="41.860564909609934" lon="2.566188936006661"><ele>461.33333333333337</ele><time>2026-04-08T10:54:33.001Z</time></trkpt><trkpt lat="41.860612009454165" lon="2.565983699031813"><ele>460.0</ele><time>2026-04-08T10:54:34.001Z</time></trkpt><trkpt lat="41.860642183549366" lon="2.5657618159190534"><ele>460.0</ele><time>2026-04-08T10:54:35.001Z</time></trkpt><trkpt lat="41.860660288507184" lon="2.565536724689687"><ele>460.0</ele><time>2026-04-08T10:54:36.001Z</time></trkpt><trkpt lat="41.86068312870284" lon="2.5653119650589034"><ele>460.0</ele><time>2026-04-08T10:54:37.001Z</time></trkpt><trkpt lat="41.86070153045041" lon="2.5651011345103374"><ele>460.5</ele><time>2026-04-08T10:54:38.001Z</time></trkpt><trkpt lat="41.860716458730145" lon="2.5649129560044774"><ele>461.0</ele><time>2026-04-08T10:54:39.001Z</time></trkpt><trkpt lat="41.86072703002804" lon="2.564736368011517"><ele>461.5</ele><time>2026-04-08T10:54:40.001Z</time></trkpt><trkpt lat="41.860718021485624" lon="2.5645619827247255"><ele>462.0</ele><time>2026-04-08T10:54:41.001Z</time></trkpt><trkpt lat="41.86067522544616" lon="2.5643882980835158"><ele>462.0</ele><time>2026-04-08T10:54:42.001Z</time></trkpt><trkpt lat="41.860614809117074" lon="2.5642152085386827"><ele>462.0</ele><time>2026-04-08T10:54:43.001Z</time></trkpt><trkpt lat="41.8605476821131" lon="2.564041138379596"><ele>462.0</ele><time>2026-04-08T10:54:44.001Z</time></trkpt><trkpt lat="41.86047914337532" lon="2.563862012494055"><ele>462.0</ele><time>2026-04-08T10:54:45.001Z</time></trkpt><trkpt lat="41.86042223577417" lon="2.5636749802201138"><ele>461.0</ele><time>2026-04-08T10:54:46.001Z</time></trkpt><trkpt lat="41.860372151512244" lon="2.56349220001372"><ele>460.0</ele><time>2026-04-08T10:54:47.001Z</time></trkpt><trkpt lat="41.86033018108465" lon="2.5633051762979457"><ele>459.0</ele><time>2026-04-08T10:54:48.001Z</time></trkpt><trkpt lat="41.86034494773854" lon="2.563101150690446"><ele>458.0</ele><time>2026-04-08T10:54:49.001Z</time></trkpt><trkpt lat="41.860368618750634" lon="2.5629414523438703"><ele>459.25</ele><time>2026-04-08T10:54:50.001Z</time></trkpt><trkpt lat="41.860424761699335" lon="2.562797601347573"><ele>460.5</ele><time>2026-04-08T10:54:51.001Z</time></trkpt><trkpt lat="41.86049362691057" lon="2.56266073988591"><ele>461.75</ele><time>2026-04-08T10:54:52.001Z</time></trkpt><trkpt lat="41.860583564663855" lon="2.5625269862687947"><ele>463.0</ele><time>2026-04-08T10:54:53.001Z</time></trkpt><trkpt lat="41.860684103407884" lon="2.5623690495657154"><ele>463.0</ele><time>2026-04-08T10:54:54.001Z</time></trkpt><trkpt lat="41.860775446955266" lon="2.5622063375105593"><ele>463.0</ele><time>2026-04-08T10:54:55.001Z</time></trkpt><trkpt lat="41.86085555057056" lon="2.562038348636928"><ele>463.0</ele><time>2026-04-08T10:54:56.001Z</time></trkpt><trkpt lat="41.86091863699709" lon="2.561862466589356"><ele>463.0</ele><time>2026-04-08T10:54:57.001Z</time></trkpt><trkpt lat="41.86096685486045" lon="2.5616880728810076"><ele>462.25</ele><time>2026-04-08T10:54:58.001Z</time></trkpt><trkpt lat="41.86100363571645" lon="2.561529952467432"><ele>461.5</ele><time>2026-04-08T10:54:59.001Z</time></trkpt><trkpt lat="41.86101638905073" lon="2.5613957888811014"><ele>460.75</ele><time>2026-04-08T10:55:00.001Z</time></trkpt><trkpt lat="41.8609890435811" lon="2.5612494915653454"><ele>460.0</ele><time>2026-04-08T10:55:01.001Z</time></trkpt><trkpt lat="41.86090484385213" lon="2.56113048701465"><ele>463.5</ele><time>2026-04-08T10:55:02.001Z</time></trkpt><trkpt lat="41.86078853661994" lon="2.561026858052209"><ele>467.0</ele><time>2026-04-08T10:55:03.001Z</time></trkpt><trkpt lat="41.86068093771328" lon="2.5609256440692585"><ele>470.5</ele><time>2026-04-08T10:55:04.001Z</time></trkpt><trkpt lat="41.860587447121084" lon="2.560837701129501"><ele>474.0</ele><time>2026-04-08T10:55:05.001Z</time></trkpt><trkpt lat="41.86048917911274" lon="2.560750148548141"><ele>474.0</ele><time>2026-04-08T10:55:06.001Z</time></trkpt><trkpt lat="41.86038457290302" lon="2.5606504660834974"><ele>474.0</ele><time>2026-04-08T10:55:07.001Z</time></trkpt><trkpt lat="41.86030631758529" lon="2.5605299586086527"><ele>474.0</ele><time>2026-04-08T10:55:08.001Z</time></trkpt><trkpt lat="41.860224942833085" lon="2.5604058229441695"><ele>474.0</ele><time>2026-04-08T10:55:09.001Z</time></trkpt><trkpt lat="41.860146423522544" lon="2.5602661499326462"><ele>476.0</ele><time>2026-04-08T10:55:10.001Z</time></trkpt><trkpt lat="41.86009011208666" lon="2.560091869368106"><ele>478.0</ele><time>2026-04-08T10:55:11.001Z</time></trkpt><trkpt lat="41.860026423896315" lon="2.559908139103188"><ele>480.0</ele><time>2026-04-08T10:55:12.001Z</time></trkpt><trkpt lat="41.85996280650675" lon="2.55971040358911"><ele>483.0</ele><time>2026-04-08T10:55:13.001Z</time></trkpt><trkpt lat="41.85989291856692" lon="2.559521642190214"><ele>486.0</ele><time>2026-04-08T10:55:14.001Z</time></trkpt><trkpt lat="41.859807067178224" lon="2.559341888178395"><ele>489.0</ele><time>2026-04-08T10:55:15.001Z</time></trkpt><trkpt lat="41.859740218814544" lon="2.559183106813672"><ele>489.0</ele><time>2026-04-08T10:55:16.001Z</time></trkpt><trkpt lat="41.85969852143864" lon="2.5590427206504254"><ele>489.0</ele><time>2026-04-08T10:55:17.001Z</time></trkpt><trkpt lat="41.859689306769994" lon="2.5589281945929288"><ele>489.0</ele><time>2026-04-08T10:55:18.001Z</time></trkpt><trkpt lat="41.85972637192123" lon="2.558823661331571"><ele>489.0</ele><time>2026-04-08T10:55:19.001Z</time></trkpt><trkpt lat="41.859798890908834" lon="2.558719546768966"><ele>489.0</ele><time>2026-04-08T10:55:20.001Z</time></trkpt><trkpt lat="41.85989325408496" lon="2.5586193881982515"><ele>490.0</ele><time>2026-04-08T10:55:21.001Z</time></trkpt><trkpt lat="41.85999126880536" lon="2.5585209578481534"><ele>491.0</ele><time>2026-04-08T10:55:22.001Z</time></trkpt><trkpt lat="41.86006272225068" lon="2.558420759718958"><ele>492.0</ele><time>2026-04-08T10:55:23.001Z</time></trkpt><trkpt lat="41.86009466074719" lon="2.5582988943919815"><ele>493.0</ele><time>2026-04-08T10:55:24.001Z</time></trkpt><trkpt lat="41.860091986980066" lon="2.558150517455534"><ele>494.0</ele><time>2026-04-08T10:55:25.001Z</time></trkpt><trkpt lat="41.86006715207148" lon="2.5579796134884067"><ele>494.0</ele><time>2026-04-08T10:55:26.001Z</time></trkpt><trkpt lat="41.86004879154948" lon="2.557794017309894"><ele>494.0</ele><time>2026-04-08T10:55:27.001Z</time></trkpt><trkpt lat="41.860052167332974" lon="2.5576210814496885"><ele>494.0</ele><time>2026-04-08T10:55:28.001Z</time></trkpt><trkpt lat="41.86007539992671" lon="2.557460604697257"><ele>494.0</ele><time>2026-04-08T10:55:29.001Z</time></trkpt><trkpt lat="41.86012590163448" lon="2.5573068645746124"><ele>493.5</ele><time>2026-04-08T10:55:30.001Z</time></trkpt><trkpt lat="41.860196338241884" lon="2.557151492338644"><ele>493.0</ele><time>2026-04-08T10:55:31.001Z</time></trkpt><trkpt lat="41.86028671736566" lon="2.5569837475878554"><ele>492.5</ele><time>2026-04-08T10:55:32.001Z</time></trkpt><trkpt lat="41.8603703909118" lon="2.5568258178926713"><ele>492.0</ele><time>2026-04-08T10:55:33.001Z</time></trkpt><trkpt lat="41.86044363410533" lon="2.556678283779582"><ele>492.0</ele><time>2026-04-08T10:55:34.001Z</time></trkpt><trkpt lat="41.86049670607301" lon="2.556518602567015"><ele>492.0</ele><time>2026-04-08T10:55:35.001Z</time></trkpt><trkpt lat="41.860520950698714" lon="2.556335277353495"><ele>492.0</ele><time>2026-04-08T10:55:36.001Z</time></trkpt><trkpt lat="41.8605169821239" lon="2.5561331435100145"><ele>492.0</ele><time>2026-04-08T10:55:37.001Z</time></trkpt><trkpt lat="41.86049157307527" lon="2.5559176909552646"><ele>492.5</ele><time>2026-04-08T10:55:38.001Z</time></trkpt><trkpt lat="41.860456888199835" lon="2.5557218896533085"><ele>493.0</ele><time>2026-04-08T10:55:39.001Z</time></trkpt><trkpt lat="41.86040814928651" lon="2.5555516352722103"><ele>493.5</ele><time>2026-04-08T10:55:40.001Z</time></trkpt><trkpt lat="41.86034304277746" lon="2.5553867246511897"><ele>494.0</ele><time>2026-04-08T10:55:41.001Z</time></trkpt><trkpt lat="41.860260240565" lon="2.555201049891911"><ele>494.5</ele><time>2026-04-08T10:55:42.001Z</time></trkpt><trkpt lat="41.860186686686376" lon="2.555022781318592"><ele>495.0</ele><time>2026-04-08T10:55:43.001Z</time></trkpt><trkpt lat="41.86012885452827" lon="2.5548541852261564"><ele>495.5</ele><time>2026-04-08T10:55:44.001Z</time></trkpt><trkpt lat="41.860098913259606" lon="2.5546924621709364"><ele>496.0</ele><time>2026-04-08T10:55:45.001Z</time></trkpt><trkpt lat="41.860097007880455" lon="2.554519197203295"><ele>495.0</ele><time>2026-04-08T10:55:46.001Z</time></trkpt><trkpt lat="41.86012164045669" lon="2.554324894023156"><ele>494.0</ele><time>2026-04-08T10:55:47.001Z</time></trkpt><trkpt lat="41.860166813185074" lon="2.554105761801925"><ele>493.0</ele><time>2026-04-08T10:55:48.001Z</time></trkpt><trkpt lat="41.86021697515675" lon="2.5539101122818106"><ele>493.0</ele><time>2026-04-08T10:55:49.001Z</time></trkpt><trkpt lat="41.86025619771624" lon="2.5537371087178333"><ele>493.0</ele><time>2026-04-08T10:55:50.001Z</time></trkpt><trkpt lat="41.86030303413342" lon="2.5535857805744864"><ele>493.0</ele><time>2026-04-08T10:55:51.001Z</time></trkpt><trkpt lat="41.86036995875064" lon="2.553466548614016"><ele>493.0</ele><time>2026-04-08T10:55:52.001Z</time></trkpt><trkpt lat="41.86045216474075" lon="2.553349521560747"><ele>497.5</ele><time>2026-04-08T10:55:53.001Z</time></trkpt><trkpt lat="41.860516520757514" lon="2.553227869472382"><ele>502.0</ele><time>2026-04-08T10:55:54.001Z</time></trkpt><trkpt lat="41.860544219628245" lon="2.5530814989374195"><ele>506.5</ele><time>2026-04-08T10:55:55.001Z</time></trkpt><trkpt lat="41.86053740065139" lon="2.552925148470822"><ele>511.0</ele><time>2026-04-08T10:55:56.001Z</time></trkpt><trkpt lat="41.86052450033279" lon="2.5527545365177975"><ele>513.5</ele><time>2026-04-08T10:55:57.001Z</time></trkpt><trkpt lat="41.86054948482082" lon="2.552567997217658"><ele>516.0</ele><time>2026-04-08T10:55:58.001Z</time></trkpt><trkpt lat="41.86059063669853" lon="2.552399767336545"><ele>518.5</ele><time>2026-04-08T10:55:59.001Z</time></trkpt><trkpt lat="41.86064297451772" lon="2.552250550883335"><ele>521.0</ele><time>2026-04-08T10:56:00.001Z</time></trkpt><trkpt lat="41.86072587026257" lon="2.55213037002696"><ele>521.8</ele><time>2026-04-08T10:56:01.001Z</time></trkpt><trkpt lat="41.86081444053115" lon="2.5520384495154147"><ele>522.6</ele><time>2026-04-08T10:56:02.001Z</time></trkpt><trkpt lat="41.86087173862919" lon="2.551933154207986"><ele>523.4</ele><time>2026-04-08T10:56:03.001Z</time></trkpt><trkpt lat="41.86089100380021" lon="2.551785757975107"><ele>524.2</ele><time>2026-04-08T10:56:04.001Z</time></trkpt><trkpt lat="41.86087705647132" lon="2.5516286733531524"><ele>525.0</ele><time>2026-04-08T10:56:05.001Z</time></trkpt><trkpt lat="41.86085369983598" lon="2.551465761876733"><ele>525.0</ele><time>2026-04-08T10:56:06.001Z</time></trkpt><trkpt lat="41.860841886546545" lon="2.5513230624881373"><ele>525.0</ele><time>2026-04-08T10:56:07.001Z</time></trkpt><trkpt lat="41.8608226883899" lon="2.5512043406698743"><ele>525.0</ele><time>2026-04-08T10:56:08.001Z</time></trkpt><trkpt lat="41.86081123318708" lon="2.5511000931324856"><ele>525.0</ele><time>2026-04-08T10:56:09.001Z</time></trkpt><trkpt lat="41.86074712387615" lon="2.5510137478178447"><ele>525.0</ele><time>2026-04-08T10:56:10.002Z</time></trkpt><trkpt lat="41.86061219266974" lon="2.551028433085651"><ele>528.5</ele><time>2026-04-08T10:56:11.002Z</time></trkpt><trkpt lat="41.86049200625241" lon="2.551045985372489"><ele>532.0</ele><time>2026-04-08T10:56:12.002Z</time></trkpt><trkpt lat="41.86036687298859" lon="2.551071106296355"><ele>535.5</ele><time>2026-04-08T10:56:13.002Z</time></trkpt><trkpt lat="41.8602431272545" lon="2.5510951828428006"><ele>539.0</ele><time>2026-04-08T10:56:14.002Z</time></trkpt><trkpt lat="41.860130221989294" lon="2.5511140575339457"><ele>536.5</ele><time>2026-04-08T10:56:15.002Z</time></trkpt><trkpt lat="41.860039376465984" lon="2.5511244665275035"><ele>534.0</ele><time>2026-04-08T10:56:16.002Z</time></trkpt><trkpt lat="41.85997859733891" lon="2.5510552591124194"><ele>531.5</ele><time>2026-04-08T10:56:17.002Z</time></trkpt><trkpt lat="41.859963871399074" lon="2.55094982142282"><ele>529.0</ele><time>2026-04-08T10:56:18.002Z</time></trkpt><trkpt lat="41.859946233075995" lon="2.5508385715355524"><ele>526.5</ele><time>2026-04-08T10:56:19.002Z</time></trkpt><trkpt lat="41.85998608392536" lon="2.5507045503741073"><ele>524.0</ele><time>2026-04-08T10:56:20.002Z</time></trkpt><trkpt lat="41.860012891034806" lon="2.5505332079181557"><ele>524.75</ele><time>2026-04-08T10:56:21.002Z</time></trkpt><trkpt lat="41.86007576265833" lon="2.550365785093156"><ele>525.5</ele><time>2026-04-08T10:56:22.002Z</time></trkpt><trkpt lat="41.860146475199" lon="2.5502288162197018"><ele>526.25</ele><time>2026-04-08T10:56:23.002Z</time></trkpt><trkpt lat="41.860210923858624" lon="2.550089998810493"><ele>527.0</ele><time>2026-04-08T10:56:24.002Z</time></trkpt><trkpt lat="41.86025014617663" lon="2.54991977438404"><ele>532.2</ele><time>2026-04-08T10:56:25.002Z</time></trkpt><trkpt lat="41.860276840045486" lon="2.5497719616870587"><ele>537.4000000000001</ele><time>2026-04-08T10:56:26.002Z</time></trkpt><trkpt lat="41.86029900048566" lon="2.5496475236171974"><ele>542.5999999999999</ele><time>2026-04-08T10:56:27Z</time></trkpt><trkpt lat="41.86029507076283" lon="2.5495340976920606"><ele>547.8</ele><time>2026-04-08T10:56:28Z</time></trkpt><trkpt lat="41.86027654036602" lon="2.549417225980307"><ele>553.0</ele><time>2026-04-08T10:56:29Z</time></trkpt><trkpt lat="41.86019177308385" lon="2.549315945608627"><ele>550.4</ele><time>2026-04-08T10:56:30Z</time></trkpt><trkpt lat="41.86006646495244" lon="2.5492919238987026"><ele>547.8</ele><time>2026-04-08T10:56:31Z</time></trkpt><trkpt lat="41.859961161163326" lon="2.5492793641703537"><ele>545.2</ele><time>2026-04-08T10:56:32Z</time></trkpt><trkpt lat="41.85989237468711" lon="2.5491860195603744"><ele>542.6</ele><time>2026-04-08T10:56:33Z</time></trkpt><trkpt lat="41.85985930127657" lon="2.549064116398176"><ele>540.0</ele><time>2026-04-08T10:56:34Z</time></trkpt><trkpt lat="41.85984853638825" lon="2.548902388861537"><ele>540.0</ele><time>2026-04-08T10:56:35Z</time></trkpt><trkpt lat="41.859855391853166" lon="2.548739572937817"><ele>540.0</ele><time>2026-04-08T10:56:36Z</time></trkpt><trkpt lat="41.85988932520033" lon="2.5486076260170782"><ele>540.0</ele><time>2026-04-08T10:56:37Z</time></trkpt><trkpt lat="41.85991751736707" lon="2.5484848860888483"><ele>540.0</ele><time>2026-04-08T10:56:38Z</time></trkpt><trkpt lat="41.85991323436247" lon="2.548360072905994"><ele>540.0</ele><time>2026-04-08T10:56:39Z</time></trkpt><trkpt lat="41.85987957572452" lon="2.548249596949995"><ele>543.2</ele><time>2026-04-08T10:56:40Z</time></trkpt><trkpt lat="41.85977562624945" lon="2.548159180999055"><ele>546.4</ele><time>2026-04-08T10:56:41Z</time></trkpt><trkpt lat="41.85967768155507" lon="2.5480866808950524"><ele>549.6</ele><time>2026-04-08T10:56:42Z</time></trkpt><trkpt lat="41.85959346577197" lon="2.5479912929675224"><ele>552.8</ele><time>2026-04-08T10:56:43Z</time></trkpt><trkpt lat="41.85954788022095" lon="2.5478749287741116"><ele>556.0</ele><time>2026-04-08T10:56:44Z</time></trkpt><trkpt lat="41.85952293035622" lon="2.5477696706491324"><ele>556.8</ele><time>2026-04-08T10:56:45Z</time></trkpt><trkpt lat="41.859495594603786" lon="2.5476766061619824"><ele>557.6</ele><time>2026-04-08T10:56:46Z</time></trkpt><trkpt lat="41.859455528830495" lon="2.5475881857918576"><ele>558.4</ele><time>2026-04-08T10:56:47Z</time></trkpt><trkpt lat="41.85935672254523" lon="2.547504323596197"><ele>559.2</ele><time>2026-04-08T10:56:48Z</time></trkpt><trkpt lat="41.85922944313226" lon="2.547548084157427"><ele>560.0</ele><time>2026-04-08T10:56:49Z</time></trkpt><trkpt lat="41.85912891161415" lon="2.5476179734742783"><ele>560.0</ele><time>2026-04-08T10:56:50Z</time></trkpt><trkpt lat="41.859022785874494" lon="2.547704810784663"><ele>560.0</ele><time>2026-04-08T10:56:51Z</time></trkpt><trkpt lat="41.858903577490565" lon="2.5478076432215935"><ele>560.0</ele><time>2026-04-08T10:56:52Z</time></trkpt><trkpt lat="41.858815179280576" lon="2.547889697970089"><ele>560.0</ele><time>2026-04-08T10:56:53Z</time></trkpt><trkpt lat="41.85873191972943" lon="2.5479835929417063"><ele>559.25</ele><time>2026-04-08T10:56:54Z</time></trkpt><trkpt lat="41.85867241831321" lon="2.548110940914918"><ele>558.5</ele><time>2026-04-08T10:56:55Z</time></trkpt><trkpt lat="41.85859088886728" lon="2.5482239914416733"><ele>557.75</ele><time>2026-04-08T10:56:56Z</time></trkpt><trkpt lat="41.85847725426721" lon="2.5482838654753976"><ele>557.0</ele><time>2026-04-08T10:56:57Z</time></trkpt><trkpt lat="41.858370829279316" lon="2.5483833384578096"><ele>557.0</ele><time>2026-04-08T10:56:58Z</time></trkpt><trkpt lat="41.85828834157518" lon="2.5485343047862834"><ele>557.0</ele><time>2026-04-08T10:56:59Z</time></trkpt><trkpt lat="41.858244614170744" lon="2.5486866335274874"><ele>557.0</ele><time>2026-04-08T10:57:00Z</time></trkpt><trkpt lat="41.85818766790358" lon="2.548790775819111"><ele>557.0</ele><time>2026-04-08T10:57:01Z</time></trkpt><trkpt lat="41.85811137633924" lon="2.548855948114664"><ele>557.0</ele><time>2026-04-08T10:57:02Z</time></trkpt><trkpt lat="41.858031566814496" lon="2.548873488741834"><ele>557.0</ele><time>2026-04-08T10:57:03Z</time></trkpt><trkpt lat="41.857950401674266" lon="2.548867241973591"><ele>557.0</ele><time>2026-04-08T10:57:04Z</time></trkpt><trkpt lat="41.85789560753284" lon="2.54879414292008"><ele>557.0</ele><time>2026-04-08T10:57:05Z</time></trkpt><trkpt lat="41.85785627534891" lon="2.5486759596892696"><ele>557.0</ele><time>2026-04-08T10:57:06Z</time></trkpt><trkpt lat="41.85782130829515" lon="2.5485111869234336"><ele>557.0</ele><time>2026-04-08T10:57:07Z</time></trkpt><trkpt lat="41.85777635296273" lon="2.548331613855417"><ele>557.0</ele><time>2026-04-08T10:57:08Z</time></trkpt><trkpt lat="41.85773008469236" lon="2.5481509162866818"><ele>557.0</ele><time>2026-04-08T10:57:09Z</time></trkpt><trkpt lat="41.85768288679679" lon="2.5479680394894686"><ele>557.0</ele><time>2026-04-08T10:57:10Z</time></trkpt><trkpt lat="41.85764417516522" lon="2.547793643784073"><ele>557.0</ele><time>2026-04-08T10:57:11Z</time></trkpt><trkpt lat="41.85763575961669" lon="2.547631994882878"><ele>560.75</ele><time>2026-04-08T10:57:12Z</time></trkpt><trkpt lat="41.85766378863646" lon="2.547464081282466"><ele>564.5</ele><time>2026-04-08T10:57:13Z</time></trkpt><trkpt lat="41.85770751068283" lon="2.5472836847783498"><ele>568.25</ele><time>2026-04-08T10:57:14Z</time></trkpt><trkpt lat="41.8577718793953" lon="2.5471050324916975"><ele>572.0</ele><time>2026-04-08T10:57:15Z</time></trkpt><trkpt lat="41.85784683588517" lon="2.546950823296627"><ele>574.5</ele><time>2026-04-08T10:57:16Z</time></trkpt><trkpt lat="41.85791843146959" lon="2.5468142700185536"><ele>577.0</ele><time>2026-04-08T10:57:17Z</time></trkpt><trkpt lat="41.857972120573095" lon="2.546675976493047"><ele>579.5</ele><time>2026-04-08T10:57:18.001Z</time></trkpt><trkpt lat="41.85798598386894" lon="2.54650649715281"><ele>582.0</ele><time>2026-04-08T10:57:19.001Z</time></trkpt><trkpt lat="41.85795998126363" lon="2.546325139617734"><ele>584.75</ele><time>2026-04-08T10:57:20.001Z</time></trkpt><trkpt lat="41.85791823534373" lon="2.5461481135838757"><ele>587.5</ele><time>2026-04-08T10:57:21.001Z</time></trkpt><trkpt lat="41.857880210225545" lon="2.5459959932280434"><ele>590.25</ele><time>2026-04-08T10:57:22.001Z</time></trkpt><trkpt lat="41.857851143594445" lon="2.545858289047017"><ele>593.0</ele><time>2026-04-08T10:57:23.001Z</time></trkpt><trkpt lat="41.85783907463063" lon="2.545732443112919"><ele>593.0</ele><time>2026-04-08T10:57:24.001Z</time></trkpt><trkpt lat="41.857797428130745" lon="2.545625136900847"><ele>593.0</ele><time>2026-04-08T10:57:25.001Z</time></trkpt><trkpt lat="41.8577008858837" lon="2.5455479156926306"><ele>593.0</ele><time>2026-04-08T10:57:26.001Z</time></trkpt><trkpt lat="41.85755707605979" lon="2.5455763703344916"><ele>593.0</ele><time>2026-04-08T10:57:27.001Z</time></trkpt><trkpt lat="41.85744433546966" lon="2.5456859285031914"><ele>590.25</ele><time>2026-04-08T10:57:28.001Z</time></trkpt><trkpt lat="41.857343010673844" lon="2.545745059209224"><ele>587.5</ele><time>2026-04-08T10:57:29.001Z</time></trkpt><trkpt lat="41.85721824768922" lon="2.5457668452879902"><ele>584.75</ele><time>2026-04-08T10:57:30.001Z</time></trkpt><trkpt lat="41.85710205138016" lon="2.545761404931881"><ele>582.0</ele><time>2026-04-08T10:57:31.001Z</time></trkpt><trkpt lat="41.85700270918378" lon="2.545732711747103"><ele>582.0</ele><time>2026-04-08T10:57:32.001Z</time></trkpt><trkpt lat="41.85691350701961" lon="2.5456327857270242"><ele>582.0</ele><time>2026-04-08T10:57:33.001Z</time></trkpt><trkpt lat="41.856808994786626" lon="2.5454774032239142"><ele>582.0</ele><time>2026-04-08T10:57:34.001Z</time></trkpt><trkpt lat="41.85669703288101" lon="2.5453371983990514"><ele>582.0</ele><time>2026-04-08T10:57:35.001Z</time></trkpt><trkpt lat="41.85660530083765" lon="2.5452141711856466"><ele>584.25</ele><time>2026-04-08T10:57:36.001Z</time></trkpt><trkpt lat="41.85654901864547" lon="2.5450680327202946"><ele>586.5</ele><time>2026-04-08T10:57:37.001Z</time></trkpt><trkpt lat="41.85651014450765" lon="2.5448970090016196"><ele>588.75</ele><time>2026-04-08T10:57:38.001Z</time></trkpt><trkpt lat="41.856471605480436" lon="2.5447455672289117"><ele>591.0</ele><time>2026-04-08T10:57:39.001Z</time></trkpt><trkpt lat="41.85646125544156" lon="2.544608780371572"><ele>594.25</ele><time>2026-04-08T10:57:40.001Z</time></trkpt><trkpt lat="41.85642205677705" lon="2.544485470637339"><ele>597.5</ele><time>2026-04-08T10:57:41.001Z</time></trkpt><trkpt lat="41.85633207341814" lon="2.5443858488772158"><ele>600.75</ele><time>2026-04-08T10:57:42.001Z</time></trkpt><trkpt lat="41.85618681675427" lon="2.5443735064119584"><ele>604.0</ele><time>2026-04-08T10:57:43.001Z</time></trkpt><trkpt lat="41.85603785338143" lon="2.544401106612093"><ele>602.5</ele><time>2026-04-08T10:57:44.001Z</time></trkpt><trkpt lat="41.85589250849468" lon="2.5444372320360116"><ele>601.0</ele><time>2026-04-08T10:57:45.001Z</time></trkpt><trkpt lat="41.85577257156341" lon="2.5444412812784374"><ele>599.5</ele><time>2026-04-08T10:57:46.001Z</time></trkpt><trkpt lat="41.855673780233204" lon="2.5444062053615837"><ele>598.0</ele><time>2026-04-08T10:57:47.001Z</time></trkpt><trkpt lat="41.85558980291682" lon="2.5443279304904998"><ele>598.0</ele><time>2026-04-08T10:57:48.001Z</time></trkpt><trkpt lat="41.855496036070534" lon="2.544215572010936"><ele>598.0</ele><time>2026-04-08T10:57:49.001Z</time></trkpt><trkpt lat="41.85539033930348" lon="2.544081799130145"><ele>598.0</ele><time>2026-04-08T10:57:50.001Z</time></trkpt><trkpt lat="41.85533045579424" lon="2.5439329261807813"><ele>598.0</ele><time>2026-04-08T10:57:51.001Z</time></trkpt><trkpt lat="41.855301443775794" lon="2.543775946578188"><ele>600.8</ele><time>2026-04-08T10:57:52.001Z</time></trkpt><trkpt lat="41.85531330059891" lon="2.5436398129801896"><ele>603.5999999999999</ele><time>2026-04-08T10:57:53.001Z</time></trkpt><trkpt lat="41.85535797336479" lon="2.5435314653370305"><ele>606.4000000000001</ele><time>2026-04-08T10:57:54.001Z</time></trkpt><trkpt lat="41.85542600214902" lon="2.543448436466966"><ele>609.2</ele><time>2026-04-08T10:57:55.001Z</time></trkpt><trkpt lat="41.85551928369788" lon="2.543387516574864"><ele>612.0</ele><time>2026-04-08T10:57:56.001Z</time></trkpt><trkpt lat="41.85557648233654" lon="2.5433026966917023"><ele>612.0</ele><time>2026-04-08T10:57:57.001Z</time></trkpt><trkpt lat="41.85558377476254" lon="2.5431959503554427"><ele>612.0</ele><time>2026-04-08T10:57:58.001Z</time></trkpt><trkpt lat="41.85555965599095" lon="2.543077306855007"><ele>612.0</ele><time>2026-04-08T10:57:59.001Z</time></trkpt><trkpt lat="41.85553476470241" lon="2.5429087360091356"><ele>612.0</ele><time>2026-04-08T10:58:00.001Z</time></trkpt><trkpt lat="41.855461387445544" lon="2.5427301792562322"><ele>615.5</ele><time>2026-04-08T10:58:01.001Z</time></trkpt><trkpt lat="41.85543191305075" lon="2.542557347047857"><ele>619.0</ele><time>2026-04-08T10:58:02.001Z</time></trkpt><trkpt lat="41.85537401216909" lon="2.5423987344773975"><ele>622.5</ele><time>2026-04-08T10:58:03.001Z</time></trkpt><trkpt lat="41.855272457257854" lon="2.5422723788298067"><ele>626.0</ele><time>2026-04-08T10:58:04.001Z</time></trkpt><trkpt lat="41.855155352783505" lon="2.542200751378177"><ele>623.6</ele><time>2026-04-08T10:58:05.001Z</time></trkpt><trkpt lat="41.855063423373394" lon="2.5421391084236067"><ele>621.2</ele><time>2026-04-08T10:58:06.001Z</time></trkpt><trkpt lat="41.855002727699585" lon="2.5420668681528267"><ele>618.8</ele><time>2026-04-08T10:58:07.001Z</time></trkpt><trkpt lat="41.85500250497189" lon="2.541963967950175"><ele>616.4</ele><time>2026-04-08T10:58:08.001Z</time></trkpt><trkpt lat="41.85501782178327" lon="2.541816756035669"><ele>614.0</ele><time>2026-04-08T10:58:09.001Z</time></trkpt><trkpt lat="41.85504101391554" lon="2.5416554409527095"><ele>614.0</ele><time>2026-04-08T10:58:10.001Z</time></trkpt><trkpt lat="41.85507172852225" lon="2.5414706028431264"><ele>614.0</ele><time>2026-04-08T10:58:11.001Z</time></trkpt><trkpt lat="41.85510019222389" lon="2.5413116886469407"><ele>614.0</ele><time>2026-04-08T10:58:12.001Z</time></trkpt><trkpt lat="41.85512093067053" lon="2.5411705726099276"><ele>614.0</ele><time>2026-04-08T10:58:13.001Z</time></trkpt><trkpt lat="41.85512851144893" lon="2.5410428607955433"><ele>616.8</ele><time>2026-04-08T10:58:14.001Z</time></trkpt><trkpt lat="41.85512043105198" lon="2.5409269942963055"><ele>619.5999999999999</ele><time>2026-04-08T10:58:15.001Z</time></trkpt><trkpt lat="41.855047230944685" lon="2.5408290289321798"><ele>622.4</ele><time>2026-04-08T10:58:16.001Z</time></trkpt><trkpt lat="41.85492984016177" lon="2.5408285387952994"><ele>625.1999999999999</ele><time>2026-04-08T10:58:17.001Z</time></trkpt><trkpt lat="41.85482448813564" lon="2.540819306964432"><ele>628.0</ele><time>2026-04-08T10:58:18.001Z</time></trkpt><trkpt lat="41.85473289428684" lon="2.540802887462106"><ele>628.0</ele><time>2026-04-08T10:58:19.001Z</time></trkpt><trkpt lat="41.85464687646471" lon="2.540771942387686"><ele>628.0</ele><time>2026-04-08T10:58:20.001Z</time></trkpt><trkpt lat="41.854574659147396" lon="2.540680364147983"><ele>628.0</ele><time>2026-04-08T10:58:21.001Z</time></trkpt><trkpt lat="41.854514240000064" lon="2.5405620035153884"><ele>628.0</ele><time>2026-04-08T10:58:22.001Z</time></trkpt><trkpt lat="41.854415369465364" lon="2.5404686847954863"><ele>628.0</ele><time>2026-04-08T10:58:23.001Z</time></trkpt><trkpt lat="41.85427423895123" lon="2.540450281578888"><ele>624.5</ele><time>2026-04-08T10:58:24.001Z</time></trkpt><trkpt lat="41.854151687298156" lon="2.5405689141614776"><ele>621.0</ele><time>2026-04-08T10:58:25.001Z</time></trkpt><trkpt lat="41.85404308615944" lon="2.5405697947025785"><ele>617.5</ele><time>2026-04-08T10:58:26.001Z</time></trkpt><trkpt lat="41.8539313924793" lon="2.540527025198751"><ele>614.0</ele><time>2026-04-08T10:58:27.001Z</time></trkpt><trkpt lat="41.853827838690975" lon="2.5404671757706527"><ele>618.0</ele><time>2026-04-08T10:58:28.001Z</time></trkpt><trkpt lat="41.853736541904695" lon="2.5403621058373655"><ele>622.0</ele><time>2026-04-08T10:58:29.001Z</time></trkpt><trkpt lat="41.85363987007517" lon="2.540234016547484"><ele>626.0</ele><time>2026-04-08T10:58:30.001Z</time></trkpt><trkpt lat="41.85351824256267" lon="2.5401373520399866"><ele>630.0</ele><time>2026-04-08T10:58:31.001Z</time></trkpt><trkpt lat="41.85340045927309" lon="2.5400319535480276"><ele>630.0</ele><time>2026-04-08T10:58:32.001Z</time></trkpt><trkpt lat="41.853284925252645" lon="2.539974794849259"><ele>630.0</ele><time>2026-04-08T10:58:33Z</time></trkpt><trkpt lat="41.85319428437358" lon="2.539920805212269"><ele>630.0</ele><time>2026-04-08T10:58:34Z</time></trkpt><trkpt lat="41.85314262581772" lon="2.5398062537258497"><ele>630.0</ele><time>2026-04-08T10:58:35Z</time></trkpt><trkpt lat="41.85311784809272" lon="2.5396697700576194"><ele>630.0</ele><time>2026-04-08T10:58:36Z</time></trkpt><trkpt lat="41.85310634436164" lon="2.5395026405649115"><ele>633.3333333333334</ele><time>2026-04-08T10:58:37Z</time></trkpt><trkpt lat="41.85309520369109" lon="2.5393025686609683"><ele>636.6666666666667</ele><time>2026-04-08T10:58:38Z</time></trkpt><trkpt lat="41.8530782046753" lon="2.5390742046363557"><ele>640.0</ele><time>2026-04-08T10:58:39Z</time></trkpt><trkpt lat="41.853061909708835" lon="2.5388418249602775"><ele>642.6666666666667</ele><time>2026-04-08T10:58:40Z</time></trkpt><trkpt lat="41.85304820044165" lon="2.5386112413401434"><ele>645.3333333333334</ele><time>2026-04-08T10:58:41Z</time></trkpt><trkpt lat="41.853038487620715" lon="2.538397676852444"><ele>648.0</ele><time>2026-04-08T10:58:42Z</time></trkpt><trkpt lat="41.853029990994216" lon="2.538207181959174"><ele>648.0</ele><time>2026-04-08T10:58:43Z</time></trkpt><trkpt lat="41.853035113091465" lon="2.5380211733860003"><ele>648.0</ele><time>2026-04-08T10:58:44Z</time></trkpt><trkpt lat="41.85305247120419" lon="2.5378463017554824"><ele>648.0</ele><time>2026-04-08T10:58:45Z</time></trkpt><trkpt lat="41.85308959449839" lon="2.537699527571724"><ele>648.0</ele><time>2026-04-08T10:58:46Z</time></trkpt><trkpt lat="41.853153788523684" lon="2.5375587839643567"><ele>648.0</ele><time>2026-04-08T10:58:47Z</time></trkpt><trkpt lat="41.853241175849746" lon="2.5374205628769095"><ele>648.0</ele><time>2026-04-08T10:58:48Z</time></trkpt><trkpt lat="41.85333064132376" lon="2.537270685848425"><ele>648.0</ele><time>2026-04-08T10:58:49Z</time></trkpt><trkpt lat="41.853394737811584" lon="2.5370929369340085"><ele>648.0</ele><time>2026-04-08T10:58:50Z</time></trkpt><trkpt lat="41.85343802641041" lon="2.5369073429786124"><ele>655.5</ele><time>2026-04-08T10:58:51Z</time></trkpt><trkpt lat="41.853479191284244" lon="2.5367326224841715"><ele>663.0</ele><time>2026-04-08T10:58:52Z</time></trkpt><trkpt lat="41.85352113455092" lon="2.5365647619291503"><ele>670.5</ele><time>2026-04-08T10:58:53Z</time></trkpt><trkpt lat="41.85356392552799" lon="2.536412146285011"><ele>678.0</ele><time>2026-04-08T10:58:54Z</time></trkpt><trkpt lat="41.853598856712715" lon="2.536276642282862"><ele>676.6666666666666</ele><time>2026-04-08T10:58:55Z</time></trkpt><trkpt lat="41.85361616148429" lon="2.536146737024505"><ele>675.3333333333334</ele><time>2026-04-08T10:58:56Z</time></trkpt><trkpt lat="41.853592023135214" lon="2.5360389647046704"><ele>674.0</ele><time>2026-04-08T10:58:57Z</time></trkpt><trkpt lat="41.85353832673008" lon="2.5359503152748197"><ele>672.6666666666667</ele><time>2026-04-08T10:58:58Z</time></trkpt><trkpt lat="41.85346270364285" lon="2.5359018987574897"><ele>671.3333333333334</ele><time>2026-04-08T10:58:59Z</time></trkpt><trkpt lat="41.85338145216227" lon="2.5359144418246036"><ele>670.0</ele><time>2026-04-08T10:59:00Z</time></trkpt><trkpt lat="41.853307989542316" lon="2.535993760521403"><ele>666.8</ele><time>2026-04-08T10:59:01Z</time></trkpt><trkpt lat="41.8532221145307" lon="2.536082806090814"><ele>663.6</ele><time>2026-04-08T10:59:02Z</time></trkpt><trkpt lat="41.853125554373364" lon="2.5361762555754357"><ele>660.4000000000001</ele><time>2026-04-08T10:59:03Z</time></trkpt><trkpt lat="41.85302324038353" lon="2.5362434818715296"><ele>657.2</ele><time>2026-04-08T10:59:04Z</time></trkpt><trkpt lat="41.852929767227224" lon="2.53626873843084"><ele>654.0</ele><time>2026-04-08T10:59:05Z</time></trkpt><trkpt lat="41.852826383447926" lon="2.5362575663588087"><ele>654.0</ele><time>2026-04-08T10:59:06Z</time></trkpt><trkpt lat="41.852723252741924" lon="2.536213753393807"><ele>654.0</ele><time>2026-04-08T10:59:07Z</time></trkpt><trkpt lat="41.85262746213153" lon="2.536144359460938"><ele>654.0</ele><time>2026-04-08T10:59:08Z</time></trkpt><trkpt lat="41.852557006346814" lon="2.5360557325377533"><ele>654.0</ele><time>2026-04-08T10:59:09Z</time></trkpt><trkpt lat="41.85250996880082" lon="2.535969737060037"><ele>654.0</ele><time>2026-04-08T10:59:10Z</time></trkpt><trkpt lat="41.852483231927884" lon="2.5358701242150055"><ele>653.2857142857142</ele><time>2026-04-08T10:59:11Z</time></trkpt><trkpt lat="41.85247033978084" lon="2.535771712156236"><ele>652.5714285714286</ele><time>2026-04-08T10:59:12Z</time></trkpt><trkpt lat="41.85246991977797" lon="2.5356742222809636"><ele>651.8571428571429</ele><time>2026-04-08T10:59:13Z</time></trkpt><trkpt lat="41.85248514546395" lon="2.535578409187107"><ele>651.1428571428571</ele><time>2026-04-08T10:59:14Z</time></trkpt><trkpt lat="41.85250327756284" lon="2.535491470815416"><ele>650.4285714285714</ele><time>2026-04-08T10:59:15Z</time></trkpt><trkpt lat="41.85252603535958" lon="2.535403851417236"><ele>649.7142857142857</ele><time>2026-04-08T10:59:16Z</time></trkpt><trkpt lat="41.852550569255556" lon="2.535308852709173"><ele>649.0</ele><time>2026-04-08T10:59:17Z</time></trkpt><trkpt lat="41.85257561503769" lon="2.5352159042171767"><ele>649.0</ele><time>2026-04-08T10:59:18Z</time></trkpt><trkpt lat="41.85260809563944" lon="2.5351284719553404"><ele>649.0</ele><time>2026-04-08T10:59:19Z</time></trkpt><trkpt lat="41.85266041088145" lon="2.535057541212573"><ele>649.0</ele><time>2026-04-08T10:59:20Z</time></trkpt><trkpt lat="41.85273591558063" lon="2.535016426234863"><ele>649.0</ele><time>2026-04-08T10:59:21Z</time></trkpt><trkpt lat="41.852822248617336" lon="2.5350044819626785"><ele>649.0</ele><time>2026-04-08T10:59:22Z</time></trkpt><trkpt lat="41.852917985893285" lon="2.535011212795258"><ele>649.0</ele><time>2026-04-08T10:59:23Z</time></trkpt><trkpt lat="41.85301537308841" lon="2.5350148842389917"><ele>651.6</ele><time>2026-04-08T10:59:24Z</time></trkpt><trkpt lat="41.85312210958907" lon="2.535022441297313"><ele>654.2</ele><time>2026-04-08T10:59:25Z</time></trkpt><trkpt lat="41.85323189548913" lon="2.5350212891481703"><ele>656.8000000000001</ele><time>2026-04-08T10:59:26Z</time></trkpt><trkpt lat="41.85333850679372" lon="2.535012802453252"><ele>659.4000000000001</ele><time>2026-04-08T10:59:27Z</time></trkpt><trkpt lat="41.85343901102343" lon="2.534977763081685"><ele>662.0</ele><time>2026-04-08T10:59:28Z</time></trkpt><trkpt lat="41.8535365714093" lon="2.5349120157235037"><ele>666.0</ele><time>2026-04-08T10:59:29Z</time></trkpt><trkpt lat="41.85361978649501" lon="2.5348063411543427"><ele>670.0</ele><time>2026-04-08T10:59:30Z</time></trkpt><trkpt lat="41.85367909587657" lon="2.534686660286515"><ele>674.0</ele><time>2026-04-08T10:59:31Z</time></trkpt><trkpt lat="41.85373302374626" lon="2.5345492553613576"><ele>678.0</ele><time>2026-04-08T10:59:32Z</time></trkpt><trkpt lat="41.85379002627975" lon="2.5343974760902133"><ele>678.25</ele><time>2026-04-08T10:59:33Z</time></trkpt><trkpt lat="41.85385539028517" lon="2.534229210218511"><ele>678.5</ele><time>2026-04-08T10:59:34Z</time></trkpt><trkpt lat="41.85391873954284" lon="2.5340531977792997"><ele>678.75</ele><time>2026-04-08T10:59:35.001Z</time></trkpt><trkpt lat="41.85398289707524" lon="2.533864829663975"><ele>679.0</ele><time>2026-04-08T10:59:36.001Z</time></trkpt><trkpt lat="41.854054800446534" lon="2.533677023567878"><ele>679.0</ele><time>2026-04-08T10:59:37.001Z</time></trkpt><trkpt lat="41.85412737769656" lon="2.533482704774548"><ele>679.0</ele><time>2026-04-08T10:59:38.001Z</time></trkpt><trkpt lat="41.854200220661475" lon="2.533292505277147"><ele>679.0</ele><time>2026-04-08T10:59:39.001Z</time></trkpt><trkpt lat="41.854282031112966" lon="2.5331239995259773"><ele>684.75</ele><time>2026-04-08T10:59:40.001Z</time></trkpt><trkpt lat="41.85436475476007" lon="2.532980312834661"><ele>690.5</ele><time>2026-04-08T10:59:41.001Z</time></trkpt><trkpt lat="41.85443489910159" lon="2.5328499452031386"><ele>696.25</ele><time>2026-04-08T10:59:42.001Z</time></trkpt><trkpt lat="41.85448616851722" lon="2.532723711354181"><ele>702.0</ele><time>2026-04-08T10:59:43.001Z</time></trkpt><trkpt lat="41.85450183578685" lon="2.5325841920544603"><ele>702.0</ele><time>2026-04-08T10:59:44.001Z</time></trkpt><trkpt lat="41.8544861800057" lon="2.5324304364026817"><ele>702.0</ele><time>2026-04-08T10:59:45.001Z</time></trkpt><trkpt lat="41.85444591022353" lon="2.5322721519638804"><ele>702.0</ele><time>2026-04-08T10:59:46.001Z</time></trkpt><trkpt lat="41.8544022657801" lon="2.5321045193299243"><ele>702.0</ele><time>2026-04-08T10:59:47.001Z</time></trkpt><trkpt lat="41.85435765283983" lon="2.5319282732766215"><ele>703.0</ele><time>2026-04-08T10:59:48.001Z</time></trkpt><trkpt lat="41.85429697308262" lon="2.5317731905217187"><ele>704.0</ele><time>2026-04-08T10:59:49.001Z</time></trkpt><trkpt lat="41.85424108890488" lon="2.53164040064284"><ele>705.0</ele><time>2026-04-08T10:59:50.001Z</time></trkpt><trkpt lat="41.85422379281797" lon="2.5314974333731857"><ele>706.0</ele><time>2026-04-08T10:59:51.001Z</time></trkpt><trkpt lat="41.85423390975635" lon="2.5313255121685136"><ele>702.25</ele><time>2026-04-08T10:59:52.001Z</time></trkpt><trkpt lat="41.854258506215075" lon="2.5311358026766886"><ele>698.5</ele><time>2026-04-08T10:59:53.001Z</time></trkpt><trkpt lat="41.85428271716341" lon="2.530956133070406"><ele>694.75</ele><time>2026-04-08T10:59:54.001Z</time></trkpt><trkpt lat="41.854284827870714" lon="2.530789548155853"><ele>691.0</ele><time>2026-04-08T10:59:55.001Z</time></trkpt><trkpt lat="41.85425142639308" lon="2.530638646585039"><ele>691.0</ele><time>2026-04-08T10:59:56.001Z</time></trkpt><trkpt lat="41.854181747284294" lon="2.5305005477468114"><ele>691.0</ele><time>2026-04-08T10:59:57.001Z</time></trkpt><trkpt lat="41.854100316292566" lon="2.530389233588154"><ele>691.0</ele><time>2026-04-08T10:59:58.001Z</time></trkpt><trkpt lat="41.85404419823971" lon="2.53027852395861"><ele>691.0</ele><time>2026-04-08T10:59:59.001Z</time></trkpt><trkpt lat="41.854024006802504" lon="2.530150126757061"><ele>691.0</ele><time>2026-04-08T11:00:00.001Z</time></trkpt><trkpt lat="41.854042360099804" lon="2.529999353281297"><ele>690.25</ele><time>2026-04-08T11:00:01.001Z</time></trkpt><trkpt lat="41.85408332818393" lon="2.529840670879774"><ele>689.5</ele><time>2026-04-08T11:00:02.001Z</time></trkpt><trkpt lat="41.85414389214256" lon="2.529673007290211"><ele>688.75</ele><time>2026-04-08T11:00:03.001Z</time></trkpt><trkpt lat="41.85420632977311" lon="2.529522470437484"><ele>688.0</ele><time>2026-04-08T11:00:04.001Z</time></trkpt><trkpt lat="41.85425937013463" lon="2.5293915812637584"><ele>685.5</ele><time>2026-04-08T11:00:05.001Z</time></trkpt><trkpt lat="41.85431413969202" lon="2.5292842026622466"><ele>683.0</ele><time>2026-04-08T11:00:06.001Z</time></trkpt><trkpt lat="41.854380893753046" lon="2.529207507514595"><ele>680.5</ele><time>2026-04-08T11:00:07.001Z</time></trkpt><trkpt lat="41.854455883714515" lon="2.5291827168270715"><ele>678.0</ele><time>2026-04-08T11:00:08.001Z</time></trkpt><trkpt lat="41.85453136301323" lon="2.529210574605631"><ele>675.5</ele><time>2026-04-08T11:00:09.001Z</time></trkpt><trkpt lat="41.854598894618704" lon="2.529280202472792"><ele>673.0</ele><time>2026-04-08T11:00:10.001Z</time></trkpt><trkpt lat="41.854629934224164" lon="2.5294000480870658"><ele>673.0</ele><time>2026-04-08T11:00:11.001Z</time></trkpt><trkpt lat="41.85469900947589" lon="2.5295180859568704"><ele>673.0</ele><time>2026-04-08T11:00:12.001Z</time></trkpt><trkpt lat="41.85474339681435" lon="2.5296756915688543"><ele>673.0</ele><time>2026-04-08T11:00:13.001Z</time></trkpt><trkpt lat="41.85478021255629" lon="2.529859907966014"><ele>673.0</ele><time>2026-04-08T11:00:14.001Z</time></trkpt><trkpt lat="41.854815461023" lon="2.530062956095979"><ele>678.6666666666667</ele><time>2026-04-08T11:00:15.001Z</time></trkpt><trkpt lat="41.8548525669469" lon="2.530274282312355"><ele>684.3333333333334</ele><time>2026-04-08T11:00:16.001Z</time></trkpt><trkpt lat="41.85489605091418" lon="2.5304908460702022"><ele>690.0</ele><time>2026-04-08T11:00:17.001Z</time></trkpt><trkpt lat="41.854958200012085" lon="2.5306893178567145"><ele>691.75</ele><time>2026-04-08T11:00:18.001Z</time></trkpt><trkpt lat="41.855035644619214" lon="2.530859282449282"><ele>693.5</ele><time>2026-04-08T11:00:19.001Z</time></trkpt><trkpt lat="41.85511992183727" lon="2.531007844622251"><ele>695.25</ele><time>2026-04-08T11:00:20.001Z</time></trkpt><trkpt lat="41.85522152956727" lon="2.5311419733842793"><ele>697.0</ele><time>2026-04-08T11:00:21.001Z</time></trkpt><trkpt lat="41.85534028099783" lon="2.531272481411924"><ele>697.0</ele><time>2026-04-08T11:00:22.001Z</time></trkpt><trkpt lat="41.85545964756221" lon="2.531404648682697"><ele>697.0</ele><time>2026-04-08T11:00:23.001Z</time></trkpt><trkpt lat="41.85557138488213" lon="2.5315351771506074"><ele>697.0</ele><time>2026-04-08T11:00:24.001Z</time></trkpt><trkpt lat="41.85569916147686" lon="2.531644404459335"><ele>697.0</ele><time>2026-04-08T11:00:25.001Z</time></trkpt><trkpt lat="41.85584680124706" lon="2.5317355837307183"><ele>697.0</ele><time>2026-04-08T11:00:26.001Z</time></trkpt><trkpt lat="41.8560028103823" lon="2.5318149609664284"><ele>697.0</ele><time>2026-04-08T11:00:27.001Z</time></trkpt><trkpt lat="41.85616122596552" lon="2.531901742619794"><ele>694.0</ele><time>2026-04-08T11:00:28.001Z</time></trkpt><trkpt lat="41.85630870284502" lon="2.5319863001801446"><ele>691.0</ele><time>2026-04-08T11:00:29.001Z</time></trkpt><trkpt lat="41.856451639016434" lon="2.5320547366209145"><ele>688.0</ele><time>2026-04-08T11:00:30.001Z</time></trkpt><trkpt lat="41.85659053288063" lon="2.5320880487245723"><ele>689.5</ele><time>2026-04-08T11:00:31.001Z</time></trkpt><trkpt lat="41.856728342439276" lon="2.5320990098919576"><ele>691.0</ele><time>2026-04-08T11:00:32.001Z</time></trkpt><trkpt lat="41.85685697570064" lon="2.532130566987019"><ele>692.5</ele><time>2026-04-08T11:00:33.001Z</time></trkpt><trkpt lat="41.856972459379655" lon="2.5322017418538976"><ele>694.0</ele><time>2026-04-08T11:00:34.001Z</time></trkpt><trkpt lat="41.857061784673" lon="2.5322993428540546"><ele>694.0</ele><time>2026-04-08T11:00:35.001Z</time></trkpt><trkpt lat="41.85712655142602" lon="2.532414225570974"><ele>694.0</ele><time>2026-04-08T11:00:36.001Z</time></trkpt><trkpt lat="41.85716886248173" lon="2.532545528996705"><ele>694.0</ele><time>2026-04-08T11:00:37.001Z</time></trkpt><trkpt lat="41.857188966439594" lon="2.5327100990356035"><ele>694.0</ele><time>2026-04-08T11:00:38.001Z</time></trkpt><trkpt lat="41.857192420828774" lon="2.5328888405086065"><ele>695.5</ele><time>2026-04-08T11:00:39Z</time></trkpt><trkpt lat="41.8572041751435" lon="2.5330812481360745"><ele>697.0</ele><time>2026-04-08T11:00:40Z</time></trkpt><trkpt lat="41.85721937215807" lon="2.5332821736444284"><ele>698.5</ele><time>2026-04-08T11:00:41Z</time></trkpt><trkpt lat="41.85724058080758" lon="2.533483213548587"><ele>700.0</ele><time>2026-04-08T11:00:42Z</time></trkpt><trkpt lat="41.857250742813264" lon="2.5336685336164937"><ele>702.2</ele><time>2026-04-08T11:00:43Z</time></trkpt><trkpt lat="41.85726986889758" lon="2.5338320852434513"><ele>704.4</ele><time>2026-04-08T11:00:44Z</time></trkpt><trkpt lat="41.85728696618109" lon="2.53395859283654"><ele>706.5999999999999</ele><time>2026-04-08T11:00:45Z</time></trkpt><trkpt lat="41.85732178710819" lon="2.5340497999102576"><ele>708.8</ele><time>2026-04-08T11:00:46Z</time></trkpt><trkpt lat="41.85739207987344" lon="2.5341143381681968"><ele>711.0</ele><time>2026-04-08T11:00:47Z</time></trkpt><trkpt lat="41.85747657363293" lon="2.5341520929001513"><ele>711.0</ele><time>2026-04-08T11:00:48Z</time></trkpt><trkpt lat="41.857582972226545" lon="2.5341535767369514"><ele>711.0</ele><time>2026-04-08T11:00:49Z</time></trkpt><trkpt lat="41.857702127681435" lon="2.5341485881280716"><ele>711.0</ele><time>2026-04-08T11:00:50Z</time></trkpt><trkpt lat="41.857811359012175" lon="2.534117984484403"><ele>711.0</ele><time>2026-04-08T11:00:51Z</time></trkpt><trkpt lat="41.857905920952355" lon="2.534119746160858"><ele>711.0</ele><time>2026-04-08T11:00:52Z</time></trkpt><trkpt lat="41.85799746876727" lon="2.5341095716707263"><ele>709.25</ele><time>2026-04-08T11:00:53Z</time></trkpt><trkpt lat="41.85808978929648" lon="2.5340787391146455"><ele>707.5</ele><time>2026-04-08T11:00:54Z</time></trkpt><trkpt lat="41.85814921733052" lon="2.5339376903359283"><ele>705.75</ele><time>2026-04-08T11:00:55Z</time></trkpt><trkpt lat="41.858216660497895" lon="2.5338204852552675"><ele>704.0</ele><time>2026-04-08T11:00:56Z</time></trkpt><trkpt lat="41.858321093753425" lon="2.533714974882652"><ele>704.0</ele><time>2026-04-08T11:00:57Z</time></trkpt><trkpt lat="41.8584413669312" lon="2.5336086268846176"><ele>704.0</ele><time>2026-04-08T11:00:58Z</time></trkpt><trkpt lat="41.85854693615404" lon="2.5335144575087605"><ele>704.0</ele><time>2026-04-08T11:00:59Z</time></trkpt><trkpt lat="41.85864218907969" lon="2.5334431827064887"><ele>704.0</ele><time>2026-04-08T11:01:00Z</time></trkpt><trkpt lat="41.858730917014604" lon="2.5334077739643295"><ele>705.4000000000001</ele><time>2026-04-08T11:01:01Z</time></trkpt><trkpt lat="41.85880492099475" lon="2.5334278705801125"><ele>706.8</ele><time>2026-04-08T11:01:02Z</time></trkpt><trkpt lat="41.85887034818495" lon="2.533486863061423"><ele>708.2</ele><time>2026-04-08T11:01:03Z</time></trkpt><trkpt lat="41.85894649845012" lon="2.533576400664372"><ele>709.5999999999999</ele><time>2026-04-08T11:01:04Z</time></trkpt><trkpt lat="41.85904703428165" lon="2.5336908082597316"><ele>711.0</ele><time>2026-04-08T11:01:05Z</time></trkpt><trkpt lat="41.859155303152306" lon="2.533818081655702"><ele>714.75</ele><time>2026-04-08T11:01:06Z</time></trkpt><trkpt lat="41.85926227212758" lon="2.5339216692671482"><ele>718.5</ele><time>2026-04-08T11:01:07Z</time></trkpt><trkpt lat="41.859375154597124" lon="2.5340427173312996"><ele>722.25</ele><time>2026-04-08T11:01:08Z</time></trkpt><trkpt lat="41.859471520994035" lon="2.5341523758154056"><ele>726.0</ele><time>2026-04-08T11:01:09Z</time></trkpt><trkpt lat="41.85956099169875" lon="2.534258763455097"><ele>727.0</ele><time>2026-04-08T11:01:10Z</time></trkpt><trkpt lat="41.85964263131126" lon="2.534346261232763"><ele>728.0</ele><time>2026-04-08T11:01:11Z</time></trkpt><trkpt lat="41.85972150968734" lon="2.534412888572302"><ele>729.0</ele><time>2026-04-08T11:01:12Z</time></trkpt><trkpt lat="41.859784511163255" lon="2.5344285452509174"><ele>730.0</ele><time>2026-04-08T11:01:13Z</time></trkpt><trkpt lat="41.85984919342831" lon="2.5343984386345917"><ele>731.0</ele><time>2026-04-08T11:01:14Z</time></trkpt><trkpt lat="41.859907655396064" lon="2.5343201452427606"><ele>732.0</ele><time>2026-04-08T11:01:15Z</time></trkpt><trkpt lat="41.85993621563814" lon="2.534198912163377"><ele>732.0</ele><time>2026-04-08T11:01:16Z</time></trkpt><trkpt lat="41.85993080744862" lon="2.5340522156488317"><ele>732.0</ele><time>2026-04-08T11:01:17Z</time></trkpt><trkpt lat="41.859904552801154" lon="2.5338930442772756"><ele>732.0</ele><time>2026-04-08T11:01:18Z</time></trkpt><trkpt lat="41.85988923576576" lon="2.5337495321066243"><ele>732.0</ele><time>2026-04-08T11:01:19Z</time></trkpt><trkpt lat="41.85990862007682" lon="2.5336175923074205"><ele>732.0</ele><time>2026-04-08T11:01:20Z</time></trkpt><trkpt lat="41.85996243948709" lon="2.5335035535926385"><ele>732.75</ele><time>2026-04-08T11:01:21Z</time></trkpt><trkpt lat="41.86004464787054" lon="2.5333942074744544"><ele>733.5</ele><time>2026-04-08T11:01:22Z</time></trkpt><trkpt lat="41.860146044866205" lon="2.5333049274016908"><ele>734.25</ele><time>2026-04-08T11:01:23Z</time></trkpt><trkpt lat="41.86025651808133" lon="2.5332434216435606"><ele>735.0</ele><time>2026-04-08T11:01:24Z</time></trkpt><trkpt lat="41.860366317139885" lon="2.533223556000358"><ele>735.0</ele><time>2026-04-08T11:01:25Z</time></trkpt><trkpt lat="41.86046977951875" lon="2.533258838710558"><ele>735.0</ele><time>2026-04-08T11:01:26Z</time></trkpt><trkpt lat="41.86056522466332" lon="2.533332243665377"><ele>735.0</ele><time>2026-04-08T11:01:27Z</time></trkpt><trkpt lat="41.86064146636917" lon="2.533433978101649"><ele>735.0</ele><time>2026-04-08T11:01:28Z</time></trkpt><trkpt lat="41.8606874038199" lon="2.5335499739004175"><ele>735.0</ele><time>2026-04-08T11:01:29Z</time></trkpt><trkpt lat="41.86074138061312" lon="2.533635458205347"><ele>735.0</ele><time>2026-04-08T11:01:30Z</time></trkpt><trkpt lat="41.86081407546025" lon="2.533655795179881"><ele>735.0</ele><time>2026-04-08T11:01:31Z</time></trkpt><trkpt lat="41.86088811788768" lon="2.533623167041503"><ele>735.0</ele><time>2026-04-08T11:01:32Z</time></trkpt><trkpt lat="41.86096735467394" lon="2.5335336963714843"><ele>735.0</ele><time>2026-04-08T11:01:33Z</time></trkpt><trkpt lat="41.86100555963608" lon="2.5333770316618045"><ele>735.0</ele><time>2026-04-08T11:01:34Z</time></trkpt><trkpt lat="41.861019804376" lon="2.5332342770590994"><ele>737.25</ele><time>2026-04-08T11:01:35Z</time></trkpt><trkpt lat="41.86105582913455" lon="2.533131407446051"><ele>739.5</ele><time>2026-04-08T11:01:36Z</time></trkpt><trkpt lat="41.8611528833323" lon="2.5330476872037475"><ele>741.75</ele><time>2026-04-08T11:01:37Z</time></trkpt><trkpt lat="41.861268587238825" lon="2.5329540669518438"><ele>744.0</ele><time>2026-04-08T11:01:38Z</time></trkpt><trkpt lat="41.86138714746415" lon="2.532835567040752"><ele>744.0</ele><time>2026-04-08T11:01:39Z</time></trkpt><trkpt lat="41.861469403572535" lon="2.532662102222512"><ele>744.0</ele><time>2026-04-08T11:01:40Z</time></trkpt><trkpt lat="41.86153117321236" lon="2.5324713565315786"><ele>744.0</ele><time>2026-04-08T11:01:41Z</time></trkpt><trkpt lat="41.86161519923638" lon="2.5323204609757575"><ele>744.0</ele><time>2026-04-08T11:01:42.001Z</time></trkpt><trkpt lat="41.86169528359766" lon="2.5322047579954727"><ele>744.0</ele><time>2026-04-08T11:01:43.001Z</time></trkpt><trkpt lat="41.86177738381855" lon="2.532121157950678"><ele>744.0</ele><time>2026-04-08T11:01:44.001Z</time></trkpt><trkpt lat="41.861870461994414" lon="2.532096687192059"><ele>744.0</ele><time>2026-04-08T11:01:45.001Z</time></trkpt><trkpt lat="41.86199435291468" lon="2.5320962753652543"><ele>744.0</ele><time>2026-04-08T11:01:46.001Z</time></trkpt><trkpt lat="41.862145040354285" lon="2.5321006253477063"><ele>749.0</ele><time>2026-04-08T11:01:47.001Z</time></trkpt><trkpt lat="41.862322445029506" lon="2.532095019010353"><ele>754.0</ele><time>2026-04-08T11:01:48.001Z</time></trkpt><trkpt lat="41.86248840747036" lon="2.5320841575380766"><ele>759.0</ele><time>2026-04-08T11:01:49.001Z</time></trkpt><trkpt lat="41.862637296945195" lon="2.532084034500303"><ele>759.75</ele><time>2026-04-08T11:01:50.001Z</time></trkpt><trkpt lat="41.862778373341804" lon="2.53208490731466"><ele>760.5</ele><time>2026-04-08T11:01:51.001Z</time></trkpt><trkpt lat="41.86290250719606" lon="2.532077268549015"><ele>761.25</ele><time>2026-04-08T11:01:52.001Z</time></trkpt><trkpt lat="41.86300528876949" lon="2.5320413806469393"><ele>762.0</ele><time>2026-04-08T11:01:53.001Z</time></trkpt><trkpt lat="41.86308195096083" lon="2.531950988240235"><ele>762.0</ele><time>2026-04-08T11:01:54.001Z</time></trkpt><trkpt lat="41.863161818640286" lon="2.531805912428308"><ele>762.0</ele><time>2026-04-08T11:01:55.001Z</time></trkpt><trkpt lat="41.86323619786625" lon="2.5316216189766614"><ele>762.0</ele><time>2026-04-08T11:01:56.001Z</time></trkpt><trkpt lat="41.86332347020205" lon="2.531417294681406"><ele>759.3333333333334</ele><time>2026-04-08T11:01:57.001Z</time></trkpt><trkpt lat="41.863428256183404" lon="2.5312203534538638"><ele>756.6666666666667</ele><time>2026-04-08T11:01:58.001Z</time></trkpt><trkpt lat="41.86351996441036" lon="2.53102635582097"><ele>754.0</ele><time>2026-04-08T11:01:59.001Z</time></trkpt><trkpt lat="41.863598125128355" lon="2.5308461491505687"><ele>757.5</ele><time>2026-04-08T11:02:00.001Z</time></trkpt><trkpt lat="41.86366026165175" lon="2.5306828807232513"><ele>761.0</ele><time>2026-04-08T11:02:01.001Z</time></trkpt><trkpt lat="41.86370323896864" lon="2.5305171299061695"><ele>764.5</ele><time>2026-04-08T11:02:02.001Z</time></trkpt><trkpt lat="41.863709625451385" lon="2.530334136416589"><ele>768.0</ele><time>2026-04-08T11:02:03.001Z</time></trkpt><trkpt lat="41.86370643994256" lon="2.530146588586647"><ele>768.0</ele><time>2026-04-08T11:02:04.001Z</time></trkpt><trkpt lat="41.863733293247904" lon="2.5299658997654846"><ele>768.0</ele><time>2026-04-08T11:02:05.001Z</time></trkpt><trkpt lat="41.86377939839456" lon="2.5298285655190322"><ele>768.0</ele><time>2026-04-08T11:02:06.001Z</time></trkpt><trkpt lat="41.86383076559049" lon="2.5297271167116935"><ele>768.0</ele><time>2026-04-08T11:02:07.001Z</time></trkpt><trkpt lat="41.86389646235858" lon="2.529667109619133"><ele>768.0</ele><time>2026-04-08T11:02:08.001Z</time></trkpt><trkpt lat="41.86398129553343" lon="2.529646273491236"><ele>768.0</ele><time>2026-04-08T11:02:09.001Z</time></trkpt><trkpt lat="41.86408978261544" lon="2.52965975973139"><ele>768.0</ele><time>2026-04-08T11:02:10.001Z</time></trkpt><trkpt lat="41.864207696754484" lon="2.5297054692796483"><ele>768.0</ele><time>2026-04-08T11:02:11.001Z</time></trkpt><trkpt lat="41.864319918039385" lon="2.529778514049316"><ele>768.0</ele><time>2026-04-08T11:02:12.001Z</time></trkpt><trkpt lat="41.8644106253356" lon="2.529883332803103"><ele>769.0</ele><time>2026-04-08T11:02:13.001Z</time></trkpt><trkpt lat="41.864479220297554" lon="2.530022897417664"><ele>770.0</ele><time>2026-04-08T11:02:14.001Z</time></trkpt><trkpt lat="41.864549665144416" lon="2.530158472998008"><ele>771.0</ele><time>2026-04-08T11:02:15.001Z</time></trkpt><trkpt lat="41.86466299584647" lon="2.5302626198980906"><ele>772.0</ele><time>2026-04-08T11:02:16.001Z</time></trkpt><trkpt lat="41.864777677466854" lon="2.5303545402291987"><ele>773.8</ele><time>2026-04-08T11:02:17.001Z</time></trkpt><trkpt lat="41.86488212098157" lon="2.5304313361999626"><ele>775.6</ele><time>2026-04-08T11:02:18.001Z</time></trkpt><trkpt lat="41.86497716970724" lon="2.530504049994117"><ele>777.4</ele><time>2026-04-08T11:02:19.001Z</time></trkpt><trkpt lat="41.86506623690306" lon="2.5305582523610943"><ele>779.1999999999999</ele><time>2026-04-08T11:02:20.001Z</time></trkpt><trkpt lat="41.86515086319765" lon="2.530564922968066"><ele>781.0</ele><time>2026-04-08T11:02:21.001Z</time></trkpt><trkpt lat="41.8652263698991" lon="2.530512779938947"><ele>784.4</ele><time>2026-04-08T11:02:22.001Z</time></trkpt><trkpt lat="41.865286436560474" lon="2.5304136657354013"><ele>787.8</ele><time>2026-04-08T11:02:23.001Z</time></trkpt><trkpt lat="41.86530431332656" lon="2.530279601302298"><ele>791.1999999999999</ele><time>2026-04-08T11:02:24.001Z</time></trkpt><trkpt lat="41.86528931198525" lon="2.530125947809576"><ele>794.5999999999999</ele><time>2026-04-08T11:02:25.001Z</time></trkpt><trkpt lat="41.86528449626379" lon="2.5299457382695754"><ele>798.0</ele><time>2026-04-08T11:02:26.001Z</time></trkpt><trkpt lat="41.86526842902581" lon="2.529767846589382"><ele>798.2</ele><time>2026-04-08T11:02:27.001Z</time></trkpt><trkpt lat="41.865249994356404" lon="2.5296173953094057"><ele>798.4</ele><time>2026-04-08T11:02:28.001Z</time></trkpt><trkpt lat="41.865221590608954" lon="2.5294743312080485"><ele>798.6</ele><time>2026-04-08T11:02:29.001Z</time></trkpt><trkpt lat="41.865227098414486" lon="2.5293411381430637"><ele>798.8000000000001</ele><time>2026-04-08T11:02:30.001Z</time></trkpt><trkpt lat="41.86527177492891" lon="2.529224263146264"><ele>799.0</ele><time>2026-04-08T11:02:31.001Z</time></trkpt><trkpt lat="41.86535273734606" lon="2.5291237139424303"><ele>798.9999999999999</ele><time>2026-04-08T11:02:32.001Z</time></trkpt><trkpt lat="41.86543019433191" lon="2.5290359747304136"><ele>799.0</ele><time>2026-04-08T11:02:33.001Z</time></trkpt><trkpt lat="41.86547477238628" lon="2.5289458106452343"><ele>799.0</ele><time>2026-04-08T11:02:34.001Z</time></trkpt><trkpt lat="41.86547626486392" lon="2.5288516519931195"><ele>799.0</ele><time>2026-04-08T11:02:35.001Z</time></trkpt><trkpt lat="41.86545459214996" lon="2.5287468997904377"><ele>798.9999999999999</ele><time>2026-04-08T11:02:36.001Z</time></trkpt><trkpt lat="41.86540319706076" lon="2.5286718660777106"><ele>799.0</ele><time>2026-04-08T11:02:37.001Z</time></trkpt><trkpt lat="41.86533766663628" lon="2.528641591136808"><ele>799.4000000000001</ele><time>2026-04-08T11:02:38.001Z</time></trkpt><trkpt lat="41.86525764561984" lon="2.5286231340124927"><ele>799.8</ele><time>2026-04-08T11:02:39.001Z</time></trkpt><trkpt lat="41.86514663884888" lon="2.528617781971338"><ele>800.2</ele><time>2026-04-08T11:02:40.001Z</time></trkpt><trkpt lat="41.865033832087825" lon="2.528608866337273"><ele>800.5999999999999</ele><time>2026-04-08T11:02:41.001Z</time></trkpt><trkpt lat="41.864931839349175" lon="2.5285793437408364"><ele>801.0</ele><time>2026-04-08T11:02:42.001Z</time></trkpt><trkpt lat="41.86484049366097" lon="2.528519442712085"><ele>800.5</ele><time>2026-04-08T11:02:43.001Z</time></trkpt><trkpt lat="41.86478700387946" lon="2.5283759281438054"><ele>800.0</ele><time>2026-04-08T11:02:44.001Z</time></trkpt><trkpt lat="41.864714480559094" lon="2.5282228293397155"><ele>799.5</ele><time>2026-04-08T11:02:45Z</time></trkpt><trkpt lat="41.864648705932446" lon="2.5280601622204384"><ele>799.0</ele><time>2026-04-08T11:02:46Z</time></trkpt><trkpt lat="41.864592827742534" lon="2.527879103358616"><ele>799.0</ele><time>2026-04-08T11:02:47Z</time></trkpt><trkpt lat="41.864530960993484" lon="2.5276941011100766"><ele>799.0</ele><time>2026-04-08T11:02:48Z</time></trkpt><trkpt lat="41.864489145118156" lon="2.5275222948036022"><ele>799.0</ele><time>2026-04-08T11:02:49Z</time></trkpt><trkpt lat="41.86446568516214" lon="2.527359542571927"><ele>799.0</ele><time>2026-04-08T11:02:50Z</time></trkpt><trkpt lat="41.86441231593826" lon="2.527221378062526"><ele>799.0</ele><time>2026-04-08T11:02:51Z</time></trkpt><trkpt lat="41.86430679335357" lon="2.5271387878554212"><ele>799.0</ele><time>2026-04-08T11:02:52Z</time></trkpt><trkpt lat="41.864183805906315" lon="2.527098629500528"><ele>799.0</ele><time>2026-04-08T11:02:53Z</time></trkpt><trkpt lat="41.86408258321809" lon="2.5270553965126106"><ele>799.0</ele><time>2026-04-08T11:02:54Z</time></trkpt><trkpt lat="41.86399234248935" lon="2.5270035189794857"><ele>797.0</ele><time>2026-04-08T11:02:55Z</time></trkpt><trkpt lat="41.86392755921833" lon="2.5268640374872655"><ele>795.0</ele><time>2026-04-08T11:02:56Z</time></trkpt><trkpt lat="41.86385607018935" lon="2.526677948918565"><ele>793.0</ele><time>2026-04-08T11:02:57Z</time></trkpt><trkpt lat="41.86377152963009" lon="2.52647555603382"><ele>793.0</ele><time>2026-04-08T11:02:58Z</time></trkpt><trkpt lat="41.86368749371738" lon="2.5262719296061165"><ele>793.0</ele><time>2026-04-08T11:02:59Z</time></trkpt><trkpt lat="41.863610450350656" lon="2.526075626498516"><ele>793.0</ele><time>2026-04-08T11:03:00Z</time></trkpt><trkpt lat="41.86353751667104" lon="2.5258983195291327"><ele>791.0</ele><time>2026-04-08T11:03:01Z</time></trkpt><trkpt lat="41.863474739847625" lon="2.5257342039268584"><ele>789.0</ele><time>2026-04-08T11:03:02Z</time></trkpt><trkpt lat="41.86343030102373" lon="2.5255796810757105"><ele>787.0</ele><time>2026-04-08T11:03:03Z</time></trkpt><trkpt lat="41.86341099464783" lon="2.5254237351435513"><ele>785.0</ele><time>2026-04-08T11:03:04Z</time></trkpt><trkpt lat="41.86342369917425" lon="2.5252520213365877"><ele>785.0</ele><time>2026-04-08T11:03:05Z</time></trkpt><trkpt lat="41.86343948066647" lon="2.5250866940680816"><ele>785.0</ele><time>2026-04-08T11:03:06Z</time></trkpt><trkpt lat="41.86344942644499" lon="2.5249280547016166"><ele>785.0</ele><time>2026-04-08T11:03:07Z</time></trkpt><trkpt lat="41.863459491215636" lon="2.5247785739226205"><ele>785.0</ele><time>2026-04-08T11:03:08Z</time></trkpt><trkpt lat="41.863466509258735" lon="2.524635740364119"><ele>787.0</ele><time>2026-04-08T11:03:09Z</time></trkpt><trkpt lat="41.86348735345929" lon="2.524500035910182"><ele>789.0</ele><time>2026-04-08T11:03:10Z</time></trkpt><trkpt lat="41.86352262921699" lon="2.5243787228778425"><ele>791.0</ele><time>2026-04-08T11:03:11Z</time></trkpt><trkpt lat="41.86356418767982" lon="2.5242737247731424"><ele>793.0</ele><time>2026-04-08T11:03:12Z</time></trkpt><trkpt lat="41.86360885272777" lon="2.524177037957929"><ele>795.0</ele><time>2026-04-08T11:03:13Z</time></trkpt><trkpt lat="41.8636629492515" lon="2.524084583138198"><ele>795.0</ele><time>2026-04-08T11:03:14Z</time></trkpt><trkpt lat="41.86372356056488" lon="2.5239782259848393"><ele>795.0</ele><time>2026-04-08T11:03:15Z</time></trkpt><trkpt lat="41.86379209101006" lon="2.523855975202577"><ele>795.0</ele><time>2026-04-08T11:03:16Z</time></trkpt><trkpt lat="41.86385720035347" lon="2.5237334149165545"><ele>795.0</ele><time>2026-04-08T11:03:17Z</time></trkpt><trkpt lat="41.86392160337184" lon="2.523618930543491"><ele>795.0</ele><time>2026-04-08T11:03:18Z</time></trkpt><trkpt lat="41.86398289423291" lon="2.523517702956553"><ele>793.0</ele><time>2026-04-08T11:03:19Z</time></trkpt><trkpt lat="41.86405131799049" lon="2.5234341478734286"><ele>791.0</ele><time>2026-04-08T11:03:20Z</time></trkpt><trkpt lat="41.86413030133378" lon="2.5233667235992145"><ele>789.0</ele><time>2026-04-08T11:03:21Z</time></trkpt><trkpt lat="41.86421441707194" lon="2.5233346463910173"><ele>787.0</ele><time>2026-04-08T11:03:22Z</time></trkpt><trkpt lat="41.86430362553641" lon="2.523342850440785"><ele>785.0</ele><time>2026-04-08T11:03:23Z</time></trkpt><trkpt lat="41.86440605467792" lon="2.523393026850521"><ele>784.0</ele><time>2026-04-08T11:03:24Z</time></trkpt><trkpt lat="41.86452110424653" lon="2.5234514738132234"><ele>783.0</ele><time>2026-04-08T11:03:25Z</time></trkpt><trkpt lat="41.86463878916326" lon="2.5235296086293078"><ele>782.0</ele><time>2026-04-08T11:03:26Z</time></trkpt><trkpt lat="41.864755764219254" lon="2.5235973422993903"><ele>781.0</ele><time>2026-04-08T11:03:27Z</time></trkpt><trkpt lat="41.864877077961886" lon="2.5236777599141726"><ele>784.0</ele><time>2026-04-08T11:03:28Z</time></trkpt><trkpt lat="41.86500102555138" lon="2.523776568975612"><ele>787.0</ele><time>2026-04-08T11:03:29Z</time></trkpt><trkpt lat="41.86512450036851" lon="2.523894248607323"><ele>790.0</ele><time>2026-04-08T11:03:30Z</time></trkpt><trkpt lat="41.8652544511679" lon="2.524026573921404"><ele>790.0</ele><time>2026-04-08T11:03:31Z</time></trkpt><trkpt lat="41.865390205644104" lon="2.5241627059147915"><ele>790.0</ele><time>2026-04-08T11:03:32Z</time></trkpt><trkpt lat="41.865514098762276" lon="2.52429120949425"><ele>790.0</ele><time>2026-04-08T11:03:33Z</time></trkpt><trkpt lat="41.86562977416583" lon="2.5244049134711775"><ele>790.0</ele><time>2026-04-08T11:03:34Z</time></trkpt><trkpt lat="41.86573593815255" lon="2.5245027758905767"><ele>790.0</ele><time>2026-04-08T11:03:35Z</time></trkpt><trkpt lat="41.86582618772286" lon="2.5245867223390497"><ele>790.0</ele><time>2026-04-08T11:03:36Z</time></trkpt><trkpt lat="41.86590326581114" lon="2.5246491574278473"><ele>790.0</ele><time>2026-04-08T11:03:37Z</time></trkpt><trkpt lat="41.865979270163706" lon="2.524676530012297"><ele>790.0</ele><time>2026-04-08T11:03:38Z</time></trkpt><trkpt lat="41.86604980786413" lon="2.5246465193573293"><ele>794.6</ele><time>2026-04-08T11:03:39Z</time></trkpt><trkpt lat="41.866110406682886" lon="2.524574125250267"><ele>799.2</ele><time>2026-04-08T11:03:40Z</time></trkpt><trkpt lat="41.86615922927296" lon="2.524460112032292"><ele>803.8</ele><time>2026-04-08T11:03:41.001Z</time></trkpt><trkpt lat="41.86617008839434" lon="2.524321407609521"><ele>808.4</ele><time>2026-04-08T11:03:42.001Z</time></trkpt><trkpt lat="41.866161359052924" lon="2.524162445896867"><ele>813.0</ele><time>2026-04-08T11:03:43.001Z</time></trkpt><trkpt lat="41.86615946813225" lon="2.524018954985284"><ele>813.0</ele><time>2026-04-08T11:03:44.001Z</time></trkpt><trkpt lat="41.866186842770574" lon="2.5238899823920105"><ele>813.0</ele><time>2026-04-08T11:03:45.001Z</time></trkpt><trkpt lat="41.86626880698634" lon="2.523779869149635"><ele>813.0</ele><time>2026-04-08T11:03:46.001Z</time></trkpt><trkpt lat="41.866370728045815" lon="2.5237013883490382"><ele>813.0</ele><time>2026-04-08T11:03:47.001Z</time></trkpt><trkpt lat="41.8664951151412" lon="2.5236402641757905"><ele>809.75</ele><time>2026-04-08T11:03:48.001Z</time></trkpt><trkpt lat="41.866596342528986" lon="2.523568055407698"><ele>806.5</ele><time>2026-04-08T11:03:49.001Z</time></trkpt><trkpt lat="41.86667389809317" lon="2.5234713409952723"><ele>803.25</ele><time>2026-04-08T11:03:50.001Z</time></trkpt><trkpt lat="41.86671985954675" lon="2.523325267381384"><ele>800.0</ele><time>2026-04-08T11:03:51.001Z</time></trkpt><trkpt lat="41.866764287618444" lon="2.5231686789918624"><ele>804.5</ele><time>2026-04-08T11:03:52.001Z</time></trkpt><trkpt lat="41.86678478238592" lon="2.5230150732730534"><ele>809.0</ele><time>2026-04-08T11:03:53.001Z</time></trkpt><trkpt lat="41.86681919780024" lon="2.5228599180237254"><ele>813.5</ele><time>2026-04-08T11:03:54.001Z</time></trkpt><trkpt lat="41.86685637294143" lon="2.5226991984564227"><ele>818.0</ele><time>2026-04-08T11:03:55.001Z</time></trkpt><trkpt lat="41.86689693085166" lon="2.522529929913195"><ele>818.0</ele><time>2026-04-08T11:03:56.001Z</time></trkpt><trkpt lat="41.86693622019258" lon="2.52235728607767"><ele>818.0</ele><time>2026-04-08T11:03:57.001Z</time></trkpt><trkpt lat="41.866972086812495" lon="2.5221897126412096"><ele>818.0</ele><time>2026-04-08T11:03:58.001Z</time></trkpt><trkpt lat="41.86700949799057" lon="2.522031441299658"><ele>818.0</ele><time>2026-04-08T11:03:59.001Z</time></trkpt><trkpt lat="41.86704631803764" lon="2.521877975137574"><ele>817.0</ele><time>2026-04-08T11:04:00.001Z</time></trkpt><trkpt lat="41.867073775230125" lon="2.5217315255141024"><ele>816.0</ele><time>2026-04-08T11:04:01.001Z</time></trkpt><trkpt lat="41.86708870730145" lon="2.521579583425242"><ele>815.0</ele><time>2026-04-08T11:04:02.001Z</time></trkpt><trkpt lat="41.86708135517329" lon="2.521420774201687"><ele>814.0</ele><time>2026-04-08T11:04:03.001Z</time></trkpt><trkpt lat="41.86705293040308" lon="2.5212584973295376"><ele>813.1666666666666</ele><time>2026-04-08T11:04:04.001Z</time></trkpt><trkpt lat="41.86701773384942" lon="2.5211146952643797"><ele>812.3333333333333</ele><time>2026-04-08T11:04:05.001Z</time></trkpt><trkpt lat="41.86698819918828" lon="2.5209834287318773"><ele>811.5</ele><time>2026-04-08T11:04:06.001Z</time></trkpt><trkpt lat="41.86696580255332" lon="2.520867910252941"><ele>810.6666666666667</ele><time>2026-04-08T11:04:07.001Z</time></trkpt><trkpt lat="41.86694544611833" lon="2.5207699081798016"><ele>809.8333333333334</ele><time>2026-04-08T11:04:08.001Z</time></trkpt><trkpt lat="41.866930931206284" lon="2.5206843392862193"><ele>809.0</ele><time>2026-04-08T11:04:09.001Z</time></trkpt><trkpt lat="41.8669289274042" lon="2.5205749393627883"><ele>809.0</ele><time>2026-04-08T11:04:11.001Z</time></trkpt><trkpt lat="41.86695714522242" lon="2.5204477439880097"><ele>809.0</ele><time>2026-04-08T11:04:14.001Z</time></trkpt><trkpt lat="41.86704938684852" lon="2.520324813752916"><ele>809.0</ele><time>2026-04-08T11:04:16.001Z</time></trkpt><trkpt lat="41.86711667500385" lon="2.5202725500112915"><ele>809.0</ele><time>2026-04-08T11:04:17.001Z</time></trkpt><trkpt lat="41.8671939527826" lon="2.520225250721943"><ele>809.0</ele><time>2026-04-08T11:04:18.001Z</time></trkpt><trkpt lat="41.867293085626926" lon="2.520169743256305"><ele>807.4000000000001</ele><time>2026-04-08T11:04:19.001Z</time></trkpt><trkpt lat="41.86739630551803" lon="2.520108669506585"><ele>805.8</ele><time>2026-04-08T11:04:20.001Z</time></trkpt><trkpt lat="41.867489051522355" lon="2.5200549237997327"><ele>804.2</ele><time>2026-04-08T11:04:21.001Z</time></trkpt><trkpt lat="41.86758477704452" lon="2.5200092829769587"><ele>802.5999999999999</ele><time>2026-04-08T11:04:22.001Z</time></trkpt><trkpt lat="41.86768916646398" lon="2.5199979599423252"><ele>801.0</ele><time>2026-04-08T11:04:23.001Z</time></trkpt><trkpt lat="41.86779971231065" lon="2.5200286173482076"><ele>799.0</ele><time>2026-04-08T11:04:24.001Z</time></trkpt><trkpt lat="41.86791624639802" lon="2.5200886463429812"><ele>797.0</ele><time>2026-04-08T11:04:25.001Z</time></trkpt><trkpt lat="41.86802800792569" lon="2.5201939013185024"><ele>795.0</ele><time>2026-04-08T11:04:26.001Z</time></trkpt><trkpt lat="41.86811364814686" lon="2.5202846220169257"><ele>793.0</ele><time>2026-04-08T11:04:27.001Z</time></trkpt><trkpt lat="41.868173948326536" lon="2.5203699004474487"><ele>795.4</ele><time>2026-04-08T11:04:28.001Z</time></trkpt><trkpt lat="41.86822811318997" lon="2.520459566975942"><ele>797.8</ele><time>2026-04-08T11:04:29.001Z</time></trkpt><trkpt lat="41.868289573188335" lon="2.520545770742403"><ele>800.2</ele><time>2026-04-08T11:04:30.001Z</time></trkpt><trkpt lat="41.86835103382716" lon="2.5206259547517975"><ele>802.6</ele><time>2026-04-08T11:04:31.001Z</time></trkpt><trkpt lat="41.86842119059601" lon="2.5207182652866176"><ele>805.0</ele><time>2026-04-08T11:04:32.001Z</time></trkpt><trkpt lat="41.86850793245323" lon="2.520815697042206"><ele>806.4</ele><time>2026-04-08T11:04:33.001Z</time></trkpt><trkpt lat="41.86858684839849" lon="2.5208980658194218"><ele>807.8</ele><time>2026-04-08T11:04:34.001Z</time></trkpt><trkpt lat="41.8686743131213" lon="2.52095252892521"><ele>809.2</ele><time>2026-04-08T11:04:35.001Z</time></trkpt><trkpt lat="41.868773264039376" lon="2.5209378385224652"><ele>810.6</ele><time>2026-04-08T11:04:36.001Z</time></trkpt><trkpt lat="41.8688653667677" lon="2.5208740330612263"><ele>812.0</ele><time>2026-04-08T11:04:37.001Z</time></trkpt><trkpt lat="41.86892795629779" lon="2.5207800110977483"><ele>812.0</ele><time>2026-04-08T11:04:38.001Z</time></trkpt><trkpt lat="41.86895795218211" lon="2.520654814055834"><ele>812.0</ele><time>2026-04-08T11:04:39.001Z</time></trkpt><trkpt lat="41.868969974757896" lon="2.520525239168608"><ele>812.0</ele><time>2026-04-08T11:04:40.001Z</time></trkpt><trkpt lat="41.86897359241846" lon="2.5203882764471297"><ele>812.0</ele><time>2026-04-08T11:04:41.001Z</time></trkpt><trkpt lat="41.86898422050335" lon="2.5202544216825866"><ele>812.0</ele><time>2026-04-08T11:04:42.001Z</time></trkpt><trkpt lat="41.86900761382493" lon="2.5201154085689956"><ele>810.5</ele><time>2026-04-08T11:04:43.001Z</time></trkpt><trkpt lat="41.86900266100037" lon="2.519973398998651"><ele>809.0</ele><time>2026-04-08T11:04:44.001Z</time></trkpt><trkpt lat="41.869019842500485" lon="2.519828349226437"><ele>807.5</ele><time>2026-04-08T11:04:45.001Z</time></trkpt><trkpt lat="41.86903215546392" lon="2.5196652773128907"><ele>806.0</ele><time>2026-04-08T11:04:46.001Z</time></trkpt><trkpt lat="41.869041484038135" lon="2.519489283881216"><ele>804.75</ele><time>2026-04-08T11:04:47.001Z</time></trkpt><trkpt lat="41.8690549554862" lon="2.5193193849857756"><ele>803.5</ele><time>2026-04-08T11:04:48.001Z</time></trkpt><trkpt lat="41.869085001463624" lon="2.5191674823224157"><ele>802.25</ele><time>2026-04-08T11:04:49.001Z</time></trkpt><trkpt lat="41.869141790902844" lon="2.5190188846837134"><ele>801.0</ele><time>2026-04-08T11:04:50.001Z</time></trkpt><trkpt lat="41.86922693037723" lon="2.518874627741068"><ele>802.25</ele><time>2026-04-08T11:04:51Z</time></trkpt><trkpt lat="41.86931978699988" lon="2.518745643294478"><ele>803.5</ele><time>2026-04-08T11:04:52Z</time></trkpt><trkpt lat="41.86940571547163" lon="2.518641274542462"><ele>804.75</ele><time>2026-04-08T11:04:53Z</time></trkpt><trkpt lat="41.86950636449195" lon="2.5185577650498163"><ele>806.0</ele><time>2026-04-08T11:04:54Z</time></trkpt><trkpt lat="41.86962241508396" lon="2.5185024818617867"><ele>806.0</ele><time>2026-04-08T11:04:55Z</time></trkpt><trkpt lat="41.86974728070962" lon="2.518484263696821"><ele>806.0</ele><time>2026-04-08T11:04:56Z</time></trkpt><trkpt lat="41.86988542146658" lon="2.5185024287285493"><ele>806.0</ele><time>2026-04-08T11:04:57Z</time></trkpt><trkpt lat="41.87002577649879" lon="2.518535071920775"><ele>806.0</ele><time>2026-04-08T11:04:58Z</time></trkpt><trkpt lat="41.870184242853156" lon="2.518563319599178"><ele>807.25</ele><time>2026-04-08T11:04:59Z</time></trkpt><trkpt lat="41.87034114988967" lon="2.518589375274578"><ele>808.5</ele><time>2026-04-08T11:05:00Z</time></trkpt><trkpt lat="41.870485871551736" lon="2.518620749217515"><ele>809.75</ele><time>2026-04-08T11:05:01Z</time></trkpt><trkpt lat="41.87062039406763" lon="2.5186445920705696"><ele>811.0</ele><time>2026-04-08T11:05:02Z</time></trkpt><trkpt lat="41.87074249490596" lon="2.5186925804095615"><ele>811.0</ele><time>2026-04-08T11:05:03Z</time></trkpt><trkpt lat="41.87085008127113" lon="2.5187118988212056"><ele>811.0</ele><time>2026-04-08T11:05:04Z</time></trkpt><trkpt lat="41.870951420357606" lon="2.5187274382663736"><ele>811.0</ele><time>2026-04-08T11:05:05Z</time></trkpt><trkpt lat="41.87103162696393" lon="2.518709016855717"><ele>811.0</ele><time>2026-04-08T11:05:06Z</time></trkpt><trkpt lat="41.87113339690729" lon="2.5186723586551323"><ele>811.0</ele><time>2026-04-08T11:05:08Z</time></trkpt><trkpt lat="41.87120793816013" lon="2.5185565996880173"><ele>814.5</ele><time>2026-04-08T11:05:10Z</time></trkpt><trkpt lat="41.87120737305671" lon="2.5184296888472844"><ele>818.0</ele><time>2026-04-08T11:05:11Z</time></trkpt><trkpt lat="41.87117378491215" lon="2.518296617031597"><ele>821.5</ele><time>2026-04-08T11:05:12Z</time></trkpt><trkpt lat="41.87110198759133" lon="2.5181672372651933"><ele>825.0</ele><time>2026-04-08T11:05:13Z</time></trkpt><trkpt lat="41.87103842427225" lon="2.5180111919393076"><ele>823.0</ele><time>2026-04-08T11:05:14Z</time></trkpt><trkpt lat="41.870986968510636" lon="2.5178752967892235"><ele>821.0</ele><time>2026-04-08T11:05:15Z</time></trkpt><trkpt lat="41.87095071638612" lon="2.5177529929616664"><ele>819.0</ele><time>2026-04-08T11:05:16Z</time></trkpt><trkpt lat="41.870951821672385" lon="2.5176038970825445"><ele>817.0</ele><time>2026-04-08T11:05:17Z</time></trkpt><trkpt lat="41.87100513683046" lon="2.517432918300614"><ele>817.0</ele><time>2026-04-08T11:05:18Z</time></trkpt><trkpt lat="41.87105209570506" lon="2.517237045673516"><ele>817.0</ele><time>2026-04-08T11:05:19Z</time></trkpt><trkpt lat="41.871081963420636" lon="2.5170624468096525"><ele>817.0</ele><time>2026-04-08T11:05:20Z</time></trkpt><trkpt lat="41.87112618096029" lon="2.5169208364291955"><ele>817.0</ele><time>2026-04-08T11:05:21Z</time></trkpt><trkpt lat="41.8711804569412" lon="2.5167996224697573"><ele>817.0</ele><time>2026-04-08T11:05:22Z</time></trkpt><trkpt lat="41.87124584469907" lon="2.5166906315832684"><ele>817.0</ele><time>2026-04-08T11:05:23Z</time></trkpt><trkpt lat="41.87132344603268" lon="2.5166065220820433"><ele>817.0</ele><time>2026-04-08T11:05:24Z</time></trkpt><trkpt lat="41.871400766228035" lon="2.5165420048502853"><ele>817.0</ele><time>2026-04-08T11:05:25Z</time></trkpt><trkpt lat="41.871470646382136" lon="2.516475527016658"><ele>817.0</ele><time>2026-04-08T11:05:26Z</time></trkpt><trkpt lat="41.87152898356982" lon="2.5164075069374916"><ele>817.0</ele><time>2026-04-08T11:05:27Z</time></trkpt><trkpt lat="41.87158891761602" lon="2.5163310205944636"><ele>817.0</ele><time>2026-04-08T11:05:28Z</time></trkpt><trkpt lat="41.87165756518293" lon="2.5162459060445714"><ele>817.0</ele><time>2026-04-08T11:05:29Z</time></trkpt><trkpt lat="41.871737953985296" lon="2.5161352496587344"><ele>817.0</ele><time>2026-04-08T11:05:30Z</time></trkpt><trkpt lat="41.87182982567036" lon="2.5160081209464673"><ele>817.0</ele><time>2026-04-08T11:05:31Z</time></trkpt><trkpt lat="41.871923481078404" lon="2.5158755865379163"><ele>816.0</ele><time>2026-04-08T11:05:32Z</time></trkpt><trkpt lat="41.87202490536685" lon="2.5157384474542144"><ele>815.0</ele><time>2026-04-08T11:05:33Z</time></trkpt><trkpt lat="41.87212789142159" lon="2.5155995336859687"><ele>814.0</ele><time>2026-04-08T11:05:34Z</time></trkpt><trkpt lat="41.8722309643241" lon="2.515459563613995"><ele>813.0</ele><time>2026-04-08T11:05:35Z</time></trkpt><trkpt lat="41.872333377197435" lon="2.5153199156340484"><ele>813.0</ele><time>2026-04-08T11:05:36Z</time></trkpt><trkpt lat="41.87242634372017" lon="2.515188922288333"><ele>813.0</ele><time>2026-04-08T11:05:37Z</time></trkpt><trkpt lat="41.87251179622196" lon="2.5150693880306316"><ele>813.0</ele><time>2026-04-08T11:05:38Z</time></trkpt><trkpt lat="41.87258612018911" lon="2.5149630662921734"><ele>813.0</ele><time>2026-04-08T11:05:39Z</time></trkpt><trkpt lat="41.872653859784705" lon="2.5148695637326406"><ele>812.8333333333334</ele><time>2026-04-08T11:05:40Z</time></trkpt><trkpt lat="41.872715199467926" lon="2.514801707458553"><ele>812.6666666666667</ele><time>2026-04-08T11:05:41Z</time></trkpt><trkpt lat="41.872780837032415" lon="2.514764361356471"><ele>812.5</ele><time>2026-04-08T11:05:42Z</time></trkpt><trkpt lat="41.872866840954444" lon="2.514747738341912"><ele>812.3333333333334</ele><time>2026-04-08T11:05:43Z</time></trkpt><trkpt lat="41.87293636801711" lon="2.514710066310175"><ele>812.1666666666667</ele><time>2026-04-08T11:05:44Z</time></trkpt><trkpt lat="41.87299440474895" lon="2.514630785023998"><ele>812.0</ele><time>2026-04-08T11:05:45.001Z</time></trkpt><trkpt lat="41.873029223334" lon="2.5145264489606562"><ele>812.0</ele><time>2026-04-08T11:05:46.001Z</time></trkpt><trkpt lat="41.87307167438612" lon="2.514443353019945"><ele>812.0</ele><time>2026-04-08T11:05:47.001Z</time></trkpt><trkpt lat="41.87315309345011" lon="2.5143811238272864"><ele>812.0</ele><time>2026-04-08T11:05:48.001Z</time></trkpt><trkpt lat="41.87325545640714" lon="2.514326341790415"><ele>812.0</ele><time>2026-04-08T11:05:49.001Z</time></trkpt><trkpt lat="41.873361545465706" lon="2.51427695251051"><ele>812.0</ele><time>2026-04-08T11:05:50.001Z</time></trkpt><trkpt lat="41.87347496436415" lon="2.51421836248346"><ele>810.75</ele><time>2026-04-08T11:05:51.001Z</time></trkpt><trkpt lat="41.87359415998235" lon="2.5141577246974514"><ele>809.5</ele><time>2026-04-08T11:05:52.001Z</time></trkpt><trkpt lat="41.87372371217738" lon="2.514092545324935"><ele>808.25</ele><time>2026-04-08T11:05:53.001Z</time></trkpt><trkpt lat="41.87384655015616" lon="2.5140317855693275"><ele>807.0</ele><time>2026-04-08T11:05:54.001Z</time></trkpt><trkpt lat="41.873960159704204" lon="2.51397685467123"><ele>807.0</ele><time>2026-04-08T11:05:55.001Z</time></trkpt><trkpt lat="41.87406431284891" lon="2.5139212139985787"><ele>807.0</ele><time>2026-04-08T11:05:56.001Z</time></trkpt><trkpt lat="41.87416517320335" lon="2.5138697900296596"><ele>807.0</ele><time>2026-04-08T11:05:57.001Z</time></trkpt><trkpt lat="41.87425940917735" lon="2.5138199826233163"><ele>807.0</ele><time>2026-04-08T11:05:58.001Z</time></trkpt><trkpt lat="41.87435520065721" lon="2.5137752689028843"><ele>807.0</ele><time>2026-04-08T11:05:59.001Z</time></trkpt><trkpt lat="41.874439851441494" lon="2.513730975205146"><ele>807.0</ele><time>2026-04-08T11:06:00.001Z</time></trkpt><trkpt lat="41.87453501369013" lon="2.5136849605775513"><ele>807.0</ele><time>2026-04-08T11:06:01.001Z</time></trkpt><trkpt lat="41.874631263084254" lon="2.5136329381447178"><ele>807.0</ele><time>2026-04-08T11:06:02.001Z</time></trkpt><trkpt lat="41.8747237150726" lon="2.5135874154914313"><ele>807.0</ele><time>2026-04-08T11:06:03.001Z</time></trkpt><trkpt lat="41.874810592193434" lon="2.5135401015314205"><ele>807.0</ele><time>2026-04-08T11:06:04.001Z</time></trkpt><trkpt lat="41.87490569087774" lon="2.513492748874177"><ele>807.0</ele><time>2026-04-08T11:06:05.001Z</time></trkpt><trkpt lat="41.8750035768929" lon="2.5134437246075305"><ele>807.0</ele><time>2026-04-08T11:06:06.001Z</time></trkpt><trkpt lat="41.87509807964372" lon="2.513387647444027"><ele>807.0</ele><time>2026-04-08T11:06:07.001Z</time></trkpt><trkpt lat="41.875184887482966" lon="2.5133416209816426"><ele>807.0</ele><time>2026-04-08T11:06:08.001Z</time></trkpt><trkpt lat="41.875275340120595" lon="2.513296710165985"><ele>807.0</ele><time>2026-04-08T11:06:09.001Z</time></trkpt><trkpt lat="41.87535978057518" lon="2.513250619661366"><ele>806.6</ele><time>2026-04-08T11:06:10.001Z</time></trkpt><trkpt lat="41.875436128006235" lon="2.513202892202906"><ele>806.2</ele><time>2026-04-08T11:06:11.001Z</time></trkpt><trkpt lat="41.87550303547952" lon="2.513164769578266"><ele>805.8</ele><time>2026-04-08T11:06:12.001Z</time></trkpt><trkpt lat="41.87558709912253" lon="2.5131323037786655"><ele>805.4</ele><time>2026-04-08T11:06:13.001Z</time></trkpt><trkpt lat="41.87568752187619" lon="2.5130897075018455"><ele>805.0</ele><time>2026-04-08T11:06:14.001Z</time></trkpt><trkpt lat="41.875787934373534" lon="2.513039750374157"><ele>805.0</ele><time>2026-04-08T11:06:15.001Z</time></trkpt><trkpt lat="41.87588029654333" lon="2.512991590552663"><ele>805.0</ele><time>2026-04-08T11:06:16.001Z</time></trkpt><trkpt lat="41.87597852991902" lon="2.5129468198614786"><ele>805.0</ele><time>2026-04-08T11:06:17.001Z</time></trkpt><trkpt lat="41.8760797939216" lon="2.5129013900095645"><ele>805.0</ele><time>2026-04-08T11:06:18.001Z</time></trkpt><trkpt lat="41.87616713275671" lon="2.5128562977774225"><ele>805.0</ele><time>2026-04-08T11:06:19.001Z</time></trkpt><trkpt lat="41.87624900737266" lon="2.5128187150060532"><ele>805.1666666666666</ele><time>2026-04-08T11:06:20.001Z</time></trkpt><trkpt lat="41.876317858226216" lon="2.5127765247027867"><ele>805.3333333333333</ele><time>2026-04-08T11:06:21.001Z</time></trkpt><trkpt lat="41.87638166018291" lon="2.5127433940409314"><ele>805.5</ele><time>2026-04-08T11:06:22.001Z</time></trkpt><trkpt lat="41.87649314668283" lon="2.5126799186096354"><ele>805.6666666666667</ele><time>2026-04-08T11:06:24.001Z</time></trkpt><trkpt lat="41.876586603958266" lon="2.51263615445997"><ele>805.8333333333334</ele><time>2026-04-08T11:06:26.001Z</time></trkpt><trkpt lat="41.87666572075295" lon="2.5125957964011487"><ele>806.0</ele><time>2026-04-08T11:06:28.001Z</time></trkpt><trkpt lat="41.87676299454985" lon="2.5125439388131325"><ele>805.0</ele><time>2026-04-08T11:06:30.001Z</time></trkpt><trkpt lat="41.87685228368996" lon="2.512496378251361"><ele>804.0</ele><time>2026-04-08T11:06:32.001Z</time></trkpt><trkpt lat="41.876944955168575" lon="2.512444227605234"><ele>803.0</ele><time>2026-04-08T11:06:34.001Z</time></trkpt><trkpt lat="41.87705558577388" lon="2.5123909073620836"><ele>802.0</ele><time>2026-04-08T11:06:36.001Z</time></trkpt><trkpt lat="41.877114387951714" lon="2.5123579450473534"><ele>801.0</ele><time>2026-04-08T11:06:37.001Z</time></trkpt><trkpt lat="41.877182443115636" lon="2.5123255258925936"><ele>801.0</ele><time>2026-04-08T11:06:38.001Z</time></trkpt><trkpt lat="41.87725160727849" lon="2.5122889207927184"><ele>801.0</ele><time>2026-04-08T11:06:39.001Z</time></trkpt><trkpt lat="41.87731536908105" lon="2.512255586829457"><ele>801.0</ele><time>2026-04-08T11:06:40.001Z</time></trkpt><trkpt lat="41.877430884919555" lon="2.5121961045953554"><ele>801.0</ele><time>2026-04-08T11:06:42.001Z</time></trkpt><trkpt lat="41.87755037600889" lon="2.512138531685026"><ele>801.0</ele><time>2026-04-08T11:06:44.001Z</time></trkpt><trkpt lat="41.87761476123098" lon="2.5121054697738705"><ele>801.0</ele><time>2026-04-08T11:06:45.001Z</time></trkpt><trkpt lat="41.87772126808307" lon="2.5120545149225637"><ele>801.0</ele><time>2026-04-08T11:06:47.001Z</time></trkpt><trkpt lat="41.877825347039796" lon="2.511995651897384"><ele>801.0</ele><time>2026-04-08T11:06:49.001Z</time></trkpt><trkpt lat="41.87792141599695" lon="2.5119431923681033"><ele>801.0</ele><time>2026-04-08T11:06:51.001Z</time></trkpt><trkpt lat="41.87798048956046" lon="2.51189820524339"><ele>801.0</ele><time>2026-04-08T11:06:54.001Z</time></trkpt><trkpt lat="41.87806362100455" lon="2.5118635739081645"><ele>801.0</ele><time>2026-04-08T11:06:57Z</time></trkpt><trkpt lat="41.87816132741775" lon="2.511845210183933"><ele>801.0</ele><time>2026-04-08T11:06:59Z</time></trkpt><trkpt lat="41.878269782023956" lon="2.5119018851663455"><ele>801.0</ele><time>2026-04-08T11:07:01Z</time></trkpt><trkpt lat="41.878358995069526" lon="2.5118479328104932"><ele>801.0</ele><time>2026-04-08T11:07:03Z</time></trkpt><trkpt lat="41.87836899644313" lon="2.5117094861012"><ele>801.0</ele><time>2026-04-08T11:07:05Z</time></trkpt><trkpt lat="41.878425878631894" lon="2.511644606965093"><ele>800.1666666666666</ele><time>2026-04-08T11:07:07Z</time></trkpt><trkpt lat="41.878472798221615" lon="2.5115451839207283"><ele>799.3333333333333</ele><time>2026-04-08T11:07:09Z</time></trkpt><trkpt lat="41.8785357376789" lon="2.511474602391001"><ele>798.5</ele><time>2026-04-08T11:07:11Z</time></trkpt><trkpt lat="41.87857737769939" lon="2.5114025857052704"><ele>797.6666666666666</ele><time>2026-04-08T11:07:13Z</time></trkpt><trkpt lat="41.878643595103775" lon="2.5113369684722504"><ele>796.8333333333333</ele><time>2026-04-08T11:07:15Z</time></trkpt><trkpt lat="41.878683298748356" lon="2.5112648994474958"><ele>796.0</ele><time>2026-04-08T11:07:17Z</time></trkpt><trkpt lat="41.87873231892516" lon="2.5111966711689466"><ele>796.0</ele><time>2026-04-08T11:07:19Z</time></trkpt><trkpt lat="41.87879620443655" lon="2.5111134466125447"><ele>796.0</ele><time>2026-04-08T11:07:22Z</time></trkpt><trkpt lat="41.87886028865139" lon="2.5110418885860906"><ele>796.0</ele><time>2026-04-08T11:07:25Z</time></trkpt><trkpt lat="41.87894317371447" lon="2.5109462714032564"><ele>796.0</ele><time>2026-04-08T11:07:33Z</time></trkpt><trkpt lat="41.879042131195284" lon="2.5108524298377053"><ele>796.0</ele><time>2026-04-08T11:07:35Z</time></trkpt><trkpt lat="41.879162401251406" lon="2.5108123717778823"><ele>795.9999999999999</ele><time>2026-04-08T11:07:37Z</time></trkpt><trkpt lat="41.879232112772996" lon="2.5107982016282286"><ele>796.0</ele><time>2026-04-08T11:07:38Z</time></trkpt><trkpt lat="41.87930889389306" lon="2.5107718501673273"><ele>796.0</ele><time>2026-04-08T11:07:39Z</time></trkpt><trkpt lat="41.87938259308073" lon="2.510745982928527"><ele>796.0</ele><time>2026-04-08T11:07:40Z</time></trkpt><trkpt lat="41.87946433242376" lon="2.510717269949424"><ele>795.9999999999999</ele><time>2026-04-08T11:07:41Z</time></trkpt><trkpt lat="41.87953649675983" lon="2.5106929050948725"><ele>796.0</ele><time>2026-04-08T11:07:42Z</time></trkpt><trkpt lat="41.87960933022612" lon="2.5106740581949953"><ele>795.6666666666666</ele><time>2026-04-08T11:07:43Z</time></trkpt><trkpt lat="41.879680647407284" lon="2.5106538374629355"><ele>795.3333333333333</ele><time>2026-04-08T11:07:44Z</time></trkpt><trkpt lat="41.87975690154723" lon="2.510636738981462"><ele>795.0</ele><time>2026-04-08T11:07:45Z</time></trkpt><trkpt lat="41.87983767712737" lon="2.510623863116206"><ele>794.6666666666667</ele><time>2026-04-08T11:07:46Z</time></trkpt><trkpt lat="41.879913084773804" lon="2.510604527500666"><ele>794.3333333333334</ele><time>2026-04-08T11:07:47Z</time></trkpt><trkpt lat="41.879984210120185" lon="2.510593355946332"><ele>794.0</ele><time>2026-04-08T11:07:48Z</time></trkpt><trkpt lat="41.88005259517925" lon="2.510573061784025"><ele>793.5000000000001</ele><time>2026-04-08T11:07:49Z</time></trkpt><trkpt lat="41.880126539372654" lon="2.51055794918008"><ele>793.0</ele><time>2026-04-08T11:07:50Z</time></trkpt><trkpt lat="41.880205697991705" lon="2.5105415928604273"><ele>792.5</ele><time>2026-04-08T11:07:51Z</time></trkpt><trkpt lat="41.880285256953755" lon="2.510514181205522"><ele>792.0</ele><time>2026-04-08T11:07:52Z</time></trkpt><trkpt lat="41.88036078435475" lon="2.510492129736576"><ele>791.5000000000001</ele><time>2026-04-08T11:07:53Z</time></trkpt><trkpt lat="41.880438886678576" lon="2.510472768472421"><ele>791.0</ele><time>2026-04-08T11:07:54Z</time></trkpt><trkpt lat="41.880511788782535" lon="2.5104535195462296"><ele>791.0</ele><time>2026-04-08T11:07:55Z</time></trkpt><trkpt lat="41.88057751343902" lon="2.510435058404903"><ele>791.0</ele><time>2026-04-08T11:07:56Z</time></trkpt><trkpt lat="41.880652156907686" lon="2.5104211746412646"><ele>791.0</ele><time>2026-04-08T11:07:57Z</time></trkpt><trkpt lat="41.88072056756105" lon="2.5104044039627644"><ele>791.0</ele><time>2026-04-08T11:07:58Z</time></trkpt><trkpt lat="41.88079030719064" lon="2.5103855314337453"><ele>791.0</ele><time>2026-04-08T11:07:59Z</time></trkpt><trkpt lat="41.88085966896814" lon="2.5103843072027514"><ele>791.0</ele><time>2026-04-08T11:08:00Z</time></trkpt><trkpt lat="41.880937292408504" lon="2.5103679079910073"><ele>791.0</ele><time>2026-04-08T11:08:01.001Z</time></trkpt><trkpt lat="41.881017814803506" lon="2.5103445398418347"><ele>791.0</ele><time>2026-04-08T11:08:02.001Z</time></trkpt><trkpt lat="41.881104457969556" lon="2.5103239210801247"><ele>791.0</ele><time>2026-04-08T11:08:03.001Z</time></trkpt><trkpt lat="41.88120105918534" lon="2.5102999659587764"><ele>791.0</ele><time>2026-04-08T11:08:04.001Z</time></trkpt><trkpt lat="41.88129772424796" lon="2.510276792630233"><ele>791.0</ele><time>2026-04-08T11:08:05.001Z</time></trkpt><trkpt lat="41.88139290288872" lon="2.510256585902296"><ele>791.0</ele><time>2026-04-08T11:08:06.001Z</time></trkpt><trkpt lat="41.881487008828095" lon="2.5102295381978386"><ele>791.0</ele><time>2026-04-08T11:08:07.001Z</time></trkpt><trkpt lat="41.881585136226136" lon="2.5101929965775454"><ele>791.0</ele><time>2026-04-08T11:08:08.001Z</time></trkpt><trkpt lat="41.881682064182066" lon="2.510153701210751"><ele>791.0</ele><time>2026-04-08T11:08:09.001Z</time></trkpt><trkpt lat="41.881782530010796" lon="2.5101383214745296"><ele>791.0</ele><time>2026-04-08T11:08:10.001Z</time></trkpt><trkpt lat="41.88187467011436" lon="2.5101059310262546"><ele>791.0</ele><time>2026-04-08T11:08:11.001Z</time></trkpt><trkpt lat="41.88196761027272" lon="2.5100709678002495"><ele>789.8</ele><time>2026-04-08T11:08:12.001Z</time></trkpt><trkpt lat="41.88205752564249" lon="2.5100310165054"><ele>788.5999999999999</ele><time>2026-04-08T11:08:13.001Z</time></trkpt><trkpt lat="41.88214537256456" lon="2.5099971909868124"><ele>787.4</ele><time>2026-04-08T11:08:14.001Z</time></trkpt><trkpt lat="41.8822297538891" lon="2.5099633574393243"><ele>786.2</ele><time>2026-04-08T11:08:15.001Z</time></trkpt><trkpt lat="41.88231970419473" lon="2.50992786777095"><ele>785.0</ele><time>2026-04-08T11:08:16.001Z</time></trkpt><trkpt lat="41.882411721911986" lon="2.5098897279285803"><ele>785.0</ele><time>2026-04-08T11:08:17.001Z</time></trkpt><trkpt lat="41.882506727865554" lon="2.5098534937164807"><ele>785.0</ele><time>2026-04-08T11:08:18.001Z</time></trkpt><trkpt lat="41.88260192428638" lon="2.5098151574740855"><ele>785.0</ele><time>2026-04-08T11:08:19.001Z</time></trkpt><trkpt lat="41.88269837026008" lon="2.5097775210631745"><ele>785.0</ele><time>2026-04-08T11:08:20.001Z</time></trkpt><trkpt lat="41.882789722555046" lon="2.5097425805960443"><ele>785.0</ele><time>2026-04-08T11:08:21.001Z</time></trkpt><trkpt lat="41.88288031816149" lon="2.5097096870769886"><ele>785.0</ele><time>2026-04-08T11:08:22.001Z</time></trkpt><trkpt lat="41.88297127156486" lon="2.509673298106945"><ele>785.0</ele><time>2026-04-08T11:08:23.001Z</time></trkpt><trkpt lat="41.88305659102229" lon="2.509630824937606"><ele>785.0</ele><time>2026-04-08T11:08:24.001Z</time></trkpt><trkpt lat="41.883156838761394" lon="2.5095948792061287"><ele>785.0</ele><time>2026-04-08T11:08:25.001Z</time></trkpt><trkpt lat="41.88327104696088" lon="2.5095490430973824"><ele>785.0</ele><time>2026-04-08T11:08:26.001Z</time></trkpt><trkpt lat="41.8833849427981" lon="2.509506791299585"><ele>785.5</ele><time>2026-04-08T11:08:27.001Z</time></trkpt><trkpt lat="41.883496779779485" lon="2.5094640263463543"><ele>786.0</ele><time>2026-04-08T11:08:28.001Z</time></trkpt><trkpt lat="41.88361033625129" lon="2.509415966504528"><ele>786.5</ele><time>2026-04-08T11:08:29.001Z</time></trkpt><trkpt lat="41.88372684940828" lon="2.5093662773217393"><ele>787.0</ele><time>2026-04-08T11:08:30.001Z</time></trkpt><trkpt lat="41.88384469739712" lon="2.5093191145592852"><ele>787.0</ele><time>2026-04-08T11:08:31.001Z</time></trkpt><trkpt lat="41.883958255252274" lon="2.5092604225864923"><ele>787.0</ele><time>2026-04-08T11:08:32.001Z</time></trkpt><trkpt lat="41.884087924153455" lon="2.5092273123353483"><ele>787.0</ele><time>2026-04-08T11:08:33.001Z</time></trkpt><trkpt lat="41.88421069426562" lon="2.509170023814974"><ele>787.0</ele><time>2026-04-08T11:08:34.001Z</time></trkpt><trkpt lat="41.88433166827208" lon="2.509120142913795"><ele>788.25</ele><time>2026-04-08T11:08:35.001Z</time></trkpt><trkpt lat="41.88445717850274" lon="2.5090687218291468"><ele>789.5</ele><time>2026-04-08T11:08:36.001Z</time></trkpt><trkpt lat="41.8845887542096" lon="2.5090179616031247"><ele>790.75</ele><time>2026-04-08T11:08:37.001Z</time></trkpt><trkpt lat="41.88471238727816" lon="2.5089728860270553"><ele>792.0</ele><time>2026-04-08T11:08:38.001Z</time></trkpt><trkpt lat="41.88484753439212" lon="2.508923237655074"><ele>792.0</ele><time>2026-04-08T11:08:39.001Z</time></trkpt><trkpt lat="41.88497193239935" lon="2.5088649067873225"><ele>792.0</ele><time>2026-04-08T11:08:40.001Z</time></trkpt><trkpt lat="41.88510431625843" lon="2.5088070130634095"><ele>792.0</ele><time>2026-04-08T11:08:41.001Z</time></trkpt><trkpt lat="41.88523921637144" lon="2.5087524857756542"><ele>792.0</ele><time>2026-04-08T11:08:42.001Z</time></trkpt><trkpt lat="41.88537433389282" lon="2.5086956850839695"><ele>790.25</ele><time>2026-04-08T11:08:43.001Z</time></trkpt><trkpt lat="41.88551361552557" lon="2.5086429438657607"><ele>788.5</ele><time>2026-04-08T11:08:44.001Z</time></trkpt><trkpt lat="41.8856419695819" lon="2.508588304158611"><ele>786.75</ele><time>2026-04-08T11:08:45.001Z</time></trkpt><trkpt lat="41.885780030079275" lon="2.5085308379584834"><ele>785.0</ele><time>2026-04-08T11:08:46.001Z</time></trkpt><trkpt lat="41.88592318550441" lon="2.5084730045172003"><ele>784.75</ele><time>2026-04-08T11:08:47.001Z</time></trkpt><trkpt lat="41.886067703568685" lon="2.5084162954305738"><ele>784.5</ele><time>2026-04-08T11:08:48.001Z</time></trkpt><trkpt lat="41.88620276392804" lon="2.508364058637094"><ele>784.25</ele><time>2026-04-08T11:08:49.001Z</time></trkpt><trkpt lat="41.88634551088724" lon="2.5083024380895096"><ele>784.0</ele><time>2026-04-08T11:08:50.001Z</time></trkpt><trkpt lat="41.88648914708028" lon="2.5082441672166764"><ele>784.0</ele><time>2026-04-08T11:08:51.001Z</time></trkpt><trkpt lat="41.88663946657394" lon="2.5081761750932157"><ele>784.0</ele><time>2026-04-08T11:08:52.001Z</time></trkpt><trkpt lat="41.88679178362865" lon="2.5081035878674505"><ele>784.0</ele><time>2026-04-08T11:08:53.001Z</time></trkpt><trkpt lat="41.88695075706209" lon="2.5080639623242345"><ele>785.6666666666666</ele><time>2026-04-08T11:08:54.001Z</time></trkpt><trkpt lat="41.88709011763054" lon="2.5080074035595064"><ele>787.3333333333333</ele><time>2026-04-08T11:08:55.001Z</time></trkpt><trkpt lat="41.887230348782445" lon="2.507944978873772"><ele>789.0</ele><time>2026-04-08T11:08:56.001Z</time></trkpt><trkpt lat="41.88740729809032" lon="2.507818474867633"><ele>783.5</ele><time>2026-04-08T11:08:57.001Z</time></trkpt><trkpt lat="41.88757038691112" lon="2.507639282806971"><ele>778.0</ele><time>2026-04-08T11:08:58.001Z</time></trkpt><trkpt lat="41.88776453554419" lon="2.50742807631129"><ele>778.0</ele><time>2026-04-08T11:08:59.001Z</time></trkpt><trkpt lat="41.88796850742557" lon="2.507210068045733"><ele>778.0</ele><time>2026-04-08T11:09:00.001Z</time></trkpt><trkpt lat="41.88819105574509" lon="2.506968794202879"><ele>780.0</ele><time>2026-04-08T11:09:01.001Z</time></trkpt><trkpt lat="41.888427479772304" lon="2.506716846945217"><ele>782.0</ele><time>2026-04-08T11:09:02.001Z</time></trkpt><trkpt lat="41.888643577104105" lon="2.5064927993735826"><ele>782.0</ele><time>2026-04-08T11:09:02.999Z</time></trkpt><trkpt lat="41.88884849666465" lon="2.5062803410093424"><ele>782.0</ele><time>2026-04-08T11:09:03.999Z</time></trkpt><trkpt lat="41.88904224779016" lon="2.506066483967026"><ele>784.0</ele><time>2026-04-08T11:09:04.999Z</time></trkpt><trkpt lat="41.88922525022707" lon="2.505840691317784"><ele>786.0</ele><time>2026-04-08T11:09:05.999Z</time></trkpt><trkpt lat="41.88940663728869" lon="2.5056491898223427"><ele>786.0</ele><time>2026-04-08T11:09:06.999Z</time></trkpt><trkpt lat="41.889575632400245" lon="2.5054650608402755"><ele>786.0</ele><time>2026-04-08T11:09:07.999Z</time></trkpt><trkpt lat="41.88973636108327" lon="2.505294708099266"><ele>786.0</ele><time>2026-04-08T11:09:08.999Z</time></trkpt><trkpt lat="41.889879803230095" lon="2.5051411000915573"><ele>782.6666666666667</ele><time>2026-04-08T11:09:09.999Z</time></trkpt><trkpt lat="41.89001244959908" lon="2.5050255105898973"><ele>779.3333333333334</ele><time>2026-04-08T11:09:10.999Z</time></trkpt><trkpt lat="41.890125231645335" lon="2.5048812312641675"><ele>776.0</ele><time>2026-04-08T11:09:11.999Z</time></trkpt><trkpt lat="41.890192589161934" lon="2.504689515784127"><ele>778.6666666666667</ele><time>2026-04-08T11:09:12.999Z</time></trkpt><trkpt lat="41.890267792561104" lon="2.5044816898020623"><ele>781.3333333333333</ele><time>2026-04-08T11:09:13.999Z</time></trkpt><trkpt lat="41.890360594527095" lon="2.5042566335157175"><ele>784.0</ele><time>2026-04-08T11:09:14.999Z</time></trkpt><trkpt lat="41.89046508312921" lon="2.504066927675943"><ele>784.0</ele><time>2026-04-08T11:09:15.999Z</time></trkpt><trkpt lat="41.890560141469145" lon="2.503907996472693"><ele>784.0</ele><time>2026-04-08T11:09:16.999Z</time></trkpt><trkpt lat="41.890639047538315" lon="2.5037688939262104"><ele>784.0</ele><time>2026-04-08T11:09:17.999Z</time></trkpt><trkpt lat="41.890698796869486" lon="2.503665470670512"><ele>784.0</ele><time>2026-04-08T11:09:18.999Z</time></trkpt><trkpt lat="41.89076570090646" lon="2.5036208260632082"><ele>781.8000000000001</ele><time>2026-04-08T11:09:19.999Z</time></trkpt><trkpt lat="41.890844204262116" lon="2.503625335309239"><ele>779.6</ele><time>2026-04-08T11:09:20.999Z</time></trkpt><trkpt lat="41.89092376936922" lon="2.503686222379375"><ele>777.4</ele><time>2026-04-08T11:09:21.999Z</time></trkpt><trkpt lat="41.891013514676246" lon="2.503767517233126"><ele>775.2</ele><time>2026-04-08T11:09:22.999Z</time></trkpt><trkpt lat="41.89112197389602" lon="2.5038586998852344"><ele>773.0</ele><time>2026-04-08T11:09:23.999Z</time></trkpt><trkpt lat="41.89124408705261" lon="2.503980242276942"><ele>773.0</ele><time>2026-04-08T11:09:24.999Z</time></trkpt><trkpt lat="41.89135677175709" lon="2.504088456298221"><ele>773.0</ele><time>2026-04-08T11:09:25.999Z</time></trkpt><trkpt lat="41.89143949506981" lon="2.504215834917451"><ele>773.0</ele><time>2026-04-08T11:09:27Z</time></trkpt><trkpt lat="41.89149944704282" lon="2.5043718453446453"><ele>773.0</ele><time>2026-04-08T11:09:28Z</time></trkpt><trkpt lat="41.891543857516965" lon="2.5045459056930737"><ele>772.5</ele><time>2026-04-08T11:09:29Z</time></trkpt><trkpt lat="41.89159908091795" lon="2.504699437019026"><ele>772.0</ele><time>2026-04-08T11:09:30Z</time></trkpt><trkpt lat="41.891677511863655" lon="2.504822550038042"><ele>771.5</ele><time>2026-04-08T11:09:31Z</time></trkpt><trkpt lat="41.891808861713464" lon="2.504952221775638"><ele>771.0</ele><time>2026-04-08T11:09:32Z</time></trkpt><trkpt lat="41.891955228169884" lon="2.5050822531920534"><ele>771.0</ele><time>2026-04-08T11:09:33Z</time></trkpt><trkpt lat="41.89209399743614" lon="2.5052056830779073"><ele>771.0</ele><time>2026-04-08T11:09:34Z</time></trkpt><trkpt lat="41.8922195185706" lon="2.5053227205903545"><ele>771.0</ele><time>2026-04-08T11:09:35Z</time></trkpt><trkpt lat="41.892337823268036" lon="2.5054211740542707"><ele>773.0</ele><time>2026-04-08T11:09:36Z</time></trkpt><trkpt lat="41.89245548849752" lon="2.5054912404498273"><ele>775.0</ele><time>2026-04-08T11:09:37Z</time></trkpt><trkpt lat="41.89256145891065" lon="2.5055021659997023"><ele>777.0</ele><time>2026-04-08T11:09:38Z</time></trkpt><trkpt lat="41.89267783762074" lon="2.505477919514847"><ele>779.0</ele><time>2026-04-08T11:09:39Z</time></trkpt><trkpt lat="41.892790242894385" lon="2.505396229213683"><ele>779.0</ele><time>2026-04-08T11:09:40Z</time></trkpt><trkpt lat="41.89286371300419" lon="2.5052105414389496"><ele>779.0</ele><time>2026-04-08T11:09:41Z</time></trkpt><trkpt lat="41.89296606973498" lon="2.5050640778694366"><ele>779.0</ele><time>2026-04-08T11:09:42Z</time></trkpt><trkpt lat="41.89309521360914" lon="2.504947093099319"><ele>779.0</ele><time>2026-04-08T11:09:43Z</time></trkpt><trkpt lat="41.89323547767088" lon="2.504857127835896"><ele>779.0</ele><time>2026-04-08T11:09:44Z</time></trkpt><trkpt lat="41.893388777852444" lon="2.504775474112976"><ele>779.0</ele><time>2026-04-08T11:09:45Z</time></trkpt><trkpt lat="41.89349655291234" lon="2.504647289894493"><ele>777.8000000000001</ele><time>2026-04-08T11:09:46Z</time></trkpt><trkpt lat="41.893585698859866" lon="2.504570994609227"><ele>776.6</ele><time>2026-04-08T11:09:47Z</time></trkpt><trkpt lat="41.893695081307975" lon="2.5045238580562703"><ele>775.4</ele><time>2026-04-08T11:09:48Z</time></trkpt><trkpt lat="41.893808397814865" lon="2.5045102475142613"><ele>774.2</ele><time>2026-04-08T11:09:49Z</time></trkpt><trkpt lat="41.8939143642673" lon="2.5044653868144238"><ele>773.0</ele><time>2026-04-08T11:09:50Z</time></trkpt><trkpt lat="41.893990802531896" lon="2.5043777406015284"><ele>773.0</ele><time>2026-04-08T11:09:51Z</time></trkpt><trkpt lat="41.89403681381327" lon="2.5042286643546507"><ele>773.0</ele><time>2026-04-08T11:09:52Z</time></trkpt><trkpt lat="41.894084089401844" lon="2.504097964526294"><ele>773.0</ele><time>2026-04-08T11:09:53Z</time></trkpt><trkpt lat="41.8941319960545" lon="2.5040088999289725"><ele>773.0</ele><time>2026-04-08T11:09:54Z</time></trkpt><trkpt lat="41.8941969470478" lon="2.503962311609998"><ele>773.0</ele><time>2026-04-08T11:09:55Z</time></trkpt><trkpt lat="41.894294036433" lon="2.503933848535015"><ele>775.3333333333334</ele><time>2026-04-08T11:09:56Z</time></trkpt><trkpt lat="41.89443103429351" lon="2.5039141838056516"><ele>777.6666666666667</ele><time>2026-04-08T11:09:57Z</time></trkpt><trkpt lat="41.89459464947652" lon="2.503890557702178"><ele>780.0</ele><time>2026-04-08T11:09:58Z</time></trkpt><trkpt lat="41.894763307066334" lon="2.5038662306387804"><ele>780.0</ele><time>2026-04-08T11:09:59Z</time></trkpt><trkpt lat="41.894921286450845" lon="2.503843443788378"><ele>780.0</ele><time>2026-04-08T11:10:00Z</time></trkpt><trkpt lat="41.89507711860519" lon="2.5038183561121827"><ele>780.0</ele><time>2026-04-08T11:10:01Z</time></trkpt><trkpt lat="41.89522407680519" lon="2.5037806745253492"><ele>778.3333333333333</ele><time>2026-04-08T11:10:02Z</time></trkpt><trkpt lat="41.89537371060723" lon="2.5036985122297204"><ele>776.6666666666666</ele><time>2026-04-08T11:10:03Z</time></trkpt><trkpt lat="41.89550207308873" lon="2.5035825830941607"><ele>775.0</ele><time>2026-04-08T11:10:04Z</time></trkpt><trkpt lat="41.89562476268699" lon="2.503433255004479"><ele>775.0</ele><time>2026-04-08T11:10:05Z</time></trkpt><trkpt lat="41.89573223629041" lon="2.5032694337328745"><ele>775.0</ele><time>2026-04-08T11:10:06Z</time></trkpt><trkpt lat="41.895818040239554" lon="2.50308128096283"><ele>775.0</ele><time>2026-04-08T11:10:07Z</time></trkpt><trkpt lat="41.89587068483117" lon="2.5028582128082317"><ele>772.8</ele><time>2026-04-08T11:10:08Z</time></trkpt><trkpt lat="41.895908100532594" lon="2.5026747440938673"><ele>770.6</ele><time>2026-04-08T11:10:09Z</time></trkpt><trkpt lat="41.89594338204738" lon="2.5025155226264286"><ele>768.4000000000001</ele><time>2026-04-08T11:10:10.001Z</time></trkpt><trkpt lat="41.89597760709296" lon="2.502401857788625"><ele>766.2</ele><time>2026-04-08T11:10:11.001Z</time></trkpt><trkpt lat="41.89601946391099" lon="2.502336835394621"><ele>764.0</ele><time>2026-04-08T11:10:12.001Z</time></trkpt><trkpt lat="41.89613046702113" lon="2.5023050436737746"><ele>764.0</ele><time>2026-04-08T11:10:14.001Z</time></trkpt><trkpt lat="41.89620919176118" lon="2.502342187418346"><ele>764.0</ele><time>2026-04-08T11:10:15.001Z</time></trkpt><trkpt lat="41.89629293192158" lon="2.5024469949514923"><ele>764.0</ele><time>2026-04-08T11:10:16.001Z</time></trkpt><trkpt lat="41.8963737911886" lon="2.502580029262029"><ele>764.0</ele><time>2026-04-08T11:10:17.001Z</time></trkpt><trkpt lat="41.89646400692394" lon="2.5027324805897497"><ele>764.0</ele><time>2026-04-08T11:10:18.001Z</time></trkpt><trkpt lat="41.89653995101365" lon="2.502875615577869"><ele>764.0</ele><time>2026-04-08T11:10:19.001Z</time></trkpt><trkpt lat="41.8966132768731" lon="2.5029915425481373"><ele>764.0</ele><time>2026-04-08T11:10:20.001Z</time></trkpt><trkpt lat="41.89669301896422" lon="2.5030783734171207"><ele>764.0</ele><time>2026-04-08T11:10:21.001Z</time></trkpt><trkpt lat="41.896779434216704" lon="2.503132180802167"><ele>764.0</ele><time>2026-04-08T11:10:22.001Z</time></trkpt><trkpt lat="41.89689170526166" lon="2.503158790789388"><ele>763.0</ele><time>2026-04-08T11:10:23.001Z</time></trkpt><trkpt lat="41.89701598643601" lon="2.5031182322440277"><ele>762.0</ele><time>2026-04-08T11:10:24.001Z</time></trkpt><trkpt lat="41.89714592279077" lon="2.5030498963466195"><ele>761.0</ele><time>2026-04-08T11:10:25.001Z</time></trkpt><trkpt lat="41.8972332864334" lon="2.502980555096592"><ele>760.0</ele><time>2026-04-08T11:10:26.001Z</time></trkpt><trkpt lat="41.89729632693655" lon="2.5029036086998016"><ele>760.0</ele><time>2026-04-08T11:10:27.001Z</time></trkpt><trkpt lat="41.897320037505914" lon="2.5027632610456605"><ele>760.0</ele><time>2026-04-08T11:10:28.001Z</time></trkpt><trkpt lat="41.89733031914212" lon="2.502629414759095"><ele>760.0</ele><time>2026-04-08T11:10:29.001Z</time></trkpt><trkpt lat="41.89736262582072" lon="2.5025437923325624"><ele>760.0</ele><time>2026-04-08T11:10:30.001Z</time></trkpt><trkpt lat="41.897420440511425" lon="2.50249741011021"><ele>760.0</ele><time>2026-04-08T11:10:31.001Z</time></trkpt><trkpt lat="41.89751139214438" lon="2.502487435557545"><ele>760.0</ele><time>2026-04-08T11:10:32.001Z</time></trkpt><trkpt lat="41.897620515800924" lon="2.502490644315921"><ele>763.2</ele><time>2026-04-08T11:10:33.001Z</time></trkpt><trkpt lat="41.8977274494209" lon="2.5025211865060815"><ele>766.4</ele><time>2026-04-08T11:10:34.001Z</time></trkpt><trkpt lat="41.89781103628332" lon="2.5025392358103837"><ele>769.5999999999999</ele><time>2026-04-08T11:10:35.001Z</time></trkpt><trkpt lat="41.89791637248226" lon="2.5024970938096565"><ele>772.8</ele><time>2026-04-08T11:10:36.001Z</time></trkpt><trkpt lat="41.89801824689359" lon="2.5023684239418804"><ele>776.0</ele><time>2026-04-08T11:10:37.001Z</time></trkpt><trkpt lat="41.898122303101765" lon="2.502215937771469"><ele>775.25</ele><time>2026-04-08T11:10:38.001Z</time></trkpt><trkpt lat="41.89822850883308" lon="2.5020591954455007"><ele>774.5</ele><time>2026-04-08T11:10:39.001Z</time></trkpt><trkpt lat="41.898321831099246" lon="2.501921466813008"><ele>773.75</ele><time>2026-04-08T11:10:40.001Z</time></trkpt><trkpt lat="41.89841132916345" lon="2.501808582674605"><ele>773.0</ele><time>2026-04-08T11:10:41.001Z</time></trkpt><trkpt lat="41.898508562091855" lon="2.501707410311822"><ele>773.0</ele><time>2026-04-08T11:10:42.001Z</time></trkpt><trkpt lat="41.89864238385374" lon="2.5016833009960884"><ele>773.0</ele><time>2026-04-08T11:10:43.001Z</time></trkpt><trkpt lat="41.89878409108081" lon="2.501632953246607"><ele>773.0</ele><time>2026-04-08T11:10:44.001Z</time></trkpt><trkpt lat="41.89892401543615" lon="2.501510951008732"><ele>773.0</ele><time>2026-04-08T11:10:45.001Z</time></trkpt><trkpt lat="41.899079213623324" lon="2.501412328226985"><ele>773.0</ele><time>2026-04-08T11:10:46.001Z</time></trkpt><trkpt lat="41.89921256570303" lon="2.5012820356267107"><ele>773.0</ele><time>2026-04-08T11:10:47.001Z</time></trkpt><trkpt lat="41.899333417140454" lon="2.501155626218311"><ele>773.0</ele><time>2026-04-08T11:10:48.001Z</time></trkpt><trkpt lat="41.89944062610693" lon="2.5010373295125805"><ele>773.0</ele><time>2026-04-08T11:10:49.001Z</time></trkpt><trkpt lat="41.899528361958915" lon="2.500912866644074"><ele>773.0</ele><time>2026-04-08T11:10:50.001Z</time></trkpt><trkpt lat="41.899568825822385" lon="2.500748672404295"><ele>773.0</ele><time>2026-04-08T11:10:51.001Z</time></trkpt><trkpt lat="41.899602824834176" lon="2.5005671858816845"><ele>773.0</ele><time>2026-04-08T11:10:52.001Z</time></trkpt><trkpt lat="41.899654546758875" lon="2.5003690134135974"><ele>769.0</ele><time>2026-04-08T11:10:53.001Z</time></trkpt><trkpt lat="41.899700308481584" lon="2.50013790964574"><ele>765.0</ele><time>2026-04-08T11:10:54.001Z</time></trkpt><trkpt lat="41.899747871448675" lon="2.4999003941309197"><ele>761.0</ele><time>2026-04-08T11:10:55.001Z</time></trkpt><trkpt lat="41.899791481102284" lon="2.499682620250223"><ele>758.6666666666666</ele><time>2026-04-08T11:10:56.001Z</time></trkpt><trkpt lat="41.89983439084361" lon="2.499468341608786"><ele>756.3333333333334</ele><time>2026-04-08T11:10:57.001Z</time></trkpt><trkpt lat="41.89988135093798" lon="2.4992509201154323"><ele>754.0</ele><time>2026-04-08T11:10:58.001Z</time></trkpt><trkpt lat="41.899951095625575" lon="2.4990357253583197"><ele>754.0</ele><time>2026-04-08T11:10:59.001Z</time></trkpt><trkpt lat="41.90002050982039" lon="2.49881636735492"><ele>754.0</ele><time>2026-04-08T11:11:00.001Z</time></trkpt><trkpt lat="41.900097319238654" lon="2.498629322701201"><ele>754.0</ele><time>2026-04-08T11:11:01.001Z</time></trkpt><trkpt lat="41.900164008978514" lon="2.4984673624432254"><ele>754.75</ele><time>2026-04-08T11:11:02.001Z</time></trkpt><trkpt lat="41.90023154812145" lon="2.4983118895406258"><ele>755.5</ele><time>2026-04-08T11:11:03.001Z</time></trkpt><trkpt lat="41.900314786632755" lon="2.4981945258776683"><ele>756.25</ele><time>2026-04-08T11:11:04.001Z</time></trkpt><trkpt lat="41.900427849088786" lon="2.4980950412594067"><ele>757.0</ele><time>2026-04-08T11:11:05.001Z</time></trkpt><trkpt lat="41.900561647527184" lon="2.4979852483002634"><ele>753.25</ele><time>2026-04-08T11:11:06.002Z</time></trkpt><trkpt lat="41.90068636418337" lon="2.4978772382235137"><ele>749.5</ele><time>2026-04-08T11:11:07.002Z</time></trkpt><trkpt lat="41.90079435440621" lon="2.4977945805541117"><ele>745.75</ele><time>2026-04-08T11:11:08.002Z</time></trkpt><trkpt lat="41.90090239807142" lon="2.497744580139863"><ele>742.0</ele><time>2026-04-08T11:11:08.999Z</time></trkpt><trkpt lat="41.90101251283136" lon="2.4977401505192023"><ele>740.25</ele><time>2026-04-08T11:11:09.999Z</time></trkpt><trkpt lat="41.90111399326651" lon="2.4977692694963887"><ele>738.5</ele><time>2026-04-08T11:11:10.999Z</time></trkpt><trkpt lat="41.90121513425841" lon="2.497835714218333"><ele>736.75</ele><time>2026-04-08T11:11:11.999Z</time></trkpt><trkpt lat="41.90132462400418" lon="2.4979432335297203"><ele>735.0</ele><time>2026-04-08T11:11:12.999Z</time></trkpt><trkpt lat="41.90144704072945" lon="2.49806918010992"><ele>734.75</ele><time>2026-04-08T11:11:13.999Z</time></trkpt><trkpt lat="41.901568022366064" lon="2.498186032814851"><ele>734.5</ele><time>2026-04-08T11:11:14.999Z</time></trkpt><trkpt lat="41.901675989914374" lon="2.4982933344746012"><ele>734.25</ele><time>2026-04-08T11:11:15.999Z</time></trkpt><trkpt lat="41.901779236659195" lon="2.4983834623028347"><ele>734.0</ele><time>2026-04-08T11:11:16.999Z</time></trkpt><trkpt lat="41.90187243551259" lon="2.4984520956110883"><ele>734.0</ele><time>2026-04-08T11:11:17.999Z</time></trkpt><trkpt lat="41.90195668939227" lon="2.4984773872442"><ele>734.0</ele><time>2026-04-08T11:11:18.999Z</time></trkpt><trkpt lat="41.90204846774108" lon="2.4984565124573197"><ele>734.0</ele><time>2026-04-08T11:11:19.999Z</time></trkpt><trkpt lat="41.90214146855147" lon="2.498399620491272"><ele>734.0</ele><time>2026-04-08T11:11:20.999Z</time></trkpt><trkpt lat="41.90224304329825" lon="2.4983182625168756"><ele>734.0</ele><time>2026-04-08T11:11:21.999Z</time></trkpt><trkpt lat="41.90233517290001" lon="2.4982327363560737"><ele>734.0</ele><time>2026-04-08T11:11:22.999Z</time></trkpt><trkpt lat="41.902425903949386" lon="2.498170624498476"><ele>734.0</ele><time>2026-04-08T11:11:23.999Z</time></trkpt><trkpt lat="41.90251825636478" lon="2.4981441589867983"><ele>734.0</ele><time>2026-04-08T11:11:24.999Z</time></trkpt><trkpt lat="41.902584593447855" lon="2.4981106967053415"><ele>734.0</ele><time>2026-04-08T11:11:25.999Z</time></trkpt><trkpt lat="41.902694778744326" lon="2.4981945009450492"><ele>734.0</ele><time>2026-04-08T11:11:26.999Z</time></trkpt><trkpt lat="41.90277209276948" lon="2.4982957435669526"><ele>732.75</ele><time>2026-04-08T11:11:27.999Z</time></trkpt><trkpt lat="41.90282768577928" lon="2.4984160837656773"><ele>731.5</ele><time>2026-04-08T11:11:28.999Z</time></trkpt><trkpt lat="41.90287204937994" lon="2.4985633511796492"><ele>730.25</ele><time>2026-04-08T11:11:29.999Z</time></trkpt><trkpt lat="41.902901208332125" lon="2.4987299475515865"><ele>729.0</ele><time>2026-04-08T11:11:30.999Z</time></trkpt><trkpt lat="41.90291491028475" lon="2.4989069066454213"><ele>728.75</ele><time>2026-04-08T11:11:31.999Z</time></trkpt><trkpt lat="41.90290908978517" lon="2.4990922529276816"><ele>728.5</ele><time>2026-04-08T11:11:32.999Z</time></trkpt><trkpt lat="41.90288053290654" lon="2.4992764965581395"><ele>728.25</ele><time>2026-04-08T11:11:34Z</time></trkpt><trkpt lat="41.90284414294527" lon="2.499473010314295"><ele>728.0</ele><time>2026-04-08T11:11:35Z</time></trkpt><trkpt lat="41.90280900558332" lon="2.4996500494493517"><ele>727.4</ele><time>2026-04-08T11:11:36Z</time></trkpt><trkpt lat="41.9027810780281" lon="2.4998050181962936"><ele>726.8</ele><time>2026-04-08T11:11:37Z</time></trkpt><trkpt lat="41.902765057709864" lon="2.499954507795765"><ele>726.2</ele><time>2026-04-08T11:11:38Z</time></trkpt><trkpt lat="41.90278171218725" lon="2.500080216224871"><ele>725.6</ele><time>2026-04-08T11:11:39Z</time></trkpt><trkpt lat="41.90283167116791" lon="2.5002000309670205"><ele>725.0</ele><time>2026-04-08T11:11:40Z</time></trkpt><trkpt lat="41.902907072139406" lon="2.5003288220385267"><ele>726.0</ele><time>2026-04-08T11:11:41Z</time></trkpt><trkpt lat="41.90299147633189" lon="2.5004638403185053"><ele>727.0</ele><time>2026-04-08T11:11:42Z</time></trkpt><trkpt lat="41.90308268625607" lon="2.5006244921409198"><ele>728.0</ele><time>2026-04-08T11:11:43Z</time></trkpt><trkpt lat="41.903170361701505" lon="2.5007778896300987"><ele>729.0</ele><time>2026-04-08T11:11:44Z</time></trkpt><trkpt lat="41.90325430348791" lon="2.5009153732019738"><ele>729.0</ele><time>2026-04-08T11:11:45Z</time></trkpt><trkpt lat="41.90332422708526" lon="2.501038279510466"><ele>729.0</ele><time>2026-04-08T11:11:46Z</time></trkpt><trkpt lat="41.903364156972565" lon="2.5011489402815306"><ele>729.0</ele><time>2026-04-08T11:11:47Z</time></trkpt><trkpt lat="41.90337266342814" lon="2.501266851627828"><ele>729.0</ele><time>2026-04-08T11:11:48Z</time></trkpt><trkpt lat="41.90335651404748" lon="2.50141254042613"><ele>729.0</ele><time>2026-04-08T11:11:49Z</time></trkpt><trkpt lat="41.90333271040062" lon="2.501577085029661"><ele>729.25</ele><time>2026-04-08T11:11:50Z</time></trkpt><trkpt lat="41.90329549447897" lon="2.5017300930118243"><ele>729.5</ele><time>2026-04-08T11:11:51Z</time></trkpt><trkpt lat="41.90325902347678" lon="2.5018677197343457"><ele>729.75</ele><time>2026-04-08T11:11:52Z</time></trkpt><trkpt lat="41.90319568685338" lon="2.5019990388856557"><ele>730.0</ele><time>2026-04-08T11:11:53Z</time></trkpt><trkpt lat="41.90310297458109" lon="2.5021377349012384"><ele>727.25</ele><time>2026-04-08T11:11:54Z</time></trkpt><trkpt lat="41.90301122986264" lon="2.502262592178762"><ele>724.5</ele><time>2026-04-08T11:11:55Z</time></trkpt><trkpt lat="41.90292126732444" lon="2.502376212067457"><ele>721.75</ele><time>2026-04-08T11:11:56Z</time></trkpt><trkpt lat="41.90282531349211" lon="2.5024803969611793"><ele>719.0</ele><time>2026-04-08T11:11:57Z</time></trkpt><trkpt lat="41.90271066399301" lon="2.502561818507708"><ele>719.0</ele><time>2026-04-08T11:11:58Z</time></trkpt><trkpt lat="41.902583683715164" lon="2.502642500818722"><ele>719.0</ele><time>2026-04-08T11:11:59Z</time></trkpt><trkpt lat="41.90246951657684" lon="2.5027272436730685"><ele>719.0</ele><time>2026-04-08T11:12:00Z</time></trkpt><trkpt lat="41.90236871287156" lon="2.5028154924671373"><ele>719.0</ele><time>2026-04-08T11:12:01Z</time></trkpt><trkpt lat="41.90228658944639" lon="2.502919278436243"><ele>718.25</ele><time>2026-04-08T11:12:02Z</time></trkpt><trkpt lat="41.90222134010252" lon="2.503056016083649"><ele>717.5</ele><time>2026-04-08T11:12:03Z</time></trkpt><trkpt lat="41.902161297618036" lon="2.503216535289198"><ele>716.75</ele><time>2026-04-08T11:12:04Z</time></trkpt><trkpt lat="41.90209990109562" lon="2.50339045452786"><ele>716.0</ele><time>2026-04-08T11:12:05Z</time></trkpt><trkpt lat="41.902031207876874" lon="2.5035804862348963"><ele>715.3333333333333</ele><time>2026-04-08T11:12:06Z</time></trkpt><trkpt lat="41.9019626526288" lon="2.503773016095242"><ele>714.6666666666666</ele><time>2026-04-08T11:12:07Z</time></trkpt><trkpt lat="41.901893877946186" lon="2.5039589393057335"><ele>714.0</ele><time>2026-04-08T11:12:08Z</time></trkpt><trkpt lat="41.901836677864765" lon="2.504139369962121"><ele>714.0</ele><time>2026-04-08T11:12:09Z</time></trkpt><trkpt lat="41.901778038453365" lon="2.504305181012836"><ele>714.0</ele><time>2026-04-08T11:12:10Z</time></trkpt><trkpt lat="41.90172507253884" lon="2.504450898688539"><ele>714.0</ele><time>2026-04-08T11:12:11.001Z</time></trkpt><trkpt lat="41.9016837629833" lon="2.5045919006955852"><ele>714.0</ele><time>2026-04-08T11:12:12.001Z</time></trkpt><trkpt lat="41.90167488864139" lon="2.50473055013905"><ele>713.6</ele><time>2026-04-08T11:12:13.001Z</time></trkpt><trkpt lat="41.90170378883043" lon="2.504858797167026"><ele>713.2</ele><time>2026-04-08T11:12:14.001Z</time></trkpt><trkpt lat="41.90176043319096" lon="2.5049525973686064"><ele>712.8000000000001</ele><time>2026-04-08T11:12:15.001Z</time></trkpt><trkpt lat="41.90183722443509" lon="2.505074556884556"><ele>712.4000000000001</ele><time>2026-04-08T11:12:16.001Z</time></trkpt><trkpt lat="41.90194307176675" lon="2.5051981570464905"><ele>712.0</ele><time>2026-04-08T11:12:17.001Z</time></trkpt><trkpt lat="41.90207242073872" lon="2.505345008374108"><ele>712.6666666666667</ele><time>2026-04-08T11:12:18.001Z</time></trkpt><trkpt lat="41.90221577150619" lon="2.50550791960779"><ele>713.3333333333334</ele><time>2026-04-08T11:12:19.001Z</time></trkpt><trkpt lat="41.90235448698076" lon="2.5056723426742513"><ele>714.0</ele><time>2026-04-08T11:12:20.001Z</time></trkpt><trkpt lat="41.90248690970683" lon="2.505832035307276"><ele>714.3333333333334</ele><time>2026-04-08T11:12:21.001Z</time></trkpt><trkpt lat="41.90262267874858" lon="2.505991102923256"><ele>714.6666666666667</ele><time>2026-04-08T11:12:22.001Z</time></trkpt><trkpt lat="41.9027532336023" lon="2.5061481190389427"><ele>715.0</ele><time>2026-04-08T11:12:23.001Z</time></trkpt><trkpt lat="41.90286914289176" lon="2.5062895723168563"><ele>715.0</ele><time>2026-04-08T11:12:24.001Z</time></trkpt><trkpt lat="41.902980589094156" lon="2.50642637257356"><ele>715.0</ele><time>2026-04-08T11:12:25.001Z</time></trkpt><trkpt lat="41.90308247482887" lon="2.506540108369791"><ele>715.0</ele><time>2026-04-08T11:12:26.001Z</time></trkpt><trkpt lat="41.903199970474844" lon="2.5066042026643616"><ele>715.0</ele><time>2026-04-08T11:12:27.001Z</time></trkpt><trkpt lat="41.903328408816634" lon="2.5066516896173643"><ele>714.5</ele><time>2026-04-08T11:12:28.001Z</time></trkpt><trkpt lat="41.903473035962115" lon="2.5066792081321627"><ele>714.0</ele><time>2026-04-08T11:12:29.001Z</time></trkpt><trkpt lat="41.90360163174917" lon="2.506696858426501"><ele>713.5</ele><time>2026-04-08T11:12:30.001Z</time></trkpt><trkpt lat="41.90371817440108" lon="2.506690520570273"><ele>713.0</ele><time>2026-04-08T11:12:31.001Z</time></trkpt><trkpt lat="41.9038283740709" lon="2.5066438688296904"><ele>713.0</ele><time>2026-04-08T11:12:32.001Z</time></trkpt><trkpt lat="41.903923255041256" lon="2.5065382624859907"><ele>713.0</ele><time>2026-04-08T11:12:33.001Z</time></trkpt><trkpt lat="41.904004960516815" lon="2.5064119185031677"><ele>713.0</ele><time>2026-04-08T11:12:34.001Z</time></trkpt><trkpt lat="41.90406544865149" lon="2.5063006893685067"><ele>713.0</ele><time>2026-04-08T11:12:35.001Z</time></trkpt><trkpt lat="41.90412940975957" lon="2.506222986571259"><ele>713.0</ele><time>2026-04-08T11:12:36.001Z</time></trkpt><trkpt lat="41.90421378319758" lon="2.5061894246446714"><ele>714.75</ele><time>2026-04-08T11:12:37.001Z</time></trkpt><trkpt lat="41.90431844444049" lon="2.5061968278615745"><ele>716.5</ele><time>2026-04-08T11:12:38.001Z</time></trkpt><trkpt lat="41.90444374352521" lon="2.506220574292708"><ele>718.25</ele><time>2026-04-08T11:12:39.001Z</time></trkpt><trkpt lat="41.904587875110984" lon="2.5062624189914633"><ele>720.0</ele><time>2026-04-08T11:12:40.001Z</time></trkpt><trkpt lat="41.90473768442143" lon="2.5063220733282447"><ele>716.5</ele><time>2026-04-08T11:12:41.001Z</time></trkpt><trkpt lat="41.90486385120247" lon="2.5063972712132174"><ele>713.0</ele><time>2026-04-08T11:12:42.001Z</time></trkpt><trkpt lat="41.904978023922055" lon="2.5064860401209184"><ele>709.5</ele><time>2026-04-08T11:12:43.001Z</time></trkpt><trkpt lat="41.90507317162984" lon="2.506590755848563"><ele>706.0</ele><time>2026-04-08T11:12:44.001Z</time></trkpt><trkpt lat="41.905135737794254" lon="2.5067068824105876"><ele>705.75</ele><time>2026-04-08T11:12:45.001Z</time></trkpt><trkpt lat="41.90519524147835" lon="2.506856099751546"><ele>705.5</ele><time>2026-04-08T11:12:46.001Z</time></trkpt><trkpt lat="41.90525792541941" lon="2.507013390914591"><ele>705.25</ele><time>2026-04-08T11:12:47.001Z</time></trkpt><trkpt lat="41.905313413409175" lon="2.5071647033502735"><ele>705.0</ele><time>2026-04-08T11:12:48.001Z</time></trkpt><trkpt lat="41.90534555347092" lon="2.507302989993542"><ele>704.3333333333334</ele><time>2026-04-08T11:12:49.001Z</time></trkpt><trkpt lat="41.90535215932111" lon="2.5074291833383673"><ele>703.6666666666666</ele><time>2026-04-08T11:12:50.001Z</time></trkpt><trkpt lat="41.90533283160931" lon="2.5075247735362645"><ele>703.0</ele><time>2026-04-08T11:12:51.001Z</time></trkpt><trkpt lat="41.9052900019379" lon="2.507594784714162"><ele>702.3333333333333</ele><time>2026-04-08T11:12:52.001Z</time></trkpt><trkpt lat="41.905221707566824" lon="2.507661623067547"><ele>701.6666666666666</ele><time>2026-04-08T11:12:53.001Z</time></trkpt><trkpt lat="41.905116848804305" lon="2.507727217677425"><ele>701.0</ele><time>2026-04-08T11:12:54.001Z</time></trkpt><trkpt lat="41.90501354685795" lon="2.50780068979957"><ele>700.5999999999999</ele><time>2026-04-08T11:12:55.001Z</time></trkpt><trkpt lat="41.904910590761496" lon="2.5078719393338154"><ele>700.2</ele><time>2026-04-08T11:12:56.001Z</time></trkpt><trkpt lat="41.90482720600158" lon="2.507932938998928"><ele>699.8</ele><time>2026-04-08T11:12:57.002Z</time></trkpt><trkpt lat="41.90476040776656" lon="2.5079999468911685"><ele>699.4000000000001</ele><time>2026-04-08T11:12:58.002Z</time></trkpt><trkpt lat="41.904718196802214" lon="2.508087923302186"><ele>699.0</ele><time>2026-04-08T11:12:59.002Z</time></trkpt><trkpt lat="41.90469742165826" lon="2.508201902804047"><ele>699.0</ele><time>2026-04-08T11:13:00.002Z</time></trkpt><trkpt lat="41.90467298579971" lon="2.508323971995715"><ele>699.0</ele><time>2026-04-08T11:13:01.002Z</time></trkpt><trkpt lat="41.90461646981997" lon="2.5084390958826077"><ele>699.0</ele><time>2026-04-08T11:13:02.002Z</time></trkpt><trkpt lat="41.90453437313114" lon="2.508555394962233"><ele>699.0</ele><time>2026-04-08T11:13:03.002Z</time></trkpt><trkpt lat="41.90446971870146" lon="2.5086675817710327"><ele>699.0</ele><time>2026-04-08T11:13:04.002Z</time></trkpt><trkpt lat="41.904445657823594" lon="2.508799545129664"><ele>697.0</ele><time>2026-04-08T11:13:05.002Z</time></trkpt><trkpt lat="41.9044527500468" lon="2.508943686852096"><ele>695.0</ele><time>2026-04-08T11:13:06.002Z</time></trkpt><trkpt lat="41.904491993554345" lon="2.509088741930724"><ele>693.0</ele><time>2026-04-08T11:13:07.002Z</time></trkpt><trkpt lat="41.90454052384288" lon="2.509243548273049"><ele>691.0</ele><time>2026-04-08T11:13:08.002Z</time></trkpt><trkpt lat="41.904593143869064" lon="2.509416287822782"><ele>690.5</ele><time>2026-04-08T11:13:09.002Z</time></trkpt><trkpt lat="41.90464116207354" lon="2.5095940042793687"><ele>690.0</ele><time>2026-04-08T11:13:10.002Z</time></trkpt><trkpt lat="41.90469468652172" lon="2.5097662764304394"><ele>689.5</ele><time>2026-04-08T11:13:11.002Z</time></trkpt><trkpt lat="41.90476139069517" lon="2.5099366931303186"><ele>689.0</ele><time>2026-04-08T11:13:12.002Z</time></trkpt><trkpt lat="41.90485045001708" lon="2.5101042831388782"><ele>689.0</ele><time>2026-04-08T11:13:13.002Z</time></trkpt><trkpt lat="41.904954421510375" lon="2.510264349486615"><ele>689.0</ele><time>2026-04-08T11:13:14.002Z</time></trkpt><trkpt lat="41.905063431090845" lon="2.5104127606061817"><ele>689.0</ele><time>2026-04-08T11:13:15Z</time></trkpt><trkpt lat="41.90516800258902" lon="2.510557840958047"><ele>689.3333333333333</ele><time>2026-04-08T11:13:16Z</time></trkpt><trkpt lat="41.90527687864337" lon="2.510692451856577"><ele>689.6666666666666</ele><time>2026-04-08T11:13:17Z</time></trkpt><trkpt lat="41.90540640188127" lon="2.510822741532318"><ele>690.0</ele><time>2026-04-08T11:13:18Z</time></trkpt><trkpt lat="41.905553128753944" lon="2.510938677767812"><ele>690.0</ele><time>2026-04-08T11:13:19Z</time></trkpt><trkpt lat="41.905709413622205" lon="2.511059214018366"><ele>690.0</ele><time>2026-04-08T11:13:20Z</time></trkpt><trkpt lat="41.90585725715385" lon="2.5111657468029907"><ele>690.0</ele><time>2026-04-08T11:13:21Z</time></trkpt><trkpt lat="41.90598583593139" lon="2.511267530674839"><ele>692.1666666666666</ele><time>2026-04-08T11:13:22Z</time></trkpt><trkpt lat="41.90609572434602" lon="2.511316474347308"><ele>694.3333333333334</ele><time>2026-04-08T11:13:23Z</time></trkpt><trkpt lat="41.906179968430095" lon="2.511361420994596"><ele>696.5</ele><time>2026-04-08T11:13:24Z</time></trkpt><trkpt lat="41.90626488209876" lon="2.5113897838655723"><ele>698.6666666666667</ele><time>2026-04-08T11:13:25Z</time></trkpt><trkpt lat="41.90634589428314" lon="2.5114031684126155"><ele>700.8333333333334</ele><time>2026-04-08T11:13:26Z</time></trkpt><trkpt lat="41.90641710720943" lon="2.5113945828731707"><ele>703.0</ele><time>2026-04-08T11:13:27Z</time></trkpt><trkpt lat="41.90654140999146" lon="2.5113474661975004"><ele>703.0</ele><time>2026-04-08T11:13:29Z</time></trkpt><trkpt lat="41.90661364696078" lon="2.5113147725734897"><ele>703.0</ele><time>2026-04-08T11:13:30Z</time></trkpt><trkpt lat="41.906675387905295" lon="2.5112759992104032"><ele>703.0</ele><time>2026-04-08T11:13:31Z</time></trkpt><trkpt lat="41.906751831449945" lon="2.5112467222258106"><ele>703.0</ele><time>2026-04-08T11:13:32Z</time></trkpt><trkpt lat="41.90683531723427" lon="2.5112301929161305"><ele>703.0</ele><time>2026-04-08T11:13:33Z</time></trkpt><trkpt lat="41.90693058716514" lon="2.5112226196967655"><ele>703.0</ele><time>2026-04-08T11:13:34Z</time></trkpt><trkpt lat="41.90702259665538" lon="2.5112185033302437"><ele>700.3333333333334</ele><time>2026-04-08T11:13:35Z</time></trkpt><trkpt lat="41.907121013783964" lon="2.5112002382242053"><ele>697.6666666666667</ele><time>2026-04-08T11:13:36Z</time></trkpt><trkpt lat="41.90720502971473" lon="2.5111721526299258"><ele>695.0</ele><time>2026-04-08T11:13:37Z</time></trkpt><trkpt lat="41.907265705766385" lon="2.511134895701623"><ele>692.3333333333334</ele><time>2026-04-08T11:13:38Z</time></trkpt><trkpt lat="41.90732943591251" lon="2.511089944776336"><ele>689.6666666666666</ele><time>2026-04-08T11:13:39Z</time></trkpt><trkpt lat="41.90740293683837" lon="2.5110461651159928"><ele>687.0</ele><time>2026-04-08T11:13:40Z</time></trkpt><trkpt lat="41.90748108121214" lon="2.511029614004998"><ele>687.0</ele><time>2026-04-08T11:13:41Z</time></trkpt><trkpt lat="41.90755651256379" lon="2.5110588151961926"><ele>687.0</ele><time>2026-04-08T11:13:42Z</time></trkpt><trkpt lat="41.907618915483596" lon="2.51111043124738"><ele>687.0</ele><time>2026-04-08T11:13:43Z</time></trkpt><trkpt lat="41.90765149150005" lon="2.511198810068089"><ele>687.0</ele><time>2026-04-08T11:13:44Z</time></trkpt><trkpt lat="41.90766404998011" lon="2.5113082626656373"><ele>687.0</ele><time>2026-04-08T11:13:45Z</time></trkpt><trkpt lat="41.9076725587408" lon="2.511434116245209"><ele>687.0</ele><time>2026-04-08T11:13:46Z</time></trkpt><trkpt lat="41.90769081860671" lon="2.5115543280522585"><ele>686.6666666666666</ele><time>2026-04-08T11:13:47Z</time></trkpt><trkpt lat="41.90770479754697" lon="2.51165760797852"><ele>686.3333333333334</ele><time>2026-04-08T11:13:48.001Z</time></trkpt><trkpt lat="41.90771950037251" lon="2.511747439744183"><ele>686.0</ele><time>2026-04-08T11:13:49.001Z</time></trkpt><trkpt lat="41.90772800508552" lon="2.5118570798886104"><ele>685.6666666666667</ele><time>2026-04-08T11:13:50.001Z</time></trkpt><trkpt lat="41.907742752084545" lon="2.511985890590395"><ele>685.3333333333334</ele><time>2026-04-08T11:13:51.001Z</time></trkpt><trkpt lat="41.90775753701077" lon="2.512112151570701"><ele>685.0</ele><time>2026-04-08T11:13:52.001Z</time></trkpt><trkpt lat="41.90778212140143" lon="2.512231936589078"><ele>685.0</ele><time>2026-04-08T11:13:53.001Z</time></trkpt><trkpt lat="41.907794192574265" lon="2.512333248090577"><ele>685.0</ele><time>2026-04-08T11:13:54.001Z</time></trkpt><trkpt lat="41.907817982788565" lon="2.512442930630043"><ele>685.0</ele><time>2026-04-08T11:13:55.001Z</time></trkpt><trkpt lat="41.90782352094445" lon="2.5125679852566805"><ele>685.0</ele><time>2026-04-08T11:13:56.001Z</time></trkpt><trkpt lat="41.90783955129097" lon="2.512697451069285"><ele>685.0</ele><time>2026-04-08T11:13:57.001Z</time></trkpt><trkpt lat="41.90785792502995" lon="2.512827661799511"><ele>684.2</ele><time>2026-04-08T11:13:58.001Z</time></trkpt><trkpt lat="41.907874040998884" lon="2.5129538532519637"><ele>683.4</ele><time>2026-04-08T11:13:59.001Z</time></trkpt><trkpt lat="41.90788071086112" lon="2.513086717517328"><ele>682.5999999999999</ele><time>2026-04-08T11:14:00.001Z</time></trkpt><trkpt lat="41.90788863277368" lon="2.5132127112783404"><ele>681.8</ele><time>2026-04-08T11:14:01.001Z</time></trkpt><trkpt lat="41.90789832926702" lon="2.513346387259438"><ele>681.0</ele><time>2026-04-08T11:14:02.001Z</time></trkpt><trkpt lat="41.90792642645635" lon="2.5135014927388033"><ele>681.0</ele><time>2026-04-08T11:14:03.001Z</time></trkpt><trkpt lat="41.90795679858918" lon="2.5136492894794404"><ele>681.0</ele><time>2026-04-08T11:14:04.001Z</time></trkpt><trkpt lat="41.90802265842078" lon="2.513772644534737"><ele>681.0</ele><time>2026-04-08T11:14:05.001Z</time></trkpt><trkpt lat="41.90810500539454" lon="2.513878515238503"><ele>681.0</ele><time>2026-04-08T11:14:06.001Z</time></trkpt><trkpt lat="41.9082117999198" lon="2.513953351265373"><ele>680.5</ele><time>2026-04-08T11:14:07.001Z</time></trkpt><trkpt lat="41.908334212673196" lon="2.514026634498779"><ele>680.0</ele><time>2026-04-08T11:14:08.001Z</time></trkpt><trkpt lat="41.90846360939757" lon="2.5141073254695563"><ele>679.5</ele><time>2026-04-08T11:14:09.001Z</time></trkpt><trkpt lat="41.90859840501712" lon="2.5142037644351185"><ele>679.0</ele><time>2026-04-08T11:14:10.001Z</time></trkpt><trkpt lat="41.908733525178285" lon="2.514297514682697"><ele>679.0</ele><time>2026-04-08T11:14:11.001Z</time></trkpt><trkpt lat="41.90887376665161" lon="2.514404968473772"><ele>679.0</ele><time>2026-04-08T11:14:12.001Z</time></trkpt><trkpt lat="41.90900439449186" lon="2.5145083588485817"><ele>679.0</ele><time>2026-04-08T11:14:13.001Z</time></trkpt><trkpt lat="41.90912706448854" lon="2.5146183585648814"><ele>678.0</ele><time>2026-04-08T11:14:14.001Z</time></trkpt><trkpt lat="41.90925087479942" lon="2.514728330759255"><ele>677.0</ele><time>2026-04-08T11:14:15.001Z</time></trkpt><trkpt lat="41.90937457241464" lon="2.514861811718147"><ele>676.0</ele><time>2026-04-08T11:14:16.001Z</time></trkpt><trkpt lat="41.9094979380363" lon="2.5149738659008833"><ele>676.0</ele><time>2026-04-08T11:14:17.001Z</time></trkpt><trkpt lat="41.909612050177294" lon="2.515081952529502"><ele>676.0</ele><time>2026-04-08T11:14:18.001Z</time></trkpt><trkpt lat="41.90972437714872" lon="2.5151962605843567"><ele>676.0</ele><time>2026-04-08T11:14:19.001Z</time></trkpt><trkpt lat="41.90984635290958" lon="2.5153001479439085"><ele>676.0</ele><time>2026-04-08T11:14:20.001Z</time></trkpt><trkpt lat="41.90998676472271" lon="2.5153790507138765"><ele>684.6666666666667</ele><time>2026-04-08T11:14:21.001Z</time></trkpt><trkpt lat="41.91014030403098" lon="2.5154267872293397"><ele>693.3333333333334</ele><time>2026-04-08T11:14:22.001Z</time></trkpt><trkpt lat="41.91030281136622" lon="2.5154423564092405"><ele>702.0</ele><time>2026-04-08T11:14:23.001Z</time></trkpt><trkpt lat="41.910469708219004" lon="2.5154333043524177"><ele>692.3333333333334</ele><time>2026-04-08T11:14:24.001Z</time></trkpt><trkpt lat="41.91063078262473" lon="2.5153996190317933"><ele>682.6666666666667</ele><time>2026-04-08T11:14:25.001Z</time></trkpt><trkpt lat="41.91078945839232" lon="2.5153558160465193"><ele>673.0</ele><time>2026-04-08T11:14:26.001Z</time></trkpt><trkpt lat="41.91094834144634" lon="2.5153165554830483"><ele>672.75</ele><time>2026-04-08T11:14:27.001Z</time></trkpt><trkpt lat="41.911102510300246" lon="2.5152928038158904"><ele>672.5</ele><time>2026-04-08T11:14:28.001Z</time></trkpt><trkpt lat="41.911243235060695" lon="2.5153071205608097"><ele>672.25</ele><time>2026-04-08T11:14:29.001Z</time></trkpt><trkpt lat="41.911363687481014" lon="2.51530495447012"><ele>672.0</ele><time>2026-04-08T11:14:30.001Z</time></trkpt><trkpt lat="41.911466667731716" lon="2.5152794111420267"><ele>672.0</ele><time>2026-04-08T11:14:31.001Z</time></trkpt><trkpt lat="41.91154525915316" lon="2.515208269756318"><ele>672.0</ele><time>2026-04-08T11:14:32.002Z</time></trkpt><trkpt lat="41.9115716394953" lon="2.515090869955581"><ele>672.0</ele><time>2026-04-08T11:14:33.002Z</time></trkpt><trkpt lat="41.91162435601188" lon="2.515013841540664"><ele>672.0</ele><time>2026-04-08T11:14:34.002Z</time></trkpt><trkpt lat="41.9116948378311" lon="2.5149837263586736"><ele>672.0</ele><time>2026-04-08T11:14:35.002Z</time></trkpt><trkpt lat="41.911776943062385" lon="2.514993505825713"><ele>672.0</ele><time>2026-04-08T11:14:36.002Z</time></trkpt><trkpt lat="41.91187694083311" lon="2.515022763540187"><ele>673.25</ele><time>2026-04-08T11:14:37.002Z</time></trkpt><trkpt lat="41.9119947386596" lon="2.5150559500119876"><ele>674.5</ele><time>2026-04-08T11:14:38.002Z</time></trkpt><trkpt lat="41.912115842902274" lon="2.5150795380446134"><ele>675.75</ele><time>2026-04-08T11:14:39.002Z</time></trkpt><trkpt lat="41.91224360642107" lon="2.515093801587361"><ele>677.0</ele><time>2026-04-08T11:14:40.002Z</time></trkpt><trkpt lat="41.91238272397111" lon="2.515105234230577"><ele>677.0</ele><time>2026-04-08T11:14:41.002Z</time></trkpt><trkpt lat="41.91252284909305" lon="2.5150763686002295"><ele>677.0</ele><time>2026-04-08T11:14:42.002Z</time></trkpt><trkpt lat="41.912672008438136" lon="2.515029746633718"><ele>677.0</ele><time>2026-04-08T11:14:43.002Z</time></trkpt><trkpt lat="41.91281487102692" lon="2.5149656727872336"><ele>677.0</ele><time>2026-04-08T11:14:44.002Z</time></trkpt><trkpt lat="41.912974988538565" lon="2.5148904798280727"><ele>679.3333333333333</ele><time>2026-04-08T11:14:45.002Z</time></trkpt><trkpt lat="41.91314049507049" lon="2.514816624131169"><ele>681.6666666666666</ele><time>2026-04-08T11:14:46.002Z</time></trkpt><trkpt lat="41.91330527435366" lon="2.514736648973859"><ele>684.0</ele><time>2026-04-08T11:14:47.002Z</time></trkpt><trkpt lat="41.91346206586646" lon="2.514659075568458"><ele>681.5</ele><time>2026-04-08T11:14:48.002Z</time></trkpt><trkpt lat="41.913608545584665" lon="2.514589974566426"><ele>679.0</ele><time>2026-04-08T11:14:49.002Z</time></trkpt><trkpt lat="41.91374630279635" lon="2.5145410247809625"><ele>676.5</ele><time>2026-04-08T11:14:50.002Z</time></trkpt><trkpt lat="41.91387489491887" lon="2.514509900487258"><ele>674.0</ele><time>2026-04-08T11:14:51.002Z</time></trkpt><trkpt lat="41.91399532257417" lon="2.514461351317129"><ele>674.0</ele><time>2026-04-08T11:14:52.002Z</time></trkpt><trkpt lat="41.91413046130528" lon="2.514383140491481"><ele>674.0</ele><time>2026-04-08T11:14:53.002Z</time></trkpt><trkpt lat="41.91424662777425" lon="2.5142652294218673"><ele>674.0</ele><time>2026-04-08T11:14:54.002Z</time></trkpt><trkpt lat="41.91436502207952" lon="2.5141404865491905"><ele>674.0</ele><time>2026-04-08T11:14:55.002Z</time></trkpt><trkpt lat="41.91448291440512" lon="2.5140164008293495"><ele>672.0</ele><time>2026-04-08T11:14:56.002Z</time></trkpt><trkpt lat="41.9145955050633" lon="2.5138982773781926"><ele>670.0</ele><time>2026-04-08T11:14:57.002Z</time></trkpt><trkpt lat="41.914692428549735" lon="2.5137747209003747"><ele>668.0</ele><time>2026-04-08T11:14:58.002Z</time></trkpt><trkpt lat="41.9148045710149" lon="2.513716872364049"><ele>666.0</ele><time>2026-04-08T11:14:59.002Z</time></trkpt><trkpt lat="41.914915711348165" lon="2.513697730376271"><ele>666.0</ele><time>2026-04-08T11:15:00.002Z</time></trkpt><trkpt lat="41.91501557444493" lon="2.5136361034811756"><ele>666.0</ele><time>2026-04-08T11:15:01.002Z</time></trkpt><trkpt lat="41.915089681666444" lon="2.513516210415829"><ele>666.0</ele><time>2026-04-08T11:15:02.002Z</time></trkpt><trkpt lat="41.91516274215485" lon="2.5133992303189174"><ele>666.0</ele><time>2026-04-08T11:15:03.002Z</time></trkpt><trkpt lat="41.91522424255368" lon="2.5132826937379966"><ele>666.0</ele><time>2026-04-08T11:15:04.002Z</time></trkpt><trkpt lat="41.91528044101174" lon="2.5131989275233546"><ele>666.6666666666666</ele><time>2026-04-08T11:15:05.002Z</time></trkpt><trkpt lat="41.915298132842565" lon="2.5131098057346315"><ele>667.3333333333334</ele><time>2026-04-08T11:15:06.002Z</time></trkpt><trkpt lat="41.915270796154196" lon="2.5130326133981513"><ele>668.0</ele><time>2026-04-08T11:15:07.002Z</time></trkpt><trkpt lat="41.9152149747536" lon="2.512916448752676"><ele>668.6666666666667</ele><time>2026-04-08T11:15:09.002Z</time></trkpt><trkpt lat="41.91514362079418" lon="2.5128463174962703"><ele>669.3333333333334</ele><time>2026-04-08T11:15:10.002Z</time></trkpt><trkpt lat="41.91507058884718" lon="2.5127342913783552"><ele>670.0</ele><time>2026-04-08T11:15:11.002Z</time></trkpt><trkpt lat="41.914970951195635" lon="2.512625264485472"><ele>670.0</ele><time>2026-04-08T11:15:12.002Z</time></trkpt><trkpt lat="41.914875416036374" lon="2.5125207267285665"><ele>670.0</ele><time>2026-04-08T11:15:13.002Z</time></trkpt><trkpt lat="41.914772168822346" lon="2.5124311638106733"><ele>670.0</ele><time>2026-04-08T11:15:14.002Z</time></trkpt><trkpt lat="41.91468907192027" lon="2.512334434523775"><ele>670.0</ele><time>2026-04-08T11:15:15.002Z</time></trkpt><trkpt lat="41.914624454447" lon="2.5122469183849887"><ele>670.0</ele><time>2026-04-08T11:15:16.002Z</time></trkpt><trkpt lat="41.914588687279824" lon="2.5121593242171305"><ele>669.8</ele><time>2026-04-08T11:15:17.002Z</time></trkpt><trkpt lat="41.91458350454339" lon="2.512051197591881"><ele>669.6</ele><time>2026-04-08T11:15:18.002Z</time></trkpt><trkpt lat="41.91460156917968" lon="2.511941222100179"><ele>669.4000000000001</ele><time>2026-04-08T11:15:19.003Z</time></trkpt><trkpt lat="41.914646029027026" lon="2.511806495949366"><ele>669.2</ele><time>2026-04-08T11:15:20.003Z</time></trkpt><trkpt lat="41.914695472568326" lon="2.51165532429249"><ele>669.0</ele><time>2026-04-08T11:15:21.001Z</time></trkpt><trkpt lat="41.914738999746604" lon="2.5115264012888434"><ele>669.0</ele><time>2026-04-08T11:15:22.001Z</time></trkpt><trkpt lat="41.91479895732937" lon="2.511436394585123"><ele>669.0</ele><time>2026-04-08T11:15:23.001Z</time></trkpt><trkpt lat="41.91487996187384" lon="2.511382950707788"><ele>669.0</ele><time>2026-04-08T11:15:24.001Z</time></trkpt><trkpt lat="41.914985395003164" lon="2.511357581981825"><ele>669.0</ele><time>2026-04-08T11:15:25.001Z</time></trkpt><trkpt lat="41.91510567362417" lon="2.511358446948571"><ele>669.0</ele><time>2026-04-08T11:15:26.001Z</time></trkpt><trkpt lat="41.915238836572065" lon="2.5113841979735385"><ele>671.5</ele><time>2026-04-08T11:15:27.001Z</time></trkpt><trkpt lat="41.915377055112934" lon="2.511384723537006"><ele>674.0</ele><time>2026-04-08T11:15:28.001Z</time></trkpt><trkpt lat="41.91550072912367" lon="2.5113409341116872"><ele>676.5</ele><time>2026-04-08T11:15:29.001Z</time></trkpt><trkpt lat="41.91561994280627" lon="2.5113144661883027"><ele>679.0</ele><time>2026-04-08T11:15:30.001Z</time></trkpt><trkpt lat="41.91573629017602" lon="2.511338357165845"><ele>679.0</ele><time>2026-04-08T11:15:31.001Z</time></trkpt><trkpt lat="41.91586432851828" lon="2.5113884050159117"><ele>679.0</ele><time>2026-04-08T11:15:32.001Z</time></trkpt><trkpt lat="41.91601822110471" lon="2.511462755764705"><ele>679.0</ele><time>2026-04-08T11:15:33.001Z</time></trkpt><trkpt lat="41.916178214351255" lon="2.5115515358870115"><ele>675.3333333333334</ele><time>2026-04-08T11:15:34.001Z</time></trkpt><trkpt lat="41.91632198645898" lon="2.511653748697172"><ele>671.6666666666666</ele><time>2026-04-08T11:15:35.001Z</time></trkpt><trkpt lat="41.916466630798816" lon="2.5117760842784076"><ele>668.0</ele><time>2026-04-08T11:15:36.001Z</time></trkpt><trkpt lat="41.91661174899664" lon="2.511844414909075"><ele>665.6666666666666</ele><time>2026-04-08T11:15:37.001Z</time></trkpt><trkpt lat="41.91676235094056" lon="2.511901100016645"><ele>663.3333333333334</ele><time>2026-04-08T11:15:38.001Z</time></trkpt><trkpt lat="41.91692961425128" lon="2.511966219688141"><ele>661.0</ele><time>2026-04-08T11:15:39.001Z</time></trkpt><trkpt lat="41.917099475873705" lon="2.5120116847260756"><ele>661.0</ele><time>2026-04-08T11:15:40.001Z</time></trkpt><trkpt lat="41.917271689881346" lon="2.5120574704452903"><ele>661.0</ele><time>2026-04-08T11:15:41.001Z</time></trkpt><trkpt lat="41.91743101300319" lon="2.512098965008129"><ele>661.0</ele><time>2026-04-08T11:15:42.001Z</time></trkpt><trkpt lat="41.91758144155607" lon="2.5121169019627456"><ele>667.75</ele><time>2026-04-08T11:15:43.001Z</time></trkpt><trkpt lat="41.917716002928664" lon="2.512149790995384"><ele>674.5</ele><time>2026-04-08T11:15:44.001Z</time></trkpt><trkpt lat="41.91784055389494" lon="2.512167654612682"><ele>681.25</ele><time>2026-04-08T11:15:45.001Z</time></trkpt><trkpt lat="41.91797027382943" lon="2.512176717344872"><ele>688.0</ele><time>2026-04-08T11:15:46.001Z</time></trkpt><trkpt lat="41.9181168954693" lon="2.5121195020774043"><ele>688.5999999999999</ele><time>2026-04-08T11:15:47.001Z</time></trkpt><trkpt lat="41.918217965877695" lon="2.512052491234452"><ele>689.1999999999999</ele><time>2026-04-08T11:15:48.001Z</time></trkpt><trkpt lat="41.91830989748166" lon="2.5120154035280495"><ele>689.8</ele><time>2026-04-08T11:15:49.001Z</time></trkpt><trkpt lat="41.91840469940734" lon="2.51201214631435"><ele>690.4</ele><time>2026-04-08T11:15:50.001Z</time></trkpt><trkpt lat="41.91848785504743" lon="2.511971156147236"><ele>691.0</ele><time>2026-04-08T11:15:51.001Z</time></trkpt><trkpt lat="41.91855726243742" lon="2.5118519571362103"><ele>691.0</ele><time>2026-04-08T11:15:52.001Z</time></trkpt><trkpt lat="41.918558852160736" lon="2.5116995479647266"><ele>691.0</ele><time>2026-04-08T11:15:53.001Z</time></trkpt><trkpt lat="41.91858151029934" lon="2.511575597437861"><ele>691.0</ele><time>2026-04-08T11:15:54.001Z</time></trkpt><trkpt lat="41.918651607669645" lon="2.5115064122040436"><ele>691.0</ele><time>2026-04-08T11:15:55.001Z</time></trkpt><trkpt lat="41.918742714430756" lon="2.511373207101643"><ele>691.0</ele><time>2026-04-08T11:15:56.001Z</time></trkpt><trkpt lat="41.9188428190451" lon="2.5112167904370057"><ele>693.5</ele><time>2026-04-08T11:15:57.001Z</time></trkpt><trkpt lat="41.91893261086786" lon="2.51106918710606"><ele>696.0</ele><time>2026-04-08T11:15:58.001Z</time></trkpt><trkpt lat="41.919017934159406" lon="2.5109637868373755"><ele>698.5</ele><time>2026-04-08T11:15:59.001Z</time></trkpt><trkpt lat="41.919127520746706" lon="2.51088026419774"><ele>701.0</ele><time>2026-04-08T11:16:00.001Z</time></trkpt><trkpt lat="41.919263310579254" lon="2.5107959649274734"><ele>701.0</ele><time>2026-04-08T11:16:01.001Z</time></trkpt><trkpt lat="41.91938738619117" lon="2.5106230549655923"><ele>701.0</ele><time>2026-04-08T11:16:02.001Z</time></trkpt><trkpt lat="41.919522291932694" lon="2.5105057328729123"><ele>701.0</ele><time>2026-04-08T11:16:03.001Z</time></trkpt><trkpt lat="41.91967540549407" lon="2.5103748192252135"><ele>688.6666666666666</ele><time>2026-04-08T11:16:04.001Z</time></trkpt><trkpt lat="41.9198106430049" lon="2.5102020410313677"><ele>676.3333333333334</ele><time>2026-04-08T11:16:05.001Z</time></trkpt><trkpt lat="41.91993624913982" lon="2.510040068741192"><ele>664.0</ele><time>2026-04-08T11:16:06.001Z</time></trkpt><trkpt lat="41.920058585313186" lon="2.5098913111566894"><ele>661.6666666666667</ele><time>2026-04-08T11:16:07.001Z</time></trkpt><trkpt lat="41.92017935840321" lon="2.5097565286872006"><ele>659.3333333333334</ele><time>2026-04-08T11:16:08.001Z</time></trkpt><trkpt lat="41.92030724203561" lon="2.5096421877614477"><ele>657.0</ele><time>2026-04-08T11:16:09.001Z</time></trkpt><trkpt lat="41.920434876865215" lon="2.5095351323231423"><ele>657.0</ele><time>2026-04-08T11:16:10.001Z</time></trkpt><trkpt lat="41.920549510371494" lon="2.5094327381693358"><ele>657.0</ele><time>2026-04-08T11:16:11.001Z</time></trkpt><trkpt lat="41.92065324791305" lon="2.5093493382647334"><ele>657.0</ele><time>2026-04-08T11:16:12.001Z</time></trkpt><trkpt lat="41.92074993878529" lon="2.5092885174430455"><ele>657.0</ele><time>2026-04-08T11:16:13.001Z</time></trkpt><trkpt lat="41.92083955976067" lon="2.509261548172397"><ele>661.6</ele><time>2026-04-08T11:16:14.001Z</time></trkpt><trkpt lat="41.920935430694385" lon="2.5092777440084886"><ele>666.2</ele><time>2026-04-08T11:16:15.001Z</time></trkpt><trkpt lat="41.92103626365983" lon="2.509288501764851"><ele>670.8</ele><time>2026-04-08T11:16:16.001Z</time></trkpt><trkpt lat="41.92112227303317" lon="2.509272387582363"><ele>675.4</ele><time>2026-04-08T11:16:17.001Z</time></trkpt><trkpt lat="41.92118314703757" lon="2.50920407435949"><ele>680.0</ele><time>2026-04-08T11:16:18.001Z</time></trkpt><trkpt lat="41.921236735008144" lon="2.509089092330846"><ele>680.0</ele><time>2026-04-08T11:16:19.001Z</time></trkpt><trkpt lat="41.92127779818301" lon="2.508948064024435"><ele>680.0</ele><time>2026-04-08T11:16:20.001Z</time></trkpt><trkpt lat="41.92131699241233" lon="2.5087533901941503"><ele>680.0</ele><time>2026-04-08T11:16:21.001Z</time></trkpt><trkpt lat="41.92139421282124" lon="2.508575577901725"><ele>680.0</ele><time>2026-04-08T11:16:22.001Z</time></trkpt><trkpt lat="41.92145225892104" lon="2.508417350150075"><ele>680.0</ele><time>2026-04-08T11:16:23.001Z</time></trkpt><trkpt lat="41.92149842667119" lon="2.508265465892018"><ele>680.0</ele><time>2026-04-08T11:16:24.001Z</time></trkpt><trkpt lat="41.9215747574047" lon="2.508143690156187"><ele>680.0</ele><time>2026-04-08T11:16:25.001Z</time></trkpt><trkpt lat="41.921678987932516" lon="2.508038000157467"><ele>680.0</ele><time>2026-04-08T11:16:26.001Z</time></trkpt><trkpt lat="41.921821161511566" lon="2.5079571424325104"><ele>674.25</ele><time>2026-04-08T11:16:27.001Z</time></trkpt><trkpt lat="41.92191529032987" lon="2.507835548867577"><ele>668.5</ele><time>2026-04-08T11:16:28.001Z</time></trkpt><trkpt lat="41.92201971934527" lon="2.507756567232803"><ele>662.75</ele><time>2026-04-08T11:16:29.001Z</time></trkpt><trkpt lat="41.922149729981726" lon="2.5077388480001033"><ele>657.0</ele><time>2026-04-08T11:16:30.001Z</time></trkpt><trkpt lat="41.92229566724879" lon="2.5076608057925016"><ele>657.0</ele><time>2026-04-08T11:16:31.001Z</time></trkpt><trkpt lat="41.92244068326619" lon="2.5075489420188695"><ele>657.0</ele><time>2026-04-08T11:16:32.001Z</time></trkpt><trkpt lat="41.92256470697112" lon="2.5074358788676365"><ele>657.0</ele><time>2026-04-08T11:16:33.001Z</time></trkpt><trkpt lat="41.92267392891687" lon="2.5073358555824172"><ele>657.0</ele><time>2026-04-08T11:16:34.001Z</time></trkpt><trkpt lat="41.92275688565972" lon="2.50724631464205"><ele>654.4000000000001</ele><time>2026-04-08T11:16:35.001Z</time></trkpt><trkpt lat="41.922833129924676" lon="2.507209036274798"><ele>651.8000000000001</ele><time>2026-04-08T11:16:36.001Z</time></trkpt><trkpt lat="41.922896293326716" lon="2.5072147330826193"><ele>649.2</ele><time>2026-04-08T11:16:37.001Z</time></trkpt><trkpt lat="41.922943145404176" lon="2.5073566488349477"><ele>646.6</ele><time>2026-04-08T11:16:39.001Z</time></trkpt><trkpt lat="41.92293155042776" lon="2.507490815066304"><ele>644.0</ele><time>2026-04-08T11:16:40.001Z</time></trkpt><trkpt lat="41.92295576945949" lon="2.507633178475599"><ele>644.0</ele><time>2026-04-08T11:16:41.001Z</time></trkpt><trkpt lat="41.92300644307753" lon="2.507753740804026"><ele>644.0</ele><time>2026-04-08T11:16:42.001Z</time></trkpt><trkpt lat="41.92303381173543" lon="2.5078626879314774"><ele>644.0</ele><time>2026-04-08T11:16:43.001Z</time></trkpt><trkpt lat="41.92302385826538" lon="2.5079875227599433"><ele>644.0</ele><time>2026-04-08T11:16:44.001Z</time></trkpt><trkpt lat="41.92299146247393" lon="2.508153609202393"><ele>644.0</ele><time>2026-04-08T11:16:45.002Z</time></trkpt><trkpt lat="41.92296522397657" lon="2.508309915467309"><ele>644.25</ele><time>2026-04-08T11:16:46.002Z</time></trkpt><trkpt lat="41.922947448281406" lon="2.508464675329861"><ele>644.5</ele><time>2026-04-08T11:16:47.002Z</time></trkpt><trkpt lat="41.9229516847654" lon="2.508633090490956"><ele>644.75</ele><time>2026-04-08T11:16:48.002Z</time></trkpt><trkpt lat="41.922976953950894" lon="2.508799037831734"><ele>645.0</ele><time>2026-04-08T11:16:49.002Z</time></trkpt><trkpt lat="41.922992681772534" lon="2.5089662612351717"><ele>645.4</ele><time>2026-04-08T11:16:50.002Z</time></trkpt><trkpt lat="41.9229779416428" lon="2.5091121089861614"><ele>645.8</ele><time>2026-04-08T11:16:51.002Z</time></trkpt><trkpt lat="41.922962201780294" lon="2.5092396649325317"><ele>646.2</ele><time>2026-04-08T11:16:52.002Z</time></trkpt><trkpt lat="41.92299456000754" lon="2.509360010392854"><ele>646.6</ele><time>2026-04-08T11:16:53.002Z</time></trkpt><trkpt lat="41.92306189063393" lon="2.509496860034721"><ele>647.0</ele><time>2026-04-08T11:16:54.002Z</time></trkpt><trkpt lat="41.92313605037587" lon="2.5096687446820742"><ele>647.0</ele><time>2026-04-08T11:16:55.002Z</time></trkpt><trkpt lat="41.9231979366765" lon="2.5098350134461556"><ele>647.0</ele><time>2026-04-08T11:16:56.002Z</time></trkpt><trkpt lat="41.92325092205335" lon="2.5099791761798746"><ele>647.0</ele><time>2026-04-08T11:16:57.002Z</time></trkpt><trkpt lat="41.9232896400791" lon="2.5101224309404793"><ele>647.0</ele><time>2026-04-08T11:16:58.002Z</time></trkpt><trkpt lat="41.9232979840608" lon="2.510260284629187"><ele>647.0</ele><time>2026-04-08T11:16:59.002Z</time></trkpt><trkpt lat="41.923296947644815" lon="2.5103871284383734"><ele>647.0</ele><time>2026-04-08T11:17:00.002Z</time></trkpt><trkpt lat="41.92337027529322" lon="2.5104811121043946"><ele>647.0</ele><time>2026-04-08T11:17:01.002Z</time></trkpt><trkpt lat="41.92343046217277" lon="2.51059391555883"><ele>647.0</ele><time>2026-04-08T11:17:02.002Z</time></trkpt><trkpt lat="41.92345637190845" lon="2.5107230464048387"><ele>647.0</ele><time>2026-04-08T11:17:03.002Z</time></trkpt><trkpt lat="41.92345991894941" lon="2.510868593102156"><ele>645.0</ele><time>2026-04-08T11:17:04.002Z</time></trkpt><trkpt lat="41.923464288580945" lon="2.5109983554312123"><ele>643.0</ele><time>2026-04-08T11:17:05.002Z</time></trkpt><trkpt lat="41.923480590141835" lon="2.5110994630693524"><ele>641.0</ele><time>2026-04-08T11:17:06.002Z</time></trkpt><trkpt lat="41.923519151802914" lon="2.5111664693003135"><ele>639.0</ele><time>2026-04-08T11:17:07.002Z</time></trkpt><trkpt lat="41.92365326760229" lon="2.511226500509437"><ele>637.0</ele><time>2026-04-08T11:17:09.002Z</time></trkpt><trkpt lat="41.923753620209226" lon="2.5111797619021408"><ele>637.0</ele><time>2026-04-08T11:17:10.002Z</time></trkpt><trkpt lat="41.92383498209127" lon="2.511104789084592"><ele>637.0</ele><time>2026-04-08T11:17:11.002Z</time></trkpt><trkpt lat="41.92391359375515" lon="2.5111299755824494"><ele>637.0</ele><time>2026-04-08T11:17:12.002Z</time></trkpt><trkpt lat="41.923966640415955" lon="2.5112063106388347"><ele>637.0</ele><time>2026-04-08T11:17:13.002Z</time></trkpt><trkpt lat="41.92401838382865" lon="2.511326984399263"><ele>637.0</ele><time>2026-04-08T11:17:14.002Z</time></trkpt><trkpt lat="41.92407327778463" lon="2.5114659497461305"><ele>640.1666666666667</ele><time>2026-04-08T11:17:15.002Z</time></trkpt><trkpt lat="41.92413489248495" lon="2.511573146818947"><ele>643.3333333333334</ele><time>2026-04-08T11:17:16.002Z</time></trkpt><trkpt lat="41.92419087468071" lon="2.51166514344871"><ele>646.5</ele><time>2026-04-08T11:17:17.002Z</time></trkpt><trkpt lat="41.924243274586175" lon="2.511743734261058"><ele>649.6666666666666</ele><time>2026-04-08T11:17:18.002Z</time></trkpt><trkpt lat="41.9243061341887" lon="2.5117796247683617"><ele>652.8333333333333</ele><time>2026-04-08T11:17:19.002Z</time></trkpt><trkpt lat="41.924372178321214" lon="2.5117912718482236"><ele>656.0</ele><time>2026-04-08T11:17:20.002Z</time></trkpt><trkpt lat="41.92444532036782" lon="2.5117370940070716"><ele>657.0</ele><time>2026-04-08T11:17:21.002Z</time></trkpt><trkpt lat="41.92448203134031" lon="2.5116372201337436"><ele>658.0</ele><time>2026-04-08T11:17:22.002Z</time></trkpt><trkpt lat="41.92447086564641" lon="2.5115212085483787"><ele>659.0</ele><time>2026-04-08T11:17:23.002Z</time></trkpt><trkpt lat="41.92445675510322" lon="2.511398447753453"><ele>660.0</ele><time>2026-04-08T11:17:24.002Z</time></trkpt><trkpt lat="41.92443756255773" lon="2.511253911329428"><ele>661.0</ele><time>2026-04-08T11:17:25.002Z</time></trkpt><trkpt lat="41.92440208409073" lon="2.511104269993997"><ele>657.0</ele><time>2026-04-08T11:17:26.002Z</time></trkpt><trkpt lat="41.92439115152115" lon="2.5109744527048377"><ele>653.0</ele><time>2026-04-08T11:17:27Z</time></trkpt><trkpt lat="41.92439438295606" lon="2.5108358581793584"><ele>649.0</ele><time>2026-04-08T11:17:28Z</time></trkpt><trkpt lat="41.92442412683856" lon="2.5107107908424586"><ele>645.0</ele><time>2026-04-08T11:17:29Z</time></trkpt><trkpt lat="41.92447772083723" lon="2.510612871769065"><ele>641.0</ele><time>2026-04-08T11:17:30Z</time></trkpt><trkpt lat="41.92455707162976" lon="2.510530394678168"><ele>641.0</ele><time>2026-04-08T11:17:31Z</time></trkpt><trkpt lat="41.92464132854388" lon="2.5104566201921714"><ele>641.0</ele><time>2026-04-08T11:17:32Z</time></trkpt><trkpt lat="41.924712354073925" lon="2.510414198921745"><ele>641.0</ele><time>2026-04-08T11:17:33Z</time></trkpt><trkpt lat="41.92481425584766" lon="2.5104583193380274"><ele>641.0</ele><time>2026-04-08T11:17:35Z</time></trkpt><trkpt lat="41.92486450665417" lon="2.51054306251987"><ele>641.0</ele><time>2026-04-08T11:17:36Z</time></trkpt><trkpt lat="41.92495305272268" lon="2.5106186974401776"><ele>639.5999999999999</ele><time>2026-04-08T11:17:37Z</time></trkpt><trkpt lat="41.92506818579163" lon="2.5106953392835476"><ele>638.1999999999999</ele><time>2026-04-08T11:17:38Z</time></trkpt><trkpt lat="41.925172805174626" lon="2.5107646874518723"><ele>636.8</ele><time>2026-04-08T11:17:39Z</time></trkpt><trkpt lat="41.92525576941687" lon="2.5108415536319364"><ele>635.4</ele><time>2026-04-08T11:17:40Z</time></trkpt><trkpt lat="41.92532928111769" lon="2.5109215702036423"><ele>634.0</ele><time>2026-04-08T11:17:41Z</time></trkpt><trkpt lat="41.92541370363586" lon="2.510963181143258"><ele>634.0</ele><time>2026-04-08T11:17:42Z</time></trkpt><trkpt lat="41.92550519796817" lon="2.5109655547519143"><ele>634.0</ele><time>2026-04-08T11:17:43Z</time></trkpt><trkpt lat="41.92561511460729" lon="2.5109621865688156"><ele>634.0</ele><time>2026-04-08T11:17:44Z</time></trkpt><trkpt lat="41.92572718287441" lon="2.5109809006241433"><ele>634.0</ele><time>2026-04-08T11:17:45Z</time></trkpt><trkpt lat="41.92581899498912" lon="2.5109883648758404"><ele>634.0</ele><time>2026-04-08T11:17:46Z</time></trkpt><trkpt lat="41.925903860698284" lon="2.510980515575423"><ele>629.8</ele><time>2026-04-08T11:17:47Z</time></trkpt><trkpt lat="41.925976092566934" lon="2.510864266479693"><ele>625.5999999999999</ele><time>2026-04-08T11:17:48Z</time></trkpt><trkpt lat="41.92605167591695" lon="2.510793027960501"><ele>621.4</ele><time>2026-04-08T11:17:49Z</time></trkpt><trkpt lat="41.926142177483136" lon="2.5107560747417454"><ele>617.1999999999999</ele><time>2026-04-08T11:17:50Z</time></trkpt><trkpt lat="41.926230491035454" lon="2.510768924730589"><ele>613.0</ele><time>2026-04-08T11:17:51Z</time></trkpt><trkpt lat="41.92628722106276" lon="2.510821466262794"><ele>613.0</ele><time>2026-04-08T11:17:52Z</time></trkpt><trkpt lat="41.92633243550649" lon="2.510900181617746"><ele>613.0</ele><time>2026-04-08T11:17:53Z</time></trkpt><trkpt lat="41.926376466117695" lon="2.5110006090248222"><ele>613.0</ele><time>2026-04-08T11:17:54Z</time></trkpt><trkpt lat="41.92643541927154" lon="2.5111339067000595"><ele>613.0</ele><time>2026-04-08T11:17:55Z</time></trkpt><trkpt lat="41.926502996121" lon="2.5112906896628084"><ele>613.0</ele><time>2026-04-08T11:17:56Z</time></trkpt><trkpt lat="41.926566491206636" lon="2.5114501883187623"><ele>608.6666666666667</ele><time>2026-04-08T11:17:57Z</time></trkpt><trkpt lat="41.926642073924825" lon="2.51164106047858"><ele>604.3333333333334</ele><time>2026-04-08T11:17:58Z</time></trkpt><trkpt lat="41.9267158171788" lon="2.511833659320837"><ele>600.0</ele><time>2026-04-08T11:17:59Z</time></trkpt><trkpt lat="41.92678125119885" lon="2.511999506279194"><ele>602.0</ele><time>2026-04-08T11:18:00Z</time></trkpt><trkpt lat="41.9268376568176" lon="2.5121624847301396"><ele>604.0</ele><time>2026-04-08T11:18:01Z</time></trkpt><trkpt lat="41.92687255726677" lon="2.5123282209691418"><ele>606.0</ele><time>2026-04-08T11:18:02Z</time></trkpt><trkpt lat="41.92690651520394" lon="2.5124996849167753"><ele>608.0</ele><time>2026-04-08T11:18:03Z</time></trkpt><trkpt lat="41.926941997660315" lon="2.512665377290556"><ele>608.0</ele><time>2026-04-08T11:18:04Z</time></trkpt><trkpt lat="41.92698913128967" lon="2.5128134227140513"><ele>608.0</ele><time>2026-04-08T11:18:05Z</time></trkpt><trkpt lat="41.927043125345314" lon="2.512943606328878"><ele>608.0</ele><time>2026-04-08T11:18:06Z</time></trkpt><trkpt lat="41.927069503029394" lon="2.513076891639754"><ele>608.0</ele><time>2026-04-08T11:18:07.001Z</time></trkpt><trkpt lat="41.927059068999945" lon="2.513218052967513"><ele>608.0</ele><time>2026-04-08T11:18:08.001Z</time></trkpt><trkpt lat="41.92702849382123" lon="2.513343684752948"><ele>610.5</ele><time>2026-04-08T11:18:09.001Z</time></trkpt><trkpt lat="41.92695968573808" lon="2.5134502627696187"><ele>613.0</ele><time>2026-04-08T11:18:10.001Z</time></trkpt><trkpt lat="41.92689771117561" lon="2.5135515199541896"><ele>615.5</ele><time>2026-04-08T11:18:11.001Z</time></trkpt><trkpt lat="41.926842371200635" lon="2.5136436011679186"><ele>618.0</ele><time>2026-04-08T11:18:12.001Z</time></trkpt><trkpt lat="41.92680368417285" lon="2.5137220233086857"><ele>620.5</ele><time>2026-04-08T11:18:13.001Z</time></trkpt><trkpt lat="41.926783785214454" lon="2.5138261466327334"><ele>623.0</ele><time>2026-04-08T11:18:14.001Z</time></trkpt><trkpt lat="41.92680243768669" lon="2.5139482887636246"><ele>627.4</ele><time>2026-04-08T11:18:15.001Z</time></trkpt><trkpt lat="41.92687552479537" lon="2.514044174113205"><ele>631.8</ele><time>2026-04-08T11:18:16.001Z</time></trkpt><trkpt lat="41.92698173081463" lon="2.5140293530151725"><ele>636.2</ele><time>2026-04-08T11:18:17.001Z</time></trkpt><trkpt lat="41.927077799671984" lon="2.5140551126095527"><ele>640.6</ele><time>2026-04-08T11:18:18.001Z</time></trkpt><trkpt lat="41.92716937689277" lon="2.514082662496447"><ele>645.0</ele><time>2026-04-08T11:18:19.001Z</time></trkpt><trkpt lat="41.92729044422627" lon="2.5141218494265622"><ele>645.0</ele><time>2026-04-08T11:18:20.001Z</time></trkpt><trkpt lat="41.927411782366136" lon="2.5141384005146583"><ele>645.0</ele><time>2026-04-08T11:18:21.001Z</time></trkpt><trkpt lat="41.92753051973087" lon="2.5141194915714125"><ele>645.0</ele><time>2026-04-08T11:18:22.001Z</time></trkpt><trkpt lat="41.92762604489881" lon="2.5140473486727353"><ele>645.0</ele><time>2026-04-08T11:18:23.001Z</time></trkpt><trkpt lat="41.92770606563561" lon="2.513997416786279"><ele>645.0</ele><time>2026-04-08T11:18:24.001Z</time></trkpt><trkpt lat="41.92778298720307" lon="2.5139963826953773"><ele>640.6</ele><time>2026-04-08T11:18:25.001Z</time></trkpt><trkpt lat="41.92785405232625" lon="2.514048007098562"><ele>636.2</ele><time>2026-04-08T11:18:26.001Z</time></trkpt><trkpt lat="41.92791794687798" lon="2.5141551781423765"><ele>631.8</ele><time>2026-04-08T11:18:27.001Z</time></trkpt><trkpt lat="41.92802533457416" lon="2.5142283527648055"><ele>627.4</ele><time>2026-04-08T11:18:28.001Z</time></trkpt><trkpt lat="41.928130533835805" lon="2.514302105334101"><ele>623.0</ele><time>2026-04-08T11:18:29.001Z</time></trkpt><trkpt lat="41.928228328221365" lon="2.5143551004120033"><ele>623.0</ele><time>2026-04-08T11:18:30.001Z</time></trkpt><trkpt lat="41.928297587994074" lon="2.5144265226263323"><ele>623.0</ele><time>2026-04-08T11:18:31.001Z</time></trkpt><trkpt lat="41.92833118375036" lon="2.514518910031809"><ele>623.0</ele><time>2026-04-08T11:18:32.001Z</time></trkpt><trkpt lat="41.92833325541462" lon="2.5146388259645405"><ele>623.0</ele><time>2026-04-08T11:18:33.001Z</time></trkpt><trkpt lat="41.92832229436915" lon="2.5147858932459566"><ele>623.0</ele><time>2026-04-08T11:18:34.001Z</time></trkpt><trkpt lat="41.92833038593802" lon="2.5149602257725743"><ele>625.25</ele><time>2026-04-08T11:18:35.001Z</time></trkpt><trkpt lat="41.92835265103188" lon="2.51513930309813"><ele>627.5</ele><time>2026-04-08T11:18:36.001Z</time></trkpt><trkpt lat="41.92837481796238" lon="2.5153324092409046"><ele>629.75</ele><time>2026-04-08T11:18:37.001Z</time></trkpt><trkpt lat="41.928402682346906" lon="2.515529958373627"><ele>632.0</ele><time>2026-04-08T11:18:38.001Z</time></trkpt><trkpt lat="41.92843349329127" lon="2.5157271304448816"><ele>632.0</ele><time>2026-04-08T11:18:39.001Z</time></trkpt><trkpt lat="41.928457977643156" lon="2.5159184217524406"><ele>632.0</ele><time>2026-04-08T11:18:40.001Z</time></trkpt><trkpt lat="41.928483320877866" lon="2.516101217751064"><ele>632.0</ele><time>2026-04-08T11:18:41.001Z</time></trkpt><trkpt lat="41.9285191115617" lon="2.5162683839432503"><ele>632.0</ele><time>2026-04-08T11:18:42.001Z</time></trkpt><trkpt lat="41.928553418497536" lon="2.5164171341576407"><ele>634.1666666666666</ele><time>2026-04-08T11:18:43.001Z</time></trkpt><trkpt lat="41.92858270626895" lon="2.516544666939115"><ele>636.3333333333333</ele><time>2026-04-08T11:18:44.001Z</time></trkpt><trkpt lat="41.92861579338775" lon="2.5166562100929832"><ele>638.5</ele><time>2026-04-08T11:18:45.001Z</time></trkpt><trkpt lat="41.92866148726548" lon="2.516724383676409"><ele>640.6666666666666</ele><time>2026-04-08T11:18:46.001Z</time></trkpt><trkpt lat="41.92871993630195" lon="2.516788466389799"><ele>642.8333333333334</ele><time>2026-04-08T11:18:47.001Z</time></trkpt><trkpt lat="41.92881308018078" lon="2.5167928022543506"><ele>645.0</ele><time>2026-04-08T11:18:48.001Z</time></trkpt><trkpt lat="41.928908367880894" lon="2.5167289674867717"><ele>645.0</ele><time>2026-04-08T11:18:49.001Z</time></trkpt><trkpt lat="41.92900400564862" lon="2.516651997980614"><ele>645.0</ele><time>2026-04-08T11:18:50.001Z</time></trkpt><trkpt lat="41.92907981826914" lon="2.5165361086289497"><ele>645.0</ele><time>2026-04-08T11:18:51.001Z</time></trkpt><trkpt lat="41.92913901899923" lon="2.516393753830956"><ele>645.0</ele><time>2026-04-08T11:18:52.001Z</time></trkpt><trkpt lat="41.92918371922242" lon="2.5161937355899266"><ele>641.75</ele><time>2026-04-08T11:18:53.001Z</time></trkpt><trkpt lat="41.92922528496438" lon="2.5159702116997114"><ele>638.5</ele><time>2026-04-08T11:18:54.001Z</time></trkpt><trkpt lat="41.929247449897716" lon="2.5157761022287226"><ele>635.25</ele><time>2026-04-08T11:18:55.001Z</time></trkpt><trkpt lat="41.929258222152846" lon="2.5156057737773394"><ele>632.0</ele><time>2026-04-08T11:18:56.001Z</time></trkpt><trkpt lat="41.929284792254364" lon="2.5154616518075583"><ele>636.75</ele><time>2026-04-08T11:18:57.001Z</time></trkpt><trkpt lat="41.92935002268794" lon="2.515323057276164"><ele>641.5</ele><time>2026-04-08T11:18:58.002Z</time></trkpt><trkpt lat="41.92942427175211" lon="2.5151550443751063"><ele>646.25</ele><time>2026-04-08T11:18:59.002Z</time></trkpt><trkpt lat="41.929491391573706" lon="2.5149858496069895"><ele>651.0</ele><time>2026-04-08T11:19:00.002Z</time></trkpt><trkpt lat="41.92955561017825" lon="2.5148391156019265"><ele>651.0</ele><time>2026-04-08T11:19:01.002Z</time></trkpt><trkpt lat="41.92960728946955" lon="2.5147067963937606"><ele>651.0</ele><time>2026-04-08T11:19:02.002Z</time></trkpt><trkpt lat="41.929617624678635" lon="2.51455543661733"><ele>651.0</ele><time>2026-04-08T11:19:03.002Z</time></trkpt><trkpt lat="41.92960895655373" lon="2.514368881092508"><ele>651.0</ele><time>2026-04-08T11:19:04.002Z</time></trkpt><trkpt lat="41.92958023286015" lon="2.514171868409271"><ele>648.75</ele><time>2026-04-08T11:19:05.002Z</time></trkpt><trkpt lat="41.929564925279244" lon="2.5139932074325584"><ele>646.5</ele><time>2026-04-08T11:19:06.002Z</time></trkpt><trkpt lat="41.92957216212371" lon="2.513822900090234"><ele>644.25</ele><time>2026-04-08T11:19:07.002Z</time></trkpt><trkpt lat="41.92959901988679" lon="2.513647420969404"><ele>642.0</ele><time>2026-04-08T11:19:08.002Z</time></trkpt><trkpt lat="41.92964596714957" lon="2.5134674747287615"><ele>637.5</ele><time>2026-04-08T11:19:09.002Z</time></trkpt><trkpt lat="41.92971268767752" lon="2.5132860170484506"><ele>633.0</ele><time>2026-04-08T11:19:10.002Z</time></trkpt><trkpt lat="41.92975768648039" lon="2.513110549419344"><ele>628.5</ele><time>2026-04-08T11:19:11.002Z</time></trkpt><trkpt lat="41.929772982797594" lon="2.5129496438955177"><ele>624.0</ele><time>2026-04-08T11:19:12.002Z</time></trkpt><trkpt lat="41.92980914778156" lon="2.512833105410361"><ele>624.0</ele><time>2026-04-08T11:19:13.002Z</time></trkpt><trkpt lat="41.92984910585582" lon="2.5127386859283183"><ele>624.0</ele><time>2026-04-08T11:19:14.002Z</time></trkpt><trkpt lat="41.92993656081124" lon="2.512722154329148"><ele>624.0</ele><time>2026-04-08T11:19:16.002Z</time></trkpt><trkpt lat="41.929993340129705" lon="2.5127963446354453"><ele>624.0</ele><time>2026-04-08T11:19:17.002Z</time></trkpt><trkpt lat="41.93001721203126" lon="2.5129109089838813"><ele>624.0</ele><time>2026-04-08T11:19:18.002Z</time></trkpt><trkpt lat="41.93004867389491" lon="2.5130293798804115"><ele>624.0</ele><time>2026-04-08T11:19:19.002Z</time></trkpt><trkpt lat="41.93012513233133" lon="2.513145099113325"><ele>615.0</ele><time>2026-04-08T11:19:20.002Z</time></trkpt><trkpt lat="41.93021275924581" lon="2.513279024887142"><ele>606.0</ele><time>2026-04-08T11:19:21.002Z</time></trkpt><trkpt lat="41.93028471082384" lon="2.5134146299245694"><ele>597.0</ele><time>2026-04-08T11:19:22.002Z</time></trkpt><trkpt lat="41.93033491390753" lon="2.5135594631376263"><ele>588.0</ele><time>2026-04-08T11:19:23.002Z</time></trkpt><trkpt lat="41.930369291144515" lon="2.5137118046405966"><ele>591.1999999999999</ele><time>2026-04-08T11:19:24.002Z</time></trkpt><trkpt lat="41.9303767380472" lon="2.513861934534515"><ele>594.4</ele><time>2026-04-08T11:19:25.002Z</time></trkpt><trkpt lat="41.93036405665233" lon="2.5139995183646837"><ele>597.5999999999999</ele><time>2026-04-08T11:19:26.002Z</time></trkpt><trkpt lat="41.93039626383647" lon="2.5141138076764036"><ele>600.8</ele><time>2026-04-08T11:19:27.002Z</time></trkpt><trkpt lat="41.93045706177337" lon="2.514192117954271"><ele>604.0</ele><time>2026-04-08T11:19:28.002Z</time></trkpt><trkpt lat="41.9305363962321" lon="2.514245214354126"><ele>604.0</ele><time>2026-04-08T11:19:29.002Z</time></trkpt><trkpt lat="41.930624994655176" lon="2.5143117979654197"><ele>604.0</ele><time>2026-04-08T11:19:30.002Z</time></trkpt><trkpt lat="41.93068275400864" lon="2.5144098275569906"><ele>604.0</ele><time>2026-04-08T11:19:31.002Z</time></trkpt><trkpt lat="41.93071160436608" lon="2.5145552778491673"><ele>604.0</ele><time>2026-04-08T11:19:32.002Z</time></trkpt><trkpt lat="41.93075888928757" lon="2.514725335978315"><ele>604.0</ele><time>2026-04-08T11:19:33Z</time></trkpt><trkpt lat="41.93081710141873" lon="2.514883480440842"><ele>603.75</ele><time>2026-04-08T11:19:34Z</time></trkpt><trkpt lat="41.930854907183004" lon="2.515035616200438"><ele>603.5</ele><time>2026-04-08T11:19:35Z</time></trkpt><trkpt lat="41.93088380336424" lon="2.5151834074161705"><ele>603.25</ele><time>2026-04-08T11:19:36Z</time></trkpt><trkpt lat="41.930939031426654" lon="2.5153066706057476"><ele>603.0</ele><time>2026-04-08T11:19:37Z</time></trkpt><trkpt lat="41.93102731108217" lon="2.5154108972869897"><ele>603.0</ele><time>2026-04-08T11:19:38Z</time></trkpt><trkpt lat="41.931133404829225" lon="2.5154785968442206"><ele>603.0</ele><time>2026-04-08T11:19:39Z</time></trkpt><trkpt lat="41.93122681045468" lon="2.5155259267313044"><ele>603.0</ele><time>2026-04-08T11:19:40Z</time></trkpt><trkpt lat="41.93131190424452" lon="2.515606558792543"><ele>603.0</ele><time>2026-04-08T11:19:41Z</time></trkpt><trkpt lat="41.93138432682503" lon="2.515724383417906"><ele>603.0</ele><time>2026-04-08T11:19:42Z</time></trkpt><trkpt lat="41.93144871441349" lon="2.5158666231949973"><ele>603.0</ele><time>2026-04-08T11:19:43Z</time></trkpt><trkpt lat="41.93152109875464" lon="2.5159853271414234"><ele>603.0</ele><time>2026-04-08T11:19:44Z</time></trkpt><trkpt lat="41.93162161093163" lon="2.5160703122234134"><ele>603.0</ele><time>2026-04-08T11:19:45Z</time></trkpt><trkpt lat="41.93171096986252" lon="2.516158771196894"><ele>603.0</ele><time>2026-04-08T11:19:46Z</time></trkpt><trkpt lat="41.93178066906013" lon="2.5162497966516173"><ele>603.0</ele><time>2026-04-08T11:19:47Z</time></trkpt><trkpt lat="41.931825364596286" lon="2.516353046304901"><ele>607.0</ele><time>2026-04-08T11:19:48Z</time></trkpt><trkpt lat="41.93185088857039" lon="2.516468692127467"><ele>611.0</ele><time>2026-04-08T11:19:49Z</time></trkpt><trkpt lat="41.93188492882502" lon="2.516549249780932"><ele>615.0</ele><time>2026-04-08T11:19:50Z</time></trkpt><trkpt lat="41.93195207491908" lon="2.5165882428498594"><ele>619.0</ele><time>2026-04-08T11:19:51Z</time></trkpt><trkpt lat="41.932022579119575" lon="2.5165989482097038"><ele>623.0</ele><time>2026-04-08T11:19:52Z</time></trkpt><trkpt lat="41.9321014138783" lon="2.516570651612033"><ele>627.0</ele><time>2026-04-08T11:19:53Z</time></trkpt><trkpt lat="41.93216059649435" lon="2.516508033200938"><ele>627.0</ele><time>2026-04-08T11:19:54Z</time></trkpt><trkpt lat="41.93219818491333" lon="2.5164110127842068"><ele>627.0</ele><time>2026-04-08T11:19:55Z</time></trkpt><trkpt lat="41.93223684915375" lon="2.5162831717129843"><ele>627.0</ele><time>2026-04-08T11:19:56Z</time></trkpt><trkpt lat="41.932257192760794" lon="2.5161476968257706"><ele>627.0</ele><time>2026-04-08T11:19:57Z</time></trkpt><trkpt lat="41.93225505596214" lon="2.5160129560516524"><ele>627.0</ele><time>2026-04-08T11:19:58Z</time></trkpt><trkpt lat="41.93225714975735" lon="2.515898571023474"><ele>620.4</ele><time>2026-04-08T11:19:59Z</time></trkpt><trkpt lat="41.9323056326882" lon="2.515764541338547"><ele>613.8000000000001</ele><time>2026-04-08T11:20:01Z</time></trkpt><trkpt lat="41.93237728726153" lon="2.515730196052824"><ele>607.2</ele><time>2026-04-08T11:20:02.001Z</time></trkpt><trkpt lat="41.93244735011257" lon="2.5156442377742514"><ele>600.6</ele><time>2026-04-08T11:20:03.001Z</time></trkpt><trkpt lat="41.932507437499716" lon="2.515600753545597"><ele>594.0</ele><time>2026-04-08T11:20:04.001Z</time></trkpt><trkpt lat="41.93261969547188" lon="2.5157107455510204"><ele>590.25</ele><time>2026-04-08T11:20:06.001Z</time></trkpt><trkpt lat="41.93273864956656" lon="2.5157507278942326"><ele>586.5</ele><time>2026-04-08T11:20:07.001Z</time></trkpt><trkpt lat="41.932871423561785" lon="2.515770646229753"><ele>582.75</ele><time>2026-04-08T11:20:08.001Z</time></trkpt><trkpt lat="41.93298286743035" lon="2.515824361655831"><ele>579.0</ele><time>2026-04-08T11:20:09.001Z</time></trkpt><trkpt lat="41.93309017249139" lon="2.5158887747348544"><ele>579.0</ele><time>2026-04-08T11:20:10.001Z</time></trkpt><trkpt lat="41.93318597575063" lon="2.5159551014202677"><ele>579.0</ele><time>2026-04-08T11:20:11.001Z</time></trkpt><trkpt lat="41.933265316137174" lon="2.516040552618949"><ele>579.0</ele><time>2026-04-08T11:20:12.001Z</time></trkpt><trkpt lat="41.93332441605042" lon="2.516151077555118"><ele>579.0</ele><time>2026-04-08T11:20:13.001Z</time></trkpt><trkpt lat="41.93336670114091" lon="2.5162830877464155"><ele>579.0</ele><time>2026-04-08T11:20:14.001Z</time></trkpt><trkpt lat="41.93340450471602" lon="2.5164026867945104"><ele>578.5</ele><time>2026-04-08T11:20:15.001Z</time></trkpt><trkpt lat="41.93349742561232" lon="2.516490367421773"><ele>578.0</ele><time>2026-04-08T11:20:16.001Z</time></trkpt><trkpt lat="41.9336209690433" lon="2.5165367233777864"><ele>577.5</ele><time>2026-04-08T11:20:17.001Z</time></trkpt><trkpt lat="41.93373646538109" lon="2.5165466781220327"><ele>577.0</ele><time>2026-04-08T11:20:18.001Z</time></trkpt><trkpt lat="41.933838784690174" lon="2.5165961296566954"><ele>577.0</ele><time>2026-04-08T11:20:19.001Z</time></trkpt><trkpt lat="41.933923568216954" lon="2.5166795057783555"><ele>577.0</ele><time>2026-04-08T11:20:20.001Z</time></trkpt><trkpt lat="41.93399188744134" lon="2.516808555244777"><ele>577.0</ele><time>2026-04-08T11:20:21.001Z</time></trkpt><trkpt lat="41.93410478072422" lon="2.5168469435152248"><ele>577.0</ele><time>2026-04-08T11:20:22.001Z</time></trkpt><trkpt lat="41.93423226399901" lon="2.5168885362597595"><ele>572.25</ele><time>2026-04-08T11:20:23.001Z</time></trkpt><trkpt lat="41.93435458475375" lon="2.5169654151682606"><ele>567.5</ele><time>2026-04-08T11:20:24.001Z</time></trkpt><trkpt lat="41.934470659395046" lon="2.517019438855936"><ele>562.75</ele><time>2026-04-08T11:20:25.001Z</time></trkpt><trkpt lat="41.93459301016909" lon="2.5170423833142914"><ele>558.0</ele><time>2026-04-08T11:20:26.001Z</time></trkpt><trkpt lat="41.93472109122735" lon="2.5169809547795237"><ele>558.0</ele><time>2026-04-08T11:20:27.001Z</time></trkpt><trkpt lat="41.934845299236564" lon="2.517012239796384"><ele>558.0</ele><time>2026-04-08T11:20:28.001Z</time></trkpt><trkpt lat="41.9349759102" lon="2.5170382521451304"><ele>558.0</ele><time>2026-04-08T11:20:29.001Z</time></trkpt><trkpt lat="41.9350985906508" lon="2.5170184843793013"><ele>558.0</ele><time>2026-04-08T11:20:30.001Z</time></trkpt><trkpt lat="41.935202511158316" lon="2.5170113053198886"><ele>559.8</ele><time>2026-04-08T11:20:31.001Z</time></trkpt><trkpt lat="41.93529446310309" lon="2.5170302222538026"><ele>561.5999999999999</ele><time>2026-04-08T11:20:32.001Z</time></trkpt><trkpt lat="41.93537144494609" lon="2.517084416282439"><ele>563.4000000000001</ele><time>2026-04-08T11:20:33.001Z</time></trkpt><trkpt lat="41.9354425547238" lon="2.5171697184074096"><ele>565.2</ele><time>2026-04-08T11:20:34.001Z</time></trkpt><trkpt lat="41.93551904081338" lon="2.5172963931518537"><ele>567.0</ele><time>2026-04-08T11:20:35.001Z</time></trkpt><trkpt lat="41.9355992435132" lon="2.517411592012721"><ele>567.0</ele><time>2026-04-08T11:20:36.001Z</time></trkpt><trkpt lat="41.93569439773344" lon="2.517495837814607"><ele>567.0</ele><time>2026-04-08T11:20:37.001Z</time></trkpt><trkpt lat="41.935805171796446" lon="2.5175488646693007"><ele>567.0</ele><time>2026-04-08T11:20:38.001Z</time></trkpt><trkpt lat="41.935911344386746" lon="2.5175925092010054"><ele>567.0</ele><time>2026-04-08T11:20:39.001Z</time></trkpt><trkpt lat="41.93599290908928" lon="2.5176483076556564"><ele>567.0</ele><time>2026-04-08T11:20:40.001Z</time></trkpt><trkpt lat="41.93605463632058" lon="2.5177116778170143"><ele>562.0</ele><time>2026-04-08T11:20:41.001Z</time></trkpt><trkpt lat="41.936085822737105" lon="2.5178016023006977"><ele>557.0</ele><time>2026-04-08T11:20:42.001Z</time></trkpt><trkpt lat="41.93608587905227" lon="2.517899762054204"><ele>552.0</ele><time>2026-04-08T11:20:43.001Z</time></trkpt><trkpt lat="41.93603264101569" lon="2.517999061076133"><ele>547.0</ele><time>2026-04-08T11:20:44.001Z</time></trkpt><trkpt lat="41.93597628199752" lon="2.5181233933337746"><ele>542.0</ele><time>2026-04-08T11:20:45.001Z</time></trkpt><trkpt lat="41.935908679071304" lon="2.5182702276615765"><ele>548.75</ele><time>2026-04-08T11:20:46.001Z</time></trkpt><trkpt lat="41.935839658543934" lon="2.518418782935068"><ele>555.5</ele><time>2026-04-08T11:20:47.001Z</time></trkpt><trkpt lat="41.93577378992402" lon="2.518560554297987"><ele>562.25</ele><time>2026-04-08T11:20:48.001Z</time></trkpt><trkpt lat="41.935720532037266" lon="2.518705559319675"><ele>569.0</ele><time>2026-04-08T11:20:49.001Z</time></trkpt><trkpt lat="41.935690983512146" lon="2.5188598284123063"><ele>569.0</ele><time>2026-04-08T11:20:50.001Z</time></trkpt><trkpt lat="41.9356772604987" lon="2.5190102675231767"><ele>569.0</ele><time>2026-04-08T11:20:51.001Z</time></trkpt><trkpt lat="41.93568057858836" lon="2.5191687958893363"><ele>569.0</ele><time>2026-04-08T11:20:52.001Z</time></trkpt><trkpt lat="41.935734752293875" lon="2.5193458995675537"><ele>569.0</ele><time>2026-04-08T11:20:53.001Z</time></trkpt><trkpt lat="41.935808543020016" lon="2.5195246047656155"><ele>558.5</ele><time>2026-04-08T11:20:54.001Z</time></trkpt><trkpt lat="41.93588900577154" lon="2.519706986226435"><ele>548.0</ele><time>2026-04-08T11:20:55.001Z</time></trkpt><trkpt lat="41.93598088609935" lon="2.519865281502325"><ele>537.5</ele><time>2026-04-08T11:20:56.001Z</time></trkpt><trkpt lat="41.936063863167234" lon="2.5200183619876944"><ele>527.0</ele><time>2026-04-08T11:20:57.001Z</time></trkpt><trkpt lat="41.93613998651761" lon="2.5201581441927385"><ele>527.0</ele><time>2026-04-08T11:20:58.002Z</time></trkpt><trkpt lat="41.93622851315157" lon="2.5202642354829234"><ele>527.0</ele><time>2026-04-08T11:20:59.002Z</time></trkpt><trkpt lat="41.936266742516324" lon="2.52037925576194"><ele>527.0</ele><time>2026-04-08T11:21:00.002Z</time></trkpt><trkpt lat="41.93624342005359" lon="2.52050294290405"><ele>527.0</ele><time>2026-04-08T11:21:01.002Z</time></trkpt><trkpt lat="41.93622122439508" lon="2.520630056674224"><ele>527.0</ele><time>2026-04-08T11:21:02.002Z</time></trkpt><trkpt lat="41.936171809630686" lon="2.5207513054813893"><ele>526.8000000000001</ele><time>2026-04-08T11:21:03.002Z</time></trkpt><trkpt lat="41.93611265099366" lon="2.52087887626795"><ele>526.6</ele><time>2026-04-08T11:21:04.002Z</time></trkpt><trkpt lat="41.93606819261454" lon="2.5210059479653966"><ele>526.4000000000001</ele><time>2026-04-08T11:21:05.002Z</time></trkpt><trkpt lat="41.936080155813514" lon="2.521148264647044"><ele>526.2</ele><time>2026-04-08T11:21:06.002Z</time></trkpt><trkpt lat="41.93608634555954" lon="2.521263770515301"><ele>526.0</ele><time>2026-04-08T11:21:07.002Z</time></trkpt><trkpt lat="41.93607194838289" lon="2.521354830375838"><ele>524.8</ele><time>2026-04-08T11:21:08.002Z</time></trkpt><trkpt lat="41.93600986708529" lon="2.5214437301874773"><ele>523.6</ele><time>2026-04-08T11:21:09.002Z</time></trkpt><trkpt lat="41.935913886714246" lon="2.5215333394698907"><ele>522.4</ele><time>2026-04-08T11:21:10.002Z</time></trkpt><trkpt lat="41.93582912507606" lon="2.52162099040787"><ele>521.2</ele><time>2026-04-08T11:21:11.002Z</time></trkpt><trkpt lat="41.93576004687389" lon="2.521703010079931"><ele>520.0</ele><time>2026-04-08T11:21:12.002Z</time></trkpt><trkpt lat="41.93570932805959" lon="2.5217858569508866"><ele>519.6666666666667</ele><time>2026-04-08T11:21:13.002Z</time></trkpt><trkpt lat="41.93566905304273" lon="2.5218581661025907"><ele>519.3333333333334</ele><time>2026-04-08T11:21:14.002Z</time></trkpt><trkpt lat="41.935680370393094" lon="2.5219663058404325"><ele>519.0</ele><time>2026-04-08T11:21:15.002Z</time></trkpt><trkpt lat="41.93576066513611" lon="2.5220608856686457"><ele>518.6666666666666</ele><time>2026-04-08T11:21:16.002Z</time></trkpt><trkpt lat="41.93585185491299" lon="2.52213210203227"><ele>518.3333333333333</ele><time>2026-04-08T11:21:17.002Z</time></trkpt><trkpt lat="41.935929428396626" lon="2.5221902447439954"><ele>518.0</ele><time>2026-04-08T11:21:18.002Z</time></trkpt><trkpt lat="41.93597448210805" lon="2.52225090312678"><ele>518.0</ele><time>2026-04-08T11:21:19.002Z</time></trkpt><trkpt lat="41.935999110182" lon="2.522341344344542"><ele>518.0</ele><time>2026-04-08T11:21:20.002Z</time></trkpt><trkpt lat="41.93600445290381" lon="2.5224773588343967"><ele>518.0</ele><time>2026-04-08T11:21:21.002Z</time></trkpt><trkpt lat="41.936023798049916" lon="2.5226207632503175"><ele>518.0</ele><time>2026-04-08T11:21:22.002Z</time></trkpt><trkpt lat="41.936098840879296" lon="2.5227371497991644"><ele>518.0</ele><time>2026-04-08T11:21:23.002Z</time></trkpt><trkpt lat="41.93617290777707" lon="2.5228746109993856"><ele>521.0</ele><time>2026-04-08T11:21:24.002Z</time></trkpt><trkpt lat="41.9362499616633" lon="2.5229794279862503"><ele>524.0</ele><time>2026-04-08T11:21:25.002Z</time></trkpt><trkpt lat="41.9362781032474" lon="2.5230992827984022"><ele>527.0</ele><time>2026-04-08T11:21:26.002Z</time></trkpt><trkpt lat="41.936257013150865" lon="2.5232183322097135"><ele>530.0</ele><time>2026-04-08T11:21:27.002Z</time></trkpt><trkpt lat="41.936303869632155" lon="2.523331592849977"><ele>533.0</ele><time>2026-04-08T11:21:28.002Z</time></trkpt><trkpt lat="41.93643240060309" lon="2.523386101611535"><ele>533.0</ele><time>2026-04-08T11:21:29.002Z</time></trkpt><trkpt lat="41.936557853639314" lon="2.5234597750192713"><ele>533.0</ele><time>2026-04-08T11:21:30.002Z</time></trkpt><trkpt lat="41.93666390238965" lon="2.5235306415244474"><ele>533.0</ele><time>2026-04-08T11:21:31.002Z</time></trkpt><trkpt lat="41.936748473732806" lon="2.52362138933014"><ele>533.0</ele><time>2026-04-08T11:21:32.002Z</time></trkpt><trkpt lat="41.93682786739708" lon="2.5237653790185997"><ele>527.75</ele><time>2026-04-08T11:21:33.002Z</time></trkpt><trkpt lat="41.93693364316276" lon="2.523893570726222"><ele>522.5</ele><time>2026-04-08T11:21:34.002Z</time></trkpt><trkpt lat="41.93703366746451" lon="2.5240228809255365"><ele>517.25</ele><time>2026-04-08T11:21:35.002Z</time></trkpt><trkpt lat="41.93713255987473" lon="2.524127304317867"><ele>512.0</ele><time>2026-04-08T11:21:36.002Z</time></trkpt><trkpt lat="41.93721676921424" lon="2.5242280665809"><ele>511.99999999999994</ele><time>2026-04-08T11:21:37.002Z</time></trkpt><trkpt lat="41.93726540471172" lon="2.5243145094723682"><ele>512.0</ele><time>2026-04-08T11:21:38.002Z</time></trkpt><trkpt lat="41.93729500698483" lon="2.5244031273894034"><ele>512.0</ele><time>2026-04-08T11:21:39.001Z</time></trkpt><trkpt lat="41.937275289158016" lon="2.5245084414126064"><ele>512.0</ele><time>2026-04-08T11:21:40.001Z</time></trkpt><trkpt lat="41.93725625724894" lon="2.5246355276480412"><ele>511.99999999999994</ele><time>2026-04-08T11:21:41.001Z</time></trkpt><trkpt lat="41.9372514264874" lon="2.5247734089291094"><ele>512.0</ele><time>2026-04-08T11:21:42.001Z</time></trkpt><trkpt lat="41.937255655500216" lon="2.5248839097505296"><ele>510.16666666666663</ele><time>2026-04-08T11:21:43.001Z</time></trkpt><trkpt lat="41.93728063851874" lon="2.524975085570569"><ele>508.3333333333333</ele><time>2026-04-08T11:21:44.001Z</time></trkpt><trkpt lat="41.93734972979554" lon="2.5250277652513176"><ele>506.5</ele><time>2026-04-08T11:21:45.001Z</time></trkpt><trkpt lat="41.93742159863529" lon="2.5250462568832868"><ele>504.66666666666663</ele><time>2026-04-08T11:21:46.001Z</time></trkpt><trkpt lat="41.93749418717178" lon="2.5250407298497217"><ele>502.8333333333333</ele><time>2026-04-08T11:21:47.001Z</time></trkpt><trkpt lat="41.937569325676925" lon="2.525137499076247"><ele>501.0</ele><time>2026-04-08T11:21:49.001Z</time></trkpt><trkpt lat="41.937521777734034" lon="2.525339139631042"><ele>500.4</ele><time>2026-04-08T11:21:51.001Z</time></trkpt><trkpt lat="41.93747041141272" lon="2.5254639117454962"><ele>499.8</ele><time>2026-04-08T11:21:52.001Z</time></trkpt><trkpt lat="41.93744135845554" lon="2.5255763770690454"><ele>499.19999999999993</ele><time>2026-04-08T11:21:53.001Z</time></trkpt><trkpt lat="41.93745424545222" lon="2.525692155627833"><ele>498.59999999999997</ele><time>2026-04-08T11:21:54.001Z</time></trkpt><trkpt lat="41.937501991147734" lon="2.5258138060972852"><ele>498.0</ele><time>2026-04-08T11:21:55.001Z</time></trkpt><trkpt lat="41.93758156038245" lon="2.5259379985567167"><ele>498.0</ele><time>2026-04-08T11:21:56.001Z</time></trkpt><trkpt lat="41.93767088298167" lon="2.5260392163491505"><ele>498.0</ele><time>2026-04-08T11:21:57.001Z</time></trkpt><trkpt lat="41.937760336104404" lon="2.526158536935189"><ele>498.0</ele><time>2026-04-08T11:21:58.001Z</time></trkpt><trkpt lat="41.9378351679023" lon="2.526306316377502"><ele>498.0</ele><time>2026-04-08T11:21:59.001Z</time></trkpt><trkpt lat="41.937900659523606" lon="2.526452837093416"><ele>497.2</ele><time>2026-04-08T11:22:00.001Z</time></trkpt><trkpt lat="41.93795424775741" lon="2.5266005986045603"><ele>496.4</ele><time>2026-04-08T11:22:01.001Z</time></trkpt><trkpt lat="41.938016089821915" lon="2.526730493685974"><ele>495.59999999999997</ele><time>2026-04-08T11:22:02.001Z</time></trkpt><trkpt lat="41.938081795723186" lon="2.5268312009202805"><ele>494.79999999999995</ele><time>2026-04-08T11:22:03.001Z</time></trkpt><trkpt lat="41.938126554995094" lon="2.5269210655046725"><ele>494.0</ele><time>2026-04-08T11:22:04.001Z</time></trkpt><trkpt lat="41.93813935124134" lon="2.527009928422424"><ele>491.75</ele><time>2026-04-08T11:22:05.001Z</time></trkpt><trkpt lat="41.93806192717558" lon="2.5271489260223365"><ele>489.5</ele><time>2026-04-08T11:22:07.001Z</time></trkpt><trkpt lat="41.937972422100835" lon="2.527202222079145"><ele>487.25</ele><time>2026-04-08T11:22:08.001Z</time></trkpt><trkpt lat="41.937868812683995" lon="2.5272726808627928"><ele>485.0</ele><time>2026-04-08T11:22:09.001Z</time></trkpt><trkpt lat="41.93776672071591" lon="2.5273888270950877"><ele>485.0</ele><time>2026-04-08T11:22:10.001Z</time></trkpt><trkpt lat="41.937671894815615" lon="2.5275378147362897"><ele>485.0</ele><time>2026-04-08T11:22:11.001Z</time></trkpt><trkpt lat="41.9375952877813" lon="2.5276859810172256"><ele>485.0</ele><time>2026-04-08T11:22:12.001Z</time></trkpt><trkpt lat="41.93751690250589" lon="2.527811788587499"><ele>485.0</ele><time>2026-04-08T11:22:13.001Z</time></trkpt><trkpt lat="41.93743120728638" lon="2.5278993210913114"><ele>490.75</ele><time>2026-04-08T11:22:14.001Z</time></trkpt><trkpt lat="41.93736628486263" lon="2.5279947594029197"><ele>496.5</ele><time>2026-04-08T11:22:15.001Z</time></trkpt><trkpt lat="41.93730248026379" lon="2.5281122935897438"><ele>502.25</ele><time>2026-04-08T11:22:16.001Z</time></trkpt><trkpt lat="41.93728679540063" lon="2.5282898747809"><ele>508.0</ele><time>2026-04-08T11:22:17.001Z</time></trkpt><trkpt lat="41.93726647676961" lon="2.5284462584740424"><ele>508.0</ele><time>2026-04-08T11:22:18.001Z</time></trkpt><trkpt lat="41.93727008341362" lon="2.5286123592475898"><ele>508.0</ele><time>2026-04-08T11:22:19.001Z</time></trkpt><trkpt lat="41.93730119676672" lon="2.5288123454400027"><ele>508.0</ele><time>2026-04-08T11:22:20.001Z</time></trkpt><trkpt lat="41.93733233964852" lon="2.529005440649003"><ele>508.0</ele><time>2026-04-08T11:22:21.001Z</time></trkpt><trkpt lat="41.937335386653515" lon="2.529187220770944"><ele>506.4</ele><time>2026-04-08T11:22:22.001Z</time></trkpt><trkpt lat="41.93732645801588" lon="2.5293447784128635"><ele>504.79999999999995</ele><time>2026-04-08T11:22:23.001Z</time></trkpt><trkpt lat="41.93733686901343" lon="2.5294893556970055"><ele>503.2</ele><time>2026-04-08T11:22:24.001Z</time></trkpt><trkpt lat="41.93734076938495" lon="2.529620936166139"><ele>501.6</ele><time>2026-04-08T11:22:25.001Z</time></trkpt><trkpt lat="41.937410470990294" lon="2.5297270356357076"><ele>500.0</ele><time>2026-04-08T11:22:26.001Z</time></trkpt><trkpt lat="41.93743956321832" lon="2.5298260976981943"><ele>499.99999999999994</ele><time>2026-04-08T11:22:27.001Z</time></trkpt><trkpt lat="41.93742661209795" lon="2.5299128246380818"><ele>500.0</ele><time>2026-04-08T11:22:28.001Z</time></trkpt><trkpt lat="41.93738004011997" lon="2.529991241138484"><ele>500.0</ele><time>2026-04-08T11:22:29.001Z</time></trkpt><trkpt lat="41.93729720305655" lon="2.5300455343227375"><ele>500.0</ele><time>2026-04-08T11:22:30.001Z</time></trkpt><trkpt lat="41.937227586189415" lon="2.5301238260405965"><ele>499.99999999999994</ele><time>2026-04-08T11:22:31.001Z</time></trkpt><trkpt lat="41.93719118847489" lon="2.5302137869637877"><ele>500.0</ele><time>2026-04-08T11:22:32.001Z</time></trkpt><trkpt lat="41.93723057697186" lon="2.5303426510556353"><ele>501.3333333333333</ele><time>2026-04-08T11:22:33.001Z</time></trkpt><trkpt lat="41.93728353258378" lon="2.530408895279756"><ele>502.66666666666663</ele><time>2026-04-08T11:22:34.001Z</time></trkpt><trkpt lat="41.93733974228043" lon="2.530456479732561"><ele>504.0</ele><time>2026-04-08T11:22:35.001Z</time></trkpt><trkpt lat="41.937411911354836" lon="2.53046997596452"><ele>505.33333333333337</ele><time>2026-04-08T11:22:36.001Z</time></trkpt><trkpt lat="41.937503970359494" lon="2.5304725186144186"><ele>506.6666666666667</ele><time>2026-04-08T11:22:37.001Z</time></trkpt><trkpt lat="41.93758282274478" lon="2.5305323167064233"><ele>508.0</ele><time>2026-04-08T11:22:38.001Z</time></trkpt><trkpt lat="41.93768079044663" lon="2.530614818727215"><ele>508.0</ele><time>2026-04-08T11:22:39.001Z</time></trkpt><trkpt lat="41.93779384798144" lon="2.5306494366643455"><ele>508.0</ele><time>2026-04-08T11:22:40.001Z</time></trkpt><trkpt lat="41.93792712482609" lon="2.5306367931644727"><ele>508.0</ele><time>2026-04-08T11:22:41.001Z</time></trkpt><trkpt lat="41.93806630819049" lon="2.530626841911904"><ele>508.0</ele><time>2026-04-08T11:22:42.001Z</time></trkpt><trkpt lat="41.938203314460694" lon="2.530644820158051"><ele>508.0</ele><time>2026-04-08T11:22:43.001Z</time></trkpt><trkpt lat="41.93834138220021" lon="2.530691179934879"><ele>508.0</ele><time>2026-04-08T11:22:44.001Z</time></trkpt><trkpt lat="41.938481934531886" lon="2.5307560633856596"><ele>508.0</ele><time>2026-04-08T11:22:45.001Z</time></trkpt><trkpt lat="41.9386329879915" lon="2.5308042080581195"><ele>508.0</ele><time>2026-04-08T11:22:46.001Z</time></trkpt><trkpt lat="41.93878684566333" lon="2.5308244706567744"><ele>503.5</ele><time>2026-04-08T11:22:47.001Z</time></trkpt><trkpt lat="41.938926042396055" lon="2.5308332308077204"><ele>499.0</ele><time>2026-04-08T11:22:48.001Z</time></trkpt><trkpt lat="41.93905444325538" lon="2.530869449764176"><ele>494.5</ele><time>2026-04-08T11:22:49.001Z</time></trkpt><trkpt lat="41.93917774777804" lon="2.5309309009837357"><ele>490.0</ele><time>2026-04-08T11:22:50.001Z</time></trkpt><trkpt lat="41.9392886708809" lon="2.530975677047841"><ele>487.6666666666667</ele><time>2026-04-08T11:22:51.001Z</time></trkpt><trkpt lat="41.939380690864596" lon="2.5310098237920777"><ele>485.33333333333337</ele><time>2026-04-08T11:22:52.001Z</time></trkpt><trkpt lat="41.93944249533875" lon="2.531058288749951"><ele>483.0</ele><time>2026-04-08T11:22:53.001Z</time></trkpt><trkpt lat="41.939470754739126" lon="2.5311357621489714"><ele>480.66666666666663</ele><time>2026-04-08T11:22:54.001Z</time></trkpt><trkpt lat="41.9394588098192" lon="2.5312468268617145"><ele>478.3333333333333</ele><time>2026-04-08T11:22:55.001Z</time></trkpt><trkpt lat="41.93947783978433" lon="2.5313496069880754"><ele>476.0</ele><time>2026-04-08T11:22:56.001Z</time></trkpt><trkpt lat="41.93953098812292" lon="2.5314232949179383"><ele>475.99999999999994</ele><time>2026-04-08T11:22:57.001Z</time></trkpt><trkpt lat="41.939602949602595" lon="2.5314305984110184"><ele>476.0</ele><time>2026-04-08T11:22:58.001Z</time></trkpt><trkpt lat="41.939673345593825" lon="2.531421789099943"><ele>476.0</ele><time>2026-04-08T11:22:59.001Z</time></trkpt><trkpt lat="41.9397632282833" lon="2.5313613882349775"><ele>476.0</ele><time>2026-04-08T11:23:00.001Z</time></trkpt><trkpt lat="41.939839654364015" lon="2.5312877270304353"><ele>475.99999999999994</ele><time>2026-04-08T11:23:01.001Z</time></trkpt><trkpt lat="41.939909738457494" lon="2.531231811565009"><ele>476.0</ele><time>2026-04-08T11:23:02.001Z</time></trkpt><trkpt lat="41.939985517888864" lon="2.531214047999334"><ele>479.20000000000005</ele><time>2026-04-08T11:23:03.001Z</time></trkpt><trkpt lat="41.940078886214714" lon="2.5312297336240084"><ele>482.40000000000003</ele><time>2026-04-08T11:23:04.001Z</time></trkpt><trkpt lat="41.94019123471304" lon="2.5312746728820246"><ele>485.6</ele><time>2026-04-08T11:23:05.001Z</time></trkpt><trkpt lat="41.94030367747763" lon="2.531312465034682"><ele>488.8</ele><time>2026-04-08T11:23:06.002Z</time></trkpt><trkpt lat="41.940409707661004" lon="2.531340696830137"><ele>492.0</ele><time>2026-04-08T11:23:07.002Z</time></trkpt><trkpt lat="41.94050616414964" lon="2.5313649828872715"><ele>492.0</ele><time>2026-04-08T11:23:08.002Z</time></trkpt><trkpt lat="41.94059378339059" lon="2.531413490784562"><ele>492.00000000000006</ele><time>2026-04-08T11:23:09.002Z</time></trkpt><trkpt lat="41.94067667419462" lon="2.531503653394848"><ele>492.00000000000006</ele><time>2026-04-08T11:23:10.002Z</time></trkpt><trkpt lat="41.94075437106546" lon="2.5316355035334666"><ele>492.0</ele><time>2026-04-08T11:23:11.002Z</time></trkpt><trkpt lat="41.94080816050062" lon="2.531769688671487"><ele>492.0</ele><time>2026-04-08T11:23:12.002Z</time></trkpt><trkpt lat="41.94082350677104" lon="2.531914255632127"><ele>492.0</ele><time>2026-04-08T11:23:13.002Z</time></trkpt><trkpt lat="41.940878466341076" lon="2.532017007198815"><ele>492.0</ele><time>2026-04-08T11:23:14.002Z</time></trkpt><trkpt lat="41.94093341872824" lon="2.5320992749728513"><ele>492.0</ele><time>2026-04-08T11:23:15.002Z</time></trkpt><trkpt lat="41.94100691652046" lon="2.5321288297276867"><ele>492.0</ele><time>2026-04-08T11:23:16.002Z</time></trkpt><trkpt lat="41.94109603868015" lon="2.5321152495745327"><ele>492.0</ele><time>2026-04-08T11:23:17.002Z</time></trkpt><trkpt lat="41.94118861071192" lon="2.5320625014758216"><ele>492.0</ele><time>2026-04-08T11:23:18.002Z</time></trkpt><trkpt lat="41.94127948440404" lon="2.531961454873949"><ele>488.0</ele><time>2026-04-08T11:23:19.002Z</time></trkpt><trkpt lat="41.94136195019141" lon="2.53189953195313"><ele>484.0</ele><time>2026-04-08T11:23:20.002Z</time></trkpt><trkpt lat="41.94148037519194" lon="2.5318690881734716"><ele>480.0</ele><time>2026-04-08T11:23:21.002Z</time></trkpt><trkpt lat="41.94160064323321" lon="2.5318576075304637"><ele>476.0</ele><time>2026-04-08T11:23:22.002Z</time></trkpt><trkpt lat="41.94171862238588" lon="2.531858376856259"><ele>474.25</ele><time>2026-04-08T11:23:23.002Z</time></trkpt><trkpt lat="41.941848276934856" lon="2.531895226422683"><ele>472.5</ele><time>2026-04-08T11:23:24.002Z</time></trkpt><trkpt lat="41.94198557024578" lon="2.531940896402191"><ele>470.75</ele><time>2026-04-08T11:23:25.002Z</time></trkpt><trkpt lat="41.94212372521084" lon="2.5319575167118473"><ele>469.0</ele><time>2026-04-08T11:23:26.002Z</time></trkpt><trkpt lat="41.942271822661475" lon="2.5319399512600516"><ele>469.0</ele><time>2026-04-08T11:23:27.002Z</time></trkpt><trkpt lat="41.94241854201332" lon="2.5318837590151597"><ele>469.0</ele><time>2026-04-08T11:23:28.002Z</time></trkpt><trkpt lat="41.942559868050054" lon="2.531837705341714"><ele>469.0</ele><time>2026-04-08T11:23:29.002Z</time></trkpt><trkpt lat="41.94270450172745" lon="2.5318205845438775"><ele>469.0</ele><time>2026-04-08T11:23:30.002Z</time></trkpt><trkpt lat="41.94285816686253" lon="2.531828453121285"><ele>468.0</ele><time>2026-04-08T11:23:31.002Z</time></trkpt><trkpt lat="41.943022338484624" lon="2.5318506757466595"><ele>467.0</ele><time>2026-04-08T11:23:32.002Z</time></trkpt><trkpt lat="41.94320366911113" lon="2.5318706205633803"><ele>466.0</ele><time>2026-04-08T11:23:33.002Z</time></trkpt><trkpt lat="41.943382696710735" lon="2.5318743391006815"><ele>461.6666666666667</ele><time>2026-04-08T11:23:34.002Z</time></trkpt><trkpt lat="41.94354580807435" lon="2.5318749156471188"><ele>457.33333333333337</ele><time>2026-04-08T11:23:35.002Z</time></trkpt><trkpt lat="41.943691294021676" lon="2.531878235750545"><ele>453.0</ele><time>2026-04-08T11:23:36.002Z</time></trkpt><trkpt lat="41.943842791320755" lon="2.5319086014639223"><ele>453.0</ele><time>2026-04-08T11:23:37.002Z</time></trkpt><trkpt lat="41.94399147499217" lon="2.5319557741589627"><ele>453.0</ele><time>2026-04-08T11:23:38.002Z</time></trkpt><trkpt lat="41.944132958700564" lon="2.5319978878517992"><ele>453.0</ele><time>2026-04-08T11:23:39.002Z</time></trkpt><trkpt lat="41.944283996740204" lon="2.532021267408768"><ele>449.33333333333337</ele><time>2026-04-08T11:23:40.002Z</time></trkpt><trkpt lat="41.94444422657516" lon="2.532028871413322"><ele>445.6666666666667</ele><time>2026-04-08T11:23:41.002Z</time></trkpt><trkpt lat="41.94460770172659" lon="2.5320533607438356"><ele>442.0</ele><time>2026-04-08T11:23:42.002Z</time></trkpt><trkpt lat="41.944767939752694" lon="2.5320775379319223"><ele>445.6666666666667</ele><time>2026-04-08T11:23:43.002Z</time></trkpt><trkpt lat="41.94491765382908" lon="2.532103926608335"><ele>449.33333333333337</ele><time>2026-04-08T11:23:44.002Z</time></trkpt><trkpt lat="41.945074339569445" lon="2.5321316518693417"><ele>453.0</ele><time>2026-04-08T11:23:45.001Z</time></trkpt><trkpt lat="41.94522935288131" lon="2.532158024182718"><ele>453.0</ele><time>2026-04-08T11:23:46.001Z</time></trkpt><trkpt lat="41.94537624184266" lon="2.5321900795934837"><ele>453.0</ele><time>2026-04-08T11:23:47.001Z</time></trkpt><trkpt lat="41.945505062364525" lon="2.5322322395485766"><ele>453.0</ele><time>2026-04-08T11:23:48.001Z</time></trkpt><trkpt lat="41.94560921569189" lon="2.5322841502759696"><ele>453.0</ele><time>2026-04-08T11:23:49.001Z</time></trkpt><trkpt lat="41.945698607141956" lon="2.5323477197950433"><ele>453.0</ele><time>2026-04-08T11:23:50.001Z</time></trkpt><trkpt lat="41.94577372571328" lon="2.5324353117738925"><ele>452.99999999999994</ele><time>2026-04-08T11:23:51.001Z</time></trkpt><trkpt lat="41.94582657737286" lon="2.532547444707686"><ele>452.99999999999994</ele><time>2026-04-08T11:23:52.001Z</time></trkpt><trkpt lat="41.945863984638606" lon="2.5326696691146617"><ele>453.0</ele><time>2026-04-08T11:23:53.001Z</time></trkpt><trkpt lat="41.94587160806492" lon="2.53280260635519"><ele>453.0</ele><time>2026-04-08T11:23:54.001Z</time></trkpt><trkpt lat="41.94587454535223" lon="2.532950745696836"><ele>450.79999999999995</ele><time>2026-04-08T11:23:55.001Z</time></trkpt><trkpt lat="41.94586004992477" lon="2.5330837720195225"><ele>448.59999999999997</ele><time>2026-04-08T11:23:56.001Z</time></trkpt><trkpt lat="41.94586052818987" lon="2.5331844260734"><ele>446.40000000000003</ele><time>2026-04-08T11:23:57.001Z</time></trkpt><trkpt lat="41.94574428431897" lon="2.5332328988901387"><ele>444.20000000000005</ele><time>2026-04-08T11:23:59.001Z</time></trkpt><trkpt lat="41.94564047818568" lon="2.5332493686676383"><ele>442.0</ele><time>2026-04-08T11:24:00.001Z</time></trkpt><trkpt lat="41.94551566932792" lon="2.5332975605528505"><ele>442.0</ele><time>2026-04-08T11:24:01.001Z</time></trkpt><trkpt lat="41.94539885507715" lon="2.533362078474758"><ele>442.00000000000006</ele><time>2026-04-08T11:24:02.001Z</time></trkpt><trkpt lat="41.945299952385454" lon="2.5334063609016537"><ele>442.00000000000006</ele><time>2026-04-08T11:24:03.001Z</time></trkpt><trkpt lat="41.94520423435474" lon="2.5333979257692714"><ele>442.0</ele><time>2026-04-08T11:24:04.001Z</time></trkpt><trkpt lat="41.94511045913211" lon="2.5334189055445644"><ele>442.0</ele><time>2026-04-08T11:24:05.001Z</time></trkpt><trkpt lat="41.94501444054691" lon="2.5335455442376373"><ele>442.75</ele><time>2026-04-08T11:24:06.001Z</time></trkpt><trkpt lat="41.94493265005758" lon="2.533701739955368"><ele>443.5</ele><time>2026-04-08T11:24:07.001Z</time></trkpt><trkpt lat="41.94486667586679" lon="2.533875631473264"><ele>444.25</ele><time>2026-04-08T11:24:08.001Z</time></trkpt><trkpt lat="41.94478099877564" lon="2.534027367568477"><ele>445.0</ele><time>2026-04-08T11:24:09.001Z</time></trkpt><trkpt lat="41.94471079478222" lon="2.5341857655618396"><ele>445.0</ele><time>2026-04-08T11:24:10.001Z</time></trkpt><trkpt lat="41.9446531260593" lon="2.5343754651031714"><ele>445.0</ele><time>2026-04-08T11:24:11.001Z</time></trkpt><trkpt lat="41.94461995951666" lon="2.5345723856865727"><ele>445.0</ele><time>2026-04-08T11:24:12.001Z</time></trkpt><trkpt lat="41.944553278079546" lon="2.5347387881156664"><ele>445.0</ele><time>2026-04-08T11:24:13.001Z</time></trkpt><trkpt lat="41.94448298450323" lon="2.5349140254855484"><ele>441.5</ele><time>2026-04-08T11:24:14.001Z</time></trkpt><trkpt lat="41.94442468379106" lon="2.535100965626599"><ele>438.0</ele><time>2026-04-08T11:24:15.001Z</time></trkpt><trkpt lat="41.94437880929947" lon="2.535289384411038"><ele>434.5</ele><time>2026-04-08T11:24:16.001Z</time></trkpt><trkpt lat="41.94435490893315" lon="2.5354721209768125"><ele>431.0</ele><time>2026-04-08T11:24:17.001Z</time></trkpt><trkpt lat="41.944348160493725" lon="2.5356579143368925"><ele>431.0</ele><time>2026-04-08T11:24:18.001Z</time></trkpt><trkpt lat="41.94433756184748" lon="2.5358539564146794"><ele>431.0</ele><time>2026-04-08T11:24:19.001Z</time></trkpt><trkpt lat="41.944362393670495" lon="2.5360559646340404"><ele>431.0</ele><time>2026-04-08T11:24:20.001Z</time></trkpt><trkpt lat="41.94441294105863" lon="2.5362344557073313"><ele>431.0</ele><time>2026-04-08T11:24:21.001Z</time></trkpt><trkpt lat="41.94448834317985" lon="2.536378744209137"><ele>431.0</ele><time>2026-04-08T11:24:22.001Z</time></trkpt><trkpt lat="41.94454784878859" lon="2.536522851940821"><ele>431.0</ele><time>2026-04-08T11:24:23.001Z</time></trkpt><trkpt lat="41.94466390548552" lon="2.5366158969881663"><ele>431.0</ele><time>2026-04-08T11:24:24.001Z</time></trkpt><trkpt lat="41.944783597266614" lon="2.536699038927011"><ele>431.0</ele><time>2026-04-08T11:24:25.001Z</time></trkpt><trkpt lat="41.94488860386832" lon="2.53678876084086"><ele>431.0</ele><time>2026-04-08T11:24:26.001Z</time></trkpt><trkpt lat="41.944981504350814" lon="2.536885098788688"><ele>431.0</ele><time>2026-04-08T11:24:27.001Z</time></trkpt><trkpt lat="41.945049913464814" lon="2.5369598045582733"><ele>431.0</ele><time>2026-04-08T11:24:28.001Z</time></trkpt><trkpt lat="41.94507905038338" lon="2.5370419339022288"><ele>431.0</ele><time>2026-04-08T11:24:29.001Z</time></trkpt><trkpt lat="41.945014967503845" lon="2.5371148331050324"><ele>431.0</ele><time>2026-04-08T11:24:30.001Z</time></trkpt><trkpt lat="41.94500159142817" lon="2.5373193616688057"><ele>429.8</ele><time>2026-04-08T11:24:32.001Z</time></trkpt><trkpt lat="41.94505476265754" lon="2.5374105184894047"><ele>428.6</ele><time>2026-04-08T11:24:33.001Z</time></trkpt><trkpt lat="41.94512222063682" lon="2.537452010431534"><ele>427.4</ele><time>2026-04-08T11:24:34.001Z</time></trkpt><trkpt lat="41.94520972719844" lon="2.537462392830542"><ele>426.2</ele><time>2026-04-08T11:24:35.001Z</time></trkpt><trkpt lat="41.945316098884" lon="2.5374396306272216"><ele>425.0</ele><time>2026-04-08T11:24:36.001Z</time></trkpt><trkpt lat="41.9454180078893" lon="2.5374267304623483"><ele>425.0</ele><time>2026-04-08T11:24:37.001Z</time></trkpt><trkpt lat="41.945514929649796" lon="2.5374568535540156"><ele>425.0</ele><time>2026-04-08T11:24:38.001Z</time></trkpt><trkpt lat="41.94561170002625" lon="2.537532218906452"><ele>425.0</ele><time>2026-04-08T11:24:39.001Z</time></trkpt><trkpt lat="41.94571757248258" lon="2.5376444177397177"><ele>425.0</ele><time>2026-04-08T11:24:40.001Z</time></trkpt><trkpt lat="41.94583274999726" lon="2.53774218766817"><ele>421.5</ele><time>2026-04-08T11:24:41.001Z</time></trkpt><trkpt lat="41.94595750442671" lon="2.5378071659433368"><ele>418.0</ele><time>2026-04-08T11:24:42.001Z</time></trkpt><trkpt lat="41.94609918152575" lon="2.5378418898538104"><ele>414.5</ele><time>2026-04-08T11:24:43.001Z</time></trkpt><trkpt lat="41.946235025622364" lon="2.5378773965755856"><ele>411.0</ele><time>2026-04-08T11:24:44.001Z</time></trkpt><trkpt lat="41.94636499567785" lon="2.5379433453123856"><ele>414.75</ele><time>2026-04-08T11:24:45.001Z</time></trkpt><trkpt lat="41.946489758326834" lon="2.5380048522142795"><ele>418.5</ele><time>2026-04-08T11:24:46.001Z</time></trkpt><trkpt lat="41.94660010214545" lon="2.538078913836993"><ele>422.25</ele><time>2026-04-08T11:24:47.001Z</time></trkpt><trkpt lat="41.94669968492273" lon="2.5381666179644484"><ele>426.0</ele><time>2026-04-08T11:24:48.001Z</time></trkpt><trkpt lat="41.94678598022004" lon="2.538235452647046"><ele>426.0</ele><time>2026-04-08T11:24:49.001Z</time></trkpt><trkpt lat="41.94686549996056" lon="2.538288870578323"><ele>426.0</ele><time>2026-04-08T11:24:50.001Z</time></trkpt><trkpt lat="41.94694030150371" lon="2.538316437115514"><ele>426.0</ele><time>2026-04-08T11:24:51.001Z</time></trkpt><trkpt lat="41.94702820189797" lon="2.5382887484431076"><ele>426.0</ele><time>2026-04-08T11:24:52.001Z</time></trkpt><trkpt lat="41.94712116257588" lon="2.5382325405942026"><ele>426.0</ele><time>2026-04-08T11:24:53.001Z</time></trkpt><trkpt lat="41.94721798587292" lon="2.538199826102543"><ele>426.0</ele><time>2026-04-08T11:24:54.001Z</time></trkpt><trkpt lat="41.94733294070712" lon="2.5381985345748426"><ele>426.0</ele><time>2026-04-08T11:24:55.001Z</time></trkpt><trkpt lat="41.947470663258244" lon="2.538220682312565"><ele>426.0</ele><time>2026-04-08T11:24:56.001Z</time></trkpt><trkpt lat="41.94759917455344" lon="2.538250578333613"><ele>426.0</ele><time>2026-04-08T11:24:57.001Z</time></trkpt><trkpt lat="41.947711323627516" lon="2.5382863759371714"><ele>425.75</ele><time>2026-04-08T11:24:58.001Z</time></trkpt><trkpt lat="41.94780934212531" lon="2.538352759161165"><ele>425.5</ele><time>2026-04-08T11:24:59.001Z</time></trkpt><trkpt lat="41.947900606844215" lon="2.5384513128089634"><ele>425.25</ele><time>2026-04-08T11:25:00.001Z</time></trkpt><trkpt lat="41.948004401331964" lon="2.538596571393448"><ele>425.0</ele><time>2026-04-08T11:25:01.001Z</time></trkpt><trkpt lat="41.948118621495304" lon="2.538767131778152"><ele>425.0</ele><time>2026-04-08T11:25:02.001Z</time></trkpt><trkpt lat="41.94822842681161" lon="2.538907202023142"><ele>425.0</ele><time>2026-04-08T11:25:03.001Z</time></trkpt><trkpt lat="41.948330502198004" lon="2.539019117485982"><ele>425.0</ele><time>2026-04-08T11:25:04.001Z</time></trkpt><trkpt lat="41.94841666254947" lon="2.5391127550607635"><ele>425.0</ele><time>2026-04-08T11:25:05.001Z</time></trkpt><trkpt lat="41.94849249729055" lon="2.5392216963520076"><ele>424.0</ele><time>2026-04-08T11:25:06.001Z</time></trkpt><trkpt lat="41.94855209877316" lon="2.539368142898842"><ele>423.0</ele><time>2026-04-08T11:25:07.001Z</time></trkpt><trkpt lat="41.94864406587399" lon="2.5395122015864646"><ele>422.0</ele><time>2026-04-08T11:25:08.001Z</time></trkpt><trkpt lat="41.94874202772806" lon="2.5396437011166184"><ele>421.0</ele><time>2026-04-08T11:25:09.001Z</time></trkpt><trkpt lat="41.948828727000986" lon="2.5397750530120344"><ele>421.0</ele><time>2026-04-08T11:25:10.001Z</time></trkpt><trkpt lat="41.94892223839204" lon="2.5398786418509185"><ele>421.0</ele><time>2026-04-08T11:25:11.001Z</time></trkpt><trkpt lat="41.949019479708774" lon="2.5399515709126397"><ele>421.0</ele><time>2026-04-08T11:25:12.001Z</time></trkpt><trkpt lat="41.94912964347383" lon="2.5399851035666647"><ele>421.0</ele><time>2026-04-08T11:25:13.001Z</time></trkpt><trkpt lat="41.94926145310047" lon="2.539975062351295"><ele>414.33333333333337</ele><time>2026-04-08T11:25:14.001Z</time></trkpt><trkpt lat="41.94940673239771" lon="2.539969860923143"><ele>407.66666666666663</ele><time>2026-04-08T11:25:15.001Z</time></trkpt><trkpt lat="41.94956587897815" lon="2.539995519629833"><ele>401.0</ele><time>2026-04-08T11:25:16.001Z</time></trkpt><trkpt lat="41.94971574060747" lon="2.5400436490892355"><ele>401.0</ele><time>2026-04-08T11:25:17.001Z</time></trkpt><trkpt lat="41.949853481474186" lon="2.540088066273622"><ele>401.0</ele><time>2026-04-08T11:25:18.001Z</time></trkpt><trkpt lat="41.9499822235574" lon="2.540134667950963"><ele>401.0</ele><time>2026-04-08T11:25:19.002Z</time></trkpt><trkpt lat="41.950095848187985" lon="2.5401856227067277"><ele>401.0</ele><time>2026-04-08T11:25:20.002Z</time></trkpt><trkpt lat="41.9502098928338" lon="2.540196105976419"><ele>399.8333333333333</ele><time>2026-04-08T11:25:21.002Z</time></trkpt><trkpt lat="41.950310355332036" lon="2.5402266216626974"><ele>398.66666666666663</ele><time>2026-04-08T11:25:22.002Z</time></trkpt><trkpt lat="41.950383244990924" lon="2.540271435051262"><ele>397.5</ele><time>2026-04-08T11:25:23.002Z</time></trkpt><trkpt lat="41.95042007583257" lon="2.5403513168162624"><ele>396.33333333333337</ele><time>2026-04-08T11:25:24.002Z</time></trkpt><trkpt lat="41.950418305237704" lon="2.540450935569031"><ele>395.1666666666667</ele><time>2026-04-08T11:25:25.002Z</time></trkpt><trkpt lat="41.9503794809963" lon="2.5405563723994264"><ele>394.0</ele><time>2026-04-08T11:25:26.002Z</time></trkpt><trkpt lat="41.95028343230164" lon="2.5406668320020764"><ele>392.0</ele><time>2026-04-08T11:25:27.002Z</time></trkpt><trkpt lat="41.95024183572363" lon="2.540824271836601"><ele>390.0</ele><time>2026-04-08T11:25:28.002Z</time></trkpt><trkpt lat="41.950217213454046" lon="2.5409842281607795"><ele>388.0</ele><time>2026-04-08T11:25:29.002Z</time></trkpt><trkpt lat="41.95016973563332" lon="2.5411288804732006"><ele>386.0</ele><time>2026-04-08T11:25:30.002Z</time></trkpt><trkpt lat="41.950107994708155" lon="2.5412702315313984"><ele>390.3333333333333</ele><time>2026-04-08T11:25:31.002Z</time></trkpt><trkpt lat="41.95002983774232" lon="2.541426717195792"><ele>394.66666666666663</ele><time>2026-04-08T11:25:32.002Z</time></trkpt><trkpt lat="41.94992992663721" lon="2.5416145504493852"><ele>399.0</ele><time>2026-04-08T11:25:33.002Z</time></trkpt><trkpt lat="41.94983461294953" lon="2.5418088860548185"><ele>399.0</ele><time>2026-04-08T11:25:34.002Z</time></trkpt><trkpt lat="41.94972125218637" lon="2.541998515873743"><ele>399.0</ele><time>2026-04-08T11:25:35.002Z</time></trkpt><trkpt lat="41.94961827936008" lon="2.542187307170388"><ele>399.0</ele><time>2026-04-08T11:25:36.002Z</time></trkpt><trkpt lat="41.94952618071833" lon="2.5423763187787682"><ele>392.6666666666667</ele><time>2026-04-08T11:25:37.002Z</time></trkpt><trkpt lat="41.94943518229568" lon="2.542579793458269"><ele>386.33333333333337</ele><time>2026-04-08T11:25:38.002Z</time></trkpt><trkpt lat="41.94935250146764" lon="2.542775015723485"><ele>380.0</ele><time>2026-04-08T11:25:39.002Z</time></trkpt><trkpt lat="41.94928259874276" lon="2.542979532832009"><ele>382.33333333333337</ele><time>2026-04-08T11:25:40.002Z</time></trkpt><trkpt lat="41.94920499096448" lon="2.5431737726214156"><ele>384.6666666666667</ele><time>2026-04-08T11:25:41.002Z</time></trkpt><trkpt lat="41.94912602562728" lon="2.5433657777135017"><ele>387.0</ele><time>2026-04-08T11:25:42.002Z</time></trkpt><trkpt lat="41.94904761679402" lon="2.543579246843031"><ele>381.6666666666667</ele><time>2026-04-08T11:25:43.002Z</time></trkpt><trkpt lat="41.948950438715165" lon="2.543782091151833"><ele>376.33333333333337</ele><time>2026-04-08T11:25:44.002Z</time></trkpt><trkpt lat="41.94885578512426" lon="2.5439770186216353"><ele>371.0</ele><time>2026-04-08T11:25:45.002Z</time></trkpt><trkpt lat="41.94877091976479" lon="2.5441602280821534"><ele>371.0</ele><time>2026-04-08T11:25:46.002Z</time></trkpt><trkpt lat="41.94868764120186" lon="2.5443419892284003"><ele>371.0</ele><time>2026-04-08T11:25:47.002Z</time></trkpt><trkpt lat="41.948644530659195" lon="2.544534848962172"><ele>371.0</ele><time>2026-04-08T11:25:48.002Z</time></trkpt><trkpt lat="41.94864184515816" lon="2.5447418846383867"><ele>369.0</ele><time>2026-04-08T11:25:49.002Z</time></trkpt><trkpt lat="41.94864584515516" lon="2.5449378633279944"><ele>367.0</ele><time>2026-04-08T11:25:50.002Z</time></trkpt><trkpt lat="41.948624571710056" lon="2.5451171485006707"><ele>365.0</ele><time>2026-04-08T11:25:51.001Z</time></trkpt><trkpt lat="41.94860697591985" lon="2.54529896596384"><ele>363.0</ele><time>2026-04-08T11:25:52.001Z</time></trkpt><trkpt lat="41.94854697641968" lon="2.5454648281918586"><ele>361.25</ele><time>2026-04-08T11:25:53.001Z</time></trkpt><trkpt lat="41.94848609462146" lon="2.54563359221341"><ele>359.5</ele><time>2026-04-08T11:25:54.001Z</time></trkpt><trkpt lat="41.94839454682425" lon="2.5457919270281852"><ele>357.75</ele><time>2026-04-08T11:25:55.001Z</time></trkpt><trkpt lat="41.94829316063336" lon="2.5459584290385826"><ele>356.0</ele><time>2026-04-08T11:25:56.001Z</time></trkpt><trkpt lat="41.94820024105161" lon="2.546121996423904"><ele>356.25</ele><time>2026-04-08T11:25:57.001Z</time></trkpt><trkpt lat="41.94811981883939" lon="2.5462955400480793"><ele>356.5</ele><time>2026-04-08T11:25:58.001Z</time></trkpt><trkpt lat="41.948066677189786" lon="2.546477580705673"><ele>356.75</ele><time>2026-04-08T11:25:59.001Z</time></trkpt><trkpt lat="41.94801754651986" lon="2.5466447507488126"><ele>357.0</ele><time>2026-04-08T11:26:00.001Z</time></trkpt><trkpt lat="41.94794866412374" lon="2.5467902867537533"><ele>357.0</ele><time>2026-04-08T11:26:01.001Z</time></trkpt><trkpt lat="41.947864226386486" lon="2.5469409965321015"><ele>357.0</ele><time>2026-04-08T11:26:02.001Z</time></trkpt><trkpt lat="41.947728681605504" lon="2.5470595615518365"><ele>357.0</ele><time>2026-04-08T11:26:03.001Z</time></trkpt><trkpt lat="41.947581974288276" lon="2.547211586909838"><ele>357.3333333333333</ele><time>2026-04-08T11:26:04.001Z</time></trkpt><trkpt lat="41.94743883164939" lon="2.547355816181065"><ele>357.66666666666663</ele><time>2026-04-08T11:26:05.001Z</time></trkpt><trkpt lat="41.947308198665674" lon="2.5475266133681536"><ele>358.0</ele><time>2026-04-08T11:26:06.001Z</time></trkpt><trkpt lat="41.94719402355803" lon="2.54771599673777"><ele>353.0</ele><time>2026-04-08T11:26:07.001Z</time></trkpt><trkpt lat="41.94706317885473" lon="2.5478819122695495"><ele>348.0</ele><time>2026-04-08T11:26:08.001Z</time></trkpt><trkpt lat="41.94691784557981" lon="2.548026736579074"><ele>343.0</ele><time>2026-04-08T11:26:09.001Z</time></trkpt><trkpt lat="41.946773357511844" lon="2.5481566396846245"><ele>350.66666666666663</ele><time>2026-04-08T11:26:10.001Z</time></trkpt><trkpt lat="41.946640818185855" lon="2.5482847088020386"><ele>358.3333333333333</ele><time>2026-04-08T11:26:11.001Z</time></trkpt><trkpt lat="41.94651700614164" lon="2.5484097744493006"><ele>366.0</ele><time>2026-04-08T11:26:12.001Z</time></trkpt><trkpt lat="41.94639850724839" lon="2.548527543569059"><ele>366.0</ele><time>2026-04-08T11:26:13.001Z</time></trkpt><trkpt lat="41.94628668675292" lon="2.5486518984772952"><ele>366.0</ele><time>2026-04-08T11:26:14.001Z</time></trkpt><trkpt lat="41.946178847707635" lon="2.5487821806270268"><ele>366.0</ele><time>2026-04-08T11:26:15.001Z</time></trkpt><trkpt lat="41.94610722617232" lon="2.5489817641648447"><ele>357.6666666666667</ele><time>2026-04-08T11:26:16.001Z</time></trkpt><trkpt lat="41.94605059241399" lon="2.5491938863573402"><ele>349.33333333333337</ele><time>2026-04-08T11:26:17.001Z</time></trkpt><trkpt lat="41.94601775570569" lon="2.5493977950427524"><ele>341.0</ele><time>2026-04-08T11:26:18.001Z</time></trkpt><trkpt lat="41.94592289246212" lon="2.5495813858242156"><ele>345.0</ele><time>2026-04-08T11:26:19.001Z</time></trkpt><trkpt lat="41.945816565604744" lon="2.549780116194503"><ele>349.0</ele><time>2026-04-08T11:26:20.001Z</time></trkpt><trkpt lat="41.9457107543249" lon="2.549974226706772"><ele>353.0</ele><time>2026-04-08T11:26:21.001Z</time></trkpt><trkpt lat="41.9456152362068" lon="2.5501480275207022"><ele>353.0</ele><time>2026-04-08T11:26:22.001Z</time></trkpt><trkpt lat="41.945525910266966" lon="2.550312779307078"><ele>353.0</ele><time>2026-04-08T11:26:23.001Z</time></trkpt><trkpt lat="41.945450314563985" lon="2.5504793618116106"><ele>353.0</ele><time>2026-04-08T11:26:24.001Z</time></trkpt><trkpt lat="41.94540330324482" lon="2.5506480580734507"><ele>353.0</ele><time>2026-04-08T11:26:25.001Z</time></trkpt><trkpt lat="41.945382638822934" lon="2.550835093442009"><ele>350.6666666666667</ele><time>2026-04-08T11:26:26.001Z</time></trkpt><trkpt lat="41.945382651252096" lon="2.5510291808312426"><ele>348.3333333333333</ele><time>2026-04-08T11:26:27.001Z</time></trkpt><trkpt lat="41.94541111827775" lon="2.5512259762255183"><ele>346.0</ele><time>2026-04-08T11:26:28.001Z</time></trkpt><trkpt lat="41.945464471521774" lon="2.551429559126777"><ele>345.0</ele><time>2026-04-08T11:26:29.001Z</time></trkpt><trkpt lat="41.94551077647899" lon="2.551620005072129"><ele>344.0</ele><time>2026-04-08T11:26:30.001Z</time></trkpt><trkpt lat="41.94554721358455" lon="2.5517929183063837"><ele>343.0</ele><time>2026-04-08T11:26:31.001Z</time></trkpt><trkpt lat="41.945564636210584" lon="2.551938378132677"><ele>342.0</ele><time>2026-04-08T11:26:32.001Z</time></trkpt><trkpt lat="41.945561738584985" lon="2.5520853745815515"><ele>341.0</ele><time>2026-04-08T11:26:33.001Z</time></trkpt><trkpt lat="41.94553196918442" lon="2.5522489679405145"><ele>340.0</ele><time>2026-04-08T11:26:34.001Z</time></trkpt><trkpt lat="41.94548676103446" lon="2.552435526756406"><ele>339.0</ele><time>2026-04-08T11:26:35.001Z</time></trkpt><trkpt lat="41.945431410148274" lon="2.552635074062285"><ele>338.0</ele><time>2026-04-08T11:26:36.001Z</time></trkpt><trkpt lat="41.9453717821044" lon="2.5528258043205674"><ele>337.25</ele><time>2026-04-08T11:26:37.001Z</time></trkpt><trkpt lat="41.94531081807593" lon="2.553003027053645"><ele>336.5</ele><time>2026-04-08T11:26:38.001Z</time></trkpt><trkpt lat="41.945260991557106" lon="2.5531562507978793"><ele>335.75</ele><time>2026-04-08T11:26:39.001Z</time></trkpt><trkpt lat="41.945224641995985" lon="2.553309454904325"><ele>335.0</ele><time>2026-04-08T11:26:40.001Z</time></trkpt><trkpt lat="41.94520817415738" lon="2.553468581011769"><ele>335.0</ele><time>2026-04-08T11:26:41.001Z</time></trkpt><trkpt lat="41.94521084846789" lon="2.5536228309178184"><ele>335.0</ele><time>2026-04-08T11:26:42.001Z</time></trkpt><trkpt lat="41.94522703499814" lon="2.5537837551302"><ele>335.0</ele><time>2026-04-08T11:26:43.001Z</time></trkpt><trkpt lat="41.945249770646136" lon="2.553929221496329"><ele>335.0</ele><time>2026-04-08T11:26:44.001Z</time></trkpt><trkpt lat="41.94528157513744" lon="2.55406399321823"><ele>334.75</ele><time>2026-04-08T11:26:45.001Z</time></trkpt><trkpt lat="41.945337973545705" lon="2.554190438264695"><ele>334.5</ele><time>2026-04-08T11:26:46.001Z</time></trkpt><trkpt lat="41.94541170274122" lon="2.5543074356786852"><ele>334.25</ele><time>2026-04-08T11:26:47.001Z</time></trkpt><trkpt lat="41.945489959680074" lon="2.554428824061918"><ele>334.0</ele><time>2026-04-08T11:26:48.001Z</time></trkpt><trkpt lat="41.94556672387243" lon="2.554547896617386"><ele>334.3333333333333</ele><time>2026-04-08T11:26:49.001Z</time></trkpt><trkpt lat="41.94563425627452" lon="2.554655420339332"><ele>334.66666666666663</ele><time>2026-04-08T11:26:50.001Z</time></trkpt><trkpt lat="41.945691373275906" lon="2.55475501444661"><ele>335.0</ele><time>2026-04-08T11:26:51.001Z</time></trkpt><trkpt lat="41.945734877298996" lon="2.5548446357199786"><ele>335.3333333333333</ele><time>2026-04-08T11:26:52.001Z</time></trkpt><trkpt lat="41.945751360725176" lon="2.554936950656289"><ele>335.6666666666667</ele><time>2026-04-08T11:26:53.001Z</time></trkpt><trkpt lat="41.94574719136136" lon="2.555034406832439"><ele>336.0</ele><time>2026-04-08T11:26:54.001Z</time></trkpt><trkpt lat="41.94574770280194" lon="2.555147588707548"><ele>336.0</ele><time>2026-04-08T11:26:55.001Z</time></trkpt><trkpt lat="41.94574672206301" lon="2.5552621614489186"><ele>336.0</ele><time>2026-04-08T11:26:56.001Z</time></trkpt><trkpt lat="41.945745090944236" lon="2.5553832447790366"><ele>336.0</ele><time>2026-04-08T11:26:57.001Z</time></trkpt><trkpt lat="41.94574553396131" lon="2.5554988056112626"><ele>336.0</ele><time>2026-04-08T11:26:58.001Z</time></trkpt><trkpt lat="41.945758762091465" lon="2.555612303063159"><ele>336.0</ele><time>2026-04-08T11:26:59.001Z</time></trkpt><trkpt lat="41.94573315553056" lon="2.55572357451789"><ele>336.0</ele><time>2026-04-08T11:27:00.001Z</time></trkpt><trkpt lat="41.94572587295782" lon="2.555854505572738"><ele>336.20000000000005</ele><time>2026-04-08T11:27:01.001Z</time></trkpt><trkpt lat="41.945700595191596" lon="2.5559898319348395"><ele>336.40000000000003</ele><time>2026-04-08T11:27:02.001Z</time></trkpt><trkpt lat="41.9456651787083" lon="2.5561200795666665"><ele>336.6</ele><time>2026-04-08T11:27:03.001Z</time></trkpt><trkpt lat="41.94563614405908" lon="2.556250588722304"><ele>336.8</ele><time>2026-04-08T11:27:04.001Z</time></trkpt><trkpt lat="41.945625098877336" lon="2.556389694953089"><ele>337.0</ele><time>2026-04-08T11:27:05.001Z</time></trkpt><trkpt lat="41.945609466320676" lon="2.556516854350551"><ele>337.0</ele><time>2026-04-08T11:27:06.001Z</time></trkpt><trkpt lat="41.94559219846944" lon="2.5566411510838436"><ele>337.0</ele><time>2026-04-08T11:27:07.001Z</time></trkpt><trkpt lat="41.94558793668363" lon="2.5567770281661284"><ele>337.0</ele><time>2026-04-08T11:27:08.001Z</time></trkpt><trkpt lat="41.94557337977045" lon="2.5569189433259596"><ele>337.0</ele><time>2026-04-08T11:27:09.001Z</time></trkpt><trkpt lat="41.94557182269043" lon="2.5570604906727854"><ele>337.0</ele><time>2026-04-08T11:27:10.001Z</time></trkpt><trkpt lat="41.94556846281328" lon="2.5571987669177902"><ele>336.40000000000003</ele><time>2026-04-08T11:27:11.001Z</time></trkpt><trkpt lat="41.94556290260294" lon="2.5573318698323746"><ele>335.8</ele><time>2026-04-08T11:27:12.001Z</time></trkpt><trkpt lat="41.94555894150968" lon="2.557463887493808"><ele>335.2</ele><time>2026-04-08T11:27:13.001Z</time></trkpt><trkpt lat="41.94555587046012" lon="2.557608064651979"><ele>334.6</ele><time>2026-04-08T11:27:14.001Z</time></trkpt><trkpt lat="41.94555262402953" lon="2.557758192359418"><ele>334.0</ele><time>2026-04-08T11:27:15.001Z</time></trkpt><trkpt lat="41.94555028238537" lon="2.5579095517827644"><ele>334.0</ele><time>2026-04-08T11:27:16.001Z</time></trkpt><trkpt lat="41.945540751185405" lon="2.558060077853014"><ele>334.0</ele><time>2026-04-08T11:27:17.001Z</time></trkpt><trkpt lat="41.94553382705278" lon="2.558214810024561"><ele>334.0</ele><time>2026-04-08T11:27:18.001Z</time></trkpt><trkpt lat="41.94552628381605" lon="2.5583654860370375"><ele>334.0</ele><time>2026-04-08T11:27:19.001Z</time></trkpt><trkpt lat="41.945519863767935" lon="2.5585122037294807"><ele>334.0</ele><time>2026-04-08T11:27:20.001Z</time></trkpt><trkpt lat="41.94551459361092" lon="2.5586586232719473"><ele>333.4</ele><time>2026-04-08T11:27:21.001Z</time></trkpt><trkpt lat="41.9455077293268" lon="2.558793558671764"><ele>332.79999999999995</ele><time>2026-04-08T11:27:22.001Z</time></trkpt><trkpt lat="41.945474428918416" lon="2.558913063116578"><ele>332.20000000000005</ele><time>2026-04-08T11:27:23.001Z</time></trkpt><trkpt lat="41.94543796233683" lon="2.5590328227423793"><ele>331.6</ele><time>2026-04-08T11:27:24.001Z</time></trkpt><trkpt lat="41.94537848367056" lon="2.5591449644258994"><ele>331.0</ele><time>2026-04-08T11:27:25.001Z</time></trkpt><trkpt lat="41.94531235635996" lon="2.559258061296903"><ele>331.0</ele><time>2026-04-08T11:27:26.001Z</time></trkpt><trkpt lat="41.94525148727152" lon="2.559384362006741"><ele>331.0</ele><time>2026-04-08T11:27:27.001Z</time></trkpt><trkpt lat="41.94517383903937" lon="2.5595122112030086"><ele>331.0</ele><time>2026-04-08T11:27:28.001Z</time></trkpt><trkpt lat="41.94508847176848" lon="2.5596400251779756"><ele>331.0</ele><time>2026-04-08T11:27:29.001Z</time></trkpt><trkpt lat="41.94500476721797" lon="2.559771646109179"><ele>329.0</ele><time>2026-04-08T11:27:30.001Z</time></trkpt><trkpt lat="41.944922834431736" lon="2.5599133885563323"><ele>327.0</ele><time>2026-04-08T11:27:31.001Z</time></trkpt><trkpt lat="41.944832324980304" lon="2.5600625477408356"><ele>325.0</ele><time>2026-04-08T11:27:32.001Z</time></trkpt><trkpt lat="41.94473242917342" lon="2.56022323858828"><ele>323.0</ele><time>2026-04-08T11:27:33.001Z</time></trkpt><trkpt lat="41.94462195307995" lon="2.56038494598404"><ele>323.0</ele><time>2026-04-08T11:27:34.001Z</time></trkpt><trkpt lat="41.94450466508295" lon="2.5605415081564713"><ele>323.0</ele><time>2026-04-08T11:27:35.001Z</time></trkpt><trkpt lat="41.94438911819887" lon="2.5606961732009252"><ele>323.0</ele><time>2026-04-08T11:27:36.001Z</time></trkpt><trkpt lat="41.94427818665509" lon="2.5608422568728484"><ele>324.6666666666667</ele><time>2026-04-08T11:27:37.001Z</time></trkpt><trkpt lat="41.94416937770847" lon="2.560982312895562"><ele>326.3333333333333</ele><time>2026-04-08T11:27:38.001Z</time></trkpt><trkpt lat="41.94405886878101" lon="2.561118818932174"><ele>328.0</ele><time>2026-04-08T11:27:39.001Z</time></trkpt><trkpt lat="41.943963635991125" lon="2.56127892796385"><ele>328.0</ele><time>2026-04-08T11:27:40.001Z</time></trkpt><trkpt lat="41.943877953540465" lon="2.5614650740331384"><ele>328.0</ele><time>2026-04-08T11:27:41.001Z</time></trkpt><trkpt lat="41.94380836931692" lon="2.5616762700891162"><ele>328.0</ele><time>2026-04-08T11:27:42.001Z</time></trkpt><trkpt lat="41.94373858584502" lon="2.5619059157712036"><ele>325.66666666666663</ele><time>2026-04-08T11:27:43.001Z</time></trkpt><trkpt lat="41.94366421549866" lon="2.562146252237197"><ele>323.3333333333333</ele><time>2026-04-08T11:27:44.002Z</time></trkpt><trkpt lat="41.943590935321325" lon="2.562372009635957"><ele>321.0</ele><time>2026-04-08T11:27:45.002Z</time></trkpt><trkpt lat="41.94353322215984" lon="2.562585377542351"><ele>321.0</ele><time>2026-04-08T11:27:46.002Z</time></trkpt><trkpt lat="41.943466260075375" lon="2.562782969511379"><ele>321.0</ele><time>2026-04-08T11:27:47.002Z</time></trkpt><trkpt lat="41.94339674950279" lon="2.562962143689561"><ele>321.0</ele><time>2026-04-08T11:27:48.002Z</time></trkpt><trkpt lat="41.943312478534516" lon="2.5631347030264533"><ele>321.0</ele><time>2026-04-08T11:27:49.002Z</time></trkpt><trkpt lat="41.943202429277655" lon="2.563304012122021"><ele>321.0</ele><time>2026-04-08T11:27:50.002Z</time></trkpt><trkpt lat="41.943077972824454" lon="2.563470989417067"><ele>321.0</ele><time>2026-04-08T11:27:51.002Z</time></trkpt><trkpt lat="41.94293551656426" lon="2.5636610658943417"><ele>320.6666666666667</ele><time>2026-04-08T11:27:52.002Z</time></trkpt><trkpt lat="41.942788586822196" lon="2.5638678215043917"><ele>320.33333333333337</ele><time>2026-04-08T11:27:53.002Z</time></trkpt><trkpt lat="41.942636114126195" lon="2.5640810861277914"><ele>320.0</ele><time>2026-04-08T11:27:54.002Z</time></trkpt><trkpt lat="41.94248002287536" lon="2.5643009714021283"><ele>320.0</ele><time>2026-04-08T11:27:55.002Z</time></trkpt><trkpt lat="41.94233143041289" lon="2.564514722475486"><ele>320.0</ele><time>2026-04-08T11:27:56.002Z</time></trkpt><trkpt lat="41.942189511897645" lon="2.5647144338742516"><ele>320.0</ele><time>2026-04-08T11:27:57.001Z</time></trkpt><trkpt lat="41.9420506185909" lon="2.5649036344489686"><ele>320.0</ele><time>2026-04-08T11:27:58.001Z</time></trkpt><trkpt lat="41.941912967551154" lon="2.5650698250287647"><ele>320.0</ele><time>2026-04-08T11:27:59.001Z</time></trkpt><trkpt lat="41.941767822234446" lon="2.565198280728605"><ele>320.0</ele><time>2026-04-08T11:28:00.001Z</time></trkpt><trkpt lat="41.941654844084994" lon="2.5653787857450223"><ele>318.6666666666667</ele><time>2026-04-08T11:28:01Z</time></trkpt><trkpt lat="41.94153355885653" lon="2.565552274528343"><ele>317.3333333333333</ele><time>2026-04-08T11:28:02.001Z</time></trkpt><trkpt lat="41.9413996673321" lon="2.5657164028565633"><ele>316.0</ele><time>2026-04-08T11:28:03Z</time></trkpt><trkpt lat="41.94128022392703" lon="2.565887502690033"><ele>316.0</ele><time>2026-04-08T11:28:04Z</time></trkpt><trkpt lat="41.94116484221436" lon="2.566052700283974"><ele>316.0</ele><time>2026-04-08T11:28:05Z</time></trkpt><trkpt lat="41.94106028208412" lon="2.5662041301240484"><ele>316.0</ele><time>2026-04-08T11:28:06Z</time></trkpt><trkpt lat="41.94096890896936" lon="2.5663418136617295"><ele>314.3333333333333</ele><time>2026-04-08T11:28:07Z</time></trkpt><trkpt lat="41.94088995452635" lon="2.566501381063692"><ele>312.6666666666667</ele><time>2026-04-08T11:28:08Z</time></trkpt><trkpt lat="41.94084740727329" lon="2.566713029702282"><ele>311.0</ele><time>2026-04-08T11:28:09Z</time></trkpt><trkpt lat="41.94077351809138" lon="2.566898935773729"><ele>311.75</ele><time>2026-04-08T11:28:10Z</time></trkpt><trkpt lat="41.940691952665965" lon="2.5670644570083936"><ele>312.5</ele><time>2026-04-08T11:28:11Z</time></trkpt><trkpt lat="41.94062857281478" lon="2.5672300749158743"><ele>313.25</ele><time>2026-04-08T11:28:12Z</time></trkpt><trkpt lat="41.94058351591667" lon="2.567403837093586"><ele>314.0</ele><time>2026-04-08T11:28:13Z</time></trkpt><trkpt lat="41.940558523011326" lon="2.5675850269272287"><ele>314.0</ele><time>2026-04-08T11:28:14Z</time></trkpt><trkpt lat="41.940516621784745" lon="2.5677560721868256"><ele>314.0</ele><time>2026-04-08T11:28:15Z</time></trkpt><trkpt lat="41.94048706161271" lon="2.5679195703830464"><ele>314.0</ele><time>2026-04-08T11:28:16Z</time></trkpt><trkpt lat="41.94046245070958" lon="2.5680607335018277"><ele>314.0</ele><time>2026-04-08T11:28:17Z</time></trkpt><trkpt lat="41.94044505857657" lon="2.5681867207937423"><ele>313.8</ele><time>2026-04-08T11:28:18Z</time></trkpt><trkpt lat="41.940449370771184" lon="2.5683118275761014"><ele>313.59999999999997</ele><time>2026-04-08T11:28:19Z</time></trkpt><trkpt lat="41.94047534659876" lon="2.5684285343053066"><ele>313.4</ele><time>2026-04-08T11:28:20Z</time></trkpt><trkpt lat="41.94053396187793" lon="2.568548545226458"><ele>313.2</ele><time>2026-04-08T11:28:21Z</time></trkpt><trkpt lat="41.94061664766889" lon="2.56866495556499"><ele>313.0</ele><time>2026-04-08T11:28:22Z</time></trkpt><trkpt lat="41.940723765574376" lon="2.5687891739878017"><ele>313.0</ele><time>2026-04-08T11:28:23.001Z</time></trkpt><trkpt lat="41.940845671070214" lon="2.568930683121162"><ele>313.0</ele><time>2026-04-08T11:28:24.001Z</time></trkpt><trkpt lat="41.9409776185105" lon="2.56908441121931"><ele>313.0</ele><time>2026-04-08T11:28:25.001Z</time></trkpt><trkpt lat="41.941107842658134" lon="2.569243593372176"><ele>313.66666666666663</ele><time>2026-04-08T11:28:26.001Z</time></trkpt><trkpt lat="41.94123855187824" lon="2.5694066181856208"><ele>314.3333333333333</ele><time>2026-04-08T11:28:27.001Z</time></trkpt><trkpt lat="41.94137011976691" lon="2.569565911419053"><ele>315.0</ele><time>2026-04-08T11:28:28.001Z</time></trkpt><trkpt lat="41.94149624602703" lon="2.5697153449921233"><ele>315.0</ele><time>2026-04-08T11:28:29.001Z</time></trkpt><trkpt lat="41.94161349088013" lon="2.5698595787363416"><ele>315.0</ele><time>2026-04-08T11:28:30.001Z</time></trkpt><trkpt lat="41.941725032106554" lon="2.5700052492745753"><ele>315.0</ele><time>2026-04-08T11:28:31.001Z</time></trkpt><trkpt lat="41.94182610043763" lon="2.5701537289251206"><ele>315.3333333333333</ele><time>2026-04-08T11:28:32.001Z</time></trkpt><trkpt lat="41.94190395436023" lon="2.5703125625329784"><ele>315.66666666666663</ele><time>2026-04-08T11:28:33.001Z</time></trkpt><trkpt lat="41.941972698519365" lon="2.5704951599109007"><ele>316.0</ele><time>2026-04-08T11:28:34.001Z</time></trkpt><trkpt lat="41.94203133222725" lon="2.570713438359488"><ele>316.0</ele><time>2026-04-08T11:28:35.001Z</time></trkpt><trkpt lat="41.94209617152523" lon="2.5709552379907"><ele>316.0</ele><time>2026-04-08T11:28:36.001Z</time></trkpt><trkpt lat="41.9421750312747" lon="2.5712086217341885"><ele>316.0</ele><time>2026-04-08T11:28:37.001Z</time></trkpt><trkpt lat="41.942238261341444" lon="2.5714535441767623"><ele>315.25</ele><time>2026-04-08T11:28:38.001Z</time></trkpt><trkpt lat="41.94229487740591" lon="2.571662184568236"><ele>314.5</ele><time>2026-04-08T11:28:39.001Z</time></trkpt><trkpt lat="41.942338675912" lon="2.5718522489021027"><ele>313.75</ele><time>2026-04-08T11:28:40.001Z</time></trkpt><trkpt lat="41.94237355716207" lon="2.5720282420620126"><ele>313.0</ele><time>2026-04-08T11:28:41.001Z</time></trkpt><trkpt lat="41.94241375580744" lon="2.572197635834906"><ele>312.25</ele><time>2026-04-08T11:28:42.001Z</time></trkpt><trkpt lat="41.94242248468094" lon="2.572354407109132"><ele>311.5</ele><time>2026-04-08T11:28:43.001Z</time></trkpt><trkpt lat="41.942421611065406" lon="2.572530385347957"><ele>310.75</ele><time>2026-04-08T11:28:44.001Z</time></trkpt><trkpt lat="41.94239791774633" lon="2.57269196277445"><ele>310.0</ele><time>2026-04-08T11:28:45.001Z</time></trkpt><trkpt lat="41.94234047885514" lon="2.5728619193832247"><ele>309.66666666666663</ele><time>2026-04-08T11:28:46.001Z</time></trkpt><trkpt lat="41.94225839864444" lon="2.5730544839869016"><ele>309.3333333333333</ele><time>2026-04-08T11:28:47.001Z</time></trkpt><trkpt lat="41.94217381659211" lon="2.5732887842225334"><ele>309.0</ele><time>2026-04-08T11:28:48.001Z</time></trkpt><trkpt lat="41.94208471637533" lon="2.5735251024331562"><ele>311.3333333333333</ele><time>2026-04-08T11:28:49.001Z</time></trkpt><trkpt lat="41.942003600236504" lon="2.573746302354067"><ele>313.66666666666663</ele><time>2026-04-08T11:28:50.001Z</time></trkpt><trkpt lat="41.94192307588368" lon="2.573940501048765"><ele>316.0</ele><time>2026-04-08T11:28:51.001Z</time></trkpt><trkpt lat="41.94186094478175" lon="2.5741140687159065"><ele>316.0</ele><time>2026-04-08T11:28:52.001Z</time></trkpt><trkpt lat="41.941814000675926" lon="2.574274448511678"><ele>316.0</ele><time>2026-04-08T11:28:53.001Z</time></trkpt><trkpt lat="41.94177520326344" lon="2.5744413511772044"><ele>316.0</ele><time>2026-04-08T11:28:54.001Z</time></trkpt><trkpt lat="41.94178431770136" lon="2.574636082486742"><ele>316.0</ele><time>2026-04-08T11:28:55.001Z</time></trkpt><trkpt lat="41.9418143209304" lon="2.574803326371248"><ele>313.3333333333333</ele><time>2026-04-08T11:28:56.001Z</time></trkpt><trkpt lat="41.94185861261698" lon="2.574978494244253"><ele>310.6666666666667</ele><time>2026-04-08T11:28:57.001Z</time></trkpt><trkpt lat="41.94194437802662" lon="2.5751569462038457"><ele>308.0</ele><time>2026-04-08T11:28:58.001Z</time></trkpt><trkpt lat="41.94204408797624" lon="2.5753314385543935"><ele>307.75</ele><time>2026-04-08T11:28:59.001Z</time></trkpt><trkpt lat="41.9421434576128" lon="2.5754767168809027"><ele>307.5</ele><time>2026-04-08T11:29:00.001Z</time></trkpt><trkpt lat="41.94223155509449" lon="2.575617231272175"><ele>307.25</ele><time>2026-04-08T11:29:01.001Z</time></trkpt><trkpt lat="41.94233360738104" lon="2.5757431341482118"><ele>307.0</ele><time>2026-04-08T11:29:02.001Z</time></trkpt><trkpt lat="41.942485324290566" lon="2.575844947393404"><ele>305.3333333333333</ele><time>2026-04-08T11:29:03.001Z</time></trkpt><trkpt lat="41.94262932052902" lon="2.5759239878660107"><ele>303.6666666666667</ele><time>2026-04-08T11:29:04.001Z</time></trkpt><trkpt lat="41.942793640503055" lon="2.576010408224315"><ele>302.0</ele><time>2026-04-08T11:29:05.001Z</time></trkpt><trkpt lat="41.94296344656797" lon="2.5760984292215467"><ele>301.6666666666667</ele><time>2026-04-08T11:29:06.001Z</time></trkpt><trkpt lat="41.94314358162501" lon="2.57618714691058"><ele>301.3333333333333</ele><time>2026-04-08T11:29:07.001Z</time></trkpt><trkpt lat="41.94333343322833" lon="2.576272859082168"><ele>301.0</ele><time>2026-04-08T11:29:08.001Z</time></trkpt><trkpt lat="41.94351740936597" lon="2.5763571714909475"><ele>301.0</ele><time>2026-04-08T11:29:09.001Z</time></trkpt><trkpt lat="41.94367779928478" lon="2.5764310813942473"><ele>301.0</ele><time>2026-04-08T11:29:10.001Z</time></trkpt><trkpt lat="41.943826007441054" lon="2.576498731047803"><ele>301.0</ele><time>2026-04-08T11:29:11.001Z</time></trkpt><trkpt lat="41.9439548652548" lon="2.5765567846703177"><ele>301.0</ele><time>2026-04-08T11:29:12.001Z</time></trkpt><trkpt lat="41.94406323372072" lon="2.5766092701742234"><ele>301.0</ele><time>2026-04-08T11:29:13.001Z</time></trkpt><trkpt lat="41.94417475950929" lon="2.576665307892854"><ele>301.0</ele><time>2026-04-08T11:29:14.001Z</time></trkpt><trkpt lat="41.944262663830486" lon="2.576744757112541"><ele>301.0</ele><time>2026-04-08T11:29:15.001Z</time></trkpt><trkpt lat="41.94431764138882" lon="2.5768358192531253"><ele>301.0</ele><time>2026-04-08T11:29:16.001Z</time></trkpt><trkpt lat="41.944368432246115" lon="2.576978722966951"><ele>300.75</ele><time>2026-04-08T11:29:17.001Z</time></trkpt><trkpt lat="41.94441593408535" lon="2.577162643742295"><ele>300.5</ele><time>2026-04-08T11:29:18.001Z</time></trkpt><trkpt lat="41.94445393586177" lon="2.577331017923621"><ele>300.25</ele><time>2026-04-08T11:29:19.001Z</time></trkpt><trkpt lat="41.94447495358889" lon="2.577482173946507"><ele>300.0</ele><time>2026-04-08T11:29:20.001Z</time></trkpt><trkpt lat="41.944462562824654" lon="2.577616299460339"><ele>300.0</ele><time>2026-04-08T11:29:21.001Z</time></trkpt><trkpt lat="41.94443349844565" lon="2.5777428430049554"><ele>300.0</ele><time>2026-04-08T11:29:22.001Z</time></trkpt><trkpt lat="41.94437933667704" lon="2.577857882685329"><ele>300.0</ele><time>2026-04-08T11:29:23.001Z</time></trkpt><trkpt lat="41.944287720480865" lon="2.5779609021486563"><ele>300.0</ele><time>2026-04-08T11:29:24.001Z</time></trkpt><trkpt lat="41.94416418600696" lon="2.578066884381245"><ele>298.25</ele><time>2026-04-08T11:29:25.001Z</time></trkpt><trkpt lat="41.9440436405502" lon="2.5781915657542136"><ele>296.5</ele><time>2026-04-08T11:29:26.001Z</time></trkpt><trkpt lat="41.943932600378254" lon="2.578288345868073"><ele>294.75</ele><time>2026-04-08T11:29:27.001Z</time></trkpt><trkpt lat="41.94381743294305" lon="2.578349435875953"><ele>293.0</ele><time>2026-04-08T11:29:28.001Z</time></trkpt><trkpt lat="41.94370391006528" lon="2.5784247218884424"><ele>293.0</ele><time>2026-04-08T11:29:29.001Z</time></trkpt><trkpt lat="41.943616408526715" lon="2.578495035751684"><ele>293.0</ele><time>2026-04-08T11:29:30.001Z</time></trkpt><trkpt lat="41.943546495940815" lon="2.5786149228985944"><ele>293.0</ele><time>2026-04-08T11:29:31.001Z</time></trkpt><trkpt lat="41.943476937700396" lon="2.578744451439793"><ele>293.0</ele><time>2026-04-08T11:29:32.001Z</time></trkpt><trkpt lat="41.943436450120004" lon="2.578886733388444"><ele>293.0</ele><time>2026-04-08T11:29:33.001Z</time></trkpt><trkpt lat="41.943447664002626" lon="2.5790061081020608"><ele>293.2</ele><time>2026-04-08T11:29:34.001Z</time></trkpt><trkpt lat="41.943460744040834" lon="2.5791137048727055"><ele>293.4</ele><time>2026-04-08T11:29:35.001Z</time></trkpt><trkpt lat="41.9435091902422" lon="2.5792312740481855"><ele>293.59999999999997</ele><time>2026-04-08T11:29:36.001Z</time></trkpt><trkpt lat="41.9435390357292" lon="2.579378649534404"><ele>293.8</ele><time>2026-04-08T11:29:37.001Z</time></trkpt><trkpt lat="41.943558440734215" lon="2.579555876370993"><ele>294.0</ele><time>2026-04-08T11:29:38.001Z</time></trkpt><trkpt lat="41.943580496149345" lon="2.5797148297660573"><ele>293.2</ele><time>2026-04-08T11:29:39.001Z</time></trkpt><trkpt lat="41.94362902668681" lon="2.5798480054473916"><ele>292.4</ele><time>2026-04-08T11:29:40.001Z</time></trkpt><trkpt lat="41.94366051505706" lon="2.579974747104229"><ele>291.6</ele><time>2026-04-08T11:29:41.001Z</time></trkpt><trkpt lat="41.94371200462203" lon="2.580082438350168"><ele>290.8</ele><time>2026-04-08T11:29:42.001Z</time></trkpt><trkpt lat="41.943792537042796" lon="2.58017493368837"><ele>290.0</ele><time>2026-04-08T11:29:43.001Z</time></trkpt><trkpt lat="41.94390085244579" lon="2.580203939300401"><ele>290.0</ele><time>2026-04-08T11:29:44.001Z</time></trkpt><trkpt lat="41.944002802118476" lon="2.5802510352876564"><ele>290.0</ele><time>2026-04-08T11:29:45.001Z</time></trkpt><trkpt lat="41.94409688382303" lon="2.5802929502989795"><ele>290.0</ele><time>2026-04-08T11:29:46.001Z</time></trkpt><trkpt lat="41.944176208599266" lon="2.5803467550043213"><ele>290.0</ele><time>2026-04-08T11:29:47.001Z</time></trkpt><trkpt lat="41.944240923107735" lon="2.5804242567240747"><ele>290.0</ele><time>2026-04-08T11:29:48.001Z</time></trkpt><trkpt lat="41.94429396758046" lon="2.5805356554919823"><ele>292.5</ele><time>2026-04-08T11:29:49.001Z</time></trkpt><trkpt lat="41.9443634832451" lon="2.580662756742271"><ele>295.0</ele><time>2026-04-08T11:29:50.001Z</time></trkpt><trkpt lat="41.94442679024867" lon="2.5808073833927634"><ele>297.5</ele><time>2026-04-08T11:29:51.001Z</time></trkpt><trkpt lat="41.94446954324129" lon="2.580970796840289"><ele>300.0</ele><time>2026-04-08T11:29:52.001Z</time></trkpt><trkpt lat="41.94450464777729" lon="2.5811559330637484"><ele>298.0</ele><time>2026-04-08T11:29:53.001Z</time></trkpt><trkpt lat="41.944540135528605" lon="2.5813664254651165"><ele>296.0</ele><time>2026-04-08T11:29:54.001Z</time></trkpt><trkpt lat="41.944569240259156" lon="2.5815939407229753"><ele>294.0</ele><time>2026-04-08T11:29:55.001Z</time></trkpt><trkpt lat="41.944634490948985" lon="2.5818202509766017"><ele>294.0</ele><time>2026-04-08T11:29:56.001Z</time></trkpt><trkpt lat="41.944716937446366" lon="2.5820534887367717"><ele>294.0</ele><time>2026-04-08T11:29:57.001Z</time></trkpt><trkpt lat="41.944796616916534" lon="2.5822788986843443"><ele>294.0</ele><time>2026-04-08T11:29:58.002Z</time></trkpt><trkpt lat="41.944869137301936" lon="2.5824840558718734"><ele>294.0</ele><time>2026-04-08T11:29:59.002Z</time></trkpt><trkpt lat="41.944994177899005" lon="2.5826337023629606"><ele>294.0</ele><time>2026-04-08T11:30:00.002Z</time></trkpt><trkpt lat="41.94506397342749" lon="2.582806694141466"><ele>294.0</ele><time>2026-04-08T11:30:01.002Z</time></trkpt><trkpt lat="41.94512215436612" lon="2.5829769438951344"><ele>294.6666666666667</ele><time>2026-04-08T11:30:02.002Z</time></trkpt><trkpt lat="41.94516769751992" lon="2.583173872491531"><ele>295.33333333333337</ele><time>2026-04-08T11:30:03.001Z</time></trkpt><trkpt lat="41.94519747766521" lon="2.5833844870928617"><ele>296.0</ele><time>2026-04-08T11:30:04.001Z</time></trkpt><trkpt lat="41.94524492927024" lon="2.583593656406783"><ele>292.33333333333337</ele><time>2026-04-08T11:30:05.001Z</time></trkpt><trkpt lat="41.94532021856989" lon="2.583803240220883"><ele>288.6666666666667</ele><time>2026-04-08T11:30:06.001Z</time></trkpt><trkpt lat="41.945404491362574" lon="2.5839987049906568"><ele>285.0</ele><time>2026-04-08T11:30:07.001Z</time></trkpt><trkpt lat="41.945489309602856" lon="2.5841784421086005"><ele>285.0</ele><time>2026-04-08T11:30:08.001Z</time></trkpt><trkpt lat="41.94555565924674" lon="2.5843507758456803"><ele>285.0</ele><time>2026-04-08T11:30:09.001Z</time></trkpt><trkpt lat="41.94560077212614" lon="2.5845260551677898"><ele>285.0</ele><time>2026-04-08T11:30:10.001Z</time></trkpt><trkpt lat="41.94563378732117" lon="2.5846943582673596"><ele>285.0</ele><time>2026-04-08T11:30:11.001Z</time></trkpt><trkpt lat="41.94565189538154" lon="2.5848473538933803"><ele>284.5</ele><time>2026-04-08T11:30:12.001Z</time></trkpt><trkpt lat="41.9456546066935" lon="2.584985584807546"><ele>284.0</ele><time>2026-04-08T11:30:13.001Z</time></trkpt><trkpt lat="41.945632020655175" lon="2.5851264516545833"><ele>283.5</ele><time>2026-04-08T11:30:14.001Z</time></trkpt><trkpt lat="41.945597242042865" lon="2.585294063443966"><ele>283.0</ele><time>2026-04-08T11:30:15Z</time></trkpt><trkpt lat="41.945592604948935" lon="2.5854463425949836"><ele>283.0</ele><time>2026-04-08T11:30:16Z</time></trkpt><trkpt lat="41.94559586152604" lon="2.5855960882984865"><ele>283.0</ele><time>2026-04-08T11:30:17Z</time></trkpt><trkpt lat="41.94562169471385" lon="2.585743638461155"><ele>283.0</ele><time>2026-04-08T11:30:18Z</time></trkpt><trkpt lat="41.945676232133344" lon="2.5859070267587025"><ele>283.0</ele><time>2026-04-08T11:30:19Z</time></trkpt><trkpt lat="41.94571111027735" lon="2.5860575306149474"><ele>283.0</ele><time>2026-04-08T11:30:20Z</time></trkpt><trkpt lat="41.945771600321436" lon="2.586199541678681"><ele>283.0</ele><time>2026-04-08T11:30:21Z</time></trkpt><trkpt lat="41.94587601658956" lon="2.5863536661855275"><ele>283.0</ele><time>2026-04-08T11:30:22Z</time></trkpt><trkpt lat="41.94599473718911" lon="2.586528613775951"><ele>283.0</ele><time>2026-04-08T11:30:23Z</time></trkpt><trkpt lat="41.94612388936923" lon="2.58669939896807"><ele>283.0</ele><time>2026-04-08T11:30:24Z</time></trkpt><trkpt lat="41.94624676587214" lon="2.5868837050708633"><ele>283.0</ele><time>2026-04-08T11:30:25Z</time></trkpt><trkpt lat="41.946352741979936" lon="2.5870722779517368"><ele>281.3333333333333</ele><time>2026-04-08T11:30:26Z</time></trkpt><trkpt lat="41.94646770090646" lon="2.58726539381658"><ele>279.6666666666667</ele><time>2026-04-08T11:30:27Z</time></trkpt><trkpt lat="41.94659894861263" lon="2.5874429453449355"><ele>278.0</ele><time>2026-04-08T11:30:28Z</time></trkpt><trkpt lat="41.94673022198608" lon="2.5876074937344375"><ele>278.0</ele><time>2026-04-08T11:30:29Z</time></trkpt><trkpt lat="41.94685384101454" lon="2.587751924894141"><ele>278.0</ele><time>2026-04-08T11:30:30Z</time></trkpt><trkpt lat="41.94696164873106" lon="2.5878864926147336"><ele>278.0</ele><time>2026-04-08T11:30:31Z</time></trkpt><trkpt lat="41.94705226493139" lon="2.5880266312652496"><ele>278.0</ele><time>2026-04-08T11:30:32Z</time></trkpt><trkpt lat="41.947129003735704" lon="2.5881582351641823"><ele>275.5</ele><time>2026-04-08T11:30:33Z</time></trkpt><trkpt lat="41.94722882238084" lon="2.5882698235989037"><ele>273.0</ele><time>2026-04-08T11:30:34Z</time></trkpt><trkpt lat="41.94735065279997" lon="2.5883807595926966"><ele>270.5</ele><time>2026-04-08T11:30:35Z</time></trkpt><trkpt lat="41.94749349143322" lon="2.5884822747094565"><ele>268.0</ele><time>2026-04-08T11:30:36Z</time></trkpt><trkpt lat="41.947648481490646" lon="2.588580488880589"><ele>267.75</ele><time>2026-04-08T11:30:37Z</time></trkpt><trkpt lat="41.94779652786634" lon="2.5886557111384616"><ele>267.5</ele><time>2026-04-08T11:30:38Z</time></trkpt><trkpt lat="41.94792973095206" lon="2.5887236677449064"><ele>267.25</ele><time>2026-04-08T11:30:39Z</time></trkpt><trkpt lat="41.94806285086303" lon="2.588762603615266"><ele>267.0</ele><time>2026-04-08T11:30:40Z</time></trkpt><trkpt lat="41.94820112661021" lon="2.588771070396947"><ele>266.6</ele><time>2026-04-08T11:30:41Z</time></trkpt><trkpt lat="41.948336610660995" lon="2.5887426370712117"><ele>266.2</ele><time>2026-04-08T11:30:42Z</time></trkpt><trkpt lat="41.948456442920126" lon="2.5887166266009793"><ele>265.8</ele><time>2026-04-08T11:30:43Z</time></trkpt><trkpt lat="41.94855480357245" lon="2.588701991796553"><ele>265.4</ele><time>2026-04-08T11:30:44.001Z</time></trkpt><trkpt lat="41.948641066326786" lon="2.5887098356810117"><ele>265.0</ele><time>2026-04-08T11:30:45.001Z</time></trkpt><trkpt lat="41.94872863510243" lon="2.5887510234430957"><ele>265.0</ele><time>2026-04-08T11:30:46.001Z</time></trkpt><trkpt lat="41.9488228038181" lon="2.5888217386019905"><ele>265.0</ele><time>2026-04-08T11:30:47.001Z</time></trkpt><trkpt lat="41.94889929544538" lon="2.588905707798993"><ele>265.0</ele><time>2026-04-08T11:30:48.001Z</time></trkpt><trkpt lat="41.94894723360348" lon="2.589003597574406"><ele>265.0</ele><time>2026-04-08T11:30:49.001Z</time></trkpt><trkpt lat="41.948970556383195" lon="2.5891211063871635"><ele>265.0</ele><time>2026-04-08T11:30:50.001Z</time></trkpt><trkpt lat="41.94897038360303" lon="2.5892526041163104"><ele>265.0</ele><time>2026-04-08T11:30:51.001Z</time></trkpt><trkpt lat="41.94895389871847" lon="2.5894168638467723"><ele>265.0</ele><time>2026-04-08T11:30:52.001Z</time></trkpt><trkpt lat="41.948929342471004" lon="2.5896206870232095"><ele>265.0</ele><time>2026-04-08T11:30:53.001Z</time></trkpt><trkpt lat="41.94890039329121" lon="2.589857753591004"><ele>263.66666666666663</ele><time>2026-04-08T11:30:54.001Z</time></trkpt><trkpt lat="41.948872394941915" lon="2.590091889965898"><ele>262.3333333333333</ele><time>2026-04-08T11:30:55.001Z</time></trkpt><trkpt lat="41.948843535910285" lon="2.590336258675723"><ele>261.0</ele><time>2026-04-08T11:30:56.001Z</time></trkpt><trkpt lat="41.948816251260006" lon="2.590573213805187"><ele>261.3333333333333</ele><time>2026-04-08T11:30:57.001Z</time></trkpt><trkpt lat="41.9487914856897" lon="2.5907915219798148"><ele>261.66666666666663</ele><time>2026-04-08T11:30:58.001Z</time></trkpt><trkpt lat="41.948768535461575" lon="2.5909972810493653"><ele>262.0</ele><time>2026-04-08T11:30:59.001Z</time></trkpt><trkpt lat="41.94874849205023" lon="2.591182754768779"><ele>262.0</ele><time>2026-04-08T11:31:00.001Z</time></trkpt><trkpt lat="41.948732986530594" lon="2.5913348688069644"><ele>262.0</ele><time>2026-04-08T11:31:01.001Z</time></trkpt><trkpt lat="41.94872752915517" lon="2.591471494664789"><ele>262.0</ele><time>2026-04-08T11:31:02.001Z</time></trkpt><trkpt lat="41.94874536505823" lon="2.5916037069224487"><ele>262.0</ele><time>2026-04-08T11:31:03.001Z</time></trkpt><trkpt lat="41.948781505631906" lon="2.5917374596045737"><ele>262.0</ele><time>2026-04-08T11:31:04.001Z</time></trkpt><trkpt lat="41.948818680252806" lon="2.591856389644785"><ele>262.0</ele><time>2026-04-08T11:31:05.001Z</time></trkpt><trkpt lat="41.94887270399776" lon="2.5919631564215586"><ele>262.0</ele><time>2026-04-08T11:31:06.001Z</time></trkpt><trkpt lat="41.94895612639433" lon="2.5920430543878723"><ele>262.0</ele><time>2026-04-08T11:31:07.001Z</time></trkpt><trkpt lat="41.949053582649725" lon="2.59211184666091"><ele>262.0</ele><time>2026-04-08T11:31:08.001Z</time></trkpt><trkpt lat="41.94915321684036" lon="2.592178166172676"><ele>262.0</ele><time>2026-04-08T11:31:09.001Z</time></trkpt><trkpt lat="41.94925698222139" lon="2.5922191164262487"><ele>262.0</ele><time>2026-04-08T11:31:10.001Z</time></trkpt><trkpt lat="41.94936764167027" lon="2.5922207781477566"><ele>262.0</ele><time>2026-04-08T11:31:11.001Z</time></trkpt><trkpt lat="41.94947356418547" lon="2.5922343429379335"><ele>262.0</ele><time>2026-04-08T11:31:12.001Z</time></trkpt><trkpt lat="41.94958349267635" lon="2.592294646165693"><ele>262.0</ele><time>2026-04-08T11:31:13.001Z</time></trkpt><trkpt lat="41.9496962444147" lon="2.592367665417835"><ele>262.0</ele><time>2026-04-08T11:31:14.001Z</time></trkpt><trkpt lat="41.94978562029182" lon="2.5924261514855926"><ele>262.0</ele><time>2026-04-08T11:31:15.001Z</time></trkpt><trkpt lat="41.94986662894429" lon="2.592475015419819"><ele>262.0</ele><time>2026-04-08T11:31:16.001Z</time></trkpt><trkpt lat="41.949937389871415" lon="2.592482864575733"><ele>262.0</ele><time>2026-04-08T11:31:17.001Z</time></trkpt><trkpt lat="41.950003096638795" lon="2.592459528055975"><ele>262.0</ele><time>2026-04-08T11:31:18.001Z</time></trkpt><trkpt lat="41.95005698205486" lon="2.5924143898454943"><ele>262.0</ele><time>2026-04-08T11:31:19.001Z</time></trkpt><trkpt lat="41.95015421092901" lon="2.5923201170888475"><ele>261.4</ele><time>2026-04-08T11:31:21.001Z</time></trkpt><trkpt lat="41.95025695424004" lon="2.5922406685574026"><ele>260.79999999999995</ele><time>2026-04-08T11:31:23.001Z</time></trkpt><trkpt lat="41.95031098903448" lon="2.5921880921866265"><ele>260.2</ele><time>2026-04-08T11:31:24.001Z</time></trkpt><trkpt lat="41.95037394741037" lon="2.592125654540351"><ele>259.59999999999997</ele><time>2026-04-08T11:31:25.001Z</time></trkpt><trkpt lat="41.95045187971223" lon="2.5920607015650172"><ele>259.0</ele><time>2026-04-08T11:31:26.001Z</time></trkpt><trkpt lat="41.95053636881016" lon="2.5919965294310656"><ele>259.0</ele><time>2026-04-08T11:31:27.001Z</time></trkpt><trkpt lat="41.950634201225625" lon="2.5919487519813473"><ele>259.0</ele><time>2026-04-08T11:31:28.001Z</time></trkpt><trkpt lat="41.95075105899017" lon="2.5919240600285747"><ele>259.0</ele><time>2026-04-08T11:31:29.001Z</time></trkpt><trkpt lat="41.95087032673793" lon="2.5918978255412366"><ele>259.0</ele><time>2026-04-08T11:31:30.001Z</time></trkpt><trkpt lat="41.95097900487418" lon="2.591874670618187"><ele>258.66666666666663</ele><time>2026-04-08T11:31:31.001Z</time></trkpt><trkpt lat="41.951081109975426" lon="2.591854375447135"><ele>258.3333333333333</ele><time>2026-04-08T11:31:32.001Z</time></trkpt><trkpt lat="41.951177425362914" lon="2.591847706560119"><ele>258.0</ele><time>2026-04-08T11:31:33.001Z</time></trkpt><trkpt lat="41.95125759536002" lon="2.5918634804294105"><ele>257.6666666666667</ele><time>2026-04-08T11:31:34.001Z</time></trkpt><trkpt lat="41.95132772792496" lon="2.5919105483358695"><ele>257.33333333333337</ele><time>2026-04-08T11:31:35.001Z</time></trkpt><trkpt lat="41.95139293697569" lon="2.5919923909509013"><ele>257.0</ele><time>2026-04-08T11:31:36.001Z</time></trkpt><trkpt lat="41.95143959830054" lon="2.5921117960052316"><ele>257.0</ele><time>2026-04-08T11:31:37.001Z</time></trkpt><trkpt lat="41.951472683426594" lon="2.592263717517402"><ele>257.0</ele><time>2026-04-08T11:31:38.001Z</time></trkpt><trkpt lat="41.9514930901101" lon="2.5924312865080816"><ele>257.0</ele><time>2026-04-08T11:31:39.001Z</time></trkpt><trkpt lat="41.95153525749987" lon="2.592614972084563"><ele>257.0</ele><time>2026-04-08T11:31:40.001Z</time></trkpt><trkpt lat="41.95160383627462" lon="2.5928135182898315"><ele>257.33333333333337</ele><time>2026-04-08T11:31:41.001Z</time></trkpt><trkpt lat="41.951683249700125" lon="2.5930173518226947"><ele>257.6666666666667</ele><time>2026-04-08T11:31:42.001Z</time></trkpt><trkpt lat="41.95176135519854" lon="2.593213732308032"><ele>258.0</ele><time>2026-04-08T11:31:43.001Z</time></trkpt><trkpt lat="41.95184609260389" lon="2.5934146007798464"><ele>258.0</ele><time>2026-04-08T11:31:44.001Z</time></trkpt><trkpt lat="41.95192264656156" lon="2.5936054172306426"><ele>258.0</ele><time>2026-04-08T11:31:45.001Z</time></trkpt><trkpt lat="41.951996439214305" lon="2.593772812655939"><ele>258.0</ele><time>2026-04-08T11:31:46.001Z</time></trkpt><trkpt lat="41.95205697984337" lon="2.5939183553868737"><ele>258.0</ele><time>2026-04-08T11:31:47.001Z</time></trkpt><trkpt lat="41.95209665693107" lon="2.594049037839715"><ele>257.2</ele><time>2026-04-08T11:31:48.001Z</time></trkpt><trkpt lat="41.952106052808546" lon="2.594182301744446"><ele>256.4</ele><time>2026-04-08T11:31:49.001Z</time></trkpt><trkpt lat="41.95209162427124" lon="2.5943273813032706"><ele>255.59999999999997</ele><time>2026-04-08T11:31:50.001Z</time></trkpt><trkpt lat="41.95205663429266" lon="2.5944747793279537"><ele>254.79999999999998</ele><time>2026-04-08T11:31:51.001Z</time></trkpt><trkpt lat="41.952003755729805" lon="2.594595830547818"><ele>254.0</ele><time>2026-04-08T11:31:52.001Z</time></trkpt><trkpt lat="41.95193485221645" lon="2.594685108864873"><ele>254.0</ele><time>2026-04-08T11:31:53.001Z</time></trkpt><trkpt lat="41.951845666651074" lon="2.594750486509135"><ele>254.0</ele><time>2026-04-08T11:31:54.001Z</time></trkpt><trkpt lat="41.951752359331934" lon="2.5948439246485564"><ele>254.0</ele><time>2026-04-08T11:31:55.001Z</time></trkpt><trkpt lat="41.95166710542183" lon="2.5949768090177385"><ele>254.0</ele><time>2026-04-08T11:31:56.001Z</time></trkpt><trkpt lat="41.95159083561862" lon="2.595147919478511"><ele>252.0</ele><time>2026-04-08T11:31:57.001Z</time></trkpt><trkpt lat="41.951522762082405" lon="2.595332331184475"><ele>250.0</ele><time>2026-04-08T11:31:58.001Z</time></trkpt><trkpt lat="41.95145828682262" lon="2.5955100644569877"><ele>248.0</ele><time>2026-04-08T11:31:59.001Z</time></trkpt><trkpt lat="41.9514005516554" lon="2.5956695398577727"><ele>246.0</ele><time>2026-04-08T11:32:00.001Z</time></trkpt><trkpt lat="41.95136328196734" lon="2.595831600905704"><ele>246.0</ele><time>2026-04-08T11:32:01.001Z</time></trkpt><trkpt lat="41.95135203333428" lon="2.596019010976174"><ele>246.0</ele><time>2026-04-08T11:32:02.001Z</time></trkpt><trkpt lat="41.951364312932604" lon="2.596225165324827"><ele>246.0</ele><time>2026-04-08T11:32:03.001Z</time></trkpt><trkpt lat="41.951393957952924" lon="2.596449938793652"><ele>246.0</ele><time>2026-04-08T11:32:04.001Z</time></trkpt><trkpt lat="41.95143020920243" lon="2.5966528708569236"><ele>246.0</ele><time>2026-04-08T11:32:05.001Z</time></trkpt><trkpt lat="41.9514963981359" lon="2.5968641499419447"><ele>246.0</ele><time>2026-04-08T11:32:06.001Z</time></trkpt><trkpt lat="41.951563118250085" lon="2.597065390236387"><ele>248.0</ele><time>2026-04-08T11:32:07.001Z</time></trkpt><trkpt lat="41.95160840967042" lon="2.5972729592215473"><ele>250.0</ele><time>2026-04-08T11:32:08.001Z</time></trkpt><trkpt lat="41.951656025464" lon="2.5974893536012624"><ele>252.0</ele><time>2026-04-08T11:32:09.001Z</time></trkpt><trkpt lat="41.951726998802634" lon="2.5977026052870014"><ele>252.66666666666669</ele><time>2026-04-08T11:32:10.001Z</time></trkpt><trkpt lat="41.95180661171147" lon="2.597900449656959"><ele>253.33333333333334</ele><time>2026-04-08T11:32:11.001Z</time></trkpt><trkpt lat="41.95187733211627" lon="2.598083642094319"><ele>254.0</ele><time>2026-04-08T11:32:12.001Z</time></trkpt><trkpt lat="41.951947233893925" lon="2.598247903141787"><ele>254.0</ele><time>2026-04-08T11:32:13.001Z</time></trkpt><trkpt lat="41.95201476626067" lon="2.5983832644133162"><ele>254.0</ele><time>2026-04-08T11:32:14.001Z</time></trkpt><trkpt lat="41.95209545939409" lon="2.598497495891915"><ele>254.0</ele><time>2026-04-08T11:32:15.001Z</time></trkpt><trkpt lat="41.952200369864485" lon="2.5985954432849168"><ele>254.0</ele><time>2026-04-08T11:32:16.001Z</time></trkpt><trkpt lat="41.952320319043466" lon="2.598670612999654"><ele>251.0</ele><time>2026-04-08T11:32:17.001Z</time></trkpt><trkpt lat="41.95244561321772" lon="2.598742469702915"><ele>248.0</ele><time>2026-04-08T11:32:18.001Z</time></trkpt><trkpt lat="41.95257598178977" lon="2.598814593827339"><ele>245.0</ele><time>2026-04-08T11:32:19.001Z</time></trkpt><trkpt lat="41.9527172054744" lon="2.5988713584374623"><ele>242.0</ele><time>2026-04-08T11:32:20.001Z</time></trkpt><trkpt lat="41.952857491939845" lon="2.598922303810706"><ele>242.0</ele><time>2026-04-08T11:32:21.001Z</time></trkpt><trkpt lat="41.95299306813023" lon="2.5989539820719925"><ele>242.0</ele><time>2026-04-08T11:32:22.001Z</time></trkpt><trkpt lat="41.95312023919895" lon="2.598976829016684"><ele>242.0</ele><time>2026-04-08T11:32:23.001Z</time></trkpt><trkpt lat="41.95324198210902" lon="2.5990113851169494"><ele>242.0</ele><time>2026-04-08T11:32:24.001Z</time></trkpt><trkpt lat="41.953356822931944" lon="2.5990579663516375"><ele>243.2</ele><time>2026-04-08T11:32:25.001Z</time></trkpt><trkpt lat="41.9534619894604" lon="2.5991199149959687"><ele>244.39999999999998</ele><time>2026-04-08T11:32:26.001Z</time></trkpt><trkpt lat="41.95355729528892" lon="2.5992023890255704"><ele>245.60000000000002</ele><time>2026-04-08T11:32:27.001Z</time></trkpt><trkpt lat="41.95362838908556" lon="2.5992980449090948"><ele>246.8</ele><time>2026-04-08T11:32:28.001Z</time></trkpt><trkpt lat="41.95367381761163" lon="2.599411487822298"><ele>248.0</ele><time>2026-04-08T11:32:29.001Z</time></trkpt><trkpt lat="41.95369173137359" lon="2.59954972653379"><ele>248.0</ele><time>2026-04-08T11:32:30.001Z</time></trkpt><trkpt lat="41.95369224544" lon="2.599703265543462"><ele>248.0</ele><time>2026-04-08T11:32:31.001Z</time></trkpt><trkpt lat="41.953673575749505" lon="2.5998443376933214"><ele>248.0</ele><time>2026-04-08T11:32:32.001Z</time></trkpt><trkpt lat="41.95362201331522" lon="2.600006997426302"><ele>248.0</ele><time>2026-04-08T11:32:33.001Z</time></trkpt><trkpt lat="41.9535556524938" lon="2.60019252086862"><ele>248.0</ele><time>2026-04-08T11:32:34.001Z</time></trkpt><trkpt lat="41.95348547031709" lon="2.6003939203954793"><ele>248.0</ele><time>2026-04-08T11:32:35.001Z</time></trkpt><trkpt lat="41.95342150224542" lon="2.600595585222457"><ele>248.0</ele><time>2026-04-08T11:32:36.001Z</time></trkpt><trkpt lat="41.953368721284555" lon="2.6007906134474914"><ele>248.0</ele><time>2026-04-08T11:32:37.001Z</time></trkpt><trkpt lat="41.95332411903237" lon="2.600973780470562"><ele>248.0</ele><time>2026-04-08T11:32:38.001Z</time></trkpt><trkpt lat="41.95329025115412" lon="2.601121259552673"><ele>248.0</ele><time>2026-04-08T11:32:39.001Z</time></trkpt><trkpt lat="41.95328038198715" lon="2.60124527135992"><ele>248.0</ele><time>2026-04-08T11:32:40.001Z</time></trkpt><trkpt lat="41.953304750294414" lon="2.601369932520979"><ele>248.0</ele><time>2026-04-08T11:32:41.001Z</time></trkpt><trkpt lat="41.953347035795915" lon="2.601501095451943"><ele>248.60000000000002</ele><time>2026-04-08T11:32:42.001Z</time></trkpt><trkpt lat="41.95338907554037" lon="2.60164076875281"><ele>249.20000000000002</ele><time>2026-04-08T11:32:43.001Z</time></trkpt><trkpt lat="41.95340535398305" lon="2.6017843912729246"><ele>249.8</ele><time>2026-04-08T11:32:44.001Z</time></trkpt><trkpt lat="41.9534104146982" lon="2.601943775080385"><ele>250.4</ele><time>2026-04-08T11:32:45.001Z</time></trkpt><trkpt lat="41.9534060131514" lon="2.602091414966857"><ele>251.0</ele><time>2026-04-08T11:32:46.001Z</time></trkpt><trkpt lat="41.95340092622691" lon="2.602230614355282"><ele>253.00000000000003</ele><time>2026-04-08T11:32:47.001Z</time></trkpt><trkpt lat="41.95338636376928" lon="2.602342572695209"><ele>255.0</ele><time>2026-04-08T11:32:48.001Z</time></trkpt><trkpt lat="41.95334921071186" lon="2.6024300231331545"><ele>257.0</ele><time>2026-04-08T11:32:49.001Z</time></trkpt><trkpt lat="41.953305852665245" lon="2.602524784970358"><ele>259.0</ele><time>2026-04-08T11:32:50.001Z</time></trkpt><trkpt lat="41.95323525464163" lon="2.602616411864616"><ele>261.0</ele><time>2026-04-08T11:32:51.001Z</time></trkpt><trkpt lat="41.95316795582401" lon="2.6027143382515847"><ele>263.0</ele><time>2026-04-08T11:32:52.001Z</time></trkpt><trkpt lat="41.95310317498793" lon="2.602803879339648"><ele>259.2</ele><time>2026-04-08T11:32:53.001Z</time></trkpt><trkpt lat="41.95303052568392" lon="2.6028771813351725"><ele>255.4</ele><time>2026-04-08T11:32:54.001Z</time></trkpt><trkpt lat="41.95293761067697" lon="2.60290832191211"><ele>251.59999999999997</ele><time>2026-04-08T11:32:55.001Z</time></trkpt><trkpt lat="41.95282039832459" lon="2.6029242406414337"><ele>247.79999999999998</ele><time>2026-04-08T11:32:56.001Z</time></trkpt><trkpt lat="41.952693059642705" lon="2.602932017125616"><ele>244.0</ele><time>2026-04-08T11:32:57.001Z</time></trkpt><trkpt lat="41.952561415346885" lon="2.602954691426725"><ele>241.0</ele><time>2026-04-08T11:32:58.001Z</time></trkpt><trkpt lat="41.95243128140967" lon="2.602991896819516"><ele>238.0</ele><time>2026-04-08T11:32:59.001Z</time></trkpt><trkpt lat="41.95230447263507" lon="2.6030420994671823"><ele>235.0</ele><time>2026-04-08T11:33:00.001Z</time></trkpt><trkpt lat="41.95218184416569" lon="2.603101734960776"><ele>232.0</ele><time>2026-04-08T11:33:01.001Z</time></trkpt><trkpt lat="41.95205598000292" lon="2.603154607734061"><ele>232.0</ele><time>2026-04-08T11:33:02.001Z</time></trkpt><trkpt lat="41.951925946112105" lon="2.603192983703034"><ele>232.0</ele><time>2026-04-08T11:33:03.001Z</time></trkpt><trkpt lat="41.951792373928214" lon="2.6032280359713194"><ele>232.0</ele><time>2026-04-08T11:33:04.001Z</time></trkpt><trkpt lat="41.95165958886893" lon="2.6032540026192996"><ele>232.0</ele><time>2026-04-08T11:33:05.001Z</time></trkpt><trkpt lat="41.95152808799023" lon="2.603283086175717"><ele>232.25</ele><time>2026-04-08T11:33:06.001Z</time></trkpt><trkpt lat="41.95139830005799" lon="2.6033113107187082"><ele>232.5</ele><time>2026-04-08T11:33:07.001Z</time></trkpt><trkpt lat="41.951273838346594" lon="2.603348957244696"><ele>232.75</ele><time>2026-04-08T11:33:08.001Z</time></trkpt><trkpt lat="41.951147078737996" lon="2.603389870787838"><ele>233.0</ele><time>2026-04-08T11:33:09.001Z</time></trkpt><trkpt lat="41.95103072366967" lon="2.6034499281870493"><ele>233.0</ele><time>2026-04-08T11:33:10.001Z</time></trkpt><trkpt lat="41.950911408902044" lon="2.6034990262933335"><ele>233.0</ele><time>2026-04-08T11:33:11.001Z</time></trkpt><trkpt lat="41.95078348395039" lon="2.6035226596447667"><ele>233.0</ele><time>2026-04-08T11:33:12.001Z</time></trkpt><trkpt lat="41.95066080445631" lon="2.6035719838088016"><ele>233.0</ele><time>2026-04-08T11:33:13.001Z</time></trkpt><trkpt lat="41.95053967081048" lon="2.60364028570072"><ele>231.5</ele><time>2026-04-08T11:33:14.001Z</time></trkpt><trkpt lat="41.9504128211484" lon="2.6037300824284215"><ele>230.0</ele><time>2026-04-08T11:33:15.001Z</time></trkpt><trkpt lat="41.950278831866726" lon="2.603811554793776"><ele>228.5</ele><time>2026-04-08T11:33:16.001Z</time></trkpt><trkpt lat="41.95013795931377" lon="2.603899759128005"><ele>227.0</ele><time>2026-04-08T11:33:17.001Z</time></trkpt><trkpt lat="41.95000304610539" lon="2.603991436138882"><ele>225.0</ele><time>2026-04-08T11:33:18.001Z</time></trkpt><trkpt lat="41.94987188653109" lon="2.6040783270800234"><ele>223.0</ele><time>2026-04-08T11:33:19.001Z</time></trkpt><trkpt lat="41.94975025182343" lon="2.6041707054972014"><ele>221.0</ele><time>2026-04-08T11:33:20.001Z</time></trkpt><trkpt lat="41.9496358951382" lon="2.6042592682059564"><ele>219.0</ele><time>2026-04-08T11:33:21.001Z</time></trkpt><trkpt lat="41.949532792865945" lon="2.6043716963436836"><ele>219.0</ele><time>2026-04-08T11:33:22.001Z</time></trkpt><trkpt lat="41.9494367721795" lon="2.6044955360885442"><ele>219.0</ele><time>2026-04-08T11:33:23.001Z</time></trkpt><trkpt lat="41.94934925844248" lon="2.604639095824499"><ele>219.0</ele><time>2026-04-08T11:33:24.001Z</time></trkpt><trkpt lat="41.94928808248757" lon="2.604800434978757"><ele>219.0</ele><time>2026-04-08T11:33:25.001Z</time></trkpt><trkpt lat="41.949234944659814" lon="2.6049664834818276"><ele>220.5</ele><time>2026-04-08T11:33:26.001Z</time></trkpt><trkpt lat="41.94920262298551" lon="2.6051221571183825"><ele>222.0</ele><time>2026-04-08T11:33:27.001Z</time></trkpt><trkpt lat="41.949169352004844" lon="2.6052721587271472"><ele>223.5</ele><time>2026-04-08T11:33:28.001Z</time></trkpt><trkpt lat="41.94915623946077" lon="2.6054186930689225"><ele>225.0</ele><time>2026-04-08T11:33:29.001Z</time></trkpt><trkpt lat="41.9491775086836" lon="2.6055667617164637"><ele>223.0</ele><time>2026-04-08T11:33:30.001Z</time></trkpt><trkpt lat="41.94920859317457" lon="2.6056980676859713"><ele>221.0</ele><time>2026-04-08T11:33:31.001Z</time></trkpt><trkpt lat="41.94927183031084" lon="2.605808400921304"><ele>219.0</ele><time>2026-04-08T11:33:32.001Z</time></trkpt><trkpt lat="41.94935394008869" lon="2.6058951070779615"><ele>217.0</ele><time>2026-04-08T11:33:33.001Z</time></trkpt><trkpt lat="41.94946018578344" lon="2.605953774575945"><ele>215.0</ele><time>2026-04-08T11:33:34.001Z</time></trkpt><trkpt lat="41.94958046819316" lon="2.605997407200659"><ele>215.0</ele><time>2026-04-08T11:33:35.001Z</time></trkpt><trkpt lat="41.94971186943165" lon="2.6060509094324416"><ele>215.0</ele><time>2026-04-08T11:33:36.001Z</time></trkpt><trkpt lat="41.94985181138477" lon="2.606102241824909"><ele>215.0</ele><time>2026-04-08T11:33:37.001Z</time></trkpt><trkpt lat="41.95000376441441" lon="2.606128966534435"><ele>215.0</ele><time>2026-04-08T11:33:38.001Z</time></trkpt><trkpt lat="41.95016835471442" lon="2.606125593758243"><ele>214.33333333333334</ele><time>2026-04-08T11:33:39.001Z</time></trkpt><trkpt lat="41.95033284074231" lon="2.6061126675600432"><ele>213.66666666666669</ele><time>2026-04-08T11:33:40.001Z</time></trkpt><trkpt lat="41.95047936030242" lon="2.60610262332663"><ele>213.0</ele><time>2026-04-08T11:33:41.001Z</time></trkpt><trkpt lat="41.950618708539636" lon="2.6060994108312823"><ele>213.0</ele><time>2026-04-08T11:33:42.001Z</time></trkpt><trkpt lat="41.9507479281986" lon="2.6060963474967522"><ele>213.0</ele><time>2026-04-08T11:33:43.001Z</time></trkpt><trkpt lat="41.950870119584636" lon="2.6061172868417644"><ele>213.0</ele><time>2026-04-08T11:33:44.001Z</time></trkpt><trkpt lat="41.95098280753445" lon="2.606168449751717"><ele>213.0</ele><time>2026-04-08T11:33:45.001Z</time></trkpt><trkpt lat="41.95106845173989" lon="2.606232747612502"><ele>212.0</ele><time>2026-04-08T11:33:46.001Z</time></trkpt><trkpt lat="41.95112521445817" lon="2.6063002449938635"><ele>211.0</ele><time>2026-04-08T11:33:47.001Z</time></trkpt><trkpt lat="41.951154749099274" lon="2.6063782164625304"><ele>210.0</ele><time>2026-04-08T11:33:48.001Z</time></trkpt><trkpt lat="41.95115958857897" lon="2.6064658060126793"><ele>209.0</ele><time>2026-04-08T11:33:49.001Z</time></trkpt><trkpt lat="41.9511378172791" lon="2.6065765930655704"><ele>208.0</ele><time>2026-04-08T11:33:50.001Z</time></trkpt><trkpt lat="41.9511008151981" lon="2.606675998572514"><ele>207.0</ele><time>2026-04-08T11:33:51.001Z</time></trkpt><trkpt lat="41.95103326436174" lon="2.606734602247421"><ele>207.0</ele><time>2026-04-08T11:33:52.001Z</time></trkpt><trkpt lat="41.95094930598363" lon="2.6067706053117683"><ele>207.0</ele><time>2026-04-08T11:33:53.001Z</time></trkpt><trkpt lat="41.95084156451003" lon="2.6067867207119164"><ele>207.0</ele><time>2026-04-08T11:33:54.001Z</time></trkpt><trkpt lat="41.950702493517944" lon="2.6068139211204584"><ele>207.0</ele><time>2026-04-08T11:33:55.001Z</time></trkpt><trkpt lat="41.950565822094966" lon="2.6068519652717472"><ele>206.5</ele><time>2026-04-08T11:33:56.001Z</time></trkpt><trkpt lat="41.95043143017459" lon="2.606894136597059"><ele>206.0</ele><time>2026-04-08T11:33:57.001Z</time></trkpt><trkpt lat="41.95029841758266" lon="2.6069392239862546"><ele>205.5</ele><time>2026-04-08T11:33:58.001Z</time></trkpt><trkpt lat="41.950190401856865" lon="2.607022958693"><ele>205.0</ele><time>2026-04-08T11:33:59.001Z</time></trkpt><trkpt lat="41.950091456669256" lon="2.607105328694917"><ele>207.0</ele><time>2026-04-08T11:34:00.001Z</time></trkpt><trkpt lat="41.95000508072001" lon="2.6071796288257754"><ele>209.0</ele><time>2026-04-08T11:34:01.001Z</time></trkpt><trkpt lat="41.949926482363544" lon="2.607264005192511"><ele>211.0</ele><time>2026-04-08T11:34:02.001Z</time></trkpt><trkpt lat="41.949870044998534" lon="2.607384142783462"><ele>213.0</ele><time>2026-04-08T11:34:03.001Z</time></trkpt><trkpt lat="41.94982314435835" lon="2.6075338578456457"><ele>215.0</ele><time>2026-04-08T11:34:04.001Z</time></trkpt><trkpt lat="41.94978876332313" lon="2.6076835768747637"><ele>215.0</ele><time>2026-04-08T11:34:05.001Z</time></trkpt><trkpt lat="41.94975753413895" lon="2.6078203712719583"><ele>215.0</ele><time>2026-04-08T11:34:06.001Z</time></trkpt><trkpt lat="41.9497430593593" lon="2.6079710006898993"><ele>215.0</ele><time>2026-04-08T11:34:07.001Z</time></trkpt><trkpt lat="41.949754566409425" lon="2.60812881699894"><ele>215.0</ele><time>2026-04-08T11:34:08.001Z</time></trkpt><trkpt lat="41.94979802560526" lon="2.608272125156837"><ele>213.0</ele><time>2026-04-08T11:34:09.001Z</time></trkpt><trkpt lat="41.94986596632048" lon="2.608436010308436"><ele>211.0</ele><time>2026-04-08T11:34:10.001Z</time></trkpt><trkpt lat="41.94991837812128" lon="2.6086039692339424"><ele>209.0</ele><time>2026-04-08T11:34:11.001Z</time></trkpt><trkpt lat="41.94995828480715" lon="2.6087804197492876"><ele>207.0</ele><time>2026-04-08T11:34:12.001Z</time></trkpt><trkpt lat="41.950037432580565" lon="2.608938733860544"><ele>205.5</ele><time>2026-04-08T11:34:13.001Z</time></trkpt><trkpt lat="41.95012583626319" lon="2.6090907422025347"><ele>204.0</ele><time>2026-04-08T11:34:14.001Z</time></trkpt><trkpt lat="41.950219924964664" lon="2.6092190171793956"><ele>202.5</ele><time>2026-04-08T11:34:15.001Z</time></trkpt><trkpt lat="41.9503360569366" lon="2.6093153831179743"><ele>201.0</ele><time>2026-04-08T11:34:16.001Z</time></trkpt><trkpt lat="41.95045412433549" lon="2.609384929694562"><ele>201.0</ele><time>2026-04-08T11:34:17.001Z</time></trkpt><trkpt lat="41.95058107158872" lon="2.6094187300346947"><ele>201.0</ele><time>2026-04-08T11:34:18.001Z</time></trkpt><trkpt lat="41.950722537003806" lon="2.609417964386891"><ele>201.0</ele><time>2026-04-08T11:34:19.001Z</time></trkpt><trkpt lat="41.95084733873216" lon="2.6094193759339066"><ele>201.0</ele><time>2026-04-08T11:34:20.001Z</time></trkpt><trkpt lat="41.95096538118403" lon="2.609438578765956"><ele>201.0</ele><time>2026-04-08T11:34:21.001Z</time></trkpt><trkpt lat="41.95107333732984" lon="2.6094618644037544"><ele>201.0</ele><time>2026-04-08T11:34:22.001Z</time></trkpt><trkpt lat="41.951169157220846" lon="2.6094889653041746"><ele>201.0</ele><time>2026-04-08T11:34:23.001Z</time></trkpt><trkpt lat="41.95123734853332" lon="2.609536895071964"><ele>201.0</ele><time>2026-04-08T11:34:24.001Z</time></trkpt><trkpt lat="41.95128452987175" lon="2.609607155601065"><ele>201.0</ele><time>2026-04-08T11:34:25.001Z</time></trkpt><trkpt lat="41.95129065951455" lon="2.609695796794136"><ele>201.0</ele><time>2026-04-08T11:34:26.001Z</time></trkpt><trkpt lat="41.951264128578885" lon="2.6098078413289825"><ele>200.25</ele><time>2026-04-08T11:34:27.001Z</time></trkpt><trkpt lat="41.951208640702085" lon="2.6099087798548535"><ele>199.5</ele><time>2026-04-08T11:34:28.001Z</time></trkpt><trkpt lat="41.9511138386466" lon="2.6100000796773295"><ele>198.75</ele><time>2026-04-08T11:34:29.001Z</time></trkpt><trkpt lat="41.95099004402075" lon="2.6100920795709053"><ele>198.0</ele><time>2026-04-08T11:34:30Z</time></trkpt><trkpt lat="41.95087804395671" lon="2.610188683404243"><ele>198.25</ele><time>2026-04-08T11:34:31Z</time></trkpt><trkpt lat="41.95076037412479" lon="2.610303608553293"><ele>198.5</ele><time>2026-04-08T11:34:32Z</time></trkpt><trkpt lat="41.95065250958206" lon="2.610396585423268"><ele>198.75</ele><time>2026-04-08T11:34:33Z</time></trkpt><trkpt lat="41.95054640586554" lon="2.610462860099452"><ele>199.0</ele><time>2026-04-08T11:34:34Z</time></trkpt><trkpt lat="41.950426134473325" lon="2.6105571232228697"><ele>196.75</ele><time>2026-04-08T11:34:35Z</time></trkpt><trkpt lat="41.95031429620517" lon="2.6106780323666787"><ele>194.5</ele><time>2026-04-08T11:34:36Z</time></trkpt><trkpt lat="41.95020918258999" lon="2.6108232269680762"><ele>192.25</ele><time>2026-04-08T11:34:37Z</time></trkpt><trkpt lat="41.95009280770063" lon="2.6109483680679006"><ele>190.0</ele><time>2026-04-08T11:34:38Z</time></trkpt><trkpt lat="41.94998864379811" lon="2.611094986739187"><ele>191.66666666666669</ele><time>2026-04-08T11:34:39Z</time></trkpt><trkpt lat="41.949901075970345" lon="2.6112721212771297"><ele>193.33333333333334</ele><time>2026-04-08T11:34:40Z</time></trkpt><trkpt lat="41.94981034803898" lon="2.6114523795997773"><ele>195.0</ele><time>2026-04-08T11:34:41Z</time></trkpt><trkpt lat="41.94971534326721" lon="2.6116315495962406"><ele>195.0</ele><time>2026-04-08T11:34:42Z</time></trkpt><trkpt lat="41.949629893897054" lon="2.611825450584331"><ele>195.0</ele><time>2026-04-08T11:34:43Z</time></trkpt><trkpt lat="41.949554809405846" lon="2.6120234881903963"><ele>195.0</ele><time>2026-04-08T11:34:44Z</time></trkpt><trkpt lat="41.94949020913692" lon="2.6122149966172814"><ele>193.66666666666666</ele><time>2026-04-08T11:34:45Z</time></trkpt><trkpt lat="41.94944192284021" lon="2.6124026488442307"><ele>192.33333333333331</ele><time>2026-04-08T11:34:46Z</time></trkpt><trkpt lat="41.94940393868558" lon="2.6126018046158674"><ele>191.0</ele><time>2026-04-08T11:34:47Z</time></trkpt><trkpt lat="41.94937856326591" lon="2.6128147807907913"><ele>191.66666666666666</ele><time>2026-04-08T11:34:48Z</time></trkpt><trkpt lat="41.949365329025284" lon="2.6130446277479678"><ele>192.33333333333331</ele><time>2026-04-08T11:34:49Z</time></trkpt><trkpt lat="41.94935276244757" lon="2.613274778256493"><ele>193.0</ele><time>2026-04-08T11:34:50Z</time></trkpt><trkpt lat="41.949352212592515" lon="2.613476241557032"><ele>193.0</ele><time>2026-04-08T11:34:51Z</time></trkpt><trkpt lat="41.94933838476158" lon="2.6136516056388417"><ele>193.0</ele><time>2026-04-08T11:34:52Z</time></trkpt><trkpt lat="41.94934805327811" lon="2.61381906951916"><ele>193.0</ele><time>2026-04-08T11:34:53Z</time></trkpt><trkpt lat="41.94938520984353" lon="2.6139990069896006"><ele>193.0</ele><time>2026-04-08T11:34:54Z</time></trkpt><trkpt lat="41.94944530852635" lon="2.6141916683613635"><ele>193.25</ele><time>2026-04-08T11:34:55Z</time></trkpt><trkpt lat="41.94950634048967" lon="2.6143989322559955"><ele>193.5</ele><time>2026-04-08T11:34:56.001Z</time></trkpt><trkpt lat="41.949568525326846" lon="2.6145798604398442"><ele>193.75</ele><time>2026-04-08T11:34:57.001Z</time></trkpt><trkpt lat="41.94963611877484" lon="2.6147243293624123"><ele>194.0</ele><time>2026-04-08T11:34:58.001Z</time></trkpt><trkpt lat="41.94973253791782" lon="2.61484841417836"><ele>194.0</ele><time>2026-04-08T11:34:59.001Z</time></trkpt><trkpt lat="41.94985898477955" lon="2.6149656746099565"><ele>194.0</ele><time>2026-04-08T11:35:00.001Z</time></trkpt><trkpt lat="41.94999223636444" lon="2.6151159834299618"><ele>194.0</ele><time>2026-04-08T11:35:01.001Z</time></trkpt><trkpt lat="41.95012297943719" lon="2.615292328377189"><ele>192.33333333333334</ele><time>2026-04-08T11:35:02.001Z</time></trkpt><trkpt lat="41.95024392772847" lon="2.61549341703424"><ele>190.66666666666669</ele><time>2026-04-08T11:35:03.001Z</time></trkpt><trkpt lat="41.95037618062783" lon="2.6156698074944846"><ele>189.0</ele><time>2026-04-08T11:35:04.001Z</time></trkpt><trkpt lat="41.95050551807714" lon="2.615829006363895"><ele>189.0</ele><time>2026-04-08T11:35:05.001Z</time></trkpt><trkpt lat="41.95062374065038" lon="2.615970595179284"><ele>189.0</ele><time>2026-04-08T11:35:06.001Z</time></trkpt><trkpt lat="41.950737772613884" lon="2.6161023052670638"><ele>189.0</ele><time>2026-04-08T11:35:07.001Z</time></trkpt><trkpt lat="41.95083850583751" lon="2.6162171960043716"><ele>189.0</ele><time>2026-04-08T11:35:08.001Z</time></trkpt><trkpt lat="41.95092214410844" lon="2.616323118122391"><ele>187.0</ele><time>2026-04-08T11:35:09.001Z</time></trkpt><trkpt lat="41.950974642822686" lon="2.61642361272235"><ele>185.0</ele><time>2026-04-08T11:35:10.001Z</time></trkpt><trkpt lat="41.951003663485544" lon="2.6165332003778063"><ele>183.0</ele><time>2026-04-08T11:35:11.001Z</time></trkpt><trkpt lat="41.951006345585135" lon="2.616670926052282"><ele>181.0</ele><time>2026-04-08T11:35:12.001Z</time></trkpt><trkpt lat="41.95101464964803" lon="2.61685330405958"><ele>179.0</ele><time>2026-04-08T11:35:13.001Z</time></trkpt><trkpt lat="41.95103687067915" lon="2.617066179897026"><ele>179.0</ele><time>2026-04-08T11:35:14.001Z</time></trkpt><trkpt lat="41.951035804386215" lon="2.617265439645047"><ele>179.0</ele><time>2026-04-08T11:35:15.001Z</time></trkpt><trkpt lat="41.95104586543614" lon="2.6174507300228314"><ele>179.0</ele><time>2026-04-08T11:35:16.001Z</time></trkpt><trkpt lat="41.95105036930894" lon="2.6176267224358956"><ele>179.0</ele><time>2026-04-08T11:35:17.001Z</time></trkpt><trkpt lat="41.95106303105302" lon="2.6177878986949312"><ele>179.75</ele><time>2026-04-08T11:35:18.001Z</time></trkpt><trkpt lat="41.9510964918105" lon="2.6179300623071184"><ele>180.5</ele><time>2026-04-08T11:35:19.001Z</time></trkpt><trkpt lat="41.95115853515076" lon="2.6180662864988773"><ele>181.25</ele><time>2026-04-08T11:35:20.001Z</time></trkpt><trkpt lat="41.95125412143573" lon="2.61820009801922"><ele>182.0</ele><time>2026-04-08T11:35:21.001Z</time></trkpt><trkpt lat="41.9513762572925" lon="2.6183450164140747"><ele>182.0</ele><time>2026-04-08T11:35:22.001Z</time></trkpt><trkpt lat="41.951513597729175" lon="2.6184948828078216"><ele>182.0</ele><time>2026-04-08T11:35:23.001Z</time></trkpt><trkpt lat="41.95164497383066" lon="2.6186397692638415"><ele>182.0</ele><time>2026-04-08T11:35:24.001Z</time></trkpt><trkpt lat="41.951777936149426" lon="2.6187950471311354"><ele>181.66666666666666</ele><time>2026-04-08T11:35:25.001Z</time></trkpt><trkpt lat="41.95191950706241" lon="2.6189565173177516"><ele>181.33333333333334</ele><time>2026-04-08T11:35:26.001Z</time></trkpt><trkpt lat="41.95206862811786" lon="2.619123562021445"><ele>181.0</ele><time>2026-04-08T11:35:27.001Z</time></trkpt><trkpt lat="41.95221772435152" lon="2.619297090406504"><ele>181.0</ele><time>2026-04-08T11:35:28.001Z</time></trkpt><trkpt lat="41.95236980690391" lon="2.6194749567276583"><ele>181.0</ele><time>2026-04-08T11:35:29.001Z</time></trkpt><trkpt lat="41.9525287625033" lon="2.6196572437420036"><ele>181.0</ele><time>2026-04-08T11:35:30.001Z</time></trkpt><trkpt lat="41.95268918876486" lon="2.619840058109537"><ele>179.33333333333334</ele><time>2026-04-08T11:35:31.001Z</time></trkpt><trkpt lat="41.95285426906374" lon="2.6200276232368513"><ele>177.66666666666666</ele><time>2026-04-08T11:35:32.001Z</time></trkpt><trkpt lat="41.9530062948763" lon="2.620238412657658"><ele>176.0</ele><time>2026-04-08T11:35:33.001Z</time></trkpt><trkpt lat="41.95316842401291" lon="2.6204446084227553"><ele>176.0</ele><time>2026-04-08T11:35:34.001Z</time></trkpt><trkpt lat="41.953323467999496" lon="2.620638891329037"><ele>176.0</ele><time>2026-04-08T11:35:35.001Z</time></trkpt><trkpt lat="41.953483448398174" lon="2.6208294543501482"><ele>176.0</ele><time>2026-04-08T11:35:36.001Z</time></trkpt><trkpt lat="41.95363613229622" lon="2.6210018067501926"><ele>176.33333333333331</ele><time>2026-04-08T11:35:37.001Z</time></trkpt><trkpt lat="41.953784227628894" lon="2.621165026883644"><ele>176.66666666666666</ele><time>2026-04-08T11:35:38.001Z</time></trkpt><trkpt lat="41.95393172031239" lon="2.6213275828286084"><ele>177.0</ele><time>2026-04-08T11:35:39.001Z</time></trkpt><trkpt lat="41.954065994459306" lon="2.62147925724288"><ele>177.0</ele><time>2026-04-08T11:35:40.001Z</time></trkpt><trkpt lat="41.95418043576747" lon="2.621616740762404"><ele>177.0</ele><time>2026-04-08T11:35:41.001Z</time></trkpt><trkpt lat="41.95427176248729" lon="2.6217337852446594"><ele>177.0</ele><time>2026-04-08T11:35:42.001Z</time></trkpt><trkpt lat="41.954341839730574" lon="2.6218621844140864"><ele>177.0</ele><time>2026-04-08T11:35:43.001Z</time></trkpt><trkpt lat="41.95440383613577" lon="2.622012398574769"><ele>174.66666666666666</ele><time>2026-04-08T11:35:44.001Z</time></trkpt><trkpt lat="41.95446083447604" lon="2.622202401268132"><ele>172.33333333333331</ele><time>2026-04-08T11:35:45.001Z</time></trkpt><trkpt lat="41.95452420981635" lon="2.6224217385784168"><ele>170.0</ele><time>2026-04-08T11:35:46.001Z</time></trkpt><trkpt lat="41.9545879097221" lon="2.622653697167385"><ele>169.66666666666666</ele><time>2026-04-08T11:35:47.001Z</time></trkpt><trkpt lat="41.95465044898639" lon="2.6228840464145526"><ele>169.33333333333334</ele><time>2026-04-08T11:35:48.001Z</time></trkpt><trkpt lat="41.95471508527378" lon="2.6231221195534973"><ele>169.0</ele><time>2026-04-08T11:35:49.001Z</time></trkpt><trkpt lat="41.954785519841614" lon="2.623367581393118"><ele>169.0</ele><time>2026-04-08T11:35:50.001Z</time></trkpt><trkpt lat="41.954855837793055" lon="2.6236132587763628"><ele>169.0</ele><time>2026-04-08T11:35:51.001Z</time></trkpt><trkpt lat="41.95492186317996" lon="2.6238439387838723"><ele>169.0</ele><time>2026-04-08T11:35:52.001Z</time></trkpt><trkpt lat="41.95498599821839" lon="2.624070355386486"><ele>167.66666666666669</ele><time>2026-04-08T11:35:53.001Z</time></trkpt><trkpt lat="41.95505181363128" lon="2.6243067549826526"><ele>166.33333333333334</ele><time>2026-04-08T11:35:54.001Z</time></trkpt><trkpt lat="41.95512005178316" lon="2.6245518567289534"><ele>165.0</ele><time>2026-04-08T11:35:55.001Z</time></trkpt><trkpt lat="41.95518858435827" lon="2.624798015984767"><ele>165.0</ele><time>2026-04-08T11:35:56.001Z</time></trkpt><trkpt lat="41.95525921842161" lon="2.6250517235009427"><ele>165.0</ele><time>2026-04-08T11:35:57.001Z</time></trkpt><trkpt lat="41.95534592582225" lon="2.625301909477469"><ele>165.0</ele><time>2026-04-08T11:35:58.001Z</time></trkpt><trkpt lat="41.95540424732183" lon="2.625572646659184"><ele>164.66666666666666</ele><time>2026-04-08T11:35:59.001Z</time></trkpt><trkpt lat="41.95547575251988" lon="2.625830281270048"><ele>164.33333333333331</ele><time>2026-04-08T11:36:00.001Z</time></trkpt><trkpt lat="41.95554548625686" lon="2.626082853713676"><ele>164.0</ele><time>2026-04-08T11:36:01.001Z</time></trkpt><trkpt lat="41.95561366081348" lon="2.6263297532877"><ele>164.0</ele><time>2026-04-08T11:36:02.001Z</time></trkpt><trkpt lat="41.95568089443641" lon="2.6265732451612074"><ele>164.0</ele><time>2026-04-08T11:36:03.001Z</time></trkpt><trkpt lat="41.95574633366738" lon="2.626810238493472"><ele>164.0</ele><time>2026-04-08T11:36:04.001Z</time></trkpt><trkpt lat="41.95580823979996" lon="2.627034436462814"><ele>164.0</ele><time>2026-04-08T11:36:05.001Z</time></trkpt><trkpt lat="41.95586771967667" lon="2.6272498475067327"><ele>164.0</ele><time>2026-04-08T11:36:06.001Z</time></trkpt><trkpt lat="41.955925764861064" lon="2.6274595361332693"><ele>164.0</ele><time>2026-04-08T11:36:07.001Z</time></trkpt><trkpt lat="41.955983443369114" lon="2.6276679084460577"><ele>162.66666666666666</ele><time>2026-04-08T11:36:08.001Z</time></trkpt><trkpt lat="41.95603823853166" lon="2.6278658854491335"><ele>161.33333333333334</ele><time>2026-04-08T11:36:09.001Z</time></trkpt><trkpt lat="41.95609040511245" lon="2.628054380984542"><ele>160.0</ele><time>2026-04-08T11:36:10.001Z</time></trkpt><trkpt lat="41.95614033481776" lon="2.6282347939429274"><ele>160.0</ele><time>2026-04-08T11:36:11.001Z</time></trkpt><trkpt lat="41.95618725528273" lon="2.628404333493704"><ele>160.0</ele><time>2026-04-08T11:36:12.001Z</time></trkpt><trkpt lat="41.956232024079576" lon="2.6285660983448325"><ele>160.0</ele><time>2026-04-08T11:36:13.001Z</time></trkpt><trkpt lat="41.95627578391557" lon="2.6287244898975484"><ele>160.0</ele><time>2026-04-08T11:36:14.001Z</time></trkpt><trkpt lat="41.95633677712219" lon="2.6288838513667225"><ele>159.75</ele><time>2026-04-08T11:36:15.001Z</time></trkpt><trkpt lat="41.95638506892286" lon="2.629059456631999"><ele>159.5</ele><time>2026-04-08T11:36:16.001Z</time></trkpt><trkpt lat="41.95643477280808" lon="2.6292399067096124"><ele>159.25</ele><time>2026-04-08T11:36:17.001Z</time></trkpt><trkpt lat="41.95647237173046" lon="2.629436204989122"><ele>159.0</ele><time>2026-04-08T11:36:18.001Z</time></trkpt><trkpt lat="41.95652517355331" lon="2.6296273656280698"><ele>158.66666666666666</ele><time>2026-04-08T11:36:19.001Z</time></trkpt><trkpt lat="41.95657986301388" lon="2.6298253601678914"><ele>158.33333333333331</ele><time>2026-04-08T11:36:20.001Z</time></trkpt><trkpt lat="41.95663513258638" lon="2.6300254549371163"><ele>158.0</ele><time>2026-04-08T11:36:21Z</time></trkpt><trkpt lat="41.95668948618498" lon="2.630222233527543"><ele>157.5</ele><time>2026-04-08T11:36:22Z</time></trkpt><trkpt lat="41.9567414115108" lon="2.6304102207971116"><ele>157.0</ele><time>2026-04-08T11:36:23Z</time></trkpt><trkpt lat="41.95679090628199" lon="2.6305893698612373"><ele>156.5</ele><time>2026-04-08T11:36:24Z</time></trkpt><trkpt lat="41.95683770391707" lon="2.630758766520498"><ele>156.0</ele><time>2026-04-08T11:36:25Z</time></trkpt><trkpt lat="41.956884284868416" lon="2.630927378843802"><ele>156.0</ele><time>2026-04-08T11:36:26Z</time></trkpt><trkpt lat="41.95694599888093" lon="2.631088229041078"><ele>156.0</ele><time>2026-04-08T11:36:27Z</time></trkpt><trkpt lat="41.95699303326156" lon="2.63125809705716"><ele>156.0</ele><time>2026-04-08T11:36:28Z</time></trkpt><trkpt lat="41.9570379762124" lon="2.6314229290408786"><ele>156.0</ele><time>2026-04-08T11:36:29Z</time></trkpt><trkpt lat="41.957070634355766" lon="2.6315835604853244"><ele>156.0</ele><time>2026-04-08T11:36:30Z</time></trkpt><trkpt lat="41.957108860985414" lon="2.631731928817628"><ele>156.0</ele><time>2026-04-08T11:36:31Z</time></trkpt><trkpt lat="41.957145840385536" lon="2.631872427044361"><ele>156.0</ele><time>2026-04-08T11:36:32Z</time></trkpt><trkpt lat="41.95718442933625" lon="2.632014811736006"><ele>156.0</ele><time>2026-04-08T11:36:33Z</time></trkpt><trkpt lat="41.957224967137485" lon="2.632160999756983"><ele>156.0</ele><time>2026-04-08T11:36:34Z</time></trkpt><trkpt lat="41.95726564869119" lon="2.6323113835006917"><ele>156.0</ele><time>2026-04-08T11:36:35Z</time></trkpt><trkpt lat="41.95731031004508" lon="2.6324625063861244"><ele>156.0</ele><time>2026-04-08T11:36:36Z</time></trkpt><trkpt lat="41.95735419802881" lon="2.6326149397661927"><ele>156.0</ele><time>2026-04-08T11:36:37Z</time></trkpt><trkpt lat="41.95739894309001" lon="2.632771710796373"><ele>156.25</ele><time>2026-04-08T11:36:38Z</time></trkpt><trkpt lat="41.95744186437405" lon="2.632929606689388"><ele>156.5</ele><time>2026-04-08T11:36:39Z</time></trkpt><trkpt lat="41.957484470550156" lon="2.6330885189513022"><ele>156.75</ele><time>2026-04-08T11:36:40Z</time></trkpt><trkpt lat="41.95752783619977" lon="2.6332496433649535"><ele>157.0</ele><time>2026-04-08T11:36:41Z</time></trkpt><trkpt lat="41.957574162073435" lon="2.633411380655596"><ele>156.5</ele><time>2026-04-08T11:36:42Z</time></trkpt><trkpt lat="41.95762750667892" lon="2.633572223314125"><ele>156.0</ele><time>2026-04-08T11:36:43Z</time></trkpt><trkpt lat="41.957672302076496" lon="2.6337376922429723"><ele>155.5</ele><time>2026-04-08T11:36:44Z</time></trkpt><trkpt lat="41.957710131095695" lon="2.633908055138154"><ele>155.0</ele><time>2026-04-08T11:36:45Z</time></trkpt><trkpt lat="41.95775398755372" lon="2.6340721134215546"><ele>155.0</ele><time>2026-04-08T11:36:46Z</time></trkpt><trkpt lat="41.95779355161036" lon="2.634226699244125"><ele>155.0</ele><time>2026-04-08T11:36:47Z</time></trkpt><trkpt lat="41.957830144569805" lon="2.634372485122922"><ele>155.0</ele><time>2026-04-08T11:36:48Z</time></trkpt><trkpt lat="41.95786663001202" lon="2.634509708655101"><ele>155.0</ele><time>2026-04-08T11:36:49Z</time></trkpt><trkpt lat="41.9579036108767" lon="2.634641851000773"><ele>155.0</ele><time>2026-04-08T11:36:50Z</time></trkpt><trkpt lat="41.95793618035688" lon="2.634761453000359"><ele>155.0</ele><time>2026-04-08T11:36:51Z</time></trkpt><trkpt lat="41.95796561809892" lon="2.6348672223718346"><ele>155.0</ele><time>2026-04-08T11:36:52Z</time></trkpt><trkpt lat="41.95799349803245" lon="2.6349454784517676"><ele>155.0</ele><time>2026-04-08T11:36:53Z</time></trkpt><trkpt lat="41.95803700749071" lon="2.635013050474563"><ele>155.0</ele><time>2026-04-08T11:36:55Z</time></trkpt><trkpt lat="41.95818884758171" lon="2.6349490368102937"><ele>155.0</ele><time>2026-04-08T11:36:58Z</time></trkpt><trkpt lat="41.95823281719032" lon="2.634876033220524"><ele>155.0</ele><time>2026-04-08T11:36:59Z</time></trkpt><trkpt lat="41.958282523535026" lon="2.6348065418588598"><ele>155.0</ele><time>2026-04-08T11:37:00Z</time></trkpt><trkpt lat="41.95833999102028" lon="2.634764729956791"><ele>155.0</ele><time>2026-04-08T11:37:01Z</time></trkpt><trkpt lat="41.958458191994325" lon="2.6347255694009752"><ele>155.0</ele><time>2026-04-08T11:37:03Z</time></trkpt><trkpt lat="41.95852899582446" lon="2.6347453020503386"><ele>155.0</ele><time>2026-04-08T11:37:04Z</time></trkpt><trkpt lat="41.95860384772331" lon="2.634732864405212"><ele>155.0</ele><time>2026-04-08T11:37:05Z</time></trkpt><trkpt lat="41.95866376261879" lon="2.634678992022288"><ele>155.0</ele><time>2026-04-08T11:37:06Z</time></trkpt><trkpt lat="41.95871425433866" lon="2.6345880814458607"><ele>155.0</ele><time>2026-04-08T11:37:07Z</time></trkpt><trkpt lat="41.95876408613764" lon="2.6344712254518177"><ele>155.0</ele><time>2026-04-08T11:37:08Z</time></trkpt><trkpt lat="41.95881891365337" lon="2.6343518702934907"><ele>155.0</ele><time>2026-04-08T11:37:09Z</time></trkpt><trkpt lat="41.958885092569545" lon="2.634249294190425"><ele>155.0</ele><time>2026-04-08T11:37:10Z</time></trkpt><trkpt lat="41.95895008807659" lon="2.634149332809181"><ele>155.0</ele><time>2026-04-08T11:37:11Z</time></trkpt><trkpt lat="41.959015456064485" lon="2.634051367916578"><ele>155.0</ele><time>2026-04-08T11:37:12Z</time></trkpt><trkpt lat="41.959088914462995" lon="2.633966254279651"><ele>155.0</ele><time>2026-04-08T11:37:13Z</time></trkpt><trkpt lat="41.95916374146527" lon="2.6338845818873735"><ele>155.0</ele><time>2026-04-08T11:37:14Z</time></trkpt><trkpt lat="41.95923883307712" lon="2.633806275623374"><ele>155.0</ele><time>2026-04-08T11:37:15Z</time></trkpt><trkpt lat="41.959321511132984" lon="2.6337224869156852"><ele>155.0</ele><time>2026-04-08T11:37:16Z</time></trkpt><trkpt lat="41.95940791334878" lon="2.6336262742871726"><ele>154.8</ele><time>2026-04-08T11:37:17Z</time></trkpt><trkpt lat="41.95948099920014" lon="2.633540038361236"><ele>154.6</ele><time>2026-04-08T11:37:18Z</time></trkpt><trkpt lat="41.959546561371205" lon="2.633463961041723"><ele>154.4</ele><time>2026-04-08T11:37:19Z</time></trkpt><trkpt lat="41.95962218442917" lon="2.6333809900018714"><ele>154.2</ele><time>2026-04-08T11:37:20Z</time></trkpt><trkpt lat="41.9597019901781" lon="2.6332935394621324"><ele>154.0</ele><time>2026-04-08T11:37:21Z</time></trkpt><trkpt lat="41.95978580165474" lon="2.6332018346930783"><ele>154.0</ele><time>2026-04-08T11:37:22Z</time></trkpt><trkpt lat="41.95987884805935" lon="2.6331213240284757"><ele>154.0</ele><time>2026-04-08T11:37:23Z</time></trkpt><trkpt lat="41.95996483244793" lon="2.633018041981207"><ele>154.0</ele><time>2026-04-08T11:37:24Z</time></trkpt><trkpt lat="41.96006308962755" lon="2.63290769457612"><ele>154.0</ele><time>2026-04-08T11:37:25Z</time></trkpt><trkpt lat="41.960165541360574" lon="2.6327938424389323"><ele>153.5</ele><time>2026-04-08T11:37:26Z</time></trkpt><trkpt lat="41.96027258384897" lon="2.632678471947936"><ele>153.0</ele><time>2026-04-08T11:37:27Z</time></trkpt><trkpt lat="41.96037416298663" lon="2.6325668135113736"><ele>152.5</ele><time>2026-04-08T11:37:28Z</time></trkpt><trkpt lat="41.96046326590663" lon="2.632462161351193"><ele>152.0</ele><time>2026-04-08T11:37:29Z</time></trkpt><trkpt lat="41.96055176744642" lon="2.632360879085278"><ele>152.0</ele><time>2026-04-08T11:37:30Z</time></trkpt><trkpt lat="41.96064839594089" lon="2.6322590448398047"><ele>152.0</ele><time>2026-04-08T11:37:31Z</time></trkpt><trkpt lat="41.96074793247563" lon="2.63215058653972"><ele>152.0</ele><time>2026-04-08T11:37:32Z</time></trkpt><trkpt lat="41.96084997377253" lon="2.632038195869853"><ele>152.0</ele><time>2026-04-08T11:37:33Z</time></trkpt><trkpt lat="41.96095531113261" lon="2.6319174760544333"><ele>151.75</ele><time>2026-04-08T11:37:34Z</time></trkpt><trkpt lat="41.96106513334703" lon="2.6317988003259374"><ele>151.5</ele><time>2026-04-08T11:37:35Z</time></trkpt><trkpt lat="41.96117861628786" lon="2.6316791235005925"><ele>151.25</ele><time>2026-04-08T11:37:36Z</time></trkpt><trkpt lat="41.96129413399313" lon="2.631556207421966"><ele>151.0</ele><time>2026-04-08T11:37:37Z</time></trkpt><trkpt lat="41.961408929062124" lon="2.631427260909019"><ele>151.0</ele><time>2026-04-08T11:37:38Z</time></trkpt><trkpt lat="41.96152584420884" lon="2.6313017552662745"><ele>151.0</ele><time>2026-04-08T11:37:39Z</time></trkpt><trkpt lat="41.96164047676283" lon="2.6311766261795704"><ele>151.0</ele><time>2026-04-08T11:37:40Z</time></trkpt><trkpt lat="41.961752007515926" lon="2.631053608631296"><ele>151.0</ele><time>2026-04-08T11:37:41Z</time></trkpt><trkpt lat="41.961863786491705" lon="2.630935095610971"><ele>150.75</ele><time>2026-04-08T11:37:42Z</time></trkpt><trkpt lat="41.9619757436048" lon="2.6308147473859402"><ele>150.5</ele><time>2026-04-08T11:37:43Z</time></trkpt><trkpt lat="41.96208934463472" lon="2.6306883237046774"><ele>150.25</ele><time>2026-04-08T11:37:44Z</time></trkpt><trkpt lat="41.962202643295186" lon="2.6305603088669804"><ele>150.0</ele><time>2026-04-08T11:37:45Z</time></trkpt><trkpt lat="41.962321161833536" lon="2.6304329795829857"><ele>150.0</ele><time>2026-04-08T11:37:46Z</time></trkpt><trkpt lat="41.96244189370406" lon="2.630307175645466"><ele>150.0</ele><time>2026-04-08T11:37:47Z</time></trkpt><trkpt lat="41.96256376457332" lon="2.6301767908995703"><ele>150.0</ele><time>2026-04-08T11:37:48Z</time></trkpt><trkpt lat="41.96269024043428" lon="2.630040902650796"><ele>150.0</ele><time>2026-04-08T11:37:49Z</time></trkpt><trkpt lat="41.96281665504973" lon="2.629904518694204"><ele>150.0</ele><time>2026-04-08T11:37:50Z</time></trkpt><trkpt lat="41.962944129531394" lon="2.629764626852403"><ele>150.0</ele><time>2026-04-08T11:37:51Z</time></trkpt><trkpt lat="41.963071820216065" lon="2.629625895707022"><ele>150.0</ele><time>2026-04-08T11:37:52Z</time></trkpt><trkpt lat="41.963199740055984" lon="2.6294842082808016"><ele>150.0</ele><time>2026-04-08T11:37:53Z</time></trkpt><trkpt lat="41.96333027189669" lon="2.6293417488692263"><ele>150.0</ele><time>2026-04-08T11:37:54.001Z</time></trkpt><trkpt lat="41.96346626058663" lon="2.6291938050755483"><ele>149.66666666666666</ele><time>2026-04-08T11:37:55.001Z</time></trkpt><trkpt lat="41.9636053138401" lon="2.6290425235611874"><ele>149.33333333333331</ele><time>2026-04-08T11:37:56.001Z</time></trkpt><trkpt lat="41.96374579120856" lon="2.6288903766442875"><ele>149.0</ele><time>2026-04-08T11:37:57.001Z</time></trkpt><trkpt lat="41.96388835778344" lon="2.6287371919265174"><ele>149.33333333333331</ele><time>2026-04-08T11:37:58.001Z</time></trkpt><trkpt lat="41.96403194701375" lon="2.628580494372578"><ele>149.66666666666666</ele><time>2026-04-08T11:37:59.001Z</time></trkpt><trkpt lat="41.964177976945166" lon="2.6284231538696954"><ele>150.0</ele><time>2026-04-08T11:38:00.001Z</time></trkpt><trkpt lat="41.96432669099313" lon="2.628259809368751"><ele>150.0</ele><time>2026-04-08T11:38:01.001Z</time></trkpt><trkpt lat="41.964471987918955" lon="2.628087876193755"><ele>150.0</ele><time>2026-04-08T11:38:02.001Z</time></trkpt><trkpt lat="41.964622476898825" lon="2.627926423490019"><ele>150.0</ele><time>2026-04-08T11:38:03.001Z</time></trkpt><trkpt lat="41.964771302123545" lon="2.627765923295731"><ele>150.66666666666666</ele><time>2026-04-08T11:38:04.001Z</time></trkpt><trkpt lat="41.96492061264259" lon="2.627604200056464"><ele>151.33333333333331</ele><time>2026-04-08T11:38:05.001Z</time></trkpt><trkpt lat="41.965067739073135" lon="2.627440736358539"><ele>152.0</ele><time>2026-04-08T11:38:06.001Z</time></trkpt><trkpt lat="41.965215602328435" lon="2.6272774080937067"><ele>152.0</ele><time>2026-04-08T11:38:07.001Z</time></trkpt><trkpt lat="41.965364372803734" lon="2.6271147883629817"><ele>152.0</ele><time>2026-04-08T11:38:08.001Z</time></trkpt><trkpt lat="41.96551576002261" lon="2.6269528096783534"><ele>152.0</ele><time>2026-04-08T11:38:09.001Z</time></trkpt><trkpt lat="41.965667434162896" lon="2.6267878508063447"><ele>152.0</ele><time>2026-04-08T11:38:10.001Z</time></trkpt><trkpt lat="41.96581461662553" lon="2.6266255438164867"><ele>152.0</ele><time>2026-04-08T11:38:11.001Z</time></trkpt><trkpt lat="41.96595465823321" lon="2.6264683618353124"><ele>152.0</ele><time>2026-04-08T11:38:12.001Z</time></trkpt><trkpt lat="41.96608983410988" lon="2.6263196546160694"><ele>151.66666666666666</ele><time>2026-04-08T11:38:13.001Z</time></trkpt><trkpt lat="41.96622537066854" lon="2.6261732418586266"><ele>151.33333333333334</ele><time>2026-04-08T11:38:14.001Z</time></trkpt><trkpt lat="41.966354585639095" lon="2.6260373206118732"><ele>151.0</ele><time>2026-04-08T11:38:15.001Z</time></trkpt><trkpt lat="41.966480941182446" lon="2.6259007388527755"><ele>151.25</ele><time>2026-04-08T11:38:16.001Z</time></trkpt><trkpt lat="41.966602197184244" lon="2.6257705527923947"><ele>151.5</ele><time>2026-04-08T11:38:17.001Z</time></trkpt><trkpt lat="41.96671550285952" lon="2.6256454798357107"><ele>151.75</ele><time>2026-04-08T11:38:18.001Z</time></trkpt><trkpt lat="41.96682436336825" lon="2.6255265761348223"><ele>152.0</ele><time>2026-04-08T11:38:19.001Z</time></trkpt><trkpt lat="41.9669264158968" lon="2.6254106217446767"><ele>152.0</ele><time>2026-04-08T11:38:20.001Z</time></trkpt><trkpt lat="41.96701809678073" lon="2.62530396262563"><ele>152.0</ele><time>2026-04-08T11:38:21.001Z</time></trkpt><trkpt lat="41.96710013327013" lon="2.6252044330652753"><ele>152.0</ele><time>2026-04-08T11:38:22.001Z</time></trkpt><trkpt lat="41.9671815132725" lon="2.6251243000499813"><ele>152.0</ele><time>2026-04-08T11:38:23.001Z</time></trkpt><trkpt lat="41.967272120890634" lon="2.6250649215648423"><ele>152.0</ele><time>2026-04-08T11:38:24.001Z</time></trkpt><trkpt lat="41.967357513763496" lon="2.6250016085145083"><ele>152.0</ele><time>2026-04-08T11:38:25.001Z</time></trkpt><trkpt lat="41.96741791599637" lon="2.624923270640148"><ele>152.0</ele><time>2026-04-08T11:38:26.001Z</time></trkpt><trkpt lat="41.967464104366" lon="2.6248378120482974"><ele>152.0</ele><time>2026-04-08T11:38:26.999Z</time></trkpt><trkpt lat="41.96752296115598" lon="2.6247470874903605"><ele>152.0</ele><time>2026-04-08T11:38:27.999Z</time></trkpt><trkpt lat="41.967593143369804" lon="2.624661874733147"><ele>152.0</ele><time>2026-04-08T11:38:28.999Z</time></trkpt><trkpt lat="41.96767850931936" lon="2.624587050966061"><ele>152.0</ele><time>2026-04-08T11:38:29.999Z</time></trkpt><trkpt lat="41.967765670717235" lon="2.6245046859844274"><ele>152.66666666666666</ele><time>2026-04-08T11:38:30.999Z</time></trkpt><trkpt lat="41.967843897741226" lon="2.6244203941802424"><ele>153.33333333333331</ele><time>2026-04-08T11:38:31.999Z</time></trkpt><trkpt lat="41.967913617563084" lon="2.6243446723898014"><ele>154.0</ele><time>2026-04-08T11:38:32.999Z</time></trkpt><trkpt lat="41.96797926908987" lon="2.624280614261632"><ele>154.66666666666666</ele><time>2026-04-08T11:38:33.999Z</time></trkpt><trkpt lat="41.9680261412316" lon="2.624211302821202"><ele>155.33333333333334</ele><time>2026-04-08T11:38:34.999Z</time></trkpt><trkpt lat="41.968110416448816" lon="2.6241204044022957"><ele>156.0</ele><time>2026-04-08T11:38:36.999Z</time></trkpt><trkpt lat="41.96816099211225" lon="2.6240673168444024"><ele>156.0</ele><time>2026-04-08T11:38:38.999Z</time></trkpt><trkpt lat="41.96808985850291" lon="2.6241082476754696"><ele>156.0</ele><time>2026-04-08T11:38:41.999Z</time></trkpt><trkpt lat="41.968009928345346" lon="2.624131777245712"><ele>156.0</ele><time>2026-04-08T11:38:42.999Z</time></trkpt><trkpt lat="41.967946044845625" lon="2.6242244712809333"><ele>156.0</ele><time>2026-04-08T11:38:43.999Z</time></trkpt><trkpt lat="41.96787903551926" lon="2.6243095927069136"><ele>156.0</ele><time>2026-04-08T11:38:44.999Z</time></trkpt><trkpt lat="41.967786991888254" lon="2.6244085234117733"><ele>155.4</ele><time>2026-04-08T11:38:45.999Z</time></trkpt><trkpt lat="41.96769514865083" lon="2.6245107507103627"><ele>154.8</ele><time>2026-04-08T11:38:46.999Z</time></trkpt><trkpt lat="41.96761290555827" lon="2.6245963834905073"><ele>154.20000000000002</ele><time>2026-04-08T11:38:47.999Z</time></trkpt><trkpt lat="41.96754107635988" lon="2.6246621328148994"><ele>153.6</ele><time>2026-04-08T11:38:49Z</time></trkpt><trkpt lat="41.96747505581247" lon="2.624694182068821"><ele>153.0</ele><time>2026-04-08T11:38:50Z</time></trkpt><trkpt lat="41.96739136909299" lon="2.624701912458151"><ele>152.83333333333334</ele><time>2026-04-08T11:38:51Z</time></trkpt><trkpt lat="41.9672961257582" lon="2.624700052681152"><ele>152.66666666666666</ele><time>2026-04-08T11:38:52Z</time></trkpt><trkpt lat="41.96722629346181" lon="2.6247279225645803"><ele>152.5</ele><time>2026-04-08T11:38:53Z</time></trkpt><trkpt lat="41.96717401833738" lon="2.624792359813457"><ele>152.33333333333331</ele><time>2026-04-08T11:38:54Z</time></trkpt><trkpt lat="41.967153502541045" lon="2.624878606698403"><ele>152.16666666666666</ele><time>2026-04-08T11:38:55Z</time></trkpt><trkpt lat="41.96716811551555" lon="2.6249675525981444"><ele>152.0</ele><time>2026-04-08T11:38:56Z</time></trkpt><trkpt lat="41.967261413278734" lon="2.6250725037755926"><ele>152.0</ele><time>2026-04-08T11:38:58Z</time></trkpt><trkpt lat="41.967325245622504" lon="2.6250725804693986"><ele>152.0</ele><time>2026-04-08T11:38:59Z</time></trkpt><trkpt lat="41.967393792593995" lon="2.625035262622108"><ele>152.0</ele><time>2026-04-08T11:39:00Z</time></trkpt><trkpt lat="41.96746400454521" lon="2.6249659220665564"><ele>152.0</ele><time>2026-04-08T11:39:01Z</time></trkpt><trkpt lat="41.96755099505794" lon="2.624905306865577"><ele>152.0</ele><time>2026-04-08T11:39:02Z</time></trkpt><trkpt lat="41.96764030549491" lon="2.6248911038796714"><ele>152.0</ele><time>2026-04-08T11:39:03Z</time></trkpt><trkpt lat="41.96774500547734" lon="2.62489549421619"><ele>152.25</ele><time>2026-04-08T11:39:04Z</time></trkpt><trkpt lat="41.96786722506955" lon="2.624892823729907"><ele>152.5</ele><time>2026-04-08T11:39:05Z</time></trkpt><trkpt lat="41.967999561742126" lon="2.624878933402199"><ele>152.75</ele><time>2026-04-08T11:39:06Z</time></trkpt><trkpt lat="41.96814427720413" lon="2.6248576453472308"><ele>153.0</ele><time>2026-04-08T11:39:07Z</time></trkpt><trkpt lat="41.96829893679495" lon="2.624832461865842"><ele>153.0</ele><time>2026-04-08T11:39:08Z</time></trkpt><trkpt lat="41.96846344904981" lon="2.624802822667904"><ele>153.0</ele><time>2026-04-08T11:39:09Z</time></trkpt><trkpt lat="41.968636287157814" lon="2.6247710714708603"><ele>153.0</ele><time>2026-04-08T11:39:10Z</time></trkpt><trkpt lat="41.968809229859104" lon="2.624739891196019"><ele>153.0</ele><time>2026-04-08T11:39:11Z</time></trkpt><trkpt lat="41.96898995781581" lon="2.6247050753503545"><ele>153.0</ele><time>2026-04-08T11:39:12Z</time></trkpt><trkpt lat="41.969185565570136" lon="2.6246695467131773"><ele>153.0</ele><time>2026-04-08T11:39:13Z</time></trkpt><trkpt lat="41.969394855163564" lon="2.624630687684518"><ele>153.33333333333334</ele><time>2026-04-08T11:39:14Z</time></trkpt><trkpt lat="41.969614910752895" lon="2.624592449647401"><ele>153.66666666666669</ele><time>2026-04-08T11:39:15Z</time></trkpt><trkpt lat="41.96983272528742" lon="2.6245502935588663"><ele>154.0</ele><time>2026-04-08T11:39:16Z</time></trkpt><trkpt lat="41.970046785764666" lon="2.624509656902112"><ele>155.0</ele><time>2026-04-08T11:39:17Z</time></trkpt><trkpt lat="41.970263951308965" lon="2.624468188882078"><ele>156.0</ele><time>2026-04-08T11:39:18Z</time></trkpt><trkpt lat="41.97048347028258" lon="2.624430580368494"><ele>157.0</ele><time>2026-04-08T11:39:19Z</time></trkpt><trkpt lat="41.97070486722813" lon="2.6243943374513674"><ele>156.5</ele><time>2026-04-08T11:39:20Z</time></trkpt><trkpt lat="41.97092772905621" lon="2.624354246563218"><ele>156.0</ele><time>2026-04-08T11:39:21Z</time></trkpt><trkpt lat="41.971156146336284" lon="2.6243185845375416"><ele>156.0</ele><time>2026-04-08T11:39:22Z</time></trkpt><trkpt lat="41.97138853304725" lon="2.6242788497867617"><ele>156.0</ele><time>2026-04-08T11:39:23Z</time></trkpt><trkpt lat="41.97162231856495" lon="2.6242361574372848"><ele>155.5</ele><time>2026-04-08T11:39:24Z</time></trkpt><trkpt lat="41.97186121775927" lon="2.624193811629548"><ele>155.0</ele><time>2026-04-08T11:39:25Z</time></trkpt><trkpt lat="41.97210411423131" lon="2.624149397586046"><ele>155.0</ele><time>2026-04-08T11:39:26Z</time></trkpt><trkpt lat="41.97235017361936" lon="2.6241052439890997"><ele>155.0</ele><time>2026-04-08T11:39:27Z</time></trkpt><trkpt lat="41.9725992045157" lon="2.6240636346576665"><ele>154.5</ele><time>2026-04-08T11:39:28Z</time></trkpt><trkpt lat="41.97285070259482" lon="2.624023438468005"><ele>154.0</ele><time>2026-04-08T11:39:29Z</time></trkpt><trkpt lat="41.973103423411395" lon="2.623979673709026"><ele>155.0</ele><time>2026-04-08T11:39:30Z</time></trkpt><trkpt lat="41.97335882415427" lon="2.623935212871121"><ele>156.0</ele><time>2026-04-08T11:39:31Z</time></trkpt><trkpt lat="41.97361131941426" lon="2.6238890519582507"><ele>156.0</ele><time>2026-04-08T11:39:32Z</time></trkpt><trkpt lat="41.97385357491949" lon="2.6238488698287625"><ele>156.0</ele><time>2026-04-08T11:39:33Z</time></trkpt><trkpt lat="41.9740901982755" lon="2.623794033782105"><ele>156.0</ele><time>2026-04-08T11:39:34Z</time></trkpt><trkpt lat="41.974313167707955" lon="2.6237511582275834"><ele>156.0</ele><time>2026-04-08T11:39:35Z</time></trkpt><trkpt lat="41.97453395734297" lon="2.623703403369399"><ele>156.0</ele><time>2026-04-08T11:39:36Z</time></trkpt><trkpt lat="41.97475273730286" lon="2.623641265645995"><ele>158.5</ele><time>2026-04-08T11:39:37Z</time></trkpt><trkpt lat="41.974973477880354" lon="2.6235650747985964"><ele>161.0</ele><time>2026-04-08T11:39:38Z</time></trkpt><trkpt lat="41.975193198587085" lon="2.6234691838334356"><ele>161.5</ele><time>2026-04-08T11:39:39Z</time></trkpt><trkpt lat="41.975416825802625" lon="2.6233570894319116"><ele>162.0</ele><time>2026-04-08T11:39:40Z</time></trkpt><trkpt lat="41.97563951897792" lon="2.623229260093869"><ele>165.5</ele><time>2026-04-08T11:39:41Z</time></trkpt><trkpt lat="41.9758604169013" lon="2.623084372904669"><ele>169.0</ele><time>2026-04-08T11:39:42Z</time></trkpt><trkpt lat="41.97607536884899" lon="2.62292755895857"><ele>171.5</ele><time>2026-04-08T11:39:43Z</time></trkpt><trkpt lat="41.97629193654395" lon="2.622760968187297"><ele>174.0</ele><time>2026-04-08T11:39:44Z</time></trkpt><trkpt lat="41.976500587893675" lon="2.6225794102788873"><ele>175.5</ele><time>2026-04-08T11:39:45Z</time></trkpt><trkpt lat="41.976701279917094" lon="2.6223934751439075"><ele>177.0</ele><time>2026-04-08T11:39:46Z</time></trkpt><trkpt lat="41.976896085516906" lon="2.6221978655477765"><ele>177.0</ele><time>2026-04-08T11:39:47Z</time></trkpt><trkpt lat="41.97708267785536" lon="2.6219914951188183"><ele>177.0</ele><time>2026-04-08T11:39:48Z</time></trkpt><trkpt lat="41.97726272597149" lon="2.6217687881156033"><ele>176.0</ele><time>2026-04-08T11:39:49Z</time></trkpt><trkpt lat="41.97743363268904" lon="2.6215312335510386"><ele>175.0</ele><time>2026-04-08T11:39:50Z</time></trkpt><trkpt lat="41.97759316468532" lon="2.621287561318171"><ele>176.0</ele><time>2026-04-08T11:39:51Z</time></trkpt><trkpt lat="41.97774188412528" lon="2.621037503497251"><ele>177.0</ele><time>2026-04-08T11:39:52Z</time></trkpt><trkpt lat="41.977882342879134" lon="2.6207828498078714"><ele>177.0</ele><time>2026-04-08T11:39:53Z</time></trkpt><trkpt lat="41.978016870403785" lon="2.620526640953275"><ele>177.0</ele><time>2026-04-08T11:39:54Z</time></trkpt><trkpt lat="41.978142607006006" lon="2.620260443795098"><ele>177.5</ele><time>2026-04-08T11:39:55Z</time></trkpt><trkpt lat="41.97825594111821" lon="2.619979092791214"><ele>178.0</ele><time>2026-04-08T11:39:56Z</time></trkpt><trkpt lat="41.97836425443749" lon="2.619692279194743"><ele>179.0</ele><time>2026-04-08T11:39:57Z</time></trkpt><trkpt lat="41.97846490799727" lon="2.619398752654175"><ele>180.0</ele><time>2026-04-08T11:39:58Z</time></trkpt><trkpt lat="41.97855174500396" lon="2.6191039229195625"><ele>180.0</ele><time>2026-04-08T11:39:59Z</time></trkpt><trkpt lat="41.978623563236745" lon="2.618813036436982"><ele>180.0</ele><time>2026-04-08T11:40:00Z</time></trkpt><trkpt lat="41.97868519054185" lon="2.618524481706979"><ele>179.66666666666666</ele><time>2026-04-08T11:40:01Z</time></trkpt><trkpt lat="41.97873614322283" lon="2.618253250729227"><ele>179.33333333333331</ele><time>2026-04-08T11:40:02Z</time></trkpt><trkpt lat="41.97877730803715" lon="2.6179831455354363"><ele>179.0</ele><time>2026-04-08T11:40:03Z</time></trkpt><trkpt lat="41.978810463746875" lon="2.617707321199469"><ele>178.33333333333331</ele><time>2026-04-08T11:40:04Z</time></trkpt><trkpt lat="41.978841995550574" lon="2.617423897502036"><ele>177.66666666666666</ele><time>2026-04-08T11:40:05Z</time></trkpt><trkpt lat="41.97886598480188" lon="2.6171405895420943"><ele>177.0</ele><time>2026-04-08T11:40:06Z</time></trkpt><trkpt lat="41.9788808779092" lon="2.616854398201642"><ele>176.66666666666666</ele><time>2026-04-08T11:40:07Z</time></trkpt><trkpt lat="41.978890359537026" lon="2.616565851238944"><ele>176.33333333333331</ele><time>2026-04-08T11:40:08Z</time></trkpt><trkpt lat="41.9789137444705" lon="2.6162782510684646"><ele>176.0</ele><time>2026-04-08T11:40:09Z</time></trkpt><trkpt lat="41.978898950562815" lon="2.615984176076513"><ele>175.33333333333331</ele><time>2026-04-08T11:40:10Z</time></trkpt><trkpt lat="41.978910990218786" lon="2.615698148638321"><ele>174.66666666666666</ele><time>2026-04-08T11:40:11Z</time></trkpt><trkpt lat="41.978929915624" lon="2.6154152708601712"><ele>174.0</ele><time>2026-04-08T11:40:12Z</time></trkpt><trkpt lat="41.97895586934366" lon="2.6151290260154094"><ele>174.0</ele><time>2026-04-08T11:40:13Z</time></trkpt><trkpt lat="41.97899357088559" lon="2.614840516371526"><ele>174.0</ele><time>2026-04-08T11:40:14Z</time></trkpt><trkpt lat="41.97903598873953" lon="2.614557614982842"><ele>174.0</ele><time>2026-04-08T11:40:15Z</time></trkpt><trkpt lat="41.979080831495146" lon="2.6142790419131297"><ele>174.0</ele><time>2026-04-08T11:40:16Z</time></trkpt><trkpt lat="41.979128313297174" lon="2.6139972420081485"><ele>174.0</ele><time>2026-04-08T11:40:17Z</time></trkpt><trkpt lat="41.97918908075952" lon="2.6137178725213857"><ele>174.0</ele><time>2026-04-08T11:40:18Z</time></trkpt><trkpt lat="41.97926216158908" lon="2.6134339420229367"><ele>174.0</ele><time>2026-04-08T11:40:19Z</time></trkpt><trkpt lat="41.97934896445302" lon="2.6131444126774177"><ele>174.0</ele><time>2026-04-08T11:40:20Z</time></trkpt><trkpt lat="41.97944819670625" lon="2.6128522686704034"><ele>175.0</ele><time>2026-04-08T11:40:21Z</time></trkpt><trkpt lat="41.97955469014732" lon="2.6125629396316987"><ele>176.0</ele><time>2026-04-08T11:40:22Z</time></trkpt><trkpt lat="41.97967271171791" lon="2.6122836853705884"><ele>176.0</ele><time>2026-04-08T11:40:23Z</time></trkpt><trkpt lat="41.97979818913079" lon="2.612009316577138"><ele>176.0</ele><time>2026-04-08T11:40:24.001Z</time></trkpt><trkpt lat="41.97992621264799" lon="2.6117437304042075"><ele>175.5</ele><time>2026-04-08T11:40:25.001Z</time></trkpt><trkpt lat="41.98007167047433" lon="2.6114878268695847"><ele>175.0</ele><time>2026-04-08T11:40:26.001Z</time></trkpt><trkpt lat="41.980224225986944" lon="2.6112381505469786"><ele>175.0</ele><time>2026-04-08T11:40:27.001Z</time></trkpt><trkpt lat="41.98038370941062" lon="2.6109950278337126"><ele>175.0</ele><time>2026-04-08T11:40:28.001Z</time></trkpt><trkpt lat="41.98054338697138" lon="2.610763164192719"><ele>175.0</ele><time>2026-04-08T11:40:29.001Z</time></trkpt><trkpt lat="41.98069801821997" lon="2.6105362668846346"><ele>175.0</ele><time>2026-04-08T11:40:30.001Z</time></trkpt><trkpt lat="41.98084545124049" lon="2.610317121053094"><ele>175.0</ele><time>2026-04-08T11:40:31.001Z</time></trkpt><trkpt lat="41.9809957655237" lon="2.610094957879464"><ele>175.0</ele><time>2026-04-08T11:40:32.001Z</time></trkpt><trkpt lat="41.9811485201526" lon="2.6098714439597748"><ele>175.0</ele><time>2026-04-08T11:40:32.998Z</time></trkpt><trkpt lat="41.98130461770512" lon="2.6096446313907125"><ele>176.0</ele><time>2026-04-08T11:40:33.998Z</time></trkpt><trkpt lat="41.9814566407927" lon="2.60942185598773"><ele>177.0</ele><time>2026-04-08T11:40:34.998Z</time></trkpt><trkpt lat="41.98161232935548" lon="2.6092004707162415"><ele>176.66666666666666</ele><time>2026-04-08T11:40:35.998Z</time></trkpt><trkpt lat="41.9817674982436" lon="2.608981833857246"><ele>176.33333333333331</ele><time>2026-04-08T11:40:36.998Z</time></trkpt><trkpt lat="41.981914059982735" lon="2.608772463981722"><ele>176.0</ele><time>2026-04-08T11:40:37.998Z</time></trkpt><trkpt lat="41.98205245485711" lon="2.608573688351642"><ele>176.66666666666666</ele><time>2026-04-08T11:40:38.998Z</time></trkpt><trkpt lat="41.98218459764358" lon="2.6083838781071718"><ele>177.33333333333334</ele><time>2026-04-08T11:40:39.998Z</time></trkpt><trkpt lat="41.982318171205065" lon="2.6081970005848163"><ele>178.0</ele><time>2026-04-08T11:40:40.998Z</time></trkpt><trkpt lat="41.98244682417142" lon="2.6080143774426174"><ele>178.0</ele><time>2026-04-08T11:40:41.998Z</time></trkpt><trkpt lat="41.98256984830351" lon="2.6078371722469065"><ele>178.0</ele><time>2026-04-08T11:40:42.998Z</time></trkpt><trkpt lat="41.982686940664664" lon="2.6076706975844943"><ele>178.0</ele><time>2026-04-08T11:40:43.998Z</time></trkpt><trkpt lat="41.98279689526071" lon="2.6075193957600096"><ele>178.0</ele><time>2026-04-08T11:40:44.999Z</time></trkpt><trkpt lat="41.98289586068731" lon="2.6073850305107804"><ele>178.0</ele><time>2026-04-08T11:40:45.999Z</time></trkpt><trkpt lat="41.98298112521577" lon="2.6072697746032247"><ele>178.0</ele><time>2026-04-08T11:40:46.999Z</time></trkpt><trkpt lat="41.98306417931957" lon="2.60715868358197"><ele>178.0</ele><time>2026-04-08T11:40:47.999Z</time></trkpt><trkpt lat="41.9831497519889" lon="2.6070434936401745"><ele>178.25</ele><time>2026-04-08T11:40:48.999Z</time></trkpt><trkpt lat="41.98323557383311" lon="2.6069234193135813"><ele>178.5</ele><time>2026-04-08T11:40:49.999Z</time></trkpt><trkpt lat="41.98332074766405" lon="2.6068036844732108"><ele>178.75</ele><time>2026-04-08T11:40:50.999Z</time></trkpt><trkpt lat="41.98340536731209" lon="2.60668202615353"><ele>179.0</ele><time>2026-04-08T11:40:51.999Z</time></trkpt><trkpt lat="41.98348674643426" lon="2.6065623838743486"><ele>178.75</ele><time>2026-04-08T11:40:52.999Z</time></trkpt><trkpt lat="41.9835667410881" lon="2.6064437195684973"><ele>178.5</ele><time>2026-04-08T11:40:53.999Z</time></trkpt><trkpt lat="41.98364358631041" lon="2.606325939175047"><ele>178.25</ele><time>2026-04-08T11:40:54.999Z</time></trkpt><trkpt lat="41.98371824405629" lon="2.6062169278002862"><ele>178.0</ele><time>2026-04-08T11:40:55.999Z</time></trkpt><trkpt lat="41.983791699680715" lon="2.606114139930823"><ele>178.0</ele><time>2026-04-08T11:40:56.999Z</time></trkpt><trkpt lat="41.98385996950618" lon="2.606008617280795"><ele>178.0</ele><time>2026-04-08T11:40:57.999Z</time></trkpt><trkpt lat="41.98393385149466" lon="2.605902728930703"><ele>178.0</ele><time>2026-04-08T11:40:58.999Z</time></trkpt><trkpt lat="41.98401339877768" lon="2.6058034105949446"><ele>178.0</ele><time>2026-04-08T11:40:59.999Z</time></trkpt><trkpt lat="41.98408567230979" lon="2.605700200436858"><ele>178.0</ele><time>2026-04-08T11:41:00.999Z</time></trkpt><trkpt lat="41.98415425525361" lon="2.605601164603134"><ele>177.25</ele><time>2026-04-08T11:41:01.999Z</time></trkpt><trkpt lat="41.98423025871732" lon="2.605493841663727"><ele>176.5</ele><time>2026-04-08T11:41:02.999Z</time></trkpt><trkpt lat="41.98431984377989" lon="2.60538086411756"><ele>175.75</ele><time>2026-04-08T11:41:03.999Z</time></trkpt><trkpt lat="41.984417178885536" lon="2.60526763288731"><ele>175.0</ele><time>2026-04-08T11:41:04.999Z</time></trkpt><trkpt lat="41.98449848602863" lon="2.6051422394671797"><ele>175.0</ele><time>2026-04-08T11:41:05.999Z</time></trkpt><trkpt lat="41.98458263418144" lon="2.605027359090585"><ele>175.0</ele><time>2026-04-08T11:41:06.999Z</time></trkpt><trkpt lat="41.984671401953186" lon="2.6049142569235157"><ele>175.0</ele><time>2026-04-08T11:41:07.999Z</time></trkpt><trkpt lat="41.98475929878586" lon="2.6047997910525718"><ele>175.0</ele><time>2026-04-08T11:41:08.999Z</time></trkpt><trkpt lat="41.98484761936529" lon="2.6046855720570674"><ele>175.0</ele><time>2026-04-08T11:41:09.999Z</time></trkpt><trkpt lat="41.984935282463454" lon="2.6045691242257814"><ele>175.0</ele><time>2026-04-08T11:41:10.999Z</time></trkpt><trkpt lat="41.98502369404377" lon="2.6044557575990788"><ele>175.0</ele><time>2026-04-08T11:41:11.999Z</time></trkpt><trkpt lat="41.98511257960947" lon="2.6043449975751787"><ele>175.0</ele><time>2026-04-08T11:41:12.999Z</time></trkpt><trkpt lat="41.985211606198355" lon="2.6042561090866183"><ele>173.5</ele><time>2026-04-08T11:41:13.999Z</time></trkpt><trkpt lat="41.98531798731718" lon="2.6041829704978587"><ele>172.0</ele><time>2026-04-08T11:41:15Z</time></trkpt><trkpt lat="41.985430642296386" lon="2.6041309442260157"><ele>170.5</ele><time>2026-04-08T11:41:16Z</time></trkpt><trkpt lat="41.985545716082356" lon="2.604095023051229"><ele>169.0</ele><time>2026-04-08T11:41:17Z</time></trkpt><trkpt lat="41.98566210002605" lon="2.604072757266208"><ele>169.0</ele><time>2026-04-08T11:41:18Z</time></trkpt><trkpt lat="41.98577492970848" lon="2.6040454616950464"><ele>169.0</ele><time>2026-04-08T11:41:19Z</time></trkpt><trkpt lat="41.985885818585096" lon="2.6040164550376077"><ele>169.0</ele><time>2026-04-08T11:41:20Z</time></trkpt><trkpt lat="41.985996150598446" lon="2.6039864549713085"><ele>169.0</ele><time>2026-04-08T11:41:21Z</time></trkpt><trkpt lat="41.9861117161613" lon="2.6039565718848023"><ele>171.75</ele><time>2026-04-08T11:41:22Z</time></trkpt><trkpt lat="41.98623051091885" lon="2.603935534687501"><ele>174.5</ele><time>2026-04-08T11:41:23Z</time></trkpt><trkpt lat="41.98635468708289" lon="2.6039152130883743"><ele>177.25</ele><time>2026-04-08T11:41:24Z</time></trkpt><trkpt lat="41.98648423006965" lon="2.6039162220282766"><ele>180.0</ele><time>2026-04-08T11:41:25Z</time></trkpt><trkpt lat="41.98661716276773" lon="2.6039451945676437"><ele>184.75</ele><time>2026-04-08T11:41:26Z</time></trkpt><trkpt lat="41.986749878059136" lon="2.604002319877507"><ele>189.5</ele><time>2026-04-08T11:41:27Z</time></trkpt><trkpt lat="41.9868837035242" lon="2.6040897156520266"><ele>194.25</ele><time>2026-04-08T11:41:28Z</time></trkpt><trkpt lat="41.98701590399052" lon="2.604201478733325"><ele>199.0</ele><time>2026-04-08T11:41:29Z</time></trkpt><trkpt lat="41.987137447760595" lon="2.604346911697954"><ele>195.0</ele><time>2026-04-08T11:41:30Z</time></trkpt><trkpt lat="41.98725347721449" lon="2.604518005795043"><ele>191.0</ele><time>2026-04-08T11:41:31Z</time></trkpt><trkpt lat="41.98735069567537" lon="2.6046940113331227"><ele>187.0</ele><time>2026-04-08T11:41:32Z</time></trkpt><trkpt lat="41.98745027390488" lon="2.6048712577373943"><ele>187.66666666666669</ele><time>2026-04-08T11:41:33Z</time></trkpt><trkpt lat="41.98755529793857" lon="2.6050565090846614"><ele>188.33333333333334</ele><time>2026-04-08T11:41:34Z</time></trkpt><trkpt lat="41.98766575966869" lon="2.6052430228805763"><ele>189.0</ele><time>2026-04-08T11:41:35Z</time></trkpt><trkpt lat="41.98777994770581" lon="2.6054277453440084"><ele>189.0</ele><time>2026-04-08T11:41:36Z</time></trkpt><trkpt lat="41.98788862972037" lon="2.6056183658804253"><ele>189.0</ele><time>2026-04-08T11:41:37Z</time></trkpt><trkpt lat="41.98800951688278" lon="2.6057898300547806"><ele>189.0</ele><time>2026-04-08T11:41:38Z</time></trkpt><trkpt lat="41.988156540797405" lon="2.6059199442325096"><ele>189.0</ele><time>2026-04-08T11:41:39Z</time></trkpt><trkpt lat="41.98828901576671" lon="2.606071952072439"><ele>189.0</ele><time>2026-04-08T11:41:40Z</time></trkpt><trkpt lat="41.98842476888974" lon="2.606231133709588"><ele>189.0</ele><time>2026-04-08T11:41:41Z</time></trkpt><trkpt lat="41.988566226536456" lon="2.606391036148928"><ele>189.0</ele><time>2026-04-08T11:41:42Z</time></trkpt><trkpt lat="41.98869964570497" lon="2.606571125243964"><ele>189.0</ele><time>2026-04-08T11:41:43Z</time></trkpt><trkpt lat="41.98886026335663" lon="2.6067132122537333"><ele>189.0</ele><time>2026-04-08T11:41:44Z</time></trkpt><trkpt lat="41.98901119003696" lon="2.606875754379746"><ele>190.0</ele><time>2026-04-08T11:41:45Z</time></trkpt><trkpt lat="41.98916470027202" lon="2.6070418321127162"><ele>191.0</ele><time>2026-04-08T11:41:46Z</time></trkpt><trkpt lat="41.989318832807264" lon="2.6072101287935614"><ele>192.0</ele><time>2026-04-08T11:41:47Z</time></trkpt><trkpt lat="41.98946941912394" lon="2.6073760741620458"><ele>192.0</ele><time>2026-04-08T11:41:48Z</time></trkpt><trkpt lat="41.98962234829583" lon="2.607543971990856"><ele>192.0</ele><time>2026-04-08T11:41:49Z</time></trkpt><trkpt lat="41.98977231180634" lon="2.6077096498925663"><ele>192.0</ele><time>2026-04-08T11:41:50Z</time></trkpt><trkpt lat="41.989912926504985" lon="2.6078636286224355"><ele>192.0</ele><time>2026-04-08T11:41:51Z</time></trkpt><trkpt lat="41.99005014270906" lon="2.6080190855701186"><ele>192.0</ele><time>2026-04-08T11:41:52Z</time></trkpt><trkpt lat="41.990166458998765" lon="2.608199952986998"><ele>192.0</ele><time>2026-04-08T11:41:53Z</time></trkpt><trkpt lat="41.9902942023382" lon="2.6083685050229737"><ele>192.0</ele><time>2026-04-08T11:41:54Z</time></trkpt><trkpt lat="41.99041690077496" lon="2.608547030146945"><ele>192.0</ele><time>2026-04-08T11:41:55Z</time></trkpt><trkpt lat="41.990531711255315" lon="2.6087366531907614"><ele>192.0</ele><time>2026-04-08T11:41:56Z</time></trkpt><trkpt lat="41.99063884824037" lon="2.608933093905232"><ele>191.0</ele><time>2026-04-08T11:41:57Z</time></trkpt><trkpt lat="41.99074000766515" lon="2.609131718768941"><ele>190.0</ele><time>2026-04-08T11:41:58Z</time></trkpt><trkpt lat="41.99083833678966" lon="2.6093293414305108"><ele>189.0</ele><time>2026-04-08T11:41:59Z</time></trkpt><trkpt lat="41.99093264084288" lon="2.609524858269357"><ele>191.0</ele><time>2026-04-08T11:42:00Z</time></trkpt><trkpt lat="41.99103084031519" lon="2.6097232744295655"><ele>193.0</ele><time>2026-04-08T11:42:01Z</time></trkpt><trkpt lat="41.991137174432424" lon="2.6099145987770602"><ele>195.0</ele><time>2026-04-08T11:42:02Z</time></trkpt><trkpt lat="41.99125435613359" lon="2.610098181085033"><ele>195.0</ele><time>2026-04-08T11:42:03Z</time></trkpt><trkpt lat="41.991384976400035" lon="2.6102702023556654"><ele>195.0</ele><time>2026-04-08T11:42:04Z</time></trkpt><trkpt lat="41.99153221763448" lon="2.6104283364298655"><ele>195.0</ele><time>2026-04-08T11:42:05Z</time></trkpt><trkpt lat="41.9916926971825" lon="2.610546649260483"><ele>194.66666666666669</ele><time>2026-04-08T11:42:06Z</time></trkpt><trkpt lat="41.991847368273106" lon="2.6106511840214437"><ele>194.33333333333334</ele><time>2026-04-08T11:42:07Z</time></trkpt><trkpt lat="41.992011842878256" lon="2.6107314153263195"><ele>194.0</ele><time>2026-04-08T11:42:08Z</time></trkpt><trkpt lat="41.99218563505304" lon="2.6107944694482113"><ele>194.0</ele><time>2026-04-08T11:42:09Z</time></trkpt><trkpt lat="41.992366646744706" lon="2.6108366713890674"><ele>194.0</ele><time>2026-04-08T11:42:10Z</time></trkpt><trkpt lat="41.992551186166956" lon="2.6108534549814264"><ele>194.0</ele><time>2026-04-08T11:42:11Z</time></trkpt><trkpt lat="41.99273580027508" lon="2.610849868132863"><ele>192.33333333333334</ele><time>2026-04-08T11:42:12Z</time></trkpt><trkpt lat="41.99292136387785" lon="2.6108234911338553"><ele>190.66666666666669</ele><time>2026-04-08T11:42:13Z</time></trkpt><trkpt lat="41.99310853810498" lon="2.6107713353577897"><ele>189.0</ele><time>2026-04-08T11:42:14Z</time></trkpt><trkpt lat="41.99329088487467" lon="2.6106963200109163"><ele>187.66666666666666</ele><time>2026-04-08T11:42:15Z</time></trkpt><trkpt lat="41.9934724769107" lon="2.6106052018000887"><ele>186.33333333333331</ele><time>2026-04-08T11:42:16Z</time></trkpt><trkpt lat="41.99366963641865" lon="2.6105222010037297"><ele>185.0</ele><time>2026-04-08T11:42:17Z</time></trkpt><trkpt lat="41.993822934453576" lon="2.610432356851717"><ele>185.0</ele><time>2026-04-08T11:42:18Z</time></trkpt><trkpt lat="41.99399297009856" lon="2.6103461985451384"><ele>185.0</ele><time>2026-04-08T11:42:19Z</time></trkpt><trkpt lat="41.99415567905786" lon="2.610256504730877"><ele>185.0</ele><time>2026-04-08T11:42:20Z</time></trkpt><trkpt lat="41.99432105071139" lon="2.610153414236465"><ele>187.33333333333331</ele><time>2026-04-08T11:42:21.001Z</time></trkpt><trkpt lat="41.99447982225024" lon="2.6100352221546452"><ele>189.66666666666666</ele><time>2026-04-08T11:42:22.001Z</time></trkpt><trkpt lat="41.994637554150636" lon="2.6098986930520716"><ele>192.0</ele><time>2026-04-08T11:42:23.001Z</time></trkpt><trkpt lat="41.99477601224987" lon="2.609753627867419"><ele>192.0</ele><time>2026-04-08T11:42:24.001Z</time></trkpt><trkpt lat="41.99490475775281" lon="2.6096048147747384"><ele>192.0</ele><time>2026-04-08T11:42:25.001Z</time></trkpt><trkpt lat="41.99501061543012" lon="2.609459682424601"><ele>192.0</ele><time>2026-04-08T11:42:26.001Z</time></trkpt><trkpt lat="41.995163493809315" lon="2.6093087808602045"><ele>192.66666666666669</ele><time>2026-04-08T11:42:27.001Z</time></trkpt><trkpt lat="41.99529382353973" lon="2.609168201253573"><ele>193.33333333333334</ele><time>2026-04-08T11:42:28.001Z</time></trkpt><trkpt lat="41.99542421837151" lon="2.6090352651166233"><ele>194.0</ele><time>2026-04-08T11:42:29.001Z</time></trkpt><trkpt lat="41.99555183976787" lon="2.608908543267804"><ele>194.0</ele><time>2026-04-08T11:42:30.001Z</time></trkpt><trkpt lat="41.99568441219753" lon="2.6087919654228364"><ele>194.0</ele><time>2026-04-08T11:42:31.001Z</time></trkpt><trkpt lat="41.99583239625876" lon="2.608683245592633"><ele>194.0</ele><time>2026-04-08T11:42:32.001Z</time></trkpt><trkpt lat="41.9959868717133" lon="2.6085843977019727"><ele>195.33333333333334</ele><time>2026-04-08T11:42:33.001Z</time></trkpt><trkpt lat="41.99614986179999" lon="2.6084881341621764"><ele>196.66666666666669</ele><time>2026-04-08T11:42:34.001Z</time></trkpt><trkpt lat="41.996317341809146" lon="2.6083937878767283"><ele>198.0</ele><time>2026-04-08T11:42:35.001Z</time></trkpt><trkpt lat="41.9964824885008" lon="2.608299894998253"><ele>198.0</ele><time>2026-04-08T11:42:36.001Z</time></trkpt><trkpt lat="41.99665112466861" lon="2.60820473979283"><ele>198.0</ele><time>2026-04-08T11:42:37.001Z</time></trkpt><trkpt lat="41.99682032446284" lon="2.6081099141413158"><ele>198.0</ele><time>2026-04-08T11:42:38.001Z</time></trkpt><trkpt lat="41.99698989283791" lon="2.6080163464621755"><ele>197.0</ele><time>2026-04-08T11:42:38.999Z</time></trkpt><trkpt lat="41.9971611471051" lon="2.6079222656291257"><ele>196.0</ele><time>2026-04-08T11:42:39.999Z</time></trkpt><trkpt lat="41.99732812577499" lon="2.6078300807818517"><ele>195.0</ele><time>2026-04-08T11:42:40.999Z</time></trkpt><trkpt lat="41.99749675401028" lon="2.6077329340654116"><ele>194.66666666666669</ele><time>2026-04-08T11:42:41.999Z</time></trkpt><trkpt lat="41.99766922446725" lon="2.607629191714018"><ele>194.33333333333334</ele><time>2026-04-08T11:42:42.999Z</time></trkpt><trkpt lat="41.99783764720835" lon="2.607536259834898"><ele>194.0</ele><time>2026-04-08T11:42:43.999Z</time></trkpt><trkpt lat="41.9980070737307" lon="2.607410083517279"><ele>194.0</ele><time>2026-04-08T11:42:44.999Z</time></trkpt><trkpt lat="41.99816441310885" lon="2.6072670677859433"><ele>194.0</ele><time>2026-04-08T11:42:45.999Z</time></trkpt><trkpt lat="41.9983202849889" lon="2.6071114731551903"><ele>194.0</ele><time>2026-04-08T11:42:46.999Z</time></trkpt><trkpt lat="41.998474072843855" lon="2.6069425565645497"><ele>192.66666666666669</ele><time>2026-04-08T11:42:47.999Z</time></trkpt><trkpt lat="41.99862321462947" lon="2.60676264648917"><ele>191.33333333333334</ele><time>2026-04-08T11:42:48.999Z</time></trkpt><trkpt lat="41.99877177426458" lon="2.6065857982482568"><ele>190.0</ele><time>2026-04-08T11:42:49.999Z</time></trkpt><trkpt lat="41.998925976104175" lon="2.606410094872085"><ele>190.0</ele><time>2026-04-08T11:42:50.999Z</time></trkpt><trkpt lat="41.99908289106653" lon="2.6062343233875342"><ele>190.0</ele><time>2026-04-08T11:42:51.999Z</time></trkpt><trkpt lat="41.99924025006589" lon="2.606053497322424"><ele>190.0</ele><time>2026-04-08T11:42:52.999Z</time></trkpt><trkpt lat="41.99940255600052" lon="2.6058829151449867"><ele>190.33333333333334</ele><time>2026-04-08T11:42:53.999Z</time></trkpt><trkpt lat="41.999571298181685" lon="2.6057273626851085"><ele>190.66666666666666</ele><time>2026-04-08T11:42:54.999Z</time></trkpt><trkpt lat="41.99974624463768" lon="2.6055923520958486"><ele>191.0</ele><time>2026-04-08T11:42:55.999Z</time></trkpt><trkpt lat="41.99992780022111" lon="2.6054771430818597"><ele>191.0</ele><time>2026-04-08T11:42:56.999Z</time></trkpt><trkpt lat="42.000116496368705" lon="2.6053817989219983"><ele>191.0</ele><time>2026-04-08T11:42:58Z</time></trkpt><trkpt lat="42.000306856998385" lon="2.605302684305795"><ele>191.0</ele><time>2026-04-08T11:42:59Z</time></trkpt><trkpt lat="42.000484301757076" lon="2.605247746325936"><ele>194.33333333333331</ele><time>2026-04-08T11:43:00Z</time></trkpt><trkpt lat="42.000657140713294" lon="2.605208108824842"><ele>197.66666666666666</ele><time>2026-04-08T11:43:01Z</time></trkpt><trkpt lat="42.00083051828472" lon="2.605188049913418"><ele>201.0</ele><time>2026-04-08T11:43:02Z</time></trkpt><trkpt lat="42.00100399300106" lon="2.605180653997602"><ele>202.33333333333331</ele><time>2026-04-08T11:43:03Z</time></trkpt><trkpt lat="42.001171962496144" lon="2.605181479036389"><ele>203.66666666666666</ele><time>2026-04-08T11:43:04Z</time></trkpt><trkpt lat="42.00133462537705" lon="2.6051762903890716"><ele>205.0</ele><time>2026-04-08T11:43:05Z</time></trkpt><trkpt lat="42.00149336106481" lon="2.6051782834019686"><ele>205.0</ele><time>2026-04-08T11:43:06Z</time></trkpt><trkpt lat="42.00166007126657" lon="2.6051876686333766"><ele>205.0</ele><time>2026-04-08T11:43:07Z</time></trkpt><trkpt lat="42.00182994766144" lon="2.605199030099058"><ele>205.0</ele><time>2026-04-08T11:43:08Z</time></trkpt><trkpt lat="42.00200594136088" lon="2.6052103896168712"><ele>203.0</ele><time>2026-04-08T11:43:09Z</time></trkpt><trkpt lat="42.002188298985736" lon="2.605219036479528"><ele>201.0</ele><time>2026-04-08T11:43:10Z</time></trkpt><trkpt lat="42.00237338469355" lon="2.605227699529197"><ele>199.0</ele><time>2026-04-08T11:43:11Z</time></trkpt><trkpt lat="42.002559868390854" lon="2.6052332608149573"><ele>197.33333333333331</ele><time>2026-04-08T11:43:12Z</time></trkpt><trkpt lat="42.00274726525832" lon="2.6052379980242235"><ele>195.66666666666669</ele><time>2026-04-08T11:43:13Z</time></trkpt><trkpt lat="42.002937722513295" lon="2.6052446452760947"><ele>194.0</ele><time>2026-04-08T11:43:14Z</time></trkpt><trkpt lat="42.00312814051681" lon="2.605251583535149"><ele>194.0</ele><time>2026-04-08T11:43:15Z</time></trkpt><trkpt lat="42.00332353134281" lon="2.6052627621624573"><ele>194.0</ele><time>2026-04-08T11:43:16Z</time></trkpt><trkpt lat="42.00351777622636" lon="2.6052736700409564"><ele>194.0</ele><time>2026-04-08T11:43:17Z</time></trkpt><trkpt lat="42.00371320009221" lon="2.6052830865292544"><ele>192.66666666666669</ele><time>2026-04-08T11:43:18Z</time></trkpt><trkpt lat="42.00390845975697" lon="2.6052906823357707"><ele>191.33333333333334</ele><time>2026-04-08T11:43:19Z</time></trkpt><trkpt lat="42.00410467511484" lon="2.6052966705531717"><ele>190.0</ele><time>2026-04-08T11:43:20Z</time></trkpt><trkpt lat="42.0043000794972" lon="2.6053018944093287"><ele>189.33333333333334</ele><time>2026-04-08T11:43:21Z</time></trkpt><trkpt lat="42.0044903218343" lon="2.6053071760269524"><ele>188.66666666666666</ele><time>2026-04-08T11:43:22Z</time></trkpt><trkpt lat="42.0046611459745" lon="2.605314700130379"><ele>188.0</ele><time>2026-04-08T11:43:23Z</time></trkpt><trkpt lat="42.00481275393813" lon="2.6053197170870934"><ele>188.0</ele><time>2026-04-08T11:43:24Z</time></trkpt><trkpt lat="42.004946440548196" lon="2.6053247883286184"><ele>188.0</ele><time>2026-04-08T11:43:25Z</time></trkpt><trkpt lat="42.00506843867216" lon="2.6053277220235422"><ele>188.0</ele><time>2026-04-08T11:43:26Z</time></trkpt><trkpt lat="42.005193175914215" lon="2.6053308270447357"><ele>188.0</ele><time>2026-04-08T11:43:27Z</time></trkpt><trkpt lat="42.00532407241668" lon="2.605338275232121"><ele>186.75</ele><time>2026-04-08T11:43:28Z</time></trkpt><trkpt lat="42.00546055079802" lon="2.6053456589568746"><ele>185.5</ele><time>2026-04-08T11:43:29Z</time></trkpt><trkpt lat="42.00559790339935" lon="2.6053519754811854"><ele>184.25</ele><time>2026-04-08T11:43:30Z</time></trkpt><trkpt lat="42.005737098834075" lon="2.6053576997889993"><ele>183.0</ele><time>2026-04-08T11:43:31Z</time></trkpt><trkpt lat="42.005875789935395" lon="2.605363505357665"><ele>183.0</ele><time>2026-04-08T11:43:32Z</time></trkpt><trkpt lat="42.006010263599094" lon="2.6053655269567897"><ele>183.0</ele><time>2026-04-08T11:43:33Z</time></trkpt><trkpt lat="42.006143092303965" lon="2.605358470351046"><ele>183.0</ele><time>2026-04-08T11:43:34Z</time></trkpt><trkpt lat="42.006277405506516" lon="2.605335767662062"><ele>183.0</ele><time>2026-04-08T11:43:35Z</time></trkpt><trkpt lat="42.00640797475824" lon="2.6052996622520075"><ele>183.75</ele><time>2026-04-08T11:43:36Z</time></trkpt><trkpt lat="42.006530307636275" lon="2.605260315676955"><ele>184.5</ele><time>2026-04-08T11:43:37Z</time></trkpt><trkpt lat="42.006646667010514" lon="2.605225463641709"><ele>185.25</ele><time>2026-04-08T11:43:38Z</time></trkpt><trkpt lat="42.00675973117463" lon="2.6051945623416866"><ele>186.0</ele><time>2026-04-08T11:43:39Z</time></trkpt><trkpt lat="42.00687640964039" lon="2.6051624504413784"><ele>186.0</ele><time>2026-04-08T11:43:40Z</time></trkpt><trkpt lat="42.006985151790786" lon="2.605128111959251"><ele>186.0</ele><time>2026-04-08T11:43:41Z</time></trkpt><trkpt lat="42.00709602373549" lon="2.6050968384844384"><ele>186.0</ele><time>2026-04-08T11:43:42Z</time></trkpt><trkpt lat="42.00720883073385" lon="2.605065494277569"><ele>186.0</ele><time>2026-04-08T11:43:43Z</time></trkpt><trkpt lat="42.00732265160019" lon="2.605033272468892"><ele>186.0</ele><time>2026-04-08T11:43:44Z</time></trkpt><trkpt lat="42.00743846176386" lon="2.605000223038141"><ele>186.0</ele><time>2026-04-08T11:43:45Z</time></trkpt><trkpt lat="42.007555054955795" lon="2.6049634232971624"><ele>186.0</ele><time>2026-04-08T11:43:46.001Z</time></trkpt><trkpt lat="42.00767175979509" lon="2.604931794169025"><ele>186.0</ele><time>2026-04-08T11:43:47.001Z</time></trkpt><trkpt lat="42.00779449779197" lon="2.604900896562956"><ele>186.0</ele><time>2026-04-08T11:43:48.001Z</time></trkpt><trkpt lat="42.00791925952186" lon="2.604866199659257"><ele>186.0</ele><time>2026-04-08T11:43:49.001Z</time></trkpt><trkpt lat="42.00804770881123" lon="2.6048315562984627"><ele>186.0</ele><time>2026-04-08T11:43:50.001Z</time></trkpt><trkpt lat="42.00817321745831" lon="2.604796459456754"><ele>186.0</ele><time>2026-04-08T11:43:51.001Z</time></trkpt><trkpt lat="42.00829596066252" lon="2.604762234581542"><ele>186.25</ele><time>2026-04-08T11:43:52.001Z</time></trkpt><trkpt lat="42.00841464152319" lon="2.6047279678057573"><ele>186.5</ele><time>2026-04-08T11:43:53.001Z</time></trkpt><trkpt lat="42.00853988036789" lon="2.6046995930512757"><ele>186.75</ele><time>2026-04-08T11:43:54.001Z</time></trkpt><trkpt lat="42.00864904254236" lon="2.6046651789706554"><ele>187.0</ele><time>2026-04-08T11:43:55.001Z</time></trkpt><trkpt lat="42.008749976904056" lon="2.604640241460481"><ele>187.0</ele><time>2026-04-08T11:43:56.001Z</time></trkpt><trkpt lat="42.00885393274378" lon="2.604601737923624"><ele>187.0</ele><time>2026-04-08T11:43:57.001Z</time></trkpt><trkpt lat="42.008958770818296" lon="2.6045689295407106"><ele>187.0</ele><time>2026-04-08T11:43:58.001Z</time></trkpt><trkpt lat="42.009062180784596" lon="2.604532297442486"><ele>187.0</ele><time>2026-04-08T11:43:59.001Z</time></trkpt><trkpt lat="42.009163898100795" lon="2.604500197599482"><ele>187.0</ele><time>2026-04-08T11:44:00.001Z</time></trkpt><trkpt lat="42.00926089740822" lon="2.604468033554444"><ele>187.2</ele><time>2026-04-08T11:44:01.001Z</time></trkpt><trkpt lat="42.00935562801072" lon="2.6044206880227665"><ele>187.39999999999998</ele><time>2026-04-08T11:44:02.001Z</time></trkpt><trkpt lat="42.00943725877174" lon="2.6043622379437"><ele>187.60000000000002</ele><time>2026-04-08T11:44:03.001Z</time></trkpt><trkpt lat="42.00951864150367" lon="2.604293517011779"><ele>187.8</ele><time>2026-04-08T11:44:04.001Z</time></trkpt><trkpt lat="42.009609463651316" lon="2.6042258145014974"><ele>188.0</ele><time>2026-04-08T11:44:05.001Z</time></trkpt><trkpt lat="42.00969735653984" lon="2.60415705773183"><ele>188.0</ele><time>2026-04-08T11:44:06.001Z</time></trkpt><trkpt lat="42.009782301809885" lon="2.604075544177587"><ele>188.0</ele><time>2026-04-08T11:44:07.001Z</time></trkpt><trkpt lat="42.00986535179784" lon="2.6039985617236745"><ele>188.0</ele><time>2026-04-08T11:44:08.001Z</time></trkpt><trkpt lat="42.00994563866132" lon="2.603926987279929"><ele>188.0</ele><time>2026-04-08T11:44:09.001Z</time></trkpt><trkpt lat="42.010028587804065" lon="2.6038508879610833"><ele>188.0</ele><time>2026-04-08T11:44:10.001Z</time></trkpt><trkpt lat="42.01011291413288" lon="2.6037658963240475"><ele>187.8</ele><time>2026-04-08T11:44:11.001Z</time></trkpt><trkpt lat="42.01019825724357" lon="2.603684454201362"><ele>187.60000000000002</ele><time>2026-04-08T11:44:12.001Z</time></trkpt><trkpt lat="42.01027991949175" lon="2.6035984300132315"><ele>187.39999999999998</ele><time>2026-04-08T11:44:13.001Z</time></trkpt><trkpt lat="42.010354020343044" lon="2.6035213622073785"><ele>187.2</ele><time>2026-04-08T11:44:14.001Z</time></trkpt><trkpt lat="42.010436152133295" lon="2.603441322830386"><ele>187.0</ele><time>2026-04-08T11:44:15.001Z</time></trkpt><trkpt lat="42.010523985414274" lon="2.603362435006622"><ele>187.0</ele><time>2026-04-08T11:44:16.001Z</time></trkpt><trkpt lat="42.01060721160332" lon="2.603272910257576"><ele>187.0</ele><time>2026-04-08T11:44:17.001Z</time></trkpt><trkpt lat="42.010690077830276" lon="2.603199279778934"><ele>187.0</ele><time>2026-04-08T11:44:18.001Z</time></trkpt><trkpt lat="42.01077915426948" lon="2.6031177051766425"><ele>187.0</ele><time>2026-04-08T11:44:19.001Z</time></trkpt><trkpt lat="42.01087156226249" lon="2.6030269394735774"><ele>187.0</ele><time>2026-04-08T11:44:20.001Z</time></trkpt><trkpt lat="42.01096763809942" lon="2.6029336912910956"><ele>187.0</ele><time>2026-04-08T11:44:21.001Z</time></trkpt><trkpt lat="42.01106721844117" lon="2.602836441376074"><ele>187.0</ele><time>2026-04-08T11:44:22.001Z</time></trkpt><trkpt lat="42.01116377321191" lon="2.602737766381682"><ele>187.0</ele><time>2026-04-08T11:44:23.001Z</time></trkpt><trkpt lat="42.011258011107316" lon="2.6026452549597057"><ele>187.0</ele><time>2026-04-08T11:44:24.001Z</time></trkpt><trkpt lat="42.01135033132249" lon="2.602551616174752"><ele>187.5</ele><time>2026-04-08T11:44:25.001Z</time></trkpt><trkpt lat="42.01145087730568" lon="2.602454886344546"><ele>188.0</ele><time>2026-04-08T11:44:26.001Z</time></trkpt><trkpt lat="42.0115565137853" lon="2.602353380100248"><ele>188.5</ele><time>2026-04-08T11:44:27.001Z</time></trkpt><trkpt lat="42.01166264091438" lon="2.6022473775770276"><ele>189.0</ele><time>2026-04-08T11:44:28.001Z</time></trkpt><trkpt lat="42.01176614176188" lon="2.6021428707711936"><ele>189.0</ele><time>2026-04-08T11:44:29.001Z</time></trkpt><trkpt lat="42.0118703035036" lon="2.6020474163900076"><ele>189.0</ele><time>2026-04-08T11:44:30.001Z</time></trkpt><trkpt lat="42.01197385168429" lon="2.6019515372665953"><ele>189.0</ele><time>2026-04-08T11:44:31.001Z</time></trkpt><trkpt lat="42.012079662530105" lon="2.60184960638458"><ele>189.0</ele><time>2026-04-08T11:44:32.001Z</time></trkpt><trkpt lat="42.01218487411032" lon="2.6017481444344104"><ele>189.0</ele><time>2026-04-08T11:44:33.001Z</time></trkpt><trkpt lat="42.01228203947107" lon="2.6016504151922946"><ele>189.0</ele><time>2026-04-08T11:44:34.001Z</time></trkpt><trkpt lat="42.01237324370556" lon="2.601564251290774"><ele>189.0</ele><time>2026-04-08T11:44:35.001Z</time></trkpt><trkpt lat="42.012461699073796" lon="2.60148121842704"><ele>189.0</ele><time>2026-04-08T11:44:36.001Z</time></trkpt><trkpt lat="42.01255300857181" lon="2.6013899710366952"><ele>189.0</ele><time>2026-04-08T11:44:37.001Z</time></trkpt><trkpt lat="42.01264663647179" lon="2.601297397354432"><ele>189.0</ele><time>2026-04-08T11:44:38.001Z</time></trkpt><trkpt lat="42.01274199678957" lon="2.6012059666323224"><ele>189.0</ele><time>2026-04-08T11:44:39.001Z</time></trkpt><trkpt lat="42.01284068018393" lon="2.6011078722431167"><ele>189.0</ele><time>2026-04-08T11:44:40.001Z</time></trkpt><trkpt lat="42.012943162686206" lon="2.6010056560553876"><ele>189.5</ele><time>2026-04-08T11:44:41.001Z</time></trkpt><trkpt lat="42.01304997216641" lon="2.6009013339906426"><ele>190.0</ele><time>2026-04-08T11:44:42.001Z</time></trkpt><trkpt lat="42.01316188736809" lon="2.6007964679594555"><ele>190.5</ele><time>2026-04-08T11:44:43.001Z</time></trkpt><trkpt lat="42.01327626621296" lon="2.6006871544928587"><ele>191.0</ele><time>2026-04-08T11:44:44.001Z</time></trkpt><trkpt lat="42.01339088536057" lon="2.600575379918683"><ele>191.0</ele><time>2026-04-08T11:44:44.999Z</time></trkpt><trkpt lat="42.013508535016285" lon="2.600455967398518"><ele>191.0</ele><time>2026-04-08T11:44:45.999Z</time></trkpt><trkpt lat="42.01363058176358" lon="2.600335470165682"><ele>191.0</ele><time>2026-04-08T11:44:46.999Z</time></trkpt><trkpt lat="42.013755309131206" lon="2.600213966172199"><ele>191.33333333333331</ele><time>2026-04-08T11:44:47.999Z</time></trkpt><trkpt lat="42.01388110489018" lon="2.600093309205572"><ele>191.66666666666666</ele><time>2026-04-08T11:44:48.999Z</time></trkpt><trkpt lat="42.014009397602536" lon="2.5999709449941317"><ele>192.0</ele><time>2026-04-08T11:44:50Z</time></trkpt><trkpt lat="42.014140603688396" lon="2.599845416867012"><ele>191.66666666666666</ele><time>2026-04-08T11:44:51Z</time></trkpt><trkpt lat="42.01426928005058" lon="2.59971866492323"><ele>191.33333333333331</ele><time>2026-04-08T11:44:52Z</time></trkpt><trkpt lat="42.01440075119106" lon="2.599589337083567"><ele>191.0</ele><time>2026-04-08T11:44:53Z</time></trkpt><trkpt lat="42.01453559372265" lon="2.599459655940715"><ele>191.0</ele><time>2026-04-08T11:44:54Z</time></trkpt><trkpt lat="42.01467121371803" lon="2.599329307867848"><ele>191.0</ele><time>2026-04-08T11:44:55Z</time></trkpt><trkpt lat="42.01480780803189" lon="2.5991969595077387"><ele>191.0</ele><time>2026-04-08T11:44:56Z</time></trkpt><trkpt lat="42.01494510752869" lon="2.5990657970277224"><ele>190.66666666666666</ele><time>2026-04-08T11:44:57Z</time></trkpt><trkpt lat="42.015083391581015" lon="2.5989301306390376"><ele>190.33333333333334</ele><time>2026-04-08T11:44:58Z</time></trkpt><trkpt lat="42.01521981040025" lon="2.598796218621849"><ele>190.0</ele><time>2026-04-08T11:44:59Z</time></trkpt><trkpt lat="42.01534977475376" lon="2.5986683320828283"><ele>190.5</ele><time>2026-04-08T11:45:00Z</time></trkpt><trkpt lat="42.01546639873033" lon="2.598555597119813"><ele>191.0</ele><time>2026-04-08T11:45:01Z</time></trkpt><trkpt lat="42.015577279128095" lon="2.5984486595559932"><ele>191.5</ele><time>2026-04-08T11:45:02Z</time></trkpt><trkpt lat="42.015678097159416" lon="2.598350534689073"><ele>192.0</ele><time>2026-04-08T11:45:03Z</time></trkpt><trkpt lat="42.0157681173728" lon="2.598266186787354"><ele>192.0</ele><time>2026-04-08T11:45:04Z</time></trkpt><trkpt lat="42.015847501906904" lon="2.598195722387616"><ele>192.0</ele><time>2026-04-08T11:45:05Z</time></trkpt><trkpt lat="42.01592534527259" lon="2.598137654629516"><ele>192.0</ele><time>2026-04-08T11:45:06Z</time></trkpt><trkpt lat="42.016018159472715" lon="2.598104760006983"><ele>192.0</ele><time>2026-04-08T11:45:07Z</time></trkpt><trkpt lat="42.01610418086333" lon="2.5980665828968763"><ele>192.0</ele><time>2026-04-08T11:45:08Z</time></trkpt><trkpt lat="42.01618135567376" lon="2.5979918794067633"><ele>192.0</ele><time>2026-04-08T11:45:09Z</time></trkpt><trkpt lat="42.01625110400934" lon="2.5978833331844684"><ele>192.0</ele><time>2026-04-08T11:45:10Z</time></trkpt><trkpt lat="42.016314638487934" lon="2.59775748797923"><ele>192.0</ele><time>2026-04-08T11:45:11Z</time></trkpt><trkpt lat="42.016383844660524" lon="2.597648379963312"><ele>192.0</ele><time>2026-04-08T11:45:12Z</time></trkpt><trkpt lat="42.016472953672945" lon="2.5975582366724916"><ele>192.0</ele><time>2026-04-08T11:45:13Z</time></trkpt><trkpt lat="42.01657200613147" lon="2.5974658379759097"><ele>192.0</ele><time>2026-04-08T11:45:14Z</time></trkpt><trkpt lat="42.01667663346095" lon="2.597370143089464"><ele>192.0</ele><time>2026-04-08T11:45:15Z</time></trkpt><trkpt lat="42.01677999607595" lon="2.597270454896616"><ele>192.0</ele><time>2026-04-08T11:45:16Z</time></trkpt><trkpt lat="42.01688610713016" lon="2.5971651390570347"><ele>192.0</ele><time>2026-04-08T11:45:17Z</time></trkpt><trkpt lat="42.01699237750195" lon="2.5970618822517233"><ele>192.25</ele><time>2026-04-08T11:45:18Z</time></trkpt><trkpt lat="42.01710269152324" lon="2.5969589567178955"><ele>192.5</ele><time>2026-04-08T11:45:19Z</time></trkpt><trkpt lat="42.01721235268611" lon="2.5968544714024073"><ele>192.75</ele><time>2026-04-08T11:45:20Z</time></trkpt><trkpt lat="42.017319445492326" lon="2.5967503890916293"><ele>193.0</ele><time>2026-04-08T11:45:21Z</time></trkpt><trkpt lat="42.017424881043425" lon="2.596645366439521"><ele>193.0</ele><time>2026-04-08T11:45:22Z</time></trkpt><trkpt lat="42.01753564469679" lon="2.5965382616738713"><ele>193.0</ele><time>2026-04-08T11:45:23Z</time></trkpt><trkpt lat="42.01764565299244" lon="2.5964302537461394"><ele>193.0</ele><time>2026-04-08T11:45:24Z</time></trkpt><trkpt lat="42.017757277166154" lon="2.5963227347146973"><ele>193.0</ele><time>2026-04-08T11:45:25Z</time></trkpt><trkpt lat="42.0178696556277" lon="2.596212808321402"><ele>193.75</ele><time>2026-04-08T11:45:26Z</time></trkpt><trkpt lat="42.01798249570837" lon="2.5961027622578263"><ele>194.5</ele><time>2026-04-08T11:45:27Z</time></trkpt><trkpt lat="42.01809953714344" lon="2.5959926009760244"><ele>195.25</ele><time>2026-04-08T11:45:28Z</time></trkpt><trkpt lat="42.01821482320578" lon="2.595880799484279"><ele>196.0</ele><time>2026-04-08T11:45:29Z</time></trkpt><trkpt lat="42.018330674119795" lon="2.595766486377155"><ele>196.0</ele><time>2026-04-08T11:45:30Z</time></trkpt><trkpt lat="42.018448634461464" lon="2.5956518503832298"><ele>196.0</ele><time>2026-04-08T11:45:31Z</time></trkpt><trkpt lat="42.0185658220703" lon="2.595539697585988"><ele>196.0</ele><time>2026-04-08T11:45:32Z</time></trkpt><trkpt lat="42.01868464629341" lon="2.5954259113982636"><ele>196.0</ele><time>2026-04-08T11:45:33Z</time></trkpt><trkpt lat="42.018801602820496" lon="2.595310811261732"><ele>195.75</ele><time>2026-04-08T11:45:34Z</time></trkpt><trkpt lat="42.01891676616168" lon="2.595194394076017"><ele>195.5</ele><time>2026-04-08T11:45:35Z</time></trkpt><trkpt lat="42.01902600843229" lon="2.5950808949411055"><ele>195.25</ele><time>2026-04-08T11:45:36Z</time></trkpt><trkpt lat="42.01912830360738" lon="2.594976765647896"><ele>195.0</ele><time>2026-04-08T11:45:37Z</time></trkpt><trkpt lat="42.0192260846123" lon="2.5948988544218214"><ele>195.6</ele><time>2026-04-08T11:45:38Z</time></trkpt><trkpt lat="42.019321996731016" lon="2.5948550798055026"><ele>196.2</ele><time>2026-04-08T11:45:39Z</time></trkpt><trkpt lat="42.01941799155948" lon="2.5948377234160533"><ele>196.8</ele><time>2026-04-08T11:45:40Z</time></trkpt><trkpt lat="42.01950296011032" lon="2.594812033799119"><ele>197.4</ele><time>2026-04-08T11:45:41Z</time></trkpt><trkpt lat="42.019577372668394" lon="2.5947493939420148"><ele>198.0</ele><time>2026-04-08T11:45:42.001Z</time></trkpt><trkpt lat="42.019638179723934" lon="2.5946530331123583"><ele>198.0</ele><time>2026-04-08T11:45:43.001Z</time></trkpt><trkpt lat="42.01968624679807" lon="2.5945264032143163"><ele>198.0</ele><time>2026-04-08T11:45:44.001Z</time></trkpt><trkpt lat="42.019738578158595" lon="2.594402483239254"><ele>198.0</ele><time>2026-04-08T11:45:45.001Z</time></trkpt><trkpt lat="42.019819177936604" lon="2.594295939575973"><ele>198.0</ele><time>2026-04-08T11:45:46.001Z</time></trkpt><trkpt lat="42.01991401851629" lon="2.5942052701623632"><ele>198.0</ele><time>2026-04-08T11:45:47.001Z</time></trkpt><trkpt lat="42.020017183333515" lon="2.5941173243302846"><ele>197.5</ele><time>2026-04-08T11:45:48.001Z</time></trkpt><trkpt lat="42.020122787776224" lon="2.594020173424916"><ele>197.0</ele><time>2026-04-08T11:45:49.001Z</time></trkpt><trkpt lat="42.020229935627434" lon="2.5939167136983876"><ele>196.5</ele><time>2026-04-08T11:45:50.001Z</time></trkpt><trkpt lat="42.02034146379716" lon="2.593809239601589"><ele>196.0</ele><time>2026-04-08T11:45:51.001Z</time></trkpt><trkpt lat="42.020457107724766" lon="2.593699029211453"><ele>196.66666666666666</ele><time>2026-04-08T11:45:52.001Z</time></trkpt><trkpt lat="42.02057924385602" lon="2.5935775138304518"><ele>197.33333333333331</ele><time>2026-04-08T11:45:53.001Z</time></trkpt><trkpt lat="42.020712952512895" lon="2.5934476714988275"><ele>198.0</ele><time>2026-04-08T11:45:54.001Z</time></trkpt><trkpt lat="42.020853281942685" lon="2.5933131334448096"><ele>198.33333333333331</ele><time>2026-04-08T11:45:55.001Z</time></trkpt><trkpt lat="42.02099549835128" lon="2.5931738343605786"><ele>198.66666666666666</ele><time>2026-04-08T11:45:56.001Z</time></trkpt><trkpt lat="42.0211407829066" lon="2.593031855043446"><ele>199.0</ele><time>2026-04-08T11:45:57.001Z</time></trkpt><trkpt lat="42.02129680667143" lon="2.5928758500227738"><ele>199.0</ele><time>2026-04-08T11:45:58.001Z</time></trkpt><trkpt lat="42.02144998491911" lon="2.5927256145905933"><ele>199.0</ele><time>2026-04-08T11:45:59.001Z</time></trkpt><trkpt lat="42.021609706677374" lon="2.5925752829924575"><ele>199.0</ele><time>2026-04-08T11:46:00.001Z</time></trkpt><trkpt lat="42.02176908092424" lon="2.5924256896827025"><ele>199.0</ele><time>2026-04-08T11:46:01.001Z</time></trkpt><trkpt lat="42.02192796455003" lon="2.5922710063384167"><ele>199.0</ele><time>2026-04-08T11:46:02.001Z</time></trkpt><trkpt lat="42.02208290006976" lon="2.592117028546091"><ele>199.0</ele><time>2026-04-08T11:46:03.001Z</time></trkpt><trkpt lat="42.02223615005054" lon="2.59196472396318"><ele>199.33333333333331</ele><time>2026-04-08T11:46:04.001Z</time></trkpt><trkpt lat="42.02239085257552" lon="2.591813695009035"><ele>199.66666666666669</ele><time>2026-04-08T11:46:05.001Z</time></trkpt><trkpt lat="42.02254807313912" lon="2.5916603293844407"><ele>200.0</ele><time>2026-04-08T11:46:06.001Z</time></trkpt><trkpt lat="42.02271208296628" lon="2.5914998059388523"><ele>200.66666666666669</ele><time>2026-04-08T11:46:07.001Z</time></trkpt><trkpt lat="42.022881787602486" lon="2.591334516420203"><ele>201.33333333333331</ele><time>2026-04-08T11:46:08.001Z</time></trkpt><trkpt lat="42.0230626769073" lon="2.591163187314269"><ele>202.0</ele><time>2026-04-08T11:46:09.001Z</time></trkpt><trkpt lat="42.02325002577594" lon="2.590981797795656"><ele>204.5</ele><time>2026-04-08T11:46:10.001Z</time></trkpt><trkpt lat="42.023432815947096" lon="2.590799015852739"><ele>207.0</ele><time>2026-04-08T11:46:11.001Z</time></trkpt><trkpt lat="42.02361521967324" lon="2.590622107374017"><ele>207.0</ele><time>2026-04-08T11:46:12.001Z</time></trkpt><trkpt lat="42.02379846959796" lon="2.5904460123229827"><ele>207.0</ele><time>2026-04-08T11:46:13.001Z</time></trkpt><trkpt lat="42.02397994589797" lon="2.590268684443015"><ele>207.0</ele><time>2026-04-08T11:46:14.001Z</time></trkpt><trkpt lat="42.02415729914019" lon="2.59009255389065"><ele>207.66666666666669</ele><time>2026-04-08T11:46:15.001Z</time></trkpt><trkpt lat="42.02433535361936" lon="2.5899178535478837"><ele>208.33333333333334</ele><time>2026-04-08T11:46:16.001Z</time></trkpt><trkpt lat="42.02451728009609" lon="2.589742172749339"><ele>209.0</ele><time>2026-04-08T11:46:17.001Z</time></trkpt><trkpt lat="42.02469963788037" lon="2.5895647468500154"><ele>208.0</ele><time>2026-04-08T11:46:18.001Z</time></trkpt><trkpt lat="42.02488491002749" lon="2.589385740398276"><ele>207.0</ele><time>2026-04-08T11:46:19.001Z</time></trkpt><trkpt lat="42.02507282460183" lon="2.589202758928234"><ele>209.0</ele><time>2026-04-08T11:46:20.001Z</time></trkpt><trkpt lat="42.02526353521837" lon="2.589016600166265"><ele>211.0</ele><time>2026-04-08T11:46:21.001Z</time></trkpt><trkpt lat="42.0254580065651" lon="2.588824680410971"><ele>211.5</ele><time>2026-04-08T11:46:22.001Z</time></trkpt><trkpt lat="42.02565240452918" lon="2.588630797133189"><ele>212.0</ele><time>2026-04-08T11:46:23.001Z</time></trkpt><trkpt lat="42.02584897625437" lon="2.5884376774361315"><ele>212.0</ele><time>2026-04-08T11:46:24.001Z</time></trkpt><trkpt lat="42.02604462737589" lon="2.5882482904950486"><ele>212.0</ele><time>2026-04-08T11:46:25.001Z</time></trkpt><trkpt lat="42.02623823244648" lon="2.588062190637589"><ele>212.0</ele><time>2026-04-08T11:46:26.001Z</time></trkpt><trkpt lat="42.02643155064352" lon="2.5878765263758554"><ele>212.0</ele><time>2026-04-08T11:46:27.001Z</time></trkpt><trkpt lat="42.026625117685555" lon="2.5876889501854783"><ele>214.0</ele><time>2026-04-08T11:46:28.001Z</time></trkpt><trkpt lat="42.02681882197903" lon="2.5874994733098844"><ele>216.0</ele><time>2026-04-08T11:46:29.001Z</time></trkpt><trkpt lat="42.02701305541513" lon="2.587309261609431"><ele>216.0</ele><time>2026-04-08T11:46:30.001Z</time></trkpt><trkpt lat="42.027206184653295" lon="2.5871210072854844"><ele>216.0</ele><time>2026-04-08T11:46:31.001Z</time></trkpt><trkpt lat="42.02739805153671" lon="2.5869356711760987"><ele>216.5</ele><time>2026-04-08T11:46:32.001Z</time></trkpt><trkpt lat="42.02758606701457" lon="2.586753868757611"><ele>217.0</ele><time>2026-04-08T11:46:33.001Z</time></trkpt><trkpt lat="42.02777147594212" lon="2.5865731150167868"><ele>217.0</ele><time>2026-04-08T11:46:34.001Z</time></trkpt><trkpt lat="42.027956028367925" lon="2.5863943041248225"><ele>217.0</ele><time>2026-04-08T11:46:35.001Z</time></trkpt><trkpt lat="42.02814055455595" lon="2.5862188984500025"><ele>216.5</ele><time>2026-04-08T11:46:36.001Z</time></trkpt><trkpt lat="42.02832395894644" lon="2.586041175512467"><ele>216.0</ele><time>2026-04-08T11:46:37.001Z</time></trkpt><trkpt lat="42.028505168822605" lon="2.585864302747027"><ele>216.0</ele><time>2026-04-08T11:46:38.001Z</time></trkpt><trkpt lat="42.02868473608774" lon="2.5856894974385365"><ele>216.0</ele><time>2026-04-08T11:46:39.001Z</time></trkpt><trkpt lat="42.028862394962495" lon="2.585519379662554"><ele>216.0</ele><time>2026-04-08T11:46:40.002Z</time></trkpt><trkpt lat="42.029044822812715" lon="2.5853551960616685"><ele>216.0</ele><time>2026-04-08T11:46:41.002Z</time></trkpt><trkpt lat="42.029235050554554" lon="2.5852019200447236"><ele>216.0</ele><time>2026-04-08T11:46:42.002Z</time></trkpt><trkpt lat="42.02943294514785" lon="2.585064695522332"><ele>216.0</ele><time>2026-04-08T11:46:43.002Z</time></trkpt><trkpt lat="42.029640655813424" lon="2.584948340358815"><ele>216.0</ele><time>2026-04-08T11:46:44.002Z</time></trkpt><trkpt lat="42.02985167057995" lon="2.5848488078459524"><ele>216.0</ele><time>2026-04-08T11:46:45.002Z</time></trkpt><trkpt lat="42.03006492217146" lon="2.5847632686464257"><ele>216.0</ele><time>2026-04-08T11:46:46.002Z</time></trkpt><trkpt lat="42.030278537915855" lon="2.5846747612049628"><ele>217.5</ele><time>2026-04-08T11:46:47.002Z</time></trkpt><trkpt lat="42.03049419492558" lon="2.584577574626424"><ele>219.0</ele><time>2026-04-08T11:46:48.002Z</time></trkpt><trkpt lat="42.030707395652406" lon="2.5844653419562595"><ele>218.0</ele><time>2026-04-08T11:46:49.002Z</time></trkpt><trkpt lat="42.03092156763258" lon="2.5843330589529545"><ele>217.0</ele><time>2026-04-08T11:46:50.002Z</time></trkpt><trkpt lat="42.03113872993922" lon="2.5841862901688315"><ele>217.0</ele><time>2026-04-08T11:46:50.998Z</time></trkpt><trkpt lat="42.03135441834369" lon="2.5840206837898143"><ele>217.0</ele><time>2026-04-08T11:46:51.998Z</time></trkpt><trkpt lat="42.03156579968236" lon="2.583851421750909"><ele>219.5</ele><time>2026-04-08T11:46:52.999Z</time></trkpt><trkpt lat="42.0317757880109" lon="2.583683771583623"><ele>222.0</ele><time>2026-04-08T11:46:53.999Z</time></trkpt><trkpt lat="42.031984598834995" lon="2.5835219429767795"><ele>222.0</ele><time>2026-04-08T11:46:54.999Z</time></trkpt><trkpt lat="42.03219325512878" lon="2.583363317591796"><ele>222.0</ele><time>2026-04-08T11:46:55.999Z</time></trkpt><trkpt lat="42.03239846249201" lon="2.5832125176704595"><ele>228.5</ele><time>2026-04-08T11:46:56.999Z</time></trkpt><trkpt lat="42.03259889181899" lon="2.583056179603181"><ele>235.0</ele><time>2026-04-08T11:46:57.999Z</time></trkpt><trkpt lat="42.03279616355303" lon="2.582901994676343"><ele>228.5</ele><time>2026-04-08T11:46:58.999Z</time></trkpt><trkpt lat="42.03298922434572" lon="2.582740233275827"><ele>222.0</ele><time>2026-04-08T11:46:59.999Z</time></trkpt><trkpt lat="42.03317871397256" lon="2.5825765996682786"><ele>225.0</ele><time>2026-04-08T11:47:00.999Z</time></trkpt><trkpt lat="42.0333633933456" lon="2.582400480412259"><ele>228.0</ele><time>2026-04-08T11:47:01.999Z</time></trkpt><trkpt lat="42.03354126109352" lon="2.5822057361398363"><ele>225.5</ele><time>2026-04-08T11:47:02.999Z</time></trkpt><trkpt lat="42.033715672099355" lon="2.5819940374293555"><ele>223.0</ele><time>2026-04-08T11:47:03.999Z</time></trkpt><trkpt lat="42.033884741417175" lon="2.5817693578176995"><ele>223.0</ele><time>2026-04-08T11:47:04.999Z</time></trkpt><trkpt lat="42.034054133231805" lon="2.581535936159893"><ele>223.0</ele><time>2026-04-08T11:47:05.999Z</time></trkpt><trkpt lat="42.03421796121391" lon="2.581297556175237"><ele>224.5</ele><time>2026-04-08T11:47:06.999Z</time></trkpt><trkpt lat="42.03437369601986" lon="2.581062515922101"><ele>226.0</ele><time>2026-04-08T11:47:07.999Z</time></trkpt><trkpt lat="42.03452299357062" lon="2.5808369890236373"><ele>226.0</ele><time>2026-04-08T11:47:08.999Z</time></trkpt><trkpt lat="42.03467101174671" lon="2.580619322281306"><ele>226.0</ele><time>2026-04-08T11:47:09.999Z</time></trkpt><trkpt lat="42.03482002889063" lon="2.5804025744851176"><ele>226.0</ele><time>2026-04-08T11:47:10.999Z</time></trkpt><trkpt lat="42.0349697000496" lon="2.5801834261464394"><ele>225.0</ele><time>2026-04-08T11:47:11.999Z</time></trkpt><trkpt lat="42.035130610497035" lon="2.579968696905685"><ele>224.0</ele><time>2026-04-08T11:47:12.999Z</time></trkpt><trkpt lat="42.03530305549942" lon="2.5797601189102357"><ele>224.0</ele><time>2026-04-08T11:47:13.999Z</time></trkpt><trkpt lat="42.03548422609358" lon="2.5795596283880933"><ele>224.0</ele><time>2026-04-08T11:47:14.999Z</time></trkpt><trkpt lat="42.03566930813647" lon="2.579368616887038"><ele>226.5</ele><time>2026-04-08T11:47:15.999Z</time></trkpt><trkpt lat="42.035867297325154" lon="2.5791886585683765"><ele>229.0</ele><time>2026-04-08T11:47:16.999Z</time></trkpt><trkpt lat="42.03606607989007" lon="2.5790181052089944"><ele>229.0</ele><time>2026-04-08T11:47:17.999Z</time></trkpt><trkpt lat="42.0362533277456" lon="2.5788595509612104"><ele>229.0</ele><time>2026-04-08T11:47:19Z</time></trkpt><trkpt lat="42.036438552163546" lon="2.5787234480151664"><ele>229.0</ele><time>2026-04-08T11:47:20Z</time></trkpt><trkpt lat="42.03661378580039" lon="2.5785860829296254"><ele>227.33333333333331</ele><time>2026-04-08T11:47:21Z</time></trkpt><trkpt lat="42.03678200001545" lon="2.5784406020685138"><ele>225.66666666666669</ele><time>2026-04-08T11:47:22Z</time></trkpt><trkpt lat="42.036948247066206" lon="2.578293932387322"><ele>224.0</ele><time>2026-04-08T11:47:23Z</time></trkpt><trkpt lat="42.03711388076621" lon="2.5781384189967445"><ele>224.0</ele><time>2026-04-08T11:47:24Z</time></trkpt><trkpt lat="42.037281109896995" lon="2.5779613545047373"><ele>224.0</ele><time>2026-04-08T11:47:25Z</time></trkpt><trkpt lat="42.03745089248736" lon="2.577755862458558"><ele>224.0</ele><time>2026-04-08T11:47:26Z</time></trkpt><trkpt lat="42.03761768168135" lon="2.577517662793281"><ele>225.0</ele><time>2026-04-08T11:47:27Z</time></trkpt><trkpt lat="42.037775320224014" lon="2.5772599935078535"><ele>226.0</ele><time>2026-04-08T11:47:28Z</time></trkpt><trkpt lat="42.03791309208174" lon="2.576987013233615"><ele>226.0</ele><time>2026-04-08T11:47:29Z</time></trkpt><trkpt lat="42.03803373432603" lon="2.576701571296805"><ele>226.0</ele><time>2026-04-08T11:47:30Z</time></trkpt><trkpt lat="42.03814559441437" lon="2.5764126530010123"><ele>226.0</ele><time>2026-04-08T11:47:31Z</time></trkpt><trkpt lat="42.038251412945506" lon="2.576128757023441"><ele>226.0</ele><time>2026-04-08T11:47:32Z</time></trkpt><trkpt lat="42.038359681657" lon="2.5758479616445413"><ele>226.5</ele><time>2026-04-08T11:47:33Z</time></trkpt><trkpt lat="42.03846392611974" lon="2.575571977048008"><ele>227.0</ele><time>2026-04-08T11:47:34Z</time></trkpt><trkpt lat="42.038566051756014" lon="2.575305874005343"><ele>227.0</ele><time>2026-04-08T11:47:35Z</time></trkpt><trkpt lat="42.0386616956345" lon="2.5750510110530977"><ele>227.0</ele><time>2026-04-08T11:47:36Z</time></trkpt><trkpt lat="42.03875319468857" lon="2.5748020125470097"><ele>227.0</ele><time>2026-04-08T11:47:37Z</time></trkpt><trkpt lat="42.03883586043149" lon="2.57454229187364"><ele>227.0</ele><time>2026-04-08T11:47:38Z</time></trkpt><trkpt lat="42.03890680447771" lon="2.574273989892876"><ele>227.0</ele><time>2026-04-08T11:47:39Z</time></trkpt><trkpt lat="42.03897079918166" lon="2.573995352532314"><ele>227.0</ele><time>2026-04-08T11:47:40Z</time></trkpt><trkpt lat="42.03902625875501" lon="2.5737124716505653"><ele>227.33333333333334</ele><time>2026-04-08T11:47:41Z</time></trkpt><trkpt lat="42.039077365799265" lon="2.5734239739636804"><ele>227.66666666666669</ele><time>2026-04-08T11:47:42Z</time></trkpt><trkpt lat="42.03912337212741" lon="2.573130786567561"><ele>228.0</ele><time>2026-04-08T11:47:43Z</time></trkpt><trkpt lat="42.03916747505274" lon="2.5728362421651267"><ele>232.5</ele><time>2026-04-08T11:47:44Z</time></trkpt><trkpt lat="42.039211162309606" lon="2.5725395779961655"><ele>237.0</ele><time>2026-04-08T11:47:45Z</time></trkpt><trkpt lat="42.03925231069384" lon="2.5722406964916735"><ele>237.0</ele><time>2026-04-08T11:47:46Z</time></trkpt><trkpt lat="42.039294774776046" lon="2.571941147716378"><ele>237.0</ele><time>2026-04-08T11:47:47Z</time></trkpt><trkpt lat="42.03934134319208" lon="2.5716450556422012"><ele>237.0</ele><time>2026-04-08T11:47:48Z</time></trkpt><trkpt lat="42.039387737691484" lon="2.571353254709385"><ele>237.0</ele><time>2026-04-08T11:47:49Z</time></trkpt><trkpt lat="42.039427774104034" lon="2.5710619752247283"><ele>237.0</ele><time>2026-04-08T11:47:50Z</time></trkpt><trkpt lat="42.03946832441808" lon="2.5707762897127022"><ele>235.66666666666669</ele><time>2026-04-08T11:47:51Z</time></trkpt><trkpt lat="42.03951039165182" lon="2.5704922616767227"><ele>234.33333333333334</ele><time>2026-04-08T11:47:52Z</time></trkpt><trkpt lat="42.039550419842094" lon="2.570208526960754"><ele>233.0</ele><time>2026-04-08T11:47:53Z</time></trkpt><trkpt lat="42.039592496018074" lon="2.569924276914653"><ele>233.0</ele><time>2026-04-08T11:47:54Z</time></trkpt><trkpt lat="42.03963614261103" lon="2.5696404859502397"><ele>233.0</ele><time>2026-04-08T11:47:55Z</time></trkpt><trkpt lat="42.03967867487315" lon="2.5693528188662342"><ele>233.0</ele><time>2026-04-08T11:47:56.001Z</time></trkpt><trkpt lat="42.03972066246401" lon="2.5690647331531444"><ele>234.0</ele><time>2026-04-08T11:47:57.001Z</time></trkpt><trkpt lat="42.03975890734732" lon="2.568774869946429"><ele>235.0</ele><time>2026-04-08T11:47:58.001Z</time></trkpt><trkpt lat="42.03979879987197" lon="2.5684849296778944"><ele>236.0</ele><time>2026-04-08T11:47:59.001Z</time></trkpt><trkpt lat="42.039843524584846" lon="2.5681960276385607"><ele>237.33333333333334</ele><time>2026-04-08T11:48:00.001Z</time></trkpt><trkpt lat="42.03989052249433" lon="2.5679114723039502"><ele>238.66666666666669</ele><time>2026-04-08T11:48:01.001Z</time></trkpt><trkpt lat="42.03993668320076" lon="2.567633657882994"><ele>240.0</ele><time>2026-04-08T11:48:02.001Z</time></trkpt><trkpt lat="42.03998235242697" lon="2.567361863190086"><ele>242.33333333333331</ele><time>2026-04-08T11:48:03.001Z</time></trkpt><trkpt lat="42.04003672095297" lon="2.5670898679180847"><ele>244.66666666666666</ele><time>2026-04-08T11:48:04.001Z</time></trkpt><trkpt lat="42.04010576841289" lon="2.5668226108543344"><ele>247.0</ele><time>2026-04-08T11:48:05.001Z</time></trkpt><trkpt lat="42.04019364426714" lon="2.5665678103938228"><ele>247.0</ele><time>2026-04-08T11:48:06.001Z</time></trkpt><trkpt lat="42.04029983367958" lon="2.5663251879584084"><ele>247.0</ele><time>2026-04-08T11:48:07.001Z</time></trkpt><trkpt lat="42.040423786286446" lon="2.5660958349098864"><ele>247.0</ele><time>2026-04-08T11:48:08.001Z</time></trkpt><trkpt lat="42.04056037014503" lon="2.5658820599278003"><ele>247.0</ele><time>2026-04-08T11:48:09.001Z</time></trkpt><trkpt lat="42.040712568846814" lon="2.5656873718378286"><ele>247.0</ele><time>2026-04-08T11:48:10.001Z</time></trkpt><trkpt lat="42.0408784358723" lon="2.565514503455496"><ele>247.0</ele><time>2026-04-08T11:48:11.001Z</time></trkpt><trkpt lat="42.041056946664774" lon="2.5653619054326198"><ele>248.66666666666666</ele><time>2026-04-08T11:48:12.001Z</time></trkpt><trkpt lat="42.04124486958549" lon="2.5652265955211426"><ele>250.33333333333331</ele><time>2026-04-08T11:48:13.001Z</time></trkpt><trkpt lat="42.04144121329752" lon="2.565105085485807"><ele>252.0</ele><time>2026-04-08T11:48:14.001Z</time></trkpt><trkpt lat="42.04164098471499" lon="2.564996007494654"><ele>254.0</ele><time>2026-04-08T11:48:15.001Z</time></trkpt><trkpt lat="42.04183509698594" lon="2.5648958071710455"><ele>256.0</ele><time>2026-04-08T11:48:16.001Z</time></trkpt><trkpt lat="42.042016752698075" lon="2.5648005862386687"><ele>258.0</ele><time>2026-04-08T11:48:17.001Z</time></trkpt><trkpt lat="42.04219511336587" lon="2.5646953479715386"><ele>258.0</ele><time>2026-04-08T11:48:18.001Z</time></trkpt><trkpt lat="42.04236970142736" lon="2.564579965858342"><ele>258.0</ele><time>2026-04-08T11:48:19.001Z</time></trkpt><trkpt lat="42.04254227055813" lon="2.5644562827620088"><ele>258.0</ele><time>2026-04-08T11:48:20.001Z</time></trkpt><trkpt lat="42.04270845492697" lon="2.5643250955544286"><ele>258.6666666666667</ele><time>2026-04-08T11:48:21.001Z</time></trkpt><trkpt lat="42.04286918439156" lon="2.5641794430586096"><ele>259.33333333333337</ele><time>2026-04-08T11:48:22.001Z</time></trkpt><trkpt lat="42.04302100000731" lon="2.564023171133572"><ele>260.0</ele><time>2026-04-08T11:48:23.001Z</time></trkpt><trkpt lat="42.04315783493016" lon="2.5638672557903126"><ele>260.0</ele><time>2026-04-08T11:48:24.001Z</time></trkpt><trkpt lat="42.04328630548035" lon="2.563709709135863"><ele>260.0</ele><time>2026-04-08T11:48:25.001Z</time></trkpt><trkpt lat="42.043411423119295" lon="2.563545602366352"><ele>260.0</ele><time>2026-04-08T11:48:26.001Z</time></trkpt><trkpt lat="42.04353413269646" lon="2.563367648661518"><ele>260.33333333333337</ele><time>2026-04-08T11:48:27.001Z</time></trkpt><trkpt lat="42.04365795688548" lon="2.5631663268556584"><ele>260.6666666666667</ele><time>2026-04-08T11:48:28.001Z</time></trkpt><trkpt lat="42.04377853019327" lon="2.562947772865332"><ele>261.0</ele><time>2026-04-08T11:48:29.001Z</time></trkpt><trkpt lat="42.04389759147519" lon="2.5627014929043064"><ele>261.0</ele><time>2026-04-08T11:48:30.001Z</time></trkpt><trkpt lat="42.0440209771883" lon="2.562442082565352"><ele>261.0</ele><time>2026-04-08T11:48:31.001Z</time></trkpt><trkpt lat="42.04416096487554" lon="2.562151584759023"><ele>265.0</ele><time>2026-04-08T11:48:32.001Z</time></trkpt><trkpt lat="42.04432083710743" lon="2.5618518882977477"><ele>269.0</ele><time>2026-04-08T11:48:33.001Z</time></trkpt><trkpt lat="42.044488853740226" lon="2.56154286443593"><ele>269.0</ele><time>2026-04-08T11:48:34.001Z</time></trkpt><trkpt lat="42.04466420554885" lon="2.5612259074733035"><ele>269.0</ele><time>2026-04-08T11:48:35.001Z</time></trkpt><trkpt lat="42.04482314542533" lon="2.5609217066330316"><ele>270.0</ele><time>2026-04-08T11:48:36.001Z</time></trkpt><trkpt lat="42.044987759783396" lon="2.56059689034443"><ele>271.0</ele><time>2026-04-08T11:48:37.001Z</time></trkpt><trkpt lat="42.045148004369906" lon="2.5602763900180867"><ele>271.0</ele><time>2026-04-08T11:48:38.001Z</time></trkpt><trkpt lat="42.04530635908481" lon="2.559973893190364"><ele>271.0</ele><time>2026-04-08T11:48:39.001Z</time></trkpt><trkpt lat="42.04545192680092" lon="2.5596874800170237"><ele>270.5</ele><time>2026-04-08T11:48:40.001Z</time></trkpt><trkpt lat="42.0455908443312" lon="2.559416440364862"><ele>270.0</ele><time>2026-04-08T11:48:41.001Z</time></trkpt><trkpt lat="42.04572119172822" lon="2.5591584553754982"><ele>272.6666666666667</ele><time>2026-04-08T11:48:42.001Z</time></trkpt><trkpt lat="42.045844032014145" lon="2.5589093806662278"><ele>275.33333333333337</ele><time>2026-04-08T11:48:43.002Z</time></trkpt><trkpt lat="42.04595599867161" lon="2.5586747299223056"><ele>278.0</ele><time>2026-04-08T11:48:44.002Z</time></trkpt><trkpt lat="42.046052285283196" lon="2.5584419340888234"><ele>278.0</ele><time>2026-04-08T11:48:45.002Z</time></trkpt><trkpt lat="42.04613274419193" lon="2.5582019451359654"><ele>278.0</ele><time>2026-04-08T11:48:46.002Z</time></trkpt><trkpt lat="42.04619672385454" lon="2.557949895055367"><ele>278.0</ele><time>2026-04-08T11:48:47.002Z</time></trkpt><trkpt lat="42.04624431261114" lon="2.5576881693897544"><ele>278.33333333333337</ele><time>2026-04-08T11:48:48.002Z</time></trkpt><trkpt lat="42.046271807265484" lon="2.5574243502598826"><ele>278.6666666666667</ele><time>2026-04-08T11:48:49.002Z</time></trkpt><trkpt lat="42.04627678120481" lon="2.557158225040182"><ele>279.0</ele><time>2026-04-08T11:48:50.002Z</time></trkpt><trkpt lat="42.046262926508184" lon="2.556885523143797"><ele>280.3333333333333</ele><time>2026-04-08T11:48:51.002Z</time></trkpt><trkpt lat="42.046235457121" lon="2.5566212470303817"><ele>281.66666666666663</ele><time>2026-04-08T11:48:52.002Z</time></trkpt><trkpt lat="42.046189309259724" lon="2.5563709954008655"><ele>283.0</ele><time>2026-04-08T11:48:53.002Z</time></trkpt><trkpt lat="42.0461322771571" lon="2.5561557418509926"><ele>286.3333333333333</ele><time>2026-04-08T11:48:54.002Z</time></trkpt><trkpt lat="42.04606924600881" lon="2.5559581174657913"><ele>289.6666666666667</ele><time>2026-04-08T11:48:55.002Z</time></trkpt><trkpt lat="42.046005880926295" lon="2.5556651416309353"><ele>293.0</ele><time>2026-04-08T11:48:56.002Z</time></trkpt><trkpt lat="42.04592484665563" lon="2.555439995299398"><ele>291.0</ele><time>2026-04-08T11:48:56.999Z</time></trkpt><trkpt lat="42.04585160183987" lon="2.555212535740277"><ele>289.0</ele><time>2026-04-08T11:48:57.999Z</time></trkpt><trkpt lat="42.04578721806499" lon="2.5549948969032013"><ele>287.0</ele><time>2026-04-08T11:48:58.999Z</time></trkpt><trkpt lat="42.04573166147118" lon="2.554765763960846"><ele>287.6666666666667</ele><time>2026-04-08T11:48:59.999Z</time></trkpt><trkpt lat="42.045695162816365" lon="2.5545229900758057"><ele>288.3333333333333</ele><time>2026-04-08T11:49:00.999Z</time></trkpt><trkpt lat="42.04567448989142" lon="2.554271412916192"><ele>289.0</ele><time>2026-04-08T11:49:01.999Z</time></trkpt><trkpt lat="42.045670340020166" lon="2.554007645128871"><ele>289.0</ele><time>2026-04-08T11:49:02.999Z</time></trkpt><trkpt lat="42.045689486560974" lon="2.5537447639831004"><ele>289.0</ele><time>2026-04-08T11:49:03.999Z</time></trkpt><trkpt lat="42.0457291053749" lon="2.553484160446291"><ele>289.0</ele><time>2026-04-08T11:49:04.999Z</time></trkpt><trkpt lat="42.04577888044618" lon="2.553229412797616"><ele>291.66666666666663</ele><time>2026-04-08T11:49:05.999Z</time></trkpt><trkpt lat="42.045861619620155" lon="2.5529608902150973"><ele>294.3333333333333</ele><time>2026-04-08T11:49:06.999Z</time></trkpt><trkpt lat="42.04595567677345" lon="2.552702771395831"><ele>297.0</ele><time>2026-04-08T11:49:07.999Z</time></trkpt><trkpt lat="42.04606026803574" lon="2.5524582791064945"><ele>297.0</ele><time>2026-04-08T11:49:08.999Z</time></trkpt><trkpt lat="42.046162609927734" lon="2.5522204737389513"><ele>297.0</ele><time>2026-04-08T11:49:09.999Z</time></trkpt><trkpt lat="42.04626159564295" lon="2.551996496289395"><ele>297.0</ele><time>2026-04-08T11:49:10.999Z</time></trkpt><trkpt lat="42.046346180329614" lon="2.5517872722754014"><ele>298.0</ele><time>2026-04-08T11:49:11.999Z</time></trkpt><trkpt lat="42.04643848118012" lon="2.55158682834843"><ele>299.0</ele><time>2026-04-08T11:49:12.999Z</time></trkpt><trkpt lat="42.046543239642766" lon="2.551407692685295"><ele>300.0</ele><time>2026-04-08T11:49:13.999Z</time></trkpt><trkpt lat="42.046662824560364" lon="2.5511968406762984"><ele>302.0</ele><time>2026-04-08T11:49:14.999Z</time></trkpt><trkpt lat="42.04680452288218" lon="2.5510595456735863"><ele>304.0</ele><time>2026-04-08T11:49:15.999Z</time></trkpt><trkpt lat="42.0469548682585" lon="2.550916677916779"><ele>306.0</ele><time>2026-04-08T11:49:16.999Z</time></trkpt><trkpt lat="42.0471130721894" lon="2.550795511300523"><ele>306.0</ele><time>2026-04-08T11:49:18Z</time></trkpt><trkpt lat="42.04732487657734" lon="2.5507371752198735"><ele>306.0</ele><time>2026-04-08T11:49:19Z</time></trkpt><trkpt lat="42.04748384463937" lon="2.5506921877148576"><ele>306.0</ele><time>2026-04-08T11:49:20Z</time></trkpt><trkpt lat="42.047636725284775" lon="2.550650172768939"><ele>310.25</ele><time>2026-04-08T11:49:21Z</time></trkpt><trkpt lat="42.047787127311274" lon="2.5506169509433305"><ele>314.5</ele><time>2026-04-08T11:49:22Z</time></trkpt><trkpt lat="42.0479250855369" lon="2.5505959549592685"><ele>318.75</ele><time>2026-04-08T11:49:23Z</time></trkpt><trkpt lat="42.04804850429591" lon="2.5505887980317556"><ele>323.0</ele><time>2026-04-08T11:49:24Z</time></trkpt><trkpt lat="42.04817834183236" lon="2.5505716902134243"><ele>327.25</ele><time>2026-04-08T11:49:25Z</time></trkpt><trkpt lat="42.0483019557668" lon="2.5505436957370726"><ele>331.5</ele><time>2026-04-08T11:49:26Z</time></trkpt><trkpt lat="42.04843465015414" lon="2.5505402260139634"><ele>335.75</ele><time>2026-04-08T11:49:27Z</time></trkpt><trkpt lat="42.04856767597953" lon="2.550509194998132"><ele>340.0</ele><time>2026-04-08T11:49:28Z</time></trkpt><trkpt lat="42.04870730526955" lon="2.5504842462736277"><ele>340.0</ele><time>2026-04-08T11:49:29Z</time></trkpt><trkpt lat="42.04884870861182" lon="2.550465220933795"><ele>340.0</ele><time>2026-04-08T11:49:30Z</time></trkpt><trkpt lat="42.04898016859711" lon="2.5504556546945825"><ele>340.0</ele><time>2026-04-08T11:49:31Z</time></trkpt><trkpt lat="42.04911116874871" lon="2.550463519446383"><ele>340.0</ele><time>2026-04-08T11:49:32Z</time></trkpt><trkpt lat="42.04923769325719" lon="2.5504907895310205"><ele>340.5</ele><time>2026-04-08T11:49:33Z</time></trkpt><trkpt lat="42.049335296156585" lon="2.5505163473675614"><ele>341.0</ele><time>2026-04-08T11:49:34Z</time></trkpt><trkpt lat="42.049416984259736" lon="2.550553420117464"><ele>341.5</ele><time>2026-04-08T11:49:35Z</time></trkpt><trkpt lat="42.04950314376254" lon="2.5505539368785746"><ele>342.0</ele><time>2026-04-08T11:49:36Z</time></trkpt><trkpt lat="42.049571721253486" lon="2.5505064685368453"><ele>342.5</ele><time>2026-04-08T11:49:37Z</time></trkpt><trkpt lat="42.049640078928455" lon="2.550419957841447"><ele>343.0</ele><time>2026-04-08T11:49:38Z</time></trkpt><trkpt lat="42.049700035361965" lon="2.550301488877748"><ele>336.75</ele><time>2026-04-08T11:49:39Z</time></trkpt><trkpt lat="42.04976488802375" lon="2.550159157472922"><ele>330.5</ele><time>2026-04-08T11:49:40Z</time></trkpt><trkpt lat="42.04983066192648" lon="2.5500227003451785"><ele>324.25</ele><time>2026-04-08T11:49:41Z</time></trkpt><trkpt lat="42.04990475977946" lon="2.549882120180066"><ele>318.0</ele><time>2026-04-08T11:49:42Z</time></trkpt><trkpt lat="42.04998209615352" lon="2.549738573193892"><ele>318.0</ele><time>2026-04-08T11:49:43Z</time></trkpt><trkpt lat="42.0500617956509" lon="2.5495921056461732"><ele>318.0</ele><time>2026-04-08T11:49:44Z</time></trkpt><trkpt lat="42.05014452274481" lon="2.549440530676468"><ele>318.0</ele><time>2026-04-08T11:49:45Z</time></trkpt><trkpt lat="42.05023338559175" lon="2.549287952890051"><ele>318.0</ele><time>2026-04-08T11:49:46Z</time></trkpt><trkpt lat="42.05032040691255" lon="2.5491443221173204"><ele>318.5</ele><time>2026-04-08T11:49:47Z</time></trkpt><trkpt lat="42.05040834172016" lon="2.548997987253368"><ele>319.0</ele><time>2026-04-08T11:49:48Z</time></trkpt><trkpt lat="42.05050558274365" lon="2.548864027365032"><ele>319.5</ele><time>2026-04-08T11:49:49Z</time></trkpt><trkpt lat="42.05060186373092" lon="2.5487341556797687"><ele>320.0</ele><time>2026-04-08T11:49:50.001Z</time></trkpt><trkpt lat="42.05069884909607" lon="2.5486055473383153"><ele>324.5</ele><time>2026-04-08T11:49:51.001Z</time></trkpt><trkpt lat="42.05080097097317" lon="2.5484677475969373"><ele>329.0</ele><time>2026-04-08T11:49:52.001Z</time></trkpt><trkpt lat="42.05090327364251" lon="2.54832707525702"><ele>333.5</ele><time>2026-04-08T11:49:53.001Z</time></trkpt><trkpt lat="42.05100292197235" lon="2.5481936785437314"><ele>338.0</ele><time>2026-04-08T11:49:54.001Z</time></trkpt><trkpt lat="42.051096099874535" lon="2.548068424913735"><ele>338.0</ele><time>2026-04-08T11:49:55.001Z</time></trkpt><trkpt lat="42.05118667162098" lon="2.5479429995159046"><ele>338.0</ele><time>2026-04-08T11:49:56.001Z</time></trkpt><trkpt lat="42.05127853908157" lon="2.5478090968169047"><ele>338.0</ele><time>2026-04-08T11:49:57.001Z</time></trkpt><trkpt lat="42.051367946945774" lon="2.5476787165642287"><ele>338.0</ele><time>2026-04-08T11:49:58.001Z</time></trkpt><trkpt lat="42.05146501736749" lon="2.5475531322528693"><ele>338.0</ele><time>2026-04-08T11:49:59.001Z</time></trkpt><trkpt lat="42.05156623162098" lon="2.5474217351209596"><ele>338.0</ele><time>2026-04-08T11:50:00.001Z</time></trkpt><trkpt lat="42.05167079375942" lon="2.5472805104612912"><ele>338.0</ele><time>2026-04-08T11:50:01.001Z</time></trkpt><trkpt lat="42.05177264229242" lon="2.547145807064924"><ele>338.0</ele><time>2026-04-08T11:50:02.001Z</time></trkpt><trkpt lat="42.05187613244181" lon="2.547005645737472"><ele>338.0</ele><time>2026-04-08T11:50:03.001Z</time></trkpt><trkpt lat="42.051971808488986" lon="2.5468599583338696"><ele>338.0</ele><time>2026-04-08T11:50:04.001Z</time></trkpt><trkpt lat="42.052078702442714" lon="2.5467268050236793"><ele>338.0</ele><time>2026-04-08T11:50:05.001Z</time></trkpt><trkpt lat="42.05219220281493" lon="2.546586826508128"><ele>338.0</ele><time>2026-04-08T11:50:06.001Z</time></trkpt><trkpt lat="42.05227864602434" lon="2.5464629102194407"><ele>338.0</ele><time>2026-04-08T11:50:07.001Z</time></trkpt><trkpt lat="42.0523853931127" lon="2.546333389467506"><ele>338.0</ele><time>2026-04-08T11:50:08.001Z</time></trkpt><trkpt lat="42.05247814068278" lon="2.5462092192123595"><ele>338.0</ele><time>2026-04-08T11:50:09.001Z</time></trkpt><trkpt lat="42.052580806840744" lon="2.546056824272748"><ele>338.0</ele><time>2026-04-08T11:50:10.001Z</time></trkpt><trkpt lat="42.05267626341905" lon="2.5459263210679484"><ele>338.75</ele><time>2026-04-08T11:50:11.001Z</time></trkpt><trkpt lat="42.052772519332" lon="2.5457992535079437"><ele>339.5</ele><time>2026-04-08T11:50:12.001Z</time></trkpt><trkpt lat="42.05287513589807" lon="2.54567088632206"><ele>340.25</ele><time>2026-04-08T11:50:13.001Z</time></trkpt><trkpt lat="42.052968973896434" lon="2.545540416458686"><ele>341.0</ele><time>2026-04-08T11:50:14.001Z</time></trkpt><trkpt lat="42.0530603791131" lon="2.5453997752352615"><ele>340.75</ele><time>2026-04-08T11:50:15.001Z</time></trkpt><trkpt lat="42.05315179100126" lon="2.5452772986355114"><ele>340.5</ele><time>2026-04-08T11:50:16.001Z</time></trkpt><trkpt lat="42.05324276347338" lon="2.545155373684721"><ele>340.25</ele><time>2026-04-08T11:50:17.001Z</time></trkpt><trkpt lat="42.05334968982276" lon="2.5450119338658004"><ele>340.0</ele><time>2026-04-08T11:50:18.001Z</time></trkpt><trkpt lat="42.05342632265313" lon="2.5449001230422805"><ele>340.5</ele><time>2026-04-08T11:50:19.001Z</time></trkpt><trkpt lat="42.053518843601495" lon="2.544771724354176"><ele>341.0</ele><time>2026-04-08T11:50:20.001Z</time></trkpt><trkpt lat="42.05362115101147" lon="2.5446382509725645"><ele>341.5</ele><time>2026-04-08T11:50:21.001Z</time></trkpt><trkpt lat="42.05372018370007" lon="2.5445039853467453"><ele>342.0</ele><time>2026-04-08T11:50:22.001Z</time></trkpt><trkpt lat="42.05381480448579" lon="2.544374294449365"><ele>342.0</ele><time>2026-04-08T11:50:23.001Z</time></trkpt><trkpt lat="42.05390607507779" lon="2.544252764348192"><ele>342.0</ele><time>2026-04-08T11:50:24.001Z</time></trkpt><trkpt lat="42.05398474301132" lon="2.5441317692894563"><ele>342.0</ele><time>2026-04-08T11:50:25.001Z</time></trkpt><trkpt lat="42.05405322125109" lon="2.544029048923943"><ele>342.0</ele><time>2026-04-08T11:50:26.001Z</time></trkpt><trkpt lat="42.05412118492781" lon="2.543942522576425"><ele>342.0</ele><time>2026-04-08T11:50:27.001Z</time></trkpt><trkpt lat="42.05422993530987" lon="2.5438962977565422"><ele>342.6</ele><time>2026-04-08T11:50:29.001Z</time></trkpt><trkpt lat="42.05428283905092" lon="2.5439893506266618"><ele>343.20000000000005</ele><time>2026-04-08T11:50:31.002Z</time></trkpt><trkpt lat="42.05430915094148" lon="2.5440894376565146"><ele>343.8</ele><time>2026-04-08T11:50:32.002Z</time></trkpt><trkpt lat="42.054347355868245" lon="2.5442124772494834"><ele>344.4</ele><time>2026-04-08T11:50:33.002Z</time></trkpt><trkpt lat="42.054390444213226" lon="2.5443497255435936"><ele>345.0</ele><time>2026-04-08T11:50:34.002Z</time></trkpt><trkpt lat="42.05444583636005" lon="2.544524741874791"><ele>344.3333333333333</ele><time>2026-04-08T11:50:35.002Z</time></trkpt><trkpt lat="42.0545033158675" lon="2.544704972036922"><ele>343.66666666666663</ele><time>2026-04-08T11:50:36.002Z</time></trkpt><trkpt lat="42.05456386998735" lon="2.5448973709840894"><ele>343.0</ele><time>2026-04-08T11:50:37.002Z</time></trkpt><trkpt lat="42.0546260907076" lon="2.5450952280794503"><ele>343.0</ele><time>2026-04-08T11:50:38.002Z</time></trkpt><trkpt lat="42.054686438028895" lon="2.54528712789854"><ele>343.0</ele><time>2026-04-08T11:50:39.002Z</time></trkpt><trkpt lat="42.05475030734197" lon="2.5454902273904065"><ele>343.0</ele><time>2026-04-08T11:50:40.002Z</time></trkpt><trkpt lat="42.05480583505714" lon="2.5456993686316105"><ele>343.3333333333333</ele><time>2026-04-08T11:50:41.002Z</time></trkpt><trkpt lat="42.054872440669136" lon="2.5458790268355105"><ele>343.6666666666667</ele><time>2026-04-08T11:50:42.002Z</time></trkpt><trkpt lat="42.05495675599139" lon="2.54609122518517"><ele>344.0</ele><time>2026-04-08T11:50:43.002Z</time></trkpt><trkpt lat="42.05499758071717" lon="2.546277461818127"><ele>344.33333333333337</ele><time>2026-04-08T11:50:44.002Z</time></trkpt><trkpt lat="42.05504890830916" lon="2.5464405289318948"><ele>344.6666666666667</ele><time>2026-04-08T11:50:45.002Z</time></trkpt><trkpt lat="42.05512897710795" lon="2.5466380369595734"><ele>345.0</ele><time>2026-04-08T11:50:46.002Z</time></trkpt><trkpt lat="42.055193035075725" lon="2.5468427899910475"><ele>344.3333333333333</ele><time>2026-04-08T11:50:47.002Z</time></trkpt><trkpt lat="42.05525674574843" lon="2.547045843201102"><ele>343.66666666666663</ele><time>2026-04-08T11:50:48.002Z</time></trkpt><trkpt lat="42.05530548598207" lon="2.5472557231193296"><ele>343.0</ele><time>2026-04-08T11:50:49.002Z</time></trkpt><trkpt lat="42.05538060448364" lon="2.547439605106705"><ele>343.0</ele><time>2026-04-08T11:50:50.002Z</time></trkpt><trkpt lat="42.05543598362015" lon="2.547631581757003"><ele>343.0</ele><time>2026-04-08T11:50:51.002Z</time></trkpt><trkpt lat="42.05549989188203" lon="2.5478224563531024"><ele>343.0</ele><time>2026-04-08T11:50:52.002Z</time></trkpt><trkpt lat="42.055549653045624" lon="2.5480308721955205"><ele>342.3333333333333</ele><time>2026-04-08T11:50:53.002Z</time></trkpt><trkpt lat="42.05561305706618" lon="2.54823215047447"><ele>341.6666666666667</ele><time>2026-04-08T11:50:54.002Z</time></trkpt><trkpt lat="42.05567593053258" lon="2.548433603662356"><ele>341.0</ele><time>2026-04-08T11:50:55.002Z</time></trkpt><trkpt lat="42.05574217652505" lon="2.5486460464437184"><ele>337.6666666666667</ele><time>2026-04-08T11:50:56.002Z</time></trkpt><trkpt lat="42.05580881865356" lon="2.548858790138714"><ele>334.3333333333333</ele><time>2026-04-08T11:50:57.002Z</time></trkpt><trkpt lat="42.055882390171035" lon="2.5490853302569945"><ele>331.0</ele><time>2026-04-08T11:50:58.002Z</time></trkpt><trkpt lat="42.055968037777774" lon="2.549312982194694"><ele>331.0</ele><time>2026-04-08T11:50:59.002Z</time></trkpt><trkpt lat="42.056013673025156" lon="2.549517259302262"><ele>331.0</ele><time>2026-04-08T11:51:00.002Z</time></trkpt><trkpt lat="42.056074818724404" lon="2.5497101066681336"><ele>331.0</ele><time>2026-04-08T11:51:01.002Z</time></trkpt><trkpt lat="42.05613131303391" lon="2.54988612562743"><ele>331.25</ele><time>2026-04-08T11:51:02.002Z</time></trkpt><trkpt lat="42.056174977203355" lon="2.5500357140972056"><ele>331.5</ele><time>2026-04-08T11:51:03Z</time></trkpt><trkpt lat="42.05619912172609" lon="2.5502351099467497"><ele>331.75</ele><time>2026-04-08T11:51:04Z</time></trkpt><trkpt lat="42.05621052074813" lon="2.5504348195722613"><ele>332.0</ele><time>2026-04-08T11:51:05Z</time></trkpt><trkpt lat="42.05621287166393" lon="2.5506612860705893"><ele>331.33333333333337</ele><time>2026-04-08T11:51:06Z</time></trkpt><trkpt lat="42.05621332988638" lon="2.550934754001151"><ele>330.6666666666667</ele><time>2026-04-08T11:51:07Z</time></trkpt><trkpt lat="42.0562145966838" lon="2.551212157585172"><ele>330.0</ele><time>2026-04-08T11:51:08Z</time></trkpt><trkpt lat="42.05621740584045" lon="2.55147495456872"><ele>329.0</ele><time>2026-04-08T11:51:09Z</time></trkpt><trkpt lat="42.05622076959304" lon="2.551753707057539"><ele>328.0</ele><time>2026-04-08T11:51:10Z</time></trkpt><trkpt lat="42.056224377021465" lon="2.552049673041708"><ele>327.0</ele><time>2026-04-08T11:51:11Z</time></trkpt><trkpt lat="42.05622668314181" lon="2.552329490876892"><ele>326.6666666666667</ele><time>2026-04-08T11:51:12Z</time></trkpt><trkpt lat="42.05622894095781" lon="2.552610498587095"><ele>326.33333333333337</ele><time>2026-04-08T11:51:13Z</time></trkpt><trkpt lat="42.056231386762235" lon="2.5528821278667304"><ele>326.0</ele><time>2026-04-08T11:51:14Z</time></trkpt><trkpt lat="42.05623438063676" lon="2.553126005120283"><ele>326.6666666666667</ele><time>2026-04-08T11:51:15Z</time></trkpt><trkpt lat="42.056236870162216" lon="2.5533449156254684"><ele>327.3333333333333</ele><time>2026-04-08T11:51:16Z</time></trkpt><trkpt lat="42.056238545345344" lon="2.553547824386251"><ele>328.0</ele><time>2026-04-08T11:51:17Z</time></trkpt><trkpt lat="42.05623774285143" lon="2.553753904964224"><ele>330.0</ele><time>2026-04-08T11:51:18Z</time></trkpt><trkpt lat="42.05624251958007" lon="2.55394339131227"><ele>332.0</ele><time>2026-04-08T11:51:19Z</time></trkpt><trkpt lat="42.05625788341041" lon="2.554107339303338"><ele>334.0</ele><time>2026-04-08T11:51:20Z</time></trkpt><trkpt lat="42.056292856253584" lon="2.554248339045576"><ele>336.0</ele><time>2026-04-08T11:51:21Z</time></trkpt><trkpt lat="42.05636241240561" lon="2.5543536487956175"><ele>336.0</ele><time>2026-04-08T11:51:22Z</time></trkpt><trkpt lat="42.05644366823701" lon="2.554428146243121"><ele>336.0</ele><time>2026-04-08T11:51:23Z</time></trkpt><trkpt lat="42.05654789361893" lon="2.554453491004192"><ele>336.0</ele><time>2026-04-08T11:51:24Z</time></trkpt><trkpt lat="42.056670936187835" lon="2.5543601321747302"><ele>336.0</ele><time>2026-04-08T11:51:25Z</time></trkpt><trkpt lat="42.056792448025305" lon="2.5542800642326937"><ele>334.75</ele><time>2026-04-08T11:51:26Z</time></trkpt><trkpt lat="42.056929356989926" lon="2.554272034852257"><ele>333.5</ele><time>2026-04-08T11:51:27Z</time></trkpt><trkpt lat="42.05700313471775" lon="2.554309374594042"><ele>332.25</ele><time>2026-04-08T11:51:28Z</time></trkpt><trkpt lat="42.0570773619722" lon="2.5544046559608695"><ele>331.0</ele><time>2026-04-08T11:51:29Z</time></trkpt><trkpt lat="42.057192894393204" lon="2.554520431185191"><ele>332.3333333333333</ele><time>2026-04-08T11:51:30Z</time></trkpt><trkpt lat="42.05733570618745" lon="2.5546498854426942"><ele>333.6666666666667</ele><time>2026-04-08T11:51:31Z</time></trkpt><trkpt lat="42.05748928511274" lon="2.5548046675311356"><ele>335.0</ele><time>2026-04-08T11:51:32Z</time></trkpt><trkpt lat="42.05762195507041" lon="2.554957231686681"><ele>335.6666666666667</ele><time>2026-04-08T11:51:33Z</time></trkpt><trkpt lat="42.05775818092812" lon="2.555100292548193"><ele>336.3333333333333</ele><time>2026-04-08T11:51:34Z</time></trkpt><trkpt lat="42.05788749971329" lon="2.555227241558539"><ele>337.0</ele><time>2026-04-08T11:51:35Z</time></trkpt><trkpt lat="42.057980983840075" lon="2.5553354189183746"><ele>337.0</ele><time>2026-04-08T11:51:36Z</time></trkpt><trkpt lat="42.05808116721408" lon="2.5553923734624213"><ele>337.0</ele><time>2026-04-08T11:51:37Z</time></trkpt><trkpt lat="42.05819591205731" lon="2.555395397860452"><ele>337.0</ele><time>2026-04-08T11:51:38Z</time></trkpt><trkpt lat="42.05832738341961" lon="2.555349970592877"><ele>337.0</ele><time>2026-04-08T11:51:39Z</time></trkpt><trkpt lat="42.05848140932376" lon="2.555279937050331"><ele>337.0</ele><time>2026-04-08T11:51:40Z</time></trkpt><trkpt lat="42.05864547317715" lon="2.5552071575378448"><ele>337.0</ele><time>2026-04-08T11:51:41Z</time></trkpt><trkpt lat="42.05879357726303" lon="2.5551437301977273"><ele>337.0</ele><time>2026-04-08T11:51:42.001Z</time></trkpt><trkpt lat="42.05892844321254" lon="2.5551014382918464"><ele>337.0</ele><time>2026-04-08T11:51:43.001Z</time></trkpt><trkpt lat="42.059052134293324" lon="2.5550958007376847"><ele>337.0</ele><time>2026-04-08T11:51:44.001Z</time></trkpt><trkpt lat="42.05917243508542" lon="2.5551317846190154"><ele>337.0</ele><time>2026-04-08T11:51:45.001Z</time></trkpt><trkpt lat="42.05928851713653" lon="2.555212338833113"><ele>337.0</ele><time>2026-04-08T11:51:46.001Z</time></trkpt><trkpt lat="42.05937019958348" lon="2.5553624894086098"><ele>339.75</ele><time>2026-04-08T11:51:47.001Z</time></trkpt><trkpt lat="42.059438944122796" lon="2.555521619335013"><ele>342.5</ele><time>2026-04-08T11:51:48.001Z</time></trkpt><trkpt lat="42.0594687360769" lon="2.5557016933051853"><ele>345.25</ele><time>2026-04-08T11:51:49.001Z</time></trkpt><trkpt lat="42.05947004539799" lon="2.5558792111792132"><ele>348.0</ele><time>2026-04-08T11:51:50.001Z</time></trkpt><trkpt lat="42.05948474180547" lon="2.5560527086019302"><ele>348.0</ele><time>2026-04-08T11:51:51.001Z</time></trkpt><trkpt lat="42.05954340241539" lon="2.5561937566813864"><ele>348.0</ele><time>2026-04-08T11:51:52.001Z</time></trkpt><trkpt lat="42.059631896455464" lon="2.556330673031715"><ele>348.0</ele><time>2026-04-08T11:51:53.001Z</time></trkpt><trkpt lat="42.059752966959906" lon="2.5564651717193456"><ele>348.0</ele><time>2026-04-08T11:51:54.001Z</time></trkpt><trkpt lat="42.05988593430777" lon="2.556605062382468"><ele>351.6666666666667</ele><time>2026-04-08T11:51:55.001Z</time></trkpt><trkpt lat="42.05999866339537" lon="2.55673127715439"><ele>355.33333333333337</ele><time>2026-04-08T11:51:56.001Z</time></trkpt><trkpt lat="42.06013054109763" lon="2.5568082392379985"><ele>359.0</ele><time>2026-04-08T11:51:57.001Z</time></trkpt><trkpt lat="42.06028909114423" lon="2.556839970363666"><ele>359.0</ele><time>2026-04-08T11:51:58.001Z</time></trkpt><trkpt lat="42.06044718712872" lon="2.556848111006057"><ele>359.0</ele><time>2026-04-08T11:51:59.001Z</time></trkpt><trkpt lat="42.06059361657345" lon="2.5568959935453974"><ele>359.0</ele><time>2026-04-08T11:52:00.001Z</time></trkpt><trkpt lat="42.060724568596505" lon="2.556982517080064"><ele>362.33333333333337</ele><time>2026-04-08T11:52:01.001Z</time></trkpt><trkpt lat="42.06088028688879" lon="2.557136288447844"><ele>365.6666666666667</ele><time>2026-04-08T11:52:02.001Z</time></trkpt><trkpt lat="42.0610469976313" lon="2.5573002890286594"><ele>369.0</ele><time>2026-04-08T11:52:03.001Z</time></trkpt><trkpt lat="42.06120270631426" lon="2.557468237186199"><ele>369.0</ele><time>2026-04-08T11:52:04.001Z</time></trkpt><trkpt lat="42.061338879953674" lon="2.557633840980051"><ele>369.0</ele><time>2026-04-08T11:52:05.001Z</time></trkpt><trkpt lat="42.06145327366109" lon="2.557782419406009"><ele>369.0</ele><time>2026-04-08T11:52:06.001Z</time></trkpt><trkpt lat="42.06154905352768" lon="2.557907556863596"><ele>368.75</ele><time>2026-04-08T11:52:07.001Z</time></trkpt><trkpt lat="42.06161609461331" lon="2.558023765629547"><ele>368.5</ele><time>2026-04-08T11:52:08.001Z</time></trkpt><trkpt lat="42.06165602089312" lon="2.558155575777548"><ele>368.25</ele><time>2026-04-08T11:52:09.001Z</time></trkpt><trkpt lat="42.06164863416716" lon="2.5583181210350956"><ele>368.0</ele><time>2026-04-08T11:52:10.001Z</time></trkpt><trkpt lat="42.06165533848705" lon="2.558521667882851"><ele>371.6666666666667</ele><time>2026-04-08T11:52:11.001Z</time></trkpt><trkpt lat="42.06165496825616" lon="2.5587578051971445"><ele>375.3333333333333</ele><time>2026-04-08T11:52:12.001Z</time></trkpt><trkpt lat="42.061672727810155" lon="2.5589863550545364"><ele>379.0</ele><time>2026-04-08T11:52:13.001Z</time></trkpt><trkpt lat="42.0616715273347" lon="2.559183920967216"><ele>379.0</ele><time>2026-04-08T11:52:14.001Z</time></trkpt><trkpt lat="42.061702975378665" lon="2.5593517393871035"><ele>379.0</ele><time>2026-04-08T11:52:15.001Z</time></trkpt><trkpt lat="42.061768475787524" lon="2.5595087053678496"><ele>379.0</ele><time>2026-04-08T11:52:16.001Z</time></trkpt><trkpt lat="42.06182255070225" lon="2.5596320955794543"><ele>379.0</ele><time>2026-04-08T11:52:17.001Z</time></trkpt><trkpt lat="42.06189040363082" lon="2.5597129776789083"><ele>379.0</ele><time>2026-04-08T11:52:18.001Z</time></trkpt><trkpt lat="42.06197562200946" lon="2.5597387629996664"><ele>379.0</ele><time>2026-04-08T11:52:19.001Z</time></trkpt><trkpt lat="42.06206065041655" lon="2.559715054139772"><ele>379.0</ele><time>2026-04-08T11:52:20.001Z</time></trkpt><trkpt lat="42.06215149709196" lon="2.5596383314140794"><ele>379.0</ele><time>2026-04-08T11:52:21.001Z</time></trkpt><trkpt lat="42.06223606653178" lon="2.559487389534892"><ele>379.0</ele><time>2026-04-08T11:52:22.002Z</time></trkpt><trkpt lat="42.062330885685114" lon="2.559304678016215"><ele>379.0</ele><time>2026-04-08T11:52:23.002Z</time></trkpt><trkpt lat="42.06244382122117" lon="2.559098375421881"><ele>379.0</ele><time>2026-04-08T11:52:24.002Z</time></trkpt><trkpt lat="42.06255916237115" lon="2.558894847737532"><ele>379.0</ele><time>2026-04-08T11:52:25.002Z</time></trkpt><trkpt lat="42.06265454375331" lon="2.558723853423258"><ele>376.4</ele><time>2026-04-08T11:52:26.002Z</time></trkpt><trkpt lat="42.06272616837529" lon="2.5585692681295065"><ele>373.79999999999995</ele><time>2026-04-08T11:52:27.002Z</time></trkpt><trkpt lat="42.0627884439187" lon="2.55846152169943"><ele>371.20000000000005</ele><time>2026-04-08T11:52:28.002Z</time></trkpt><trkpt lat="42.06287283349436" lon="2.5584029323887307"><ele>368.6</ele><time>2026-04-08T11:52:29.002Z</time></trkpt><trkpt lat="42.06296651036078" lon="2.5583886593434206"><ele>366.0</ele><time>2026-04-08T11:52:30.002Z</time></trkpt><trkpt lat="42.063057852725684" lon="2.5584265950208875"><ele>366.0</ele><time>2026-04-08T11:52:31.002Z</time></trkpt><trkpt lat="42.06313821689172" lon="2.558518813196493"><ele>366.0</ele><time>2026-04-08T11:52:32.002Z</time></trkpt><trkpt lat="42.063196577815205" lon="2.5586424256996017"><ele>366.0</ele><time>2026-04-08T11:52:33.002Z</time></trkpt><trkpt lat="42.06325605567724" lon="2.558798185347407"><ele>366.0</ele><time>2026-04-08T11:52:34.002Z</time></trkpt><trkpt lat="42.06332784866142" lon="2.5590064941262094"><ele>370.0</ele><time>2026-04-08T11:52:35.002Z</time></trkpt><trkpt lat="42.063364087379725" lon="2.5592416676347836"><ele>374.0</ele><time>2026-04-08T11:52:36.002Z</time></trkpt><trkpt lat="42.063390781851986" lon="2.559462338078361"><ele>378.0</ele><time>2026-04-08T11:52:37.002Z</time></trkpt><trkpt lat="42.063409402983616" lon="2.559703203645129"><ele>381.0</ele><time>2026-04-08T11:52:38.002Z</time></trkpt><trkpt lat="42.06341354039667" lon="2.5599467781763012"><ele>384.0</ele><time>2026-04-08T11:52:39.002Z</time></trkpt><trkpt lat="42.063406041567035" lon="2.560185869989375"><ele>387.0</ele><time>2026-04-08T11:52:40.002Z</time></trkpt><trkpt lat="42.0633809309718" lon="2.5603859711069425"><ele>387.0</ele><time>2026-04-08T11:52:41.002Z</time></trkpt><trkpt lat="42.06334546430577" lon="2.560549853012818"><ele>387.0</ele><time>2026-04-08T11:52:42.002Z</time></trkpt><trkpt lat="42.06328603043458" lon="2.560686056666887"><ele>387.0</ele><time>2026-04-08T11:52:43.002Z</time></trkpt><trkpt lat="42.06319781195091" lon="2.5608139757604054"><ele>387.0</ele><time>2026-04-08T11:52:44.002Z</time></trkpt><trkpt lat="42.0630742285246" lon="2.5609698654582433"><ele>391.25</ele><time>2026-04-08T11:52:45.002Z</time></trkpt><trkpt lat="42.06297537766068" lon="2.561142560106603"><ele>395.5</ele><time>2026-04-08T11:52:46.002Z</time></trkpt><trkpt lat="42.062883690477214" lon="2.5612848771280086"><ele>399.75</ele><time>2026-04-08T11:52:47.002Z</time></trkpt><trkpt lat="42.062822486079995" lon="2.5614413338069513"><ele>404.0</ele><time>2026-04-08T11:52:48.002Z</time></trkpt><trkpt lat="42.06279104767604" lon="2.5615927697780996"><ele>404.4</ele><time>2026-04-08T11:52:49.002Z</time></trkpt><trkpt lat="42.0627634583811" lon="2.56172546332308"><ele>404.79999999999995</ele><time>2026-04-08T11:52:50.002Z</time></trkpt><trkpt lat="42.06278855438492" lon="2.5618511342513877"><ele>405.20000000000005</ele><time>2026-04-08T11:52:51.002Z</time></trkpt><trkpt lat="42.062886017741064" lon="2.561927822822055"><ele>405.6</ele><time>2026-04-08T11:52:52.002Z</time></trkpt><trkpt lat="42.06298973144327" lon="2.5619895124482777"><ele>406.0</ele><time>2026-04-08T11:52:53.002Z</time></trkpt><trkpt lat="42.06308836673113" lon="2.562073739535243"><ele>408.0</ele><time>2026-04-08T11:52:54.002Z</time></trkpt><trkpt lat="42.06314712473644" lon="2.5621913664254015"><ele>410.0</ele><time>2026-04-08T11:52:55.002Z</time></trkpt><trkpt lat="42.063166626459186" lon="2.562341958660462"><ele>412.0</ele><time>2026-04-08T11:52:56.002Z</time></trkpt><trkpt lat="42.06315681233453" lon="2.5625251167227967"><ele>414.0</ele><time>2026-04-08T11:52:57.002Z</time></trkpt><trkpt lat="42.063092056273085" lon="2.5627442871499913"><ele>415.66666666666663</ele><time>2026-04-08T11:52:58.002Z</time></trkpt><trkpt lat="42.063080370452376" lon="2.5629975028149317"><ele>417.3333333333333</ele><time>2026-04-08T11:52:59.002Z</time></trkpt><trkpt lat="42.063071185520435" lon="2.5632502715421492"><ele>419.0</ele><time>2026-04-08T11:53:00.002Z</time></trkpt><trkpt lat="42.06306156035755" lon="2.5635122451488286"><ele>420.3333333333333</ele><time>2026-04-08T11:53:01.002Z</time></trkpt><trkpt lat="42.06305481908379" lon="2.5637869667792796"><ele>421.66666666666663</ele><time>2026-04-08T11:53:02.002Z</time></trkpt><trkpt lat="42.063051039650524" lon="2.5640514014124602"><ele>423.0</ele><time>2026-04-08T11:53:03.003Z</time></trkpt><trkpt lat="42.0630538628767" lon="2.5643073757585677"><ele>424.33333333333337</ele><time>2026-04-08T11:53:04.003Z</time></trkpt><trkpt lat="42.06305594554979" lon="2.5645542765271667"><ele>425.6666666666667</ele><time>2026-04-08T11:53:05.003Z</time></trkpt><trkpt lat="42.06304449791192" lon="2.564800516732077"><ele>427.0</ele><time>2026-04-08T11:53:06.003Z</time></trkpt><trkpt lat="42.06302330849045" lon="2.56508794932668"><ele>425.33333333333337</ele><time>2026-04-08T11:53:07.003Z</time></trkpt><trkpt lat="42.062994424059426" lon="2.565375686018064"><ele>423.66666666666663</ele><time>2026-04-08T11:53:08.003Z</time></trkpt><trkpt lat="42.062968708462016" lon="2.565628815432367"><ele>422.0</ele><time>2026-04-08T11:53:09.001Z</time></trkpt><trkpt lat="42.062942795433926" lon="2.565843586435187"><ele>422.0</ele><time>2026-04-08T11:53:10.001Z</time></trkpt><trkpt lat="42.06290364987984" lon="2.5660217740968347"><ele>422.0</ele><time>2026-04-08T11:53:11.001Z</time></trkpt><trkpt lat="42.06284701168077" lon="2.5661972181589925"><ele>422.0</ele><time>2026-04-08T11:53:12.001Z</time></trkpt><trkpt lat="42.06277053532092" lon="2.5663930849991115"><ele>422.0</ele><time>2026-04-08T11:53:13.001Z</time></trkpt><trkpt lat="42.062698517114214" lon="2.566614637003327"><ele>420.3333333333333</ele><time>2026-04-08T11:53:14.001Z</time></trkpt><trkpt lat="42.062613458689114" lon="2.566801014522506"><ele>418.66666666666663</ele><time>2026-04-08T11:53:15.001Z</time></trkpt><trkpt lat="42.06255299921471" lon="2.567036711112279"><ele>417.0</ele><time>2026-04-08T11:53:16.001Z</time></trkpt><trkpt lat="42.062508835801296" lon="2.5672767380975943"><ele>416.25</ele><time>2026-04-08T11:53:17.001Z</time></trkpt><trkpt lat="42.06248138369165" lon="2.5674774251187755"><ele>415.5</ele><time>2026-04-08T11:53:18.001Z</time></trkpt><trkpt lat="42.06246531835232" lon="2.5676668261843134"><ele>414.75</ele><time>2026-04-08T11:53:19.001Z</time></trkpt><trkpt lat="42.06247872969244" lon="2.5678652766447088"><ele>414.0</ele><time>2026-04-08T11:53:20.001Z</time></trkpt><trkpt lat="42.06251909017458" lon="2.5680620756934642"><ele>413.66666666666663</ele><time>2026-04-08T11:53:21.001Z</time></trkpt><trkpt lat="42.062619271382715" lon="2.5682349046474697"><ele>413.3333333333333</ele><time>2026-04-08T11:53:22.001Z</time></trkpt><trkpt lat="42.06270018562106" lon="2.5683860271668273"><ele>413.0</ele><time>2026-04-08T11:53:23.001Z</time></trkpt><trkpt lat="42.0627591747373" lon="2.568570042484875"><ele>413.0</ele><time>2026-04-08T11:53:24.001Z</time></trkpt><trkpt lat="42.06275122660274" lon="2.568791193723199"><ele>413.0</ele><time>2026-04-08T11:53:25.001Z</time></trkpt><trkpt lat="42.06275234926578" lon="2.5690362166843808"><ele>413.0</ele><time>2026-04-08T11:53:26.001Z</time></trkpt><trkpt lat="42.06275338207551" lon="2.5692638477363197"><ele>413.0</ele><time>2026-04-08T11:53:27.001Z</time></trkpt><trkpt lat="42.062781916213105" lon="2.569491750632556"><ele>413.0</ele><time>2026-04-08T11:53:28.001Z</time></trkpt><trkpt lat="42.062783119067554" lon="2.5697102613524723"><ele>413.0</ele><time>2026-04-08T11:53:29.001Z</time></trkpt><trkpt lat="42.06279675268204" lon="2.5699116457165387"><ele>414.3333333333333</ele><time>2026-04-08T11:53:30.001Z</time></trkpt><trkpt lat="42.06284178602864" lon="2.5700821862964776"><ele>415.66666666666663</ele><time>2026-04-08T11:53:31.001Z</time></trkpt><trkpt lat="42.06290818874317" lon="2.570263362514442"><ele>417.0</ele><time>2026-04-08T11:53:32.001Z</time></trkpt><trkpt lat="42.063022753388225" lon="2.570433391590094"><ele>418.33333333333337</ele><time>2026-04-08T11:53:33.001Z</time></trkpt><trkpt lat="42.0631582821637" lon="2.5706292896077865"><ele>419.6666666666667</ele><time>2026-04-08T11:53:34.001Z</time></trkpt><trkpt lat="42.06329761312195" lon="2.5708388231778163"><ele>421.0</ele><time>2026-04-08T11:53:35.001Z</time></trkpt><trkpt lat="42.06342678341029" lon="2.571032443777247"><ele>420.0</ele><time>2026-04-08T11:53:36.001Z</time></trkpt><trkpt lat="42.06356711124486" lon="2.571242924669561"><ele>419.0</ele><time>2026-04-08T11:53:37.001Z</time></trkpt><trkpt lat="42.063697892420265" lon="2.571438225298598"><ele>418.0</ele><time>2026-04-08T11:53:38.001Z</time></trkpt><trkpt lat="42.063834597519154" lon="2.5715852719739973"><ele>418.0</ele><time>2026-04-08T11:53:39.001Z</time></trkpt><trkpt lat="42.063979176035375" lon="2.5717196415421952"><ele>418.0</ele><time>2026-04-08T11:53:40.001Z</time></trkpt><trkpt lat="42.06410688036187" lon="2.5718398715850137"><ele>418.0</ele><time>2026-04-08T11:53:41.001Z</time></trkpt><trkpt lat="42.06421539805052" lon="2.57196891949491"><ele>419.5</ele><time>2026-04-08T11:53:42.001Z</time></trkpt><trkpt lat="42.064283972079664" lon="2.5721153310233915"><ele>421.0</ele><time>2026-04-08T11:53:43.001Z</time></trkpt><trkpt lat="42.06429865369929" lon="2.572277482742714"><ele>422.5</ele><time>2026-04-08T11:53:44.001Z</time></trkpt><trkpt lat="42.064319703719306" lon="2.572465105158204"><ele>424.0</ele><time>2026-04-08T11:53:45.001Z</time></trkpt><trkpt lat="42.064363703519085" lon="2.572650046134783"><ele>424.0</ele><time>2026-04-08T11:53:46.001Z</time></trkpt><trkpt lat="42.06442189142924" lon="2.5727953322835018"><ele>424.0</ele><time>2026-04-08T11:53:47.001Z</time></trkpt><trkpt lat="42.06450792634771" lon="2.572902986589166"><ele>424.0</ele><time>2026-04-08T11:53:48.001Z</time></trkpt><trkpt lat="42.06461979637354" lon="2.5729617788273402"><ele>424.0</ele><time>2026-04-08T11:53:49.001Z</time></trkpt><trkpt lat="42.0647585301124" lon="2.572996171182942"><ele>423.33333333333337</ele><time>2026-04-08T11:53:50.001Z</time></trkpt><trkpt lat="42.06491560125234" lon="2.5730452715189793"><ele>422.66666666666663</ele><time>2026-04-08T11:53:51.001Z</time></trkpt><trkpt lat="42.065061943307896" lon="2.5731052778816643"><ele>422.0</ele><time>2026-04-08T11:53:52.001Z</time></trkpt><trkpt lat="42.0651846167283" lon="2.5731931292206696"><ele>422.66666666666663</ele><time>2026-04-08T11:53:53.001Z</time></trkpt><trkpt lat="42.065291421166485" lon="2.5733310055417373"><ele>423.33333333333337</ele><time>2026-04-08T11:53:54.001Z</time></trkpt><trkpt lat="42.06539300906952" lon="2.5735146522901395"><ele>424.0</ele><time>2026-04-08T11:53:55.001Z</time></trkpt><trkpt lat="42.06548474424928" lon="2.5737268006755416"><ele>424.0</ele><time>2026-04-08T11:53:56.001Z</time></trkpt><trkpt lat="42.065557909321384" lon="2.5739148089086035"><ele>424.0</ele><time>2026-04-08T11:53:57.001Z</time></trkpt><trkpt lat="42.065595320086004" lon="2.5740932449709257"><ele>424.0</ele><time>2026-04-08T11:53:58.001Z</time></trkpt><trkpt lat="42.0656044013508" lon="2.5743088697162038"><ele>426.0</ele><time>2026-04-08T11:53:59.001Z</time></trkpt><trkpt lat="42.065596550110804" lon="2.574556150356264"><ele>428.0</ele><time>2026-04-08T11:54:00.001Z</time></trkpt><trkpt lat="42.0655910386855" lon="2.5747878342334616"><ele>430.0</ele><time>2026-04-08T11:54:01.001Z</time></trkpt><trkpt lat="42.06556343768768" lon="2.5749789400366514"><ele>430.0</ele><time>2026-04-08T11:54:02.001Z</time></trkpt><trkpt lat="42.065500828068856" lon="2.5751582596092075"><ele>430.0</ele><time>2026-04-08T11:54:03.001Z</time></trkpt><trkpt lat="42.06542503111268" lon="2.5753170923734845"><ele>430.0</ele><time>2026-04-08T11:54:04.001Z</time></trkpt><trkpt lat="42.06538250155838" lon="2.5754718131419367"><ele>430.0</ele><time>2026-04-08T11:54:05.001Z</time></trkpt><trkpt lat="42.065378717032424" lon="2.575611353833666"><ele>430.5</ele><time>2026-04-08T11:54:06.001Z</time></trkpt><trkpt lat="42.0654108089571" lon="2.575736688498958"><ele>431.0</ele><time>2026-04-08T11:54:07.001Z</time></trkpt><trkpt lat="42.06547800325392" lon="2.5758805449403215"><ele>431.5</ele><time>2026-04-08T11:54:08.001Z</time></trkpt><trkpt lat="42.06556543066151" lon="2.576035149372809"><ele>432.0</ele><time>2026-04-08T11:54:09.001Z</time></trkpt><trkpt lat="42.06564905303449" lon="2.576193251371429"><ele>429.75</ele><time>2026-04-08T11:54:10.001Z</time></trkpt><trkpt lat="42.0657191158884" lon="2.5763577794830215"><ele>427.5</ele><time>2026-04-08T11:54:11.001Z</time></trkpt><trkpt lat="42.065786950475676" lon="2.5765108152264915"><ele>425.25</ele><time>2026-04-08T11:54:12.001Z</time></trkpt><trkpt lat="42.065855982236044" lon="2.57663412010997"><ele>423.0</ele><time>2026-04-08T11:54:13.001Z</time></trkpt><trkpt lat="42.065930514360666" lon="2.576712008831089"><ele>427.75</ele><time>2026-04-08T11:54:14.001Z</time></trkpt><trkpt lat="42.066017213458295" lon="2.5767402792608345"><ele>432.5</ele><time>2026-04-08T11:54:15.002Z</time></trkpt><trkpt lat="42.066120907199085" lon="2.576722652434967"><ele>437.25</ele><time>2026-04-08T11:54:16.002Z</time></trkpt><trkpt lat="42.06623078204726" lon="2.576659425296279"><ele>442.0</ele><time>2026-04-08T11:54:17.002Z</time></trkpt><trkpt lat="42.06635437589732" lon="2.576563325605786"><ele>442.0</ele><time>2026-04-08T11:54:18.002Z</time></trkpt><trkpt lat="42.0664668362168" lon="2.5764854043442544"><ele>442.0</ele><time>2026-04-08T11:54:19.002Z</time></trkpt><trkpt lat="42.06657604214968" lon="2.576451228635427"><ele>442.0</ele><time>2026-04-08T11:54:20.002Z</time></trkpt><trkpt lat="42.06670371591225" lon="2.576462515936348"><ele>442.0</ele><time>2026-04-08T11:54:21.002Z</time></trkpt><trkpt lat="42.06684178672369" lon="2.5765306352006765"><ele>444.33333333333337</ele><time>2026-04-08T11:54:22.002Z</time></trkpt><trkpt lat="42.06700550225392" lon="2.5765704155358042"><ele>446.66666666666663</ele><time>2026-04-08T11:54:23.002Z</time></trkpt><trkpt lat="42.06716211284307" lon="2.576602141393991"><ele>449.0</ele><time>2026-04-08T11:54:24.002Z</time></trkpt><trkpt lat="42.067324981147266" lon="2.5765829441160797"><ele>451.3333333333333</ele><time>2026-04-08T11:54:25.002Z</time></trkpt><trkpt lat="42.06748247784258" lon="2.576569525976499"><ele>453.66666666666663</ele><time>2026-04-08T11:54:26.002Z</time></trkpt><trkpt lat="42.06764279652423" lon="2.5765799618829983"><ele>456.0</ele><time>2026-04-08T11:54:27.002Z</time></trkpt><trkpt lat="42.06780172012485" lon="2.576636369243495"><ele>456.0</ele><time>2026-04-08T11:54:28.002Z</time></trkpt><trkpt lat="42.06794021931098" lon="2.576728645125708"><ele>456.0</ele><time>2026-04-08T11:54:29.002Z</time></trkpt><trkpt lat="42.06805936587848" lon="2.5768589539707403"><ele>456.0</ele><time>2026-04-08T11:54:30.002Z</time></trkpt><trkpt lat="42.068149045983446" lon="2.577038950050148"><ele>454.75</ele><time>2026-04-08T11:54:31.002Z</time></trkpt><trkpt lat="42.06825630672208" lon="2.5771681826820148"><ele>453.5</ele><time>2026-04-08T11:54:32.002Z</time></trkpt><trkpt lat="42.068354048951356" lon="2.577263540810763"><ele>452.25</ele><time>2026-04-08T11:54:33.002Z</time></trkpt><trkpt lat="42.06848360614582" lon="2.577336542073026"><ele>451.0</ele><time>2026-04-08T11:54:34.002Z</time></trkpt><trkpt lat="42.06863872040607" lon="2.577395411413973"><ele>451.0</ele><time>2026-04-08T11:54:35.002Z</time></trkpt><trkpt lat="42.06880980590341" lon="2.5774587061659515"><ele>451.0</ele><time>2026-04-08T11:54:36.002Z</time></trkpt><trkpt lat="42.068972482519015" lon="2.5775373973674993"><ele>451.0</ele><time>2026-04-08T11:54:37.002Z</time></trkpt><trkpt lat="42.069111604092235" lon="2.5776259679516103"><ele>453.0</ele><time>2026-04-08T11:54:38.002Z</time></trkpt><trkpt lat="42.06923395795877" lon="2.5777058733885405"><ele>455.0</ele><time>2026-04-08T11:54:39.002Z</time></trkpt><trkpt lat="42.06931236574162" lon="2.5778168283860077"><ele>457.0</ele><time>2026-04-08T11:54:40.002Z</time></trkpt><trkpt lat="42.06935992771035" lon="2.57792312360379"><ele>459.0</ele><time>2026-04-08T11:54:41.002Z</time></trkpt><trkpt lat="42.06937284368946" lon="2.578036819393542"><ele>461.0</ele><time>2026-04-08T11:54:42.002Z</time></trkpt><trkpt lat="42.0693278360332" lon="2.578150358997619"><ele>461.0</ele><time>2026-04-08T11:54:43.002Z</time></trkpt><trkpt lat="42.069272366491695" lon="2.578301811713367"><ele>461.0</ele><time>2026-04-08T11:54:44.002Z</time></trkpt><trkpt lat="42.0691844475303" lon="2.578462540640523"><ele>461.0</ele><time>2026-04-08T11:54:45.002Z</time></trkpt><trkpt lat="42.069090358130325" lon="2.578588723929595"><ele>461.0</ele><time>2026-04-08T11:54:46.002Z</time></trkpt><trkpt lat="42.06901912725074" lon="2.5787052318859307"><ele>460.8</ele><time>2026-04-08T11:54:47.002Z</time></trkpt><trkpt lat="42.06897863670449" lon="2.578847650975421"><ele>460.6</ele><time>2026-04-08T11:54:48.002Z</time></trkpt><trkpt lat="42.06899992766292" lon="2.5789948203289637"><ele>460.4</ele><time>2026-04-08T11:54:49.002Z</time></trkpt><trkpt lat="42.06907648211912" lon="2.579105631313058"><ele>460.2</ele><time>2026-04-08T11:54:50.002Z</time></trkpt><trkpt lat="42.06916795053108" lon="2.579189890107233"><ele>460.0</ele><time>2026-04-08T11:54:51.002Z</time></trkpt><trkpt lat="42.06929838962886" lon="2.579256731103489"><ele>460.0</ele><time>2026-04-08T11:54:52.002Z</time></trkpt><trkpt lat="42.069451373569024" lon="2.5793392974666065"><ele>460.0</ele><time>2026-04-08T11:54:53.002Z</time></trkpt><trkpt lat="42.06957632755902" lon="2.5794876923668304"><ele>460.0</ele><time>2026-04-08T11:54:54.002Z</time></trkpt><trkpt lat="42.069688056039645" lon="2.5796448711237363"><ele>461.25</ele><time>2026-04-08T11:54:55.002Z</time></trkpt><trkpt lat="42.06976701876028" lon="2.5798081023348693"><ele>462.5</ele><time>2026-04-08T11:54:56.002Z</time></trkpt><trkpt lat="42.06982744664461" lon="2.5799867579653264"><ele>463.75</ele><time>2026-04-08T11:54:57.002Z</time></trkpt><trkpt lat="42.069881900095105" lon="2.5801818618633248"><ele>465.0</ele><time>2026-04-08T11:54:58.002Z</time></trkpt><trkpt lat="42.06993216293262" lon="2.5803680709919803"><ele>465.25</ele><time>2026-04-08T11:54:59.003Z</time></trkpt><trkpt lat="42.06998170834401" lon="2.5805315937612305"><ele>465.5</ele><time>2026-04-08T11:55:00.003Z</time></trkpt><trkpt lat="42.07004020763034" lon="2.5806738177637536"><ele>465.75</ele><time>2026-04-08T11:55:01.003Z</time></trkpt><trkpt lat="42.07011814250355" lon="2.5807947090393495"><ele>466.0</ele><time>2026-04-08T11:55:02.003Z</time></trkpt><trkpt lat="42.070223705272845" lon="2.580868992533521"><ele>466.0</ele><time>2026-04-08T11:55:03.003Z</time></trkpt><trkpt lat="42.07034680649082" lon="2.580864933538019"><ele>466.0</ele><time>2026-04-08T11:55:04.003Z</time></trkpt><trkpt lat="42.07048845619029" lon="2.5808385248696526"><ele>466.0</ele><time>2026-04-08T11:55:05.003Z</time></trkpt><trkpt lat="42.07064853825364" lon="2.5807796059539028"><ele>466.0</ele><time>2026-04-08T11:55:06.003Z</time></trkpt><trkpt lat="42.070815177570445" lon="2.580750359612578"><ele>463.6666666666667</ele><time>2026-04-08T11:55:07.003Z</time></trkpt><trkpt lat="42.070973312123016" lon="2.5807674204020916"><ele>461.33333333333337</ele><time>2026-04-08T11:55:08.003Z</time></trkpt><trkpt lat="42.0711198450669" lon="2.5808198067217467"><ele>459.0</ele><time>2026-04-08T11:55:09.003Z</time></trkpt><trkpt lat="42.07123983610929" lon="2.580931320910932"><ele>459.0</ele><time>2026-04-08T11:55:10.003Z</time></trkpt><trkpt lat="42.071370013387444" lon="2.5810048977218734"><ele>459.0</ele><time>2026-04-08T11:55:11.003Z</time></trkpt><trkpt lat="42.07148535601424" lon="2.581069965909148"><ele>459.0</ele><time>2026-04-08T11:55:12.003Z</time></trkpt><trkpt lat="42.071581634645895" lon="2.581074385267616"><ele>459.0</ele><time>2026-04-08T11:55:13.003Z</time></trkpt><trkpt lat="42.071667261791404" lon="2.581028925360409"><ele>457.4</ele><time>2026-04-08T11:55:14.003Z</time></trkpt><trkpt lat="42.07172874536374" lon="2.5809358766610244"><ele>455.79999999999995</ele><time>2026-04-08T11:55:15.001Z</time></trkpt><trkpt lat="42.07175544681408" lon="2.580822231436362"><ele>454.20000000000005</ele><time>2026-04-08T11:55:16.001Z</time></trkpt><trkpt lat="42.07174866336347" lon="2.580689510153626"><ele>452.6</ele><time>2026-04-08T11:55:17.001Z</time></trkpt><trkpt lat="42.07170062794138" lon="2.580540984128085"><ele>451.0</ele><time>2026-04-08T11:55:18.001Z</time></trkpt><trkpt lat="42.07161619940992" lon="2.580404169854705"><ele>455.25</ele><time>2026-04-08T11:55:19.001Z</time></trkpt><trkpt lat="42.071490029166895" lon="2.580277293581462"><ele>459.5</ele><time>2026-04-08T11:55:20.001Z</time></trkpt><trkpt lat="42.071358550232986" lon="2.5801656954663663"><ele>463.75</ele><time>2026-04-08T11:55:21.001Z</time></trkpt><trkpt lat="42.071262078809674" lon="2.580057544408164"><ele>468.0</ele><time>2026-04-08T11:55:22.001Z</time></trkpt><trkpt lat="42.071202280632654" lon="2.5799398084756286"><ele>468.0</ele><time>2026-04-08T11:55:23.001Z</time></trkpt><trkpt lat="42.07118562481567" lon="2.5798080954483606"><ele>467.99999999999994</ele><time>2026-04-08T11:55:24.001Z</time></trkpt><trkpt lat="42.07121049753588" lon="2.5796866317938907"><ele>467.99999999999994</ele><time>2026-04-08T11:55:25.001Z</time></trkpt><trkpt lat="42.07126445107764" lon="2.5795839512403984"><ele>468.0</ele><time>2026-04-08T11:55:26.001Z</time></trkpt><trkpt lat="42.07135944305849" lon="2.5794982061019693"><ele>468.0</ele><time>2026-04-08T11:55:27.001Z</time></trkpt><trkpt lat="42.0714767648902" lon="2.5794437241663486"><ele>466.25</ele><time>2026-04-08T11:55:28.001Z</time></trkpt><trkpt lat="42.0716209801537" lon="2.5794343959288097"><ele>464.5</ele><time>2026-04-08T11:55:29.001Z</time></trkpt><trkpt lat="42.07176411885883" lon="2.57942182358292"><ele>462.75</ele><time>2026-04-08T11:55:30.001Z</time></trkpt><trkpt lat="42.0718711373636" lon="2.579341570644859"><ele>461.0</ele><time>2026-04-08T11:55:31.001Z</time></trkpt><trkpt lat="42.071970507741064" lon="2.5792397831493874"><ele>461.0</ele><time>2026-04-08T11:55:32.001Z</time></trkpt><trkpt lat="42.072073996071346" lon="2.57917949392948"><ele>461.0</ele><time>2026-04-08T11:55:33.001Z</time></trkpt><trkpt lat="42.07217559225093" lon="2.579176850536875"><ele>461.0</ele><time>2026-04-08T11:55:34.001Z</time></trkpt><trkpt lat="42.07225719402532" lon="2.579279946358959"><ele>461.0</ele><time>2026-04-08T11:55:35.001Z</time></trkpt><trkpt lat="42.072360209694246" lon="2.5793111311339025"><ele>461.0</ele><time>2026-04-08T11:55:36.001Z</time></trkpt><trkpt lat="42.07245131821125" lon="2.579333252788207"><ele>459.20000000000005</ele><time>2026-04-08T11:55:37.001Z</time></trkpt><trkpt lat="42.07254904029745" lon="2.5792955808890925"><ele>457.40000000000003</ele><time>2026-04-08T11:55:38.001Z</time></trkpt><trkpt lat="42.07264080317283" lon="2.579217060353965"><ele>455.6</ele><time>2026-04-08T11:55:39.001Z</time></trkpt><trkpt lat="42.07273120835157" lon="2.5791748738384905"><ele>453.8</ele><time>2026-04-08T11:55:40.001Z</time></trkpt><trkpt lat="42.072819868421135" lon="2.579186365403937"><ele>452.0</ele><time>2026-04-08T11:55:41.001Z</time></trkpt><trkpt lat="42.07289810869505" lon="2.579251648170675"><ele>452.0</ele><time>2026-04-08T11:55:42.001Z</time></trkpt><trkpt lat="42.07292185841182" lon="2.5793864783918297"><ele>452.0</ele><time>2026-04-08T11:55:43.001Z</time></trkpt><trkpt lat="42.07297113743474" lon="2.5795365579499645"><ele>452.0</ele><time>2026-04-08T11:55:44.001Z</time></trkpt><trkpt lat="42.07303189115547" lon="2.5797149812253712"><ele>452.0</ele><time>2026-04-08T11:55:45.001Z</time></trkpt><trkpt lat="42.07310830640986" lon="2.57987304072015"><ele>450.25</ele><time>2026-04-08T11:55:46.001Z</time></trkpt><trkpt lat="42.07317176769547" lon="2.580028492752571"><ele>448.5</ele><time>2026-04-08T11:55:47.001Z</time></trkpt><trkpt lat="42.07326407956826" lon="2.580173004108673"><ele>446.75</ele><time>2026-04-08T11:55:48.001Z</time></trkpt><trkpt lat="42.073386910168054" lon="2.5803074889330673"><ele>445.0</ele><time>2026-04-08T11:55:49.001Z</time></trkpt><trkpt lat="42.0735209583289" lon="2.580437506717071"><ele>440.0</ele><time>2026-04-08T11:55:50.001Z</time></trkpt><trkpt lat="42.073646640327254" lon="2.580558663099429"><ele>435.0</ele><time>2026-04-08T11:55:51.001Z</time></trkpt><trkpt lat="42.073763437446814" lon="2.580673631960229"><ele>430.0</ele><time>2026-04-08T11:55:52.001Z</time></trkpt><trkpt lat="42.07386706830162" lon="2.5807928453930074"><ele>425.0</ele><time>2026-04-08T11:55:53.001Z</time></trkpt><trkpt lat="42.07394662167466" lon="2.5809145402606997"><ele>425.0</ele><time>2026-04-08T11:55:54.001Z</time></trkpt><trkpt lat="42.074002932985486" lon="2.581028694016602"><ele>425.0</ele><time>2026-04-08T11:55:55.001Z</time></trkpt><trkpt lat="42.074094514659535" lon="2.5810572672208623"><ele>425.0</ele><time>2026-04-08T11:55:56.001Z</time></trkpt><trkpt lat="42.074184272313275" lon="2.581053581545687"><ele>425.0</ele><time>2026-04-08T11:55:57.001Z</time></trkpt><trkpt lat="42.07427657347585" lon="2.580999826180106"><ele>425.0</ele><time>2026-04-08T11:55:58.001Z</time></trkpt><trkpt lat="42.0743590666634" lon="2.5808967958493145"><ele>426.75</ele><time>2026-04-08T11:55:59.001Z</time></trkpt><trkpt lat="42.074441975270496" lon="2.5807730437266616"><ele>428.5</ele><time>2026-04-08T11:56:00.001Z</time></trkpt><trkpt lat="42.07454064454292" lon="2.5806653653942515"><ele>430.25</ele><time>2026-04-08T11:56:01.001Z</time></trkpt><trkpt lat="42.07464697065635" lon="2.5805833626018893"><ele>432.0</ele><time>2026-04-08T11:56:02.001Z</time></trkpt><trkpt lat="42.07472326907102" lon="2.5804800022070045"><ele>436.5</ele><time>2026-04-08T11:56:03.001Z</time></trkpt><trkpt lat="42.074773162143494" lon="2.5803414665362254"><ele>441.0</ele><time>2026-04-08T11:56:04.001Z</time></trkpt><trkpt lat="42.074800845267646" lon="2.580175548217611"><ele>445.5</ele><time>2026-04-08T11:56:05.001Z</time></trkpt><trkpt lat="42.07480627702765" lon="2.5799829419608584"><ele>450.0</ele><time>2026-04-08T11:56:06.001Z</time></trkpt><trkpt lat="42.074799499507144" lon="2.579788012208932"><ele>450.0</ele><time>2026-04-08T11:56:07.001Z</time></trkpt><trkpt lat="42.074802170083885" lon="2.5796137728923028"><ele>450.0</ele><time>2026-04-08T11:56:08.001Z</time></trkpt><trkpt lat="42.07482116074088" lon="2.579464621325159"><ele>450.0</ele><time>2026-04-08T11:56:09.001Z</time></trkpt><trkpt lat="42.07486442501558" lon="2.5793344533529825"><ele>450.0</ele><time>2026-04-08T11:56:10.001Z</time></trkpt><trkpt lat="42.07494485489198" lon="2.5792471047129153"><ele>447.2</ele><time>2026-04-08T11:56:11.001Z</time></trkpt><trkpt lat="42.07504227834128" lon="2.579193705071461"><ele>444.4</ele><time>2026-04-08T11:56:12.001Z</time></trkpt><trkpt lat="42.075150940795574" lon="2.5791941280232553"><ele>441.6</ele><time>2026-04-08T11:56:13.001Z</time></trkpt><trkpt lat="42.07523622132124" lon="2.5792739515082967"><ele>438.8</ele><time>2026-04-08T11:56:14.001Z</time></trkpt><trkpt lat="42.07528349714823" lon="2.5793846458154857"><ele>436.0</ele><time>2026-04-08T11:56:15.001Z</time></trkpt><trkpt lat="42.07528686847995" lon="2.5795102130464644"><ele>433.75</ele><time>2026-04-08T11:56:16.001Z</time></trkpt><trkpt lat="42.07531073026144" lon="2.5796695529858926"><ele>431.5</ele><time>2026-04-08T11:56:17.001Z</time></trkpt><trkpt lat="42.07534935508008" lon="2.5798443065471934"><ele>429.25</ele><time>2026-04-08T11:56:18.001Z</time></trkpt><trkpt lat="42.07540196311262" lon="2.579999607149265"><ele>427.0</ele><time>2026-04-08T11:56:19.002Z</time></trkpt><trkpt lat="42.07546019460471" lon="2.5801304419137328"><ele>427.0</ele><time>2026-04-08T11:56:20.002Z</time></trkpt><trkpt lat="42.07553633082982" lon="2.58023396511492"><ele>427.00000000000006</ele><time>2026-04-08T11:56:21.002Z</time></trkpt><trkpt lat="42.07564929041674" lon="2.5802756698443763"><ele>427.00000000000006</ele><time>2026-04-08T11:56:22.002Z</time></trkpt><trkpt lat="42.07574985163356" lon="2.5803149339722853"><ele>427.0</ele><time>2026-04-08T11:56:23.002Z</time></trkpt><trkpt lat="42.07584322827151" lon="2.580362580299572"><ele>427.0</ele><time>2026-04-08T11:56:24.002Z</time></trkpt><trkpt lat="42.07592189884005" lon="2.5804288558380666"><ele>425.0</ele><time>2026-04-08T11:56:25.002Z</time></trkpt><trkpt lat="42.07596892298979" lon="2.5805339106996836"><ele>423.00000000000006</ele><time>2026-04-08T11:56:26.002Z</time></trkpt><trkpt lat="42.076032660073075" lon="2.5806437556335844"><ele>421.0</ele><time>2026-04-08T11:56:27.002Z</time></trkpt><trkpt lat="42.0761056917825" lon="2.580757149202481"><ele>419.0</ele><time>2026-04-08T11:56:28.002Z</time></trkpt><trkpt lat="42.07613508309008" lon="2.5808936032945846"><ele>417.0</ele><time>2026-04-08T11:56:29.002Z</time></trkpt><trkpt lat="42.07610549320329" lon="2.5810384960737203"><ele>417.0</ele><time>2026-04-08T11:56:30.002Z</time></trkpt><trkpt lat="42.076047881268714" lon="2.5811727013930863"><ele>417.0</ele><time>2026-04-08T11:56:31.002Z</time></trkpt><trkpt lat="42.07597135412024" lon="2.5813283770268614"><ele>417.0</ele><time>2026-04-08T11:56:32.002Z</time></trkpt><trkpt lat="42.07587686283813" lon="2.5815132778059993"><ele>417.0</ele><time>2026-04-08T11:56:33.002Z</time></trkpt><trkpt lat="42.07577726731807" lon="2.581705679185669"><ele>414.33333333333337</ele><time>2026-04-08T11:56:34.002Z</time></trkpt><trkpt lat="42.07567274694999" lon="2.581911157792753"><ele>411.6666666666667</ele><time>2026-04-08T11:56:35.002Z</time></trkpt><trkpt lat="42.07558752308241" lon="2.582121251300334"><ele>409.0</ele><time>2026-04-08T11:56:36.002Z</time></trkpt><trkpt lat="42.075486015000806" lon="2.582298347142115"><ele>408.75</ele><time>2026-04-08T11:56:37.002Z</time></trkpt><trkpt lat="42.07542874359337" lon="2.58249365626537"><ele>408.5</ele><time>2026-04-08T11:56:38.002Z</time></trkpt><trkpt lat="42.075399692953305" lon="2.5826675258223712"><ele>408.25</ele><time>2026-04-08T11:56:39.002Z</time></trkpt><trkpt lat="42.075312281912936" lon="2.582801038996243"><ele>408.0</ele><time>2026-04-08T11:56:40.002Z</time></trkpt><trkpt lat="42.07520140680094" lon="2.582923732744526"><ele>408.0</ele><time>2026-04-08T11:56:41.002Z</time></trkpt><trkpt lat="42.07509026832752" lon="2.5830684268339885"><ele>408.0</ele><time>2026-04-08T11:56:42.002Z</time></trkpt><trkpt lat="42.074979635894266" lon="2.583181959586581"><ele>408.0</ele><time>2026-04-08T11:56:43.002Z</time></trkpt><trkpt lat="42.07487906776144" lon="2.5832761473553236"><ele>408.0</ele><time>2026-04-08T11:56:44.002Z</time></trkpt><trkpt lat="42.074808071152674" lon="2.5834001523448906"><ele>405.0</ele><time>2026-04-08T11:56:45.002Z</time></trkpt><trkpt lat="42.074773114323534" lon="2.5835579439271235"><ele>402.0</ele><time>2026-04-08T11:56:46.002Z</time></trkpt><trkpt lat="42.07476082119846" lon="2.58375511663814"><ele>399.0</ele><time>2026-04-08T11:56:47.002Z</time></trkpt><trkpt lat="42.074738139263694" lon="2.5839685965791728"><ele>396.0</ele><time>2026-04-08T11:56:48.002Z</time></trkpt><trkpt lat="42.074717324968105" lon="2.584193399323544"><ele>394.33333333333337</ele><time>2026-04-08T11:56:49.002Z</time></trkpt><trkpt lat="42.074709047168966" lon="2.5844032647368804"><ele>392.6666666666667</ele><time>2026-04-08T11:56:50.002Z</time></trkpt><trkpt lat="42.074682552349316" lon="2.5845988642644238"><ele>391.0</ele><time>2026-04-08T11:56:51.002Z</time></trkpt><trkpt lat="42.07463857035041" lon="2.584790797844088"><ele>389.75</ele><time>2026-04-08T11:56:52.002Z</time></trkpt><trkpt lat="42.07460272739629" lon="2.584978578396062"><ele>388.5</ele><time>2026-04-08T11:56:53.002Z</time></trkpt><trkpt lat="42.07458699367842" lon="2.5851435591399294"><ele>387.25</ele><time>2026-04-08T11:56:54.002Z</time></trkpt><trkpt lat="42.074602532743086" lon="2.585298906483045"><ele>386.0</ele><time>2026-04-08T11:56:55.002Z</time></trkpt><trkpt lat="42.074655523414755" lon="2.5854358220397495"><ele>385.25</ele><time>2026-04-08T11:56:56.002Z</time></trkpt><trkpt lat="42.074747612742186" lon="2.585531732156901"><ele>384.5</ele><time>2026-04-08T11:56:57.002Z</time></trkpt><trkpt lat="42.0748602955484" lon="2.585560133286867"><ele>383.75</ele><time>2026-04-08T11:56:58.002Z</time></trkpt><trkpt lat="42.074988118358256" lon="2.5855777384871037"><ele>383.0</ele><time>2026-04-08T11:56:59.002Z</time></trkpt><trkpt lat="42.075137385703364" lon="2.5855709254896517"><ele>385.5</ele><time>2026-04-08T11:57:00.002Z</time></trkpt><trkpt lat="42.075275301921" lon="2.585556996566685"><ele>388.0</ele><time>2026-04-08T11:57:01.002Z</time></trkpt><trkpt lat="42.07540065997703" lon="2.585572310388702"><ele>390.5</ele><time>2026-04-08T11:57:02.002Z</time></trkpt><trkpt lat="42.07550992380108" lon="2.5856160931326477"><ele>393.0</ele><time>2026-04-08T11:57:03.002Z</time></trkpt><trkpt lat="42.07558334887671" lon="2.5856908020945166"><ele>393.0</ele><time>2026-04-08T11:57:04.002Z</time></trkpt><trkpt lat="42.07563250986075" lon="2.5858099069905394"><ele>393.0</ele><time>2026-04-08T11:57:05.002Z</time></trkpt><trkpt lat="42.07560834556896" lon="2.585947237838782"><ele>393.0</ele><time>2026-04-08T11:57:06.002Z</time></trkpt><trkpt lat="42.07557692007324" lon="2.586070658882264"><ele>393.0</ele><time>2026-04-08T11:57:07.002Z</time></trkpt><trkpt lat="42.07551644237603" lon="2.5861883873376286"><ele>393.0</ele><time>2026-04-08T11:57:08.002Z</time></trkpt><trkpt lat="42.07539984863489" lon="2.5862307998475473"><ele>394.66666666666663</ele><time>2026-04-08T11:57:09.003Z</time></trkpt><trkpt lat="42.075272769004016" lon="2.586292563725167"><ele>396.3333333333333</ele><time>2026-04-08T11:57:10.003Z</time></trkpt><trkpt lat="42.07512767651869" lon="2.5863468721490896"><ele>398.0</ele><time>2026-04-08T11:57:11.003Z</time></trkpt><trkpt lat="42.07497047770857" lon="2.5864472179462963"><ele>392.3333333333333</ele><time>2026-04-08T11:57:12.003Z</time></trkpt><trkpt lat="42.07480214248576" lon="2.58657979084758"><ele>386.66666666666663</ele><time>2026-04-08T11:57:13.003Z</time></trkpt><trkpt lat="42.0746492187112" lon="2.586711644332268"><ele>381.0</ele><time>2026-04-08T11:57:14.003Z</time></trkpt><trkpt lat="42.07449485924809" lon="2.5868406056272204"><ele>384.0</ele><time>2026-04-08T11:57:15.003Z</time></trkpt><trkpt lat="42.07437031821164" lon="2.587036870927824"><ele>387.0</ele><time>2026-04-08T11:57:16.003Z</time></trkpt><trkpt lat="42.07425175778767" lon="2.587213335434521"><ele>390.0</ele><time>2026-04-08T11:57:17.003Z</time></trkpt><trkpt lat="42.07414510140656" lon="2.587361074608889"><ele>385.25</ele><time>2026-04-08T11:57:18.003Z</time></trkpt><trkpt lat="42.07405692045768" lon="2.587497826719787"><ele>380.5</ele><time>2026-04-08T11:57:19.003Z</time></trkpt><trkpt lat="42.07398354644018" lon="2.5876152643284636"><ele>375.75</ele><time>2026-04-08T11:57:20.003Z</time></trkpt><trkpt lat="42.07392842108244" lon="2.5877427607981818"><ele>371.0</ele><time>2026-04-08T11:57:21.001Z</time></trkpt><trkpt lat="42.073917882363325" lon="2.58789644538554"><ele>370.5</ele><time>2026-04-08T11:57:22.001Z</time></trkpt><trkpt lat="42.07393625751336" lon="2.5880474312473636"><ele>370.0</ele><time>2026-04-08T11:57:23.001Z</time></trkpt><trkpt lat="42.07396898911337" lon="2.588235119537604"><ele>369.5</ele><time>2026-04-08T11:57:24.001Z</time></trkpt><trkpt lat="42.07398633284973" lon="2.5884414461935816"><ele>369.0</ele><time>2026-04-08T11:57:25.001Z</time></trkpt><trkpt lat="42.07400657286641" lon="2.588676087097241"><ele>368.3333333333333</ele><time>2026-04-08T11:57:26.001Z</time></trkpt><trkpt lat="42.07402298543704" lon="2.5889217739549464"><ele>367.66666666666663</ele><time>2026-04-08T11:57:27.001Z</time></trkpt><trkpt lat="42.07403011577767" lon="2.589159659307208"><ele>367.0</ele><time>2026-04-08T11:57:28.001Z</time></trkpt><trkpt lat="42.07401949105094" lon="2.589395037296716"><ele>365.0</ele><time>2026-04-08T11:57:29.001Z</time></trkpt><trkpt lat="42.07400436592106" lon="2.589636659394381"><ele>363.0</ele><time>2026-04-08T11:57:30.001Z</time></trkpt><trkpt lat="42.07398831180172" lon="2.589859431015727"><ele>361.0</ele><time>2026-04-08T11:57:31.001Z</time></trkpt><trkpt lat="42.07397381824461" lon="2.590058842648048"><ele>361.0</ele><time>2026-04-08T11:57:32.001Z</time></trkpt><trkpt lat="42.073963905234415" lon="2.5902332770203507"><ele>361.0</ele><time>2026-04-08T11:57:33.001Z</time></trkpt><trkpt lat="42.07396707940122" lon="2.5903910755736153"><ele>361.0</ele><time>2026-04-08T11:57:34.001Z</time></trkpt><trkpt lat="42.07400260073025" lon="2.5905314278412916"><ele>361.0</ele><time>2026-04-08T11:57:35.001Z</time></trkpt><trkpt lat="42.07406436782334" lon="2.590643286215442"><ele>363.0</ele><time>2026-04-08T11:57:36.001Z</time></trkpt><trkpt lat="42.07416429531377" lon="2.590712738506819"><ele>365.0</ele><time>2026-04-08T11:57:37.001Z</time></trkpt><trkpt lat="42.0742890652239" lon="2.590731746769406"><ele>367.0</ele><time>2026-04-08T11:57:38.001Z</time></trkpt><trkpt lat="42.07442928404488" lon="2.5906760711518184"><ele>369.0</ele><time>2026-04-08T11:57:39.001Z</time></trkpt><trkpt lat="42.0745734457707" lon="2.5906150525930705"><ele>369.0</ele><time>2026-04-08T11:57:40.001Z</time></trkpt><trkpt lat="42.07470316118716" lon="2.590567605362603"><ele>369.0</ele><time>2026-04-08T11:57:41.001Z</time></trkpt><trkpt lat="42.07481905253186" lon="2.590534342122927"><ele>369.0</ele><time>2026-04-08T11:57:42.001Z</time></trkpt><trkpt lat="42.07491981805793" lon="2.590536065496222"><ele>369.0</ele><time>2026-04-08T11:57:43.001Z</time></trkpt><trkpt lat="42.07499537025743" lon="2.59061601701885"><ele>369.0</ele><time>2026-04-08T11:57:44.001Z</time></trkpt><trkpt lat="42.07503849418863" lon="2.590713396354087"><ele>369.0</ele><time>2026-04-08T11:57:45.001Z</time></trkpt><trkpt lat="42.075044473007644" lon="2.5908240363406527"><ele>369.0</ele><time>2026-04-08T11:57:46.001Z</time></trkpt><trkpt lat="42.07500868150136" lon="2.5909397913565817"><ele>369.0</ele><time>2026-04-08T11:57:47.001Z</time></trkpt><trkpt lat="42.074920529921776" lon="2.5910381717891706"><ele>369.0</ele><time>2026-04-08T11:57:48.001Z</time></trkpt><trkpt lat="42.07481140140483" lon="2.591126273283242"><ele>367.75</ele><time>2026-04-08T11:57:49.001Z</time></trkpt><trkpt lat="42.07469864875884" lon="2.591233195965758"><ele>366.5</ele><time>2026-04-08T11:57:50.001Z</time></trkpt><trkpt lat="42.07460487182794" lon="2.5913731942930935"><ele>365.25</ele><time>2026-04-08T11:57:51.001Z</time></trkpt><trkpt lat="42.07453279915212" lon="2.5915325982127504"><ele>364.0</ele><time>2026-04-08T11:57:52.001Z</time></trkpt><trkpt lat="42.074445031104986" lon="2.5916689704076767"><ele>364.0</ele><time>2026-04-08T11:57:53.001Z</time></trkpt><trkpt lat="42.074322309762266" lon="2.5917601125917717"><ele>364.0</ele><time>2026-04-08T11:57:54.001Z</time></trkpt><trkpt lat="42.074177156970556" lon="2.5918011907433836"><ele>364.0</ele><time>2026-04-08T11:57:55.001Z</time></trkpt><trkpt lat="42.0740162561447" lon="2.591804770509075"><ele>364.0</ele><time>2026-04-08T11:57:56.001Z</time></trkpt><trkpt lat="42.073862808668146" lon="2.591805298780168"><ele>363.0</ele><time>2026-04-08T11:57:57.001Z</time></trkpt><trkpt lat="42.07372974260913" lon="2.5918274092784146"><ele>362.0</ele><time>2026-04-08T11:57:58.001Z</time></trkpt><trkpt lat="42.073607960149566" lon="2.591880376855455"><ele>361.0</ele><time>2026-04-08T11:57:59.001Z</time></trkpt><trkpt lat="42.07348646153896" lon="2.591882932666157"><ele>360.0</ele><time>2026-04-08T11:58:00.001Z</time></trkpt><trkpt lat="42.07338356902482" lon="2.5920837426745127"><ele>360.0</ele><time>2026-04-08T11:58:01.001Z</time></trkpt><trkpt lat="42.07329128990634" lon="2.5922574230702757"><ele>360.0</ele><time>2026-04-08T11:58:02.001Z</time></trkpt><trkpt lat="42.07318692716102" lon="2.5924309940412593"><ele>360.0</ele><time>2026-04-08T11:58:03.001Z</time></trkpt><trkpt lat="42.07308933699993" lon="2.5925913911421907"><ele>358.25</ele><time>2026-04-08T11:58:04.001Z</time></trkpt><trkpt lat="42.07300931055422" lon="2.5927616666200475"><ele>356.5</ele><time>2026-04-08T11:58:05.001Z</time></trkpt><trkpt lat="42.0729509480155" lon="2.5929343543498726"><ele>354.75</ele><time>2026-04-08T11:58:06.001Z</time></trkpt><trkpt lat="42.07290679930153" lon="2.5930931631524046"><ele>353.0</ele><time>2026-04-08T11:58:07.001Z</time></trkpt><trkpt lat="42.072841724987654" lon="2.593232831686196"><ele>352.0</ele><time>2026-04-08T11:58:08.001Z</time></trkpt><trkpt lat="42.072744061821986" lon="2.59334916603507"><ele>351.0</ele><time>2026-04-08T11:58:09.001Z</time></trkpt><trkpt lat="42.0726152463247" lon="2.5934434867906035"><ele>350.0</ele><time>2026-04-08T11:58:10.001Z</time></trkpt><trkpt lat="42.072490165339744" lon="2.5935420930795337"><ele>349.0</ele><time>2026-04-08T11:58:11.001Z</time></trkpt><trkpt lat="42.07237817001606" lon="2.5936600922416275"><ele>347.25</ele><time>2026-04-08T11:58:12.001Z</time></trkpt><trkpt lat="42.072287347954834" lon="2.593809949607678"><ele>345.5</ele><time>2026-04-08T11:58:13.001Z</time></trkpt><trkpt lat="42.072216651438396" lon="2.5939529817099265"><ele>343.75</ele><time>2026-04-08T11:58:14.001Z</time></trkpt><trkpt lat="42.07217601933658" lon="2.5940815459684483"><ele>342.0</ele><time>2026-04-08T11:58:15.001Z</time></trkpt><trkpt lat="42.07217664750144" lon="2.5942250734458496"><ele>342.0</ele><time>2026-04-08T11:58:16.001Z</time></trkpt><trkpt lat="42.07218185639104" lon="2.5943765459240415"><ele>342.0</ele><time>2026-04-08T11:58:17.001Z</time></trkpt><trkpt lat="42.07214778977128" lon="2.5945067223567886"><ele>342.0</ele><time>2026-04-08T11:58:18.001Z</time></trkpt><trkpt lat="42.07207183617432" lon="2.594600549182835"><ele>342.0</ele><time>2026-04-08T11:58:19.001Z</time></trkpt><trkpt lat="42.0719648550806" lon="2.594661413828967"><ele>342.0</ele><time>2026-04-08T11:58:20.001Z</time></trkpt><trkpt lat="42.07183772936041" lon="2.594718997289522"><ele>342.0</ele><time>2026-04-08T11:58:21.001Z</time></trkpt><trkpt lat="42.071733168333935" lon="2.5948003034659006"><ele>342.0</ele><time>2026-04-08T11:58:22.001Z</time></trkpt><trkpt lat="42.07164162548294" lon="2.5949355389135977"><ele>342.0</ele><time>2026-04-08T11:58:23.001Z</time></trkpt><trkpt lat="42.07154942034519" lon="2.5951198509630204"><ele>342.0</ele><time>2026-04-08T11:58:24.001Z</time></trkpt><trkpt lat="42.07145956609956" lon="2.595318498722114"><ele>337.6666666666667</ele><time>2026-04-08T11:58:25.001Z</time></trkpt><trkpt lat="42.071375270868366" lon="2.5955068800254293"><ele>333.33333333333337</ele><time>2026-04-08T11:58:26.001Z</time></trkpt><trkpt lat="42.071300407731435" lon="2.595677017378858"><ele>329.0</ele><time>2026-04-08T11:58:27.001Z</time></trkpt><trkpt lat="42.07124157189558" lon="2.5958526729076996"><ele>329.0</ele><time>2026-04-08T11:58:28.001Z</time></trkpt><trkpt lat="42.07120126723299" lon="2.5960614710240306"><ele>329.0</ele><time>2026-04-08T11:58:29.001Z</time></trkpt><trkpt lat="42.07117200039023" lon="2.5963012221288473"><ele>329.0</ele><time>2026-04-08T11:58:30.001Z</time></trkpt><trkpt lat="42.071144999434956" lon="2.5965371448545076"><ele>329.5</ele><time>2026-04-08T11:58:31.001Z</time></trkpt><trkpt lat="42.07111653940444" lon="2.596753092951381"><ele>330.0</ele><time>2026-04-08T11:58:32.001Z</time></trkpt><trkpt lat="42.07109615076403" lon="2.596954355380573"><ele>330.5</ele><time>2026-04-08T11:58:33.001Z</time></trkpt><trkpt lat="42.071073010324994" lon="2.5971329696540746"><ele>331.0</ele><time>2026-04-08T11:58:34.001Z</time></trkpt><trkpt lat="42.07106803373079" lon="2.597294017876632"><ele>330.0</ele><time>2026-04-08T11:58:35.001Z</time></trkpt><trkpt lat="42.071093244203055" lon="2.597450421646554"><ele>329.0</ele><time>2026-04-08T11:58:36.001Z</time></trkpt><trkpt lat="42.07114595739231" lon="2.597589882614254"><ele>328.0</ele><time>2026-04-08T11:58:37.001Z</time></trkpt><trkpt lat="42.071230575364844" lon="2.597712432995597"><ele>327.0</ele><time>2026-04-08T11:58:38.002Z</time></trkpt><trkpt lat="42.071349977044825" lon="2.597828388664777"><ele>326.3333333333333</ele><time>2026-04-08T11:58:39.002Z</time></trkpt><trkpt lat="42.07149007417954" lon="2.5979622495910784"><ele>325.66666666666663</ele><time>2026-04-08T11:58:40.002Z</time></trkpt><trkpt lat="42.07164164745364" lon="2.5981102537736795"><ele>325.0</ele><time>2026-04-08T11:58:41.002Z</time></trkpt><trkpt lat="42.07178476484132" lon="2.5982516312934987"><ele>326.0</ele><time>2026-04-08T11:58:42.002Z</time></trkpt><trkpt lat="42.07191639997229" lon="2.5983715430520506"><ele>327.0</ele><time>2026-04-08T11:58:43.002Z</time></trkpt><trkpt lat="42.07203376800615" lon="2.598447711485803"><ele>328.0</ele><time>2026-04-08T11:58:44.002Z</time></trkpt><trkpt lat="42.07215282204318" lon="2.598485177006302"><ele>329.0</ele><time>2026-04-08T11:58:45.002Z</time></trkpt><trkpt lat="42.07230425363796" lon="2.5984632647722115"><ele>331.25</ele><time>2026-04-08T11:58:46.002Z</time></trkpt><trkpt lat="42.07245994716948" lon="2.598428667069953"><ele>333.5</ele><time>2026-04-08T11:58:47.002Z</time></trkpt><trkpt lat="42.07260088891062" lon="2.598420645161909"><ele>335.75</ele><time>2026-04-08T11:58:48.002Z</time></trkpt><trkpt lat="42.07273735543829" lon="2.5984291481228854"><ele>338.0</ele><time>2026-04-08T11:58:49.002Z</time></trkpt><trkpt lat="42.07285850250291" lon="2.5984548597145487"><ele>338.0</ele><time>2026-04-08T11:58:50.002Z</time></trkpt><trkpt lat="42.07295615368328" lon="2.5984902026923455"><ele>338.0</ele><time>2026-04-08T11:58:51.002Z</time></trkpt><trkpt lat="42.07302620801391" lon="2.5985679512160904"><ele>338.0</ele><time>2026-04-08T11:58:52.002Z</time></trkpt><trkpt lat="42.07306860848978" lon="2.598694538395666"><ele>338.0</ele><time>2026-04-08T11:58:53.002Z</time></trkpt><trkpt lat="42.07309893957634" lon="2.59885680372918"><ele>338.0</ele><time>2026-04-08T11:58:54.002Z</time></trkpt><trkpt lat="42.07312254798503" lon="2.5990493360031994"><ele>333.0</ele><time>2026-04-08T11:58:55.002Z</time></trkpt><trkpt lat="42.073148604598764" lon="2.5992243187833206"><ele>328.0</ele><time>2026-04-08T11:58:56.002Z</time></trkpt><trkpt lat="42.07318124306193" lon="2.5993730557819656"><ele>323.0</ele><time>2026-04-08T11:58:57.002Z</time></trkpt><trkpt lat="42.073275767340874" lon="2.5995142377604776"><ele>318.0</ele><time>2026-04-08T11:58:58.002Z</time></trkpt><trkpt lat="42.073396520134445" lon="2.599678773141921"><ele>316.6666666666667</ele><time>2026-04-08T11:58:59.002Z</time></trkpt><trkpt lat="42.07351553245929" lon="2.5998502509139434"><ele>315.33333333333337</ele><time>2026-04-08T11:59:00.002Z</time></trkpt><trkpt lat="42.073616976941466" lon="2.6000017870124266"><ele>314.0</ele><time>2026-04-08T11:59:01.002Z</time></trkpt><trkpt lat="42.07371176074032" lon="2.6001440071956563"><ele>314.0</ele><time>2026-04-08T11:59:02.002Z</time></trkpt><trkpt lat="42.07378905045285" lon="2.6002693144438167"><ele>314.0</ele><time>2026-04-08T11:59:03.002Z</time></trkpt><trkpt lat="42.07383460065042" lon="2.6003778356471168"><ele>314.0</ele><time>2026-04-08T11:59:04.002Z</time></trkpt><trkpt lat="42.073844730193024" lon="2.6004758089723596"><ele>314.0</ele><time>2026-04-08T11:59:05.002Z</time></trkpt><trkpt lat="42.07381956036964" lon="2.6005672421649355"><ele>314.0</ele><time>2026-04-08T11:59:06.002Z</time></trkpt><trkpt lat="42.073764612005114" lon="2.6006609628044295"><ele>314.0</ele><time>2026-04-08T11:59:07.002Z</time></trkpt><trkpt lat="42.07368209011033" lon="2.6007716775008034"><ele>312.6666666666667</ele><time>2026-04-08T11:59:08.002Z</time></trkpt><trkpt lat="42.073578854530346" lon="2.600916257657804"><ele>311.3333333333333</ele><time>2026-04-08T11:59:09.002Z</time></trkpt><trkpt lat="42.07345685829495" lon="2.601092183508008"><ele>310.0</ele><time>2026-04-08T11:59:10.002Z</time></trkpt><trkpt lat="42.0733359984692" lon="2.6012693125059996"><ele>313.0</ele><time>2026-04-08T11:59:11.002Z</time></trkpt><trkpt lat="42.073209117920285" lon="2.601452562647176"><ele>316.0</ele><time>2026-04-08T11:59:12.002Z</time></trkpt><trkpt lat="42.07307720822952" lon="2.6016415525662757"><ele>319.0</ele><time>2026-04-08T11:59:13.002Z</time></trkpt><trkpt lat="42.07294394135579" lon="2.60183334229924"><ele>316.3333333333333</ele><time>2026-04-08T11:59:14.002Z</time></trkpt><trkpt lat="42.07281406009335" lon="2.6020228926538347"><ele>313.6666666666667</ele><time>2026-04-08T11:59:15.002Z</time></trkpt><trkpt lat="42.07269776566673" lon="2.602199886138958"><ele>311.0</ele><time>2026-04-08T11:59:16.002Z</time></trkpt><trkpt lat="42.07258880025513" lon="2.60236277884896"><ele>311.0</ele><time>2026-04-08T11:59:17.002Z</time></trkpt><trkpt lat="42.072479916118816" lon="2.602519385847315"><ele>311.0</ele><time>2026-04-08T11:59:18.002Z</time></trkpt><trkpt lat="42.07237225526798" lon="2.602673118186517"><ele>311.0</ele><time>2026-04-08T11:59:19.002Z</time></trkpt><trkpt lat="42.07226220169296" lon="2.6028092031807515"><ele>311.5</ele><time>2026-04-08T11:59:20.002Z</time></trkpt><trkpt lat="42.07213961532499" lon="2.602911353912737"><ele>312.0</ele><time>2026-04-08T11:59:21.002Z</time></trkpt><trkpt lat="42.07200450063235" lon="2.6029674566492105"><ele>312.5</ele><time>2026-04-08T11:59:22.002Z</time></trkpt><trkpt lat="42.0718686590541" lon="2.6029863922390457"><ele>313.0</ele><time>2026-04-08T11:59:23.002Z</time></trkpt><trkpt lat="42.07174839362604" lon="2.6029848586348905"><ele>313.0</ele><time>2026-04-08T11:59:24.002Z</time></trkpt><trkpt lat="42.07165069549462" lon="2.6030010659341234"><ele>313.0</ele><time>2026-04-08T11:59:25.002Z</time></trkpt><trkpt lat="42.071553485561594" lon="2.6030608305575296"><ele>313.0</ele><time>2026-04-08T11:59:26.002Z</time></trkpt><trkpt lat="42.07145245124774" lon="2.603169093196176"><ele>313.0</ele><time>2026-04-08T11:59:27.001Z</time></trkpt><trkpt lat="42.07132927367336" lon="2.603322309075316"><ele>314.0</ele><time>2026-04-08T11:59:28.001Z</time></trkpt><trkpt lat="42.07119677231039" lon="2.603489296776629"><ele>315.0</ele><time>2026-04-08T11:59:29.001Z</time></trkpt><trkpt lat="42.07106621222284" lon="2.603640061549021"><ele>316.0</ele><time>2026-04-08T11:59:30.001Z</time></trkpt><trkpt lat="42.07094899162486" lon="2.603781002268083"><ele>316.0</ele><time>2026-04-08T11:59:31.001Z</time></trkpt><trkpt lat="42.07084138714696" lon="2.603933736860596"><ele>316.0</ele><time>2026-04-08T11:59:32.001Z</time></trkpt><trkpt lat="42.07073684254436" lon="2.604115627439482"><ele>316.0</ele><time>2026-04-08T11:59:33.001Z</time></trkpt><trkpt lat="42.0706306285304" lon="2.604319402010571"><ele>319.66666666666663</ele><time>2026-04-08T11:59:34.001Z</time></trkpt><trkpt lat="42.070525197252024" lon="2.6045437323792626"><ele>323.3333333333333</ele><time>2026-04-08T11:59:35.001Z</time></trkpt><trkpt lat="42.070413606577354" lon="2.604767241714085"><ele>327.0</ele><time>2026-04-08T11:59:36.001Z</time></trkpt><trkpt lat="42.07030415749988" lon="2.604980864927096"><ele>327.0</ele><time>2026-04-08T11:59:37.001Z</time></trkpt><trkpt lat="42.070197595521606" lon="2.6051885594630266"><ele>327.0</ele><time>2026-04-08T11:59:38.001Z</time></trkpt><trkpt lat="42.070078722192044" lon="2.6054023491966283"><ele>327.0</ele><time>2026-04-08T11:59:39.001Z</time></trkpt><trkpt lat="42.06995144186325" lon="2.605623188633735"><ele>325.6666666666667</ele><time>2026-04-08T11:59:40.001Z</time></trkpt><trkpt lat="42.06982878388008" lon="2.605833680647502"><ele>324.33333333333337</ele><time>2026-04-08T11:59:41.001Z</time></trkpt><trkpt lat="42.069716092264784" lon="2.6060303725649905"><ele>323.0</ele><time>2026-04-08T11:59:42.001Z</time></trkpt><trkpt lat="42.069602545895236" lon="2.606221229241495"><ele>318.6666666666667</ele><time>2026-04-08T11:59:43.001Z</time></trkpt><trkpt lat="42.06947766714545" lon="2.606395640041538"><ele>314.3333333333333</ele><time>2026-04-08T11:59:44.001Z</time></trkpt><trkpt lat="42.069339294730426" lon="2.6065551730643595"><ele>310.0</ele><time>2026-04-08T11:59:45.001Z</time></trkpt><trkpt lat="42.06917342949578" lon="2.6067083718950643"><ele>311.3333333333333</ele><time>2026-04-08T11:59:46.001Z</time></trkpt><trkpt lat="42.06898738931781" lon="2.606865113159478"><ele>312.6666666666667</ele><time>2026-04-08T11:59:47.001Z</time></trkpt><trkpt lat="42.068791254408644" lon="2.607024385748817"><ele>314.0</ele><time>2026-04-08T11:59:48.001Z</time></trkpt><trkpt lat="42.06860565023962" lon="2.607174280656142"><ele>310.6666666666667</ele><time>2026-04-08T11:59:49.001Z</time></trkpt><trkpt lat="42.068421274519" lon="2.607325747989825"><ele>307.3333333333333</ele><time>2026-04-08T11:59:50.001Z</time></trkpt><trkpt lat="42.068236447357364" lon="2.607481402590105"><ele>304.0</ele><time>2026-04-08T11:59:51.001Z</time></trkpt><trkpt lat="42.068051299862304" lon="2.607635145434573"><ele>304.5</ele><time>2026-04-08T11:59:52.001Z</time></trkpt><trkpt lat="42.067860409421996" lon="2.6077879182828343"><ele>305.0</ele><time>2026-04-08T11:59:53.001Z</time></trkpt><trkpt lat="42.06766534416372" lon="2.6079462673538334"><ele>305.0</ele><time>2026-04-08T11:59:54.001Z</time></trkpt><trkpt lat="42.06747201644005" lon="2.6081099930147826"><ele>305.0</ele><time>2026-04-08T11:59:55.001Z</time></trkpt><trkpt lat="42.06728147233426" lon="2.6082824006603142"><ele>304.5</ele><time>2026-04-08T11:59:56.001Z</time></trkpt><trkpt lat="42.06709682187321" lon="2.6084672711381116"><ele>304.0</ele><time>2026-04-08T11:59:57.001Z</time></trkpt><trkpt lat="42.06691271175384" lon="2.608664821769018"><ele>304.0</ele><time>2026-04-08T11:59:58.001Z</time></trkpt><trkpt lat="42.06674057710997" lon="2.608857587863731"><ele>304.0</ele><time>2026-04-08T11:59:59.001Z</time></trkpt><trkpt lat="42.06657741410756" lon="2.609038186388121"><ele>304.0</ele><time>2026-04-08T12:00:00.001Z</time></trkpt><trkpt lat="42.06642428533512" lon="2.609207018233972"><ele>303.66666666666663</ele><time>2026-04-08T12:00:01.001Z</time></trkpt><trkpt lat="42.06627431962606" lon="2.6093744613562464"><ele>303.3333333333333</ele><time>2026-04-08T12:00:02.001Z</time></trkpt><trkpt lat="42.06612531622755" lon="2.6095412497338577"><ele>303.0</ele><time>2026-04-08T12:00:03.001Z</time></trkpt><trkpt lat="42.065983881414816" lon="2.609702183462845"><ele>303.0</ele><time>2026-04-08T12:00:04.001Z</time></trkpt><trkpt lat="42.06584873905394" lon="2.609849605191475"><ele>303.0</ele><time>2026-04-08T12:00:05.001Z</time></trkpt><trkpt lat="42.065713774378175" lon="2.6099796138429063"><ele>303.0</ele><time>2026-04-08T12:00:06.001Z</time></trkpt><trkpt lat="42.065577846615646" lon="2.610104330500974"><ele>301.6666666666667</ele><time>2026-04-08T12:00:07.001Z</time></trkpt><trkpt lat="42.06543880118427" lon="2.6102082659994794"><ele>300.33333333333337</ele><time>2026-04-08T12:00:08.001Z</time></trkpt><trkpt lat="42.06530687591645" lon="2.6103071846400163"><ele>299.0</ele><time>2026-04-08T12:00:09.001Z</time></trkpt><trkpt lat="42.06518808567709" lon="2.6104214629397573"><ele>299.0</ele><time>2026-04-08T12:00:10.001Z</time></trkpt><trkpt lat="42.06508320957649" lon="2.610551263495244"><ele>299.0</ele><time>2026-04-08T12:00:11.001Z</time></trkpt><trkpt lat="42.06499038531496" lon="2.610719200172449"><ele>299.0</ele><time>2026-04-08T12:00:12.001Z</time></trkpt><trkpt lat="42.0648919497585" lon="2.6109074351818826"><ele>298.0</ele><time>2026-04-08T12:00:13.001Z</time></trkpt><trkpt lat="42.064786368503064" lon="2.6110968160225982"><ele>297.0</ele><time>2026-04-08T12:00:14.001Z</time></trkpt><trkpt lat="42.064678389765845" lon="2.6112901443587617"><ele>296.0</ele><time>2026-04-08T12:00:15.001Z</time></trkpt><trkpt lat="42.06457064117615" lon="2.6114874125915617"><ele>296.0</ele><time>2026-04-08T12:00:16.001Z</time></trkpt><trkpt lat="42.06446516240846" lon="2.611684871624131"><ele>296.0</ele><time>2026-04-08T12:00:17.001Z</time></trkpt><trkpt lat="42.0643571816775" lon="2.6118825188363117"><ele>296.0</ele><time>2026-04-08T12:00:18.001Z</time></trkpt><trkpt lat="42.06425407450624" lon="2.612066650609168"><ele>295.0</ele><time>2026-04-08T12:00:19.001Z</time></trkpt><trkpt lat="42.06415723195001" lon="2.6122411526110265"><ele>294.0</ele><time>2026-04-08T12:00:20.001Z</time></trkpt><trkpt lat="42.06405759878736" lon="2.612410727520902"><ele>293.0</ele><time>2026-04-08T12:00:21.001Z</time></trkpt><trkpt lat="42.06394651221696" lon="2.612567009051791"><ele>293.0</ele><time>2026-04-08T12:00:22.001Z</time></trkpt><trkpt lat="42.063834076263525" lon="2.612704052314543"><ele>293.0</ele><time>2026-04-08T12:00:23.001Z</time></trkpt><trkpt lat="42.06371769678073" lon="2.612850415645514"><ele>293.0</ele><time>2026-04-08T12:00:24.001Z</time></trkpt><trkpt lat="42.06360112340151" lon="2.6129951574259245"><ele>292.0</ele><time>2026-04-08T12:00:25.001Z</time></trkpt><trkpt lat="42.06348080204536" lon="2.61315147498737"><ele>291.0</ele><time>2026-04-08T12:00:26.001Z</time></trkpt><trkpt lat="42.06336209030288" lon="2.613304011316247"><ele>290.0</ele><time>2026-04-08T12:00:27.001Z</time></trkpt><trkpt lat="42.06324996885383" lon="2.6134481661018136"><ele>290.0</ele><time>2026-04-08T12:00:28.001Z</time></trkpt><trkpt lat="42.06314435287725" lon="2.6135836285941094"><ele>290.0</ele><time>2026-04-08T12:00:29.001Z</time></trkpt><trkpt lat="42.0630431522825" lon="2.613711784675715"><ele>290.0</ele><time>2026-04-08T12:00:30.001Z</time></trkpt><trkpt lat="42.062945542432224" lon="2.6138359200971064"><ele>290.0</ele><time>2026-04-08T12:00:31.001Z</time></trkpt><trkpt lat="42.062846437282325" lon="2.613957380104873"><ele>289.5</ele><time>2026-04-08T12:00:32.001Z</time></trkpt><trkpt lat="42.062743072381984" lon="2.614086153142412"><ele>289.0</ele><time>2026-04-08T12:00:33.001Z</time></trkpt><trkpt lat="42.062631341766945" lon="2.614219976333656"><ele>288.5</ele><time>2026-04-08T12:00:34.001Z</time></trkpt><trkpt lat="42.06251575145408" lon="2.6143558051338744"><ele>288.0</ele><time>2026-04-08T12:00:35.001Z</time></trkpt><trkpt lat="42.062404682637656" lon="2.6144933726879174"><ele>287.6666666666667</ele><time>2026-04-08T12:00:36.001Z</time></trkpt><trkpt lat="42.06229280203221" lon="2.614635101340069"><ele>287.33333333333337</ele><time>2026-04-08T12:00:37.001Z</time></trkpt><trkpt lat="42.06218037690233" lon="2.6147778270344992"><ele>287.0</ele><time>2026-04-08T12:00:38.001Z</time></trkpt><trkpt lat="42.06206503819068" lon="2.6149185407553848"><ele>287.0</ele><time>2026-04-08T12:00:39.001Z</time></trkpt><trkpt lat="42.06193152213043" lon="2.615037731029665"><ele>287.0</ele><time>2026-04-08T12:00:40.001Z</time></trkpt><trkpt lat="42.061814281071996" lon="2.615184355638815"><ele>287.0</ele><time>2026-04-08T12:00:41.001Z</time></trkpt><trkpt lat="42.06169784429752" lon="2.6153301861271774"><ele>286.6666666666667</ele><time>2026-04-08T12:00:42.001Z</time></trkpt><trkpt lat="42.06157906712985" lon="2.615478947825711"><ele>286.3333333333333</ele><time>2026-04-08T12:00:43.001Z</time></trkpt><trkpt lat="42.06145908143026" lon="2.6156306363559754"><ele>286.0</ele><time>2026-04-08T12:00:44.001Z</time></trkpt><trkpt lat="42.06133825288334" lon="2.6157831181102362"><ele>286.0</ele><time>2026-04-08T12:00:45.001Z</time></trkpt><trkpt lat="42.061216643984174" lon="2.615936637513722"><ele>286.0</ele><time>2026-04-08T12:00:46.001Z</time></trkpt><trkpt lat="42.06109449063994" lon="2.6160908442266413"><ele>286.0</ele><time>2026-04-08T12:00:47.001Z</time></trkpt><trkpt lat="42.06097286705121" lon="2.616244382183256"><ele>285.66666666666663</ele><time>2026-04-08T12:00:48.002Z</time></trkpt><trkpt lat="42.06084997519891" lon="2.6163981474735127"><ele>285.3333333333333</ele><time>2026-04-08T12:00:49.002Z</time></trkpt><trkpt lat="42.06072829077924" lon="2.616550676306042"><ele>285.0</ele><time>2026-04-08T12:00:50.002Z</time></trkpt><trkpt lat="42.06060553871076" lon="2.616704543413758"><ele>284.6666666666667</ele><time>2026-04-08T12:00:51.002Z</time></trkpt><trkpt lat="42.0604825019976" lon="2.6168587673180372"><ele>284.33333333333337</ele><time>2026-04-08T12:00:52.002Z</time></trkpt><trkpt lat="42.06036279217002" lon="2.6170094778253796"><ele>284.0</ele><time>2026-04-08T12:00:53.002Z</time></trkpt><trkpt lat="42.06024829507921" lon="2.6171536853510724"><ele>284.0</ele><time>2026-04-08T12:00:54.002Z</time></trkpt><trkpt lat="42.06013398638159" lon="2.617297299818947"><ele>284.0</ele><time>2026-04-08T12:00:55.002Z</time></trkpt><trkpt lat="42.06002100832441" lon="2.617438657264918"><ele>284.0</ele><time>2026-04-08T12:00:56.002Z</time></trkpt><trkpt lat="42.059907627963696" lon="2.6175779998780904"><ele>284.33333333333337</ele><time>2026-04-08T12:00:57.002Z</time></trkpt><trkpt lat="42.059818249652615" lon="2.617753862747179"><ele>284.6666666666667</ele><time>2026-04-08T12:00:58.002Z</time></trkpt><trkpt lat="42.05972758586043" lon="2.6179281429370556"><ele>285.0</ele><time>2026-04-08T12:00:59.002Z</time></trkpt><trkpt lat="42.0596331159224" lon="2.618148419658579"><ele>285.0</ele><time>2026-04-08T12:01:00.002Z</time></trkpt><trkpt lat="42.05953769259683" lon="2.618394483528269"><ele>285.0</ele><time>2026-04-08T12:01:01.002Z</time></trkpt><trkpt lat="42.05941477190679" lon="2.6186324222008066"><ele>285.0</ele><time>2026-04-08T12:01:02.002Z</time></trkpt><trkpt lat="42.05931000902165" lon="2.618899173322482"><ele>285.0</ele><time>2026-04-08T12:01:03.002Z</time></trkpt><trkpt lat="42.059202599957125" lon="2.619172662248522"><ele>285.0</ele><time>2026-04-08T12:01:04.002Z</time></trkpt><trkpt lat="42.05909117841685" lon="2.619456367888062"><ele>284.5</ele><time>2026-04-08T12:01:05.002Z</time></trkpt><trkpt lat="42.05897910738134" lon="2.6197417272927965"><ele>284.0</ele><time>2026-04-08T12:01:06.002Z</time></trkpt><trkpt lat="42.05886692097776" lon="2.6200298418388526"><ele>284.0</ele><time>2026-04-08T12:01:07.002Z</time></trkpt><trkpt lat="42.05875599066686" lon="2.6203150791518284"><ele>284.0</ele><time>2026-04-08T12:01:08.002Z</time></trkpt><trkpt lat="42.05864657927725" lon="2.620596410835677"><ele>283.5</ele><time>2026-04-08T12:01:09.002Z</time></trkpt><trkpt lat="42.05854004607079" lon="2.6208703417849106"><ele>283.0</ele><time>2026-04-08T12:01:10.002Z</time></trkpt><trkpt lat="42.058432502122876" lon="2.621147136138819"><ele>284.0</ele><time>2026-04-08T12:01:11.002Z</time></trkpt><trkpt lat="42.05832675346533" lon="2.621419652700765"><ele>285.0</ele><time>2026-04-08T12:01:12.002Z</time></trkpt><trkpt lat="42.0582205968062" lon="2.6216910491704537"><ele>283.6666666666667</ele><time>2026-04-08T12:01:13.002Z</time></trkpt><trkpt lat="42.05811503675281" lon="2.6219589519909166"><ele>282.33333333333337</ele><time>2026-04-08T12:01:14.002Z</time></trkpt><trkpt lat="42.0580110820698" lon="2.6222227794385065"><ele>281.0</ele><time>2026-04-08T12:01:15.002Z</time></trkpt><trkpt lat="42.057912181760095" lon="2.622480167002181"><ele>281.0</ele><time>2026-04-08T12:01:16.002Z</time></trkpt><trkpt lat="42.05780919702554" lon="2.622746890244875"><ele>281.0</ele><time>2026-04-08T12:01:17.002Z</time></trkpt><trkpt lat="42.05769785476297" lon="2.622977500699825"><ele>281.0</ele><time>2026-04-08T12:01:18.002Z</time></trkpt><trkpt lat="42.05755436509621" lon="2.6232087876548116"><ele>283.0</ele><time>2026-04-08T12:01:19.002Z</time></trkpt><trkpt lat="42.05739673245066" lon="2.623430021237302"><ele>285.0</ele><time>2026-04-08T12:01:20.002Z</time></trkpt><trkpt lat="42.057238985337854" lon="2.623654093656382"><ele>285.0</ele><time>2026-04-08T12:01:21.002Z</time></trkpt><trkpt lat="42.057101684497155" lon="2.623901091571417"><ele>285.0</ele><time>2026-04-08T12:01:22.002Z</time></trkpt><trkpt lat="42.05694289717039" lon="2.6241275969078552"><ele>285.0</ele><time>2026-04-08T12:01:23.002Z</time></trkpt><trkpt lat="42.05679024344138" lon="2.624345616502447"><ele>285.0</ele><time>2026-04-08T12:01:24.002Z</time></trkpt><trkpt lat="42.056636346535555" lon="2.6245653927642127"><ele>285.0</ele><time>2026-04-08T12:01:25.002Z</time></trkpt><trkpt lat="42.05646147105661" lon="2.6247588300190143"><ele>283.5</ele><time>2026-04-08T12:01:26.002Z</time></trkpt><trkpt lat="42.05630335683623" lon="2.624982276230616"><ele>282.0</ele><time>2026-04-08T12:01:27.002Z</time></trkpt><trkpt lat="42.05614076350481" lon="2.6252120522888958"><ele>280.5</ele><time>2026-04-08T12:01:28.002Z</time></trkpt><trkpt lat="42.05597282961832" lon="2.625450611408457"><ele>279.0</ele><time>2026-04-08T12:01:29.002Z</time></trkpt><trkpt lat="42.05580028656243" lon="2.6256979932593434"><ele>281.5</ele><time>2026-04-08T12:01:30.002Z</time></trkpt><trkpt lat="42.05562929903765" lon="2.6259404113306606"><ele>284.0</ele><time>2026-04-08T12:01:31.002Z</time></trkpt><trkpt lat="42.055457489964624" lon="2.626183762264145"><ele>284.0</ele><time>2026-04-08T12:01:32.002Z</time></trkpt><trkpt lat="42.055285117500794" lon="2.6264279111849844"><ele>284.0</ele><time>2026-04-08T12:01:33.001Z</time></trkpt><trkpt lat="42.05511157155804" lon="2.6266737222242114"><ele>283.5</ele><time>2026-04-08T12:01:34.001Z</time></trkpt><trkpt lat="42.05493671992591" lon="2.6269213826469686"><ele>283.0</ele><time>2026-04-08T12:01:35.001Z</time></trkpt><trkpt lat="42.05476153630773" lon="2.6271695132966255"><ele>283.0</ele><time>2026-04-08T12:01:36.001Z</time></trkpt><trkpt lat="42.05459432828487" lon="2.627406347300481"><ele>283.0</ele><time>2026-04-08T12:01:37.001Z</time></trkpt><trkpt lat="42.0544380166314" lon="2.627627066208659"><ele>281.66666666666663</ele><time>2026-04-08T12:01:38.001Z</time></trkpt><trkpt lat="42.054289506979075" lon="2.62783653659889"><ele>280.3333333333333</ele><time>2026-04-08T12:01:39.001Z</time></trkpt><trkpt lat="42.05415113002661" lon="2.6280254486055465"><ele>279.0</ele><time>2026-04-08T12:01:40.001Z</time></trkpt><trkpt lat="42.054033563981285" lon="2.62820028496301"><ele>279.0</ele><time>2026-04-08T12:01:41.001Z</time></trkpt><trkpt lat="42.05388065375271" lon="2.6282870755569836"><ele>279.0</ele><time>2026-04-08T12:01:42.001Z</time></trkpt><trkpt lat="42.0537115437974" lon="2.6283693784970086"><ele>279.0</ele><time>2026-04-08T12:01:43.001Z</time></trkpt><trkpt lat="42.05351750473063" lon="2.628458123486191"><ele>279.0</ele><time>2026-04-08T12:01:44.001Z</time></trkpt><trkpt lat="42.053307945627786" lon="2.6285532107331275"><ele>279.0</ele><time>2026-04-08T12:01:45.001Z</time></trkpt><trkpt lat="42.053105123936405" lon="2.6286458664429038"><ele>279.0</ele><time>2026-04-08T12:01:46.001Z</time></trkpt><trkpt lat="42.05291501140052" lon="2.628732829455153"><ele>278.3333333333333</ele><time>2026-04-08T12:01:47.001Z</time></trkpt><trkpt lat="42.05273633767181" lon="2.628816748251666"><ele>277.66666666666663</ele><time>2026-04-08T12:01:48.001Z</time></trkpt><trkpt lat="42.05256736539477" lon="2.628897053721622"><ele>277.0</ele><time>2026-04-08T12:01:49.001Z</time></trkpt><trkpt lat="42.05240346885283" lon="2.6289709619191375"><ele>278.66666666666663</ele><time>2026-04-08T12:01:50.001Z</time></trkpt><trkpt lat="42.0522478944595" lon="2.6290411173359702"><ele>280.3333333333333</ele><time>2026-04-08T12:01:51.001Z</time></trkpt><trkpt lat="42.05210392028065" lon="2.6291280680714224"><ele>282.0</ele><time>2026-04-08T12:01:52.001Z</time></trkpt><trkpt lat="42.05195947404432" lon="2.6291736311671445"><ele>282.0</ele><time>2026-04-08T12:01:53.001Z</time></trkpt><trkpt lat="42.05184537617719" lon="2.6292720832226"><ele>282.0</ele><time>2026-04-08T12:01:54.001Z</time></trkpt><trkpt lat="42.05174078529956" lon="2.629365031572407"><ele>282.0</ele><time>2026-04-08T12:01:55.001Z</time></trkpt><trkpt lat="42.05167243425384" lon="2.6295157634719852"><ele>282.0</ele><time>2026-04-08T12:01:56.001Z</time></trkpt><trkpt lat="42.051629566802525" lon="2.629704845511773"><ele>293.3333333333333</ele><time>2026-04-08T12:01:57.001Z</time></trkpt><trkpt lat="42.0515972009102" lon="2.6299282129867625"><ele>304.66666666666663</ele><time>2026-04-08T12:01:58.001Z</time></trkpt><trkpt lat="42.05156134067213" lon="2.6301742541683097"><ele>316.0</ele><time>2026-04-08T12:01:59.001Z</time></trkpt><trkpt lat="42.05151856073731" lon="2.6304247992634373"><ele>316.0</ele><time>2026-04-08T12:02:00.001Z</time></trkpt><trkpt lat="42.051463204874366" lon="2.630663685978843"><ele>316.0</ele><time>2026-04-08T12:02:01.001Z</time></trkpt><trkpt lat="42.0513998091533" lon="2.630903057107968"><ele>316.0</ele><time>2026-04-08T12:02:02.001Z</time></trkpt><trkpt lat="42.05134289741044" lon="2.631137355463823"><ele>311.0</ele><time>2026-04-08T12:02:03.001Z</time></trkpt><trkpt lat="42.05128720770437" lon="2.6313666228421413"><ele>306.0</ele><time>2026-04-08T12:02:04.001Z</time></trkpt><trkpt lat="42.05123809310363" lon="2.6315714131115446"><ele>301.0</ele><time>2026-04-08T12:02:05.001Z</time></trkpt><trkpt lat="42.051193004823496" lon="2.631762309223817"><ele>301.0</ele><time>2026-04-08T12:02:06.001Z</time></trkpt><trkpt lat="42.05114458084259" lon="2.631932141515059"><ele>301.0</ele><time>2026-04-08T12:02:07.001Z</time></trkpt><trkpt lat="42.05107086567606" lon="2.6321018464684305"><ele>301.0</ele><time>2026-04-08T12:02:08.001Z</time></trkpt><trkpt lat="42.050975646527405" lon="2.6322680406278356"><ele>301.0</ele><time>2026-04-08T12:02:09.001Z</time></trkpt><trkpt lat="42.05086356722238" lon="2.6324365125988503"><ele>302.66666666666663</ele><time>2026-04-08T12:02:10.001Z</time></trkpt><trkpt lat="42.05074875728242" lon="2.6325922070512973"><ele>304.3333333333333</ele><time>2026-04-08T12:02:11.001Z</time></trkpt><trkpt lat="42.05063019631036" lon="2.632745169782226"><ele>306.0</ele><time>2026-04-08T12:02:12.001Z</time></trkpt><trkpt lat="42.05050811630268" lon="2.632891117943293"><ele>300.5</ele><time>2026-04-08T12:02:13.001Z</time></trkpt><trkpt lat="42.05039084641138" lon="2.633023286495517"><ele>295.0</ele><time>2026-04-08T12:02:14.001Z</time></trkpt><trkpt lat="42.05027796531539" lon="2.6331371772188334"><ele>289.5</ele><time>2026-04-08T12:02:15.001Z</time></trkpt><trkpt lat="42.05014817144084" lon="2.6332308893372276"><ele>284.0</ele><time>2026-04-08T12:02:16.001Z</time></trkpt><trkpt lat="42.04998999424116" lon="2.6333052287977914"><ele>286.0</ele><time>2026-04-08T12:02:17.001Z</time></trkpt><trkpt lat="42.049802471795275" lon="2.633381173655252"><ele>288.0</ele><time>2026-04-08T12:02:18.001Z</time></trkpt><trkpt lat="42.04960550390787" lon="2.6334615694113714"><ele>290.0</ele><time>2026-04-08T12:02:19.001Z</time></trkpt><trkpt lat="42.049421733140676" lon="2.6335375344148635"><ele>290.0</ele><time>2026-04-08T12:02:20.001Z</time></trkpt><trkpt lat="42.04924240484741" lon="2.6336127368894298"><ele>290.0</ele><time>2026-04-08T12:02:21.001Z</time></trkpt><trkpt lat="42.049056319103656" lon="2.6336907740074715"><ele>290.0</ele><time>2026-04-08T12:02:22.001Z</time></trkpt><trkpt lat="42.04887120585348" lon="2.6337857001736924"><ele>286.6666666666667</ele><time>2026-04-08T12:02:23.001Z</time></trkpt><trkpt lat="42.04867738085015" lon="2.633854716336339"><ele>283.3333333333333</ele><time>2026-04-08T12:02:24.001Z</time></trkpt><trkpt lat="42.048484059453834" lon="2.633934991562472"><ele>280.0</ele><time>2026-04-08T12:02:25.001Z</time></trkpt><trkpt lat="42.04829387740243" lon="2.6340304690425778"><ele>286.3333333333333</ele><time>2026-04-08T12:02:26.001Z</time></trkpt><trkpt lat="42.04812035062881" lon="2.634125032390229"><ele>292.6666666666667</ele><time>2026-04-08T12:02:27.001Z</time></trkpt><trkpt lat="42.04796073337024" lon="2.6342161401062776"><ele>299.0</ele><time>2026-04-08T12:02:28.001Z</time></trkpt><trkpt lat="42.04780897079251" lon="2.6343331338397324"><ele>297.0</ele><time>2026-04-08T12:02:29.001Z</time></trkpt><trkpt lat="42.047665477119956" lon="2.6344931481604954"><ele>295.0</ele><time>2026-04-08T12:02:30.001Z</time></trkpt><trkpt lat="42.04753227102768" lon="2.6346648564850494"><ele>293.0</ele><time>2026-04-08T12:02:31.001Z</time></trkpt><trkpt lat="42.04740863998489" lon="2.6348264921687057"><ele>293.0</ele><time>2026-04-08T12:02:32.001Z</time></trkpt><trkpt lat="42.047299185116174" lon="2.6349645555459387"><ele>293.0</ele><time>2026-04-08T12:02:33.001Z</time></trkpt><trkpt lat="42.04721039466061" lon="2.635089171066624"><ele>293.0</ele><time>2026-04-08T12:02:34.001Z</time></trkpt><trkpt lat="42.04715460036454" lon="2.635230870475015"><ele>293.0</ele><time>2026-04-08T12:02:35.001Z</time></trkpt><trkpt lat="42.04713586655977" lon="2.635403990711305"><ele>289.5</ele><time>2026-04-08T12:02:36.001Z</time></trkpt><trkpt lat="42.04711948769082" lon="2.6355963683635912"><ele>286.0</ele><time>2026-04-08T12:02:37.001Z</time></trkpt><trkpt lat="42.04707548510538" lon="2.6357737363148273"><ele>282.5</ele><time>2026-04-08T12:02:38.001Z</time></trkpt><trkpt lat="42.04699688648665" lon="2.6359602126639743"><ele>279.0</ele><time>2026-04-08T12:02:39.001Z</time></trkpt><trkpt lat="42.04689569309568" lon="2.6361643718499734"><ele>278.3333333333333</ele><time>2026-04-08T12:02:40.001Z</time></trkpt><trkpt lat="42.046776082700816" lon="2.636395211232442"><ele>277.66666666666663</ele><time>2026-04-08T12:02:41.001Z</time></trkpt><trkpt lat="42.04664960797634" lon="2.6366490464964656"><ele>277.0</ele><time>2026-04-08T12:02:42.001Z</time></trkpt><trkpt lat="42.046512090969536" lon="2.6369147530219967"><ele>275.5</ele><time>2026-04-08T12:02:43.001Z</time></trkpt><trkpt lat="42.046376671147264" lon="2.6371774804392283"><ele>274.0</ele><time>2026-04-08T12:02:44.001Z</time></trkpt><trkpt lat="42.046233270674286" lon="2.637455434283206"><ele>274.0</ele><time>2026-04-08T12:02:45.001Z</time></trkpt><trkpt lat="42.04608911297979" lon="2.637734495913523"><ele>274.0</ele><time>2026-04-08T12:02:46.001Z</time></trkpt><trkpt lat="42.04594751553728" lon="2.638006746744883"><ele>273.0</ele><time>2026-04-08T12:02:47.001Z</time></trkpt><trkpt lat="42.04579675712086" lon="2.638295926315705"><ele>272.0</ele><time>2026-04-08T12:02:48.001Z</time></trkpt><trkpt lat="42.045637251146246" lon="2.6385977623876755"><ele>271.0</ele><time>2026-04-08T12:02:49.001Z</time></trkpt><trkpt lat="42.04547804111145" lon="2.638905484851629"><ele>270.0</ele><time>2026-04-08T12:02:50.001Z</time></trkpt><trkpt lat="42.045329683077455" lon="2.639197902334815"><ele>268.0</ele><time>2026-04-08T12:02:51.001Z</time></trkpt><trkpt lat="42.045190935170545" lon="2.639476097506347"><ele>266.0</ele><time>2026-04-08T12:02:52.001Z</time></trkpt><trkpt lat="42.04505823502193" lon="2.6397394549438955"><ele>266.0</ele><time>2026-04-08T12:02:53.001Z</time></trkpt><trkpt lat="42.044930452630595" lon="2.63998513338357"><ele>266.0</ele><time>2026-04-08T12:02:54.001Z</time></trkpt><trkpt lat="42.044807493592785" lon="2.6402227676127286"><ele>266.0</ele><time>2026-04-08T12:02:55.001Z</time></trkpt><trkpt lat="42.044692526048856" lon="2.6404418625383834"><ele>266.0</ele><time>2026-04-08T12:02:56.001Z</time></trkpt><trkpt lat="42.04458677903741" lon="2.6406280308132204"><ele>266.0</ele><time>2026-04-08T12:02:57.001Z</time></trkpt><trkpt lat="42.04447589156402" lon="2.6407808385143996"><ele>266.0</ele><time>2026-04-08T12:02:58.001Z</time></trkpt><trkpt lat="42.04435721741977" lon="2.64092024865154"><ele>266.0</ele><time>2026-04-08T12:02:59.001Z</time></trkpt><trkpt lat="42.04421568132747" lon="2.6410483123259834"><ele>266.0</ele><time>2026-04-08T12:03:00.001Z</time></trkpt><trkpt lat="42.04404153117126" lon="2.641161488769193"><ele>266.0</ele><time>2026-04-08T12:03:01.001Z</time></trkpt><trkpt lat="42.043829982847825" lon="2.6412327189947735"><ele>263.0</ele><time>2026-04-08T12:03:02.001Z</time></trkpt><trkpt lat="42.04360691566468" lon="2.641354273207896"><ele>260.0</ele><time>2026-04-08T12:03:03.001Z</time></trkpt><trkpt lat="42.04339258283412" lon="2.641474190294157"><ele>260.0</ele><time>2026-04-08T12:03:04.001Z</time></trkpt><trkpt lat="42.04319135353977" lon="2.6415817220344557"><ele>260.0</ele><time>2026-04-08T12:03:05.001Z</time></trkpt><trkpt lat="42.04298897186513" lon="2.6416827324035057"><ele>260.0</ele><time>2026-04-08T12:03:06.001Z</time></trkpt><trkpt lat="42.04277335483734" lon="2.6417654369436208"><ele>260.0</ele><time>2026-04-08T12:03:07.001Z</time></trkpt><trkpt lat="42.04255732986286" lon="2.6418285418636422"><ele>260.0</ele><time>2026-04-08T12:03:08.001Z</time></trkpt><trkpt lat="42.04235103625174" lon="2.6418878295239767"><ele>260.0</ele><time>2026-04-08T12:03:09.001Z</time></trkpt><trkpt lat="42.04215953692144" lon="2.64194465609517"><ele>258.0</ele><time>2026-04-08T12:03:10.001Z</time></trkpt><trkpt lat="42.04198865653729" lon="2.64199536408282"><ele>256.0</ele><time>2026-04-08T12:03:11.001Z</time></trkpt><trkpt lat="42.0418333981981" lon="2.642042236606845"><ele>254.0</ele><time>2026-04-08T12:03:12.001Z</time></trkpt><trkpt lat="42.04170315575356" lon="2.6421003494084268"><ele>253.75</ele><time>2026-04-08T12:03:13.001Z</time></trkpt><trkpt lat="42.04157562806632" lon="2.6421160674266044"><ele>253.5</ele><time>2026-04-08T12:03:14.001Z</time></trkpt><trkpt lat="42.04146553622618" lon="2.642093301035953"><ele>253.25</ele><time>2026-04-08T12:03:15.002Z</time></trkpt><trkpt lat="42.0413595306779" lon="2.6420344742980086"><ele>253.0</ele><time>2026-04-08T12:03:16.002Z</time></trkpt><trkpt lat="42.04124623350101" lon="2.6419292494770463"><ele>252.66666666666666</ele><time>2026-04-08T12:03:17.002Z</time></trkpt><trkpt lat="42.04111588674839" lon="2.6417956266507225"><ele>252.33333333333331</ele><time>2026-04-08T12:03:18.002Z</time></trkpt><trkpt lat="42.04098914243945" lon="2.641664394621003"><ele>252.0</ele><time>2026-04-08T12:03:19.002Z</time></trkpt><trkpt lat="42.04085690904697" lon="2.6415595185209155"><ele>254.0</ele><time>2026-04-08T12:03:20.002Z</time></trkpt><trkpt lat="42.040696539634496" lon="2.6414986160669836"><ele>256.0</ele><time>2026-04-08T12:03:21.002Z</time></trkpt><trkpt lat="42.04053400727805" lon="2.6414594314576467"><ele>258.0</ele><time>2026-04-08T12:03:22.002Z</time></trkpt><trkpt lat="42.04039459951253" lon="2.641419702201033"><ele>258.0</ele><time>2026-04-08T12:03:23.002Z</time></trkpt><trkpt lat="42.04028550175476" lon="2.641384259832327"><ele>258.0</ele><time>2026-04-08T12:03:24.002Z</time></trkpt><trkpt lat="42.04019190237173" lon="2.641371088402101"><ele>258.0</ele><time>2026-04-08T12:03:25.002Z</time></trkpt><trkpt lat="42.04011137724619" lon="2.6413626279994205"><ele>258.0</ele><time>2026-04-08T12:03:26.002Z</time></trkpt><trkpt lat="42.040024085947024" lon="2.641434207663725"><ele>258.0</ele><time>2026-04-08T12:03:27.002Z</time></trkpt><trkpt lat="42.03996095756485" lon="2.6415729111599577"><ele>258.5</ele><time>2026-04-08T12:03:28.002Z</time></trkpt><trkpt lat="42.03992792091985" lon="2.641763314571258"><ele>259.0</ele><time>2026-04-08T12:03:29.002Z</time></trkpt><trkpt lat="42.03989432761634" lon="2.6419711791012563"><ele>259.5</ele><time>2026-04-08T12:03:30.002Z</time></trkpt><trkpt lat="42.039858654106006" lon="2.6421523276877465"><ele>260.0</ele><time>2026-04-08T12:03:31.002Z</time></trkpt><trkpt lat="42.03979144220201" lon="2.6423168721215573"><ele>260.0</ele><time>2026-04-08T12:03:32.002Z</time></trkpt><trkpt lat="42.039676757781336" lon="2.642476327190557"><ele>260.0</ele><time>2026-04-08T12:03:33.002Z</time></trkpt><trkpt lat="42.03953107052159" lon="2.642663236098789"><ele>260.0</ele><time>2026-04-08T12:03:34.002Z</time></trkpt><trkpt lat="42.03937912181611" lon="2.6428625521883293"><ele>255.5</ele><time>2026-04-08T12:03:35.002Z</time></trkpt><trkpt lat="42.03921904085377" lon="2.643074798485948"><ele>251.0</ele><time>2026-04-08T12:03:36.002Z</time></trkpt><trkpt lat="42.0390365368228" lon="2.6433112017892233"><ele>254.5</ele><time>2026-04-08T12:03:37.002Z</time></trkpt><trkpt lat="42.03886786455408" lon="2.643529688252269"><ele>258.0</ele><time>2026-04-08T12:03:38.002Z</time></trkpt><trkpt lat="42.038710810809384" lon="2.6437344523228705"><ele>258.0</ele><time>2026-04-08T12:03:39.001Z</time></trkpt><trkpt lat="42.03856435609557" lon="2.643926379275612"><ele>258.0</ele><time>2026-04-08T12:03:40.001Z</time></trkpt><trkpt lat="42.03842468851069" lon="2.6441094117736204"><ele>258.0</ele><time>2026-04-08T12:03:41.001Z</time></trkpt><trkpt lat="42.03827845105086" lon="2.6443010540501937"><ele>260.3333333333333</ele><time>2026-04-08T12:03:42.001Z</time></trkpt><trkpt lat="42.03814953160675" lon="2.644477347288947"><ele>262.66666666666663</ele><time>2026-04-08T12:03:43.001Z</time></trkpt><trkpt lat="42.03802638075598" lon="2.6446613173211606"><ele>265.0</ele><time>2026-04-08T12:03:44.001Z</time></trkpt><trkpt lat="42.0379161782798" lon="2.6448578267112492"><ele>265.0</ele><time>2026-04-08T12:03:45.001Z</time></trkpt><trkpt lat="42.03782160699282" lon="2.645074252035088"><ele>265.0</ele><time>2026-04-08T12:03:46.001Z</time></trkpt><trkpt lat="42.037732140860754" lon="2.645310929921593"><ele>265.0</ele><time>2026-04-08T12:03:47.001Z</time></trkpt><trkpt lat="42.03764255454342" lon="2.645530406679534"><ele>261.0</ele><time>2026-04-08T12:03:48.001Z</time></trkpt><trkpt lat="42.03756231785733" lon="2.645727667072212"><ele>257.0</ele><time>2026-04-08T12:03:49.001Z</time></trkpt><trkpt lat="42.037482019713444" lon="2.645926494170252"><ele>253.0</ele><time>2026-04-08T12:03:50.001Z</time></trkpt><trkpt lat="42.037395851076" lon="2.6461301240422523"><ele>252.66666666666666</ele><time>2026-04-08T12:03:51.001Z</time></trkpt><trkpt lat="42.03731605980746" lon="2.646332605004921"><ele>252.33333333333331</ele><time>2026-04-08T12:03:52.001Z</time></trkpt><trkpt lat="42.03722784531181" lon="2.6465543137324063"><ele>252.0</ele><time>2026-04-08T12:03:53.001Z</time></trkpt><trkpt lat="42.03714567711203" lon="2.6467554165251608"><ele>252.0</ele><time>2026-04-08T12:03:54.001Z</time></trkpt><trkpt lat="42.037063122717726" lon="2.646950137870425"><ele>252.0</ele><time>2026-04-08T12:03:55.001Z</time></trkpt><trkpt lat="42.03698379459526" lon="2.647126030556859"><ele>252.0</ele><time>2026-04-08T12:03:56.001Z</time></trkpt><trkpt lat="42.03689922187182" lon="2.6472815705123023"><ele>252.25</ele><time>2026-04-08T12:03:57.001Z</time></trkpt><trkpt lat="42.03679392844312" lon="2.6474118780587133"><ele>252.5</ele><time>2026-04-08T12:03:58.001Z</time></trkpt><trkpt lat="42.03668700961765" lon="2.6475445875072907"><ele>252.75</ele><time>2026-04-08T12:03:59.001Z</time></trkpt><trkpt lat="42.036598709614644" lon="2.647673251227818"><ele>253.0</ele><time>2026-04-08T12:04:00.001Z</time></trkpt><trkpt lat="42.036525424678466" lon="2.6477974015203043"><ele>251.5</ele><time>2026-04-08T12:04:01.001Z</time></trkpt><trkpt lat="42.036464490057135" lon="2.6478912347525605"><ele>250.0</ele><time>2026-04-08T12:04:02.001Z</time></trkpt><trkpt lat="42.03637190860099" lon="2.647980625818607"><ele>248.5</ele><time>2026-04-08T12:04:03.001Z</time></trkpt><trkpt lat="42.03625347253713" lon="2.64803639952738"><ele>247.0</ele><time>2026-04-08T12:04:04.001Z</time></trkpt><trkpt lat="42.03611339144934" lon="2.648087767208899"><ele>247.0</ele><time>2026-04-08T12:04:05.001Z</time></trkpt><trkpt lat="42.03594594242721" lon="2.648156058062984"><ele>247.0</ele><time>2026-04-08T12:04:06.001Z</time></trkpt><trkpt lat="42.03575693819131" lon="2.6482068227198003"><ele>247.0</ele><time>2026-04-08T12:04:07.001Z</time></trkpt><trkpt lat="42.03556941350113" lon="2.648264063817611"><ele>247.33333333333331</ele><time>2026-04-08T12:04:08.001Z</time></trkpt><trkpt lat="42.035394042284324" lon="2.648311459925245"><ele>247.66666666666669</ele><time>2026-04-08T12:04:09.001Z</time></trkpt><trkpt lat="42.03523095453963" lon="2.648356226850886"><ele>248.0</ele><time>2026-04-08T12:04:10.001Z</time></trkpt><trkpt lat="42.03506988526456" lon="2.6483886818567504"><ele>247.66666666666669</ele><time>2026-04-08T12:04:11.001Z</time></trkpt><trkpt lat="42.03492024485063" lon="2.6484750120392264"><ele>247.33333333333331</ele><time>2026-04-08T12:04:12.001Z</time></trkpt><trkpt lat="42.034784784834706" lon="2.648592448372769"><ele>247.0</ele><time>2026-04-08T12:04:13.001Z</time></trkpt><trkpt lat="42.034658041858854" lon="2.6487554935504902"><ele>247.0</ele><time>2026-04-08T12:04:14.001Z</time></trkpt><trkpt lat="42.034534453494416" lon="2.648965187695307"><ele>247.0</ele><time>2026-04-08T12:04:15.001Z</time></trkpt><trkpt lat="42.03440691751504" lon="2.649208208279104"><ele>247.0</ele><time>2026-04-08T12:04:16.001Z</time></trkpt><trkpt lat="42.03427407262692" lon="2.6494613751363936"><ele>246.0</ele><time>2026-04-08T12:04:17.001Z</time></trkpt><trkpt lat="42.034139214565684" lon="2.6497183785846343"><ele>245.0</ele><time>2026-04-08T12:04:18.001Z</time></trkpt><trkpt lat="42.03398991476898" lon="2.6500040903842637"><ele>244.0</ele><time>2026-04-08T12:04:19.001Z</time></trkpt><trkpt lat="42.03383356567938" lon="2.650298982110112"><ele>243.0</ele><time>2026-04-08T12:04:20.001Z</time></trkpt><trkpt lat="42.03367893627957" lon="2.6505906303956444"><ele>243.0</ele><time>2026-04-08T12:04:21.001Z</time></trkpt><trkpt lat="42.033513122406994" lon="2.6509033738158"><ele>243.0</ele><time>2026-04-08T12:04:22.001Z</time></trkpt><trkpt lat="42.03334002534326" lon="2.6512298541812713"><ele>246.0</ele><time>2026-04-08T12:04:23.001Z</time></trkpt><trkpt lat="42.03317327876859" lon="2.651544356778537"><ele>249.0</ele><time>2026-04-08T12:04:24.001Z</time></trkpt><trkpt lat="42.03300872585685" lon="2.6518547218936774"><ele>246.5</ele><time>2026-04-08T12:04:25.001Z</time></trkpt><trkpt lat="42.03284996875016" lon="2.6521548417585397"><ele>244.0</ele><time>2026-04-08T12:04:26.001Z</time></trkpt><trkpt lat="42.0326902211909" lon="2.6524571332628537"><ele>244.0</ele><time>2026-04-08T12:04:27.001Z</time></trkpt><trkpt lat="42.03253219735445" lon="2.652755846029878"><ele>244.0</ele><time>2026-04-08T12:04:28.001Z</time></trkpt><trkpt lat="42.03237215942756" lon="2.6530576928391985"><ele>245.0</ele><time>2026-04-08T12:04:29.001Z</time></trkpt><trkpt lat="42.03221756206196" lon="2.6533499016979856"><ele>246.0</ele><time>2026-04-08T12:04:30.001Z</time></trkpt><trkpt lat="42.03207341009955" lon="2.6536223673383104"><ele>246.0</ele><time>2026-04-08T12:04:31.001Z</time></trkpt><trkpt lat="42.03193354433624" lon="2.653886731567392"><ele>246.0</ele><time>2026-04-08T12:04:32.001Z</time></trkpt><trkpt lat="42.031797862058546" lon="2.6541431006262495"><ele>246.0</ele><time>2026-04-08T12:04:33.001Z</time></trkpt><trkpt lat="42.031656593180564" lon="2.6544096758036635"><ele>246.0</ele><time>2026-04-08T12:04:34.001Z</time></trkpt><trkpt lat="42.031514089420554" lon="2.654678581383624"><ele>244.5</ele><time>2026-04-08T12:04:35.001Z</time></trkpt><trkpt lat="42.031366117039624" lon="2.6549578060938077"><ele>243.0</ele><time>2026-04-08T12:04:36.001Z</time></trkpt><trkpt lat="42.03121230259863" lon="2.655248054872959"><ele>241.5</ele><time>2026-04-08T12:04:37.001Z</time></trkpt><trkpt lat="42.031051011334675" lon="2.65555241261285"><ele>240.0</ele><time>2026-04-08T12:04:38.001Z</time></trkpt><trkpt lat="42.03088508934033" lon="2.655865192206351"><ele>239.5</ele><time>2026-04-08T12:04:39.001Z</time></trkpt><trkpt lat="42.030717210025585" lon="2.656181357490906"><ele>239.0</ele><time>2026-04-08T12:04:40.001Z</time></trkpt><trkpt lat="42.030549910374276" lon="2.6564964311693773"><ele>239.0</ele><time>2026-04-08T12:04:41.001Z</time></trkpt><trkpt lat="42.03038162755319" lon="2.6568133565634326"><ele>239.0</ele><time>2026-04-08T12:04:42.001Z</time></trkpt><trkpt lat="42.03021546475793" lon="2.657126289314573"><ele>238.5</ele><time>2026-04-08T12:04:43.001Z</time></trkpt><trkpt lat="42.03005083773126" lon="2.65743632981657"><ele>238.0</ele><time>2026-04-08T12:04:44.001Z</time></trkpt><trkpt lat="42.029891920700415" lon="2.657735625409343"><ele>237.5</ele><time>2026-04-08T12:04:45.001Z</time></trkpt><trkpt lat="42.02973901547656" lon="2.658023608251492"><ele>237.0</ele><time>2026-04-08T12:04:46.001Z</time></trkpt><trkpt lat="42.02958915750671" lon="2.6583083840173054"><ele>237.0</ele><time>2026-04-08T12:04:47.001Z</time></trkpt><trkpt lat="42.02945201903649" lon="2.6586068324486014"><ele>237.0</ele><time>2026-04-08T12:04:48.001Z</time></trkpt><trkpt lat="42.029296676323135" lon="2.6589053798807702"><ele>237.0</ele><time>2026-04-08T12:04:49.001Z</time></trkpt><trkpt lat="42.02913735983752" lon="2.6592124010353015"><ele>237.0</ele><time>2026-04-08T12:04:50.001Z</time></trkpt><trkpt lat="42.02898170800718" lon="2.6595124422088023"><ele>236.0</ele><time>2026-04-08T12:04:51.001Z</time></trkpt><trkpt lat="42.02882628136701" lon="2.6598088976857035"><ele>235.0</ele><time>2026-04-08T12:04:52.001Z</time></trkpt><trkpt lat="42.028667450068646" lon="2.6600999755517396"><ele>235.5</ele><time>2026-04-08T12:04:53.001Z</time></trkpt><trkpt lat="42.02851146791376" lon="2.660387644067092"><ele>236.0</ele><time>2026-04-08T12:04:54.001Z</time></trkpt><trkpt lat="42.028359837630596" lon="2.6606712058363837"><ele>235.5</ele><time>2026-04-08T12:04:55.001Z</time></trkpt><trkpt lat="42.028211616555865" lon="2.6609489486456104"><ele>235.0</ele><time>2026-04-08T12:04:56.001Z</time></trkpt><trkpt lat="42.028064828944686" lon="2.6612249943357837"><ele>235.0</ele><time>2026-04-08T12:04:57.001Z</time></trkpt><trkpt lat="42.02792134553994" lon="2.661502337259654"><ele>235.0</ele><time>2026-04-08T12:04:58.001Z</time></trkpt><trkpt lat="42.02778131667341" lon="2.661765022559925"><ele>234.66666666666666</ele><time>2026-04-08T12:04:59.001Z</time></trkpt><trkpt lat="42.02764971938002" lon="2.6620117185031145"><ele>234.33333333333331</ele><time>2026-04-08T12:05:00.001Z</time></trkpt><trkpt lat="42.02752502268564" lon="2.662251308691694"><ele>234.0</ele><time>2026-04-08T12:05:01.001Z</time></trkpt><trkpt lat="42.02739647267376" lon="2.662493774154145"><ele>234.0</ele><time>2026-04-08T12:05:02.001Z</time></trkpt><trkpt lat="42.02726748400013" lon="2.6627368289992694"><ele>234.0</ele><time>2026-04-08T12:05:03.001Z</time></trkpt><trkpt lat="42.02713822929707" lon="2.662980975138345"><ele>234.0</ele><time>2026-04-08T12:05:04.001Z</time></trkpt><trkpt lat="42.027007975097064" lon="2.663225568980746"><ele>234.0</ele><time>2026-04-08T12:05:05.001Z</time></trkpt><trkpt lat="42.02688365169182" lon="2.6634664186882833"><ele>234.0</ele><time>2026-04-08T12:05:06.001Z</time></trkpt><trkpt lat="42.02676623193952" lon="2.6636919949821034"><ele>234.0</ele><time>2026-04-08T12:05:07.001Z</time></trkpt><trkpt lat="42.026652998160344" lon="2.6639036667762164"><ele>236.33333333333331</ele><time>2026-04-08T12:05:08.001Z</time></trkpt><trkpt lat="42.026541908979326" lon="2.6641061835418256"><ele>238.66666666666666</ele><time>2026-04-08T12:05:09.001Z</time></trkpt><trkpt lat="42.02643141533772" lon="2.664312797152869"><ele>241.0</ele><time>2026-04-08T12:05:10.001Z</time></trkpt><trkpt lat="42.02631233507109" lon="2.66453375189905"><ele>241.0</ele><time>2026-04-08T12:05:11.001Z</time></trkpt><trkpt lat="42.02619531534732" lon="2.6647564639279726"><ele>241.0</ele><time>2026-04-08T12:05:12.001Z</time></trkpt><trkpt lat="42.02608659818669" lon="2.6649626114918554"><ele>241.0</ele><time>2026-04-08T12:05:13.001Z</time></trkpt><trkpt lat="42.02598474966917" lon="2.6651558102005226"><ele>239.75</ele><time>2026-04-08T12:05:14.001Z</time></trkpt><trkpt lat="42.02588777128191" lon="2.6653395192331404"><ele>238.5</ele><time>2026-04-08T12:05:15.001Z</time></trkpt><trkpt lat="42.02580335797977" lon="2.6655063269608994"><ele>237.25</ele><time>2026-04-08T12:05:16.001Z</time></trkpt><trkpt lat="42.025740509164805" lon="2.6656460202585346"><ele>236.0</ele><time>2026-04-08T12:05:17.001Z</time></trkpt><trkpt lat="42.02569441787106" lon="2.6657704542572493"><ele>235.8</ele><time>2026-04-08T12:05:18.001Z</time></trkpt><trkpt lat="42.02568760854512" lon="2.665887051076664"><ele>235.60000000000002</ele><time>2026-04-08T12:05:19.001Z</time></trkpt><trkpt lat="42.025683299529476" lon="2.666012310227817"><ele>235.4</ele><time>2026-04-08T12:05:20.001Z</time></trkpt><trkpt lat="42.025706540656756" lon="2.6661457629911376"><ele>235.2</ele><time>2026-04-08T12:05:21.001Z</time></trkpt><trkpt lat="42.02575374439607" lon="2.66626903924141"><ele>235.0</ele><time>2026-04-08T12:05:22.001Z</time></trkpt><trkpt lat="42.025826207372496" lon="2.666374937718362"><ele>235.0</ele><time>2026-04-08T12:05:23.001Z</time></trkpt><trkpt lat="42.02591772380114" lon="2.6664569595793703"><ele>235.0</ele><time>2026-04-08T12:05:24.001Z</time></trkpt><trkpt lat="42.02601691492761" lon="2.6665456951085083"><ele>235.0</ele><time>2026-04-08T12:05:25.001Z</time></trkpt><trkpt lat="42.02612512724784" lon="2.666634368197812"><ele>235.0</ele><time>2026-04-08T12:05:26.001Z</time></trkpt><trkpt lat="42.026224996826144" lon="2.6667154849676393"><ele>234.99999999999997</ele><time>2026-04-08T12:05:27.002Z</time></trkpt><trkpt lat="42.02631433603826" lon="2.666785355089362"><ele>235.0</ele><time>2026-04-08T12:05:28.002Z</time></trkpt><trkpt lat="42.026391818115506" lon="2.666849022702778"><ele>235.0</ele><time>2026-04-08T12:05:29.002Z</time></trkpt><trkpt lat="42.026453900714806" lon="2.6668980316184374"><ele>235.0</ele><time>2026-04-08T12:05:30.002Z</time></trkpt><trkpt lat="42.02648630425103" lon="2.667002813907558"><ele>234.99999999999997</ele><time>2026-04-08T12:05:33.002Z</time></trkpt><trkpt lat="42.02643345418698" lon="2.6670936521294304"><ele>235.0</ele><time>2026-04-08T12:05:35.002Z</time></trkpt><trkpt lat="42.02638668995564" lon="2.667175807717666"><ele>235.2</ele><time>2026-04-08T12:05:37.002Z</time></trkpt><trkpt lat="42.02635523559134" lon="2.6672761548928525"><ele>235.4</ele><time>2026-04-08T12:06:57.001Z</time></trkpt><trkpt lat="42.02641043553309" lon="2.6671420749780994"><ele>235.60000000000002</ele><time>2026-04-08T12:07:06.001Z</time></trkpt><trkpt lat="42.02645105429265" lon="2.6670658351936902"><ele>235.8</ele><time>2026-04-08T12:07:07.001Z</time></trkpt><trkpt lat="42.026514227185686" lon="2.6669830041683187"><ele>236.0</ele><time>2026-04-08T12:07:09.001Z</time></trkpt><trkpt lat="42.026764310860166" lon="2.667177712781001"><ele>235.0</ele><time>2026-04-08T12:07:14.001Z</time></trkpt><trkpt lat="42.02684041219846" lon="2.6672779090328813"><ele>234.0</ele><time>2026-04-08T12:07:15.001Z</time></trkpt><trkpt lat="42.02691368672826" lon="2.667424274631459"><ele>233.0</ele><time>2026-04-08T12:07:16.001Z</time></trkpt><trkpt lat="42.02698328527196" lon="2.6676085251879207"><ele>232.0</ele><time>2026-04-08T12:07:17.001Z</time></trkpt><trkpt lat="42.027043624803035" lon="2.667798073034218"><ele>232.0</ele><time>2026-04-08T12:07:18.001Z</time></trkpt><trkpt lat="42.027113389430774" lon="2.668005798373611"><ele>232.0</ele><time>2026-04-08T12:07:19.001Z</time></trkpt><trkpt lat="42.02717790146205" lon="2.6682120412762305"><ele>232.0</ele><time>2026-04-08T12:07:20.001Z</time></trkpt><trkpt lat="42.02724195738134" lon="2.6684169732703302"><ele>231.33333333333331</ele><time>2026-04-08T12:07:21.001Z</time></trkpt><trkpt lat="42.02728454974826" lon="2.6686196753841154"><ele>230.66666666666669</ele><time>2026-04-08T12:07:22.001Z</time></trkpt><trkpt lat="42.02730373110871" lon="2.668835422029566"><ele>230.0</ele><time>2026-04-08T12:07:23.001Z</time></trkpt><trkpt lat="42.02729430414972" lon="2.669063334868522"><ele>230.0</ele><time>2026-04-08T12:07:24.001Z</time></trkpt><trkpt lat="42.02730323350422" lon="2.6692800294068086"><ele>230.0</ele><time>2026-04-08T12:07:25.001Z</time></trkpt><trkpt lat="42.027341825482395" lon="2.6694623704547067"><ele>230.0</ele><time>2026-04-08T12:07:26.001Z</time></trkpt><trkpt lat="42.02738435076422" lon="2.6696301482603655"><ele>230.0</ele><time>2026-04-08T12:07:27.001Z</time></trkpt><trkpt lat="42.02744328349555" lon="2.669781910943322"><ele>232.8</ele><time>2026-04-08T12:07:28.001Z</time></trkpt><trkpt lat="42.02749247347576" lon="2.6699116960528726"><ele>235.6</ele><time>2026-04-08T12:07:29.001Z</time></trkpt><trkpt lat="42.027518739048915" lon="2.6700398375457164"><ele>238.39999999999998</ele><time>2026-04-08T12:07:30.001Z</time></trkpt><trkpt lat="42.02752451236907" lon="2.6701781480436595"><ele>241.2</ele><time>2026-04-08T12:07:31.001Z</time></trkpt><trkpt lat="42.02752674418057" lon="2.6703536975084656"><ele>244.0</ele><time>2026-04-08T12:07:32.001Z</time></trkpt><trkpt lat="42.027477839979454" lon="2.6705500658002186"><ele>241.33333333333331</ele><time>2026-04-08T12:07:33.001Z</time></trkpt><trkpt lat="42.027409203050404" lon="2.6707602647678335"><ele>238.66666666666669</ele><time>2026-04-08T12:07:34.001Z</time></trkpt><trkpt lat="42.027338495033206" lon="2.6710019567473555"><ele>236.0</ele><time>2026-04-08T12:07:35.001Z</time></trkpt><trkpt lat="42.02727496081601" lon="2.6712376164817497"><ele>236.0</ele><time>2026-04-08T12:07:36.001Z</time></trkpt><trkpt lat="42.02723060703854" lon="2.6714518691889366"><ele>236.0</ele><time>2026-04-08T12:07:37.001Z</time></trkpt><trkpt lat="42.02713664059625" lon="2.671630627137902"><ele>236.0</ele><time>2026-04-08T12:07:38.001Z</time></trkpt><trkpt lat="42.02704511540481" lon="2.6718033704021233"><ele>237.25</ele><time>2026-04-08T12:07:39.001Z</time></trkpt><trkpt lat="42.026943677324326" lon="2.6719576960378264"><ele>238.5</ele><time>2026-04-08T12:07:40.001Z</time></trkpt><trkpt lat="42.02684520126775" lon="2.6721118974904523"><ele>239.75</ele><time>2026-04-08T12:07:41.001Z</time></trkpt><trkpt lat="42.02677544870727" lon="2.6722601271825326"><ele>241.0</ele><time>2026-04-08T12:07:42.001Z</time></trkpt><trkpt lat="42.026723255254836" lon="2.672413138414787"><ele>241.0</ele><time>2026-04-08T12:07:43.001Z</time></trkpt><trkpt lat="42.02669820536539" lon="2.6726035187973642"><ele>241.0</ele><time>2026-04-08T12:07:44.001Z</time></trkpt><trkpt lat="42.02671904268507" lon="2.672808888273952"><ele>241.0</ele><time>2026-04-08T12:07:45.001Z</time></trkpt><trkpt lat="42.026745883335344" lon="2.6730012316895433"><ele>241.0</ele><time>2026-04-08T12:07:46.001Z</time></trkpt><trkpt lat="42.02679217926227" lon="2.6731735372333656"><ele>241.0</ele><time>2026-04-08T12:07:47.001Z</time></trkpt><trkpt lat="42.026866359907174" lon="2.6733137482256892"><ele>241.0</ele><time>2026-04-08T12:07:48.001Z</time></trkpt><trkpt lat="42.0269702420384" lon="2.6734264357431377"><ele>241.0</ele><time>2026-04-08T12:07:49.001Z</time></trkpt><trkpt lat="42.027102105746636" lon="2.6735299637923413"><ele>241.0</ele><time>2026-04-08T12:07:50.001Z</time></trkpt><trkpt lat="42.027242290875456" lon="2.6736294582294935"><ele>241.0</ele><time>2026-04-08T12:07:51.001Z</time></trkpt><trkpt lat="42.02737226772768" lon="2.6737206931609245"><ele>241.0</ele><time>2026-04-08T12:07:52.001Z</time></trkpt><trkpt lat="42.027488472623524" lon="2.673828036302372"><ele>241.0</ele><time>2026-04-08T12:07:53.001Z</time></trkpt><trkpt lat="42.02765108239366" lon="2.6741044755895778"><ele>242.0</ele><time>2026-04-08T12:07:55.001Z</time></trkpt><trkpt lat="42.02769079679645" lon="2.6742691898290207"><ele>243.0</ele><time>2026-04-08T12:07:56.001Z</time></trkpt><trkpt lat="42.027704067652614" lon="2.6744540526090734"><ele>244.0</ele><time>2026-04-08T12:07:57.001Z</time></trkpt><trkpt lat="42.02765973183711" lon="2.674648306441987"><ele>245.0</ele><time>2026-04-08T12:07:58.001Z</time></trkpt><trkpt lat="42.02761149903108" lon="2.6748711427286342"><ele>246.33333333333334</ele><time>2026-04-08T12:07:59.001Z</time></trkpt><trkpt lat="42.02756658234983" lon="2.675115269185392"><ele>247.66666666666669</ele><time>2026-04-08T12:08:00.001Z</time></trkpt><trkpt lat="42.02750648420334" lon="2.6753242066326686"><ele>249.0</ele><time>2026-04-08T12:08:01.001Z</time></trkpt><trkpt lat="42.02742937091236" lon="2.6755030598645124"><ele>250.25</ele><time>2026-04-08T12:08:02.001Z</time></trkpt><trkpt lat="42.02732875641152" lon="2.675659449738534"><ele>251.5</ele><time>2026-04-08T12:08:03.001Z</time></trkpt><trkpt lat="42.027228368247684" lon="2.6757934999695445"><ele>252.75</ele><time>2026-04-08T12:08:04.001Z</time></trkpt><trkpt lat="42.027128896719056" lon="2.6758952900133135"><ele>254.0</ele><time>2026-04-08T12:08:05.001Z</time></trkpt><trkpt lat="42.027019650916465" lon="2.6759611651471067"><ele>254.0</ele><time>2026-04-08T12:08:06.001Z</time></trkpt><trkpt lat="42.026890708905206" lon="2.675984362080924"><ele>254.0</ele><time>2026-04-08T12:08:07.001Z</time></trkpt><trkpt lat="42.02673784413379" lon="2.675968262192302"><ele>254.0</ele><time>2026-04-08T12:08:08.001Z</time></trkpt><trkpt lat="42.02655796236606" lon="2.6759442866817786"><ele>254.66666666666669</ele><time>2026-04-08T12:08:09.001Z</time></trkpt><trkpt lat="42.026360931785376" lon="2.6759395828765475"><ele>255.33333333333331</ele><time>2026-04-08T12:08:10.001Z</time></trkpt><trkpt lat="42.02617644239989" lon="2.675931882626108"><ele>256.0</ele><time>2026-04-08T12:08:11.001Z</time></trkpt><trkpt lat="42.02596014834285" lon="2.675962035131588"><ele>255.33333333333331</ele><time>2026-04-08T12:08:12.001Z</time></trkpt><trkpt lat="42.025735931576" lon="2.6759679355531447"><ele>254.66666666666669</ele><time>2026-04-08T12:08:13.001Z</time></trkpt><trkpt lat="42.02553428967606" lon="2.6759721620026027"><ele>254.0</ele><time>2026-04-08T12:08:14.001Z</time></trkpt><trkpt lat="42.025350833634526" lon="2.675976983697198"><ele>254.0</ele><time>2026-04-08T12:08:15.001Z</time></trkpt><trkpt lat="42.025189929175326" lon="2.675984283633667"><ele>254.0</ele><time>2026-04-08T12:08:16.001Z</time></trkpt><trkpt lat="42.025043084563805" lon="2.6759900511672488"><ele>254.0</ele><time>2026-04-08T12:08:17.001Z</time></trkpt><trkpt lat="42.02490862470246" lon="2.6760178700794754"><ele>254.0</ele><time>2026-04-08T12:08:18.001Z</time></trkpt><trkpt lat="42.02477905562609" lon="2.6760843591949297"><ele>255.33333333333334</ele><time>2026-04-08T12:08:19.001Z</time></trkpt><trkpt lat="42.02463822734748" lon="2.6762031191880897"><ele>256.6666666666667</ele><time>2026-04-08T12:08:20.001Z</time></trkpt><trkpt lat="42.02448470765842" lon="2.6763488588188165"><ele>258.0</ele><time>2026-04-08T12:08:21.001Z</time></trkpt><trkpt lat="42.024321979320234" lon="2.676502657533567"><ele>258.0</ele><time>2026-04-08T12:08:22.001Z</time></trkpt><trkpt lat="42.02417483656198" lon="2.676631378240677"><ele>258.0</ele><time>2026-04-08T12:08:23.001Z</time></trkpt><trkpt lat="42.024028145188545" lon="2.6767733173754293"><ele>258.0</ele><time>2026-04-08T12:08:24.001Z</time></trkpt><trkpt lat="42.023881516419664" lon="2.676946622467764"><ele>255.33333333333331</ele><time>2026-04-08T12:08:25.001Z</time></trkpt><trkpt lat="42.02374504498439" lon="2.6771553268057557"><ele>252.66666666666666</ele><time>2026-04-08T12:08:26.001Z</time></trkpt><trkpt lat="42.02360922104303" lon="2.677398650051023"><ele>250.0</ele><time>2026-04-08T12:08:27.001Z</time></trkpt><trkpt lat="42.0234681471517" lon="2.677657651049713"><ele>247.66666666666666</ele><time>2026-04-08T12:08:28.001Z</time></trkpt><trkpt lat="42.023332555232535" lon="2.677909348272902"><ele>245.33333333333331</ele><time>2026-04-08T12:08:29.001Z</time></trkpt><trkpt lat="42.02320901200529" lon="2.6781393786640226"><ele>243.0</ele><time>2026-04-08T12:08:30.001Z</time></trkpt><trkpt lat="42.023088945351205" lon="2.6783439871379287"><ele>243.0</ele><time>2026-04-08T12:08:31.001Z</time></trkpt><trkpt lat="42.022966551484494" lon="2.6785340115811915"><ele>243.0</ele><time>2026-04-08T12:08:32.001Z</time></trkpt><trkpt lat="42.02284623703405" lon="2.6787024489844393"><ele>243.0</ele><time>2026-04-08T12:08:33.001Z</time></trkpt><trkpt lat="42.0227423047534" lon="2.6788475389643516"><ele>247.33333333333331</ele><time>2026-04-08T12:08:34.001Z</time></trkpt><trkpt lat="42.022637784896325" lon="2.6789848745377607"><ele>251.66666666666666</ele><time>2026-04-08T12:08:35.001Z</time></trkpt><trkpt lat="42.02256457694109" lon="2.6791869480571435"><ele>256.0</ele><time>2026-04-08T12:08:36.001Z</time></trkpt><trkpt lat="42.02249220564866" lon="2.67942592899547"><ele>256.5</ele><time>2026-04-08T12:08:37.001Z</time></trkpt><trkpt lat="42.02241394920868" lon="2.6796974483627416"><ele>257.0</ele><time>2026-04-08T12:08:38.001Z</time></trkpt><trkpt lat="42.02232871892564" lon="2.6799931644446375"><ele>255.5</ele><time>2026-04-08T12:08:39.001Z</time></trkpt><trkpt lat="42.02224141271684" lon="2.680296083102298"><ele>254.0</ele><time>2026-04-08T12:08:40.001Z</time></trkpt><trkpt lat="42.022167696711335" lon="2.680613196924702"><ele>254.0</ele><time>2026-04-08T12:08:41.001Z</time></trkpt><trkpt lat="42.02206651683261" lon="2.6809563662737146"><ele>254.0</ele><time>2026-04-08T12:08:42.001Z</time></trkpt><trkpt lat="42.02196689311342" lon="2.681299474998755"><ele>253.5</ele><time>2026-04-08T12:08:43.001Z</time></trkpt><trkpt lat="42.021856878110334" lon="2.6816262901305485"><ele>253.0</ele><time>2026-04-08T12:08:44.001Z</time></trkpt><trkpt lat="42.02176340955319" lon="2.681953526595205"><ele>253.0</ele><time>2026-04-08T12:08:45.001Z</time></trkpt><trkpt lat="42.021671570287914" lon="2.682275058884841"><ele>253.0</ele><time>2026-04-08T12:08:46.001Z</time></trkpt><trkpt lat="42.021580771995865" lon="2.6825907076808946"><ele>250.5</ele><time>2026-04-08T12:08:47.001Z</time></trkpt><trkpt lat="42.021494337638124" lon="2.6828906174695333"><ele>248.0</ele><time>2026-04-08T12:08:48.001Z</time></trkpt><trkpt lat="42.021429649724695" lon="2.6831762405529522"><ele>248.0</ele><time>2026-04-08T12:08:49.001Z</time></trkpt><trkpt lat="42.021356170500454" lon="2.6834268246157826"><ele>248.0</ele><time>2026-04-08T12:08:50.001Z</time></trkpt><trkpt lat="42.02129020466441" lon="2.6836592082339643"><ele>248.0</ele><time>2026-04-08T12:08:51.001Z</time></trkpt><trkpt lat="42.0212334110563" lon="2.683858989689334"><ele>248.25</ele><time>2026-04-08T12:08:52.001Z</time></trkpt><trkpt lat="42.021184843751435" lon="2.6840386075486724"><ele>248.5</ele><time>2026-04-08T12:08:53.001Z</time></trkpt><trkpt lat="42.021153679493956" lon="2.6841922403941885"><ele>248.75</ele><time>2026-04-08T12:08:54.001Z</time></trkpt><trkpt lat="42.02114622307076" lon="2.684336761574573"><ele>249.0</ele><time>2026-04-08T12:08:55.001Z</time></trkpt><trkpt lat="42.02116726854874" lon="2.6844767891733556"><ele>247.25</ele><time>2026-04-08T12:08:56.001Z</time></trkpt><trkpt lat="42.02122504218834" lon="2.6846139414667864"><ele>245.5</ele><time>2026-04-08T12:08:57.001Z</time></trkpt><trkpt lat="42.02132176874455" lon="2.6847407034088766"><ele>243.75</ele><time>2026-04-08T12:08:58.001Z</time></trkpt><trkpt lat="42.021447984425095" lon="2.6848479033099384"><ele>242.0</ele><time>2026-04-08T12:08:59.001Z</time></trkpt><trkpt lat="42.02160833389547" lon="2.6849548754820654"><ele>243.66666666666669</ele><time>2026-04-08T12:09:00.001Z</time></trkpt><trkpt lat="42.02179738247791" lon="2.6850594954667875"><ele>245.33333333333331</ele><time>2026-04-08T12:09:01.001Z</time></trkpt><trkpt lat="42.02199276987986" lon="2.685140681189649"><ele>247.0</ele><time>2026-04-08T12:09:02.001Z</time></trkpt><trkpt lat="42.02216987578387" lon="2.68523114518109"><ele>246.0</ele><time>2026-04-08T12:09:03.001Z</time></trkpt><trkpt lat="42.02232833595158" lon="2.6852971701250836"><ele>245.0</ele><time>2026-04-08T12:09:04.001Z</time></trkpt><trkpt lat="42.02246677024347" lon="2.6853496215341948"><ele>244.0</ele><time>2026-04-08T12:09:05.001Z</time></trkpt><trkpt lat="42.02257610868741" lon="2.685437094938798"><ele>243.0</ele><time>2026-04-08T12:09:06.001Z</time></trkpt><trkpt lat="42.02266594328527" lon="2.6855517485869562"><ele>243.0</ele><time>2026-04-08T12:09:07.001Z</time></trkpt><trkpt lat="42.02273260144924" lon="2.685682523741959"><ele>243.0</ele><time>2026-04-08T12:09:08.001Z</time></trkpt><trkpt lat="42.022755372602695" lon="2.6858385181744606"><ele>243.0</ele><time>2026-04-08T12:09:09.001Z</time></trkpt><trkpt lat="42.0227534818189" lon="2.686009026733422"><ele>243.0</ele><time>2026-04-08T12:09:10.001Z</time></trkpt><trkpt lat="42.02272507334768" lon="2.6862037854309175"><ele>243.0</ele><time>2026-04-08T12:09:11.001Z</time></trkpt><trkpt lat="42.02270529291635" lon="2.686458649398359"><ele>243.0</ele><time>2026-04-08T12:09:12.001Z</time></trkpt><trkpt lat="42.02266102225379" lon="2.686749676165921"><ele>243.0</ele><time>2026-04-08T12:09:13.001Z</time></trkpt><trkpt lat="42.02260741389153" lon="2.687051704064699"><ele>243.0</ele><time>2026-04-08T12:09:14.001Z</time></trkpt><trkpt lat="42.022538748204504" lon="2.6873439991156354"><ele>243.0</ele><time>2026-04-08T12:09:15.001Z</time></trkpt><trkpt lat="42.02244853661091" lon="2.68761661595882"><ele>243.0</ele><time>2026-04-08T12:09:16.001Z</time></trkpt><trkpt lat="42.02234056824383" lon="2.6878811492249426"><ele>237.0</ele><time>2026-04-08T12:09:17.001Z</time></trkpt><trkpt lat="42.02220869594229" lon="2.688135004780222"><ele>231.0</ele><time>2026-04-08T12:09:18.001Z</time></trkpt><trkpt lat="42.02208320633522" lon="2.6883663854722317"><ele>225.0</ele><time>2026-04-08T12:09:19.001Z</time></trkpt><trkpt lat="42.02196531721485" lon="2.688574823012485"><ele>226.0</ele><time>2026-04-08T12:09:20.001Z</time></trkpt><trkpt lat="42.021850392625545" lon="2.68875706461428"><ele>227.0</ele><time>2026-04-08T12:09:21.001Z</time></trkpt><trkpt lat="42.021717653373656" lon="2.688909074752249"><ele>228.0</ele><time>2026-04-08T12:09:22.001Z</time></trkpt><trkpt lat="42.021568673495025" lon="2.689015536588759"><ele>228.0</ele><time>2026-04-08T12:09:23.001Z</time></trkpt><trkpt lat="42.02140389706768" lon="2.689091995978187"><ele>228.0</ele><time>2026-04-08T12:09:24.001Z</time></trkpt><trkpt lat="42.02124440185905" lon="2.6891539163561298"><ele>228.0</ele><time>2026-04-08T12:09:25.001Z</time></trkpt><trkpt lat="42.0210847158278" lon="2.689177943544498"><ele>228.0</ele><time>2026-04-08T12:09:26.001Z</time></trkpt><trkpt lat="42.020930646530125" lon="2.689145915985937"><ele>228.0</ele><time>2026-04-08T12:09:27.001Z</time></trkpt><trkpt lat="42.020800631645656" lon="2.689122594814179"><ele>228.0</ele><time>2026-04-08T12:09:28.001Z</time></trkpt><trkpt lat="42.02069401071701" lon="2.689147119320676"><ele>228.0</ele><time>2026-04-08T12:09:29.001Z</time></trkpt><trkpt lat="42.02060791755952" lon="2.689211917887224"><ele>225.75</ele><time>2026-04-08T12:09:30.001Z</time></trkpt><trkpt lat="42.02055239667691" lon="2.6893244938462586"><ele>223.5</ele><time>2026-04-08T12:09:31.001Z</time></trkpt><trkpt lat="42.02052329534646" lon="2.689468041034312"><ele>221.25</ele><time>2026-04-08T12:09:32.001Z</time></trkpt><trkpt lat="42.02052406499038" lon="2.6896340115096544"><ele>219.0</ele><time>2026-04-08T12:09:33.001Z</time></trkpt><trkpt lat="42.02054514874412" lon="2.6898355464819366"><ele>217.5</ele><time>2026-04-08T12:09:34.001Z</time></trkpt><trkpt lat="42.02056406611597" lon="2.690037239968261"><ele>216.0</ele><time>2026-04-08T12:09:35.001Z</time></trkpt><trkpt lat="42.02060245691862" lon="2.69020090460378"><ele>214.5</ele><time>2026-04-08T12:09:36.001Z</time></trkpt><trkpt lat="42.020679871995895" lon="2.690323061262518"><ele>213.0</ele><time>2026-04-08T12:09:37.001Z</time></trkpt><trkpt lat="42.020786069448825" lon="2.690442126276898"><ele>214.0</ele><time>2026-04-08T12:09:38.001Z</time></trkpt><trkpt lat="42.02090468862053" lon="2.690590922878279"><ele>215.0</ele><time>2026-04-08T12:09:39.001Z</time></trkpt><trkpt lat="42.0210259295357" lon="2.6907558270211585"><ele>216.0</ele><time>2026-04-08T12:09:40.001Z</time></trkpt><trkpt lat="42.021128149399935" lon="2.6909459403591667"><ele>212.0</ele><time>2026-04-08T12:09:41.001Z</time></trkpt><trkpt lat="42.02123594695083" lon="2.691186959009178"><ele>208.0</ele><time>2026-04-08T12:09:42.001Z</time></trkpt><trkpt lat="42.02134215058078" lon="2.6913966579812616"><ele>204.0</ele><time>2026-04-08T12:09:43.001Z</time></trkpt><trkpt lat="42.021427483861004" lon="2.691599658211334"><ele>204.0</ele><time>2026-04-08T12:09:44.001Z</time></trkpt><trkpt lat="42.021498814105776" lon="2.691785196346338"><ele>204.0</ele><time>2026-04-08T12:09:45.001Z</time></trkpt><trkpt lat="42.02151910831267" lon="2.691981757187677"><ele>204.0</ele><time>2026-04-08T12:09:46.001Z</time></trkpt><trkpt lat="42.02151571700943" lon="2.6922051932605124"><ele>201.0</ele><time>2026-04-08T12:09:47.001Z</time></trkpt><trkpt lat="42.02152492602051" lon="2.692476051625087"><ele>198.0</ele><time>2026-04-08T12:09:48.001Z</time></trkpt><trkpt lat="42.021578187592546" lon="2.6927522010222504"><ele>195.0</ele><time>2026-04-08T12:09:49.001Z</time></trkpt><trkpt lat="42.02158853161793" lon="2.6930312838411714"><ele>191.33333333333334</ele><time>2026-04-08T12:09:50.001Z</time></trkpt><trkpt lat="42.02161335529026" lon="2.6932889470688037"><ele>187.66666666666669</ele><time>2026-04-08T12:09:51.001Z</time></trkpt><trkpt lat="42.02160505295305" lon="2.6935358184967084"><ele>184.0</ele><time>2026-04-08T12:09:52.001Z</time></trkpt><trkpt lat="42.02158448622204" lon="2.6937599326726502"><ele>182.0</ele><time>2026-04-08T12:09:53.001Z</time></trkpt><trkpt lat="42.02155124780412" lon="2.6939594401410574"><ele>180.0</ele><time>2026-04-08T12:09:54.001Z</time></trkpt><trkpt lat="42.02152939807285" lon="2.694130056137147"><ele>178.0</ele><time>2026-04-08T12:09:55.001Z</time></trkpt><trkpt lat="42.02152882122093" lon="2.6942828460302994"><ele>176.0</ele><time>2026-04-08T12:09:56.001Z</time></trkpt><trkpt lat="42.021565282300735" lon="2.6944241801970232"><ele>176.0</ele><time>2026-04-08T12:09:57.001Z</time></trkpt><trkpt lat="42.021644426399085" lon="2.6945579860075135"><ele>176.0</ele><time>2026-04-08T12:09:58.001Z</time></trkpt><trkpt lat="42.021755260624516" lon="2.6947101522269157"><ele>176.0</ele><time>2026-04-08T12:09:59.001Z</time></trkpt><trkpt lat="42.02188445800889" lon="2.694876495343366"><ele>177.0</ele><time>2026-04-08T12:10:00.001Z</time></trkpt><trkpt lat="42.02201091471682" lon="2.6950355187996258"><ele>178.0</ele><time>2026-04-08T12:10:01.001Z</time></trkpt><trkpt lat="42.02212541422831" lon="2.6951888496465513"><ele>179.0</ele><time>2026-04-08T12:10:02.001Z</time></trkpt><trkpt lat="42.02222917698761" lon="2.6953397102812024"><ele>179.0</ele><time>2026-04-08T12:10:03.001Z</time></trkpt><trkpt lat="42.02231912231478" lon="2.6955146434378707"><ele>179.0</ele><time>2026-04-08T12:10:04.001Z</time></trkpt><trkpt lat="42.022394526683954" lon="2.695723371815112"><ele>179.0</ele><time>2026-04-08T12:10:05.001Z</time></trkpt><trkpt lat="42.02244856386388" lon="2.6959463712796627"><ele>182.33333333333331</ele><time>2026-04-08T12:10:06.001Z</time></trkpt><trkpt lat="42.02249875876804" lon="2.696157277389415"><ele>185.66666666666666</ele><time>2026-04-08T12:10:07.001Z</time></trkpt><trkpt lat="42.022548146365395" lon="2.6963474993756584"><ele>189.0</ele><time>2026-04-08T12:10:08.001Z</time></trkpt><trkpt lat="42.02260261217" lon="2.6965171522128086"><ele>189.0</ele><time>2026-04-08T12:10:09.001Z</time></trkpt><trkpt lat="42.022657971129576" lon="2.6966438613208843"><ele>189.0</ele><time>2026-04-08T12:10:10.001Z</time></trkpt><trkpt lat="42.022731509777124" lon="2.696734883754998"><ele>189.0</ele><time>2026-04-08T12:10:11.001Z</time></trkpt><trkpt lat="42.02282299927384" lon="2.6967961119811235"><ele>189.0</ele><time>2026-04-08T12:10:12.001Z</time></trkpt><trkpt lat="42.022937154751936" lon="2.696827847956708"><ele>189.0</ele><time>2026-04-08T12:10:13.001Z</time></trkpt><trkpt lat="42.02307168362367" lon="2.696832147161795"><ele>189.0</ele><time>2026-04-08T12:10:14.001Z</time></trkpt><trkpt lat="42.023199505071545" lon="2.696849191245651"><ele>189.0</ele><time>2026-04-08T12:10:15.001Z</time></trkpt><trkpt lat="42.02331136325968" lon="2.6968538899923797"><ele>189.0</ele><time>2026-04-08T12:10:16.001Z</time></trkpt><trkpt lat="42.0234002667736" lon="2.696873107143849"><ele>189.0</ele><time>2026-04-08T12:10:17.001Z</time></trkpt><trkpt lat="42.02345746260251" lon="2.6969233328673456"><ele>189.0</ele><time>2026-04-08T12:10:18.001Z</time></trkpt><trkpt lat="42.023502128616585" lon="2.6970607227150634"><ele>187.0</ele><time>2026-04-08T12:10:20.001Z</time></trkpt><trkpt lat="42.02349803243951" lon="2.697169741751435"><ele>185.0</ele><time>2026-04-08T12:10:21.001Z</time></trkpt><trkpt lat="42.02347608265688" lon="2.6972768756771037"><ele>183.0</ele><time>2026-04-08T12:10:22.001Z</time></trkpt><trkpt lat="42.02341564934573" lon="2.6973605260759483"><ele>181.0</ele><time>2026-04-08T12:10:23.001Z</time></trkpt><trkpt lat="42.0233188738744" lon="2.6974475482277938"><ele>179.0</ele><time>2026-04-08T12:10:24.001Z</time></trkpt><trkpt lat="42.02319973965161" lon="2.697528836984199"><ele>179.0</ele><time>2026-04-08T12:10:25.001Z</time></trkpt><trkpt lat="42.02308421234083" lon="2.6976094584313444"><ele>179.0</ele><time>2026-04-08T12:10:26.001Z</time></trkpt><trkpt lat="42.022961191873414" lon="2.6977007096416723"><ele>179.0</ele><time>2026-04-08T12:10:27.001Z</time></trkpt><trkpt lat="42.02285479664528" lon="2.6978005414766466"><ele>179.0</ele><time>2026-04-08T12:10:28.001Z</time></trkpt><trkpt lat="42.022758184726925" lon="2.6979078552203073"><ele>181.25</ele><time>2026-04-08T12:10:29.001Z</time></trkpt><trkpt lat="42.022673486629444" lon="2.6980307864124833"><ele>183.5</ele><time>2026-04-08T12:10:30.001Z</time></trkpt><trkpt lat="42.022611481612905" lon="2.6981901510044533"><ele>185.75</ele><time>2026-04-08T12:10:31.001Z</time></trkpt><trkpt lat="42.02256499353629" lon="2.698379490172111"><ele>188.0</ele><time>2026-04-08T12:10:32.001Z</time></trkpt><trkpt lat="42.02252113106415" lon="2.698593337644726"><ele>190.33333333333331</ele><time>2026-04-08T12:10:33.001Z</time></trkpt><trkpt lat="42.022513405669216" lon="2.698831793730864"><ele>192.66666666666666</ele><time>2026-04-08T12:10:34.001Z</time></trkpt><trkpt lat="42.022497457311786" lon="2.6990673438399675"><ele>195.0</ele><time>2026-04-08T12:10:35.001Z</time></trkpt><trkpt lat="42.02247380395484" lon="2.6993109893400136"><ele>185.33333333333334</ele><time>2026-04-08T12:10:36.001Z</time></trkpt><trkpt lat="42.02244232763943" lon="2.6995593785815277"><ele>175.66666666666669</ele><time>2026-04-08T12:10:37.001Z</time></trkpt><trkpt lat="42.022416495261126" lon="2.6997867194324794"><ele>166.0</ele><time>2026-04-08T12:10:38.001Z</time></trkpt><trkpt lat="42.022397978723994" lon="2.6999977896115057"><ele>166.0</ele><time>2026-04-08T12:10:39.001Z</time></trkpt><trkpt lat="42.02239157873068" lon="2.700177763538333"><ele>166.0</ele><time>2026-04-08T12:10:40.001Z</time></trkpt><trkpt lat="42.02240358698396" lon="2.70033914011988"><ele>166.0</ele><time>2026-04-08T12:10:41.001Z</time></trkpt><trkpt lat="42.02242903417969" lon="2.700476506322926"><ele>166.0</ele><time>2026-04-08T12:10:42.001Z</time></trkpt><trkpt lat="42.022459166661584" lon="2.700573147838747"><ele>166.0</ele><time>2026-04-08T12:10:43.001Z</time></trkpt><trkpt lat="42.0224970444022" lon="2.700644470873426"><ele>171.60000000000002</ele><time>2026-04-08T12:10:44.001Z</time></trkpt><trkpt lat="42.02258672648464" lon="2.7007464149533167"><ele>177.2</ele><time>2026-04-08T12:10:46.001Z</time></trkpt><trkpt lat="42.02270669367004" lon="2.7008088796998013"><ele>182.8</ele><time>2026-04-08T12:10:48.001Z</time></trkpt><trkpt lat="42.02277425366901" lon="2.7008320728314907"><ele>188.39999999999998</ele><time>2026-04-08T12:10:49.001Z</time></trkpt><trkpt lat="42.02286259160556" lon="2.700909331635226"><ele>194.0</ele><time>2026-04-08T12:10:51.001Z</time></trkpt><trkpt lat="42.02285821257853" lon="2.700993988217203"><ele>194.00000000000003</ele><time>2026-04-08T12:10:54.001Z</time></trkpt><trkpt lat="42.02273210398824" lon="2.701085517391139"><ele>194.0</ele><time>2026-04-08T12:10:58.001Z</time></trkpt><trkpt lat="42.02268150959282" lon="2.701021614894785"><ele>194.0</ele><time>2026-04-08T12:13:16Z</time></trkpt><trkpt lat="42.02271856575136" lon="2.700947869814066"><ele>194.0</ele><time>2026-04-08T12:13:24Z</time></trkpt><trkpt lat="42.02274619093563" lon="2.7008684208049254"><ele>194.00000000000003</ele><time>2026-04-08T12:13:35Z</time></trkpt><trkpt lat="42.02267812312622" lon="2.7008650707895416"><ele>194.0</ele><time>2026-04-08T12:13:41Z</time></trkpt><trkpt lat="42.02260410914254" lon="2.7008305682266616"><ele>194.00000000000003</ele><time>2026-04-08T12:13:55Z</time></trkpt><trkpt lat="42.02260272492374" lon="2.700918357451905"><ele>194.0</ele><time>2026-04-08T12:14:12.001Z</time></trkpt><trkpt lat="42.022619930785986" lon="2.7010382488731817"><ele>194.0</ele><time>2026-04-08T12:14:25.001Z</time></trkpt><trkpt lat="42.022575532282026" lon="2.701142011684619"><ele>194.0</ele><time>2026-04-08T12:24:38.999Z</time></trkpt><trkpt lat="42.02257382468357" lon="2.701056823549492"><ele>194.00000000000003</ele><time>2026-04-08T12:25:03Z</time></trkpt><trkpt lat="42.02261016523979" lon="2.700972036267588"><ele>194.0</ele><time>2026-04-08T13:04:26.999Z</time></trkpt><trkpt lat="42.022582297978076" lon="2.701108374428407"><ele>191.0</ele><time>2026-04-08T13:04:38.999Z</time></trkpt><trkpt lat="42.0225923672866" lon="2.700962099102036"><ele>194.0</ele><time>2026-04-08T13:05:15.999Z</time></trkpt><trkpt lat="42.02257444940481" lon="2.701062392612623"><ele>194.0</ele><time>2026-04-08T13:05:38.999Z</time></trkpt><trkpt lat="42.02261072763923" lon="2.7009841805614596"><ele>194.0</ele><time>2026-04-08T13:10:43.999Z</time></trkpt></trkseg><trkseg><trkpt lat="41.970612421866356" lon="2.673879253659999"><ele>133.0</ele><time>2026-04-08T13:41:39.999Z</time></trkpt><trkpt lat="41.970547087313726" lon="2.6739160953275873"><ele>133.0</ele><time>2026-04-08T13:41:41.999Z</time></trkpt><trkpt lat="41.970493887985754" lon="2.6739975747187925"><ele>133.0</ele><time>2026-04-08T13:41:43.999Z</time></trkpt><trkpt lat="41.97042931494398" lon="2.6739430905593973"><ele>133.0</ele><time>2026-04-08T13:42:02.999Z</time></trkpt><trkpt lat="41.97023857482345" lon="2.6738570544044356"><ele>133.0</ele><time>2026-04-08T13:42:03.999Z</time></trkpt><trkpt lat="41.97037022300331" lon="2.67395331088014"><ele>133.0</ele><time>2026-04-08T13:42:04.998Z</time></trkpt><trkpt lat="41.970307789681385" lon="2.673894238155415"><ele>133.0</ele><time>2026-04-08T13:42:05.998Z</time></trkpt><trkpt lat="41.97023909406268" lon="2.6738082140111796"><ele>133.0</ele><time>2026-04-08T13:42:06.998Z</time></trkpt><trkpt lat="41.970176929195226" lon="2.6737091115668665"><ele>133.0</ele><time>2026-04-08T13:42:07.998Z</time></trkpt><trkpt lat="41.97011427264636" lon="2.6736090419053764"><ele>133.0</ele><time>2026-04-08T13:42:08.998Z</time></trkpt><trkpt lat="41.97003885834863" lon="2.6734876758331128"><ele>133.75</ele><time>2026-04-08T13:42:09.998Z</time></trkpt><trkpt lat="41.969960677625814" lon="2.673374147884469"><ele>134.5</ele><time>2026-04-08T13:42:10.998Z</time></trkpt><trkpt lat="41.96988017128613" lon="2.673256105376583"><ele>135.25</ele><time>2026-04-08T13:42:11.998Z</time></trkpt><trkpt lat="41.96979942429859" lon="2.673150032229118"><ele>136.0</ele><time>2026-04-08T13:42:12.998Z</time></trkpt><trkpt lat="41.96971014657615" lon="2.673066407510645"><ele>136.0</ele><time>2026-04-08T13:42:13.998Z</time></trkpt><trkpt lat="41.96962127592377" lon="2.6730040444146628"><ele>136.0</ele><time>2026-04-08T13:42:14.998Z</time></trkpt><trkpt lat="41.969517127309885" lon="2.672973107268788"><ele>136.0</ele><time>2026-04-08T13:42:15.998Z</time></trkpt><trkpt lat="41.969400933760106" lon="2.6729549816942595"><ele>136.0</ele><time>2026-04-08T13:42:16.998Z</time></trkpt><trkpt lat="41.96928546258872" lon="2.6729573757776235"><ele>136.0</ele><time>2026-04-08T13:42:17.998Z</time></trkpt><trkpt lat="41.96917764159717" lon="2.6729668123107766"><ele>138.25</ele><time>2026-04-08T13:42:18.998Z</time></trkpt><trkpt lat="41.96907001285131" lon="2.672971074955749"><ele>140.5</ele><time>2026-04-08T13:42:19.998Z</time></trkpt><trkpt lat="41.96894457062677" lon="2.672977733222993"><ele>142.75</ele><time>2026-04-08T13:42:20.997Z</time></trkpt><trkpt lat="41.96880342731965" lon="2.6729867383352204"><ele>145.0</ele><time>2026-04-08T13:42:21.997Z</time></trkpt><trkpt lat="41.968652097366885" lon="2.67299663315011"><ele>145.0</ele><time>2026-04-08T13:42:22.997Z</time></trkpt><trkpt lat="41.96848852750014" lon="2.6730038652944335"><ele>145.0</ele><time>2026-04-08T13:42:23.997Z</time></trkpt><trkpt lat="41.968323052953025" lon="2.6730118264740024"><ele>145.0</ele><time>2026-04-08T13:42:24.997Z</time></trkpt><trkpt lat="41.96815161369209" lon="2.6730220002494693"><ele>147.0</ele><time>2026-04-08T13:42:25.997Z</time></trkpt><trkpt lat="41.96797747570568" lon="2.673032164460024"><ele>149.0</ele><time>2026-04-08T13:42:26.997Z</time></trkpt><trkpt lat="41.96779873266304" lon="2.6730462469012393"><ele>151.0</ele><time>2026-04-08T13:42:27.997Z</time></trkpt><trkpt lat="41.96763091541811" lon="2.6730630555915527"><ele>151.66666666666669</ele><time>2026-04-08T13:42:28.997Z</time></trkpt><trkpt lat="41.967469682336684" lon="2.673080978883144"><ele>152.33333333333334</ele><time>2026-04-08T13:42:29.997Z</time></trkpt><trkpt lat="41.96732136995372" lon="2.6731022970082483"><ele>153.0</ele><time>2026-04-08T13:42:30.997Z</time></trkpt><trkpt lat="41.96716980720926" lon="2.6731309345604695"><ele>153.0</ele><time>2026-04-08T13:42:31.997Z</time></trkpt><trkpt lat="41.96703731998383" lon="2.673181765860549"><ele>153.0</ele><time>2026-04-08T13:42:32.998Z</time></trkpt><trkpt lat="41.966917092353384" lon="2.673241167282866"><ele>153.0</ele><time>2026-04-08T13:42:33.998Z</time></trkpt><trkpt lat="41.96680983498076" lon="2.6733075706021863"><ele>153.0</ele><time>2026-04-08T13:42:34.998Z</time></trkpt><trkpt lat="41.966713918002654" lon="2.6734038148526196"><ele>153.75</ele><time>2026-04-08T13:42:35.998Z</time></trkpt><trkpt lat="41.96662581153756" lon="2.6735185178442595"><ele>154.5</ele><time>2026-04-08T13:42:36.998Z</time></trkpt><trkpt lat="41.966550705495685" lon="2.673654256213755"><ele>155.25</ele><time>2026-04-08T13:42:37.998Z</time></trkpt><trkpt lat="41.966450659689784" lon="2.6737776248250515"><ele>156.0</ele><time>2026-04-08T13:42:38.998Z</time></trkpt><trkpt lat="41.96636796385884" lon="2.673904383648501"><ele>156.0</ele><time>2026-04-08T13:42:39.998Z</time></trkpt><trkpt lat="41.96628157299962" lon="2.674028612358455"><ele>156.0</ele><time>2026-04-08T13:42:40.998Z</time></trkpt><trkpt lat="41.96619524912912" lon="2.6741482550864766"><ele>156.0</ele><time>2026-04-08T13:42:41.998Z</time></trkpt><trkpt lat="41.96608781046677" lon="2.6742311524066134"><ele>156.0</ele><time>2026-04-08T13:42:42.998Z</time></trkpt><trkpt lat="41.965973023984795" lon="2.6742976569118686"><ele>153.0</ele><time>2026-04-08T13:42:43.998Z</time></trkpt><trkpt lat="41.96585110882901" lon="2.674334698583782"><ele>150.0</ele><time>2026-04-08T13:42:44.998Z</time></trkpt><trkpt lat="41.965717502013845" lon="2.6743476488088387"><ele>147.0</ele><time>2026-04-08T13:42:45.998Z</time></trkpt><trkpt lat="41.96558585858332" lon="2.674330658478082"><ele>144.0</ele><time>2026-04-08T13:42:46.998Z</time></trkpt><trkpt lat="41.96544850625224" lon="2.674286512129462"><ele>144.0</ele><time>2026-04-08T13:42:47.998Z</time></trkpt><trkpt lat="41.9653182167843" lon="2.6742207549652446"><ele>144.0</ele><time>2026-04-08T13:42:48.998Z</time></trkpt><trkpt lat="41.96518281869838" lon="2.6741375156218123"><ele>144.0</ele><time>2026-04-08T13:42:49.998Z</time></trkpt><trkpt lat="41.965053883410704" lon="2.6740628821716323"><ele>144.0</ele><time>2026-04-08T13:42:50.998Z</time></trkpt><trkpt lat="41.964916813739535" lon="2.6739769019035204"><ele>142.25</ele><time>2026-04-08T13:42:51.998Z</time></trkpt><trkpt lat="41.96479651730772" lon="2.6738810185505137"><ele>140.5</ele><time>2026-04-08T13:42:52.998Z</time></trkpt><trkpt lat="41.964697222585" lon="2.6737565001865344"><ele>138.75</ele><time>2026-04-08T13:42:53.998Z</time></trkpt><trkpt lat="41.96460905785889" lon="2.673604098500527"><ele>137.0</ele><time>2026-04-08T13:42:54.998Z</time></trkpt><trkpt lat="41.96451883252918" lon="2.6734436204665615"><ele>137.0</ele><time>2026-04-08T13:42:55.998Z</time></trkpt><trkpt lat="41.96443815285038" lon="2.6732581138394456"><ele>137.0</ele><time>2026-04-08T13:42:56.998Z</time></trkpt><trkpt lat="41.96435175433936" lon="2.6730649446253496"><ele>137.0</ele><time>2026-04-08T13:42:57.998Z</time></trkpt><trkpt lat="41.96425693876479" lon="2.6728668200597685"><ele>136.66666666666666</ele><time>2026-04-08T13:42:58.998Z</time></trkpt><trkpt lat="41.964150060106995" lon="2.6726873553629873"><ele>136.33333333333334</ele><time>2026-04-08T13:42:59.998Z</time></trkpt><trkpt lat="41.96405211420622" lon="2.6724910494760414"><ele>136.0</ele><time>2026-04-08T13:43:00.998Z</time></trkpt><trkpt lat="41.963959450211924" lon="2.67229979392269"><ele>136.0</ele><time>2026-04-08T13:43:01.998Z</time></trkpt><trkpt lat="41.96386955785977" lon="2.672116526192419"><ele>136.0</ele><time>2026-04-08T13:43:02.998Z</time></trkpt><trkpt lat="41.963777780522584" lon="2.6719348868868984"><ele>136.0</ele><time>2026-04-08T13:43:03.998Z</time></trkpt><trkpt lat="41.96368744469317" lon="2.671757942559621"><ele>135.75</ele><time>2026-04-08T13:43:04.998Z</time></trkpt><trkpt lat="41.96360353563544" lon="2.671589288998279"><ele>135.5</ele><time>2026-04-08T13:43:05.998Z</time></trkpt><trkpt lat="41.963525299274785" lon="2.671431318674485"><ele>135.25</ele><time>2026-04-08T13:43:06.998Z</time></trkpt><trkpt lat="41.96344728551162" lon="2.671282412733511"><ele>135.0</ele><time>2026-04-08T13:43:07.998Z</time></trkpt><trkpt lat="41.963379219399506" lon="2.671138231327452"><ele>135.0</ele><time>2026-04-08T13:43:08.998Z</time></trkpt><trkpt lat="41.96331350033022" lon="2.670993227435082"><ele>135.0</ele><time>2026-04-08T13:43:09.998Z</time></trkpt><trkpt lat="41.963246615984424" lon="2.6708295400488633"><ele>135.0</ele><time>2026-04-08T13:43:10.998Z</time></trkpt><trkpt lat="41.96318726841081" lon="2.6706479726020964"><ele>135.0</ele><time>2026-04-08T13:43:11.998Z</time></trkpt><trkpt lat="41.96313388079462" lon="2.670446632659183"><ele>135.0</ele><time>2026-04-08T13:43:12.998Z</time></trkpt><trkpt lat="41.96308702199124" lon="2.6702390858038965"><ele>135.0</ele><time>2026-04-08T13:43:13.998Z</time></trkpt><trkpt lat="41.96304571280431" lon="2.670030326039276"><ele>135.0</ele><time>2026-04-08T13:43:14.998Z</time></trkpt><trkpt lat="41.9629992827225" lon="2.669816351697259"><ele>135.0</ele><time>2026-04-08T13:43:15.998Z</time></trkpt><trkpt lat="41.96295031764852" lon="2.669602047501449"><ele>135.0</ele><time>2026-04-08T13:43:16.998Z</time></trkpt><trkpt lat="41.96290179268097" lon="2.669387633089674"><ele>135.0</ele><time>2026-04-08T13:43:17.998Z</time></trkpt><trkpt lat="41.96285472316572" lon="2.669169146781706"><ele>136.33333333333334</ele><time>2026-04-08T13:43:18.998Z</time></trkpt><trkpt lat="41.9628118566844" lon="2.668943281203689"><ele>137.66666666666669</ele><time>2026-04-08T13:43:19.998Z</time></trkpt><trkpt lat="41.96276756542122" lon="2.668741057019217"><ele>139.0</ele><time>2026-04-08T13:43:20.998Z</time></trkpt><trkpt lat="41.96272533728229" lon="2.668546469822762"><ele>138.8</ele><time>2026-04-08T13:43:21.998Z</time></trkpt><trkpt lat="41.96268906202226" lon="2.6683712611256096"><ele>138.60000000000002</ele><time>2026-04-08T13:43:22.998Z</time></trkpt><trkpt lat="41.96265689417108" lon="2.6682196775376856"><ele>138.4</ele><time>2026-04-08T13:43:23.998Z</time></trkpt><trkpt lat="41.96262823661652" lon="2.6681062833198412"><ele>138.20000000000002</ele><time>2026-04-08T13:43:24.998Z</time></trkpt><trkpt lat="41.96260423305214" lon="2.667969246214769"><ele>138.0</ele><time>2026-04-08T13:43:26.998Z</time></trkpt><trkpt lat="41.962432915865556" lon="2.6679661841210245"><ele>138.0</ele><time>2026-04-08T13:43:28.998Z</time></trkpt><trkpt lat="41.96234989118196" lon="2.6680062081704756"><ele>138.0</ele><time>2026-04-08T13:43:29.998Z</time></trkpt><trkpt lat="41.962248414922605" lon="2.6680196109915872"><ele>138.0</ele><time>2026-04-08T13:43:30.998Z</time></trkpt><trkpt lat="41.96212612340349" lon="2.6680533185697275"><ele>138.0</ele><time>2026-04-08T13:43:31.998Z</time></trkpt><trkpt lat="41.961997053562115" lon="2.6680888944800523"><ele>138.0</ele><time>2026-04-08T13:43:32.998Z</time></trkpt><trkpt lat="41.96187505112293" lon="2.6681225223826286"><ele>138.0</ele><time>2026-04-08T13:43:33.998Z</time></trkpt><trkpt lat="41.961739888721326" lon="2.6681593827366132"><ele>138.0</ele><time>2026-04-08T13:43:34.998Z</time></trkpt><trkpt lat="41.96159346445729" lon="2.668198362579979"><ele>138.0</ele><time>2026-04-08T13:43:35.998Z</time></trkpt><trkpt lat="41.96143646877025" lon="2.6682401566616667"><ele>138.0</ele><time>2026-04-08T13:43:36.998Z</time></trkpt><trkpt lat="41.96127166245839" lon="2.668284537610382"><ele>138.0</ele><time>2026-04-08T13:43:37.998Z</time></trkpt><trkpt lat="41.961109023178096" lon="2.6683298319692175"><ele>138.0</ele><time>2026-04-08T13:43:38.998Z</time></trkpt><trkpt lat="41.96094947666803" lon="2.668397022467066"><ele>138.0</ele><time>2026-04-08T13:43:39.998Z</time></trkpt><trkpt lat="41.96077828037311" lon="2.668433254372339"><ele>137.66666666666666</ele><time>2026-04-08T13:43:40.998Z</time></trkpt><trkpt lat="41.9606077446092" lon="2.6684878733769795"><ele>137.33333333333331</ele><time>2026-04-08T13:43:41.998Z</time></trkpt><trkpt lat="41.960416209722425" lon="2.6685000746976195"><ele>137.0</ele><time>2026-04-08T13:43:42.998Z</time></trkpt><trkpt lat="41.960227572224966" lon="2.6685457028092983"><ele>137.0</ele><time>2026-04-08T13:43:43.998Z</time></trkpt><trkpt lat="41.96007075736025" lon="2.668614925375908"><ele>137.0</ele><time>2026-04-08T13:43:44.998Z</time></trkpt><trkpt lat="41.95989749085128" lon="2.6686659053868547"><ele>137.0</ele><time>2026-04-08T13:43:45.998Z</time></trkpt><trkpt lat="41.95972753073678" lon="2.6687109096439396"><ele>137.0</ele><time>2026-04-08T13:43:46.998Z</time></trkpt><trkpt lat="41.95955698405985" lon="2.6687598712744167"><ele>137.0</ele><time>2026-04-08T13:43:47.998Z</time></trkpt><trkpt lat="41.95938352429567" lon="2.6687852538322048"><ele>137.0</ele><time>2026-04-08T13:43:48.998Z</time></trkpt><trkpt lat="41.95921971422162" lon="2.668848225206879"><ele>137.33333333333331</ele><time>2026-04-08T13:43:49.998Z</time></trkpt><trkpt lat="41.959048320507634" lon="2.668895806961622"><ele>137.66666666666666</ele><time>2026-04-08T13:43:50.998Z</time></trkpt><trkpt lat="41.9588776119304" lon="2.668938617765408"><ele>138.0</ele><time>2026-04-08T13:43:51.998Z</time></trkpt><trkpt lat="41.95870826349234" lon="2.6689806388166573"><ele>138.0</ele><time>2026-04-08T13:43:52.998Z</time></trkpt><trkpt lat="41.9585333642616" lon="2.6690266590903198"><ele>138.0</ele><time>2026-04-08T13:43:53.998Z</time></trkpt><trkpt lat="41.958358830419286" lon="2.669078434061556"><ele>138.0</ele><time>2026-04-08T13:43:54.998Z</time></trkpt><trkpt lat="41.958187263184314" lon="2.6691284447491834"><ele>138.66666666666666</ele><time>2026-04-08T13:43:55.998Z</time></trkpt><trkpt lat="41.95801115947344" lon="2.6691723239839633"><ele>139.33333333333331</ele><time>2026-04-08T13:43:56.998Z</time></trkpt><trkpt lat="41.9578326744929" lon="2.6692197594246427"><ele>140.0</ele><time>2026-04-08T13:43:57.998Z</time></trkpt><trkpt lat="41.95765600427373" lon="2.669264395042735"><ele>140.0</ele><time>2026-04-08T13:43:58.998Z</time></trkpt><trkpt lat="41.95749286860031" lon="2.669315436329792"><ele>140.0</ele><time>2026-04-08T13:43:59.998Z</time></trkpt><trkpt lat="41.957324122328366" lon="2.669358853183839"><ele>140.0</ele><time>2026-04-08T13:44:00.998Z</time></trkpt><trkpt lat="41.95716887339019" lon="2.6693976319543946"><ele>140.0</ele><time>2026-04-08T13:44:01.998Z</time></trkpt><trkpt lat="41.957020462985824" lon="2.6694378344268443"><ele>140.0</ele><time>2026-04-08T13:44:02.998Z</time></trkpt><trkpt lat="41.95687615288581" lon="2.6694511376663166"><ele>140.0</ele><time>2026-04-08T13:44:03.998Z</time></trkpt><trkpt lat="41.95673565441227" lon="2.669489317704161"><ele>140.0</ele><time>2026-04-08T13:44:04.998Z</time></trkpt><trkpt lat="41.956611799738745" lon="2.669555520438541"><ele>142.25</ele><time>2026-04-08T13:44:05.998Z</time></trkpt><trkpt lat="41.956488710145024" lon="2.66961354005687"><ele>144.5</ele><time>2026-04-08T13:44:06.998Z</time></trkpt><trkpt lat="41.956390364032245" lon="2.669686717195986"><ele>146.75</ele><time>2026-04-08T13:44:07.998Z</time></trkpt><trkpt lat="41.9562896818328" lon="2.66982726859068"><ele>149.0</ele><time>2026-04-08T13:44:08.998Z</time></trkpt><trkpt lat="41.95620720880021" lon="2.670003377458521"><ele>149.0</ele><time>2026-04-08T13:44:09.998Z</time></trkpt><trkpt lat="41.95610526347123" lon="2.6701782899965605"><ele>149.0</ele><time>2026-04-08T13:44:10.998Z</time></trkpt><trkpt lat="41.956008534388324" lon="2.6703490079926744"><ele>149.0</ele><time>2026-04-08T13:44:11.998Z</time></trkpt><trkpt lat="41.95592799206883" lon="2.6705085114356084"><ele>151.66666666666666</ele><time>2026-04-08T13:44:12.998Z</time></trkpt><trkpt lat="41.955829489077665" lon="2.6706362657919667"><ele>154.33333333333334</ele><time>2026-04-08T13:44:13.998Z</time></trkpt><trkpt lat="41.95569998306707" lon="2.6707544930773115"><ele>157.0</ele><time>2026-04-08T13:44:14.998Z</time></trkpt><trkpt lat="41.95555285564039" lon="2.6708950768949156"><ele>157.0</ele><time>2026-04-08T13:44:15.998Z</time></trkpt><trkpt lat="41.95541983125023" lon="2.670992515091314"><ele>157.0</ele><time>2026-04-08T13:44:16.998Z</time></trkpt><trkpt lat="41.955283962064335" lon="2.6710276396380173"><ele>157.0</ele><time>2026-04-08T13:44:17.998Z</time></trkpt><trkpt lat="41.95514796052843" lon="2.671056540058987"><ele>157.0</ele><time>2026-04-08T13:44:18.998Z</time></trkpt><trkpt lat="41.95500197066854" lon="2.671072128889277"><ele>155.75</ele><time>2026-04-08T13:44:19.998Z</time></trkpt><trkpt lat="41.95485414473213" lon="2.671088216880898"><ele>154.5</ele><time>2026-04-08T13:44:20.998Z</time></trkpt><trkpt lat="41.954717797386316" lon="2.671135892774303"><ele>153.25</ele><time>2026-04-08T13:44:21.998Z</time></trkpt><trkpt lat="41.95459742319495" lon="2.6711804364876377"><ele>152.0</ele><time>2026-04-08T13:44:22.998Z</time></trkpt><trkpt lat="41.95448543352566" lon="2.6712858359580625"><ele>154.66666666666666</ele><time>2026-04-08T13:44:23.998Z</time></trkpt><trkpt lat="41.95435830595465" lon="2.6714250581048176"><ele>157.33333333333334</ele><time>2026-04-08T13:44:24.998Z</time></trkpt><trkpt lat="41.954215948054625" lon="2.6715521239727154"><ele>160.0</ele><time>2026-04-08T13:44:25.998Z</time></trkpt><trkpt lat="41.95407209087328" lon="2.6716450103258085"><ele>160.0</ele><time>2026-04-08T13:44:26.996Z</time></trkpt><trkpt lat="41.95394362877533" lon="2.6717325529620672"><ele>160.0</ele><time>2026-04-08T13:44:27.996Z</time></trkpt><trkpt lat="41.953821868289275" lon="2.6718156534972435"><ele>160.0</ele><time>2026-04-08T13:44:28.996Z</time></trkpt><trkpt lat="41.95370749726791" lon="2.671921133449319"><ele>160.0</ele><time>2026-04-08T13:44:29.996Z</time></trkpt><trkpt lat="41.95360819597152" lon="2.6720237005804943"><ele>163.4</ele><time>2026-04-08T13:44:30.996Z</time></trkpt><trkpt lat="41.95354238291992" lon="2.672126313362824"><ele>166.8</ele><time>2026-04-08T13:44:31.996Z</time></trkpt><trkpt lat="41.95349438109423" lon="2.6722307404784456"><ele>170.2</ele><time>2026-04-08T13:44:32.996Z</time></trkpt><trkpt lat="41.95348489657192" lon="2.672342007902033"><ele>173.6</ele><time>2026-04-08T13:44:33.997Z</time></trkpt><trkpt lat="41.95350215358691" lon="2.672457464106164"><ele>177.0</ele><time>2026-04-08T13:44:34.997Z</time></trkpt><trkpt lat="41.95354203071503" lon="2.6725984217443934"><ele>177.0</ele><time>2026-04-08T13:44:35.997Z</time></trkpt><trkpt lat="41.9536006942215" lon="2.6727542005685785"><ele>177.0</ele><time>2026-04-08T13:44:36.997Z</time></trkpt><trkpt lat="41.953647822085614" lon="2.672890659229923"><ele>177.0</ele><time>2026-04-08T13:44:37.997Z</time></trkpt><trkpt lat="41.9536524874289" lon="2.6730098726251157"><ele>177.0</ele><time>2026-04-08T13:44:38.997Z</time></trkpt><trkpt lat="41.95359247642275" lon="2.673099493250568"><ele>177.0</ele><time>2026-04-08T13:44:39.997Z</time></trkpt><trkpt lat="41.95351657487188" lon="2.6731478504431623"><ele>176.0</ele><time>2026-04-08T13:44:40.997Z</time></trkpt><trkpt lat="41.95343092699474" lon="2.673239303189932"><ele>175.0</ele><time>2026-04-08T13:44:41.997Z</time></trkpt><trkpt lat="41.95334400651931" lon="2.6733672444466703"><ele>174.0</ele><time>2026-04-08T13:44:42.997Z</time></trkpt><trkpt lat="41.953289213449224" lon="2.673547430418851"><ele>173.0</ele><time>2026-04-08T13:44:43.997Z</time></trkpt><trkpt lat="41.95322596531367" lon="2.673741830515617"><ele>173.0</ele><time>2026-04-08T13:44:44.998Z</time></trkpt><trkpt lat="41.95316745650196" lon="2.6739116785605095"><ele>173.0</ele><time>2026-04-08T13:44:45.998Z</time></trkpt><trkpt lat="41.95315691024117" lon="2.674053477027574"><ele>173.0</ele><time>2026-04-08T13:44:46.998Z</time></trkpt><trkpt lat="41.95315193442928" lon="2.6741821460410637"><ele>173.0</ele><time>2026-04-08T13:44:47.998Z</time></trkpt><trkpt lat="41.95318566058128" lon="2.6743223675886356"><ele>174.25</ele><time>2026-04-08T13:44:48.998Z</time></trkpt><trkpt lat="41.95323754205576" lon="2.674493762097177"><ele>175.5</ele><time>2026-04-08T13:44:49.998Z</time></trkpt><trkpt lat="41.95328826152139" lon="2.6746866569194245"><ele>176.75</ele><time>2026-04-08T13:44:50.998Z</time></trkpt><trkpt lat="41.95334297852303" lon="2.6748537102064436"><ele>178.0</ele><time>2026-04-08T13:44:51.998Z</time></trkpt><trkpt lat="41.95337047168258" lon="2.674992919143057"><ele>178.0</ele><time>2026-04-08T13:44:52.998Z</time></trkpt><trkpt lat="41.95339520133374" lon="2.675111482476886"><ele>178.0</ele><time>2026-04-08T13:44:53.998Z</time></trkpt><trkpt lat="41.953363355115215" lon="2.675199573867539"><ele>178.0</ele><time>2026-04-08T13:44:54.998Z</time></trkpt><trkpt lat="41.953284529424856" lon="2.675241387806686"><ele>178.0</ele><time>2026-04-08T13:44:56.998Z</time></trkpt><trkpt lat="41.95318520401462" lon="2.675183126013394"><ele>178.0</ele><time>2026-04-08T13:44:58.998Z</time></trkpt><trkpt lat="41.95310529618649" lon="2.67510295461301"><ele>178.0</ele><time>2026-04-08T13:44:59.998Z</time></trkpt><trkpt lat="41.95303289063906" lon="2.6750368653943344"><ele>178.0</ele><time>2026-04-08T13:45:00.998Z</time></trkpt><trkpt lat="41.95294977509252" lon="2.6749998181855346"><ele>178.0</ele><time>2026-04-08T13:45:01.998Z</time></trkpt><trkpt lat="41.95283179818197" lon="2.6750351013736187"><ele>178.0</ele><time>2026-04-08T13:45:02.998Z</time></trkpt><trkpt lat="41.952726059323204" lon="2.675115686837205"><ele>178.0</ele><time>2026-04-08T13:45:03.998Z</time></trkpt><trkpt lat="41.95264219170327" lon="2.675235247663387"><ele>181.0</ele><time>2026-04-08T13:45:04.998Z</time></trkpt><trkpt lat="41.95259987351238" lon="2.67534781925941"><ele>184.0</ele><time>2026-04-08T13:45:05.998Z</time></trkpt><trkpt lat="41.952603895245176" lon="2.6754955002597627"><ele>187.0</ele><time>2026-04-08T13:45:06.998Z</time></trkpt><trkpt lat="41.95262190040744" lon="2.6756530231710105"><ele>190.0</ele><time>2026-04-08T13:45:07.998Z</time></trkpt><trkpt lat="41.95265447907801" lon="2.675814801182631"><ele>193.0</ele><time>2026-04-08T13:45:08.998Z</time></trkpt><trkpt lat="41.95268831379639" lon="2.675968684603461"><ele>193.0</ele><time>2026-04-08T13:45:09.998Z</time></trkpt><trkpt lat="41.95270406157609" lon="2.676101629789767"><ele>193.0</ele><time>2026-04-08T13:45:10.998Z</time></trkpt><trkpt lat="41.95267835874476" lon="2.6762064689140037"><ele>193.0</ele><time>2026-04-08T13:45:11.999Z</time></trkpt><trkpt lat="41.952598388762276" lon="2.6762638901328586"><ele>193.0</ele><time>2026-04-08T13:45:13.999Z</time></trkpt><trkpt lat="41.95250544006131" lon="2.676193257018156"><ele>193.0</ele><time>2026-04-08T13:45:15.999Z</time></trkpt><trkpt lat="41.952451714537695" lon="2.6761123872419494"><ele>193.4</ele><time>2026-04-08T13:45:16.999Z</time></trkpt><trkpt lat="41.95239227262982" lon="2.6760437387673144"><ele>193.8</ele><time>2026-04-08T13:45:17.999Z</time></trkpt><trkpt lat="41.95232066623203" lon="2.6760012678890126"><ele>194.2</ele><time>2026-04-08T13:45:18.999Z</time></trkpt><trkpt lat="41.952221947098174" lon="2.6760378487520304"><ele>194.6</ele><time>2026-04-08T13:45:19.999Z</time></trkpt><trkpt lat="41.95212327077418" lon="2.676149150163132"><ele>195.0</ele><time>2026-04-08T13:45:20.999Z</time></trkpt><trkpt lat="41.95202511319382" lon="2.6762762686434844"><ele>195.0</ele><time>2026-04-08T13:45:21.999Z</time></trkpt><trkpt lat="41.951922147420305" lon="2.6764179218788886"><ele>195.0</ele><time>2026-04-08T13:45:22.999Z</time></trkpt><trkpt lat="41.951822490071834" lon="2.6765532888935324"><ele>195.0</ele><time>2026-04-08T13:45:23.999Z</time></trkpt><trkpt lat="41.95170985533313" lon="2.676700443850879"><ele>195.0</ele><time>2026-04-08T13:45:24.999Z</time></trkpt><trkpt lat="41.951599905185226" lon="2.676841697268233"><ele>195.75</ele><time>2026-04-08T13:45:25.999Z</time></trkpt><trkpt lat="41.951513533232955" lon="2.676976826189768"><ele>196.5</ele><time>2026-04-08T13:45:26.999Z</time></trkpt><trkpt lat="41.951438118110424" lon="2.6770826891246546"><ele>197.25</ele><time>2026-04-08T13:45:27.999Z</time></trkpt><trkpt lat="41.951382090836425" lon="2.677194703880082"><ele>198.0</ele><time>2026-04-08T13:45:28.999Z</time></trkpt><trkpt lat="41.95135392010774" lon="2.6773439258177514"><ele>198.0</ele><time>2026-04-08T13:45:29.999Z</time></trkpt><trkpt lat="41.951376987662655" lon="2.6775227763983844"><ele>198.0</ele><time>2026-04-08T13:45:30.999Z</time></trkpt><trkpt lat="41.95138894359754" lon="2.6776933204422546"><ele>198.0</ele><time>2026-04-08T13:45:31.999Z</time></trkpt><trkpt lat="41.9513613854894" lon="2.677855759072678"><ele>198.0</ele><time>2026-04-08T13:45:32.999Z</time></trkpt><trkpt lat="41.951275980646024" lon="2.677988478730944"><ele>200.5</ele><time>2026-04-08T13:45:33.999Z</time></trkpt><trkpt lat="41.95123835825945" lon="2.6781279477661974"><ele>203.0</ele><time>2026-04-08T13:45:34.999Z</time></trkpt><trkpt lat="41.95121904282272" lon="2.678257767672295"><ele>205.5</ele><time>2026-04-08T13:45:35.999Z</time></trkpt><trkpt lat="41.95122354258519" lon="2.678437114877882"><ele>208.0</ele><time>2026-04-08T13:45:36.999Z</time></trkpt><trkpt lat="41.95123435968273" lon="2.678638150848326"><ele>210.0</ele><time>2026-04-08T13:45:37.999Z</time></trkpt><trkpt lat="41.95125664811406" lon="2.678843489355145"><ele>212.0</ele><time>2026-04-08T13:45:38.999Z</time></trkpt><trkpt lat="41.951289398819476" lon="2.679046947562861"><ele>214.0</ele><time>2026-04-08T13:45:39.999Z</time></trkpt><trkpt lat="41.95128803173606" lon="2.679252168801844"><ele>213.66666666666666</ele><time>2026-04-08T13:45:40.999Z</time></trkpt><trkpt lat="41.95126232519205" lon="2.679459826595722"><ele>213.33333333333331</ele><time>2026-04-08T13:45:41.999Z</time></trkpt><trkpt lat="41.951232204262176" lon="2.679676972384056"><ele>213.0</ele><time>2026-04-08T13:45:42.999Z</time></trkpt><trkpt lat="41.951199690998095" lon="2.6798781431473637"><ele>213.0</ele><time>2026-04-08T13:45:43.999Z</time></trkpt><trkpt lat="41.95116508263039" lon="2.6800598647446274"><ele>213.0</ele><time>2026-04-08T13:45:44.999Z</time></trkpt><trkpt lat="41.95110560282922" lon="2.6802170236414797"><ele>213.0</ele><time>2026-04-08T13:45:45.999Z</time></trkpt><trkpt lat="41.95101354278057" lon="2.6803634996570467"><ele>213.0</ele><time>2026-04-08T13:45:46.999Z</time></trkpt><trkpt lat="41.950940510588204" lon="2.680534883992709"><ele>214.0</ele><time>2026-04-08T13:45:47.999Z</time></trkpt><trkpt lat="41.95087655234983" lon="2.6806913963462677"><ele>215.0</ele><time>2026-04-08T13:45:48.999Z</time></trkpt><trkpt lat="41.9508086421627" lon="2.680825110138989"><ele>216.0</ele><time>2026-04-08T13:45:49.999Z</time></trkpt><trkpt lat="41.950708845193766" lon="2.680917891173403"><ele>217.0</ele><time>2026-04-08T13:45:50.999Z</time></trkpt><trkpt lat="41.95060885717163" lon="2.681021685406494"><ele>216.0</ele><time>2026-04-08T13:45:51.999Z</time></trkpt><trkpt lat="41.950526660157024" lon="2.681148987929006"><ele>215.0</ele><time>2026-04-08T13:45:52.999Z</time></trkpt><trkpt lat="41.950487489704344" lon="2.681295589606208"><ele>214.0</ele><time>2026-04-08T13:45:53.999Z</time></trkpt><trkpt lat="41.95045421245244" lon="2.6814455318078045"><ele>213.0</ele><time>2026-04-08T13:45:54.999Z</time></trkpt><trkpt lat="41.95044451996071" lon="2.6815996717117976"><ele>213.0</ele><time>2026-04-08T13:45:55.999Z</time></trkpt><trkpt lat="41.950432900258306" lon="2.681739949792689"><ele>213.0</ele><time>2026-04-08T13:45:56.999Z</time></trkpt><trkpt lat="41.95046711420188" lon="2.681881478879511"><ele>213.0</ele><time>2026-04-08T13:45:57.999Z</time></trkpt><trkpt lat="41.95052643609242" lon="2.682009194093441"><ele>213.0</ele><time>2026-04-08T13:45:58.999Z</time></trkpt><trkpt lat="41.95061604568549" lon="2.682144740389907"><ele>213.2</ele><time>2026-04-08T13:45:59.999Z</time></trkpt><trkpt lat="41.95070114517241" lon="2.6822427812000003"><ele>213.4</ele><time>2026-04-08T13:46:00.999Z</time></trkpt><trkpt lat="41.95078065224985" lon="2.6823165405568834"><ele>213.59999999999997</ele><time>2026-04-08T13:46:01.999Z</time></trkpt><trkpt lat="41.950853882219675" lon="2.6823696725916077"><ele>213.79999999999998</ele><time>2026-04-08T13:46:02.999Z</time></trkpt><trkpt lat="41.950960200587964" lon="2.6823597127689736"><ele>214.0</ele><time>2026-04-08T13:46:03.999Z</time></trkpt><trkpt lat="41.95106440840512" lon="2.6823009452550455"><ele>214.33333333333331</ele><time>2026-04-08T13:46:04.999Z</time></trkpt><trkpt lat="41.951166534671444" lon="2.682253772382882"><ele>214.66666666666666</ele><time>2026-04-08T13:46:05.999Z</time></trkpt><trkpt lat="41.95125566191492" lon="2.682228598869004"><ele>215.0</ele><time>2026-04-08T13:46:06.999Z</time></trkpt><trkpt lat="41.95132719649437" lon="2.6822358845879486"><ele>215.33333333333331</ele><time>2026-04-08T13:46:07.999Z</time></trkpt><trkpt lat="41.95140865710984" lon="2.682326518928759"><ele>215.66666666666666</ele><time>2026-04-08T13:46:09.999Z</time></trkpt><trkpt lat="41.95140870947739" lon="2.6824171075929057"><ele>216.0</ele><time>2026-04-08T13:46:10.999Z</time></trkpt><trkpt lat="41.95136916660204" lon="2.6825018302779435"><ele>216.0</ele><time>2026-04-08T13:46:11.999Z</time></trkpt><trkpt lat="41.95130882131101" lon="2.6825432044448494"><ele>216.0</ele><time>2026-04-08T13:46:12.999Z</time></trkpt><trkpt lat="41.9512282820065" lon="2.682552996023496"><ele>216.0</ele><time>2026-04-08T13:46:13.999Z</time></trkpt><trkpt lat="41.951142414791434" lon="2.682593429854566"><ele>216.0</ele><time>2026-04-08T13:46:14.999Z</time></trkpt><trkpt lat="41.951076332275726" lon="2.6826926924105137"><ele>216.0</ele><time>2026-04-08T13:46:15.999Z</time></trkpt><trkpt lat="41.951019447707374" lon="2.6827928026669006"><ele>216.0</ele><time>2026-04-08T13:46:16.999Z</time></trkpt><trkpt lat="41.95095646874289" lon="2.682854549748016"><ele>215.60000000000002</ele><time>2026-04-08T13:46:17.999Z</time></trkpt><trkpt lat="41.95087575529851" lon="2.6828736542601166"><ele>215.20000000000002</ele><time>2026-04-08T13:46:18.999Z</time></trkpt><trkpt lat="41.95078441644895" lon="2.6828505040174706"><ele>214.79999999999998</ele><time>2026-04-08T13:46:19.999Z</time></trkpt><trkpt lat="41.950681655817334" lon="2.6827904105282423"><ele>214.39999999999998</ele><time>2026-04-08T13:46:20.999Z</time></trkpt><trkpt lat="41.950574206470506" lon="2.6827094758777745"><ele>214.0</ele><time>2026-04-08T13:46:21.999Z</time></trkpt><trkpt lat="41.9504616628804" lon="2.682630989794939"><ele>214.0</ele><time>2026-04-08T13:46:22.999Z</time></trkpt><trkpt lat="41.95035592231163" lon="2.6825566203381457"><ele>213.99999999999997</ele><time>2026-04-08T13:46:23.999Z</time></trkpt><trkpt lat="41.95024586042878" lon="2.682488879016897"><ele>213.99999999999997</ele><time>2026-04-08T13:46:24.999Z</time></trkpt><trkpt lat="41.9501442139059" lon="2.6824301785786377"><ele>214.0</ele><time>2026-04-08T13:46:25.999Z</time></trkpt><trkpt lat="41.95005457997297" lon="2.6823875315790557"><ele>214.0</ele><time>2026-04-08T13:46:26.999Z</time></trkpt><trkpt lat="41.94997226694147" lon="2.6823797125761244"><ele>214.79999999999998</ele><time>2026-04-08T13:46:27.999Z</time></trkpt><trkpt lat="41.94989212746458" lon="2.682414295026598"><ele>215.59999999999997</ele><time>2026-04-08T13:46:28.999Z</time></trkpt><trkpt lat="41.94981533737522" lon="2.682495262692081"><ele>216.4</ele><time>2026-04-08T13:46:29.999Z</time></trkpt><trkpt lat="41.94975427226225" lon="2.6826131324483566"><ele>217.2</ele><time>2026-04-08T13:46:30.999Z</time></trkpt><trkpt lat="41.94970471667821" lon="2.682772884794118"><ele>218.0</ele><time>2026-04-08T13:46:31.999Z</time></trkpt><trkpt lat="41.94966774880256" lon="2.6829620025703913"><ele>220.25</ele><time>2026-04-08T13:46:32.997Z</time></trkpt><trkpt lat="41.949639143991405" lon="2.683174999987074"><ele>222.5</ele><time>2026-04-08T13:46:33.997Z</time></trkpt><trkpt lat="41.94959534981536" lon="2.683351873165656"><ele>224.75</ele><time>2026-04-08T13:46:34.997Z</time></trkpt><trkpt lat="41.949573379156455" lon="2.6835194104414977"><ele>227.0</ele><time>2026-04-08T13:46:35.997Z</time></trkpt><trkpt lat="41.94957199597687" lon="2.683678735839997"><ele>228.2</ele><time>2026-04-08T13:46:36.997Z</time></trkpt><trkpt lat="41.94960330144178" lon="2.683823557331855"><ele>229.39999999999998</ele><time>2026-04-08T13:46:37.997Z</time></trkpt><trkpt lat="41.94963399416064" lon="2.68393283620384"><ele>230.60000000000002</ele><time>2026-04-08T13:46:38.997Z</time></trkpt><trkpt lat="41.949639140826726" lon="2.684093667739177"><ele>231.8</ele><time>2026-04-08T13:46:40.998Z</time></trkpt><trkpt lat="41.94960305201638" lon="2.684174871047779"><ele>233.0</ele><time>2026-04-08T13:46:41.998Z</time></trkpt><trkpt lat="41.94951481026734" lon="2.684228039338357"><ele>233.0</ele><time>2026-04-08T13:46:42.998Z</time></trkpt><trkpt lat="41.94940621097086" lon="2.6842789273504404"><ele>233.0</ele><time>2026-04-08T13:46:43.998Z</time></trkpt><trkpt lat="41.94927797977113" lon="2.6843331372631516"><ele>233.0</ele><time>2026-04-08T13:46:44.998Z</time></trkpt><trkpt lat="41.949170693086856" lon="2.684403176919826"><ele>233.0</ele><time>2026-04-08T13:46:45.998Z</time></trkpt><trkpt lat="41.94906488288371" lon="2.684472204837154"><ele>233.0</ele><time>2026-04-08T13:46:46.998Z</time></trkpt><trkpt lat="41.9489727116532" lon="2.684570702812149"><ele>233.0</ele><time>2026-04-08T13:46:47.998Z</time></trkpt><trkpt lat="41.948885111078084" lon="2.6847042271286807"><ele>233.0</ele><time>2026-04-08T13:46:48.998Z</time></trkpt><trkpt lat="41.94880264759241" lon="2.6848658139872494"><ele>233.0</ele><time>2026-04-08T13:46:49.998Z</time></trkpt><trkpt lat="41.94870282582169" lon="2.6850273352269065"><ele>233.0</ele><time>2026-04-08T13:46:50.998Z</time></trkpt><trkpt lat="41.94861275786478" lon="2.6851993398958625"><ele>233.0</ele><time>2026-04-08T13:46:51.998Z</time></trkpt><trkpt lat="41.948518690082146" lon="2.6853719689367144"><ele>233.0</ele><time>2026-04-08T13:46:52.998Z</time></trkpt><trkpt lat="41.94842519693184" lon="2.6855412256454323"><ele>231.5</ele><time>2026-04-08T13:46:53.998Z</time></trkpt><trkpt lat="41.94835402442506" lon="2.6857051916008388"><ele>230.0</ele><time>2026-04-08T13:46:54.998Z</time></trkpt><trkpt lat="41.948280971749014" lon="2.68583578916647"><ele>228.5</ele><time>2026-04-08T13:46:55.999Z</time></trkpt><trkpt lat="41.94823129274406" lon="2.6859680677191555"><ele>227.0</ele><time>2026-04-08T13:46:56.999Z</time></trkpt><trkpt lat="41.94821226136406" lon="2.686114570125374"><ele>227.0</ele><time>2026-04-08T13:46:57.999Z</time></trkpt><trkpt lat="41.94821549154326" lon="2.686298692250735"><ele>227.0</ele><time>2026-04-08T13:46:58.999Z</time></trkpt><trkpt lat="41.948229963422065" lon="2.6865035947495164"><ele>227.0</ele><time>2026-04-08T13:46:59.999Z</time></trkpt><trkpt lat="41.948249758740374" lon="2.686688712411808"><ele>227.0</ele><time>2026-04-08T13:47:00.999Z</time></trkpt><trkpt lat="41.94827378671678" lon="2.686839013789554"><ele>227.0</ele><time>2026-04-08T13:47:01.999Z</time></trkpt><trkpt lat="41.9483139623384" lon="2.686958350560915"><ele>227.0</ele><time>2026-04-08T13:47:02.999Z</time></trkpt><trkpt lat="41.94836684408654" lon="2.6870605043293567"><ele>227.0</ele><time>2026-04-08T13:47:03.999Z</time></trkpt><trkpt lat="41.94846467995147" lon="2.687128789067741"><ele>227.0</ele><time>2026-04-08T13:47:04.999Z</time></trkpt><trkpt lat="41.94858930672758" lon="2.68716462782556"><ele>227.0</ele><time>2026-04-08T13:47:05.999Z</time></trkpt><trkpt lat="41.9487370103241" lon="2.687182146011401"><ele>227.66666666666669</ele><time>2026-04-08T13:47:06.999Z</time></trkpt><trkpt lat="41.94890343477239" lon="2.6871756891758043"><ele>228.33333333333331</ele><time>2026-04-08T13:47:07.999Z</time></trkpt><trkpt lat="41.94906405671108" lon="2.687203496200008"><ele>229.0</ele><time>2026-04-08T13:47:08.999Z</time></trkpt><trkpt lat="41.9492418092024" lon="2.6872230292792447"><ele>229.33333333333331</ele><time>2026-04-08T13:47:09.999Z</time></trkpt><trkpt lat="41.94943048341087" lon="2.6872435143700377"><ele>229.66666666666669</ele><time>2026-04-08T13:47:10.999Z</time></trkpt><trkpt lat="41.949627781935085" lon="2.6872626673567046"><ele>230.0</ele><time>2026-04-08T13:47:11.999Z</time></trkpt><trkpt lat="41.9498205238265" lon="2.6872838001211297"><ele>230.0</ele><time>2026-04-08T13:47:12.999Z</time></trkpt><trkpt lat="41.95001458587128" lon="2.6873066131629404"><ele>230.0</ele><time>2026-04-08T13:47:13.999Z</time></trkpt><trkpt lat="41.95021200446666" lon="2.6873315016709864"><ele>230.0</ele><time>2026-04-08T13:47:14.999Z</time></trkpt><trkpt lat="41.95041551472179" lon="2.68735790082482"><ele>231.33333333333334</ele><time>2026-04-08T13:47:15.999Z</time></trkpt><trkpt lat="41.950607910149635" lon="2.6873826448178044"><ele>232.66666666666669</ele><time>2026-04-08T13:47:16.999Z</time></trkpt><trkpt lat="41.950784010983924" lon="2.6874050476058464"><ele>234.0</ele><time>2026-04-08T13:47:17.999Z</time></trkpt><trkpt lat="41.95094952332288" lon="2.6874276763110063"><ele>235.33333333333331</ele><time>2026-04-08T13:47:18.999Z</time></trkpt><trkpt lat="41.95111668763556" lon="2.6874461080680354"><ele>236.66666666666666</ele><time>2026-04-08T13:47:19.999Z</time></trkpt><trkpt lat="41.95129752016371" lon="2.6874695875411336"><ele>238.0</ele><time>2026-04-08T13:47:20.999Z</time></trkpt><trkpt lat="41.951475165545226" lon="2.687493786250736"><ele>238.0</ele><time>2026-04-08T13:47:21.999Z</time></trkpt><trkpt lat="41.951650546923" lon="2.687513273725669"><ele>238.0</ele><time>2026-04-08T13:47:22.999Z</time></trkpt><trkpt lat="41.95181270188465" lon="2.6875287110213404"><ele>238.0</ele><time>2026-04-08T13:47:23.999Z</time></trkpt><trkpt lat="41.95195924229537" lon="2.6875437036520236"><ele>238.8</ele><time>2026-04-08T13:47:24.999Z</time></trkpt><trkpt lat="41.95209455127285" lon="2.6875561242039625"><ele>239.60000000000002</ele><time>2026-04-08T13:47:25.999Z</time></trkpt><trkpt lat="41.952207057403996" lon="2.6875711224158922"><ele>240.39999999999998</ele><time>2026-04-08T13:47:26.999Z</time></trkpt><trkpt lat="41.95231481057417" lon="2.6875805029532844"><ele>241.2</ele><time>2026-04-08T13:47:27.999Z</time></trkpt><trkpt lat="41.95240138309929" lon="2.6876101651847946"><ele>242.0</ele><time>2026-04-08T13:47:28.999Z</time></trkpt><trkpt lat="41.952471087721726" lon="2.6875927707910243"><ele>242.0</ele><time>2026-04-08T13:47:29.999Z</time></trkpt><trkpt lat="41.952535559674885" lon="2.6875987187472385"><ele>242.0</ele><time>2026-04-08T13:47:30.999Z</time></trkpt><trkpt lat="41.95263565123811" lon="2.687664889422851"><ele>242.0</ele><time>2026-04-08T13:47:32.999Z</time></trkpt><trkpt lat="41.95264150765507" lon="2.687750080262819"><ele>242.0</ele><time>2026-04-08T13:47:33.999Z</time></trkpt><trkpt lat="41.95263463450244" lon="2.6879176547517623"><ele>242.0</ele><time>2026-04-08T13:47:36Z</time></trkpt><trkpt lat="41.95257613271078" lon="2.6880389061318675"><ele>242.0</ele><time>2026-04-08T13:47:38Z</time></trkpt><trkpt lat="41.952471883393365" lon="2.68810073306164"><ele>242.0</ele><time>2026-04-08T13:47:40Z</time></trkpt><trkpt lat="41.952385954802274" lon="2.688113155398061"><ele>242.0</ele><time>2026-04-08T13:47:41Z</time></trkpt><trkpt lat="41.952297790689634" lon="2.6880937372374674"><ele>242.0</ele><time>2026-04-08T13:47:42Z</time></trkpt><trkpt lat="41.952206025137215" lon="2.6880944292879243"><ele>242.0</ele><time>2026-04-08T13:47:43Z</time></trkpt><trkpt lat="41.95212611416238" lon="2.6881261115976436"><ele>242.0</ele><time>2026-04-08T13:47:44Z</time></trkpt><trkpt lat="41.952039536728826" lon="2.6881904262157126"><ele>242.0</ele><time>2026-04-08T13:47:45Z</time></trkpt><trkpt lat="41.951965219717465" lon="2.6882675286737667"><ele>242.0</ele><time>2026-04-08T13:47:46Z</time></trkpt><trkpt lat="41.95190109201541" lon="2.6883531460691312"><ele>242.0</ele><time>2026-04-08T13:47:47Z</time></trkpt><trkpt lat="41.95183774749085" lon="2.688448938781032"><ele>242.0</ele><time>2026-04-08T13:47:48Z</time></trkpt><trkpt lat="41.95178081041669" lon="2.6885455646150525"><ele>241.6</ele><time>2026-04-08T13:47:49Z</time></trkpt><trkpt lat="41.95173217449175" lon="2.6886524909324168"><ele>241.2</ele><time>2026-04-08T13:47:50Z</time></trkpt><trkpt lat="41.951696683442364" lon="2.6887657870965933"><ele>240.8</ele><time>2026-04-08T13:47:51Z</time></trkpt><trkpt lat="41.951660193146864" lon="2.6888913711624114"><ele>240.4</ele><time>2026-04-08T13:47:52Z</time></trkpt><trkpt lat="41.95161530100348" lon="2.6890116241354387"><ele>240.0</ele><time>2026-04-08T13:47:53Z</time></trkpt><trkpt lat="41.9515803947903" lon="2.6891241219705035"><ele>240.0</ele><time>2026-04-08T13:47:54Z</time></trkpt><trkpt lat="41.95155038061091" lon="2.689233521165929"><ele>240.0</ele><time>2026-04-08T13:47:55Z</time></trkpt><trkpt lat="41.951515626568586" lon="2.689342637363459"><ele>240.0</ele><time>2026-04-08T13:47:56Z</time></trkpt><trkpt lat="41.95148434886011" lon="2.689444255471896"><ele>240.0</ele><time>2026-04-08T13:47:57Z</time></trkpt><trkpt lat="41.95145620580384" lon="2.6895314466367415"><ele>240.0</ele><time>2026-04-08T13:47:58Z</time></trkpt><trkpt lat="41.951432746076016" lon="2.6896139671162698"><ele>240.0</ele><time>2026-04-08T13:47:59Z</time></trkpt><trkpt lat="41.95141466606035" lon="2.689712392585321"><ele>240.28571428571428</ele><time>2026-04-08T13:48:00Z</time></trkpt><trkpt lat="41.95141170259214" lon="2.689807852476284"><ele>240.57142857142856</ele><time>2026-04-08T13:48:01Z</time></trkpt><trkpt lat="41.951434415933264" lon="2.6898877979724194"><ele>240.85714285714283</ele><time>2026-04-08T13:48:02Z</time></trkpt><trkpt lat="41.951484579379795" lon="2.689953864892065"><ele>241.14285714285714</ele><time>2026-04-08T13:48:03Z</time></trkpt><trkpt lat="41.95154678012639" lon="2.690013022098324"><ele>241.4285714285714</ele><time>2026-04-08T13:48:04Z</time></trkpt><trkpt lat="41.951632225148614" lon="2.690003669109374"><ele>241.7142857142857</ele><time>2026-04-08T13:48:05Z</time></trkpt><trkpt lat="41.951703898523526" lon="2.6900287293006406"><ele>242.0</ele><time>2026-04-08T13:48:06Z</time></trkpt><trkpt lat="41.951768561527295" lon="2.6900792230232913"><ele>242.50000000000003</ele><time>2026-04-08T13:48:07Z</time></trkpt><trkpt lat="41.95179641574743" lon="2.690165490046962"><ele>243.0</ele><time>2026-04-08T13:48:08Z</time></trkpt><trkpt lat="41.95181276540055" lon="2.6902513456771855"><ele>243.5</ele><time>2026-04-08T13:48:09Z</time></trkpt><trkpt lat="41.95179306954029" lon="2.6903340827956495"><ele>244.0</ele><time>2026-04-08T13:48:10Z</time></trkpt><trkpt lat="41.95177869816862" lon="2.69043236303965"><ele>244.50000000000003</ele><time>2026-04-08T13:48:11Z</time></trkpt><trkpt lat="41.95172371018713" lon="2.6905246322397987"><ele>245.0</ele><time>2026-04-08T13:48:12Z</time></trkpt><trkpt lat="41.95166560529077" lon="2.6906182056056833"><ele>245.0</ele><time>2026-04-08T13:48:13Z</time></trkpt><trkpt lat="41.95161037905134" lon="2.6907243052892444"><ele>245.0</ele><time>2026-04-08T13:48:14Z</time></trkpt><trkpt lat="41.95155010177935" lon="2.6908269007690655"><ele>245.0</ele><time>2026-04-08T13:48:15Z</time></trkpt><trkpt lat="41.951491450037175" lon="2.690934483313844"><ele>245.0</ele><time>2026-04-08T13:48:16Z</time></trkpt><trkpt lat="41.951434446411426" lon="2.691039741088119"><ele>245.0</ele><time>2026-04-08T13:48:17Z</time></trkpt><trkpt lat="41.95137849800916" lon="2.691148634763663"><ele>245.83333333333334</ele><time>2026-04-08T13:48:18Z</time></trkpt><trkpt lat="41.95133030461402" lon="2.6912549549425915"><ele>246.66666666666669</ele><time>2026-04-08T13:48:19Z</time></trkpt><trkpt lat="41.951298527259105" lon="2.691360897389195"><ele>247.5</ele><time>2026-04-08T13:48:20Z</time></trkpt><trkpt lat="41.95128510034072" lon="2.6914708161416026"><ele>248.33333333333331</ele><time>2026-04-08T13:48:21Z</time></trkpt><trkpt lat="41.95127648309206" lon="2.6915735815067605"><ele>249.16666666666666</ele><time>2026-04-08T13:48:22Z</time></trkpt><trkpt lat="41.95125705774945" lon="2.691668518470404"><ele>250.0</ele><time>2026-04-08T13:48:23Z</time></trkpt><trkpt lat="41.95121912617709" lon="2.691748672672785"><ele>250.0</ele><time>2026-04-08T13:48:24Z</time></trkpt><trkpt lat="41.95116477609024" lon="2.691806434487295"><ele>250.0</ele><time>2026-04-08T13:48:25Z</time></trkpt><trkpt lat="41.951100938358" lon="2.6918331472374706"><ele>250.0</ele><time>2026-04-08T13:48:26Z</time></trkpt><trkpt lat="41.95102901913411" lon="2.691820567304341"><ele>250.0</ele><time>2026-04-08T13:48:27Z</time></trkpt><trkpt lat="41.95095624296544" lon="2.6918031248423775"><ele>250.0</ele><time>2026-04-08T13:48:28Z</time></trkpt><trkpt lat="41.95088829672024" lon="2.691805316307752"><ele>250.0</ele><time>2026-04-08T13:48:29Z</time></trkpt><trkpt lat="41.95082407792561" lon="2.6918397668220946"><ele>250.0</ele><time>2026-04-08T13:48:30Z</time></trkpt><trkpt lat="41.95076242068573" lon="2.691907646130576"><ele>249.33333333333331</ele><time>2026-04-08T13:48:31Z</time></trkpt><trkpt lat="41.95071976928471" lon="2.6919967830451657"><ele>248.66666666666666</ele><time>2026-04-08T13:48:32Z</time></trkpt><trkpt lat="41.95069851669026" lon="2.6921041446599974"><ele>248.0</ele><time>2026-04-08T13:48:33Z</time></trkpt><trkpt lat="41.95070206872948" lon="2.692219404815428"><ele>247.33333333333331</ele><time>2026-04-08T13:48:34Z</time></trkpt><trkpt lat="41.95071659387129" lon="2.69232943819829"><ele>246.66666666666666</ele><time>2026-04-08T13:48:35Z</time></trkpt><trkpt lat="41.95072472837929" lon="2.6924431345053477"><ele>246.0</ele><time>2026-04-08T13:48:36Z</time></trkpt><trkpt lat="41.9507415247411" lon="2.6925639379238895"><ele>246.0</ele><time>2026-04-08T13:48:37Z</time></trkpt><trkpt lat="41.950754562563446" lon="2.6926848657999716"><ele>246.00000000000003</ele><time>2026-04-08T13:48:38Z</time></trkpt><trkpt lat="41.95076695299388" lon="2.69279677342355"><ele>246.00000000000003</ele><time>2026-04-08T13:48:38.998Z</time></trkpt><trkpt lat="41.95077614072621" lon="2.6929018884210407"><ele>246.0</ele><time>2026-04-08T13:48:39.998Z</time></trkpt><trkpt lat="41.95079128645523" lon="2.6930220495090444"><ele>246.0</ele><time>2026-04-08T13:48:40.998Z</time></trkpt><trkpt lat="41.95081543033529" lon="2.6931602815703903"><ele>246.4</ele><time>2026-04-08T13:48:41.998Z</time></trkpt><trkpt lat="41.950851525868245" lon="2.6933052938591557"><ele>246.8</ele><time>2026-04-08T13:48:42.998Z</time></trkpt><trkpt lat="41.95089611046753" lon="2.6934436606542933"><ele>247.20000000000002</ele><time>2026-04-08T13:48:43.998Z</time></trkpt><trkpt lat="41.950946369097935" lon="2.6935731665681644"><ele>247.60000000000002</ele><time>2026-04-08T13:48:44.998Z</time></trkpt><trkpt lat="41.9509969422843" lon="2.6936899838469155"><ele>248.0</ele><time>2026-04-08T13:48:45.998Z</time></trkpt><trkpt lat="41.95104805167041" lon="2.6938008873179706"><ele>249.00000000000003</ele><time>2026-04-08T13:48:46.998Z</time></trkpt><trkpt lat="41.95110484927284" lon="2.6938928145338563"><ele>250.0</ele><time>2026-04-08T13:48:47.998Z</time></trkpt><trkpt lat="41.95116809968164" lon="2.693965543618053"><ele>251.0</ele><time>2026-04-08T13:48:48.998Z</time></trkpt><trkpt lat="41.951237911051635" lon="2.6940097683766133"><ele>252.0</ele><time>2026-04-08T13:48:49.998Z</time></trkpt><trkpt lat="41.95131360973188" lon="2.694032331139868"><ele>253.00000000000003</ele><time>2026-04-08T13:48:50.999Z</time></trkpt><trkpt lat="41.951390359870736" lon="2.694047932301962"><ele>254.0</ele><time>2026-04-08T13:48:51.999Z</time></trkpt><trkpt lat="41.9514595659621" lon="2.694083651126575"><ele>254.00000000000003</ele><time>2026-04-08T13:48:52.999Z</time></trkpt><trkpt lat="41.951516336795954" lon="2.6941491583015416"><ele>254.0</ele><time>2026-04-08T13:48:53.999Z</time></trkpt><trkpt lat="41.95155305118372" lon="2.6942335711495327"><ele>254.0</ele><time>2026-04-08T13:48:54.999Z</time></trkpt><trkpt lat="41.951573160462544" lon="2.694345916177442"><ele>254.0</ele><time>2026-04-08T13:48:55.999Z</time></trkpt><trkpt lat="41.95156978503396" lon="2.694463916795191"><ele>254.00000000000003</ele><time>2026-04-08T13:48:56.999Z</time></trkpt><trkpt lat="41.95156743821545" lon="2.6945839324576233"><ele>254.0</ele><time>2026-04-08T13:48:57.999Z</time></trkpt><trkpt lat="41.95156496511107" lon="2.694707549205878"><ele>253.33333333333334</ele><time>2026-04-08T13:48:58.999Z</time></trkpt><trkpt lat="41.951569908682075" lon="2.6948331284597637"><ele>252.66666666666669</ele><time>2026-04-08T13:48:59.999Z</time></trkpt><trkpt lat="41.95158632020253" lon="2.6949435448492087"><ele>252.0</ele><time>2026-04-08T13:49:00.999Z</time></trkpt><trkpt lat="41.95161466207993" lon="2.6950386305821508"><ele>251.33333333333331</ele><time>2026-04-08T13:49:01.999Z</time></trkpt><trkpt lat="41.95165427331904" lon="2.6951186036811103"><ele>250.66666666666666</ele><time>2026-04-08T13:49:02.999Z</time></trkpt><trkpt lat="41.95170922706777" lon="2.6951747726453736"><ele>250.0</ele><time>2026-04-08T13:49:03.999Z</time></trkpt><trkpt lat="41.9517771378784" lon="2.695202286147771"><ele>251.33333333333331</ele><time>2026-04-08T13:49:04.999Z</time></trkpt><trkpt lat="41.95185231566472" lon="2.69519000548486"><ele>252.66666666666666</ele><time>2026-04-08T13:49:05.999Z</time></trkpt><trkpt lat="41.95192469180553" lon="2.6951470840300185"><ele>254.0</ele><time>2026-04-08T13:49:06.999Z</time></trkpt><trkpt lat="41.952002751182036" lon="2.6950855310213724"><ele>255.33333333333331</ele><time>2026-04-08T13:49:07.999Z</time></trkpt><trkpt lat="41.95207698296769" lon="2.6950160387193374"><ele>256.6666666666667</ele><time>2026-04-08T13:49:08.999Z</time></trkpt><trkpt lat="41.952147505210064" lon="2.6949440222275807"><ele>258.0</ele><time>2026-04-08T13:49:09.999Z</time></trkpt><trkpt lat="41.95220857797871" lon="2.6948747113884233"><ele>257.99999999999994</ele><time>2026-04-08T13:49:10.999Z</time></trkpt><trkpt lat="41.95228065059441" lon="2.6948449412390585"><ele>258.0</ele><time>2026-04-08T13:49:11.999Z</time></trkpt><trkpt lat="41.952354519377614" lon="2.6948528600916233"><ele>258.0</ele><time>2026-04-08T13:49:12.999Z</time></trkpt><trkpt lat="41.95241757491989" lon="2.6948868392382725"><ele>258.0</ele><time>2026-04-08T13:49:13.999Z</time></trkpt><trkpt lat="41.95247091416107" lon="2.69495269382862"><ele>258.0</ele><time>2026-04-08T13:49:14.999Z</time></trkpt><trkpt lat="41.952496420033114" lon="2.6950464237712457"><ele>257.99999999999994</ele><time>2026-04-08T13:49:16Z</time></trkpt><trkpt lat="41.95249708646376" lon="2.69515271734876"><ele>258.0</ele><time>2026-04-08T13:49:17Z</time></trkpt><trkpt lat="41.95247924061465" lon="2.6952689989960583"><ele>257.1666666666667</ele><time>2026-04-08T13:49:18Z</time></trkpt><trkpt lat="41.952453797447596" lon="2.6953836009926295"><ele>256.3333333333333</ele><time>2026-04-08T13:49:19Z</time></trkpt><trkpt lat="41.95242954045153" lon="2.6954969940440123"><ele>255.5</ele><time>2026-04-08T13:49:20Z</time></trkpt><trkpt lat="41.952406306489934" lon="2.6956082889855915"><ele>254.66666666666666</ele><time>2026-04-08T13:49:21Z</time></trkpt><trkpt lat="41.95238177424096" lon="2.6957109789610905"><ele>253.83333333333331</ele><time>2026-04-08T13:49:22Z</time></trkpt><trkpt lat="41.952362696291154" lon="2.6958089151850455"><ele>253.0</ele><time>2026-04-08T13:49:23Z</time></trkpt><trkpt lat="41.95235003324411" lon="2.695904835119101"><ele>253.0</ele><time>2026-04-08T13:49:24Z</time></trkpt><trkpt lat="41.952349898608865" lon="2.695995573749019"><ele>253.0</ele><time>2026-04-08T13:49:25Z</time></trkpt><trkpt lat="41.952417208679186" lon="2.6961279321379306"><ele>253.0</ele><time>2026-04-08T13:49:27Z</time></trkpt><trkpt lat="41.95249312980296" lon="2.6961699727514676"><ele>253.0</ele><time>2026-04-08T13:49:28Z</time></trkpt><trkpt lat="41.952587644337335" lon="2.696184639477787"><ele>253.0</ele><time>2026-04-08T13:49:29Z</time></trkpt><trkpt lat="41.95267293668104" lon="2.6961676640097942"><ele>253.83333333333331</ele><time>2026-04-08T13:49:30Z</time></trkpt><trkpt lat="41.95275310118566" lon="2.6961131194156427"><ele>254.66666666666666</ele><time>2026-04-08T13:49:31Z</time></trkpt><trkpt lat="41.95282903526237" lon="2.696038080323163"><ele>255.5</ele><time>2026-04-08T13:49:32Z</time></trkpt><trkpt lat="41.95290771521597" lon="2.695978768840677"><ele>256.3333333333333</ele><time>2026-04-08T13:49:33Z</time></trkpt><trkpt lat="41.95296089881942" lon="2.6958985835858096"><ele>257.1666666666667</ele><time>2026-04-08T13:49:34Z</time></trkpt><trkpt lat="41.953026616785955" lon="2.695845904826911"><ele>258.0</ele><time>2026-04-08T13:49:35Z</time></trkpt><trkpt lat="41.95309932923118" lon="2.6958102338239835"><ele>258.0</ele><time>2026-04-08T13:49:36Z</time></trkpt><trkpt lat="41.95317551581811" lon="2.6958067839525843"><ele>258.0</ele><time>2026-04-08T13:49:37Z</time></trkpt><trkpt lat="41.95324077663147" lon="2.6958447462820994"><ele>258.0</ele><time>2026-04-08T13:49:38Z</time></trkpt><trkpt lat="41.953287447495754" lon="2.695915271295471"><ele>258.0</ele><time>2026-04-08T13:49:39Z</time></trkpt><trkpt lat="41.95330356223568" lon="2.6960108904019986"><ele>258.0</ele><time>2026-04-08T13:49:40Z</time></trkpt><trkpt lat="41.95329772376757" lon="2.6961334744011665"><ele>258.0</ele><time>2026-04-08T13:49:41Z</time></trkpt><trkpt lat="41.95326609586211" lon="2.6962611028164174"><ele>258.0</ele><time>2026-04-08T13:49:42Z</time></trkpt><trkpt lat="41.95322877381962" lon="2.6964475494704323"><ele>258.0</ele><time>2026-04-08T13:49:43Z</time></trkpt><trkpt lat="41.95317754207752" lon="2.696681305858163"><ele>258.0</ele><time>2026-04-08T13:49:44Z</time></trkpt><trkpt lat="41.95312646761018" lon="2.696903866133973"><ele>257.5</ele><time>2026-04-08T13:49:45Z</time></trkpt><trkpt lat="41.95308083890191" lon="2.697095837335236"><ele>257.0</ele><time>2026-04-08T13:49:46Z</time></trkpt><trkpt lat="41.953040378248524" lon="2.6972744440863714"><ele>256.5</ele><time>2026-04-08T13:49:47Z</time></trkpt><trkpt lat="41.95299174489656" lon="2.697418391784854"><ele>256.0</ele><time>2026-04-08T13:49:48Z</time></trkpt><trkpt lat="41.95291932844963" lon="2.6975111061174064"><ele>256.0</ele><time>2026-04-08T13:49:49Z</time></trkpt><trkpt lat="41.95282049896363" lon="2.6975615089754106"><ele>256.0</ele><time>2026-04-08T13:49:50Z</time></trkpt><trkpt lat="41.95269853303205" lon="2.697563836207218"><ele>256.0</ele><time>2026-04-08T13:49:51Z</time></trkpt><trkpt lat="41.95255274908317" lon="2.6975960201384055"><ele>256.0</ele><time>2026-04-08T13:49:52Z</time></trkpt><trkpt lat="41.952419489456574" lon="2.6976088562895413"><ele>255.25</ele><time>2026-04-08T13:49:53Z</time></trkpt><trkpt lat="41.95229545687233" lon="2.6976519492957594"><ele>254.5</ele><time>2026-04-08T13:49:54Z</time></trkpt><trkpt lat="41.95217472492055" lon="2.6977348196769975"><ele>253.75</ele><time>2026-04-08T13:49:55Z</time></trkpt><trkpt lat="41.95205064249096" lon="2.697868759228212"><ele>253.0</ele><time>2026-04-08T13:49:56Z</time></trkpt><trkpt lat="41.951909211666916" lon="2.6980529086233496"><ele>254.0</ele><time>2026-04-08T13:49:57Z</time></trkpt><trkpt lat="41.951751391125974" lon="2.698254989106356"><ele>255.0</ele><time>2026-04-08T13:49:58Z</time></trkpt><trkpt lat="41.95158814984315" lon="2.698454510544235"><ele>256.0</ele><time>2026-04-08T13:49:59Z</time></trkpt><trkpt lat="41.951403960268586" lon="2.6986409615558764"><ele>253.0</ele><time>2026-04-08T13:50:00Z</time></trkpt><trkpt lat="41.95125759723923" lon="2.698850001655564"><ele>250.0</ele><time>2026-04-08T13:50:01Z</time></trkpt><trkpt lat="41.95110645980474" lon="2.6990140108917524"><ele>247.0</ele><time>2026-04-08T13:50:02Z</time></trkpt><trkpt lat="41.950970610468616" lon="2.699150313687415"><ele>249.0</ele><time>2026-04-08T13:50:03Z</time></trkpt><trkpt lat="41.95084759765848" lon="2.6992691094919548"><ele>251.0</ele><time>2026-04-08T13:50:04Z</time></trkpt><trkpt lat="41.95075329319162" lon="2.699374971799939"><ele>253.0</ele><time>2026-04-08T13:50:05Z</time></trkpt><trkpt lat="41.95067775036832" lon="2.6994918115712303"><ele>255.0</ele><time>2026-04-08T13:50:06Z</time></trkpt><trkpt lat="41.95063715976366" lon="2.6996326106182527"><ele>255.0</ele><time>2026-04-08T13:50:07Z</time></trkpt><trkpt lat="41.95063604127019" lon="2.6998092023870472"><ele>255.0</ele><time>2026-04-08T13:50:08Z</time></trkpt><trkpt lat="41.95064667919075" lon="2.7000301547054364"><ele>255.0</ele><time>2026-04-08T13:50:09Z</time></trkpt><trkpt lat="41.950659717898695" lon="2.700290554939592"><ele>254.66666666666669</ele><time>2026-04-08T13:50:10Z</time></trkpt><trkpt lat="41.95067241683426" lon="2.7005554531263787"><ele>254.33333333333334</ele><time>2026-04-08T13:50:11.001Z</time></trkpt><trkpt lat="41.95069183627121" lon="2.7008126739933425"><ele>254.0</ele><time>2026-04-08T13:50:12.001Z</time></trkpt><trkpt lat="41.95068789145449" lon="2.701051283624222"><ele>253.25</ele><time>2026-04-08T13:50:13.001Z</time></trkpt><trkpt lat="41.950698931381574" lon="2.701261958924688"><ele>252.5</ele><time>2026-04-08T13:50:14.001Z</time></trkpt><trkpt lat="41.95071903252732" lon="2.701440891186395"><ele>251.75</ele><time>2026-04-08T13:50:15.001Z</time></trkpt><trkpt lat="41.95069498700159" lon="2.701608126095307"><ele>251.0</ele><time>2026-04-08T13:50:16.001Z</time></trkpt><trkpt lat="41.950679737406325" lon="2.701776338954154"><ele>250.0</ele><time>2026-04-08T13:50:17.001Z</time></trkpt><trkpt lat="41.950619304665416" lon="2.701932780222345"><ele>249.0</ele><time>2026-04-08T13:50:18.001Z</time></trkpt><trkpt lat="41.950522136937025" lon="2.7020783989547215"><ele>248.0</ele><time>2026-04-08T13:50:19.001Z</time></trkpt><trkpt lat="41.950391065268285" lon="2.702233335098222"><ele>248.0</ele><time>2026-04-08T13:50:20.001Z</time></trkpt><trkpt lat="41.95023674060347" lon="2.7023958968735675"><ele>248.0</ele><time>2026-04-08T13:50:21.001Z</time></trkpt><trkpt lat="41.95004831671936" lon="2.702564394004766"><ele>248.0</ele><time>2026-04-08T13:50:22.001Z</time></trkpt><trkpt lat="41.94986876700501" lon="2.7027580953339223"><ele>252.33333333333334</ele><time>2026-04-08T13:50:23.001Z</time></trkpt><trkpt lat="41.94970547613268" lon="2.7029361988549203"><ele>256.6666666666667</ele><time>2026-04-08T13:50:24.001Z</time></trkpt><trkpt lat="41.94955822529367" lon="2.7030946686882236"><ele>261.0</ele><time>2026-04-08T13:50:25.001Z</time></trkpt><trkpt lat="41.94941022452132" lon="2.703209468571961"><ele>261.0</ele><time>2026-04-08T13:50:26.001Z</time></trkpt><trkpt lat="41.949294563315235" lon="2.7033370154006664"><ele>261.0</ele><time>2026-04-08T13:50:27.001Z</time></trkpt><trkpt lat="41.94919540638607" lon="2.7034510426799963"><ele>261.0</ele><time>2026-04-08T13:50:28.001Z</time></trkpt><trkpt lat="41.94913627869089" lon="2.703615892374413"><ele>261.0</ele><time>2026-04-08T13:50:29.001Z</time></trkpt><trkpt lat="41.949087149656236" lon="2.7037947555280217"><ele>261.0</ele><time>2026-04-08T13:50:30.001Z</time></trkpt><trkpt lat="41.94903046261604" lon="2.7040124332424798"><ele>261.0</ele><time>2026-04-08T13:50:31.001Z</time></trkpt><trkpt lat="41.94898979217442" lon="2.70422427327639"><ele>261.0</ele><time>2026-04-08T13:50:32.001Z</time></trkpt><trkpt lat="41.948958255111165" lon="2.7044100334126586"><ele>261.40000000000003</ele><time>2026-04-08T13:50:33.001Z</time></trkpt><trkpt lat="41.94893364828393" lon="2.7045654655486664"><ele>261.8</ele><time>2026-04-08T13:50:34.001Z</time></trkpt><trkpt lat="41.948870980897254" lon="2.7046842318090634"><ele>262.20000000000005</ele><time>2026-04-08T13:50:35.001Z</time></trkpt><trkpt lat="41.94878219171867" lon="2.7047568699763103"><ele>262.6</ele><time>2026-04-08T13:50:36.001Z</time></trkpt><trkpt lat="41.948669935735175" lon="2.7047934461882863"><ele>263.0</ele><time>2026-04-08T13:50:37.001Z</time></trkpt><trkpt lat="41.94855122775415" lon="2.704771757592988"><ele>263.0</ele><time>2026-04-08T13:50:38.001Z</time></trkpt><trkpt lat="41.94843079920742" lon="2.7047681891799065"><ele>263.0</ele><time>2026-04-08T13:50:39.001Z</time></trkpt><trkpt lat="41.94831549840032" lon="2.7047625087558234"><ele>263.0</ele><time>2026-04-08T13:50:40.001Z</time></trkpt><trkpt lat="41.948226339099385" lon="2.704788926372863"><ele>263.0</ele><time>2026-04-08T13:50:41.001Z</time></trkpt><trkpt lat="41.948156437496905" lon="2.70485810434122"><ele>263.0</ele><time>2026-04-08T13:50:42.001Z</time></trkpt><trkpt lat="41.94810922137745" lon="2.7049596897883528"><ele>262.0</ele><time>2026-04-08T13:50:43.001Z</time></trkpt><trkpt lat="41.94809616601075" lon="2.7050774587991087"><ele>261.0</ele><time>2026-04-08T13:50:44.001Z</time></trkpt><trkpt lat="41.9481284480547" lon="2.7051956601118516"><ele>260.0</ele><time>2026-04-08T13:50:44.999Z</time></trkpt><trkpt lat="41.948187635594024" lon="2.705294565133775"><ele>259.0</ele><time>2026-04-08T13:50:45.999Z</time></trkpt><trkpt lat="41.948283139448925" lon="2.70536486424828"><ele>258.0</ele><time>2026-04-08T13:50:46.999Z</time></trkpt><trkpt lat="41.94840711954447" lon="2.705409248428273"><ele>258.0</ele><time>2026-04-08T13:50:47.999Z</time></trkpt><trkpt lat="41.948565662915" lon="2.705438792481547"><ele>258.0</ele><time>2026-04-08T13:50:48.999Z</time></trkpt><trkpt lat="41.9487437185526" lon="2.7054669912460203"><ele>258.0</ele><time>2026-04-08T13:50:49.999Z</time></trkpt><trkpt lat="41.94890375678531" lon="2.7055167767291612"><ele>258.0</ele><time>2026-04-08T13:50:50.999Z</time></trkpt><trkpt lat="41.94903998240858" lon="2.705551174642756"><ele>258.0</ele><time>2026-04-08T13:50:51.999Z</time></trkpt><trkpt lat="41.94916085866303" lon="2.7056006127850316"><ele>258.0</ele><time>2026-04-08T13:50:52.999Z</time></trkpt><trkpt lat="41.949267442476994" lon="2.7057018072013075"><ele>258.0</ele><time>2026-04-08T13:50:53.999Z</time></trkpt><trkpt lat="41.94936152108745" lon="2.70584466050452"><ele>258.75</ele><time>2026-04-08T13:50:54.999Z</time></trkpt><trkpt lat="41.94947046107258" lon="2.705979863854238"><ele>259.5</ele><time>2026-04-08T13:50:55.999Z</time></trkpt><trkpt lat="41.949547738613695" lon="2.706104074311282"><ele>260.25</ele><time>2026-04-08T13:50:56.999Z</time></trkpt><trkpt lat="41.949637398329614" lon="2.706187548623597"><ele>261.0</ele><time>2026-04-08T13:50:57.999Z</time></trkpt><trkpt lat="41.94974748656954" lon="2.706252798073412"><ele>261.0</ele><time>2026-04-08T13:50:58.999Z</time></trkpt><trkpt lat="41.94988459584106" lon="2.7062669444056984"><ele>261.0</ele><time>2026-04-08T13:50:59.999Z</time></trkpt><trkpt lat="41.950013544286875" lon="2.706262145699085"><ele>261.0</ele><time>2026-04-08T13:51:00.999Z</time></trkpt><trkpt lat="41.95011165026585" lon="2.7062933162583476"><ele>261.0</ele><time>2026-04-08T13:51:01.999Z</time></trkpt><trkpt lat="41.95018076006944" lon="2.706362460131344"><ele>261.0</ele><time>2026-04-08T13:51:02.999Z</time></trkpt><trkpt lat="41.950228002105156" lon="2.706463953958476"><ele>261.0</ele><time>2026-04-08T13:51:03.999Z</time></trkpt><trkpt lat="41.95022961363623" lon="2.7065962166848547"><ele>261.0</ele><time>2026-04-08T13:51:04.999Z</time></trkpt><trkpt lat="41.95021805545347" lon="2.7067533606065934"><ele>261.0</ele><time>2026-04-08T13:51:05.999Z</time></trkpt><trkpt lat="41.95020731412635" lon="2.7069143655368073"><ele>261.0</ele><time>2026-04-08T13:51:06.999Z</time></trkpt><trkpt lat="41.9501639226746" lon="2.707043421783098"><ele>261.6</ele><time>2026-04-08T13:51:07.999Z</time></trkpt><trkpt lat="41.95010473589836" lon="2.707133381607213"><ele>262.20000000000005</ele><time>2026-04-08T13:51:09Z</time></trkpt><trkpt lat="41.950015642540805" lon="2.7071874075871687"><ele>262.79999999999995</ele><time>2026-04-08T13:51:10Z</time></trkpt><trkpt lat="41.94990119383743" lon="2.707199126031149"><ele>263.4</ele><time>2026-04-08T13:51:11Z</time></trkpt><trkpt lat="41.94977910715935" lon="2.707167046477732"><ele>264.0</ele><time>2026-04-08T13:51:12Z</time></trkpt><trkpt lat="41.94964690919671" lon="2.707124014712279"><ele>264.0</ele><time>2026-04-08T13:51:13Z</time></trkpt><trkpt lat="41.949518613228435" lon="2.7071216104460234"><ele>264.0</ele><time>2026-04-08T13:51:14Z</time></trkpt><trkpt lat="41.94939595819819" lon="2.707170102949987"><ele>264.0</ele><time>2026-04-08T13:51:15Z</time></trkpt><trkpt lat="41.94928332580195" lon="2.7072401097220764"><ele>264.0</ele><time>2026-04-08T13:51:16Z</time></trkpt><trkpt lat="41.94916669386018" lon="2.7072530517565982"><ele>264.0</ele><time>2026-04-08T13:51:17Z</time></trkpt><trkpt lat="41.94905584261801" lon="2.707214134717032"><ele>264.0</ele><time>2026-04-08T13:51:18Z</time></trkpt><trkpt lat="41.9489413647676" lon="2.7071298633086682"><ele>264.0</ele><time>2026-04-08T13:51:19Z</time></trkpt><trkpt lat="41.94883705401981" lon="2.7070452734852477"><ele>264.0</ele><time>2026-04-08T13:51:20Z</time></trkpt><trkpt lat="41.94871796335582" lon="2.7070159867557924"><ele>264.0</ele><time>2026-04-08T13:51:21Z</time></trkpt><trkpt lat="41.948589420880225" lon="2.707039666425897"><ele>264.0</ele><time>2026-04-08T13:51:22Z</time></trkpt><trkpt lat="41.94847881461492" lon="2.7070767434263607"><ele>264.0</ele><time>2026-04-08T13:51:23Z</time></trkpt><trkpt lat="41.94839065102298" lon="2.7071379973770378"><ele>264.0</ele><time>2026-04-08T13:51:24Z</time></trkpt><trkpt lat="41.94832268236783" lon="2.7072393785586653"><ele>264.0</ele><time>2026-04-08T13:51:25Z</time></trkpt><trkpt lat="41.94828098964216" lon="2.7073839360863414"><ele>261.6666666666667</ele><time>2026-04-08T13:51:26Z</time></trkpt><trkpt lat="41.94826138797489" lon="2.7075717910236077"><ele>259.33333333333337</ele><time>2026-04-08T13:51:27Z</time></trkpt><trkpt lat="41.94825252475299" lon="2.7077932970054355"><ele>257.0</ele><time>2026-04-08T13:51:28Z</time></trkpt><trkpt lat="41.94824302935884" lon="2.7080010097704443"><ele>256.75</ele><time>2026-04-08T13:51:29Z</time></trkpt><trkpt lat="41.94824052489052" lon="2.708178427490056"><ele>256.5</ele><time>2026-04-08T13:51:30Z</time></trkpt><trkpt lat="41.948245745654205" lon="2.708325223531689"><ele>256.25</ele><time>2026-04-08T13:51:31Z</time></trkpt><trkpt lat="41.948278435705944" lon="2.7084624319074573"><ele>256.0</ele><time>2026-04-08T13:51:32Z</time></trkpt><trkpt lat="41.94835200139766" lon="2.7086069856770276"><ele>258.3333333333333</ele><time>2026-04-08T13:51:33Z</time></trkpt><trkpt lat="41.94845453183459" lon="2.708770686345827"><ele>260.6666666666667</ele><time>2026-04-08T13:51:34Z</time></trkpt><trkpt lat="41.94855764856097" lon="2.7089187452902497"><ele>263.0</ele><time>2026-04-08T13:51:35Z</time></trkpt><trkpt lat="41.9486681340939" lon="2.709033834394393"><ele>263.0</ele><time>2026-04-08T13:51:36Z</time></trkpt><trkpt lat="41.94881454821326" lon="2.7091337845155623"><ele>263.0</ele><time>2026-04-08T13:51:37Z</time></trkpt><trkpt lat="41.948962960571905" lon="2.709211102567714"><ele>263.0</ele><time>2026-04-08T13:51:38Z</time></trkpt><trkpt lat="41.94908067517107" lon="2.709321653956249"><ele>263.0</ele><time>2026-04-08T13:51:39Z</time></trkpt><trkpt lat="41.94919029772384" lon="2.709391784152272"><ele>263.0</ele><time>2026-04-08T13:51:40Z</time></trkpt><trkpt lat="41.94926005133253" lon="2.709498869398785"><ele>263.0</ele><time>2026-04-08T13:51:41Z</time></trkpt><trkpt lat="41.94929758916721" lon="2.709625100323609"><ele>263.0</ele><time>2026-04-08T13:51:42Z</time></trkpt><trkpt lat="41.949295157259485" lon="2.709757774319987"><ele>263.0</ele><time>2026-04-08T13:51:43Z</time></trkpt><trkpt lat="41.949234491339155" lon="2.709875608225918"><ele>262.6</ele><time>2026-04-08T13:51:44Z</time></trkpt><trkpt lat="41.94917722495593" lon="2.7099893380436826"><ele>262.20000000000005</ele><time>2026-04-08T13:51:45Z</time></trkpt><trkpt lat="41.949086829502185" lon="2.710037821678013"><ele>261.8</ele><time>2026-04-08T13:51:46Z</time></trkpt><trkpt lat="41.94898765228054" lon="2.7100348673333228"><ele>261.40000000000003</ele><time>2026-04-08T13:51:47Z</time></trkpt><trkpt lat="41.948870969827176" lon="2.7099893101138655"><ele>261.0</ele><time>2026-04-08T13:51:48Z</time></trkpt><trkpt lat="41.94875614787013" lon="2.709930815707521"><ele>261.0</ele><time>2026-04-08T13:51:49.001Z</time></trkpt><trkpt lat="41.94865754475602" lon="2.709899386830955"><ele>261.0</ele><time>2026-04-08T13:51:50.001Z</time></trkpt><trkpt lat="41.94856874087658" lon="2.709922068967649"><ele>261.0</ele><time>2026-04-08T13:51:51.001Z</time></trkpt><trkpt lat="41.94849826062428" lon="2.7099885561590717"><ele>261.0</ele><time>2026-04-08T13:51:52.001Z</time></trkpt><trkpt lat="41.94844926033794" lon="2.7101009521277497"><ele>261.0</ele><time>2026-04-08T13:51:53.001Z</time></trkpt><trkpt lat="41.94839100437897" lon="2.71022553059198"><ele>261.2</ele><time>2026-04-08T13:51:54.001Z</time></trkpt><trkpt lat="41.94833812393823" lon="2.710325495519723"><ele>261.40000000000003</ele><time>2026-04-08T13:51:55.001Z</time></trkpt><trkpt lat="41.948240248390846" lon="2.710360799322488"><ele>261.6</ele><time>2026-04-08T13:51:56.001Z</time></trkpt><trkpt lat="41.94813505699101" lon="2.710370002701989"><ele>261.8</ele><time>2026-04-08T13:51:57.001Z</time></trkpt><trkpt lat="41.948038997644574" lon="2.7104171000666404"><ele>262.0</ele><time>2026-04-08T13:51:58.001Z</time></trkpt><trkpt lat="41.94794451534643" lon="2.7105374440631356"><ele>262.0</ele><time>2026-04-08T13:51:59.001Z</time></trkpt><trkpt lat="41.94782702891958" lon="2.7107145375606025"><ele>262.0</ele><time>2026-04-08T13:52:00.001Z</time></trkpt><trkpt lat="41.94770162995586" lon="2.7109015216311"><ele>262.0</ele><time>2026-04-08T13:52:01.001Z</time></trkpt><trkpt lat="41.947577231439126" lon="2.71108439157186"><ele>260.75</ele><time>2026-04-08T13:52:02.001Z</time></trkpt><trkpt lat="41.947462396974" lon="2.7112468383643162"><ele>259.5</ele><time>2026-04-08T13:52:03.001Z</time></trkpt><trkpt lat="41.94736563898543" lon="2.71139017918461"><ele>258.25</ele><time>2026-04-08T13:52:04.001Z</time></trkpt><trkpt lat="41.947288860245195" lon="2.7115231524327505"><ele>257.0</ele><time>2026-04-08T13:52:05.001Z</time></trkpt><trkpt lat="41.947235380512346" lon="2.7116681247327272"><ele>257.0</ele><time>2026-04-08T13:52:06.001Z</time></trkpt><trkpt lat="41.94721017941386" lon="2.7118460591652527"><ele>257.0</ele><time>2026-04-08T13:52:07.001Z</time></trkpt><trkpt lat="41.947202032257444" lon="2.7120643775513753"><ele>257.0</ele><time>2026-04-08T13:52:08.001Z</time></trkpt><trkpt lat="41.94719582981896" lon="2.7123053981893768"><ele>257.0</ele><time>2026-04-08T13:52:09.001Z</time></trkpt><trkpt lat="41.94717828600268" lon="2.712537514115349"><ele>257.0</ele><time>2026-04-08T13:52:10.001Z</time></trkpt><trkpt lat="41.94716935599102" lon="2.7127607033307064"><ele>257.0</ele><time>2026-04-08T13:52:11.001Z</time></trkpt><trkpt lat="41.94717530108103" lon="2.712976266208796"><ele>256.33333333333337</ele><time>2026-04-08T13:52:12.001Z</time></trkpt><trkpt lat="41.947169966148834" lon="2.713183674235381"><ele>255.66666666666669</ele><time>2026-04-08T13:52:13.001Z</time></trkpt><trkpt lat="41.94718385291163" lon="2.7134017708113176"><ele>255.0</ele><time>2026-04-08T13:52:14.001Z</time></trkpt><trkpt lat="41.947229799068396" lon="2.7136300537444593"><ele>251.66666666666669</ele><time>2026-04-08T13:52:15.001Z</time></trkpt><trkpt lat="41.947293657498754" lon="2.7138541351128205"><ele>248.33333333333334</ele><time>2026-04-08T13:52:16.001Z</time></trkpt><trkpt lat="41.947331189826116" lon="2.7140673762690453"><ele>245.0</ele><time>2026-04-08T13:52:17.001Z</time></trkpt><trkpt lat="41.94740324589345" lon="2.7142360321866343"><ele>245.0</ele><time>2026-04-08T13:52:18.001Z</time></trkpt><trkpt lat="41.94746419854067" lon="2.714391870627039"><ele>245.0</ele><time>2026-04-08T13:52:19.001Z</time></trkpt><trkpt lat="41.947555074500364" lon="2.714522902072349"><ele>245.0</ele><time>2026-04-08T13:52:20.001Z</time></trkpt><trkpt lat="41.94767293343454" lon="2.7146458375348104"><ele>245.0</ele><time>2026-04-08T13:52:21.001Z</time></trkpt><trkpt lat="41.94779758721702" lon="2.7147494667852046"><ele>246.0</ele><time>2026-04-08T13:52:22.001Z</time></trkpt><trkpt lat="41.947905991465525" lon="2.7148446060644686"><ele>247.0</ele><time>2026-04-08T13:52:23.001Z</time></trkpt><trkpt lat="41.94799095862563" lon="2.7149409211594477"><ele>248.0</ele><time>2026-04-08T13:52:24.001Z</time></trkpt><trkpt lat="41.94805310358045" lon="2.7150315853078344"><ele>249.0</ele><time>2026-04-08T13:52:25.001Z</time></trkpt><trkpt lat="41.9480779304942" lon="2.715131704096072"><ele>250.0</ele><time>2026-04-08T13:52:26.001Z</time></trkpt><trkpt lat="41.948069972853176" lon="2.7152467031586696"><ele>250.5</ele><time>2026-04-08T13:52:27.001Z</time></trkpt><trkpt lat="41.948031559636135" lon="2.7153758004038506"><ele>251.0</ele><time>2026-04-08T13:52:28.001Z</time></trkpt><trkpt lat="41.947967669921766" lon="2.7155150990266224"><ele>251.5</ele><time>2026-04-08T13:52:29.001Z</time></trkpt><trkpt lat="41.947897539483115" lon="2.71565748711215"><ele>252.0</ele><time>2026-04-08T13:52:30.001Z</time></trkpt><trkpt lat="41.94783770193115" lon="2.715790442729069"><ele>252.0</ele><time>2026-04-08T13:52:31.001Z</time></trkpt><trkpt lat="41.94779774297645" lon="2.715930684058308"><ele>252.0</ele><time>2026-04-08T13:52:32.001Z</time></trkpt><trkpt lat="41.94778427566392" lon="2.716091078447183"><ele>252.0</ele><time>2026-04-08T13:52:33.001Z</time></trkpt><trkpt lat="41.94779640165271" lon="2.7162726479073758"><ele>252.0</ele><time>2026-04-08T13:52:34.001Z</time></trkpt><trkpt lat="41.94783658465346" lon="2.7164719877565777"><ele>249.0</ele><time>2026-04-08T13:52:35.001Z</time></trkpt><trkpt lat="41.94788275866949" lon="2.7166973969170365"><ele>246.0</ele><time>2026-04-08T13:52:36.001Z</time></trkpt><trkpt lat="41.94792344140157" lon="2.7169361974478403"><ele>243.0</ele><time>2026-04-08T13:52:37.001Z</time></trkpt><trkpt lat="41.947964898300704" lon="2.7171580861646425"><ele>239.0</ele><time>2026-04-08T13:52:38.001Z</time></trkpt><trkpt lat="41.94799964878086" lon="2.717367357648942"><ele>235.0</ele><time>2026-04-08T13:52:39.001Z</time></trkpt><trkpt lat="41.948039167016624" lon="2.71756383468106"><ele>231.0</ele><time>2026-04-08T13:52:40.001Z</time></trkpt><trkpt lat="41.94807235184256" lon="2.7177483548479433"><ele>230.20000000000002</ele><time>2026-04-08T13:52:41.001Z</time></trkpt><trkpt lat="41.9480982608074" lon="2.717904886740629"><ele>229.40000000000003</ele><time>2026-04-08T13:52:42.002Z</time></trkpt><trkpt lat="41.948104251968765" lon="2.718034825894039"><ele>228.6</ele><time>2026-04-08T13:52:43.002Z</time></trkpt><trkpt lat="41.948088322243706" lon="2.7181427254051784"><ele>227.8</ele><time>2026-04-08T13:52:44.002Z</time></trkpt><trkpt lat="41.948049673150955" lon="2.718227783443748"><ele>227.0</ele><time>2026-04-08T13:52:45.002Z</time></trkpt><trkpt lat="41.94798551466599" lon="2.718291621039423"><ele>227.0</ele><time>2026-04-08T13:52:46.002Z</time></trkpt><trkpt lat="41.94789365796663" lon="2.7183429989853964"><ele>227.0</ele><time>2026-04-08T13:52:47.002Z</time></trkpt><trkpt lat="41.94777886534993" lon="2.718362212788949"><ele>227.0</ele><time>2026-04-08T13:52:48.002Z</time></trkpt><trkpt lat="41.947648900443355" lon="2.7183698500615376"><ele>227.0</ele><time>2026-04-08T13:52:49.002Z</time></trkpt><trkpt lat="41.947531403350226" lon="2.7183824963455283"><ele>227.75</ele><time>2026-04-08T13:52:50.002Z</time></trkpt><trkpt lat="41.94741695586934" lon="2.7184166627078366"><ele>228.5</ele><time>2026-04-08T13:52:50.999Z</time></trkpt><trkpt lat="41.94731516219498" lon="2.718479397949316"><ele>229.25</ele><time>2026-04-08T13:52:51.999Z</time></trkpt><trkpt lat="41.947216466165756" lon="2.7185834556390542"><ele>230.0</ele><time>2026-04-08T13:52:52.999Z</time></trkpt><trkpt lat="41.94711719041359" lon="2.7187298034528613"><ele>234.33333333333334</ele><time>2026-04-08T13:52:53.999Z</time></trkpt><trkpt lat="41.9470079937132" lon="2.7189345099862137"><ele>238.66666666666669</ele><time>2026-04-08T13:52:54.999Z</time></trkpt><trkpt lat="41.946886508682766" lon="2.7191549521106184"><ele>243.0</ele><time>2026-04-08T13:52:56Z</time></trkpt><trkpt lat="41.94677482302951" lon="2.719374936688763"><ele>238.66666666666669</ele><time>2026-04-08T13:52:57Z</time></trkpt><trkpt lat="41.94665738857684" lon="2.7196049198930488"><ele>234.33333333333334</ele><time>2026-04-08T13:52:58Z</time></trkpt><trkpt lat="41.94655718510438" lon="2.7198257096581724"><ele>230.0</ele><time>2026-04-08T13:52:59Z</time></trkpt><trkpt lat="41.946468802695556" lon="2.720030938510393"><ele>230.0</ele><time>2026-04-08T13:53:00Z</time></trkpt><trkpt lat="41.94639496032429" lon="2.720210766630599"><ele>230.0</ele><time>2026-04-08T13:53:01Z</time></trkpt><trkpt lat="41.946340953007414" lon="2.720365017485574"><ele>230.0</ele><time>2026-04-08T13:53:02Z</time></trkpt><trkpt lat="41.94629917108476" lon="2.7204951102871666"><ele>230.0</ele><time>2026-04-08T13:53:03Z</time></trkpt><trkpt lat="41.9462826831897" lon="2.7206454127260553"><ele>231.0</ele><time>2026-04-08T13:53:04Z</time></trkpt><trkpt lat="41.94631201904274" lon="2.7208229404159834"><ele>232.0</ele><time>2026-04-08T13:53:05Z</time></trkpt><trkpt lat="41.94631857114283" lon="2.7210338550618016"><ele>233.0</ele><time>2026-04-08T13:53:06Z</time></trkpt><trkpt lat="41.946283526745326" lon="2.7212748657005075"><ele>233.0</ele><time>2026-04-08T13:53:07Z</time></trkpt><trkpt lat="41.946237118831164" lon="2.721548642262525"><ele>233.0</ele><time>2026-04-08T13:53:08Z</time></trkpt><trkpt lat="41.94618464786879" lon="2.7218141564521945"><ele>233.0</ele><time>2026-04-08T13:53:09Z</time></trkpt><trkpt lat="41.94613178650913" lon="2.722088454610101"><ele>230.0</ele><time>2026-04-08T13:53:10Z</time></trkpt><trkpt lat="41.946065258902586" lon="2.7223461981703867"><ele>227.0</ele><time>2026-04-08T13:53:11Z</time></trkpt><trkpt lat="41.94600386193166" lon="2.7225929996307934"><ele>224.0</ele><time>2026-04-08T13:53:12Z</time></trkpt><trkpt lat="41.94594500843447" lon="2.722819264662453"><ele>222.25</ele><time>2026-04-08T13:53:13Z</time></trkpt><trkpt lat="41.945893405966174" lon="2.723000052938833"><ele>220.5</ele><time>2026-04-08T13:53:14Z</time></trkpt><trkpt lat="41.94582696219072" lon="2.723157238794922"><ele>218.75</ele><time>2026-04-08T13:53:15Z</time></trkpt><trkpt lat="41.945736112457695" lon="2.723291689185891"><ele>217.0</ele><time>2026-04-08T13:53:16Z</time></trkpt><trkpt lat="41.94562376205281" lon="2.7233884369073986"><ele>217.25</ele><time>2026-04-08T13:53:17Z</time></trkpt><trkpt lat="41.94549650847958" lon="2.723453727674959"><ele>217.5</ele><time>2026-04-08T13:53:18Z</time></trkpt><trkpt lat="41.9453655479507" lon="2.723499932782666"><ele>217.75</ele><time>2026-04-08T13:53:19Z</time></trkpt><trkpt lat="41.94522768120771" lon="2.7235498898064163"><ele>218.0</ele><time>2026-04-08T13:53:20Z</time></trkpt><trkpt lat="41.94508237856985" lon="2.7236030147889476"><ele>219.33333333333334</ele><time>2026-04-08T13:53:21Z</time></trkpt><trkpt lat="41.944934698063584" lon="2.7236619142770673"><ele>220.66666666666669</ele><time>2026-04-08T13:53:22Z</time></trkpt><trkpt lat="41.944785078115366" lon="2.7237294265920124"><ele>222.0</ele><time>2026-04-08T13:53:23Z</time></trkpt><trkpt lat="41.94463852591293" lon="2.7238074813322206"><ele>222.0</ele><time>2026-04-08T13:53:24Z</time></trkpt><trkpt lat="41.944492640696645" lon="2.723909835880396"><ele>222.0</ele><time>2026-04-08T13:53:25Z</time></trkpt><trkpt lat="41.94434815382748" lon="2.7240252264830445"><ele>222.0</ele><time>2026-04-08T13:53:26Z</time></trkpt><trkpt lat="41.94420176819593" lon="2.7241479819239345"><ele>223.0</ele><time>2026-04-08T13:53:27Z</time></trkpt><trkpt lat="41.94405208379326" lon="2.724270268237825"><ele>224.0</ele><time>2026-04-08T13:53:28Z</time></trkpt><trkpt lat="41.94389166945923" lon="2.7243921629877548"><ele>225.0</ele><time>2026-04-08T13:53:29Z</time></trkpt><trkpt lat="41.94372776216745" lon="2.7245173254907282"><ele>225.0</ele><time>2026-04-08T13:53:30Z</time></trkpt><trkpt lat="41.943563167373945" lon="2.724639331675792"><ele>225.0</ele><time>2026-04-08T13:53:31Z</time></trkpt><trkpt lat="41.9434135224792" lon="2.7247541722743294"><ele>225.0</ele><time>2026-04-08T13:53:32Z</time></trkpt><trkpt lat="41.943272656339616" lon="2.7248591296092886"><ele>225.5</ele><time>2026-04-08T13:53:33Z</time></trkpt><trkpt lat="41.94315078261927" lon="2.7249632992849717"><ele>226.0</ele><time>2026-04-08T13:53:34Z</time></trkpt><trkpt lat="41.9430394480727" lon="2.7250974268894868"><ele>226.5</ele><time>2026-04-08T13:53:35Z</time></trkpt><trkpt lat="41.942941315667824" lon="2.7252495394452456"><ele>227.0</ele><time>2026-04-08T13:53:36Z</time></trkpt><trkpt lat="41.942830504275584" lon="2.7254070846877423"><ele>227.0</ele><time>2026-04-08T13:53:37Z</time></trkpt><trkpt lat="41.94270026299552" lon="2.7255749916139593"><ele>227.0</ele><time>2026-04-08T13:53:38Z</time></trkpt><trkpt lat="41.94254972526223" lon="2.7257632123566684"><ele>227.0</ele><time>2026-04-08T13:53:39Z</time></trkpt><trkpt lat="41.94238765005446" lon="2.725970512694203"><ele>222.33333333333334</ele><time>2026-04-08T13:53:40Z</time></trkpt><trkpt lat="41.942232515297654" lon="2.7261792669038765"><ele>217.66666666666669</ele><time>2026-04-08T13:53:41.001Z</time></trkpt><trkpt lat="41.942083312158694" lon="2.7263805310512432"><ele>213.0</ele><time>2026-04-08T13:53:42.001Z</time></trkpt><trkpt lat="41.9419414270223" lon="2.726563952699811"><ele>213.0</ele><time>2026-04-08T13:53:43.001Z</time></trkpt><trkpt lat="41.9418169737296" lon="2.7267283356348373"><ele>213.0</ele><time>2026-04-08T13:53:44.001Z</time></trkpt><trkpt lat="41.94170794291624" lon="2.726881055199799"><ele>213.0</ele><time>2026-04-08T13:53:45.001Z</time></trkpt><trkpt lat="41.94161521274056" lon="2.7270061154650547"><ele>211.25</ele><time>2026-04-08T13:53:46.001Z</time></trkpt><trkpt lat="41.94154132173003" lon="2.727129820401045"><ele>209.5</ele><time>2026-04-08T13:53:47.001Z</time></trkpt><trkpt lat="41.94147416452231" lon="2.7272749517742567"><ele>207.75</ele><time>2026-04-08T13:53:48.001Z</time></trkpt><trkpt lat="41.94143092523182" lon="2.7274592679912266"><ele>206.0</ele><time>2026-04-08T13:53:49.001Z</time></trkpt><trkpt lat="41.94138953095418" lon="2.7276793687803798"><ele>206.66666666666669</ele><time>2026-04-08T13:53:50.001Z</time></trkpt><trkpt lat="41.941353523414044" lon="2.7279335808807867"><ele>207.33333333333331</ele><time>2026-04-08T13:53:51.001Z</time></trkpt><trkpt lat="41.94127575387062" lon="2.728197040730365"><ele>208.0</ele><time>2026-04-08T13:53:52.001Z</time></trkpt><trkpt lat="41.94119192889335" lon="2.72844208328505"><ele>207.66666666666666</ele><time>2026-04-08T13:53:53.001Z</time></trkpt><trkpt lat="41.94109212879479" lon="2.728681744959249"><ele>207.33333333333331</ele><time>2026-04-08T13:53:54.001Z</time></trkpt><trkpt lat="41.94099502226626" lon="2.7289407632958285"><ele>207.0</ele><time>2026-04-08T13:53:55.001Z</time></trkpt><trkpt lat="41.9408938185393" lon="2.7291991642653555"><ele>205.33333333333331</ele><time>2026-04-08T13:53:56.001Z</time></trkpt><trkpt lat="41.94079301617933" lon="2.729447248003123"><ele>203.66666666666666</ele><time>2026-04-08T13:53:57.001Z</time></trkpt><trkpt lat="41.94069220426211" lon="2.7296913839713466"><ele>202.0</ele><time>2026-04-08T13:53:58.001Z</time></trkpt><trkpt lat="41.940595567715036" lon="2.7299285846752133"><ele>202.0</ele><time>2026-04-08T13:53:59.001Z</time></trkpt><trkpt lat="41.94049929600159" lon="2.7301610284321494"><ele>202.0</ele><time>2026-04-08T13:54:00.001Z</time></trkpt><trkpt lat="41.94038309092074" lon="2.7303770527188904"><ele>202.0</ele><time>2026-04-08T13:54:01.001Z</time></trkpt><trkpt lat="41.9402888291445" lon="2.7306090772398712"><ele>202.33333333333331</ele><time>2026-04-08T13:54:02.001Z</time></trkpt><trkpt lat="41.94019079450298" lon="2.730851316423296"><ele>202.66666666666669</ele><time>2026-04-08T13:54:03.001Z</time></trkpt><trkpt lat="41.940088843882634" lon="2.7311032323884925"><ele>203.0</ele><time>2026-04-08T13:54:04.001Z</time></trkpt><trkpt lat="41.93998888033146" lon="2.731350840575822"><ele>202.33333333333334</ele><time>2026-04-08T13:54:05.001Z</time></trkpt><trkpt lat="41.93988884477475" lon="2.7315991728748643"><ele>201.66666666666669</ele><time>2026-04-08T13:54:06.001Z</time></trkpt><trkpt lat="41.93980291449159" lon="2.7318553879146346"><ele>201.0</ele><time>2026-04-08T13:54:07.001Z</time></trkpt><trkpt lat="41.93970486424878" lon="2.7320969741935315"><ele>201.0</ele><time>2026-04-08T13:54:08.001Z</time></trkpt><trkpt lat="41.93960412891445" lon="2.7323425090010987"><ele>201.0</ele><time>2026-04-08T13:54:09.001Z</time></trkpt><trkpt lat="41.9395033889413" lon="2.7325905759581217"><ele>201.0</ele><time>2026-04-08T13:54:10.001Z</time></trkpt><trkpt lat="41.93938995545312" lon="2.7328286637046313"><ele>201.66666666666669</ele><time>2026-04-08T13:54:11.001Z</time></trkpt><trkpt lat="41.939303893276865" lon="2.733084539148923"><ele>202.33333333333334</ele><time>2026-04-08T13:54:12.001Z</time></trkpt><trkpt lat="41.93920027391729" lon="2.7333271485765356"><ele>203.0</ele><time>2026-04-08T13:54:13.001Z</time></trkpt><trkpt lat="41.93910549346" lon="2.733558490224919"><ele>201.33333333333334</ele><time>2026-04-08T13:54:14.001Z</time></trkpt><trkpt lat="41.93901955499171" lon="2.733776279477215"><ele>199.66666666666669</ele><time>2026-04-08T13:54:15.001Z</time></trkpt><trkpt lat="41.93893707673405" lon="2.733976178537865"><ele>198.0</ele><time>2026-04-08T13:54:16.001Z</time></trkpt><trkpt lat="41.93886499393337" lon="2.734144789128042"><ele>198.0</ele><time>2026-04-08T13:54:17.001Z</time></trkpt><trkpt lat="41.93878284106696" lon="2.7342772625623644"><ele>198.0</ele><time>2026-04-08T13:54:18.001Z</time></trkpt><trkpt lat="41.93870011915864" lon="2.7343885413412594"><ele>198.0</ele><time>2026-04-08T13:54:19.001Z</time></trkpt><trkpt lat="41.9386103763194" lon="2.734470109601237"><ele>198.0</ele><time>2026-04-08T13:54:20.001Z</time></trkpt><trkpt lat="41.93850820228457" lon="2.734532139682007"><ele>197.0</ele><time>2026-04-08T13:54:21.001Z</time></trkpt><trkpt lat="41.9383875647984" lon="2.734590243143805"><ele>196.0</ele><time>2026-04-08T13:54:22.001Z</time></trkpt><trkpt lat="41.93825195800189" lon="2.7346441120737537"><ele>195.0</ele><time>2026-04-08T13:54:23.001Z</time></trkpt><trkpt lat="41.938113378175224" lon="2.73469620027413"><ele>194.0</ele><time>2026-04-08T13:54:24.001Z</time></trkpt><trkpt lat="41.93797170017888" lon="2.7347492700415303"><ele>194.0</ele><time>2026-04-08T13:54:25.002Z</time></trkpt><trkpt lat="41.93782273701729" lon="2.7348050686776455"><ele>194.0</ele><time>2026-04-08T13:54:26.002Z</time></trkpt><trkpt lat="41.93766903950304" lon="2.734862640720196"><ele>194.0</ele><time>2026-04-08T13:54:27.002Z</time></trkpt><trkpt lat="41.93750701849547" lon="2.7349233305693423"><ele>194.0</ele><time>2026-04-08T13:54:28.002Z</time></trkpt><trkpt lat="41.9373409898771" lon="2.73498552160277"><ele>194.0</ele><time>2026-04-08T13:54:29.002Z</time></trkpt><trkpt lat="41.9371697456174" lon="2.7350496663113097"><ele>194.0</ele><time>2026-04-08T13:54:30.002Z</time></trkpt><trkpt lat="41.937005224646185" lon="2.7351337116179386"><ele>194.0</ele><time>2026-04-08T13:54:31.002Z</time></trkpt><trkpt lat="41.93683441546531" lon="2.735194664917591"><ele>194.0</ele><time>2026-04-08T13:54:32.002Z</time></trkpt><trkpt lat="41.93666420911111" lon="2.7352548708205955"><ele>194.0</ele><time>2026-04-08T13:54:33.002Z</time></trkpt><trkpt lat="41.93648804715323" lon="2.73531821159165"><ele>192.33333333333334</ele><time>2026-04-08T13:54:34.002Z</time></trkpt><trkpt lat="41.9363011071864" lon="2.735385275893771"><ele>190.66666666666669</ele><time>2026-04-08T13:54:35.002Z</time></trkpt><trkpt lat="41.936111981534474" lon="2.735454093188638"><ele>189.0</ele><time>2026-04-08T13:54:36.002Z</time></trkpt><trkpt lat="41.93593646190889" lon="2.7355173321928983"><ele>189.33333333333334</ele><time>2026-04-08T13:54:37.002Z</time></trkpt><trkpt lat="41.935772974730575" lon="2.7355812358990104"><ele>189.66666666666669</ele><time>2026-04-08T13:54:38.002Z</time></trkpt><trkpt lat="41.9356233418416" lon="2.735636724106323"><ele>190.0</ele><time>2026-04-08T13:54:39.002Z</time></trkpt><trkpt lat="41.93548215244101" lon="2.7356869279473797"><ele>190.0</ele><time>2026-04-08T13:54:40.002Z</time></trkpt><trkpt lat="41.93535212360668" lon="2.735748475268564"><ele>190.0</ele><time>2026-04-08T13:54:41.002Z</time></trkpt><trkpt lat="41.93523481729985" lon="2.735836162093766"><ele>190.0</ele><time>2026-04-08T13:54:42.002Z</time></trkpt><trkpt lat="41.935130341160445" lon="2.735963223531895"><ele>190.0</ele><time>2026-04-08T13:54:43.002Z</time></trkpt><trkpt lat="41.93503093755742" lon="2.7361249314672422"><ele>189.66666666666669</ele><time>2026-04-08T13:54:44.002Z</time></trkpt><trkpt lat="41.934921511934846" lon="2.7363174670750174"><ele>189.33333333333334</ele><time>2026-04-08T13:54:45.002Z</time></trkpt><trkpt lat="41.93480377879946" lon="2.7365218859766474"><ele>189.0</ele><time>2026-04-08T13:54:46.002Z</time></trkpt><trkpt lat="41.93467537133117" lon="2.736725417706524"><ele>188.33333333333334</ele><time>2026-04-08T13:54:47.002Z</time></trkpt><trkpt lat="41.93455781245019" lon="2.7369119740652055"><ele>187.66666666666669</ele><time>2026-04-08T13:54:48.002Z</time></trkpt><trkpt lat="41.934440590586554" lon="2.7370958067790774"><ele>187.0</ele><time>2026-04-08T13:54:49.002Z</time></trkpt><trkpt lat="41.934328508286264" lon="2.7372826139953963"><ele>187.33333333333334</ele><time>2026-04-08T13:54:50.002Z</time></trkpt><trkpt lat="41.93419447103618" lon="2.7374713631010374"><ele>187.66666666666666</ele><time>2026-04-08T13:54:51.002Z</time></trkpt><trkpt lat="41.93406464097329" lon="2.7376798744264397"><ele>188.0</ele><time>2026-04-08T13:54:52.002Z</time></trkpt><trkpt lat="41.93393158814502" lon="2.7378932291816005"><ele>187.0</ele><time>2026-04-08T13:54:53.002Z</time></trkpt><trkpt lat="41.93379868951202" lon="2.7381063156100796"><ele>186.0</ele><time>2026-04-08T13:54:54.002Z</time></trkpt><trkpt lat="41.933665471990246" lon="2.738320122494726"><ele>185.0</ele><time>2026-04-08T13:54:55.002Z</time></trkpt><trkpt lat="41.93353762829266" lon="2.738524573538664"><ele>185.0</ele><time>2026-04-08T13:54:56.002Z</time></trkpt><trkpt lat="41.93341592964826" lon="2.7387160208283827"><ele>185.0</ele><time>2026-04-08T13:54:57Z</time></trkpt><trkpt lat="41.933303899821695" lon="2.7388971562127327"><ele>185.0</ele><time>2026-04-08T13:54:58Z</time></trkpt><trkpt lat="41.93320530749497" lon="2.7390770756334737"><ele>185.0</ele><time>2026-04-08T13:54:59Z</time></trkpt><trkpt lat="41.93314169006573" lon="2.739295011649408"><ele>185.0</ele><time>2026-04-08T13:55:00Z</time></trkpt><trkpt lat="41.933079955954604" lon="2.739503050567942"><ele>185.0</ele><time>2026-04-08T13:55:01Z</time></trkpt><trkpt lat="41.93302997363828" lon="2.7397117848706163"><ele>184.0</ele><time>2026-04-08T13:55:02Z</time></trkpt><trkpt lat="41.93297821983603" lon="2.7399282570257624"><ele>183.0</ele><time>2026-04-08T13:55:03Z</time></trkpt><trkpt lat="41.932913741322864" lon="2.740142922069932"><ele>182.0</ele><time>2026-04-08T13:55:04Z</time></trkpt><trkpt lat="41.93285913240568" lon="2.740371101874058"><ele>181.33333333333331</ele><time>2026-04-08T13:55:05Z</time></trkpt><trkpt lat="41.93282004654259" lon="2.7406036069394366"><ele>180.66666666666666</ele><time>2026-04-08T13:55:06Z</time></trkpt><trkpt lat="41.93276463691159" lon="2.7408280132190717"><ele>180.0</ele><time>2026-04-08T13:55:07Z</time></trkpt><trkpt lat="41.932707905713585" lon="2.7410383614791707"><ele>180.33333333333334</ele><time>2026-04-08T13:55:08Z</time></trkpt><trkpt lat="41.93265570551143" lon="2.7412410338293856"><ele>180.66666666666669</ele><time>2026-04-08T13:55:09Z</time></trkpt><trkpt lat="41.932607190352364" lon="2.74143926985009"><ele>181.0</ele><time>2026-04-08T13:55:10Z</time></trkpt><trkpt lat="41.932552827029355" lon="2.741626834173001"><ele>182.5</ele><time>2026-04-08T13:55:11Z</time></trkpt><trkpt lat="41.932493314928756" lon="2.741792807943268"><ele>184.0</ele><time>2026-04-08T13:55:12Z</time></trkpt><trkpt lat="41.93243109600624" lon="2.741933936031103"><ele>185.5</ele><time>2026-04-08T13:55:13Z</time></trkpt><trkpt lat="41.93236006121628" lon="2.74204096213422"><ele>187.0</ele><time>2026-04-08T13:55:14Z</time></trkpt><trkpt lat="41.93227829005094" lon="2.7421200282766507"><ele>187.5</ele><time>2026-04-08T13:55:15Z</time></trkpt><trkpt lat="41.932195154188975" lon="2.742166243464806"><ele>188.0</ele><time>2026-04-08T13:55:16Z</time></trkpt><trkpt lat="41.932111319878814" lon="2.7421880671964516"><ele>188.5</ele><time>2026-04-08T13:55:17Z</time></trkpt><trkpt lat="41.93203994880318" lon="2.74220534667407"><ele>189.0</ele><time>2026-04-08T13:55:18Z</time></trkpt><trkpt lat="41.93196651280601" lon="2.742219691272609"><ele>189.5</ele><time>2026-04-08T13:55:20Z</time></trkpt><trkpt lat="41.931898159796226" lon="2.7422176568381817"><ele>190.0</ele><time>2026-04-08T13:55:23Z</time></trkpt><trkpt lat="41.93184271614094" lon="2.7424408333231076"><ele>190.0</ele><time>2026-04-08T13:55:25Z</time></trkpt><trkpt lat="41.931820334126805" lon="2.742559417821914"><ele>190.0</ele><time>2026-04-08T13:55:26Z</time></trkpt><trkpt lat="41.93181059153377" lon="2.742714260203639"><ele>190.0</ele><time>2026-04-08T13:55:27Z</time></trkpt><trkpt lat="41.93179175079368" lon="2.742897054932524"><ele>190.0</ele><time>2026-04-08T13:55:28Z</time></trkpt><trkpt lat="41.93177277060136" lon="2.7430790901634508"><ele>190.0</ele><time>2026-04-08T13:55:29Z</time></trkpt><trkpt lat="41.931755031194065" lon="2.7432833753870827"><ele>190.0</ele><time>2026-04-08T13:55:30Z</time></trkpt><trkpt lat="41.931740982358406" lon="2.743507118303449"><ele>190.0</ele><time>2026-04-08T13:55:31Z</time></trkpt><trkpt lat="41.93173286336583" lon="2.743733207371438"><ele>190.0</ele><time>2026-04-08T13:55:32Z</time></trkpt><trkpt lat="41.93173384316081" lon="2.743965454575203"><ele>190.0</ele><time>2026-04-08T13:55:33Z</time></trkpt><trkpt lat="41.93174160684638" lon="2.7442016127652917"><ele>190.0</ele><time>2026-04-08T13:55:34Z</time></trkpt><trkpt lat="41.93176320172245" lon="2.74443789970428"><ele>190.0</ele><time>2026-04-08T13:55:35Z</time></trkpt><trkpt lat="41.9317973938542" lon="2.7446659113654217"><ele>190.0</ele><time>2026-04-08T13:55:36Z</time></trkpt><trkpt lat="41.93184261995997" lon="2.744889904176555"><ele>190.0</ele><time>2026-04-08T13:55:37Z</time></trkpt><trkpt lat="41.93190290384975" lon="2.745112570056956"><ele>189.66666666666669</ele><time>2026-04-08T13:55:38Z</time></trkpt><trkpt lat="41.93197349139022" lon="2.7453384030442014"><ele>189.33333333333334</ele><time>2026-04-08T13:55:39Z</time></trkpt><trkpt lat="41.932054415297124" lon="2.745569605463269"><ele>189.0</ele><time>2026-04-08T13:55:40Z</time></trkpt><trkpt lat="41.9321502195426" lon="2.7457997951324975"><ele>189.0</ele><time>2026-04-08T13:55:41Z</time></trkpt><trkpt lat="41.932262063003286" lon="2.7460245910069743"><ele>189.0</ele><time>2026-04-08T13:55:42Z</time></trkpt><trkpt lat="41.93238506771756" lon="2.746246259064952"><ele>189.0</ele><time>2026-04-08T13:55:43.001Z</time></trkpt><trkpt lat="41.93251344696877" lon="2.746461095433499"><ele>186.0</ele><time>2026-04-08T13:55:44.001Z</time></trkpt><trkpt lat="41.93264574613028" lon="2.746683167158907"><ele>183.0</ele><time>2026-04-08T13:55:45.001Z</time></trkpt><trkpt lat="41.93277322010394" lon="2.746909318011013"><ele>180.0</ele><time>2026-04-08T13:55:46.001Z</time></trkpt><trkpt lat="41.93290004266829" lon="2.747126115470482"><ele>178.66666666666666</ele><time>2026-04-08T13:55:47.001Z</time></trkpt><trkpt lat="41.93302421860855" lon="2.7473515800488513"><ele>177.33333333333331</ele><time>2026-04-08T13:55:48.001Z</time></trkpt><trkpt lat="41.93313498896432" lon="2.7475780448675047"><ele>176.0</ele><time>2026-04-08T13:55:49.001Z</time></trkpt><trkpt lat="41.93324120721127" lon="2.747807839080569"><ele>175.66666666666666</ele><time>2026-04-08T13:55:50.001Z</time></trkpt><trkpt lat="41.933334134341834" lon="2.748042729576467"><ele>175.33333333333334</ele><time>2026-04-08T13:55:51.001Z</time></trkpt><trkpt lat="41.93341646807536" lon="2.7482825676790914"><ele>175.0</ele><time>2026-04-08T13:55:52.001Z</time></trkpt><trkpt lat="41.933486498558956" lon="2.748534092193493"><ele>176.0</ele><time>2026-04-08T13:55:53.001Z</time></trkpt><trkpt lat="41.93354664539102" lon="2.7487932968094873"><ele>177.0</ele><time>2026-04-08T13:55:54.001Z</time></trkpt><trkpt lat="41.93359908048468" lon="2.749054404534483"><ele>178.0</ele><time>2026-04-08T13:55:55.001Z</time></trkpt><trkpt lat="41.93365362864102" lon="2.7493228742165385"><ele>180.0</ele><time>2026-04-08T13:55:56.001Z</time></trkpt><trkpt lat="41.93370912470167" lon="2.749591241719082"><ele>182.0</ele><time>2026-04-08T13:55:57.001Z</time></trkpt><trkpt lat="41.93376308061018" lon="2.749862879905478"><ele>184.0</ele><time>2026-04-08T13:55:58.001Z</time></trkpt><trkpt lat="41.93381611478711" lon="2.750135511730511"><ele>185.66666666666669</ele><time>2026-04-08T13:55:59.001Z</time></trkpt><trkpt lat="41.93387262308397" lon="2.750412283784228"><ele>187.33333333333334</ele><time>2026-04-08T13:56:00.001Z</time></trkpt><trkpt lat="41.933926844958414" lon="2.750689843493821"><ele>189.0</ele><time>2026-04-08T13:56:01.001Z</time></trkpt><trkpt lat="41.93396079196267" lon="2.750970636945601"><ele>188.33333333333334</ele><time>2026-04-08T13:56:02.001Z</time></trkpt><trkpt lat="41.93401592004405" lon="2.7512485200642764"><ele>187.66666666666669</ele><time>2026-04-08T13:56:03.001Z</time></trkpt><trkpt lat="41.93407094805788" lon="2.751517147998221"><ele>187.0</ele><time>2026-04-08T13:56:04.001Z</time></trkpt><trkpt lat="41.93412729241668" lon="2.751776634279668"><ele>186.33333333333334</ele><time>2026-04-08T13:56:05.001Z</time></trkpt><trkpt lat="41.934187658318955" lon="2.752030658428892"><ele>185.66666666666666</ele><time>2026-04-08T13:56:06.001Z</time></trkpt><trkpt lat="41.934253345287374" lon="2.7522823123134597"><ele>185.0</ele><time>2026-04-08T13:56:07.001Z</time></trkpt><trkpt lat="41.934324054716576" lon="2.7525272749371577"><ele>181.66666666666666</ele><time>2026-04-08T13:56:08.001Z</time></trkpt><trkpt lat="41.93439865676228" lon="2.752768737981162"><ele>178.33333333333334</ele><time>2026-04-08T13:56:09.001Z</time></trkpt><trkpt lat="41.93447467180642" lon="2.753005532259509"><ele>175.0</ele><time>2026-04-08T13:56:10.001Z</time></trkpt><trkpt lat="41.93455710710333" lon="2.7532432818844224"><ele>175.0</ele><time>2026-04-08T13:56:11.001Z</time></trkpt><trkpt lat="41.934654736358155" lon="2.753470912593379"><ele>175.0</ele><time>2026-04-08T13:56:12.001Z</time></trkpt><trkpt lat="41.93473602111515" lon="2.753711351009598"><ele>175.0</ele><time>2026-04-08T13:56:13.001Z</time></trkpt><trkpt lat="41.93481296150902" lon="2.7539497856253976"><ele>173.66666666666669</ele><time>2026-04-08T13:56:14.001Z</time></trkpt><trkpt lat="41.93489320595147" lon="2.7541894740888795"><ele>172.33333333333334</ele><time>2026-04-08T13:56:15.001Z</time></trkpt><trkpt lat="41.93497558179609" lon="2.7544319796187935"><ele>171.0</ele><time>2026-04-08T13:56:16.001Z</time></trkpt><trkpt lat="41.93505432691893" lon="2.7546686151644053"><ele>170.33333333333334</ele><time>2026-04-08T13:56:17.001Z</time></trkpt><trkpt lat="41.935129478814936" lon="2.754892175913464"><ele>169.66666666666669</ele><time>2026-04-08T13:56:18.001Z</time></trkpt><trkpt lat="41.93520259098322" lon="2.7551040198219283"><ele>169.0</ele><time>2026-04-08T13:56:19.001Z</time></trkpt><trkpt lat="41.935274056610815" lon="2.755308694289634"><ele>169.0</ele><time>2026-04-08T13:56:20.001Z</time></trkpt><trkpt lat="41.9353415998418" lon="2.7555017395620816"><ele>169.0</ele><time>2026-04-08T13:56:21.001Z</time></trkpt><trkpt lat="41.93541077752035" lon="2.755696146157024"><ele>169.0</ele><time>2026-04-08T13:56:22.001Z</time></trkpt><trkpt lat="41.935478384173486" lon="2.755886628290884"><ele>169.33333333333334</ele><time>2026-04-08T13:56:23.001Z</time></trkpt><trkpt lat="41.93554453665461" lon="2.7560793105139942"><ele>169.66666666666666</ele><time>2026-04-08T13:56:24.001Z</time></trkpt><trkpt lat="41.93560693345351" lon="2.756267057722447"><ele>170.0</ele><time>2026-04-08T13:56:25.001Z</time></trkpt><trkpt lat="41.935649013312556" lon="2.756454215038795"><ele>170.0</ele><time>2026-04-08T13:56:26.001Z</time></trkpt><trkpt lat="41.93570497749401" lon="2.756625402577545"><ele>170.0</ele><time>2026-04-08T13:56:27.001Z</time></trkpt><trkpt lat="41.93576399745359" lon="2.7567945096725754"><ele>170.0</ele><time>2026-04-08T13:56:28.002Z</time></trkpt><trkpt lat="41.93581836996702" lon="2.7569629797002793"><ele>170.0</ele><time>2026-04-08T13:56:29.002Z</time></trkpt><trkpt lat="41.93587251402584" lon="2.7571262203167684"><ele>169.25</ele><time>2026-04-08T13:56:30.002Z</time></trkpt><trkpt lat="41.935921084515435" lon="2.757278596135333"><ele>168.5</ele><time>2026-04-08T13:56:31.002Z</time></trkpt><trkpt lat="41.93596921700476" lon="2.757420672219308"><ele>167.75</ele><time>2026-04-08T13:56:32.002Z</time></trkpt><trkpt lat="41.93601596797525" lon="2.757557795033681"><ele>167.0</ele><time>2026-04-08T13:56:33.002Z</time></trkpt><trkpt lat="41.936063615363466" lon="2.7576908276547605"><ele>166.5</ele><time>2026-04-08T13:56:34.002Z</time></trkpt><trkpt lat="41.93610982034477" lon="2.7578313561916263"><ele>166.0</ele><time>2026-04-08T13:56:35.002Z</time></trkpt><trkpt lat="41.936159077128764" lon="2.757980490564084"><ele>165.5</ele><time>2026-04-08T13:56:36.002Z</time></trkpt><trkpt lat="41.936207842205064" lon="2.758123585595046"><ele>165.0</ele><time>2026-04-08T13:56:37.002Z</time></trkpt><trkpt lat="41.93625760421037" lon="2.758264376847776"><ele>165.0</ele><time>2026-04-08T13:56:38.002Z</time></trkpt><trkpt lat="41.936306154900656" lon="2.758402439402323"><ele>165.0</ele><time>2026-04-08T13:56:39.002Z</time></trkpt><trkpt lat="41.93635161864843" lon="2.7585387227003557"><ele>165.0</ele><time>2026-04-08T13:56:40.002Z</time></trkpt><trkpt lat="41.936397111536365" lon="2.7586760984482988"><ele>165.0</ele><time>2026-04-08T13:56:41.002Z</time></trkpt><trkpt lat="41.936443309045565" lon="2.7588146438374013"><ele>165.0</ele><time>2026-04-08T13:56:42.002Z</time></trkpt><trkpt lat="41.93648965742589" lon="2.75895234448476"><ele>164.0</ele><time>2026-04-08T13:56:43.002Z</time></trkpt><trkpt lat="41.93653587802846" lon="2.759085079341153"><ele>163.0</ele><time>2026-04-08T13:56:44.002Z</time></trkpt><trkpt lat="41.93658243518762" lon="2.7592209361766433"><ele>162.0</ele><time>2026-04-08T13:56:45.002Z</time></trkpt><trkpt lat="41.936630558998225" lon="2.7593608943022248"><ele>161.0</ele><time>2026-04-08T13:56:46.002Z</time></trkpt><trkpt lat="41.93668067504083" lon="2.7594995024349234"><ele>160.25</ele><time>2026-04-08T13:56:47.002Z</time></trkpt><trkpt lat="41.93673084014766" lon="2.759636652087386"><ele>159.5</ele><time>2026-04-08T13:56:48.002Z</time></trkpt><trkpt lat="41.936778376511" lon="2.7597759894511706"><ele>158.75</ele><time>2026-04-08T13:56:49.002Z</time></trkpt><trkpt lat="41.936823772637446" lon="2.759917499658509"><ele>158.0</ele><time>2026-04-08T13:56:50.002Z</time></trkpt><trkpt lat="41.9368688846995" lon="2.7600573946206945"><ele>158.0</ele><time>2026-04-08T13:56:51.002Z</time></trkpt><trkpt lat="41.936912064920705" lon="2.760194607204218"><ele>158.0</ele><time>2026-04-08T13:56:52.002Z</time></trkpt><trkpt lat="41.936956161045096" lon="2.7603293416541934"><ele>158.0</ele><time>2026-04-08T13:56:53.002Z</time></trkpt><trkpt lat="41.93700271403716" lon="2.7604653076883214"><ele>158.0</ele><time>2026-04-08T13:56:54.002Z</time></trkpt><trkpt lat="41.93705130016237" lon="2.760605102160416"><ele>158.0</ele><time>2026-04-08T13:56:55.002Z</time></trkpt><trkpt lat="41.9371003756442" lon="2.7607469863338134"><ele>157.5</ele><time>2026-04-08T13:56:56.002Z</time></trkpt><trkpt lat="41.9371493855505" lon="2.7608910131985094"><ele>157.0</ele><time>2026-04-08T13:56:57.002Z</time></trkpt><trkpt lat="41.93719955927722" lon="2.7610366506827284"><ele>156.5</ele><time>2026-04-08T13:56:58.002Z</time></trkpt><trkpt lat="41.937248716921616" lon="2.7611797931931403"><ele>156.0</ele><time>2026-04-08T13:56:59.002Z</time></trkpt><trkpt lat="41.93729412768938" lon="2.7613187013434484"><ele>155.8</ele><time>2026-04-08T13:57:00.002Z</time></trkpt><trkpt lat="41.937336148998526" lon="2.7614568494666254"><ele>155.6</ele><time>2026-04-08T13:57:01.002Z</time></trkpt><trkpt lat="41.937375541855715" lon="2.761598889131914"><ele>155.4</ele><time>2026-04-08T13:57:02.002Z</time></trkpt><trkpt lat="41.937408411936374" lon="2.7617274906907094"><ele>155.2</ele><time>2026-04-08T13:57:03Z</time></trkpt><trkpt lat="41.9374376719766" lon="2.7618514709985527"><ele>155.0</ele><time>2026-04-08T13:57:04Z</time></trkpt><trkpt lat="41.93744361817638" lon="2.7619773925244497"><ele>154.6</ele><time>2026-04-08T13:57:05Z</time></trkpt><trkpt lat="41.937432022098534" lon="2.762093168966644"><ele>154.2</ele><time>2026-04-08T13:57:06Z</time></trkpt><trkpt lat="41.937400778248374" lon="2.7621952526961637"><ele>153.8</ele><time>2026-04-08T13:57:07Z</time></trkpt><trkpt lat="41.93734633923321" lon="2.76230086904057"><ele>153.4</ele><time>2026-04-08T13:57:08Z</time></trkpt><trkpt lat="41.93726430040524" lon="2.76240836312111"><ele>153.0</ele><time>2026-04-08T13:57:09Z</time></trkpt><trkpt lat="41.93716122648191" lon="2.762518708962963"><ele>153.0</ele><time>2026-04-08T13:57:10Z</time></trkpt><trkpt lat="41.937085316748075" lon="2.762615805465116"><ele>153.0</ele><time>2026-04-08T13:57:11Z</time></trkpt><trkpt lat="41.93699582098741" lon="2.7627344395456697"><ele>153.0</ele><time>2026-04-08T13:57:12Z</time></trkpt><trkpt lat="41.936893543904496" lon="2.7628644346066693"><ele>153.0</ele><time>2026-04-08T13:57:13Z</time></trkpt><trkpt lat="41.93677337354292" lon="2.7630087156595975"><ele>151.33333333333334</ele><time>2026-04-08T13:57:14Z</time></trkpt><trkpt lat="41.93665178023676" lon="2.7631519381715695"><ele>149.66666666666669</ele><time>2026-04-08T13:57:15Z</time></trkpt><trkpt lat="41.93652565565085" lon="2.7633048226699204"><ele>148.0</ele><time>2026-04-08T13:57:16Z</time></trkpt><trkpt lat="41.93638981694207" lon="2.7634717488769787"><ele>147.66666666666669</ele><time>2026-04-08T13:57:17Z</time></trkpt><trkpt lat="41.936252494674754" lon="2.763645982091489"><ele>147.33333333333334</ele><time>2026-04-08T13:57:18Z</time></trkpt><trkpt lat="41.936121841017524" lon="2.7638196776701927"><ele>147.0</ele><time>2026-04-08T13:57:19Z</time></trkpt><trkpt lat="41.935989715949084" lon="2.763984029694408"><ele>147.33333333333334</ele><time>2026-04-08T13:57:20Z</time></trkpt><trkpt lat="41.93586136167944" lon="2.764128049231381"><ele>147.66666666666669</ele><time>2026-04-08T13:57:21Z</time></trkpt><trkpt lat="41.935720463403804" lon="2.76426861383212"><ele>148.0</ele><time>2026-04-08T13:57:22Z</time></trkpt><trkpt lat="41.93556658350402" lon="2.7644000166528717"><ele>148.0</ele><time>2026-04-08T13:57:23Z</time></trkpt><trkpt lat="41.93540322484248" lon="2.7645138572808636"><ele>148.0</ele><time>2026-04-08T13:57:24Z</time></trkpt><trkpt lat="41.93523070363943" lon="2.764608000736629"><ele>148.0</ele><time>2026-04-08T13:57:25Z</time></trkpt><trkpt lat="41.93505048184864" lon="2.764660767121565"><ele>149.33333333333334</ele><time>2026-04-08T13:57:26Z</time></trkpt><trkpt lat="41.93486168730074" lon="2.7646944082028853"><ele>150.66666666666666</ele><time>2026-04-08T13:57:27Z</time></trkpt><trkpt lat="41.934673846643555" lon="2.7647045917403514"><ele>152.0</ele><time>2026-04-08T13:57:28Z</time></trkpt><trkpt lat="41.934493057087536" lon="2.764689188501936"><ele>152.0</ele><time>2026-04-08T13:57:29Z</time></trkpt><trkpt lat="41.934326389279434" lon="2.7646497580710223"><ele>152.0</ele><time>2026-04-08T13:57:30Z</time></trkpt><trkpt lat="41.934174248750985" lon="2.7645978629107018"><ele>152.0</ele><time>2026-04-08T13:57:31Z</time></trkpt><trkpt lat="41.93403763831926" lon="2.764539722686907"><ele>152.5</ele><time>2026-04-08T13:57:32Z</time></trkpt><trkpt lat="41.93391011262186" lon="2.764484652983436"><ele>153.0</ele><time>2026-04-08T13:57:33Z</time></trkpt><trkpt lat="41.93379307440079" lon="2.764437777852705"><ele>153.5</ele><time>2026-04-08T13:57:34Z</time></trkpt><trkpt lat="41.93368099461224" lon="2.764396644189528"><ele>154.0</ele><time>2026-04-08T13:57:35Z</time></trkpt><trkpt lat="41.93356886985703" lon="2.7643526722415612"><ele>154.75</ele><time>2026-04-08T13:57:36Z</time></trkpt><trkpt lat="41.93344358614423" lon="2.764301730574783"><ele>155.5</ele><time>2026-04-08T13:57:37Z</time></trkpt><trkpt lat="41.93331071724395" lon="2.764240389761603"><ele>156.25</ele><time>2026-04-08T13:57:38Z</time></trkpt><trkpt lat="41.93316631256382" lon="2.7641762104090546"><ele>157.0</ele><time>2026-04-08T13:57:39Z</time></trkpt><trkpt lat="41.93300288755754" lon="2.7641079584313104"><ele>157.33333333333334</ele><time>2026-04-08T13:57:40Z</time></trkpt><trkpt lat="41.932832578027686" lon="2.7640346499523023"><ele>157.66666666666666</ele><time>2026-04-08T13:57:41Z</time></trkpt><trkpt lat="41.93265923495582" lon="2.7639627620340645"><ele>158.0</ele><time>2026-04-08T13:57:42Z</time></trkpt><trkpt lat="41.93247424176087" lon="2.7638953117273517"><ele>158.0</ele><time>2026-04-08T13:57:43Z</time></trkpt><trkpt lat="41.932290785990034" lon="2.76382746710511"><ele>158.0</ele><time>2026-04-08T13:57:44Z</time></trkpt><trkpt lat="41.932104068296574" lon="2.763764270995435"><ele>158.0</ele><time>2026-04-08T13:57:45.001Z</time></trkpt><trkpt lat="41.9319134487813" lon="2.763715424521217"><ele>159.33333333333331</ele><time>2026-04-08T13:57:46.001Z</time></trkpt><trkpt lat="41.931714982865266" lon="2.7636787313341746"><ele>160.66666666666666</ele><time>2026-04-08T13:57:47.001Z</time></trkpt><trkpt lat="41.93151047793326" lon="2.763665100144325"><ele>162.0</ele><time>2026-04-08T13:57:48.001Z</time></trkpt><trkpt lat="41.931295857445605" lon="2.7636685671808636"><ele>162.0</ele><time>2026-04-08T13:57:49.001Z</time></trkpt><trkpt lat="41.931079253615835" lon="2.763693242989026"><ele>162.0</ele><time>2026-04-08T13:57:50.001Z</time></trkpt><trkpt lat="41.9308751557088" lon="2.763725345903082"><ele>162.0</ele><time>2026-04-08T13:57:51.001Z</time></trkpt><trkpt lat="41.93063870432528" lon="2.763817172518706"><ele>161.0</ele><time>2026-04-08T13:57:52.001Z</time></trkpt><trkpt lat="41.930410173465084" lon="2.7638878915347918"><ele>160.0</ele><time>2026-04-08T13:57:53.001Z</time></trkpt><trkpt lat="41.930184329829565" lon="2.7639613131809133"><ele>159.0</ele><time>2026-04-08T13:57:54.001Z</time></trkpt><trkpt lat="41.929950602383855" lon="2.764036778494088"><ele>158.0</ele><time>2026-04-08T13:57:55.001Z</time></trkpt><trkpt lat="41.92971790841512" lon="2.764111893781229"><ele>158.0</ele><time>2026-04-08T13:57:56.001Z</time></trkpt><trkpt lat="41.929480579281524" lon="2.7641888297742687"><ele>158.0</ele><time>2026-04-08T13:57:57.001Z</time></trkpt><trkpt lat="41.92923919812584" lon="2.7642460577127954"><ele>156.0</ele><time>2026-04-08T13:57:58.001Z</time></trkpt><trkpt lat="41.92899918957332" lon="2.7643232401996434"><ele>154.0</ele><time>2026-04-08T13:57:59.001Z</time></trkpt><trkpt lat="41.92876051707498" lon="2.764400256129826"><ele>153.5</ele><time>2026-04-08T13:58:00.001Z</time></trkpt><trkpt lat="41.92852018931729" lon="2.764478053724941"><ele>153.0</ele><time>2026-04-08T13:58:01.001Z</time></trkpt><trkpt lat="41.928279986307636" lon="2.7645558109388606"><ele>150.5</ele><time>2026-04-08T13:58:02.001Z</time></trkpt><trkpt lat="41.92804609269594" lon="2.764631466248807"><ele>148.0</ele><time>2026-04-08T13:58:03.001Z</time></trkpt><trkpt lat="41.92781997425809" lon="2.764704485767501"><ele>148.0</ele><time>2026-04-08T13:58:04.001Z</time></trkpt><trkpt lat="41.92759990982566" lon="2.764777710364961"><ele>148.0</ele><time>2026-04-08T13:58:05.001Z</time></trkpt><trkpt lat="41.927383568995836" lon="2.7648681508773882"><ele>147.5</ele><time>2026-04-08T13:58:06.001Z</time></trkpt><trkpt lat="41.92716327732165" lon="2.7649443189505316"><ele>147.0</ele><time>2026-04-08T13:58:07.001Z</time></trkpt><trkpt lat="41.92693923977526" lon="2.7650169957367523"><ele>149.5</ele><time>2026-04-08T13:58:08.001Z</time></trkpt><trkpt lat="41.9267205282851" lon="2.7650894722996378"><ele>152.0</ele><time>2026-04-08T13:58:09.001Z</time></trkpt><trkpt lat="41.92649870558469" lon="2.765164009316718"><ele>151.0</ele><time>2026-04-08T13:58:10.001Z</time></trkpt><trkpt lat="41.92627545304907" lon="2.765235579445773"><ele>150.0</ele><time>2026-04-08T13:58:11.001Z</time></trkpt><trkpt lat="41.926048486833665" lon="2.7653069969658137"><ele>149.66666666666666</ele><time>2026-04-08T13:58:12.001Z</time></trkpt><trkpt lat="41.925831620593094" lon="2.765377567087256"><ele>149.33333333333331</ele><time>2026-04-08T13:58:13.001Z</time></trkpt><trkpt lat="41.92563732834541" lon="2.765449370214834"><ele>149.0</ele><time>2026-04-08T13:58:14.001Z</time></trkpt><trkpt lat="41.92543483883744" lon="2.7655221739960245"><ele>149.0</ele><time>2026-04-08T13:58:15.001Z</time></trkpt><trkpt lat="41.92523500538998" lon="2.765611332922825"><ele>149.0</ele><time>2026-04-08T13:58:16.001Z</time></trkpt><trkpt lat="41.92504372107487" lon="2.7657230417969485"><ele>149.0</ele><time>2026-04-08T13:58:17.001Z</time></trkpt><trkpt lat="41.924860065991915" lon="2.7658548796045745"><ele>147.0</ele><time>2026-04-08T13:58:18.001Z</time></trkpt><trkpt lat="41.92468021392367" lon="2.7660043009018476"><ele>145.0</ele><time>2026-04-08T13:58:19.001Z</time></trkpt><trkpt lat="41.92451340926848" lon="2.7661742885408787"><ele>143.0</ele><time>2026-04-08T13:58:20.001Z</time></trkpt><trkpt lat="41.92435748464198" lon="2.766351572750911"><ele>143.33333333333331</ele><time>2026-04-08T13:58:21.001Z</time></trkpt><trkpt lat="41.92420712874513" lon="2.766550010106809"><ele>143.66666666666666</ele><time>2026-04-08T13:58:22.001Z</time></trkpt><trkpt lat="41.92407324863493" lon="2.76676794866327"><ele>144.0</ele><time>2026-04-08T13:58:23.001Z</time></trkpt><trkpt lat="41.92393869316403" lon="2.767002161303328"><ele>144.0</ele><time>2026-04-08T13:58:24.001Z</time></trkpt><trkpt lat="41.92380715729127" lon="2.7672408430818964"><ele>144.0</ele><time>2026-04-08T13:58:25.001Z</time></trkpt><trkpt lat="41.923671876599315" lon="2.767482093840482"><ele>144.0</ele><time>2026-04-08T13:58:26.001Z</time></trkpt><trkpt lat="41.92353431307487" lon="2.7677285881861096"><ele>145.0</ele><time>2026-04-08T13:58:27.001Z</time></trkpt><trkpt lat="41.92338981471475" lon="2.7679745231178283"><ele>146.0</ele><time>2026-04-08T13:58:28.001Z</time></trkpt><trkpt lat="41.92324849322179" lon="2.7682142732435384"><ele>146.0</ele><time>2026-04-08T13:58:29.002Z</time></trkpt><trkpt lat="41.923118551393856" lon="2.7684346942153306"><ele>146.0</ele><time>2026-04-08T13:58:30.002Z</time></trkpt><trkpt lat="41.92299567363859" lon="2.7686378787596047"><ele>146.0</ele><time>2026-04-08T13:58:31.002Z</time></trkpt><trkpt lat="41.922877973788594" lon="2.7688277276058626"><ele>146.33333333333331</ele><time>2026-04-08T13:58:32.002Z</time></trkpt><trkpt lat="41.92276560409245" lon="2.769002428002028"><ele>146.66666666666666</ele><time>2026-04-08T13:58:33.002Z</time></trkpt><trkpt lat="41.92265624728676" lon="2.769176941409236"><ele>147.0</ele><time>2026-04-08T13:58:34.002Z</time></trkpt><trkpt lat="41.92253982937644" lon="2.769364233814407"><ele>147.66666666666666</ele><time>2026-04-08T13:58:35.002Z</time></trkpt><trkpt lat="41.92241438279658" lon="2.769560869312774"><ele>148.33333333333331</ele><time>2026-04-08T13:58:36.002Z</time></trkpt><trkpt lat="41.92228814870887" lon="2.7697612242902236"><ele>149.0</ele><time>2026-04-08T13:58:37.002Z</time></trkpt><trkpt lat="41.92215695337586" lon="2.7699708281607753"><ele>149.0</ele><time>2026-04-08T13:58:38.002Z</time></trkpt><trkpt lat="41.92202445655888" lon="2.7701882565256684"><ele>149.0</ele><time>2026-04-08T13:58:39.002Z</time></trkpt><trkpt lat="41.92189640406735" lon="2.7704006835513186"><ele>149.0</ele><time>2026-04-08T13:58:40.002Z</time></trkpt><trkpt lat="41.921768263374105" lon="2.7705985791397847"><ele>148.66666666666666</ele><time>2026-04-08T13:58:41.002Z</time></trkpt><trkpt lat="41.9216348668417" lon="2.7707800544743684"><ele>148.33333333333334</ele><time>2026-04-08T13:58:42.002Z</time></trkpt><trkpt lat="41.92148939157777" lon="2.7709404154418786"><ele>148.0</ele><time>2026-04-08T13:58:43.002Z</time></trkpt><trkpt lat="41.9213298893735" lon="2.7710774954529653"><ele>148.0</ele><time>2026-04-08T13:58:44.002Z</time></trkpt><trkpt lat="41.92115612695421" lon="2.7711922324395393"><ele>148.0</ele><time>2026-04-08T13:58:45.002Z</time></trkpt><trkpt lat="41.92096805315167" lon="2.7712875946682214"><ele>148.0</ele><time>2026-04-08T13:58:46.002Z</time></trkpt><trkpt lat="41.9207647735397" lon="2.7713561947071765"><ele>147.0</ele><time>2026-04-08T13:58:47.002Z</time></trkpt><trkpt lat="41.92055213315184" lon="2.7714184996425257"><ele>146.0</ele><time>2026-04-08T13:58:48.002Z</time></trkpt><trkpt lat="41.92033349998461" lon="2.7714825149877793"><ele>145.0</ele><time>2026-04-08T13:58:49.002Z</time></trkpt><trkpt lat="41.920115117604844" lon="2.7715464402684282"><ele>143.0</ele><time>2026-04-08T13:58:50.002Z</time></trkpt><trkpt lat="41.9198959192609" lon="2.771616959059974"><ele>141.0</ele><time>2026-04-08T13:58:51.002Z</time></trkpt><trkpt lat="41.91967247744043" lon="2.771682757583901"><ele>141.0</ele><time>2026-04-08T13:58:52.002Z</time></trkpt><trkpt lat="41.91944914611154" lon="2.7717490924476262"><ele>141.0</ele><time>2026-04-08T13:58:53.002Z</time></trkpt><trkpt lat="41.919216682403245" lon="2.771789656274168"><ele>139.33333333333334</ele><time>2026-04-08T13:58:54.002Z</time></trkpt><trkpt lat="41.919021460764746" lon="2.771848249670594"><ele>137.66666666666669</ele><time>2026-04-08T13:58:55.002Z</time></trkpt><trkpt lat="41.91883425109299" lon="2.771885082538768"><ele>136.0</ele><time>2026-04-08T13:58:56.002Z</time></trkpt><trkpt lat="41.91865575046182" lon="2.771896616728466"><ele>136.0</ele><time>2026-04-08T13:58:57.002Z</time></trkpt><trkpt lat="41.91848026374623" lon="2.7718822090160735"><ele>136.0</ele><time>2026-04-08T13:58:58.002Z</time></trkpt><trkpt lat="41.91830588426276" lon="2.771843257820082"><ele>136.0</ele><time>2026-04-08T13:58:59.002Z</time></trkpt><trkpt lat="41.9181336213539" lon="2.7717774693809893"><ele>133.33333333333334</ele><time>2026-04-08T13:59:00.002Z</time></trkpt><trkpt lat="41.91796184620608" lon="2.7716892756661626"><ele>130.66666666666666</ele><time>2026-04-08T13:59:01.002Z</time></trkpt><trkpt lat="41.9177908588078" lon="2.7715695708077273"><ele>128.0</ele><time>2026-04-08T13:59:02.002Z</time></trkpt><trkpt lat="41.91762192056658" lon="2.7714257766951684"><ele>128.33333333333331</ele><time>2026-04-08T13:59:03.002Z</time></trkpt><trkpt lat="41.91744697367006" lon="2.771260406597721"><ele>128.66666666666666</ele><time>2026-04-08T13:59:04.002Z</time></trkpt><trkpt lat="41.91726597131548" lon="2.7710794871734166"><ele>129.0</ele><time>2026-04-08T13:59:05.002Z</time></trkpt><trkpt lat="41.9170825863622" lon="2.7709001486131526"><ele>129.0</ele><time>2026-04-08T13:59:06.002Z</time></trkpt><trkpt lat="41.91688856568272" lon="2.770712544906471"><ele>129.0</ele><time>2026-04-08T13:59:07.002Z</time></trkpt><trkpt lat="41.916692447940456" lon="2.7705201018954857"><ele>127.0</ele><time>2026-04-08T13:59:08.002Z</time></trkpt><trkpt lat="41.91649750811483" lon="2.770330557840762"><ele>125.0</ele><time>2026-04-08T13:59:09Z</time></trkpt><trkpt lat="41.91630612996719" lon="2.770144268620061"><ele>125.0</ele><time>2026-04-08T13:59:10Z</time></trkpt><trkpt lat="41.916126886247184" lon="2.769965836320622"><ele>125.0</ele><time>2026-04-08T13:59:11Z</time></trkpt><trkpt lat="41.91595299507385" lon="2.7697987843250904"><ele>125.0</ele><time>2026-04-08T13:59:12Z</time></trkpt><trkpt lat="41.91578078656767" lon="2.7696507075421466"><ele>125.0</ele><time>2026-04-08T13:59:13Z</time></trkpt><trkpt lat="41.915596564845174" lon="2.7695200541424927"><ele>125.0</ele><time>2026-04-08T13:59:14Z</time></trkpt><trkpt lat="41.91540038385749" lon="2.769409804601833"><ele>125.0</ele><time>2026-04-08T13:59:15Z</time></trkpt><trkpt lat="41.91518865010644" lon="2.7693257753403975"><ele>126.5</ele><time>2026-04-08T13:59:16Z</time></trkpt><trkpt lat="41.91496047652623" lon="2.7692615839369377"><ele>128.0</ele><time>2026-04-08T13:59:17Z</time></trkpt><trkpt lat="41.91472532221689" lon="2.7691951360284213"><ele>128.0</ele><time>2026-04-08T13:59:18Z</time></trkpt><trkpt lat="41.914484469035195" lon="2.769122205539423"><ele>128.0</ele><time>2026-04-08T13:59:19Z</time></trkpt><trkpt lat="41.9142439866828" lon="2.7690502003097484"><ele>128.0</ele><time>2026-04-08T13:59:20Z</time></trkpt><trkpt lat="41.91399779502491" lon="2.7689748091825277"><ele>128.0</ele><time>2026-04-08T13:59:21Z</time></trkpt><trkpt lat="41.91375590974879" lon="2.768903861862286"><ele>128.0</ele><time>2026-04-08T13:59:22Z</time></trkpt><trkpt lat="41.91351461782509" lon="2.768827609429583"><ele>128.0</ele><time>2026-04-08T13:59:23Z</time></trkpt><trkpt lat="41.91328268731621" lon="2.7687562118532343"><ele>130.5</ele><time>2026-04-08T13:59:24Z</time></trkpt><trkpt lat="41.9130528663462" lon="2.768680275564889"><ele>133.0</ele><time>2026-04-08T13:59:25Z</time></trkpt><trkpt lat="41.912845194044344" lon="2.7686153008917542"><ele>133.0</ele><time>2026-04-08T13:59:26Z</time></trkpt><trkpt lat="41.912636836495054" lon="2.768563665113989"><ele>133.0</ele><time>2026-04-08T13:59:27Z</time></trkpt><trkpt lat="41.91243350041263" lon="2.768536631643335"><ele>133.0</ele><time>2026-04-08T13:59:28Z</time></trkpt><trkpt lat="41.91223048908181" lon="2.7685396689753072"><ele>135.0</ele><time>2026-04-08T13:59:29Z</time></trkpt><trkpt lat="41.91202590411945" lon="2.7685747717881117"><ele>137.0</ele><time>2026-04-08T13:59:30Z</time></trkpt><trkpt lat="41.9118194485966" lon="2.768641931738971"><ele>139.0</ele><time>2026-04-08T13:59:31Z</time></trkpt><trkpt lat="41.91161400223674" lon="2.7687345243231083"><ele>140.33333333333334</ele><time>2026-04-08T13:59:32Z</time></trkpt><trkpt lat="41.91140778210402" lon="2.768843521378778"><ele>141.66666666666666</ele><time>2026-04-08T13:59:33Z</time></trkpt><trkpt lat="41.91121097469463" lon="2.7689551191575874"><ele>143.0</ele><time>2026-04-08T13:59:34Z</time></trkpt><trkpt lat="41.91101660450675" lon="2.7690701242262215"><ele>143.0</ele><time>2026-04-08T13:59:35Z</time></trkpt><trkpt lat="41.9108155197068" lon="2.7691836073289564"><ele>143.0</ele><time>2026-04-08T13:59:36Z</time></trkpt><trkpt lat="41.9106146142557" lon="2.769294602926189"><ele>143.0</ele><time>2026-04-08T13:59:37Z</time></trkpt><trkpt lat="41.910421951129734" lon="2.769404418720155"><ele>143.0</ele><time>2026-04-08T13:59:38Z</time></trkpt><trkpt lat="41.91023136378912" lon="2.7695140323445675"><ele>143.0</ele><time>2026-04-08T13:59:39Z</time></trkpt><trkpt lat="41.91004296333651" lon="2.769618417380376"><ele>143.0</ele><time>2026-04-08T13:59:40Z</time></trkpt><trkpt lat="41.9098539607616" lon="2.7697272570827494"><ele>142.66666666666666</ele><time>2026-04-08T13:59:41Z</time></trkpt><trkpt lat="41.90966299321005" lon="2.7698346514673853"><ele>142.33333333333334</ele><time>2026-04-08T13:59:42Z</time></trkpt><trkpt lat="41.90947362358253" lon="2.769946997350844"><ele>142.0</ele><time>2026-04-08T13:59:43Z</time></trkpt><trkpt lat="41.909285525859275" lon="2.7700585663235873"><ele>142.0</ele><time>2026-04-08T13:59:44Z</time></trkpt><trkpt lat="41.909096698748826" lon="2.770171261180581"><ele>142.0</ele><time>2026-04-08T13:59:45Z</time></trkpt><trkpt lat="41.9089032559604" lon="2.770282860845944"><ele>142.0</ele><time>2026-04-08T13:59:46Z</time></trkpt><trkpt lat="41.90870210416061" lon="2.7703962199798196"><ele>142.0</ele><time>2026-04-08T13:59:47Z</time></trkpt><trkpt lat="41.9085005017957" lon="2.7705115422834687"><ele>142.0</ele><time>2026-04-08T13:59:48Z</time></trkpt><trkpt lat="41.90829841486795" lon="2.7706295013945947"><ele>142.0</ele><time>2026-04-08T13:59:49Z</time></trkpt><trkpt lat="41.90809982731674" lon="2.7707433957316367"><ele>142.33333333333334</ele><time>2026-04-08T13:59:50Z</time></trkpt><trkpt lat="41.90790328567938" lon="2.7708471035709987"><ele>142.66666666666666</ele><time>2026-04-08T13:59:51.001Z</time></trkpt><trkpt lat="41.907707557562865" lon="2.770938001414171"><ele>143.0</ele><time>2026-04-08T13:59:52.001Z</time></trkpt><trkpt lat="41.90750957177296" lon="2.7710133274762763"><ele>144.0</ele><time>2026-04-08T13:59:53.001Z</time></trkpt><trkpt lat="41.90731220423507" lon="2.7710740707543478"><ele>145.0</ele><time>2026-04-08T13:59:54.001Z</time></trkpt><trkpt lat="41.90710713978896" lon="2.7711166907195492"><ele>146.0</ele><time>2026-04-08T13:59:55.001Z</time></trkpt><trkpt lat="41.90690271833707" lon="2.771129042173466"><ele>145.0</ele><time>2026-04-08T13:59:56.001Z</time></trkpt><trkpt lat="41.90668683723934" lon="2.771120840669011"><ele>144.0</ele><time>2026-04-08T13:59:57.001Z</time></trkpt><trkpt lat="41.906471531272544" lon="2.7710939405079733"><ele>143.0</ele><time>2026-04-08T13:59:58.001Z</time></trkpt><trkpt lat="41.906254144983016" lon="2.7710489167369805"><ele>143.0</ele><time>2026-04-08T13:59:59.001Z</time></trkpt><trkpt lat="41.90603437685815" lon="2.770992897139001"><ele>143.0</ele><time>2026-04-08T14:00:00.001Z</time></trkpt><trkpt lat="41.90580858879358" lon="2.7709397729784815"><ele>142.5</ele><time>2026-04-08T14:00:01.001Z</time></trkpt><trkpt lat="41.90558023749948" lon="2.7708868789988115"><ele>142.0</ele><time>2026-04-08T14:00:02.001Z</time></trkpt><trkpt lat="41.90534829835716" lon="2.7708285721662462"><ele>142.0</ele><time>2026-04-08T14:00:03.001Z</time></trkpt><trkpt lat="41.90511457697886" lon="2.770766359627306"><ele>142.0</ele><time>2026-04-08T14:00:04.001Z</time></trkpt><trkpt lat="41.90487755025972" lon="2.77070857862932"><ele>141.5</ele><time>2026-04-08T14:00:05.001Z</time></trkpt><trkpt lat="41.904633240686024" lon="2.7706572888502015"><ele>141.0</ele><time>2026-04-08T14:00:06.001Z</time></trkpt><trkpt lat="41.90439656057088" lon="2.7706025927824762"><ele>141.0</ele><time>2026-04-08T14:00:07.001Z</time></trkpt><trkpt lat="41.904155464479516" lon="2.7705460476777937"><ele>141.0</ele><time>2026-04-08T14:00:08.001Z</time></trkpt><trkpt lat="41.90391409266059" lon="2.7704878020623163"><ele>141.0</ele><time>2026-04-08T14:00:09.001Z</time></trkpt><trkpt lat="41.90367665807949" lon="2.770431321201895"><ele>141.0</ele><time>2026-04-08T14:00:10.001Z</time></trkpt><trkpt lat="41.903444061614664" lon="2.7703782950259446"><ele>141.0</ele><time>2026-04-08T14:00:11.001Z</time></trkpt><trkpt lat="41.90321496642841" lon="2.770306994084427"><ele>141.0</ele><time>2026-04-08T14:00:12.001Z</time></trkpt><trkpt lat="41.90299161019097" lon="2.770272689560673"><ele>141.0</ele><time>2026-04-08T14:00:13.001Z</time></trkpt><trkpt lat="41.90278073823637" lon="2.770212560238676"><ele>141.0</ele><time>2026-04-08T14:00:14.001Z</time></trkpt><trkpt lat="41.90258379196027" lon="2.770141585268467"><ele>141.0</ele><time>2026-04-08T14:00:15.001Z</time></trkpt><trkpt lat="41.90239466009962" lon="2.770043552711471"><ele>139.66666666666666</ele><time>2026-04-08T14:00:16.001Z</time></trkpt><trkpt lat="41.902202479063234" lon="2.7699200675233757"><ele>138.33333333333331</ele><time>2026-04-08T14:00:17.001Z</time></trkpt><trkpt lat="41.902008501325525" lon="2.769779404539567"><ele>137.0</ele><time>2026-04-08T14:00:18.001Z</time></trkpt><trkpt lat="41.90182474853909" lon="2.769641729529776"><ele>136.66666666666666</ele><time>2026-04-08T14:00:19.001Z</time></trkpt><trkpt lat="41.90163932658338" lon="2.7695099723526435"><ele>136.33333333333334</ele><time>2026-04-08T14:00:20.001Z</time></trkpt><trkpt lat="41.90146160890005" lon="2.7693849629827136"><ele>136.0</ele><time>2026-04-08T14:00:21.001Z</time></trkpt><trkpt lat="41.901289294405565" lon="2.7692639355186297"><ele>135.0</ele><time>2026-04-08T14:00:22.001Z</time></trkpt><trkpt lat="41.90112421609436" lon="2.7691463442636235"><ele>134.0</ele><time>2026-04-08T14:00:23.001Z</time></trkpt><trkpt lat="41.900963913769644" lon="2.7690304806648447"><ele>133.0</ele><time>2026-04-08T14:00:24.001Z</time></trkpt><trkpt lat="41.90080766606259" lon="2.7689194520660863"><ele>132.33333333333334</ele><time>2026-04-08T14:00:25.001Z</time></trkpt><trkpt lat="41.90065355331517" lon="2.7688094654197672"><ele>131.66666666666666</ele><time>2026-04-08T14:00:26.001Z</time></trkpt><trkpt lat="41.900505181113076" lon="2.7687029153794143"><ele>131.0</ele><time>2026-04-08T14:00:27.001Z</time></trkpt><trkpt lat="41.90036823292777" lon="2.768604704984527"><ele>131.0</ele><time>2026-04-08T14:00:28.001Z</time></trkpt><trkpt lat="41.900238436719576" lon="2.7685187252414045"><ele>131.0</ele><time>2026-04-08T14:00:29.001Z</time></trkpt><trkpt lat="41.90012022289753" lon="2.7684437549068077"><ele>131.0</ele><time>2026-04-08T14:00:30.001Z</time></trkpt><trkpt lat="41.9000126338501" lon="2.76837890693674"><ele>131.0</ele><time>2026-04-08T14:00:31.001Z</time></trkpt><trkpt lat="41.89990567552744" lon="2.7683260205787814"><ele>130.0</ele><time>2026-04-08T14:00:32.002Z</time></trkpt><trkpt lat="41.899804469347856" lon="2.76828896001225"><ele>129.0</ele><time>2026-04-08T14:00:33.002Z</time></trkpt><trkpt lat="41.899722898892804" lon="2.768190946604557"><ele>128.0</ele><time>2026-04-08T14:00:34.002Z</time></trkpt><trkpt lat="41.89964183914811" lon="2.7681177585494923"><ele>127.0</ele><time>2026-04-08T14:00:35.002Z</time></trkpt><trkpt lat="41.89955456641826" lon="2.7680834274466593"><ele>126.0</ele><time>2026-04-08T14:00:36.002Z</time></trkpt><trkpt lat="41.89947029342777" lon="2.7680663947065156"><ele>126.0</ele><time>2026-04-08T14:00:37.002Z</time></trkpt><trkpt lat="41.89938252878261" lon="2.768108620528272"><ele>126.0</ele><time>2026-04-08T14:00:38.002Z</time></trkpt><trkpt lat="41.89930697826688" lon="2.7682044904287966"><ele>126.0</ele><time>2026-04-08T14:00:39.002Z</time></trkpt><trkpt lat="41.899259015369275" lon="2.7683487782286247"><ele>126.0</ele><time>2026-04-08T14:00:40.002Z</time></trkpt><trkpt lat="41.89924610679399" lon="2.7684989522071315"><ele>126.0</ele><time>2026-04-08T14:00:41.002Z</time></trkpt><trkpt lat="41.89921792368231" lon="2.768621210897724"><ele>125.19999999999999</ele><time>2026-04-08T14:00:42.002Z</time></trkpt><trkpt lat="41.899173670344695" lon="2.7687242579258093"><ele>124.39999999999999</ele><time>2026-04-08T14:00:43.002Z</time></trkpt><trkpt lat="41.89912055904371" lon="2.768829916254543"><ele>123.6</ele><time>2026-04-08T14:00:44.002Z</time></trkpt><trkpt lat="41.89905167092935" lon="2.76894932384606"><ele>122.8</ele><time>2026-04-08T14:00:45.002Z</time></trkpt><trkpt lat="41.898969051160115" lon="2.769075367047699"><ele>122.0</ele><time>2026-04-08T14:00:46.002Z</time></trkpt><trkpt lat="41.89888607281167" lon="2.769212194529244"><ele>122.0</ele><time>2026-04-08T14:00:47.002Z</time></trkpt><trkpt lat="41.89880308210447" lon="2.7693545498788517"><ele>122.0</ele><time>2026-04-08T14:00:48.002Z</time></trkpt><trkpt lat="41.898719156302015" lon="2.769494379754164"><ele>122.0</ele><time>2026-04-08T14:00:49.002Z</time></trkpt><trkpt lat="41.89864362827392" lon="2.7696238319585587"><ele>122.0</ele><time>2026-04-08T14:00:50.002Z</time></trkpt><trkpt lat="41.89857293515835" lon="2.7697466928572307"><ele>121.8</ele><time>2026-04-08T14:00:51.002Z</time></trkpt><trkpt lat="41.89850880390026" lon="2.7698566784681162"><ele>121.6</ele><time>2026-04-08T14:00:52.002Z</time></trkpt><trkpt lat="41.89844444571806" lon="2.7699483247732286"><ele>121.39999999999999</ele><time>2026-04-08T14:00:53.002Z</time></trkpt><trkpt lat="41.89836623030024" lon="2.770027724303096"><ele>121.19999999999999</ele><time>2026-04-08T14:00:54.002Z</time></trkpt><trkpt lat="41.89826281966223" lon="2.7700890144650088"><ele>121.0</ele><time>2026-04-08T14:00:55.002Z</time></trkpt><trkpt lat="41.89815353701054" lon="2.7701418449674833"><ele>120.5</ele><time>2026-04-08T14:00:56.002Z</time></trkpt><trkpt lat="41.89806132571225" lon="2.770224813469997"><ele>120.0</ele><time>2026-04-08T14:00:57.002Z</time></trkpt><trkpt lat="41.898032987748" lon="2.7703736280576927"><ele>119.5</ele><time>2026-04-08T14:00:58.002Z</time></trkpt><trkpt lat="41.89800834415631" lon="2.7705218504091382"><ele>119.0</ele><time>2026-04-08T14:00:59.002Z</time></trkpt><trkpt lat="41.89798306069125" lon="2.7706773484186975"><ele>119.0</ele><time>2026-04-08T14:01:00.002Z</time></trkpt><trkpt lat="41.89793186877365" lon="2.770818765511398"><ele>119.0</ele><time>2026-04-08T14:01:01.002Z</time></trkpt><trkpt lat="41.89785657949923" lon="2.7709569580425812"><ele>119.0</ele><time>2026-04-08T14:01:02.002Z</time></trkpt><trkpt lat="41.89776604849539" lon="2.7710974855156683"><ele>119.0</ele><time>2026-04-08T14:01:03.002Z</time></trkpt><trkpt lat="41.89766918525762" lon="2.7712520295744634"><ele>118.66666666666666</ele><time>2026-04-08T14:01:04.002Z</time></trkpt><trkpt lat="41.89756748809413" lon="2.7714233372243218"><ele>118.33333333333334</ele><time>2026-04-08T14:01:05.002Z</time></trkpt><trkpt lat="41.897463843833094" lon="2.7715975010344005"><ele>118.0</ele><time>2026-04-08T14:01:06.002Z</time></trkpt><trkpt lat="41.897352456534556" lon="2.771782742600257"><ele>118.33333333333334</ele><time>2026-04-08T14:01:07.002Z</time></trkpt><trkpt lat="41.89723681296014" lon="2.771976950651919"><ele>118.66666666666666</ele><time>2026-04-08T14:01:08.002Z</time></trkpt><trkpt lat="41.89711487174356" lon="2.7721776172040875"><ele>119.0</ele><time>2026-04-08T14:01:09.002Z</time></trkpt><trkpt lat="41.896990414530514" lon="2.7723891352008843"><ele>119.0</ele><time>2026-04-08T14:01:10.002Z</time></trkpt><trkpt lat="41.89686354100281" lon="2.7726065797902577"><ele>119.0</ele><time>2026-04-08T14:01:11.002Z</time></trkpt><trkpt lat="41.89673102363261" lon="2.7728209685188245"><ele>119.0</ele><time>2026-04-08T14:01:12.002Z</time></trkpt><trkpt lat="41.8965981798876" lon="2.773038303778144"><ele>118.33333333333333</ele><time>2026-04-08T14:01:13.002Z</time></trkpt><trkpt lat="41.896464951682425" lon="2.7732545291185846"><ele>117.66666666666666</ele><time>2026-04-08T14:01:14.002Z</time></trkpt><trkpt lat="41.89632944251714" lon="2.7734717689130797"><ele>117.0</ele><time>2026-04-08T14:01:15Z</time></trkpt><trkpt lat="41.896198348532046" lon="2.773694097244034"><ele>116.66666666666666</ele><time>2026-04-08T14:01:16Z</time></trkpt><trkpt lat="41.89607210737582" lon="2.77391050338367"><ele>116.33333333333333</ele><time>2026-04-08T14:01:17Z</time></trkpt><trkpt lat="41.89594461386607" lon="2.7741288393827586"><ele>116.0</ele><time>2026-04-08T14:01:18Z</time></trkpt><trkpt lat="41.89582122446037" lon="2.7743386711325795"><ele>115.66666666666666</ele><time>2026-04-08T14:01:19Z</time></trkpt><trkpt lat="41.89569621755011" lon="2.7745467085990168"><ele>115.33333333333334</ele><time>2026-04-08T14:01:20Z</time></trkpt><trkpt lat="41.895567744315855" lon="2.7747547650283546"><ele>115.0</ele><time>2026-04-08T14:01:21Z</time></trkpt><trkpt lat="41.89544150779167" lon="2.7749634277557034"><ele>115.0</ele><time>2026-04-08T14:01:22Z</time></trkpt><trkpt lat="41.89531719632113" lon="2.7751712485156794"><ele>115.0</ele><time>2026-04-08T14:01:23Z</time></trkpt><trkpt lat="41.8951950544312" lon="2.775379530308626"><ele>115.0</ele><time>2026-04-08T14:01:24Z</time></trkpt><trkpt lat="41.895074007608585" lon="2.775586909922315"><ele>114.33333333333334</ele><time>2026-04-08T14:01:25Z</time></trkpt><trkpt lat="41.894957740515565" lon="2.7757859576455233"><ele>113.66666666666666</ele><time>2026-04-08T14:01:26Z</time></trkpt><trkpt lat="41.89484160381993" lon="2.7760010125851164"><ele>113.0</ele><time>2026-04-08T14:01:27Z</time></trkpt><trkpt lat="41.89472337907535" lon="2.7761908574696856"><ele>113.0</ele><time>2026-04-08T14:01:28Z</time></trkpt><trkpt lat="41.89461087103415" lon="2.7763749036647574"><ele>113.0</ele><time>2026-04-08T14:01:29Z</time></trkpt><trkpt lat="41.89449547244315" lon="2.7765605864465353"><ele>113.0</ele><time>2026-04-08T14:01:30Z</time></trkpt><trkpt lat="41.89437388222372" lon="2.7767497873184883"><ele>112.66666666666666</ele><time>2026-04-08T14:01:31Z</time></trkpt><trkpt lat="41.89425474444327" lon="2.7769368056280674"><ele>112.33333333333334</ele><time>2026-04-08T14:01:32Z</time></trkpt><trkpt lat="41.89414236005916" lon="2.7771280806579264"><ele>112.0</ele><time>2026-04-08T14:01:33Z</time></trkpt><trkpt lat="41.89402985064223" lon="2.7773201548638995"><ele>112.0</ele><time>2026-04-08T14:01:34Z</time></trkpt><trkpt lat="41.89391773441982" lon="2.7775080628686397"><ele>112.0</ele><time>2026-04-08T14:01:35Z</time></trkpt><trkpt lat="41.893805653756075" lon="2.7776941737265783"><ele>112.0</ele><time>2026-04-08T14:01:36Z</time></trkpt><trkpt lat="41.89369456306666" lon="2.777874875149869"><ele>111.66666666666667</ele><time>2026-04-08T14:01:37Z</time></trkpt><trkpt lat="41.89359108408684" lon="2.7780380901701998"><ele>111.33333333333334</ele><time>2026-04-08T14:01:38Z</time></trkpt><trkpt lat="41.89349671404013" lon="2.778198187312481"><ele>111.0</ele><time>2026-04-08T14:01:39Z</time></trkpt><trkpt lat="41.89340670429749" lon="2.7783477625251964"><ele>110.5</ele><time>2026-04-08T14:01:40Z</time></trkpt><trkpt lat="41.89332413654824" lon="2.7784863176568475"><ele>110.0</ele><time>2026-04-08T14:01:41Z</time></trkpt><trkpt lat="41.89324772395739" lon="2.778611260366183"><ele>109.5</ele><time>2026-04-08T14:01:42Z</time></trkpt><trkpt lat="41.8931746336896" lon="2.778720166710268"><ele>109.0</ele><time>2026-04-08T14:01:43Z</time></trkpt><trkpt lat="41.89309311985663" lon="2.7788154500189104"><ele>109.0</ele><time>2026-04-08T14:01:44Z</time></trkpt><trkpt lat="41.89299530804385" lon="2.7789033894082187"><ele>109.0</ele><time>2026-04-08T14:01:45Z</time></trkpt><trkpt lat="41.89288771874934" lon="2.778986229340935"><ele>109.0</ele><time>2026-04-08T14:01:46Z</time></trkpt><trkpt lat="41.89277587683088" lon="2.779060384441147"><ele>109.0</ele><time>2026-04-08T14:01:47Z</time></trkpt><trkpt lat="41.892707432219744" lon="2.7792062747964876"><ele>109.0</ele><time>2026-04-08T14:01:48Z</time></trkpt><trkpt lat="41.892646212523985" lon="2.779361149348338"><ele>109.0</ele><time>2026-04-08T14:01:49Z</time></trkpt><trkpt lat="41.89262587481852" lon="2.77954687583096"><ele>109.0</ele><time>2026-04-08T14:01:50.001Z</time></trkpt><trkpt lat="41.89256019175831" lon="2.779707126564243"><ele>109.0</ele><time>2026-04-08T14:01:51.001Z</time></trkpt><trkpt lat="41.89248900029145" lon="2.779877675032034"><ele>109.0</ele><time>2026-04-08T14:01:52.001Z</time></trkpt><trkpt lat="41.89239511967971" lon="2.7800556154298297"><ele>109.0</ele><time>2026-04-08T14:01:53.001Z</time></trkpt><trkpt lat="41.89228794290256" lon="2.7802360340324883"><ele>109.0</ele><time>2026-04-08T14:01:54.001Z</time></trkpt><trkpt lat="41.892166004623796" lon="2.7804222187006977"><ele>109.0</ele><time>2026-04-08T14:01:55.001Z</time></trkpt><trkpt lat="41.8920393295541" lon="2.7806287015435953"><ele>109.0</ele><time>2026-04-08T14:01:56.001Z</time></trkpt><trkpt lat="41.8919104258018" lon="2.7808381757425606"><ele>109.0</ele><time>2026-04-08T14:01:57.001Z</time></trkpt><trkpt lat="41.89177702120884" lon="2.781046595469418"><ele>108.66666666666667</ele><time>2026-04-08T14:01:58.001Z</time></trkpt><trkpt lat="41.89163735280363" lon="2.7812667521512027"><ele>108.33333333333334</ele><time>2026-04-08T14:01:59.001Z</time></trkpt><trkpt lat="41.89150352758787" lon="2.781477872515917"><ele>108.0</ele><time>2026-04-08T14:02:00.001Z</time></trkpt><trkpt lat="41.89137846412929" lon="2.7816673603404887"><ele>108.0</ele><time>2026-04-08T14:02:01.001Z</time></trkpt><trkpt lat="41.89126327073391" lon="2.7818421763472925"><ele>108.0</ele><time>2026-04-08T14:02:02.001Z</time></trkpt><trkpt lat="41.89116011664092" lon="2.7820021951870353"><ele>108.0</ele><time>2026-04-08T14:02:03.001Z</time></trkpt><trkpt lat="41.89107488719077" lon="2.782147893006757"><ele>108.0</ele><time>2026-04-08T14:02:04.001Z</time></trkpt><trkpt lat="41.8909922140207" lon="2.7822745341275072"><ele>108.00000000000001</ele><time>2026-04-08T14:02:05.001Z</time></trkpt><trkpt lat="41.89090776497837" lon="2.7823840630251016"><ele>108.00000000000001</ele><time>2026-04-08T14:02:06.001Z</time></trkpt><trkpt lat="41.89084990140808" lon="2.7824432275164765"><ele>108.0</ele><time>2026-04-08T14:02:07.001Z</time></trkpt><trkpt lat="41.89078707849063" lon="2.782492031546216"><ele>108.0</ele><time>2026-04-08T14:02:10.001Z</time></trkpt><trkpt lat="41.890706424942266" lon="2.7825411135043487"><ele>108.0</ele><time>2026-04-08T14:02:12.001Z</time></trkpt><trkpt lat="41.890617093502335" lon="2.7825733117084956"><ele>108.00000000000001</ele><time>2026-04-08T14:02:13.001Z</time></trkpt><trkpt lat="41.89052765488126" lon="2.782629663182289"><ele>108.00000000000001</ele><time>2026-04-08T14:02:14.001Z</time></trkpt><trkpt lat="41.89044202784322" lon="2.782715134508944"><ele>108.0</ele><time>2026-04-08T14:02:15.001Z</time></trkpt><trkpt lat="41.89036323987226" lon="2.782858316605196"><ele>108.0</ele><time>2026-04-08T14:02:16.001Z</time></trkpt><trkpt lat="41.890298358172444" lon="2.7830274740816994"><ele>108.0</ele><time>2026-04-08T14:02:17.001Z</time></trkpt><trkpt lat="41.89024320074238" lon="2.7832118412269993"><ele>108.0</ele><time>2026-04-08T14:02:18.001Z</time></trkpt><trkpt lat="41.89020012084378" lon="2.7834194075839296"><ele>108.0</ele><time>2026-04-08T14:02:19.001Z</time></trkpt><trkpt lat="41.89017697325123" lon="2.7836131333171226"><ele>107.75</ele><time>2026-04-08T14:02:20.001Z</time></trkpt><trkpt lat="41.890172054846964" lon="2.783800276163097"><ele>107.5</ele><time>2026-04-08T14:02:21.001Z</time></trkpt><trkpt lat="41.89019714697493" lon="2.783946168629461"><ele>107.25</ele><time>2026-04-08T14:02:22.001Z</time></trkpt><trkpt lat="41.8902323898536" lon="2.7841169988372436"><ele>107.0</ele><time>2026-04-08T14:02:23.001Z</time></trkpt><trkpt lat="41.8903001333547" lon="2.7842801117882767"><ele>106.0</ele><time>2026-04-08T14:02:24.001Z</time></trkpt><trkpt lat="41.89038588258437" lon="2.7844448407578226"><ele>105.0</ele><time>2026-04-08T14:02:25.001Z</time></trkpt><trkpt lat="41.89045991168953" lon="2.784632931230517"><ele>104.0</ele><time>2026-04-08T14:02:26.001Z</time></trkpt><trkpt lat="41.890518519692236" lon="2.784856535735763"><ele>104.0</ele><time>2026-04-08T14:02:27.001Z</time></trkpt><trkpt lat="41.89057115513254" lon="2.785096858177168"><ele>104.0</ele><time>2026-04-08T14:02:28.001Z</time></trkpt><trkpt lat="41.890620988122045" lon="2.78534248179"><ele>104.0</ele><time>2026-04-08T14:02:29.001Z</time></trkpt><trkpt lat="41.8906688477749" lon="2.7855729853407927"><ele>104.0</ele><time>2026-04-08T14:02:30.001Z</time></trkpt><trkpt lat="41.890699137557576" lon="2.7858029903582113"><ele>104.0</ele><time>2026-04-08T14:02:31.001Z</time></trkpt><trkpt lat="41.89074349581877" lon="2.786021857672425"><ele>104.0</ele><time>2026-04-08T14:02:32.002Z</time></trkpt><trkpt lat="41.89078814177896" lon="2.786242144396426"><ele>105.0</ele><time>2026-04-08T14:02:33.002Z</time></trkpt><trkpt lat="41.89083098111993" lon="2.7864535170759157"><ele>106.0</ele><time>2026-04-08T14:02:34.002Z</time></trkpt><trkpt lat="41.890873992481815" lon="2.7866670259585824"><ele>107.0</ele><time>2026-04-08T14:02:35.002Z</time></trkpt><trkpt lat="41.890915840856955" lon="2.786874808299176"><ele>108.33333333333333</ele><time>2026-04-08T14:02:36.002Z</time></trkpt><trkpt lat="41.89097067766385" lon="2.787076306581517"><ele>109.66666666666666</ele><time>2026-04-08T14:02:37.002Z</time></trkpt><trkpt lat="41.89099962193587" lon="2.787290791526536"><ele>111.0</ele><time>2026-04-08T14:02:38.002Z</time></trkpt><trkpt lat="41.89104190937641" lon="2.78750093778076"><ele>110.33333333333334</ele><time>2026-04-08T14:02:39.002Z</time></trkpt><trkpt lat="41.89108341381082" lon="2.7877078906178734"><ele>109.66666666666667</ele><time>2026-04-08T14:02:40.002Z</time></trkpt><trkpt lat="41.89112358901002" lon="2.787908215529977"><ele>109.0</ele><time>2026-04-08T14:02:41.002Z</time></trkpt><trkpt lat="41.89116403266314" lon="2.788109878981113"><ele>109.0</ele><time>2026-04-08T14:02:42.002Z</time></trkpt><trkpt lat="41.891205579802985" lon="2.788317044780621"><ele>109.0</ele><time>2026-04-08T14:02:43.002Z</time></trkpt><trkpt lat="41.89124442244311" lon="2.7885107251608603"><ele>109.0</ele><time>2026-04-08T14:02:44.002Z</time></trkpt><trkpt lat="41.89128492558762" lon="2.788706137514231"><ele>109.0</ele><time>2026-04-08T14:02:45.002Z</time></trkpt><trkpt lat="41.89132386637875" lon="2.7888925784087477"><ele>109.0</ele><time>2026-04-08T14:02:46.002Z</time></trkpt><trkpt lat="41.89136418538905" lon="2.7890856179144277"><ele>109.0</ele><time>2026-04-08T14:02:47.002Z</time></trkpt><trkpt lat="41.89140537154173" lon="2.7892828090719375"><ele>109.0</ele><time>2026-04-08T14:02:48.002Z</time></trkpt><trkpt lat="41.89144781803176" lon="2.789486034575672"><ele>109.0</ele><time>2026-04-08T14:02:49.002Z</time></trkpt><trkpt lat="41.89150048696939" lon="2.7896801284908856"><ele>109.0</ele><time>2026-04-08T14:02:50.002Z</time></trkpt><trkpt lat="41.891533602504374" lon="2.789877389459537"><ele>109.0</ele><time>2026-04-08T14:02:51.002Z</time></trkpt><trkpt lat="41.89157561701153" lon="2.7900714410052188"><ele>109.33333333333334</ele><time>2026-04-08T14:02:52.002Z</time></trkpt><trkpt lat="41.891617863265076" lon="2.790273696867543"><ele>109.66666666666666</ele><time>2026-04-08T14:02:53.002Z</time></trkpt><trkpt lat="41.89165952675361" lon="2.79046986931758"><ele>110.0</ele><time>2026-04-08T14:02:54.002Z</time></trkpt><trkpt lat="41.891699311577185" lon="2.7906683315850835"><ele>110.0</ele><time>2026-04-08T14:02:55.002Z</time></trkpt><trkpt lat="41.89174066041932" lon="2.790872681058115"><ele>110.0</ele><time>2026-04-08T14:02:56.002Z</time></trkpt><trkpt lat="41.89178154732863" lon="2.7910817343970673"><ele>110.0</ele><time>2026-04-08T14:02:57.002Z</time></trkpt><trkpt lat="41.89182686916182" lon="2.7912927053331877"><ele>108.33333333333333</ele><time>2026-04-08T14:02:58.002Z</time></trkpt><trkpt lat="41.89187257056598" lon="2.7915055934178215"><ele>106.66666666666666</ele><time>2026-04-08T14:02:59.002Z</time></trkpt><trkpt lat="41.891917452101325" lon="2.7917193752989107"><ele>105.0</ele><time>2026-04-08T14:03:00.002Z</time></trkpt><trkpt lat="41.891960051169015" lon="2.7919290293962455"><ele>104.66666666666666</ele><time>2026-04-08T14:03:01.002Z</time></trkpt><trkpt lat="41.89198678838266" lon="2.7921467198736525"><ele>104.33333333333333</ele><time>2026-04-08T14:03:02.002Z</time></trkpt><trkpt lat="41.892029762006906" lon="2.7923549765513656"><ele>104.0</ele><time>2026-04-08T14:03:03.002Z</time></trkpt><trkpt lat="41.89207417296187" lon="2.7925701980658952"><ele>104.0</ele><time>2026-04-08T14:03:04.002Z</time></trkpt><trkpt lat="41.89211842122986" lon="2.7927877261523"><ele>104.0</ele><time>2026-04-08T14:03:05.002Z</time></trkpt><trkpt lat="41.89217555726897" lon="2.792998940161933"><ele>104.0</ele><time>2026-04-08T14:03:06.002Z</time></trkpt><trkpt lat="41.89222097934153" lon="2.7932196361111323"><ele>104.0</ele><time>2026-04-08T14:03:07.002Z</time></trkpt><trkpt lat="41.892259348066816" lon="2.793427146665242"><ele>104.0</ele><time>2026-04-08T14:03:08.002Z</time></trkpt><trkpt lat="41.89230044313646" lon="2.793626073787443"><ele>104.0</ele><time>2026-04-08T14:03:09.002Z</time></trkpt><trkpt lat="41.89233985685439" lon="2.793819158637616"><ele>104.25</ele><time>2026-04-08T14:03:10.002Z</time></trkpt><trkpt lat="41.89237615165165" lon="2.7940054482217"><ele>104.5</ele><time>2026-04-08T14:03:11.002Z</time></trkpt><trkpt lat="41.89241239643636" lon="2.7941835224468865"><ele>104.75</ele><time>2026-04-08T14:03:12.002Z</time></trkpt><trkpt lat="41.89244570221996" lon="2.794352788402079"><ele>105.0</ele><time>2026-04-08T14:03:13.002Z</time></trkpt><trkpt lat="41.89247993474127" lon="2.794523195668673"><ele>105.0</ele><time>2026-04-08T14:03:14.003Z</time></trkpt><trkpt lat="41.892514013132306" lon="2.7946883457327396"><ele>105.0</ele><time>2026-04-08T14:03:15.003Z</time></trkpt><trkpt lat="41.892546448873944" lon="2.7948348644723935"><ele>105.0</ele><time>2026-04-08T14:03:16.003Z</time></trkpt><trkpt lat="41.892576262751184" lon="2.7949748982800737"><ele>105.0</ele><time>2026-04-08T14:03:17.003Z</time></trkpt><trkpt lat="41.892600412449255" lon="2.7950902525896"><ele>105.0</ele><time>2026-04-08T14:03:18.003Z</time></trkpt><trkpt lat="41.89261703390593" lon="2.7951976838888175"><ele>105.16666666666667</ele><time>2026-04-08T14:03:19.003Z</time></trkpt><trkpt lat="41.89261673813807" lon="2.79529250392952"><ele>105.33333333333334</ele><time>2026-04-08T14:03:20.003Z</time></trkpt><trkpt lat="41.892600860855495" lon="2.795379011926337"><ele>105.5</ele><time>2026-04-08T14:03:21Z</time></trkpt><trkpt lat="41.89257648930527" lon="2.7954573049195055"><ele>105.66666666666667</ele><time>2026-04-08T14:03:22Z</time></trkpt><trkpt lat="41.89255809502577" lon="2.7955387997683196"><ele>105.83333333333334</ele><time>2026-04-08T14:03:23Z</time></trkpt><trkpt lat="41.89258404872032" lon="2.7956760908019245"><ele>106.0</ele><time>2026-04-08T14:03:25Z</time></trkpt><trkpt lat="41.89264177736739" lon="2.7957725924339965"><ele>106.0</ele><time>2026-04-08T14:03:27Z</time></trkpt><trkpt lat="41.89274240221676" lon="2.795821272999787"><ele>106.0</ele><time>2026-04-08T14:03:29Z</time></trkpt><trkpt lat="41.892757108755916" lon="2.7959709893559452"><ele>106.0</ele><time>2026-04-08T14:03:30Z</time></trkpt><trkpt lat="41.89278396587344" lon="2.79606113416502"><ele>106.0</ele><time>2026-04-08T14:03:31Z</time></trkpt><trkpt lat="41.89280633515616" lon="2.7961622658252003"><ele>106.0</ele><time>2026-04-08T14:03:32Z</time></trkpt><trkpt lat="41.892831167891885" lon="2.7962881609589583"><ele>105.4</ele><time>2026-04-08T14:03:33Z</time></trkpt><trkpt lat="41.892860574751" lon="2.796423270392784"><ele>104.8</ele><time>2026-04-08T14:03:34Z</time></trkpt><trkpt lat="41.892898122535186" lon="2.7965652415618836"><ele>104.2</ele><time>2026-04-08T14:03:35Z</time></trkpt><trkpt lat="41.892932634159116" lon="2.796711678287345"><ele>103.60000000000001</ele><time>2026-04-08T14:03:36Z</time></trkpt><trkpt lat="41.8929644657121" lon="2.796857497114701"><ele>103.0</ele><time>2026-04-08T14:03:37Z</time></trkpt><trkpt lat="41.89299308418093" lon="2.7970059705355985"><ele>103.0</ele><time>2026-04-08T14:03:38Z</time></trkpt><trkpt lat="41.89301728719977" lon="2.7971582564554938"><ele>103.0</ele><time>2026-04-08T14:03:39Z</time></trkpt><trkpt lat="41.893047015776794" lon="2.7973165146814907"><ele>103.0</ele><time>2026-04-08T14:03:40Z</time></trkpt><trkpt lat="41.893083188922404" lon="2.797472205573258"><ele>103.0</ele><time>2026-04-08T14:03:41Z</time></trkpt><trkpt lat="41.893116620476704" lon="2.7976365588562295"><ele>102.75</ele><time>2026-04-08T14:03:42Z</time></trkpt><trkpt lat="41.89315399577871" lon="2.7978079869711525"><ele>102.5</ele><time>2026-04-08T14:03:43Z</time></trkpt><trkpt lat="41.893189616598754" lon="2.797984492168595"><ele>102.25</ele><time>2026-04-08T14:03:44Z</time></trkpt><trkpt lat="41.893224390689355" lon="2.7981665834084475"><ele>102.0</ele><time>2026-04-08T14:03:45Z</time></trkpt><trkpt lat="41.893257299053744" lon="2.798348230817331"><ele>101.5</ele><time>2026-04-08T14:03:46Z</time></trkpt><trkpt lat="41.89329143064532" lon="2.7985257931625833"><ele>101.0</ele><time>2026-04-08T14:03:47Z</time></trkpt><trkpt lat="41.893330229323674" lon="2.798708264300731"><ele>100.5</ele><time>2026-04-08T14:03:48Z</time></trkpt><trkpt lat="41.893368828659455" lon="2.7988880364204287"><ele>100.0</ele><time>2026-04-08T14:03:49Z</time></trkpt><trkpt lat="41.89340701000626" lon="2.79906407130892"><ele>100.25</ele><time>2026-04-08T14:03:50Z</time></trkpt><trkpt lat="41.89344126904319" lon="2.7992272861275764"><ele>100.5</ele><time>2026-04-08T14:03:51Z</time></trkpt><trkpt lat="41.893470799495695" lon="2.7993816133659686"><ele>100.75</ele><time>2026-04-08T14:03:52Z</time></trkpt><trkpt lat="41.89349866497231" lon="2.799527421239383"><ele>101.0</ele><time>2026-04-08T14:03:53Z</time></trkpt><trkpt lat="41.89352576434586" lon="2.799675033564616"><ele>101.0</ele><time>2026-04-08T14:03:54Z</time></trkpt><trkpt lat="41.893550492680674" lon="2.799822296096249"><ele>101.0</ele><time>2026-04-08T14:03:55Z</time></trkpt><trkpt lat="41.89357334856059" lon="2.799961848291692"><ele>101.0</ele><time>2026-04-08T14:03:56Z</time></trkpt><trkpt lat="41.893595545814165" lon="2.800091463682038"><ele>101.0</ele><time>2026-04-08T14:03:57Z</time></trkpt><trkpt lat="41.893613003685154" lon="2.800208698901414"><ele>101.0</ele><time>2026-04-08T14:03:58Z</time></trkpt><trkpt lat="41.89362792307981" lon="2.8003191705282293"><ele>101.28571428571428</ele><time>2026-04-08T14:03:59Z</time></trkpt><trkpt lat="41.89363349520388" lon="2.800421511528297"><ele>101.57142857142857</ele><time>2026-04-08T14:04:00.001Z</time></trkpt><trkpt lat="41.89363793669159" lon="2.800517443506778"><ele>101.85714285714286</ele><time>2026-04-08T14:04:01.001Z</time></trkpt><trkpt lat="41.89363006115272" lon="2.8006066687368616"><ele>102.14285714285714</ele><time>2026-04-08T14:04:02.001Z</time></trkpt><trkpt lat="41.89362322362368" lon="2.8006964359030455"><ele>102.42857142857143</ele><time>2026-04-08T14:04:03.001Z</time></trkpt><trkpt lat="41.89360012297045" lon="2.8007832607920022"><ele>102.71428571428571</ele><time>2026-04-08T14:04:04.001Z</time></trkpt><trkpt lat="41.89360761516263" lon="2.8008800625777504"><ele>103.0</ele><time>2026-04-08T14:04:05.001Z</time></trkpt><trkpt lat="41.89370067620409" lon="2.8009993835125266"><ele>103.4</ele><time>2026-04-08T14:04:07.001Z</time></trkpt><trkpt lat="41.89377270427111" lon="2.8011313123582036"><ele>103.80000000000001</ele><time>2026-04-08T14:04:09.001Z</time></trkpt><trkpt lat="41.89384322477045" lon="2.8012809238526573"><ele>104.2</ele><time>2026-04-08T14:04:11.001Z</time></trkpt><trkpt lat="41.893863573931114" lon="2.801386850670899"><ele>104.6</ele><time>2026-04-08T14:04:12.001Z</time></trkpt><trkpt lat="41.89388816534892" lon="2.801498621633826"><ele>105.0</ele><time>2026-04-08T14:04:13.001Z</time></trkpt><trkpt lat="41.8939076047555" lon="2.8016080786079836"><ele>105.0</ele><time>2026-04-08T14:04:14.001Z</time></trkpt><trkpt lat="41.89393132742866" lon="2.801715993253949"><ele>105.0</ele><time>2026-04-08T14:04:15.001Z</time></trkpt><trkpt lat="41.89395387151366" lon="2.801823241512566"><ele>105.0</ele><time>2026-04-08T14:04:16.001Z</time></trkpt><trkpt lat="41.89398117584984" lon="2.801930762419919"><ele>105.0</ele><time>2026-04-08T14:04:17.001Z</time></trkpt><trkpt lat="41.894004316511314" lon="2.802044334673405"><ele>105.0</ele><time>2026-04-08T14:04:18.001Z</time></trkpt><trkpt lat="41.894027896126566" lon="2.802155669442111"><ele>105.0</ele><time>2026-04-08T14:04:19.001Z</time></trkpt><trkpt lat="41.894054264907396" lon="2.8022717902523953"><ele>105.0</ele><time>2026-04-08T14:04:20.001Z</time></trkpt><trkpt lat="41.894081864937505" lon="2.8023967726933896"><ele>105.0</ele><time>2026-04-08T14:04:21.001Z</time></trkpt><trkpt lat="41.89410773644835" lon="2.8025317433671373"><ele>105.0</ele><time>2026-04-08T14:04:22.001Z</time></trkpt><trkpt lat="41.894136327005775" lon="2.8026648667139975"><ele>105.0</ele><time>2026-04-08T14:04:23.001Z</time></trkpt><trkpt lat="41.89416494132105" lon="2.8027861500822473"><ele>105.0</ele><time>2026-04-08T14:04:24.001Z</time></trkpt><trkpt lat="41.8941892348569" lon="2.8029021831677476"><ele>104.83333333333333</ele><time>2026-04-08T14:04:25.001Z</time></trkpt><trkpt lat="41.89421068577996" lon="2.803013434974206"><ele>104.66666666666666</ele><time>2026-04-08T14:04:26.001Z</time></trkpt><trkpt lat="41.894232256093005" lon="2.8031177148904893"><ele>104.5</ele><time>2026-04-08T14:04:27.001Z</time></trkpt><trkpt lat="41.89424999563268" lon="2.8032215582384286"><ele>104.33333333333333</ele><time>2026-04-08T14:04:28.001Z</time></trkpt><trkpt lat="41.89426878699694" lon="2.8033351155532316"><ele>104.16666666666666</ele><time>2026-04-08T14:04:29.001Z</time></trkpt><trkpt lat="41.89429172564777" lon="2.8034427298387885"><ele>104.0</ele><time>2026-04-08T14:04:30.001Z</time></trkpt><trkpt lat="41.894318737846035" lon="2.803547395100799"><ele>104.49999999999999</ele><time>2026-04-08T14:04:31.001Z</time></trkpt><trkpt lat="41.89434251434147" lon="2.8036575488416546"><ele>105.0</ele><time>2026-04-08T14:04:32.001Z</time></trkpt><trkpt lat="41.89436744658774" lon="2.8037708834472306"><ele>105.5</ele><time>2026-04-08T14:04:33.001Z</time></trkpt><trkpt lat="41.89438668819651" lon="2.8038905233445606"><ele>106.0</ele><time>2026-04-08T14:04:34.001Z</time></trkpt><trkpt lat="41.894404585711214" lon="2.803999634246948"><ele>106.49999999999999</ele><time>2026-04-08T14:04:35.001Z</time></trkpt><trkpt lat="41.89442493346448" lon="2.8041007451183484"><ele>107.0</ele><time>2026-04-08T14:04:36.001Z</time></trkpt><trkpt lat="41.89444034042194" lon="2.804204400464593"><ele>107.0</ele><time>2026-04-08T14:04:37.001Z</time></trkpt><trkpt lat="41.89446769649464" lon="2.8043151908193926"><ele>106.99999999999999</ele><time>2026-04-08T14:04:38.001Z</time></trkpt><trkpt lat="41.89449671683884" lon="2.804431453686415"><ele>106.99999999999999</ele><time>2026-04-08T14:04:39.001Z</time></trkpt><trkpt lat="41.894520802615396" lon="2.8045568189250183"><ele>107.0</ele><time>2026-04-08T14:04:40.002Z</time></trkpt><trkpt lat="41.894550857531705" lon="2.8046924439940564"><ele>107.0</ele><time>2026-04-08T14:04:41.002Z</time></trkpt><trkpt lat="41.89457924806942" lon="2.804827989977227"><ele>106.8</ele><time>2026-04-08T14:04:42.002Z</time></trkpt><trkpt lat="41.89460493186717" lon="2.804956910146788"><ele>106.6</ele><time>2026-04-08T14:04:43.002Z</time></trkpt><trkpt lat="41.89462815420754" lon="2.8050882504361656"><ele>106.39999999999999</ele><time>2026-04-08T14:04:44.002Z</time></trkpt><trkpt lat="41.89464440541136" lon="2.805224413023153"><ele>106.19999999999999</ele><time>2026-04-08T14:04:45.002Z</time></trkpt><trkpt lat="41.89467432546589" lon="2.805358299426217"><ele>106.0</ele><time>2026-04-08T14:04:46.002Z</time></trkpt><trkpt lat="41.894701619766494" lon="2.8054891100803445"><ele>105.6</ele><time>2026-04-08T14:04:47.002Z</time></trkpt><trkpt lat="41.894722206034295" lon="2.8056156602127147"><ele>105.19999999999999</ele><time>2026-04-08T14:04:48.002Z</time></trkpt><trkpt lat="41.89473439366759" lon="2.8057564550332543"><ele>104.80000000000001</ele><time>2026-04-08T14:04:49.002Z</time></trkpt><trkpt lat="41.894771204689235" lon="2.8058821886045893"><ele>104.4</ele><time>2026-04-08T14:04:50.002Z</time></trkpt><trkpt lat="41.89480069123066" lon="2.8060126815328954"><ele>104.0</ele><time>2026-04-08T14:04:51.002Z</time></trkpt><trkpt lat="41.894827065469855" lon="2.8061502846497053"><ele>103.75</ele><time>2026-04-08T14:04:52.002Z</time></trkpt><trkpt lat="41.89485863926556" lon="2.8062903827537133"><ele>103.5</ele><time>2026-04-08T14:04:53.002Z</time></trkpt><trkpt lat="41.894884914494895" lon="2.806438895271552"><ele>103.25</ele><time>2026-04-08T14:04:54.002Z</time></trkpt><trkpt lat="41.89491675264134" lon="2.8065873681086813"><ele>103.0</ele><time>2026-04-08T14:04:55.002Z</time></trkpt><trkpt lat="41.89495230215791" lon="2.8067446125489925"><ele>102.75</ele><time>2026-04-08T14:04:56.002Z</time></trkpt><trkpt lat="41.894983902996984" lon="2.8068963747074798"><ele>102.5</ele><time>2026-04-08T14:04:57.002Z</time></trkpt><trkpt lat="41.89501741822144" lon="2.8070437731551237"><ele>102.25</ele><time>2026-04-08T14:04:58.002Z</time></trkpt><trkpt lat="41.89505058557167" lon="2.8071955811786684"><ele>102.0</ele><time>2026-04-08T14:04:59.002Z</time></trkpt><trkpt lat="41.895080637304375" lon="2.807354934611092"><ele>102.75</ele><time>2026-04-08T14:05:00.002Z</time></trkpt><trkpt lat="41.895111786247114" lon="2.8075202872286535"><ele>103.5</ele><time>2026-04-08T14:05:01.002Z</time></trkpt><trkpt lat="41.895147173422885" lon="2.8076929237278363"><ele>104.25</ele><time>2026-04-08T14:05:02.002Z</time></trkpt><trkpt lat="41.895185290959304" lon="2.8078746545268407"><ele>105.0</ele><time>2026-04-08T14:05:03.002Z</time></trkpt><trkpt lat="41.89522126480086" lon="2.808063519309075"><ele>105.0</ele><time>2026-04-08T14:05:04.002Z</time></trkpt><trkpt lat="41.895259671643196" lon="2.8082545551517963"><ele>105.0</ele><time>2026-04-08T14:05:05.002Z</time></trkpt><trkpt lat="41.89529572838899" lon="2.8084387861187903"><ele>105.0</ele><time>2026-04-08T14:05:06.002Z</time></trkpt><trkpt lat="41.895330507385935" lon="2.808605914127656"><ele>105.0</ele><time>2026-04-08T14:05:07.002Z</time></trkpt><trkpt lat="41.89536773522417" lon="2.8087722079918387"><ele>104.75</ele><time>2026-04-08T14:05:08.002Z</time></trkpt><trkpt lat="41.89540103877552" lon="2.808941028055247"><ele>104.5</ele><time>2026-04-08T14:05:09.002Z</time></trkpt><trkpt lat="41.895436816742595" lon="2.8091036842742403"><ele>104.25</ele><time>2026-04-08T14:05:10.002Z</time></trkpt><trkpt lat="41.895470038090394" lon="2.809268584487668"><ele>104.0</ele><time>2026-04-08T14:05:11.002Z</time></trkpt><trkpt lat="41.89551064498986" lon="2.809437396732579"><ele>103.25</ele><time>2026-04-08T14:05:12.002Z</time></trkpt><trkpt lat="41.8955561814358" lon="2.8096040909752933"><ele>102.5</ele><time>2026-04-08T14:05:13.002Z</time></trkpt><trkpt lat="41.895606097825784" lon="2.8097663393668233"><ele>101.75</ele><time>2026-04-08T14:05:14.002Z</time></trkpt><trkpt lat="41.89566786225892" lon="2.8099159961256612"><ele>101.0</ele><time>2026-04-08T14:05:15.002Z</time></trkpt><trkpt lat="41.89574166590663" lon="2.810053387451404"><ele>101.0</ele><time>2026-04-08T14:05:16.002Z</time></trkpt><trkpt lat="41.89582686074364" lon="2.8101699906943134"><ele>101.0</ele><time>2026-04-08T14:05:17.002Z</time></trkpt><trkpt lat="41.895924352779154" lon="2.810278754801403"><ele>101.0</ele><time>2026-04-08T14:05:18.002Z</time></trkpt><trkpt lat="41.89602632043213" lon="2.8103674043742957"><ele>101.0</ele><time>2026-04-08T14:05:19.002Z</time></trkpt><trkpt lat="41.89613362728441" lon="2.8104463355436473"><ele>101.0</ele><time>2026-04-08T14:05:20.002Z</time></trkpt><trkpt lat="41.8962417743856" lon="2.8105055676360227"><ele>101.0</ele><time>2026-04-08T14:05:21.003Z</time></trkpt><trkpt lat="41.89634650855328" lon="2.8105566691203356"><ele>101.0</ele><time>2026-04-08T14:05:22.003Z</time></trkpt><trkpt lat="41.896446358587966" lon="2.810606934151728"><ele>101.0</ele><time>2026-04-08T14:05:23.003Z</time></trkpt><trkpt lat="41.896547624387765" lon="2.8106575834756433"><ele>101.0</ele><time>2026-04-08T14:05:24.003Z</time></trkpt><trkpt lat="41.896649683086444" lon="2.8107151271034563"><ele>101.0</ele><time>2026-04-08T14:05:25.003Z</time></trkpt><trkpt lat="41.896749391492484" lon="2.81076833187285"><ele>101.0</ele><time>2026-04-08T14:05:26.003Z</time></trkpt><trkpt lat="41.89683649381228" lon="2.810811014336042"><ele>101.0</ele><time>2026-04-08T14:05:26.999Z</time></trkpt><trkpt lat="41.89690922014241" lon="2.8108477310583577"><ele>101.0</ele><time>2026-04-08T14:05:27.999Z</time></trkpt><trkpt lat="41.89697104550979" lon="2.810878554848507"><ele>101.0</ele><time>2026-04-08T14:05:28.999Z</time></trkpt><trkpt lat="41.89707499903702" lon="2.8109388109713414"><ele>101.5</ele><time>2026-04-08T14:05:30.999Z</time></trkpt><trkpt lat="41.897169686128244" lon="2.811042521925041"><ele>102.0</ele><time>2026-04-08T14:05:32.999Z</time></trkpt><trkpt lat="41.897256937466224" lon="2.8111501401448082"><ele>102.5</ele><time>2026-04-08T14:05:34.999Z</time></trkpt><trkpt lat="41.897365284318745" lon="2.81121713660888"><ele>103.0</ele><time>2026-04-08T14:05:36.999Z</time></trkpt><trkpt lat="41.89748953446384" lon="2.811205710694664"><ele>103.00000000000001</ele><time>2026-04-08T14:05:38.999Z</time></trkpt><trkpt lat="41.89751210137226" lon="2.811126581527262"><ele>103.0</ele><time>2026-04-08T14:05:39.999Z</time></trkpt><trkpt lat="41.89762625339955" lon="2.8112017417475097"><ele>103.0</ele><time>2026-04-08T14:05:40.999Z</time></trkpt><trkpt lat="41.8977012755749" lon="2.8112393911699796"><ele>103.0</ele><time>2026-04-08T14:05:41.999Z</time></trkpt><trkpt lat="41.89778103483747" lon="2.8112791964258603"><ele>103.00000000000001</ele><time>2026-04-08T14:05:42.999Z</time></trkpt><trkpt lat="41.89786063748467" lon="2.8113219666364917"><ele>103.0</ele><time>2026-04-08T14:05:44Z</time></trkpt><trkpt lat="41.897936408878365" lon="2.8113642297975168"><ele>103.50000000000001</ele><time>2026-04-08T14:05:45Z</time></trkpt><trkpt lat="41.89801047661318" lon="2.8114040573467722"><ele>104.0</ele><time>2026-04-08T14:05:46Z</time></trkpt><trkpt lat="41.89807844953789" lon="2.811451502687335"><ele>104.5</ele><time>2026-04-08T14:05:47Z</time></trkpt><trkpt lat="41.89814278426345" lon="2.8115034381911275"><ele>105.0</ele><time>2026-04-08T14:05:48Z</time></trkpt><trkpt lat="41.89820939635022" lon="2.8115611020411353"><ele>105.50000000000001</ele><time>2026-04-08T14:05:49Z</time></trkpt><trkpt lat="41.898272843022475" lon="2.811621674391066"><ele>106.0</ele><time>2026-04-08T14:05:50Z</time></trkpt><trkpt lat="41.89832836956814" lon="2.81168802009418"><ele>106.0</ele><time>2026-04-08T14:05:51Z</time></trkpt><trkpt lat="41.898375792813766" lon="2.8117532527968203"><ele>106.0</ele><time>2026-04-08T14:05:52Z</time></trkpt><trkpt lat="41.89842168292144" lon="2.81182111696183"><ele>106.0</ele><time>2026-04-08T14:05:53Z</time></trkpt><trkpt lat="41.89846713973149" lon="2.8118947189513506"><ele>106.0</ele><time>2026-04-08T14:05:54Z</time></trkpt><trkpt lat="41.89850973669361" lon="2.811971536227009"><ele>106.0</ele><time>2026-04-08T14:05:55Z</time></trkpt><trkpt lat="41.89855016375625" lon="2.8120648065960996"><ele>106.0</ele><time>2026-04-08T14:05:56Z</time></trkpt><trkpt lat="41.898589499673854" lon="2.812165269592106"><ele>106.0</ele><time>2026-04-08T14:05:57Z</time></trkpt><trkpt lat="41.89862126808727" lon="2.8122576668504586"><ele>105.83333333333334</ele><time>2026-04-08T14:05:58Z</time></trkpt><trkpt lat="41.89864462029332" lon="2.812351893032295"><ele>105.66666666666667</ele><time>2026-04-08T14:05:59Z</time></trkpt><trkpt lat="41.89866100915509" lon="2.812447081180939"><ele>105.5</ele><time>2026-04-08T14:06:00Z</time></trkpt><trkpt lat="41.89867434451221" lon="2.8125475285520483"><ele>105.33333333333334</ele><time>2026-04-08T14:06:01Z</time></trkpt><trkpt lat="41.89867999857203" lon="2.812658466986346"><ele>105.16666666666667</ele><time>2026-04-08T14:06:02Z</time></trkpt><trkpt lat="41.89867981378825" lon="2.8127783204418217"><ele>105.0</ele><time>2026-04-08T14:06:03Z</time></trkpt><trkpt lat="41.89867807729489" lon="2.8129082328094657"><ele>104.4</ele><time>2026-04-08T14:06:04Z</time></trkpt><trkpt lat="41.898669678618795" lon="2.813036535845718"><ele>103.8</ele><time>2026-04-08T14:06:05Z</time></trkpt><trkpt lat="41.898657798596226" lon="2.8131679862496326"><ele>103.19999999999999</ele><time>2026-04-08T14:06:06Z</time></trkpt><trkpt lat="41.89864413682753" lon="2.8132936801500916"><ele>102.6</ele><time>2026-04-08T14:06:07Z</time></trkpt><trkpt lat="41.89863147180036" lon="2.8134228235769903"><ele>102.0</ele><time>2026-04-08T14:06:08Z</time></trkpt><trkpt lat="41.898620899919415" lon="2.8135594145210576"><ele>101.19999999999999</ele><time>2026-04-08T14:06:09Z</time></trkpt><trkpt lat="41.898607088140956" lon="2.8136969292661886"><ele>100.4</ele><time>2026-04-08T14:06:10Z</time></trkpt><trkpt lat="41.89859043309617" lon="2.8138318445867974"><ele>99.6</ele><time>2026-04-08T14:06:11Z</time></trkpt><trkpt lat="41.8985765321056" lon="2.813960393293055"><ele>98.80000000000001</ele><time>2026-04-08T14:06:12.001Z</time></trkpt><trkpt lat="41.898563919318036" lon="2.814085582368334"><ele>98.0</ele><time>2026-04-08T14:06:13.001Z</time></trkpt><trkpt lat="41.898550583663805" lon="2.814203316835539"><ele>97.99999999999999</ele><time>2026-04-08T14:06:14.001Z</time></trkpt><trkpt lat="41.898539702498155" lon="2.8143036735270597"><ele>98.0</ele><time>2026-04-08T14:06:15.001Z</time></trkpt><trkpt lat="41.8985313907053" lon="2.8143882530528312"><ele>98.0</ele><time>2026-04-08T14:06:16.001Z</time></trkpt><trkpt lat="41.89850133612307" lon="2.814543420105553"><ele>98.0</ele><time>2026-04-08T14:06:18.001Z</time></trkpt><trkpt lat="41.89846218586218" lon="2.814635528658223"><ele>97.99999999999999</ele><time>2026-04-08T14:06:20.001Z</time></trkpt><trkpt lat="41.898421333795284" lon="2.8147256299539403"><ele>98.0</ele><time>2026-04-08T14:06:22.001Z</time></trkpt><trkpt lat="41.89836496988651" lon="2.814857016573232"><ele>98.0</ele><time>2026-04-08T14:06:24.001Z</time></trkpt><trkpt lat="41.89838109630607" lon="2.815001403944581"><ele>98.0</ele><time>2026-04-08T14:06:26.001Z</time></trkpt><trkpt lat="41.89844935383603" lon="2.815130591574402"><ele>98.0</ele><time>2026-04-08T14:06:28.001Z</time></trkpt><trkpt lat="41.89842270653674" lon="2.815254935304177"><ele>98.0</ele><time>2026-04-08T14:06:29.001Z</time></trkpt><trkpt lat="41.898412138287746" lon="2.8153691288095115"><ele>98.0</ele><time>2026-04-08T14:06:30.001Z</time></trkpt><trkpt lat="41.898401827611515" lon="2.8154872399025783"><ele>97.60000000000001</ele><time>2026-04-08T14:06:31.001Z</time></trkpt><trkpt lat="41.89838880977729" lon="2.815608109529416"><ele>97.2</ele><time>2026-04-08T14:06:32.001Z</time></trkpt><trkpt lat="41.89837650040347" lon="2.8157299993530747"><ele>96.8</ele><time>2026-04-08T14:06:33.001Z</time></trkpt><trkpt lat="41.898363204875736" lon="2.8158498730968393"><ele>96.4</ele><time>2026-04-08T14:06:34.001Z</time></trkpt><trkpt lat="41.898351023194756" lon="2.8159736755333085"><ele>96.0</ele><time>2026-04-08T14:06:35.001Z</time></trkpt><trkpt lat="41.89833699537756" lon="2.8160989409454396"><ele>96.0</ele><time>2026-04-08T14:06:36.001Z</time></trkpt><trkpt lat="41.89832082961136" lon="2.8162202497495836"><ele>96.0</ele><time>2026-04-08T14:06:37.001Z</time></trkpt><trkpt lat="41.898304259514745" lon="2.8163408469831714"><ele>96.0</ele><time>2026-04-08T14:06:38.001Z</time></trkpt><trkpt lat="41.898290505443576" lon="2.8164668034901643"><ele>96.0</ele><time>2026-04-08T14:06:39.001Z</time></trkpt><trkpt lat="41.89827644020595" lon="2.8165943942585496"><ele>96.0</ele><time>2026-04-08T14:06:40.001Z</time></trkpt><trkpt lat="41.89826162097487" lon="2.816725252722628"><ele>96.4</ele><time>2026-04-08T14:06:41.001Z</time></trkpt><trkpt lat="41.89824559834463" lon="2.8168631990208985"><ele>96.8</ele><time>2026-04-08T14:06:42.001Z</time></trkpt><trkpt lat="41.89822867729079" lon="2.81700392282788"><ele>97.2</ele><time>2026-04-08T14:06:43.001Z</time></trkpt><trkpt lat="41.89821201595115" lon="2.8171362627981886"><ele>97.60000000000001</ele><time>2026-04-08T14:06:44.001Z</time></trkpt><trkpt lat="41.89819721495589" lon="2.8172713614227614"><ele>98.0</ele><time>2026-04-08T14:06:45.001Z</time></trkpt><trkpt lat="41.89818377859228" lon="2.817423363873748"><ele>98.0</ele><time>2026-04-08T14:06:46.001Z</time></trkpt><trkpt lat="41.898166057671084" lon="2.817584111675259"><ele>98.0</ele><time>2026-04-08T14:06:47.001Z</time></trkpt><trkpt lat="41.89814503208833" lon="2.817758316963188"><ele>98.0</ele><time>2026-04-08T14:06:48.002Z</time></trkpt><trkpt lat="41.898120490251564" lon="2.817932505183284"><ele>98.0</ele><time>2026-04-08T14:06:49.002Z</time></trkpt><trkpt lat="41.89809978776261" lon="2.8181132150255146"><ele>98.33333333333333</ele><time>2026-04-08T14:06:50.002Z</time></trkpt><trkpt lat="41.89807588947359" lon="2.8183030066714507"><ele>98.66666666666666</ele><time>2026-04-08T14:06:51.002Z</time></trkpt><trkpt lat="41.89805304509911" lon="2.8185093735820725"><ele>99.0</ele><time>2026-04-08T14:06:52.002Z</time></trkpt><trkpt lat="41.89802689730948" lon="2.818730776589884"><ele>98.33333333333334</ele><time>2026-04-08T14:06:53.002Z</time></trkpt><trkpt lat="41.898003737572466" lon="2.818952569709611"><ele>97.66666666666667</ele><time>2026-04-08T14:06:54.002Z</time></trkpt><trkpt lat="41.89797604497355" lon="2.8191738073495825"><ele>97.0</ele><time>2026-04-08T14:06:55.002Z</time></trkpt><trkpt lat="41.89794729919533" lon="2.8193941304290173"><ele>96.33333333333334</ele><time>2026-04-08T14:06:56.002Z</time></trkpt><trkpt lat="41.897924765943046" lon="2.8196102547487873"><ele>95.66666666666667</ele><time>2026-04-08T14:06:57.002Z</time></trkpt><trkpt lat="41.89790405271767" lon="2.819822793814481"><ele>95.0</ele><time>2026-04-08T14:06:58.002Z</time></trkpt><trkpt lat="41.89787902116251" lon="2.8200371981165167"><ele>95.0</ele><time>2026-04-08T14:06:59.002Z</time></trkpt><trkpt lat="41.89785101103439" lon="2.820244090474877"><ele>95.0</ele><time>2026-04-08T14:07:00.002Z</time></trkpt><trkpt lat="41.89782751877869" lon="2.82044201613698"><ele>95.0</ele><time>2026-04-08T14:07:01.002Z</time></trkpt><trkpt lat="41.89780193498049" lon="2.8206323989470694"><ele>95.0</ele><time>2026-04-08T14:07:02.002Z</time></trkpt><trkpt lat="41.89777863195578" lon="2.8208291499514178"><ele>95.0</ele><time>2026-04-08T14:07:03.002Z</time></trkpt><trkpt lat="41.8977591251217" lon="2.8210292047679046"><ele>95.0</ele><time>2026-04-08T14:07:04.002Z</time></trkpt><trkpt lat="41.89774068601654" lon="2.821230415854536"><ele>95.0</ele><time>2026-04-08T14:07:05.002Z</time></trkpt><trkpt lat="41.89771758561699" lon="2.8214363689329"><ele>95.0</ele><time>2026-04-08T14:07:06.002Z</time></trkpt><trkpt lat="41.89768879186887" lon="2.821640164358774"><ele>95.0</ele><time>2026-04-08T14:07:07.002Z</time></trkpt><trkpt lat="41.897662678435765" lon="2.821836178268873"><ele>95.0</ele><time>2026-04-08T14:07:08.002Z</time></trkpt><trkpt lat="41.89763769817718" lon="2.822027317329388"><ele>95.0</ele><time>2026-04-08T14:07:09.002Z</time></trkpt><trkpt lat="41.89761711159464" lon="2.822213011891683"><ele>95.0</ele><time>2026-04-08T14:07:10.002Z</time></trkpt><trkpt lat="41.897599333169836" lon="2.822382526359218"><ele>95.0</ele><time>2026-04-08T14:07:11.002Z</time></trkpt><trkpt lat="41.897582783375874" lon="2.822544157258328"><ele>95.0</ele><time>2026-04-08T14:07:12.002Z</time></trkpt><trkpt lat="41.8975678140431" lon="2.822692671371747"><ele>95.0</ele><time>2026-04-08T14:07:13.002Z</time></trkpt><trkpt lat="41.89755570910508" lon="2.8228312114239302"><ele>95.0</ele><time>2026-04-08T14:07:14.002Z</time></trkpt><trkpt lat="41.89754514331543" lon="2.8229622285102627"><ele>95.0</ele><time>2026-04-08T14:07:15.002Z</time></trkpt><trkpt lat="41.89752811981461" lon="2.823082185133703"><ele>95.0</ele><time>2026-04-08T14:07:16.002Z</time></trkpt><trkpt lat="41.89751244777318" lon="2.823193581550643"><ele>95.0</ele><time>2026-04-08T14:07:17.002Z</time></trkpt><trkpt lat="41.897494162251796" lon="2.82328901370788"><ele>95.0</ele><time>2026-04-08T14:07:18.002Z</time></trkpt><trkpt lat="41.897466058886906" lon="2.823365732286281"><ele>95.0</ele><time>2026-04-08T14:07:19.002Z</time></trkpt><trkpt lat="41.897421826113046" lon="2.8234405210910647"><ele>95.33333333333334</ele><time>2026-04-08T14:07:20.002Z</time></trkpt><trkpt lat="41.89737550297047" lon="2.823512005720242"><ele>95.66666666666667</ele><time>2026-04-08T14:07:21.002Z</time></trkpt><trkpt lat="41.89730898967841" lon="2.823653616529917"><ele>96.0</ele><time>2026-04-08T14:07:23.002Z</time></trkpt><trkpt lat="41.897326850574736" lon="2.823743480828733"><ele>96.33333333333334</ele><time>2026-04-08T14:07:24.002Z</time></trkpt><trkpt lat="41.89735891540129" lon="2.823826929613061"><ele>96.66666666666667</ele><time>2026-04-08T14:07:25.002Z</time></trkpt><trkpt lat="41.89740412436581" lon="2.8238941224920815"><ele>97.0</ele><time>2026-04-08T14:07:26.003Z</time></trkpt><trkpt lat="41.8974709013717" lon="2.823931778154019"><ele>97.00000000000001</ele><time>2026-04-08T14:07:27.003Z</time></trkpt><trkpt lat="41.89754503446691" lon="2.8239219553511106"><ele>97.0</ele><time>2026-04-08T14:07:28.003Z</time></trkpt><trkpt lat="41.897612069514224" lon="2.8238688092035353"><ele>97.0</ele><time>2026-04-08T14:07:29.003Z</time></trkpt><trkpt lat="41.897666640942155" lon="2.823805980340708"><ele>97.0</ele><time>2026-04-08T14:07:30.003Z</time></trkpt><trkpt lat="41.89773909857965" lon="2.8237745168168926"><ele>97.00000000000001</ele><time>2026-04-08T14:07:31.003Z</time></trkpt><trkpt lat="41.897823827779845" lon="2.8237527708292554"><ele>97.0</ele><time>2026-04-08T14:07:32.003Z</time></trkpt><trkpt lat="41.897924563364626" lon="2.8237617936056423"><ele>97.0</ele><time>2026-04-08T14:07:32.998Z</time></trkpt><trkpt lat="41.8980392688586" lon="2.823781312685734"><ele>97.0</ele><time>2026-04-08T14:07:33.998Z</time></trkpt><trkpt lat="41.89816329598343" lon="2.8238049698355048"><ele>97.0</ele><time>2026-04-08T14:07:34.998Z</time></trkpt><trkpt lat="41.89828148429569" lon="2.8238242281015964"><ele>97.0</ele><time>2026-04-08T14:07:35.998Z</time></trkpt><trkpt lat="41.89840997909574" lon="2.823836371693023"><ele>97.0</ele><time>2026-04-08T14:07:36.998Z</time></trkpt><trkpt lat="41.898546363169956" lon="2.823851353854898"><ele>97.0</ele><time>2026-04-08T14:07:37.998Z</time></trkpt><trkpt lat="41.898687738883034" lon="2.8238784839390805"><ele>97.0</ele><time>2026-04-08T14:07:38.998Z</time></trkpt><trkpt lat="41.89882151802713" lon="2.823894750682266"><ele>97.0</ele><time>2026-04-08T14:07:39.998Z</time></trkpt><trkpt lat="41.89896046001072" lon="2.823914441442647"><ele>97.0</ele><time>2026-04-08T14:07:40.998Z</time></trkpt><trkpt lat="41.89909989211001" lon="2.823928484022725"><ele>97.0</ele><time>2026-04-08T14:07:41.998Z</time></trkpt><trkpt lat="41.89923673563774" lon="2.8239426289417606"><ele>97.0</ele><time>2026-04-08T14:07:42.998Z</time></trkpt><trkpt lat="41.89937079410124" lon="2.823954200310525"><ele>97.0</ele><time>2026-04-08T14:07:43.999Z</time></trkpt><trkpt lat="41.89949749414103" lon="2.823968547024518"><ele>97.25</ele><time>2026-04-08T14:07:44.999Z</time></trkpt><trkpt lat="41.89962158966781" lon="2.823979684057766"><ele>97.5</ele><time>2026-04-08T14:07:45.999Z</time></trkpt><trkpt lat="41.89974661618951" lon="2.8239825671845558"><ele>97.75</ele><time>2026-04-08T14:07:46.999Z</time></trkpt><trkpt lat="41.89986621208144" lon="2.8239793475096735"><ele>98.0</ele><time>2026-04-08T14:07:47.999Z</time></trkpt><trkpt lat="41.89998646301742" lon="2.8239727029593658"><ele>98.25</ele><time>2026-04-08T14:07:48.999Z</time></trkpt><trkpt lat="41.90010887313188" lon="2.8239628994375012"><ele>98.5</ele><time>2026-04-08T14:07:49.999Z</time></trkpt><trkpt lat="41.90023434049009" lon="2.8239530485980424"><ele>98.75</ele><time>2026-04-08T14:07:50.999Z</time></trkpt><trkpt lat="41.90036204261104" lon="2.8239481378499924"><ele>99.0</ele><time>2026-04-08T14:07:51.999Z</time></trkpt><trkpt lat="41.900494855300906" lon="2.823939643431489"><ele>99.0</ele><time>2026-04-08T14:07:52.999Z</time></trkpt><trkpt lat="41.90063064843851" lon="2.823934509637665"><ele>99.0</ele><time>2026-04-08T14:07:53.999Z</time></trkpt><trkpt lat="41.900766296997084" lon="2.823930001002712"><ele>99.0</ele><time>2026-04-08T14:07:54.999Z</time></trkpt><trkpt lat="41.900903348998554" lon="2.8239256330079114"><ele>99.0</ele><time>2026-04-08T14:07:55.999Z</time></trkpt><trkpt lat="41.901035768198525" lon="2.8239227406742673"><ele>98.25</ele><time>2026-04-08T14:07:56.999Z</time></trkpt><trkpt lat="41.90117003323248" lon="2.823920045664241"><ele>97.5</ele><time>2026-04-08T14:07:57.999Z</time></trkpt><trkpt lat="41.901303925591606" lon="2.823916789455478"><ele>96.75</ele><time>2026-04-08T14:07:58.999Z</time></trkpt><trkpt lat="41.901433426158015" lon="2.823904856149844"><ele>96.0</ele><time>2026-04-08T14:07:59.999Z</time></trkpt><trkpt lat="41.9015486516034" lon="2.8238933296335285"><ele>96.0</ele><time>2026-04-08T14:08:00.999Z</time></trkpt><trkpt lat="41.90164981636982" lon="2.8238893089079675"><ele>96.0</ele><time>2026-04-08T14:08:01.999Z</time></trkpt><trkpt lat="41.90174335473773" lon="2.823890819188184"><ele>96.0</ele><time>2026-04-08T14:08:03Z</time></trkpt><trkpt lat="41.901824654974185" lon="2.823901145837564"><ele>96.0</ele><time>2026-04-08T14:08:04Z</time></trkpt><trkpt lat="41.90190795124643" lon="2.823914970695521"><ele>96.0</ele><time>2026-04-08T14:08:05Z</time></trkpt><trkpt lat="41.90199978491634" lon="2.8238932606759723"><ele>96.19999999999999</ele><time>2026-04-08T14:08:06Z</time></trkpt><trkpt lat="41.90209175674072" lon="2.8238701766868233"><ele>96.39999999999999</ele><time>2026-04-08T14:08:07Z</time></trkpt><trkpt lat="41.90217628625838" lon="2.8238589833624284"><ele>96.6</ele><time>2026-04-08T14:08:08Z</time></trkpt><trkpt lat="41.902268000805684" lon="2.823847491841585"><ele>96.8</ele><time>2026-04-08T14:08:09Z</time></trkpt><trkpt lat="41.90236432215949" lon="2.8238366396099566"><ele>97.0</ele><time>2026-04-08T14:08:10Z</time></trkpt><trkpt lat="41.9024727550348" lon="2.823832688803106"><ele>98.0</ele><time>2026-04-08T14:08:11Z</time></trkpt><trkpt lat="41.90258841275436" lon="2.8238269742268636"><ele>99.0</ele><time>2026-04-08T14:08:12Z</time></trkpt><trkpt lat="41.90270842062773" lon="2.8238093339051304"><ele>100.0</ele><time>2026-04-08T14:08:13Z</time></trkpt><trkpt lat="41.90282974992275" lon="2.823783710205152"><ele>101.0</ele><time>2026-04-08T14:08:14Z</time></trkpt><trkpt lat="41.902927917379785" lon="2.8237582298233073"><ele>100.99999999999999</ele><time>2026-04-08T14:08:15Z</time></trkpt><trkpt lat="41.90301626791555" lon="2.8237300384124686"><ele>101.0</ele><time>2026-04-08T14:08:16Z</time></trkpt><trkpt lat="41.90309204973811" lon="2.8237046828548875"><ele>101.0</ele><time>2026-04-08T14:08:17Z</time></trkpt><trkpt lat="41.90316252471994" lon="2.8236828940662417"><ele>101.0</ele><time>2026-04-08T14:08:18Z</time></trkpt><trkpt lat="41.903260308965365" lon="2.8236495177061194"><ele>100.99999999999999</ele><time>2026-04-08T14:08:20Z</time></trkpt><trkpt lat="41.903320453645215" lon="2.8236224923180457"><ele>101.0</ele><time>2026-04-08T14:08:21Z</time></trkpt><trkpt lat="41.90337929954643" lon="2.823583984715576"><ele>100.99999999999999</ele><time>2026-04-08T14:08:22Z</time></trkpt><trkpt lat="41.90343513850371" lon="2.8235441955112606"><ele>101.0</ele><time>2026-04-08T14:08:23Z</time></trkpt><trkpt lat="41.903504152252125" lon="2.8234905233834238"><ele>101.0</ele><time>2026-04-08T14:08:24Z</time></trkpt><trkpt lat="41.90357285720089" lon="2.8234261083282504"><ele>101.0</ele><time>2026-04-08T14:08:25Z</time></trkpt><trkpt lat="41.90363443499069" lon="2.8233672957707783"><ele>100.99999999999999</ele><time>2026-04-08T14:08:26Z</time></trkpt><trkpt lat="41.90369796832277" lon="2.823311039544345"><ele>101.0</ele><time>2026-04-08T14:08:27Z</time></trkpt><trkpt lat="41.9037633899875" lon="2.823245694741663"><ele>100.99999999999999</ele><time>2026-04-08T14:08:28Z</time></trkpt><trkpt lat="41.9038329859642" lon="2.8231750677592657"><ele>101.0</ele><time>2026-04-08T14:08:29Z</time></trkpt><trkpt lat="41.90390558481508" lon="2.823102260610714"><ele>101.0</ele><time>2026-04-08T14:08:30.001Z</time></trkpt><trkpt lat="41.90397698491232" lon="2.8230343049568827"><ele>101.0</ele><time>2026-04-08T14:08:31.001Z</time></trkpt><trkpt lat="41.9040451335003" lon="2.8229666365162758"><ele>100.99999999999999</ele><time>2026-04-08T14:08:32.001Z</time></trkpt><trkpt lat="41.904106556203686" lon="2.8229064013479395"><ele>101.0</ele><time>2026-04-08T14:08:33.001Z</time></trkpt><trkpt lat="41.90416188075273" lon="2.822859976908512"><ele>100.99999999999999</ele><time>2026-04-08T14:08:34.001Z</time></trkpt><trkpt lat="41.90425682727351" lon="2.822786350768484"><ele>101.0</ele><time>2026-04-08T14:08:36.001Z</time></trkpt><trkpt lat="41.90431706922622" lon="2.8227497088708073"><ele>101.0</ele><time>2026-04-08T14:08:37.001Z</time></trkpt><trkpt lat="41.904379337912474" lon="2.822705233039266"><ele>101.0</ele><time>2026-04-08T14:08:38.001Z</time></trkpt><trkpt lat="41.90444443938444" lon="2.8226620789691035"><ele>100.99999999999999</ele><time>2026-04-08T14:08:39.001Z</time></trkpt><trkpt lat="41.90451843575772" lon="2.8226237417013"><ele>101.0</ele><time>2026-04-08T14:08:40.001Z</time></trkpt><trkpt lat="41.904598187283874" lon="2.8225794063761325"><ele>100.4</ele><time>2026-04-08T14:08:41.001Z</time></trkpt><trkpt lat="41.904686094149085" lon="2.82252711679502"><ele>99.8</ele><time>2026-04-08T14:08:42.001Z</time></trkpt><trkpt lat="41.90478246789678" lon="2.82247125026354"><ele>99.2</ele><time>2026-04-08T14:08:43.001Z</time></trkpt><trkpt lat="41.90488503353481" lon="2.822412497014757"><ele>98.60000000000001</ele><time>2026-04-08T14:08:44.001Z</time></trkpt><trkpt lat="41.904993106216075" lon="2.822357285594115"><ele>98.0</ele><time>2026-04-08T14:08:45.001Z</time></trkpt><trkpt lat="41.9051158511615" lon="2.8222976604628425"><ele>98.0</ele><time>2026-04-08T14:08:46.001Z</time></trkpt><trkpt lat="41.90524919843828" lon="2.8222274170192088"><ele>98.0</ele><time>2026-04-08T14:08:47.001Z</time></trkpt><trkpt lat="41.90538212220382" lon="2.8221526226899796"><ele>98.0</ele><time>2026-04-08T14:08:48.001Z</time></trkpt><trkpt lat="41.90551345955509" lon="2.82207941131872"><ele>98.0</ele><time>2026-04-08T14:08:49.001Z</time></trkpt><trkpt lat="41.90564823117102" lon="2.82200432623817"><ele>98.0</ele><time>2026-04-08T14:08:50.001Z</time></trkpt><trkpt lat="41.90577918143136" lon="2.8219322659959927"><ele>98.0</ele><time>2026-04-08T14:08:51.001Z</time></trkpt><trkpt lat="41.90590945072778" lon="2.82185455506327"><ele>98.0</ele><time>2026-04-08T14:08:52.001Z</time></trkpt><trkpt lat="41.9060389921074" lon="2.8217775646143295"><ele>98.0</ele><time>2026-04-08T14:08:53.001Z</time></trkpt><trkpt lat="41.906170987629885" lon="2.8216964081278544"><ele>98.33333333333333</ele><time>2026-04-08T14:08:54.001Z</time></trkpt><trkpt lat="41.906302822626756" lon="2.8216085775426873"><ele>98.66666666666666</ele><time>2026-04-08T14:08:55.001Z</time></trkpt><trkpt lat="41.906440897571514" lon="2.821507527887004"><ele>99.0</ele><time>2026-04-08T14:08:56.001Z</time></trkpt><trkpt lat="41.906589198004895" lon="2.82139567699906"><ele>99.0</ele><time>2026-04-08T14:08:57.001Z</time></trkpt><trkpt lat="41.90673508193845" lon="2.8212683005573234"><ele>99.0</ele><time>2026-04-08T14:08:58.001Z</time></trkpt><trkpt lat="41.90687091446465" lon="2.821137305124528"><ele>99.0</ele><time>2026-04-08T14:08:59.001Z</time></trkpt><trkpt lat="41.90701017056399" lon="2.821001861853267"><ele>99.0</ele><time>2026-04-08T14:09:00.001Z</time></trkpt><trkpt lat="41.907157363185476" lon="2.820852613338255"><ele>99.0</ele><time>2026-04-08T14:09:01.001Z</time></trkpt><trkpt lat="41.90729693737217" lon="2.8206902299418593"><ele>99.0</ele><time>2026-04-08T14:09:02.002Z</time></trkpt><trkpt lat="41.90742844790123" lon="2.8205216447139643"><ele>99.0</ele><time>2026-04-08T14:09:03.002Z</time></trkpt><trkpt lat="41.90755826193595" lon="2.820346387952293"><ele>99.0</ele><time>2026-04-08T14:09:04.002Z</time></trkpt><trkpt lat="41.90768942957225" lon="2.820159634827015"><ele>99.0</ele><time>2026-04-08T14:09:05.002Z</time></trkpt><trkpt lat="41.90782396153987" lon="2.8199671891774876"><ele>98.66666666666666</ele><time>2026-04-08T14:09:06.002Z</time></trkpt><trkpt lat="41.90795953683262" lon="2.819768114752224"><ele>98.33333333333333</ele><time>2026-04-08T14:09:07.002Z</time></trkpt><trkpt lat="41.90809458991403" lon="2.819566626465491"><ele>98.0</ele><time>2026-04-08T14:09:08.002Z</time></trkpt><trkpt lat="41.90823314906414" lon="2.819362540455605"><ele>98.0</ele><time>2026-04-08T14:09:09.002Z</time></trkpt><trkpt lat="41.908374967474295" lon="2.8191545609188418"><ele>98.0</ele><time>2026-04-08T14:09:10.002Z</time></trkpt><trkpt lat="41.9085122554005" lon="2.8189502178415418"><ele>98.0</ele><time>2026-04-08T14:09:11.002Z</time></trkpt><trkpt lat="41.90863900271196" lon="2.8187602243711027"><ele>97.66666666666666</ele><time>2026-04-08T14:09:12.002Z</time></trkpt><trkpt lat="41.908765639978725" lon="2.8185794723308777"><ele>97.33333333333334</ele><time>2026-04-08T14:09:13.002Z</time></trkpt><trkpt lat="41.90888318966261" lon="2.8184094636540284"><ele>97.0</ele><time>2026-04-08T14:09:14.002Z</time></trkpt><trkpt lat="41.9090065048786" lon="2.818240426429662"><ele>97.0</ele><time>2026-04-08T14:09:15.002Z</time></trkpt><trkpt lat="41.90914945383539" lon="2.818067684715008"><ele>97.0</ele><time>2026-04-08T14:09:16.002Z</time></trkpt><trkpt lat="41.90929528378817" lon="2.8179061023496845"><ele>97.0</ele><time>2026-04-08T14:09:17.002Z</time></trkpt><trkpt lat="41.909463683982366" lon="2.817756907729045"><ele>98.0</ele><time>2026-04-08T14:09:18.002Z</time></trkpt><trkpt lat="41.90964856349115" lon="2.817611082726407"><ele>99.0</ele><time>2026-04-08T14:09:19.002Z</time></trkpt><trkpt lat="41.90984155352343" lon="2.8174662700308812"><ele>100.0</ele><time>2026-04-08T14:09:20.002Z</time></trkpt><trkpt lat="41.910026728994595" lon="2.8173275755644958"><ele>99.0</ele><time>2026-04-08T14:09:21.002Z</time></trkpt><trkpt lat="41.91019913014973" lon="2.817200237263303"><ele>98.0</ele><time>2026-04-08T14:09:22.002Z</time></trkpt><trkpt lat="41.91036235990655" lon="2.817075285148071"><ele>97.0</ele><time>2026-04-08T14:09:23.002Z</time></trkpt><trkpt lat="41.91052422124922" lon="2.8169563511183955"><ele>97.0</ele><time>2026-04-08T14:09:24.002Z</time></trkpt><trkpt lat="41.91068157917854" lon="2.816845321336107"><ele>97.0</ele><time>2026-04-08T14:09:25.002Z</time></trkpt><trkpt lat="41.91084453286197" lon="2.816747719014265"><ele>97.0</ele><time>2026-04-08T14:09:26.002Z</time></trkpt><trkpt lat="41.911017930103434" lon="2.8166745005844653"><ele>96.66666666666667</ele><time>2026-04-08T14:09:27.002Z</time></trkpt><trkpt lat="41.91118803376898" lon="2.8166262247410616"><ele>96.33333333333334</ele><time>2026-04-08T14:09:28.002Z</time></trkpt><trkpt lat="41.91137398217569" lon="2.8166014697980546"><ele>96.0</ele><time>2026-04-08T14:09:29.002Z</time></trkpt><trkpt lat="41.91156165939939" lon="2.816603026768358"><ele>95.66666666666667</ele><time>2026-04-08T14:09:30.002Z</time></trkpt><trkpt lat="41.911753309236126" lon="2.8166236210302213"><ele>95.33333333333334</ele><time>2026-04-08T14:09:31.002Z</time></trkpt><trkpt lat="41.91194660509675" lon="2.816655259295541"><ele>95.0</ele><time>2026-04-08T14:09:32.002Z</time></trkpt><trkpt lat="41.91214844301648" lon="2.81668420604555"><ele>95.0</ele><time>2026-04-08T14:09:33.002Z</time></trkpt><trkpt lat="41.91235923264048" lon="2.816710805104699"><ele>95.0</ele><time>2026-04-08T14:09:34.002Z</time></trkpt><trkpt lat="41.91256967183638" lon="2.8167383796607894"><ele>95.0</ele><time>2026-04-08T14:09:35.003Z</time></trkpt><trkpt lat="41.9127816129912" lon="2.81676793169551"><ele>95.0</ele><time>2026-04-08T14:09:36.003Z</time></trkpt><trkpt lat="41.912990910104874" lon="2.816798385970352"><ele>95.0</ele><time>2026-04-08T14:09:37.003Z</time></trkpt><trkpt lat="41.913198779032165" lon="2.816827766751436"><ele>95.0</ele><time>2026-04-08T14:09:38.003Z</time></trkpt><trkpt lat="41.913402173616966" lon="2.816856647912904"><ele>95.33333333333334</ele><time>2026-04-08T14:09:38.998Z</time></trkpt><trkpt lat="41.91360247667578" lon="2.8168855200820824"><ele>95.66666666666667</ele><time>2026-04-08T14:09:39.998Z</time></trkpt><trkpt lat="41.91379964379854" lon="2.816915927334794"><ele>96.0</ele><time>2026-04-08T14:09:40.999Z</time></trkpt><trkpt lat="41.913990786976676" lon="2.816945000999363"><ele>96.0</ele><time>2026-04-08T14:09:41.999Z</time></trkpt><trkpt lat="41.91417869759581" lon="2.8169740441815585"><ele>96.0</ele><time>2026-04-08T14:09:42.999Z</time></trkpt><trkpt lat="41.91436076560759" lon="2.8170001631923016"><ele>96.0</ele><time>2026-04-08T14:09:43.999Z</time></trkpt><trkpt lat="41.91453467584683" lon="2.817024191564073"><ele>96.66666666666666</ele><time>2026-04-08T14:09:44.999Z</time></trkpt><trkpt lat="41.91470462688094" lon="2.817043812929268"><ele>97.33333333333333</ele><time>2026-04-08T14:09:45.999Z</time></trkpt><trkpt lat="41.914878151964245" lon="2.817055854606176"><ele>98.0</ele><time>2026-04-08T14:09:46.999Z</time></trkpt><trkpt lat="41.91505612154373" lon="2.817056640894613"><ele>97.0</ele><time>2026-04-08T14:09:47.999Z</time></trkpt><trkpt lat="41.91523793136026" lon="2.8170511881501326"><ele>96.0</ele><time>2026-04-08T14:09:48.999Z</time></trkpt><trkpt lat="41.91542014093859" lon="2.8170388074963695"><ele>95.0</ele><time>2026-04-08T14:09:49.999Z</time></trkpt><trkpt lat="41.91560375531591" lon="2.8170273430729296"><ele>95.0</ele><time>2026-04-08T14:09:50.999Z</time></trkpt><trkpt lat="41.91579315844062" lon="2.8170161576491304"><ele>95.0</ele><time>2026-04-08T14:09:51.999Z</time></trkpt><trkpt lat="41.91598608688508" lon="2.816997544791745"><ele>95.0</ele><time>2026-04-08T14:09:52.999Z</time></trkpt><trkpt lat="41.91618362199864" lon="2.8169597021726833"><ele>94.66666666666667</ele><time>2026-04-08T14:09:53.999Z</time></trkpt><trkpt lat="41.91637999536713" lon="2.816905239755367"><ele>94.33333333333333</ele><time>2026-04-08T14:09:54.999Z</time></trkpt><trkpt lat="41.91658054029031" lon="2.8168377138060356"><ele>94.0</ele><time>2026-04-08T14:09:56Z</time></trkpt><trkpt lat="41.91679443332004" lon="2.8167718151786025"><ele>94.0</ele><time>2026-04-08T14:09:57Z</time></trkpt><trkpt lat="41.917011524027174" lon="2.8167072204453176"><ele>94.0</ele><time>2026-04-08T14:09:58Z</time></trkpt><trkpt lat="41.9172286928607" lon="2.816646227556088"><ele>94.0</ele><time>2026-04-08T14:09:59Z</time></trkpt><trkpt lat="41.91744520880592" lon="2.8165846005649255"><ele>95.33333333333333</ele><time>2026-04-08T14:10:00Z</time></trkpt><trkpt lat="41.91766078443679" lon="2.8165228216674705"><ele>96.66666666666666</ele><time>2026-04-08T14:10:01Z</time></trkpt><trkpt lat="41.91787566379207" lon="2.816463332274712"><ele>98.0</ele><time>2026-04-08T14:10:02Z</time></trkpt><trkpt lat="41.91809295614739" lon="2.8164096176655504"><ele>98.0</ele><time>2026-04-08T14:10:03Z</time></trkpt><trkpt lat="41.91831302305719" lon="2.816369039835417"><ele>98.0</ele><time>2026-04-08T14:10:04Z</time></trkpt><trkpt lat="41.91853251025311" lon="2.816342510720838"><ele>98.0</ele><time>2026-04-08T14:10:05Z</time></trkpt><trkpt lat="41.91875177994308" lon="2.8163342605334436"><ele>99.66666666666666</ele><time>2026-04-08T14:10:06Z</time></trkpt><trkpt lat="41.91895905728061" lon="2.816341240565519"><ele>101.33333333333334</ele><time>2026-04-08T14:10:07Z</time></trkpt><trkpt lat="41.91914871619447" lon="2.8163646557246214"><ele>103.0</ele><time>2026-04-08T14:10:08Z</time></trkpt><trkpt lat="41.91929954730068" lon="2.8163793280729097"><ele>103.25</ele><time>2026-04-08T14:10:09Z</time></trkpt><trkpt lat="41.91943433014538" lon="2.816402865588998"><ele>103.5</ele><time>2026-04-08T14:10:10Z</time></trkpt><trkpt lat="41.91956189656993" lon="2.816432739322038"><ele>103.75</ele><time>2026-04-08T14:10:11Z</time></trkpt><trkpt lat="41.91969393820485" lon="2.8164625219689365"><ele>104.0</ele><time>2026-04-08T14:10:12Z</time></trkpt><trkpt lat="41.91983067326954" lon="2.816493786216355"><ele>104.0</ele><time>2026-04-08T14:10:13Z</time></trkpt><trkpt lat="41.919965680311684" lon="2.8165269328697558"><ele>104.0</ele><time>2026-04-08T14:10:14Z</time></trkpt><trkpt lat="41.920090166408855" lon="2.816559656208953"><ele>104.0</ele><time>2026-04-08T14:10:15.001Z</time></trkpt><trkpt lat="41.92022218078968" lon="2.8165906666609923"><ele>104.0</ele><time>2026-04-08T14:10:16.001Z</time></trkpt><trkpt lat="41.9203501016028" lon="2.816608893232753"><ele>104.0</ele><time>2026-04-08T14:10:17.001Z</time></trkpt><trkpt lat="41.920473582216296" lon="2.8166132474475503"><ele>104.0</ele><time>2026-04-08T14:10:18.001Z</time></trkpt><trkpt lat="41.92059477295403" lon="2.8166152695794566"><ele>104.0</ele><time>2026-04-08T14:10:19.001Z</time></trkpt><trkpt lat="41.92071535666925" lon="2.8166113127316796"><ele>104.0</ele><time>2026-04-08T14:10:20.001Z</time></trkpt><trkpt lat="41.92083517230963" lon="2.816604249928788"><ele>102.25</ele><time>2026-04-08T14:10:21.001Z</time></trkpt><trkpt lat="41.92095377118274" lon="2.8165885229004624"><ele>100.5</ele><time>2026-04-08T14:10:22.001Z</time></trkpt><trkpt lat="41.921068851441184" lon="2.8165640756349957"><ele>98.75</ele><time>2026-04-08T14:10:23.001Z</time></trkpt><trkpt lat="41.9211797570481" lon="2.816535063105427"><ele>97.0</ele><time>2026-04-08T14:10:24.001Z</time></trkpt><trkpt lat="41.92128849894117" lon="2.816502572277816"><ele>97.0</ele><time>2026-04-08T14:10:25.001Z</time></trkpt><trkpt lat="41.9213832174131" lon="2.8164638958353736"><ele>97.0</ele><time>2026-04-08T14:10:26.001Z</time></trkpt><trkpt lat="41.921461688210805" lon="2.8164305391056472"><ele>97.0</ele><time>2026-04-08T14:10:27.001Z</time></trkpt><trkpt lat="41.92156304403565" lon="2.8164175288868325"><ele>97.0</ele><time>2026-04-08T14:10:29.001Z</time></trkpt><trkpt lat="41.92163630320123" lon="2.816553938403721"><ele>97.0</ele><time>2026-04-08T14:10:32.001Z</time></trkpt><trkpt lat="41.921636855672666" lon="2.816649574898324"><ele>97.00000000000001</ele><time>2026-04-08T14:10:33.001Z</time></trkpt><trkpt lat="41.921639491431854" lon="2.816749165581306"><ele>97.0</ele><time>2026-04-08T14:10:34.001Z</time></trkpt><trkpt lat="41.92163753972336" lon="2.8168385418841506"><ele>97.0</ele><time>2026-04-08T14:10:35.001Z</time></trkpt><trkpt lat="41.92163619650744" lon="2.816960844125929"><ele>97.0</ele><time>2026-04-08T14:10:36.001Z</time></trkpt><trkpt lat="41.92163818989543" lon="2.817068747962593"><ele>97.00000000000001</ele><time>2026-04-08T14:10:37.001Z</time></trkpt><trkpt lat="41.9216153484188" lon="2.817188199146127"><ele>97.0</ele><time>2026-04-08T14:10:38.001Z</time></trkpt><trkpt lat="41.92159564701668" lon="2.817330501452247"><ele>96.5</ele><time>2026-04-08T14:10:39.001Z</time></trkpt><trkpt lat="41.9215682952223" lon="2.8174889360044983"><ele>96.0</ele><time>2026-04-08T14:10:40.001Z</time></trkpt><trkpt lat="41.92154757498618" lon="2.817665398020153"><ele>95.5</ele><time>2026-04-08T14:10:41.001Z</time></trkpt><trkpt lat="41.921503566380906" lon="2.8178333161563347"><ele>95.0</ele><time>2026-04-08T14:10:42.001Z</time></trkpt><trkpt lat="41.92146634571001" lon="2.818012197553698"><ele>94.75</ele><time>2026-04-08T14:10:43.002Z</time></trkpt><trkpt lat="41.921430810194174" lon="2.8181987024624315"><ele>94.5</ele><time>2026-04-08T14:10:44.002Z</time></trkpt><trkpt lat="41.921385839678294" lon="2.8183826186948426"><ele>94.25</ele><time>2026-04-08T14:10:45.002Z</time></trkpt><trkpt lat="41.9213451859253" lon="2.818568470086511"><ele>94.0</ele><time>2026-04-08T14:10:46.002Z</time></trkpt><trkpt lat="41.92130912049586" lon="2.8187485823581495"><ele>94.0</ele><time>2026-04-08T14:10:47.002Z</time></trkpt><trkpt lat="41.92126739140755" lon="2.818922222232838"><ele>94.0</ele><time>2026-04-08T14:10:48.002Z</time></trkpt><trkpt lat="41.92122632742187" lon="2.8191006856557657"><ele>94.0</ele><time>2026-04-08T14:10:49.002Z</time></trkpt><trkpt lat="41.92117296405439" lon="2.819268229744844"><ele>94.0</ele><time>2026-04-08T14:10:50.002Z</time></trkpt><trkpt lat="41.92112982075352" lon="2.819426836450023"><ele>94.80000000000001</ele><time>2026-04-08T14:10:51.002Z</time></trkpt><trkpt lat="41.92109298226897" lon="2.8195752767624738"><ele>95.60000000000001</ele><time>2026-04-08T14:10:52.002Z</time></trkpt><trkpt lat="41.92105865810747" lon="2.8197247301966097"><ele>96.4</ele><time>2026-04-08T14:10:53.002Z</time></trkpt><trkpt lat="41.92104022183218" lon="2.8198657005381667"><ele>97.2</ele><time>2026-04-08T14:10:54.002Z</time></trkpt><trkpt lat="41.9210464818427" lon="2.820007443027098"><ele>98.0</ele><time>2026-04-08T14:10:55.002Z</time></trkpt><trkpt lat="41.92107584301251" lon="2.8201514021969047"><ele>98.4</ele><time>2026-04-08T14:10:56.002Z</time></trkpt><trkpt lat="41.92112651057778" lon="2.8202854072412205"><ele>98.80000000000001</ele><time>2026-04-08T14:10:57.002Z</time></trkpt><trkpt lat="41.921180651448964" lon="2.820416497181197"><ele>99.2</ele><time>2026-04-08T14:10:58.002Z</time></trkpt><trkpt lat="41.921235826469164" lon="2.820545268221177"><ele>99.6</ele><time>2026-04-08T14:10:59.002Z</time></trkpt><trkpt lat="41.921284934265316" lon="2.8206790300925806"><ele>100.0</ele><time>2026-04-08T14:11:00.002Z</time></trkpt><trkpt lat="41.921324797531106" lon="2.8208032643877936"><ele>100.0</ele><time>2026-04-08T14:11:01.002Z</time></trkpt><trkpt lat="41.92134911824993" lon="2.820941140930172"><ele>100.0</ele><time>2026-04-08T14:11:02.002Z</time></trkpt><trkpt lat="41.92135447364049" lon="2.82108774737275"><ele>100.0</ele><time>2026-04-08T14:11:03.002Z</time></trkpt><trkpt lat="41.921331940614635" lon="2.8212311959732137"><ele>100.0</ele><time>2026-04-08T14:11:04.002Z</time></trkpt><trkpt lat="41.92128765224901" lon="2.821374279689538"><ele>100.0</ele><time>2026-04-08T14:11:05.002Z</time></trkpt><trkpt lat="41.92122787915474" lon="2.821512729029665"><ele>99.75</ele><time>2026-04-08T14:11:06.002Z</time></trkpt><trkpt lat="41.92115909528394" lon="2.8216470329913075"><ele>99.5</ele><time>2026-04-08T14:11:07.002Z</time></trkpt><trkpt lat="41.92108135959686" lon="2.821782663949867"><ele>99.25</ele><time>2026-04-08T14:11:08.002Z</time></trkpt><trkpt lat="41.92100864221779" lon="2.821919402095312"><ele>99.0</ele><time>2026-04-08T14:11:09.002Z</time></trkpt><trkpt lat="41.92094520855313" lon="2.822056675402875"><ele>100.0</ele><time>2026-04-08T14:11:10.002Z</time></trkpt><trkpt lat="41.92089464944458" lon="2.8221979697423207"><ele>101.0</ele><time>2026-04-08T14:11:11.002Z</time></trkpt><trkpt lat="41.9208674096298" lon="2.8223536593534995"><ele>102.0</ele><time>2026-04-08T14:11:12.002Z</time></trkpt><trkpt lat="41.92085465026095" lon="2.822514597306259"><ele>103.0</ele><time>2026-04-08T14:11:13.002Z</time></trkpt><trkpt lat="41.920838576288986" lon="2.822677868238403"><ele>103.0</ele><time>2026-04-08T14:11:14.002Z</time></trkpt><trkpt lat="41.920824813563684" lon="2.8228435558514007"><ele>103.0</ele><time>2026-04-08T14:11:15.003Z</time></trkpt><trkpt lat="41.92081352097543" lon="2.823026784470131"><ele>103.0</ele><time>2026-04-08T14:11:16.003Z</time></trkpt><trkpt lat="41.92079738956043" lon="2.823211639041566"><ele>103.0</ele><time>2026-04-08T14:11:17.003Z</time></trkpt><trkpt lat="41.92078092204923" lon="2.8234056860172227"><ele>103.25</ele><time>2026-04-08T14:11:18.003Z</time></trkpt><trkpt lat="41.92076501646503" lon="2.8236012719854235"><ele>103.5</ele><time>2026-04-08T14:11:19.003Z</time></trkpt><trkpt lat="41.920757358386716" lon="2.823796185498725"><ele>103.75</ele><time>2026-04-08T14:11:20.003Z</time></trkpt><trkpt lat="41.92074678776236" lon="2.823995029196813"><ele>104.0</ele><time>2026-04-08T14:11:21.003Z</time></trkpt><trkpt lat="41.920755867782205" lon="2.8242020027515107"><ele>105.0</ele><time>2026-04-08T14:11:22.003Z</time></trkpt><trkpt lat="41.92076262410712" lon="2.8244158760670706"><ele>106.0</ele><time>2026-04-08T14:11:23.003Z</time></trkpt><trkpt lat="41.92076737904281" lon="2.824636008178475"><ele>107.0</ele><time>2026-04-08T14:11:24.003Z</time></trkpt><trkpt lat="41.92077190105531" lon="2.824860319948961"><ele>107.0</ele><time>2026-04-08T14:11:25.003Z</time></trkpt><trkpt lat="41.920781109777096" lon="2.8250883371951883"><ele>107.0</ele><time>2026-04-08T14:11:26.003Z</time></trkpt><trkpt lat="41.92078819667806" lon="2.8253150890745595"><ele>107.0</ele><time>2026-04-08T14:11:27.003Z</time></trkpt><trkpt lat="41.920804676525655" lon="2.825533870417147"><ele>108.66666666666666</ele><time>2026-04-08T14:11:28.003Z</time></trkpt><trkpt lat="41.920828742540515" lon="2.825752351139502"><ele>110.33333333333334</ele><time>2026-04-08T14:11:29.003Z</time></trkpt><trkpt lat="41.92085961263579" lon="2.8259699748934204"><ele>112.0</ele><time>2026-04-08T14:11:30.003Z</time></trkpt><trkpt lat="41.920883773874245" lon="2.82618429346862"><ele>112.0</ele><time>2026-04-08T14:11:31.003Z</time></trkpt><trkpt lat="41.9209018281814" lon="2.8264005586494307"><ele>112.0</ele><time>2026-04-08T14:11:32.003Z</time></trkpt><trkpt lat="41.920910494970315" lon="2.8266126208695725"><ele>112.0</ele><time>2026-04-08T14:11:33.003Z</time></trkpt><trkpt lat="41.92088681094442" lon="2.826820502204936"><ele>112.0</ele><time>2026-04-08T14:11:34.003Z</time></trkpt><trkpt lat="41.92086352844572" lon="2.8270208505253898"><ele>112.0</ele><time>2026-04-08T14:11:35.003Z</time></trkpt><trkpt lat="41.9208291360663" lon="2.8272325376676126"><ele>112.0</ele><time>2026-04-08T14:11:36.003Z</time></trkpt><trkpt lat="41.920788673373494" lon="2.827454953938131"><ele>112.66666666666667</ele><time>2026-04-08T14:11:37.003Z</time></trkpt><trkpt lat="41.92074099110607" lon="2.827692867014453"><ele>113.33333333333334</ele><time>2026-04-08T14:11:38.003Z</time></trkpt><trkpt lat="41.920707711087154" lon="2.8279261630634833"><ele>114.0</ele><time>2026-04-08T14:11:39.003Z</time></trkpt><trkpt lat="41.92069018973628" lon="2.8281556940672017"><ele>114.0</ele><time>2026-04-08T14:11:40.003Z</time></trkpt><trkpt lat="41.920682168437764" lon="2.828364207066268"><ele>114.0</ele><time>2026-04-08T14:11:41.003Z</time></trkpt><trkpt lat="41.92067355819767" lon="2.828557300632102"><ele>114.0</ele><time>2026-04-08T14:11:42.003Z</time></trkpt><trkpt lat="41.9206591756107" lon="2.828731213088537"><ele>114.0</ele><time>2026-04-08T14:11:43.003Z</time></trkpt><trkpt lat="41.920629266569264" lon="2.8289045364600716"><ele>113.0</ele><time>2026-04-08T14:11:44.003Z</time></trkpt><trkpt lat="41.920605436502356" lon="2.829089485821204"><ele>112.0</ele><time>2026-04-08T14:11:44.999Z</time></trkpt><trkpt lat="41.92055077351638" lon="2.829243215833632"><ele>111.0</ele><time>2026-04-08T14:11:45.999Z</time></trkpt><trkpt lat="41.920507941063136" lon="2.829379855426535"><ele>110.0</ele><time>2026-04-08T14:11:46.999Z</time></trkpt><trkpt lat="41.920471234367476" lon="2.8295125468440148"><ele>109.8</ele><time>2026-04-08T14:11:47.999Z</time></trkpt><trkpt lat="41.9204499915673" lon="2.8296440423600573"><ele>109.6</ele><time>2026-04-08T14:11:48.999Z</time></trkpt><trkpt lat="41.920451763926614" lon="2.8297537016196195"><ele>109.4</ele><time>2026-04-08T14:11:49.999Z</time></trkpt><trkpt lat="41.920461425899205" lon="2.8298553630743863"><ele>109.2</ele><time>2026-04-08T14:11:51Z</time></trkpt><trkpt lat="41.920505901100995" lon="2.8299990508546635"><ele>109.0</ele><time>2026-04-08T14:11:53Z</time></trkpt><trkpt lat="41.92047874170385" lon="2.830138937635128"><ele>109.25</ele><time>2026-04-08T14:11:54Z</time></trkpt><trkpt lat="41.92048714837517" lon="2.8302827209993686"><ele>109.5</ele><time>2026-04-08T14:11:55Z</time></trkpt><trkpt lat="41.92049678323544" lon="2.8304448859096305"><ele>109.75</ele><time>2026-04-08T14:11:56Z</time></trkpt><trkpt lat="41.92050257229457" lon="2.830591968926537"><ele>110.0</ele><time>2026-04-08T14:11:57Z</time></trkpt><trkpt lat="41.920510780785186" lon="2.8307496562036256"><ele>110.0</ele><time>2026-04-08T14:11:58Z</time></trkpt><trkpt lat="41.92051798567136" lon="2.8308990775080165"><ele>110.0</ele><time>2026-04-08T14:11:59Z</time></trkpt><trkpt lat="41.92052289338258" lon="2.831043084274674"><ele>110.0</ele><time>2026-04-08T14:12:00Z</time></trkpt><trkpt lat="41.92053748642112" lon="2.831207292650012"><ele>110.0</ele><time>2026-04-08T14:12:01Z</time></trkpt><trkpt lat="41.92056026616248" lon="2.8313861098215596"><ele>110.0</ele><time>2026-04-08T14:12:02Z</time></trkpt><trkpt lat="41.92060001002052" lon="2.8315757589117037"><ele>110.0</ele><time>2026-04-08T14:12:03Z</time></trkpt><trkpt lat="41.9206454432913" lon="2.8317691105305376"><ele>110.0</ele><time>2026-04-08T14:12:04Z</time></trkpt><trkpt lat="41.92069663862788" lon="2.8319633955272567"><ele>110.25</ele><time>2026-04-08T14:12:05Z</time></trkpt><trkpt lat="41.92074950844123" lon="2.832154691292889"><ele>110.5</ele><time>2026-04-08T14:12:06Z</time></trkpt><trkpt lat="41.92080068289238" lon="2.832340905493023"><ele>110.75</ele><time>2026-04-08T14:12:07Z</time></trkpt><trkpt lat="41.92083870839404" lon="2.8325300452803956"><ele>111.0</ele><time>2026-04-08T14:12:08Z</time></trkpt><trkpt lat="41.92087280014642" lon="2.832707579219055"><ele>111.5</ele><time>2026-04-08T14:12:09Z</time></trkpt><trkpt lat="41.92090365708979" lon="2.832871391937406"><ele>112.0</ele><time>2026-04-08T14:12:10Z</time></trkpt><trkpt lat="41.92092918841322" lon="2.833026016790367"><ele>112.5</ele><time>2026-04-08T14:12:11Z</time></trkpt><trkpt lat="41.92096642384659" lon="2.8331941430096053"><ele>113.0</ele><time>2026-04-08T14:12:12Z</time></trkpt><trkpt lat="41.921017922487096" lon="2.8333594174096506"><ele>113.33333333333333</ele><time>2026-04-08T14:12:13Z</time></trkpt><trkpt lat="41.92109175917083" lon="2.8335231636422495"><ele>113.66666666666666</ele><time>2026-04-08T14:12:14Z</time></trkpt><trkpt lat="41.92116921253455" lon="2.8336970437941824"><ele>114.0</ele><time>2026-04-08T14:12:15Z</time></trkpt><trkpt lat="41.92125614686967" lon="2.8338824470107196"><ele>114.0</ele><time>2026-04-08T14:12:16Z</time></trkpt><trkpt lat="41.92133870177689" lon="2.8340617651724576"><ele>114.0</ele><time>2026-04-08T14:12:17Z</time></trkpt><trkpt lat="41.92141451810869" lon="2.8342327812303743"><ele>114.0</ele><time>2026-04-08T14:12:18.001Z</time></trkpt><trkpt lat="41.921486513892326" lon="2.8344027051761356"><ele>114.25</ele><time>2026-04-08T14:12:19.001Z</time></trkpt><trkpt lat="41.92155181948746" lon="2.8345723778584238"><ele>114.5</ele><time>2026-04-08T14:12:20.001Z</time></trkpt><trkpt lat="41.921615124353686" lon="2.8347567710334256"><ele>114.75</ele><time>2026-04-08T14:12:21.001Z</time></trkpt><trkpt lat="41.92165568299079" lon="2.834956550484753"><ele>115.0</ele><time>2026-04-08T14:12:22.001Z</time></trkpt><trkpt lat="41.92171393401333" lon="2.8351343140245286"><ele>116.0</ele><time>2026-04-08T14:12:23.001Z</time></trkpt><trkpt lat="41.92177129809109" lon="2.8352955227988432"><ele>117.0</ele><time>2026-04-08T14:12:24.001Z</time></trkpt><trkpt lat="41.921843462874826" lon="2.8354407877406778"><ele>118.0</ele><time>2026-04-08T14:12:25.001Z</time></trkpt><trkpt lat="41.921886338967894" lon="2.835603674028735"><ele>119.0</ele><time>2026-04-08T14:12:26.001Z</time></trkpt><trkpt lat="41.92193546722442" lon="2.83574928093015"><ele>119.0</ele><time>2026-04-08T14:12:27.001Z</time></trkpt><trkpt lat="41.92197338240628" lon="2.8358934157297964"><ele>119.0</ele><time>2026-04-08T14:12:28.001Z</time></trkpt><trkpt lat="41.92200863878878" lon="2.8360409939212583"><ele>119.0</ele><time>2026-04-08T14:12:29.001Z</time></trkpt><trkpt lat="41.92204358117489" lon="2.8361763146944754"><ele>119.0</ele><time>2026-04-08T14:12:30.001Z</time></trkpt><trkpt lat="41.922078527299554" lon="2.836287624786153"><ele>119.0</ele><time>2026-04-08T14:12:31.001Z</time></trkpt><trkpt lat="41.922124265553805" lon="2.8363848202372948"><ele>119.0</ele><time>2026-04-08T14:12:32.001Z</time></trkpt><trkpt lat="41.92219469931956" lon="2.83646952245516"><ele>119.0</ele><time>2026-04-08T14:12:33.001Z</time></trkpt><trkpt lat="41.92229906273378" lon="2.836518175891042"><ele>119.0</ele><time>2026-04-08T14:12:34.001Z</time></trkpt><trkpt lat="41.9224063546847" lon="2.8365473759494155"><ele>119.0</ele><time>2026-04-08T14:12:35.001Z</time></trkpt><trkpt lat="41.922522059658775" lon="2.8365807210944443"><ele>119.0</ele><time>2026-04-08T14:12:36.001Z</time></trkpt><trkpt lat="41.92263105330936" lon="2.836616258320623"><ele>119.0</ele><time>2026-04-08T14:12:37.001Z</time></trkpt><trkpt lat="41.922714707986046" lon="2.836698371839534"><ele>119.0</ele><time>2026-04-08T14:12:38.001Z</time></trkpt><trkpt lat="41.92277389128366" lon="2.8368323246787988"><ele>119.0</ele><time>2026-04-08T14:12:39.001Z</time></trkpt><trkpt lat="41.92284464621266" lon="2.836956490353115"><ele>119.0</ele><time>2026-04-08T14:12:40.001Z</time></trkpt><trkpt lat="41.92288081105103" lon="2.8370916535866355"><ele>119.0</ele><time>2026-04-08T14:12:41.001Z</time></trkpt><trkpt lat="41.92290343562968" lon="2.8372102509691755"><ele>119.0</ele><time>2026-04-08T14:12:42.001Z</time></trkpt><trkpt lat="41.922879132389504" lon="2.837325538857973"><ele>119.0</ele><time>2026-04-08T14:12:43.001Z</time></trkpt><trkpt lat="41.922871545094424" lon="2.8374642061577693"><ele>119.0</ele><time>2026-04-08T14:12:44.001Z</time></trkpt><trkpt lat="41.922825874311194" lon="2.837607123490522"><ele>119.0</ele><time>2026-04-08T14:12:45.001Z</time></trkpt><trkpt lat="41.92279285304193" lon="2.837764177326944"><ele>119.0</ele><time>2026-04-08T14:12:46.001Z</time></trkpt><trkpt lat="41.92279322824454" lon="2.8379661411794213"><ele>120.0</ele><time>2026-04-08T14:12:47.001Z</time></trkpt><trkpt lat="41.922784841504544" lon="2.8381543759214445"><ele>121.0</ele><time>2026-04-08T14:12:48.001Z</time></trkpt><trkpt lat="41.92279575067549" lon="2.8383143413441765"><ele>122.0</ele><time>2026-04-08T14:12:49.002Z</time></trkpt><trkpt lat="41.92280770027929" lon="2.8384616998382413"><ele>123.0</ele><time>2026-04-08T14:12:50.002Z</time></trkpt><trkpt lat="41.922814342319825" lon="2.838599781235414"><ele>123.0</ele><time>2026-04-08T14:12:51.002Z</time></trkpt><trkpt lat="41.922828680239306" lon="2.838726739842559"><ele>123.0</ele><time>2026-04-08T14:12:52.002Z</time></trkpt><trkpt lat="41.92280726007494" lon="2.8388338988671977"><ele>123.0</ele><time>2026-04-08T14:12:53.002Z</time></trkpt><trkpt lat="41.92277133492549" lon="2.8389284443008163"><ele>123.0</ele><time>2026-04-08T14:12:54.002Z</time></trkpt><trkpt lat="41.922716683997905" lon="2.83900716598762"><ele>123.0</ele><time>2026-04-08T14:12:55.002Z</time></trkpt><trkpt lat="41.92263863002858" lon="2.8390777030979133"><ele>123.0</ele><time>2026-04-08T14:12:56.002Z</time></trkpt><trkpt lat="41.922545171555875" lon="2.8391298495438466"><ele>123.60000000000001</ele><time>2026-04-08T14:12:57.002Z</time></trkpt><trkpt lat="41.92244414154244" lon="2.839160980228566"><ele>124.20000000000002</ele><time>2026-04-08T14:12:58.002Z</time></trkpt><trkpt lat="41.92235277885755" lon="2.83918376536846"><ele>124.8</ele><time>2026-04-08T14:12:59.002Z</time></trkpt><trkpt lat="41.92227075114326" lon="2.8392165334458195"><ele>125.4</ele><time>2026-04-08T14:13:00.002Z</time></trkpt><trkpt lat="41.92218213895648" lon="2.8392358739737604"><ele>126.0</ele><time>2026-04-08T14:13:01.002Z</time></trkpt><trkpt lat="41.9221024168248" lon="2.8393106903973484"><ele>126.0</ele><time>2026-04-08T14:13:02.002Z</time></trkpt><trkpt lat="41.922030217083815" lon="2.8394330180588954"><ele>126.0</ele><time>2026-04-08T14:13:03.002Z</time></trkpt><trkpt lat="41.92194485649332" lon="2.839555520180055"><ele>126.0</ele><time>2026-04-08T14:13:04.002Z</time></trkpt><trkpt lat="41.92184569653015" lon="2.839654462393738"><ele>126.0</ele><time>2026-04-08T14:13:05.002Z</time></trkpt><trkpt lat="41.921769092498984" lon="2.8397770640893825"><ele>125.25</ele><time>2026-04-08T14:13:06.002Z</time></trkpt><trkpt lat="41.921696369497205" lon="2.8398782187158007"><ele>124.5</ele><time>2026-04-08T14:13:07.002Z</time></trkpt><trkpt lat="41.92162792149461" lon="2.8399997627726745"><ele>123.75</ele><time>2026-04-08T14:13:08.002Z</time></trkpt><trkpt lat="41.92157395132222" lon="2.840147563535232"><ele>123.0</ele><time>2026-04-08T14:13:09.002Z</time></trkpt><trkpt lat="41.921535863646305" lon="2.840301939790067"><ele>123.0</ele><time>2026-04-08T14:13:10.002Z</time></trkpt><trkpt lat="41.92149858853458" lon="2.8404676684909083"><ele>123.0</ele><time>2026-04-08T14:13:11.002Z</time></trkpt><trkpt lat="41.92145921826743" lon="2.840645718569503"><ele>123.0</ele><time>2026-04-08T14:13:12.002Z</time></trkpt><trkpt lat="41.921440661901975" lon="2.840837579711698"><ele>123.0</ele><time>2026-04-08T14:13:13.002Z</time></trkpt><trkpt lat="41.92142576898331" lon="2.84104332908667"><ele>123.33333333333334</ele><time>2026-04-08T14:13:14.002Z</time></trkpt><trkpt lat="41.92141164078621" lon="2.8412476504479884"><ele>123.66666666666667</ele><time>2026-04-08T14:13:15.002Z</time></trkpt><trkpt lat="41.92139661086694" lon="2.841460922005147"><ele>124.0</ele><time>2026-04-08T14:13:16.002Z</time></trkpt><trkpt lat="41.921380909058335" lon="2.841683727764932"><ele>123.66666666666667</ele><time>2026-04-08T14:13:17.002Z</time></trkpt><trkpt lat="41.921365329535845" lon="2.841904798135262"><ele>123.33333333333334</ele><time>2026-04-08T14:13:18.002Z</time></trkpt><trkpt lat="41.92135411846409" lon="2.8421082124856003"><ele>123.0</ele><time>2026-04-08T14:13:19.002Z</time></trkpt><trkpt lat="41.92133447063129" lon="2.8423082889856968"><ele>123.0</ele><time>2026-04-08T14:13:20.002Z</time></trkpt><trkpt lat="41.92131046178297" lon="2.8424959401693384"><ele>123.0</ele><time>2026-04-08T14:13:21.002Z</time></trkpt><trkpt lat="41.92128703045168" lon="2.842684430114631"><ele>123.0</ele><time>2026-04-08T14:13:22.003Z</time></trkpt><trkpt lat="41.92126130845217" lon="2.8428754140189696"><ele>123.0</ele><time>2026-04-08T14:13:23.003Z</time></trkpt><trkpt lat="41.921238307995566" lon="2.843064885491845"><ele>123.0</ele><time>2026-04-08T14:13:24.003Z</time></trkpt><trkpt lat="41.92121175387559" lon="2.8432548479148188"><ele>123.0</ele><time>2026-04-08T14:13:25.003Z</time></trkpt><trkpt lat="41.921173934063724" lon="2.843447733331778"><ele>123.0</ele><time>2026-04-08T14:13:26.003Z</time></trkpt><trkpt lat="41.92112643557433" lon="2.8436304233133707"><ele>123.0</ele><time>2026-04-08T14:13:27.003Z</time></trkpt><trkpt lat="41.92107018194109" lon="2.8437971700239197"><ele>121.5</ele><time>2026-04-08T14:13:28.003Z</time></trkpt><trkpt lat="41.92101067021602" lon="2.843958738133697"><ele>120.0</ele><time>2026-04-08T14:13:29.003Z</time></trkpt><trkpt lat="41.920956387870945" lon="2.844114101006605"><ele>118.5</ele><time>2026-04-08T14:13:30.003Z</time></trkpt><trkpt lat="41.920900367389095" lon="2.8442596688534416"><ele>117.0</ele><time>2026-04-08T14:13:31.003Z</time></trkpt><trkpt lat="41.92084791957084" lon="2.844393910123411"><ele>115.5</ele><time>2026-04-08T14:13:32.003Z</time></trkpt><trkpt lat="41.920797624786786" lon="2.8445337040146197"><ele>114.0</ele><time>2026-04-08T14:13:33.003Z</time></trkpt><trkpt lat="41.92078116549828" lon="2.844701572726433"><ele>112.5</ele><time>2026-04-08T14:13:34.003Z</time></trkpt><trkpt lat="41.920790002708145" lon="2.8448816247402564"><ele>111.0</ele><time>2026-04-08T14:13:35.003Z</time></trkpt><trkpt lat="41.92082849305216" lon="2.845077589405368"><ele>110.66666666666666</ele><time>2026-04-08T14:13:36.003Z</time></trkpt><trkpt lat="41.920876396673236" lon="2.845290894479026"><ele>110.33333333333333</ele><time>2026-04-08T14:13:37.003Z</time></trkpt><trkpt lat="41.92091568553991" lon="2.8455259083887854"><ele>110.0</ele><time>2026-04-08T14:13:38.003Z</time></trkpt><trkpt lat="41.92094179074632" lon="2.8457524902751175"><ele>111.0</ele><time>2026-04-08T14:13:39.003Z</time></trkpt><trkpt lat="41.920962796052315" lon="2.845993067793977"><ele>112.0</ele><time>2026-04-08T14:13:40.003Z</time></trkpt><trkpt lat="41.92097950052257" lon="2.8462213488850296"><ele>113.0</ele><time>2026-04-08T14:13:41.003Z</time></trkpt><trkpt lat="41.920991247851006" lon="2.846435030403805"><ele>113.0</ele><time>2026-04-08T14:13:42.003Z</time></trkpt><trkpt lat="41.92099684021939" lon="2.846639366888203"><ele>113.0</ele><time>2026-04-08T14:13:43.003Z</time></trkpt><trkpt lat="41.92098783615188" lon="2.8468545265135075"><ele>113.0</ele><time>2026-04-08T14:13:44.003Z</time></trkpt><trkpt lat="41.920967912815996" lon="2.8470609407694134"><ele>113.33333333333333</ele><time>2026-04-08T14:13:45.003Z</time></trkpt><trkpt lat="41.92092605544189" lon="2.8472671772129092"><ele>113.66666666666666</ele><time>2026-04-08T14:13:46.003Z</time></trkpt><trkpt lat="41.92086575976815" lon="2.8474943488098794"><ele>114.0</ele><time>2026-04-08T14:13:47.003Z</time></trkpt><trkpt lat="41.92079854020362" lon="2.847733002004661"><ele>114.33333333333334</ele><time>2026-04-08T14:13:48.003Z</time></trkpt><trkpt lat="41.92073184327716" lon="2.8479335775390306"><ele>114.66666666666667</ele><time>2026-04-08T14:13:49.003Z</time></trkpt><trkpt lat="41.92067185606086" lon="2.848123400011437"><ele>115.0</ele><time>2026-04-08T14:13:50.003Z</time></trkpt><trkpt lat="41.92062187145074" lon="2.848308274992514"><ele>116.25</ele><time>2026-04-08T14:13:51Z</time></trkpt><trkpt lat="41.92056642916958" lon="2.848469450171866"><ele>117.5</ele><time>2026-04-08T14:13:52Z</time></trkpt><trkpt lat="41.92050218918169" lon="2.848612629759352"><ele>118.75</ele><time>2026-04-08T14:13:53Z</time></trkpt><trkpt lat="41.92043195829915" lon="2.848728388314908"><ele>120.0</ele><time>2026-04-08T14:13:54Z</time></trkpt><trkpt lat="41.92037855068047" lon="2.8488378140754076"><ele>120.0</ele><time>2026-04-08T14:13:55Z</time></trkpt><trkpt lat="41.92034705759261" lon="2.8489747186580985"><ele>120.0</ele><time>2026-04-08T14:13:56Z</time></trkpt><trkpt lat="41.920330000920636" lon="2.8491177452277947"><ele>120.0</ele><time>2026-04-08T14:13:57Z</time></trkpt><trkpt lat="41.92031794650021" lon="2.8492529099476274"><ele>120.0</ele><time>2026-04-08T14:13:58Z</time></trkpt><trkpt lat="41.92030981367944" lon="2.8493735287601414"><ele>120.0</ele><time>2026-04-08T14:13:59Z</time></trkpt><trkpt lat="41.92030006465351" lon="2.8494860735355547"><ele>120.5</ele><time>2026-04-08T14:14:00Z</time></trkpt><trkpt lat="41.92028904465858" lon="2.849598050522565"><ele>121.0</ele><time>2026-04-08T14:14:01Z</time></trkpt><trkpt lat="41.92027931541035" lon="2.849707656753154"><ele>121.5</ele><time>2026-04-08T14:14:02Z</time></trkpt><trkpt lat="41.92027182215095" lon="2.8498094422369675"><ele>122.0</ele><time>2026-04-08T14:14:03Z</time></trkpt><trkpt lat="41.920263082613594" lon="2.849904572488001"><ele>122.5</ele><time>2026-04-08T14:14:04Z</time></trkpt><trkpt lat="41.92025460433456" lon="2.8499941739452694"><ele>123.0</ele><time>2026-04-08T14:14:05Z</time></trkpt><trkpt lat="41.92024637095493" lon="2.8501372545285224"><ele>123.2</ele><time>2026-04-08T14:14:07Z</time></trkpt><trkpt lat="41.92022816228998" lon="2.8502592782570275"><ele>123.4</ele><time>2026-04-08T14:14:09Z</time></trkpt><trkpt lat="41.92022140260766" lon="2.850356634016043"><ele>123.60000000000001</ele><time>2026-04-08T14:14:11Z</time></trkpt><trkpt lat="41.920203143794076" lon="2.8504928735023585"><ele>123.80000000000001</ele><time>2026-04-08T14:15:34.003Z</time></trkpt><trkpt lat="41.92021488467251" lon="2.8506325415442464"><ele>124.0</ele><time>2026-04-08T14:15:36.003Z</time></trkpt><trkpt lat="41.92033714667213" lon="2.8506630174647225"><ele>124.0</ele><time>2026-04-08T14:15:37.003Z</time></trkpt><trkpt lat="41.92041553404787" lon="2.850669368939433"><ele>124.0</ele><time>2026-04-08T14:15:38.003Z</time></trkpt><trkpt lat="41.92051142061242" lon="2.850660990800778"><ele>124.0</ele><time>2026-04-08T14:15:39.003Z</time></trkpt><trkpt lat="41.920623346829494" lon="2.8506318110467874"><ele>124.0</ele><time>2026-04-08T14:15:40.003Z</time></trkpt><trkpt lat="41.92073672034117" lon="2.850622924812734"><ele>124.0</ele><time>2026-04-08T14:15:41.003Z</time></trkpt><trkpt lat="41.92087379670811" lon="2.8506156798125564"><ele>123.66666666666667</ele><time>2026-04-08T14:15:42.003Z</time></trkpt><trkpt lat="41.92102147135519" lon="2.850607270925712"><ele>123.33333333333334</ele><time>2026-04-08T14:15:43.003Z</time></trkpt><trkpt lat="41.92118524490389" lon="2.8506134982406612"><ele>123.0</ele><time>2026-04-08T14:15:44.003Z</time></trkpt><trkpt lat="41.92136026333697" lon="2.850605927436795"><ele>123.0</ele><time>2026-04-08T14:15:45.003Z</time></trkpt><trkpt lat="41.92153726056461" lon="2.8505991343494275"><ele>123.0</ele><time>2026-04-08T14:15:46.003Z</time></trkpt><trkpt lat="41.92171947449026" lon="2.8505946222811493"><ele>123.0</ele><time>2026-04-08T14:15:47.003Z</time></trkpt><trkpt lat="41.921895655367706" lon="2.850591325002217"><ele>122.66666666666666</ele><time>2026-04-08T14:15:48.003Z</time></trkpt><trkpt lat="41.92208191768697" lon="2.8505892457007405"><ele>122.33333333333333</ele><time>2026-04-08T14:15:49.003Z</time></trkpt><trkpt lat="41.92226425311378" lon="2.8505828472790884"><ele>122.0</ele><time>2026-04-08T14:15:50.003Z</time></trkpt><trkpt lat="41.922447352051535" lon="2.8505730544589003"><ele>121.33333333333333</ele><time>2026-04-08T14:15:51.003Z</time></trkpt><trkpt lat="41.92263746609134" lon="2.850566863313547"><ele>120.66666666666666</ele><time>2026-04-08T14:15:52.003Z</time></trkpt><trkpt lat="41.92283217765145" lon="2.8505652964015216"><ele>120.0</ele><time>2026-04-08T14:15:53.003Z</time></trkpt><trkpt lat="41.92303186581115" lon="2.8505653555372756"><ele>120.0</ele><time>2026-04-08T14:15:54.003Z</time></trkpt><trkpt lat="41.92323595263429" lon="2.850559716582271"><ele>120.0</ele><time>2026-04-08T14:15:55.003Z</time></trkpt><trkpt lat="41.92343865427329" lon="2.850552970395667"><ele>120.0</ele><time>2026-04-08T14:15:56.003Z</time></trkpt><trkpt lat="41.92360374360828" lon="2.850531356641782"><ele>119.66666666666666</ele><time>2026-04-08T14:15:57.001Z</time></trkpt><trkpt lat="41.923800577101105" lon="2.8505249925903082"><ele>119.33333333333333</ele><time>2026-04-08T14:15:58.001Z</time></trkpt><trkpt lat="41.923996257979624" lon="2.8505197306604626"><ele>119.0</ele><time>2026-04-08T14:15:59.001Z</time></trkpt><trkpt lat="41.9241924523151" lon="2.8505113959141934"><ele>119.66666666666666</ele><time>2026-04-08T14:16:00.001Z</time></trkpt><trkpt lat="41.92438783765257" lon="2.850503553011672"><ele>120.33333333333334</ele><time>2026-04-08T14:16:01.001Z</time></trkpt><trkpt lat="41.92458469348136" lon="2.8504961784675347"><ele>121.0</ele><time>2026-04-08T14:16:02.001Z</time></trkpt><trkpt lat="41.92477359219635" lon="2.850491237012119"><ele>121.0</ele><time>2026-04-08T14:16:03.001Z</time></trkpt><trkpt lat="41.92495701527042" lon="2.8504834345458003"><ele>121.0</ele><time>2026-04-08T14:16:04.001Z</time></trkpt><trkpt lat="41.92513687351675" lon="2.8504771119179653"><ele>121.0</ele><time>2026-04-08T14:16:05.001Z</time></trkpt><trkpt lat="41.92531585728683" lon="2.8504644998237008"><ele>121.33333333333334</ele><time>2026-04-08T14:16:06.001Z</time></trkpt><trkpt lat="41.92549370497616" lon="2.85046096949439"><ele>121.66666666666666</ele><time>2026-04-08T14:16:07.001Z</time></trkpt><trkpt lat="41.9256659508752" lon="2.850442847825951"><ele>122.0</ele><time>2026-04-08T14:16:08.001Z</time></trkpt><trkpt lat="41.92583445337423" lon="2.8504373121646367"><ele>122.33333333333333</ele><time>2026-04-08T14:16:09.001Z</time></trkpt><trkpt lat="41.92601026973495" lon="2.850428461453615"><ele>122.66666666666666</ele><time>2026-04-08T14:16:10Z</time></trkpt><trkpt lat="41.92617676226399" lon="2.8504117884866798"><ele>123.0</ele><time>2026-04-08T14:16:11Z</time></trkpt><trkpt lat="41.926357263236895" lon="2.850398327056077"><ele>123.0</ele><time>2026-04-08T14:16:12Z</time></trkpt><trkpt lat="41.92654419096079" lon="2.850366369085043"><ele>123.0</ele><time>2026-04-08T14:16:13Z</time></trkpt><trkpt lat="41.92673679051984" lon="2.850319593455319"><ele>123.0</ele><time>2026-04-08T14:16:14Z</time></trkpt><trkpt lat="41.92692319626043" lon="2.850255720259998"><ele>124.33333333333334</ele><time>2026-04-08T14:16:15Z</time></trkpt><trkpt lat="41.9270981338522" lon="2.850173345105247"><ele>125.66666666666667</ele><time>2026-04-08T14:16:16Z</time></trkpt><trkpt lat="41.927263956315336" lon="2.850083016218645"><ele>127.0</ele><time>2026-04-08T14:16:17Z</time></trkpt><trkpt lat="41.927416456689734" lon="2.8499912735637873"><ele>129.33333333333334</ele><time>2026-04-08T14:16:18Z</time></trkpt><trkpt lat="41.92756763053856" lon="2.849895651943609"><ele>131.66666666666666</ele><time>2026-04-08T14:16:19Z</time></trkpt><trkpt lat="41.92771909910177" lon="2.8497933600845093"><ele>134.0</ele><time>2026-04-08T14:16:20Z</time></trkpt><trkpt lat="41.927861062852685" lon="2.8496976839872787"><ele>134.0</ele><time>2026-04-08T14:16:21Z</time></trkpt><trkpt lat="41.927991257560755" lon="2.8496109248443244"><ele>134.0</ele><time>2026-04-08T14:16:22Z</time></trkpt><trkpt lat="41.92811221529617" lon="2.849528466609695"><ele>134.0</ele><time>2026-04-08T14:16:23Z</time></trkpt><trkpt lat="41.928224013223556" lon="2.8494487559086665"><ele>134.0</ele><time>2026-04-08T14:16:24Z</time></trkpt><trkpt lat="41.92832196905118" lon="2.8493786391293807"><ele>134.2</ele><time>2026-04-08T14:16:25Z</time></trkpt><trkpt lat="41.92841966923472" lon="2.849308646254932"><ele>134.4</ele><time>2026-04-08T14:16:26Z</time></trkpt><trkpt lat="41.928509107358316" lon="2.8492490011031353"><ele>134.6</ele><time>2026-04-08T14:16:27Z</time></trkpt><trkpt lat="41.92858948042916" lon="2.849186514458364"><ele>134.8</ele><time>2026-04-08T14:16:28Z</time></trkpt><trkpt lat="41.92866045013093" lon="2.84914715545689"><ele>135.0</ele><time>2026-04-08T14:16:29Z</time></trkpt><trkpt lat="41.928730685516854" lon="2.849106421236258"><ele>133.16666666666666</ele><time>2026-04-08T14:16:30Z</time></trkpt><trkpt lat="41.92879660034546" lon="2.849064657765005"><ele>131.33333333333334</ele><time>2026-04-08T14:16:31Z</time></trkpt><trkpt lat="41.928874680500755" lon="2.8490179128695936"><ele>129.5</ele><time>2026-04-08T14:16:32.001Z</time></trkpt><trkpt lat="41.92894536095955" lon="2.8489639683084262"><ele>127.66666666666667</ele><time>2026-04-08T14:16:33.001Z</time></trkpt><trkpt lat="41.929029074267525" lon="2.848903710953228"><ele>125.83333333333334</ele><time>2026-04-08T14:16:34.001Z</time></trkpt><trkpt lat="41.92912235859795" lon="2.8488394468044143"><ele>124.0</ele><time>2026-04-08T14:16:35.001Z</time></trkpt><trkpt lat="41.929225689388666" lon="2.8487675610114676"><ele>124.5</ele><time>2026-04-08T14:16:36.001Z</time></trkpt><trkpt lat="41.92933115314047" lon="2.8486922587073455"><ele>125.0</ele><time>2026-04-08T14:16:37.001Z</time></trkpt><trkpt lat="41.929451500315544" lon="2.848615637708017"><ele>125.5</ele><time>2026-04-08T14:16:38.001Z</time></trkpt><trkpt lat="41.929563836305086" lon="2.8485354350610232"><ele>126.0</ele><time>2026-04-08T14:16:39.001Z</time></trkpt><trkpt lat="41.929672513038796" lon="2.848456401774176"><ele>124.25</ele><time>2026-04-08T14:16:40.001Z</time></trkpt><trkpt lat="41.92978054875009" lon="2.8483830306748104"><ele>122.5</ele><time>2026-04-08T14:16:41.001Z</time></trkpt><trkpt lat="41.92989403453427" lon="2.8483027928874103"><ele>120.75</ele><time>2026-04-08T14:16:42.001Z</time></trkpt><trkpt lat="41.930008819306565" lon="2.8482252441901377"><ele>119.0</ele><time>2026-04-08T14:16:43.001Z</time></trkpt><trkpt lat="41.93012801855154" lon="2.848145794665318"><ele>119.0</ele><time>2026-04-08T14:16:44.001Z</time></trkpt><trkpt lat="41.93023744649928" lon="2.8480634411305523"><ele>119.0</ele><time>2026-04-08T14:16:45.001Z</time></trkpt><trkpt lat="41.93034217409419" lon="2.847980648551544"><ele>119.0</ele><time>2026-04-08T14:16:46.001Z</time></trkpt><trkpt lat="41.930438001260065" lon="2.8479001738629615"><ele>119.0</ele><time>2026-04-08T14:16:47.001Z</time></trkpt><trkpt lat="41.930526567341104" lon="2.8478222826209083"><ele>119.0</ele><time>2026-04-08T14:16:48.001Z</time></trkpt><trkpt lat="41.93060237124873" lon="2.847759318440764"><ele>119.0</ele><time>2026-04-08T14:16:49.001Z</time></trkpt><trkpt lat="41.93068425713059" lon="2.8477211908560216"><ele>119.0</ele><time>2026-04-08T14:16:50.001Z</time></trkpt><trkpt lat="41.93075984445764" lon="2.847714784217538"><ele>119.0</ele><time>2026-04-08T14:16:51.001Z</time></trkpt><trkpt lat="41.930871758115096" lon="2.8478018960518545"><ele>119.0</ele><time>2026-04-08T14:16:53.001Z</time></trkpt><trkpt lat="41.930918625877545" lon="2.847889083545114"><ele>119.25</ele><time>2026-04-08T14:16:54.001Z</time></trkpt><trkpt lat="41.93094702107856" lon="2.848007926717451"><ele>119.5</ele><time>2026-04-08T14:16:55.001Z</time></trkpt><trkpt lat="41.93098585612538" lon="2.8481492772889996"><ele>119.75</ele><time>2026-04-08T14:16:56.001Z</time></trkpt><trkpt lat="41.931032912904946" lon="2.84831987470333"><ele>120.0</ele><time>2026-04-08T14:16:57.001Z</time></trkpt><trkpt lat="41.93107513743109" lon="2.8484674573810334"><ele>122.0</ele><time>2026-04-08T14:16:58.001Z</time></trkpt><trkpt lat="41.931113009891725" lon="2.848591912901398"><ele>124.0</ele><time>2026-04-08T14:16:59.001Z</time></trkpt><trkpt lat="41.93115568091518" lon="2.848701483499781"><ele>126.0</ele><time>2026-04-08T14:17:00.001Z</time></trkpt><trkpt lat="41.93121136908278" lon="2.848782329917135"><ele>128.0</ele><time>2026-04-08T14:17:01.001Z</time></trkpt><trkpt lat="41.931286699168226" lon="2.8488254812951466"><ele>130.0</ele><time>2026-04-08T14:17:02.001Z</time></trkpt><trkpt lat="41.93138611841457" lon="2.8488265170371494"><ele>130.0</ele><time>2026-04-08T14:17:03.001Z</time></trkpt><trkpt lat="41.9315153180446" lon="2.8488213750706626"><ele>130.0</ele><time>2026-04-08T14:17:04.001Z</time></trkpt><trkpt lat="41.93164790107753" lon="2.8488139782585034"><ele>130.0</ele><time>2026-04-08T14:17:05.001Z</time></trkpt><trkpt lat="41.93178028986169" lon="2.8488265749833204"><ele>130.0</ele><time>2026-04-08T14:17:06.001Z</time></trkpt><trkpt lat="41.9319339991573" lon="2.8488710503784267"><ele>129.0</ele><time>2026-04-08T14:17:07.001Z</time></trkpt><trkpt lat="41.93209316227206" lon="2.8489159050615074"><ele>128.0</ele><time>2026-04-08T14:17:08.001Z</time></trkpt><trkpt lat="41.932245167735765" lon="2.8489565048970498"><ele>127.0</ele><time>2026-04-08T14:17:09.001Z</time></trkpt><trkpt lat="41.9323925864414" lon="2.8490179660311536"><ele>127.0</ele><time>2026-04-08T14:17:10.001Z</time></trkpt><trkpt lat="41.93253563613805" lon="2.84910834684216"><ele>127.0</ele><time>2026-04-08T14:17:11.001Z</time></trkpt><trkpt lat="41.9326394216964" lon="2.849224696914379"><ele>127.0</ele><time>2026-04-08T14:17:12.001Z</time></trkpt><trkpt lat="41.932730976912175" lon="2.8493237537253164"><ele>127.0</ele><time>2026-04-08T14:17:13.001Z</time></trkpt><trkpt lat="41.93278792712095" lon="2.849409758822413"><ele>126.8</ele><time>2026-04-08T14:17:14.001Z</time></trkpt><trkpt lat="41.93281091408416" lon="2.8495107441425334"><ele>126.6</ele><time>2026-04-08T14:17:15.001Z</time></trkpt><trkpt lat="41.93280537281838" lon="2.8496052019737093"><ele>126.39999999999999</ele><time>2026-04-08T14:17:16.001Z</time></trkpt><trkpt lat="41.932714427352614" lon="2.8496637403800666"><ele>126.19999999999999</ele><time>2026-04-08T14:17:17.001Z</time></trkpt><trkpt lat="41.93262645454151" lon="2.8497201220208583"><ele>126.0</ele><time>2026-04-08T14:17:18.001Z</time></trkpt><trkpt lat="41.93249014378966" lon="2.849779528399397"><ele>126.0</ele><time>2026-04-08T14:17:19.001Z</time></trkpt><trkpt lat="41.9323240148078" lon="2.849834511475301"><ele>126.0</ele><time>2026-04-08T14:17:20.001Z</time></trkpt><trkpt lat="41.932170088292814" lon="2.849879996370013"><ele>126.0</ele><time>2026-04-08T14:17:21.001Z</time></trkpt><trkpt lat="41.93204219876373" lon="2.8499413284461554"><ele>126.0</ele><time>2026-04-08T14:17:22.001Z</time></trkpt><trkpt lat="41.931920416254734" lon="2.8500069228318887"><ele>126.0</ele><time>2026-04-08T14:17:23.001Z</time></trkpt><trkpt lat="41.93179667957909" lon="2.850101258183146"><ele>126.0</ele><time>2026-04-08T14:17:24.001Z</time></trkpt><trkpt lat="41.93166807217795" lon="2.850205112852975"><ele>126.0</ele><time>2026-04-08T14:17:25.001Z</time></trkpt><trkpt lat="41.93155668372576" lon="2.8503436305186947"><ele>126.8</ele><time>2026-04-08T14:17:26.001Z</time></trkpt><trkpt lat="41.93145833155626" lon="2.850461706085314"><ele>127.6</ele><time>2026-04-08T14:17:27.001Z</time></trkpt><trkpt lat="41.931375473587956" lon="2.8505714867526937"><ele>128.4</ele><time>2026-04-08T14:17:28.001Z</time></trkpt><trkpt lat="41.93131363637294" lon="2.8506650298803797"><ele>129.2</ele><time>2026-04-08T14:17:29.002Z</time></trkpt><trkpt lat="41.93127770607195" lon="2.8507627116788723"><ele>130.0</ele><time>2026-04-08T14:17:30.002Z</time></trkpt><trkpt lat="41.93127455277517" lon="2.8508629994875747"><ele>130.0</ele><time>2026-04-08T14:17:31.002Z</time></trkpt><trkpt lat="41.93131777992478" lon="2.850940311898989"><ele>130.0</ele><time>2026-04-08T14:17:32.002Z</time></trkpt><trkpt lat="41.93137867248967" lon="2.850965410015224"><ele>130.0</ele><time>2026-04-08T14:17:33.002Z</time></trkpt><trkpt lat="41.93144275613681" lon="2.8509691274613926"><ele>130.0</ele><time>2026-04-08T14:17:34.002Z</time></trkpt><trkpt lat="41.93153973275742" lon="2.850945577000996"><ele>130.0</ele><time>2026-04-08T14:17:35.002Z</time></trkpt><trkpt lat="41.93165888486519" lon="2.8509279238177734"><ele>130.0</ele><time>2026-04-08T14:17:36.002Z</time></trkpt><trkpt lat="41.9317830586998" lon="2.8509409349218746"><ele>130.5</ele><time>2026-04-08T14:17:37.002Z</time></trkpt><trkpt lat="41.9319102811345" lon="2.8509874084476845"><ele>131.0</ele><time>2026-04-08T14:17:38.002Z</time></trkpt><trkpt lat="41.932042243883615" lon="2.851040562149837"><ele>131.5</ele><time>2026-04-08T14:17:39.002Z</time></trkpt><trkpt lat="41.932150789485505" lon="2.851085573644569"><ele>132.0</ele><time>2026-04-08T14:17:40.002Z</time></trkpt><trkpt lat="41.93224719118578" lon="2.851128005559072"><ele>132.0</ele><time>2026-04-08T14:17:41.002Z</time></trkpt><trkpt lat="41.93231437827344" lon="2.851202993589877"><ele>132.0</ele><time>2026-04-08T14:17:42.002Z</time></trkpt><trkpt lat="41.932335692214714" lon="2.851310700407304"><ele>132.0</ele><time>2026-04-08T14:17:43.002Z</time></trkpt><trkpt lat="41.93232427280343" lon="2.8514449102144557"><ele>132.0</ele><time>2026-04-08T14:17:44.002Z</time></trkpt><trkpt lat="41.93231083309403" lon="2.851634918177377"><ele>132.0</ele><time>2026-04-08T14:17:45.002Z</time></trkpt><trkpt lat="41.932299568777005" lon="2.8518136536321"><ele>131.0</ele><time>2026-04-08T14:17:46.002Z</time></trkpt><trkpt lat="41.932315622331195" lon="2.851955869283649"><ele>130.0</ele><time>2026-04-08T14:17:47.002Z</time></trkpt><trkpt lat="41.93236019207381" lon="2.8520751923700316"><ele>129.0</ele><time>2026-04-08T14:17:48.002Z</time></trkpt><trkpt lat="41.93245689423759" lon="2.852170336596179"><ele>128.0</ele><time>2026-04-08T14:17:49.002Z</time></trkpt><trkpt lat="41.9325693994867" lon="2.8522527456191713"><ele>128.0</ele><time>2026-04-08T14:17:50.002Z</time></trkpt><trkpt lat="41.932645695668015" lon="2.8523196959943204"><ele>128.0</ele><time>2026-04-08T14:17:51.002Z</time></trkpt><trkpt lat="41.93268864778732" lon="2.852412500856776"><ele>128.0</ele><time>2026-04-08T14:17:52.002Z</time></trkpt><trkpt lat="41.93269122695857" lon="2.852537977230976"><ele>128.0</ele><time>2026-04-08T14:17:53.002Z</time></trkpt><trkpt lat="41.93262183300743" lon="2.8526709763336906"><ele>128.0</ele><time>2026-04-08T14:17:54.002Z</time></trkpt><trkpt lat="41.93255725827992" lon="2.852836727277489"><ele>130.20000000000002</ele><time>2026-04-08T14:17:55.002Z</time></trkpt><trkpt lat="41.93250372681981" lon="2.8529849159351555"><ele>132.4</ele><time>2026-04-08T14:17:56.002Z</time></trkpt><trkpt lat="41.93241846726468" lon="2.8530587332073076"><ele>134.60000000000002</ele><time>2026-04-08T14:17:57.002Z</time></trkpt><trkpt lat="41.93232301401306" lon="2.853086350623136"><ele>136.8</ele><time>2026-04-08T14:17:58.002Z</time></trkpt><trkpt lat="41.932208435652214" lon="2.8530686567676873"><ele>139.0</ele><time>2026-04-08T14:17:59.002Z</time></trkpt><trkpt lat="41.93207062836571" lon="2.8530075450261467"><ele>139.0</ele><time>2026-04-08T14:18:00.002Z</time></trkpt><trkpt lat="41.931940981376854" lon="2.852944441779291"><ele>139.0</ele><time>2026-04-08T14:18:01.002Z</time></trkpt><trkpt lat="41.93183040850801" lon="2.8529062764208986"><ele>139.0</ele><time>2026-04-08T14:18:02.002Z</time></trkpt><trkpt lat="41.93173966540617" lon="2.8529021142153392"><ele>139.0</ele><time>2026-04-08T14:18:02.999Z</time></trkpt><trkpt lat="41.93165997857108" lon="2.8529571922648307"><ele>139.0</ele><time>2026-04-08T14:18:03.999Z</time></trkpt><trkpt lat="41.93159357605323" lon="2.853022550042731"><ele>139.5</ele><time>2026-04-08T14:18:04.999Z</time></trkpt><trkpt lat="41.93157484631257" lon="2.853159183012249"><ele>140.0</ele><time>2026-04-08T14:18:05.999Z</time></trkpt><trkpt lat="41.93159677824113" lon="2.8533060351156325"><ele>140.5</ele><time>2026-04-08T14:18:06.999Z</time></trkpt><trkpt lat="41.93168067956575" lon="2.8534462859562115"><ele>141.0</ele><time>2026-04-08T14:18:07.999Z</time></trkpt><trkpt lat="41.93175920873314" lon="2.8536209656187017"><ele>141.0</ele><time>2026-04-08T14:18:08.999Z</time></trkpt><trkpt lat="41.931875547994856" lon="2.8537682819135877"><ele>141.0</ele><time>2026-04-08T14:18:09.999Z</time></trkpt><trkpt lat="41.932006585963585" lon="2.8539074131253326"><ele>141.0</ele><time>2026-04-08T14:18:10.999Z</time></trkpt><trkpt lat="41.932168944722626" lon="2.854011101551851"><ele>141.0</ele><time>2026-04-08T14:18:11.999Z</time></trkpt><trkpt lat="41.932340573502515" lon="2.854108933517457"><ele>141.0</ele><time>2026-04-08T14:18:12.999Z</time></trkpt><trkpt lat="41.93251765294791" lon="2.85418103707936"><ele>141.0</ele><time>2026-04-08T14:18:13.999Z</time></trkpt><trkpt lat="41.93270352660239" lon="2.8542381839253568"><ele>144.33333333333334</ele><time>2026-04-08T14:18:14.999Z</time></trkpt><trkpt lat="41.93287756289778" lon="2.8542993539470776"><ele>147.66666666666669</ele><time>2026-04-08T14:18:15.999Z</time></trkpt><trkpt lat="41.933031644661185" lon="2.85438911531193"><ele>151.0</ele><time>2026-04-08T14:18:16.999Z</time></trkpt><trkpt lat="41.93315229421083" lon="2.854539621114601"><ele>151.0</ele><time>2026-04-08T14:18:17.999Z</time></trkpt><trkpt lat="41.933260339964406" lon="2.854708406151264"><ele>151.0</ele><time>2026-04-08T14:18:18.999Z</time></trkpt><trkpt lat="41.93337107412792" lon="2.854887651133961"><ele>151.0</ele><time>2026-04-08T14:18:19.999Z</time></trkpt><trkpt lat="41.933481382747715" lon="2.8550465009764885"><ele>153.0</ele><time>2026-04-08T14:18:20.999Z</time></trkpt><trkpt lat="41.93360588279409" lon="2.855172944385679"><ele>155.0</ele><time>2026-04-08T14:18:21.999Z</time></trkpt><trkpt lat="41.933730715106584" lon="2.8552352136200865"><ele>157.0</ele><time>2026-04-08T14:18:22.999Z</time></trkpt><trkpt lat="41.933827672702044" lon="2.855345559798559"><ele>159.0</ele><time>2026-04-08T14:18:24Z</time></trkpt><trkpt lat="41.93386828175257" lon="2.8555056815654853"><ele>159.0</ele><time>2026-04-08T14:18:25Z</time></trkpt><trkpt lat="41.93394521017434" lon="2.85565727895789"><ele>159.0</ele><time>2026-04-08T14:18:26Z</time></trkpt><trkpt lat="41.934028178380665" lon="2.8558143554727775"><ele>159.0</ele><time>2026-04-08T14:18:27Z</time></trkpt><trkpt lat="41.93412995466295" lon="2.855948255096776"><ele>159.0</ele><time>2026-04-08T14:18:28Z</time></trkpt><trkpt lat="41.93423869879482" lon="2.8560509810240173"><ele>160.0</ele><time>2026-04-08T14:18:29Z</time></trkpt><trkpt lat="41.93438663686779" lon="2.8561379293408335"><ele>161.0</ele><time>2026-04-08T14:18:30Z</time></trkpt><trkpt lat="41.93456591717135" lon="2.8561879256073937"><ele>162.0</ele><time>2026-04-08T14:18:31Z</time></trkpt><trkpt lat="41.93473835240899" lon="2.8562559565914767"><ele>162.0</ele><time>2026-04-08T14:18:32Z</time></trkpt><trkpt lat="41.93490671045411" lon="2.856231275734461"><ele>162.0</ele><time>2026-04-08T14:18:33Z</time></trkpt><trkpt lat="41.935074268749425" lon="2.8562281264740643"><ele>162.0</ele><time>2026-04-08T14:18:34Z</time></trkpt><trkpt lat="41.93521954621422" lon="2.856278526076718"><ele>164.66666666666666</ele><time>2026-04-08T14:18:35Z</time></trkpt><trkpt lat="41.93536939012578" lon="2.856358214638651"><ele>167.33333333333331</ele><time>2026-04-08T14:18:36Z</time></trkpt><trkpt lat="41.93551718853336" lon="2.8564597381322683"><ele>170.0</ele><time>2026-04-08T14:18:37Z</time></trkpt><trkpt lat="41.93566281744379" lon="2.856616137738885"><ele>170.0</ele><time>2026-04-08T14:18:38Z</time></trkpt><trkpt lat="41.93578988974893" lon="2.856795152376129"><ele>170.0</ele><time>2026-04-08T14:18:39Z</time></trkpt><trkpt lat="41.93590348407899" lon="2.856993357151724"><ele>170.0</ele><time>2026-04-08T14:18:40Z</time></trkpt><trkpt lat="41.93600170242617" lon="2.8571825115686957"><ele>173.0</ele><time>2026-04-08T14:18:41Z</time></trkpt><trkpt lat="41.93609648529215" lon="2.8573498081567794"><ele>176.0</ele><time>2026-04-08T14:18:42Z</time></trkpt><trkpt lat="41.9362259314482" lon="2.857477732653012"><ele>179.0</ele><time>2026-04-08T14:18:43Z</time></trkpt><trkpt lat="41.93637115219496" lon="2.8575965536230497"><ele>178.75</ele><time>2026-04-08T14:18:44Z</time></trkpt><trkpt lat="41.93651268386401" lon="2.8577183326169884"><ele>178.5</ele><time>2026-04-08T14:18:45Z</time></trkpt><trkpt lat="41.93663391510645" lon="2.8577872108908307"><ele>178.25</ele><time>2026-04-08T14:18:46Z</time></trkpt><trkpt lat="41.936713681276274" lon="2.8578979558924953"><ele>178.0</ele><time>2026-04-08T14:18:47Z</time></trkpt><trkpt lat="41.936727674061714" lon="2.858049340205222"><ele>179.5</ele><time>2026-04-08T14:18:48.001Z</time></trkpt><trkpt lat="41.93674764938476" lon="2.8582005012162073"><ele>181.0</ele><time>2026-04-08T14:18:49.001Z</time></trkpt><trkpt lat="41.93674368004769" lon="2.8583611325148435"><ele>182.5</ele><time>2026-04-08T14:18:50.001Z</time></trkpt><trkpt lat="41.93674257593882" lon="2.8585003618388187"><ele>184.0</ele><time>2026-04-08T14:18:51.001Z</time></trkpt><trkpt lat="41.936779182741454" lon="2.858647689448351"><ele>184.25</ele><time>2026-04-08T14:18:52.001Z</time></trkpt><trkpt lat="41.93688849393373" lon="2.85876177350564"><ele>184.5</ele><time>2026-04-08T14:18:53.001Z</time></trkpt><trkpt lat="41.93699297514996" lon="2.8588632272698487"><ele>184.75</ele><time>2026-04-08T14:18:54.001Z</time></trkpt><trkpt lat="41.93709708637995" lon="2.8589421992783253"><ele>185.0</ele><time>2026-04-08T14:18:55.001Z</time></trkpt><trkpt lat="41.93720710195148" lon="2.8590155123499836"><ele>185.0</ele><time>2026-04-08T14:18:56.001Z</time></trkpt><trkpt lat="41.93735394412082" lon="2.8590822986257693"><ele>185.0</ele><time>2026-04-08T14:18:57.001Z</time></trkpt><trkpt lat="41.93752458670629" lon="2.8591341445111724"><ele>185.0</ele><time>2026-04-08T14:18:58.001Z</time></trkpt><trkpt lat="41.93770486535625" lon="2.8591711859980777"><ele>186.33333333333331</ele><time>2026-04-08T14:18:59.001Z</time></trkpt><trkpt lat="41.93787575163604" lon="2.8592233171421357"><ele>187.66666666666666</ele><time>2026-04-08T14:19:00.001Z</time></trkpt><trkpt lat="41.93805406880551" lon="2.8593081371892137"><ele>189.0</ele><time>2026-04-08T14:19:01.001Z</time></trkpt><trkpt lat="41.93823352693275" lon="2.859426162226019"><ele>190.33333333333331</ele><time>2026-04-08T14:19:02.001Z</time></trkpt><trkpt lat="41.938408714616614" lon="2.8595781937881646"><ele>191.66666666666666</ele><time>2026-04-08T14:19:03.001Z</time></trkpt><trkpt lat="41.93858217298198" lon="2.8597641251000576"><ele>193.0</ele><time>2026-04-08T14:19:04.001Z</time></trkpt><trkpt lat="41.938732779969236" lon="2.8599680647267656"><ele>194.0</ele><time>2026-04-08T14:19:05.001Z</time></trkpt><trkpt lat="41.938826192863544" lon="2.8601790303706647"><ele>195.0</ele><time>2026-04-08T14:19:06.001Z</time></trkpt><trkpt lat="41.938903617924076" lon="2.860381885489912"><ele>196.0</ele><time>2026-04-08T14:19:07.001Z</time></trkpt><trkpt lat="41.93896158142361" lon="2.8605602041016254"><ele>196.0</ele><time>2026-04-08T14:19:08.001Z</time></trkpt><trkpt lat="41.93898479073832" lon="2.860692779306941"><ele>196.0</ele><time>2026-04-08T14:19:09.001Z</time></trkpt><trkpt lat="41.93898674464753" lon="2.8608051741701686"><ele>196.0</ele><time>2026-04-08T14:19:10.001Z</time></trkpt><trkpt lat="41.93894285401382" lon="2.860881176103746"><ele>196.0</ele><time>2026-04-08T14:19:11.001Z</time></trkpt><trkpt lat="41.9388803561521" lon="2.8609637376684183"><ele>196.0</ele><time>2026-04-08T14:19:12.001Z</time></trkpt><trkpt lat="41.938763343985606" lon="2.861006746085518"><ele>197.4</ele><time>2026-04-08T14:19:13.001Z</time></trkpt><trkpt lat="41.93864562364913" lon="2.8610824674123636"><ele>198.8</ele><time>2026-04-08T14:19:14.001Z</time></trkpt><trkpt lat="41.93857123979444" lon="2.861177516643868"><ele>200.20000000000002</ele><time>2026-04-08T14:19:15.001Z</time></trkpt><trkpt lat="41.93850664815814" lon="2.8612713605620135"><ele>201.60000000000002</ele><time>2026-04-08T14:19:16.001Z</time></trkpt><trkpt lat="41.93849205418528" lon="2.861401871306466"><ele>203.0</ele><time>2026-04-08T14:19:17.001Z</time></trkpt><trkpt lat="41.938537733071946" lon="2.8615538816242756"><ele>203.0</ele><time>2026-04-08T14:19:18.001Z</time></trkpt><trkpt lat="41.938603577216355" lon="2.8617147031845738"><ele>203.0</ele><time>2026-04-08T14:19:19.001Z</time></trkpt><trkpt lat="41.93869504322345" lon="2.861883888524342"><ele>203.0</ele><time>2026-04-08T14:19:20.001Z</time></trkpt><trkpt lat="41.93881983024971" lon="2.862053788602491"><ele>204.0</ele><time>2026-04-08T14:19:21.001Z</time></trkpt><trkpt lat="41.93892735265747" lon="2.862201269285827"><ele>205.0</ele><time>2026-04-08T14:19:22.001Z</time></trkpt><trkpt lat="41.93901346137124" lon="2.8623433366764055"><ele>206.0</ele><time>2026-04-08T14:19:23.002Z</time></trkpt><trkpt lat="41.939104975394" lon="2.862461084664067"><ele>207.0</ele><time>2026-04-08T14:19:24.002Z</time></trkpt><trkpt lat="41.939222979484306" lon="2.862539418136488"><ele>207.66666666666669</ele><time>2026-04-08T14:19:25.002Z</time></trkpt><trkpt lat="41.93937212949807" lon="2.862586625310945"><ele>208.33333333333334</ele><time>2026-04-08T14:19:26.002Z</time></trkpt><trkpt lat="41.93953973526225" lon="2.8626258812020926"><ele>209.0</ele><time>2026-04-08T14:19:27.002Z</time></trkpt><trkpt lat="41.93970256698235" lon="2.8626714844281094"><ele>210.66666666666669</ele><time>2026-04-08T14:19:28.002Z</time></trkpt><trkpt lat="41.93984847800001" lon="2.862725402856119"><ele>212.33333333333331</ele><time>2026-04-08T14:19:29.002Z</time></trkpt><trkpt lat="41.93998240187063" lon="2.8628050752152374"><ele>214.0</ele><time>2026-04-08T14:19:30.002Z</time></trkpt><trkpt lat="41.94010933548017" lon="2.8629336774795875"><ele>214.0</ele><time>2026-04-08T14:19:31.002Z</time></trkpt><trkpt lat="41.94023785124753" lon="2.86307555607109"><ele>214.0</ele><time>2026-04-08T14:19:32.002Z</time></trkpt><trkpt lat="41.94038802653517" lon="2.8631951623718783"><ele>214.0</ele><time>2026-04-08T14:19:33.002Z</time></trkpt><trkpt lat="41.94054587840164" lon="2.86330476751007"><ele>214.0</ele><time>2026-04-08T14:19:34.002Z</time></trkpt><trkpt lat="41.940692963621444" lon="2.863381805742673"><ele>214.0</ele><time>2026-04-08T14:19:35.002Z</time></trkpt><trkpt lat="41.940861600087295" lon="2.863419799830934"><ele>214.0</ele><time>2026-04-08T14:19:36.002Z</time></trkpt><trkpt lat="41.94105189554313" lon="2.8634317394171394"><ele>213.66666666666666</ele><time>2026-04-08T14:19:37.002Z</time></trkpt><trkpt lat="41.94123237153798" lon="2.8634451917626724"><ele>213.33333333333331</ele><time>2026-04-08T14:19:38.002Z</time></trkpt><trkpt lat="41.941407260901464" lon="2.8634964130704406"><ele>213.0</ele><time>2026-04-08T14:19:39.002Z</time></trkpt><trkpt lat="41.941585174975835" lon="2.8636039346422293"><ele>215.0</ele><time>2026-04-08T14:19:40.002Z</time></trkpt><trkpt lat="41.941786224431176" lon="2.863739488405043"><ele>217.0</ele><time>2026-04-08T14:19:41.002Z</time></trkpt><trkpt lat="41.94199857159716" lon="2.863877525655151"><ele>217.0</ele><time>2026-04-08T14:19:42.002Z</time></trkpt><trkpt lat="41.94222138963534" lon="2.864020600472824"><ele>217.0</ele><time>2026-04-08T14:19:43.002Z</time></trkpt><trkpt lat="41.942416209181005" lon="2.8641446244496613"><ele>216.0</ele><time>2026-04-08T14:19:44.002Z</time></trkpt><trkpt lat="41.94259948774174" lon="2.8642575517661193"><ele>215.0</ele><time>2026-04-08T14:19:45.002Z</time></trkpt><trkpt lat="41.94276654353932" lon="2.8643601153385756"><ele>214.0</ele><time>2026-04-08T14:19:46.002Z</time></trkpt><trkpt lat="41.94291627895815" lon="2.8644540465026105"><ele>217.0</ele><time>2026-04-08T14:19:47.002Z</time></trkpt><trkpt lat="41.94304943257079" lon="2.864549321267941"><ele>220.0</ele><time>2026-04-08T14:19:48.002Z</time></trkpt><trkpt lat="41.94316941925973" lon="2.8646820559604302"><ele>223.0</ele><time>2026-04-08T14:19:49.002Z</time></trkpt><trkpt lat="41.94327682786054" lon="2.864878484680638"><ele>223.0</ele><time>2026-04-08T14:19:50.002Z</time></trkpt><trkpt lat="41.9434135776217" lon="2.8650596067307754"><ele>223.0</ele><time>2026-04-08T14:19:51.002Z</time></trkpt><trkpt lat="41.94358191675615" lon="2.86518459911207"><ele>223.0</ele><time>2026-04-08T14:19:52.002Z</time></trkpt><trkpt lat="41.94372785896776" lon="2.8653038231305397"><ele>223.75</ele><time>2026-04-08T14:19:53.002Z</time></trkpt><trkpt lat="41.943857060710144" lon="2.865420507357271"><ele>224.5</ele><time>2026-04-08T14:19:54.002Z</time></trkpt><trkpt lat="41.94395934949631" lon="2.8655395858493624"><ele>225.25</ele><time>2026-04-08T14:19:55.002Z</time></trkpt><trkpt lat="41.944039118149846" lon="2.8656766903483533"><ele>226.0</ele><time>2026-04-08T14:19:56.002Z</time></trkpt><trkpt lat="41.94406375193194" lon="2.8658389554062085"><ele>223.25</ele><time>2026-04-08T14:19:57.002Z</time></trkpt><trkpt lat="41.94412439151516" lon="2.8659571708241773"><ele>220.5</ele><time>2026-04-08T14:19:58.002Z</time></trkpt><trkpt lat="41.94419195504999" lon="2.8660466213265314"><ele>217.75</ele><time>2026-04-08T14:19:59.002Z</time></trkpt><trkpt lat="41.944297221815596" lon="2.866095844097455"><ele>215.0</ele><time>2026-04-08T14:20:00.002Z</time></trkpt><trkpt lat="41.94443559550209" lon="2.866115591430781"><ele>215.0</ele><time>2026-04-08T14:20:01.003Z</time></trkpt><trkpt lat="41.94461720020271" lon="2.8661531488059007"><ele>215.0</ele><time>2026-04-08T14:20:02.003Z</time></trkpt><trkpt lat="41.94480299741147" lon="2.8662119075098547"><ele>215.0</ele><time>2026-04-08T14:20:03.003Z</time></trkpt><trkpt lat="41.94498573742773" lon="2.8663130271992228"><ele>216.33333333333334</ele><time>2026-04-08T14:20:04.003Z</time></trkpt><trkpt lat="41.945174483946815" lon="2.86643442017498"><ele>217.66666666666669</ele><time>2026-04-08T14:20:05.003Z</time></trkpt><trkpt lat="41.94534531794111" lon="2.866574357700754"><ele>219.0</ele><time>2026-04-08T14:20:06.003Z</time></trkpt><trkpt lat="41.94552129497916" lon="2.866693704996794"><ele>218.0</ele><time>2026-04-08T14:20:07.003Z</time></trkpt><trkpt lat="41.94572502187276" lon="2.8667920824394857"><ele>217.0</ele><time>2026-04-08T14:20:08.003Z</time></trkpt><trkpt lat="41.94593821707066" lon="2.866873710027041"><ele>216.0</ele><time>2026-04-08T14:20:08.998Z</time></trkpt><trkpt lat="41.94616640732504" lon="2.866936572837607"><ele>216.0</ele><time>2026-04-08T14:20:09.998Z</time></trkpt><trkpt lat="41.946394934316714" lon="2.866972403482164"><ele>216.0</ele><time>2026-04-08T14:20:10.999Z</time></trkpt><trkpt lat="41.94660285868435" lon="2.8669884396640146"><ele>216.0</ele><time>2026-04-08T14:20:11.999Z</time></trkpt><trkpt lat="41.94679872564949" lon="2.8670171621082705"><ele>218.0</ele><time>2026-04-08T14:20:12.999Z</time></trkpt><trkpt lat="41.94697742078764" lon="2.8670795153520734"><ele>220.0</ele><time>2026-04-08T14:20:13.999Z</time></trkpt><trkpt lat="41.947168157617575" lon="2.8671583229904303"><ele>222.0</ele><time>2026-04-08T14:20:14.999Z</time></trkpt><trkpt lat="41.94736081108526" lon="2.8672516868801945"><ele>222.0</ele><time>2026-04-08T14:20:15.999Z</time></trkpt><trkpt lat="41.9475367803144" lon="2.8673385273918965"><ele>222.0</ele><time>2026-04-08T14:20:16.999Z</time></trkpt><trkpt lat="41.94770173203794" lon="2.867415961214698"><ele>222.0</ele><time>2026-04-08T14:20:17.999Z</time></trkpt><trkpt lat="41.94785466274592" lon="2.8675013686299815"><ele>223.0</ele><time>2026-04-08T14:20:18.999Z</time></trkpt><trkpt lat="41.94798511500291" lon="2.8676144220674384"><ele>224.0</ele><time>2026-04-08T14:20:19.999Z</time></trkpt><trkpt lat="41.9480936419047" lon="2.8677990170722705"><ele>225.0</ele><time>2026-04-08T14:20:20.999Z</time></trkpt><trkpt lat="41.94823350759579" lon="2.868003749871771"><ele>217.5</ele><time>2026-04-08T14:20:21.999Z</time></trkpt><trkpt lat="41.94839889337315" lon="2.8682120430672007"><ele>210.0</ele><time>2026-04-08T14:20:22.999Z</time></trkpt><trkpt lat="41.94858126806988" lon="2.8684352390715135"><ele>216.0</ele><time>2026-04-08T14:20:23.999Z</time></trkpt><trkpt lat="41.948768386421264" lon="2.868657462652314"><ele>222.0</ele><time>2026-04-08T14:20:24.999Z</time></trkpt><trkpt lat="41.94894864415691" lon="2.8688792562560974"><ele>222.0</ele><time>2026-04-08T14:20:25.999Z</time></trkpt><trkpt lat="41.94912586828717" lon="2.8690973000674855"><ele>222.0</ele><time>2026-04-08T14:20:26.999Z</time></trkpt><trkpt lat="41.94929222677858" lon="2.869301971796256"><ele>218.5</ele><time>2026-04-08T14:20:27.999Z</time></trkpt><trkpt lat="41.94946690090732" lon="2.8695168742636"><ele>215.0</ele><time>2026-04-08T14:20:28.999Z</time></trkpt><trkpt lat="41.9496329664395" lon="2.8697205425833396"><ele>215.0</ele><time>2026-04-08T14:20:29.999Z</time></trkpt><trkpt lat="41.94979802393812" lon="2.869922392575291"><ele>215.0</ele><time>2026-04-08T14:20:30.999Z</time></trkpt><trkpt lat="41.94997579405026" lon="2.8701122055397468"><ele>217.66666666666669</ele><time>2026-04-08T14:20:31.999Z</time></trkpt><trkpt lat="41.95013997544592" lon="2.8703117530711064"><ele>220.33333333333331</ele><time>2026-04-08T14:20:33Z</time></trkpt><trkpt lat="41.950313672711886" lon="2.870495747879295"><ele>223.0</ele><time>2026-04-08T14:20:34Z</time></trkpt><trkpt lat="41.95048192991536" lon="2.8706645188556092"><ele>223.0</ele><time>2026-04-08T14:20:35Z</time></trkpt><trkpt lat="41.95063496398801" lon="2.870831914829212"><ele>223.0</ele><time>2026-04-08T14:20:36Z</time></trkpt><trkpt lat="41.95077286020803" lon="2.8710046767155943"><ele>223.0</ele><time>2026-04-08T14:20:37Z</time></trkpt><trkpt lat="41.95087222918154" lon="2.871216624624604"><ele>227.66666666666666</ele><time>2026-04-08T14:20:38Z</time></trkpt><trkpt lat="41.9509601841722" lon="2.8714403084982987"><ele>232.33333333333331</ele><time>2026-04-08T14:20:39Z</time></trkpt><trkpt lat="41.951055084965944" lon="2.871657616179797"><ele>237.0</ele><time>2026-04-08T14:20:40Z</time></trkpt><trkpt lat="41.95111166713209" lon="2.8718842615740034"><ele>238.66666666666669</ele><time>2026-04-08T14:20:41Z</time></trkpt><trkpt lat="41.95114615048676" lon="2.87209930600491"><ele>240.33333333333334</ele><time>2026-04-08T14:20:42Z</time></trkpt><trkpt lat="41.95117628126226" lon="2.872305316908705"><ele>242.0</ele><time>2026-04-08T14:20:43Z</time></trkpt><trkpt lat="41.95122341011499" lon="2.872493805905463"><ele>242.33333333333334</ele><time>2026-04-08T14:20:44Z</time></trkpt><trkpt lat="41.95129438772914" lon="2.8726630944095497"><ele>242.66666666666669</ele><time>2026-04-08T14:20:45Z</time></trkpt><trkpt lat="41.951399710698496" lon="2.872803383730703"><ele>243.0</ele><time>2026-04-08T14:20:46Z</time></trkpt><trkpt lat="41.951534179713" lon="2.8729264334226485"><ele>243.0</ele><time>2026-04-08T14:20:47Z</time></trkpt><trkpt lat="41.95165827543334" lon="2.873039514045646"><ele>243.0</ele><time>2026-04-08T14:20:48Z</time></trkpt><trkpt lat="41.95176936509421" lon="2.8731450798649503"><ele>243.0</ele><time>2026-04-08T14:20:49Z</time></trkpt><trkpt lat="41.95187026276402" lon="2.8732317289677622"><ele>243.0</ele><time>2026-04-08T14:20:50Z</time></trkpt><trkpt lat="41.95196014167625" lon="2.8733188870422186"><ele>245.0</ele><time>2026-04-08T14:20:51Z</time></trkpt><trkpt lat="41.95201562513794" lon="2.8734281966808957"><ele>247.0</ele><time>2026-04-08T14:20:52Z</time></trkpt><trkpt lat="41.952028312465046" lon="2.873544984582131"><ele>249.0</ele><time>2026-04-08T14:20:53Z</time></trkpt><trkpt lat="41.951995360260604" lon="2.873654889506281"><ele>251.0</ele><time>2026-04-08T14:20:54Z</time></trkpt><trkpt lat="41.95192722646556" lon="2.873735860831099"><ele>253.0</ele><time>2026-04-08T14:20:55Z</time></trkpt><trkpt lat="41.95183613846192" lon="2.873771961181522"><ele>253.25</ele><time>2026-04-08T14:20:56Z</time></trkpt><trkpt lat="41.951747193760106" lon="2.873738505741229"><ele>253.5</ele><time>2026-04-08T14:20:57.001Z</time></trkpt><trkpt lat="41.95166259317646" lon="2.8736354986015527"><ele>253.75</ele><time>2026-04-08T14:20:58.001Z</time></trkpt><trkpt lat="41.95153040767317" lon="2.8735305722419886"><ele>254.0</ele><time>2026-04-08T14:20:59.001Z</time></trkpt><trkpt lat="41.951378792861775" lon="2.8734051557609486"><ele>254.0</ele><time>2026-04-08T14:21:00.001Z</time></trkpt><trkpt lat="41.951209651381156" lon="2.8732788067671042"><ele>254.0</ele><time>2026-04-08T14:21:01.001Z</time></trkpt><trkpt lat="41.951020770589174" lon="2.8731554052766985"><ele>254.0</ele><time>2026-04-08T14:21:02.001Z</time></trkpt><trkpt lat="41.95086060596437" lon="2.8730414388363608"><ele>254.0</ele><time>2026-04-08T14:21:03.001Z</time></trkpt><trkpt lat="41.9507352464372" lon="2.872907842431608"><ele>254.0</ele><time>2026-04-08T14:21:04.001Z</time></trkpt><trkpt lat="41.950642641037284" lon="2.872754644322309"><ele>254.0</ele><time>2026-04-08T14:21:05.001Z</time></trkpt><trkpt lat="41.950565180548246" lon="2.8726170333865895"><ele>254.0</ele><time>2026-04-08T14:21:06.001Z</time></trkpt><trkpt lat="41.950473170781315" lon="2.872521791683899"><ele>252.25</ele><time>2026-04-08T14:21:07.001Z</time></trkpt><trkpt lat="41.950359900609776" lon="2.8724748984188686"><ele>250.5</ele><time>2026-04-08T14:21:08.001Z</time></trkpt><trkpt lat="41.95024351305502" lon="2.8724678130253807"><ele>248.75</ele><time>2026-04-08T14:21:09.001Z</time></trkpt><trkpt lat="41.95012650948516" lon="2.8724992439889445"><ele>247.0</ele><time>2026-04-08T14:21:10.001Z</time></trkpt><trkpt lat="41.95002302414262" lon="2.8725279002387607"><ele>249.5</ele><time>2026-04-08T14:21:11.001Z</time></trkpt><trkpt lat="41.949942305252854" lon="2.8726273588072506"><ele>252.0</ele><time>2026-04-08T14:21:12.001Z</time></trkpt><trkpt lat="41.94989935420812" lon="2.8727725545482055"><ele>254.5</ele><time>2026-04-08T14:21:13.001Z</time></trkpt><trkpt lat="41.94991769555753" lon="2.8729275190266232"><ele>257.0</ele><time>2026-04-08T14:21:14.001Z</time></trkpt><trkpt lat="41.949953804373514" lon="2.8731101084801027"><ele>257.0</ele><time>2026-04-08T14:21:15.001Z</time></trkpt><trkpt lat="41.94998498509904" lon="2.8733315192731093"><ele>257.0</ele><time>2026-04-08T14:21:16.001Z</time></trkpt><trkpt lat="41.950021302075506" lon="2.87354174660737"><ele>257.0</ele><time>2026-04-08T14:21:17.001Z</time></trkpt><trkpt lat="41.95006397269738" lon="2.873716114592315"><ele>257.0</ele><time>2026-04-08T14:21:18.001Z</time></trkpt><trkpt lat="41.9500664647955" lon="2.8738830428082744"><ele>257.0</ele><time>2026-04-08T14:21:19.001Z</time></trkpt><trkpt lat="41.95002925865681" lon="2.8740347128573966"><ele>257.0</ele><time>2026-04-08T14:21:20.001Z</time></trkpt><trkpt lat="41.949960189119786" lon="2.874152492372786"><ele>257.0</ele><time>2026-04-08T14:21:21.001Z</time></trkpt><trkpt lat="41.949919632529095" lon="2.8742738083841246"><ele>257.0</ele><time>2026-04-08T14:21:22.001Z</time></trkpt><trkpt lat="41.949923651912954" lon="2.8744010793079036"><ele>257.0</ele><time>2026-04-08T14:21:23.001Z</time></trkpt><trkpt lat="41.94995443476549" lon="2.874530051430444"><ele>257.0</ele><time>2026-04-08T14:21:24.001Z</time></trkpt><trkpt lat="41.950052682790655" lon="2.87460525463281"><ele>257.0</ele><time>2026-04-08T14:21:25.001Z</time></trkpt><trkpt lat="41.95016959539181" lon="2.874656406202669"><ele>257.0</ele><time>2026-04-08T14:21:26.001Z</time></trkpt><trkpt lat="41.9503160199483" lon="2.8746976383762477"><ele>259.25</ele><time>2026-04-08T14:21:27.001Z</time></trkpt><trkpt lat="41.95046252042684" lon="2.8747629981797425"><ele>261.5</ele><time>2026-04-08T14:21:28.002Z</time></trkpt><trkpt lat="41.950588599826766" lon="2.8748640934412526"><ele>263.75</ele><time>2026-04-08T14:21:29.002Z</time></trkpt><trkpt lat="41.95068843796951" lon="2.874993570317649"><ele>266.0</ele><time>2026-04-08T14:21:30.002Z</time></trkpt><trkpt lat="41.95073883094122" lon="2.8751808713138467"><ele>266.0</ele><time>2026-04-08T14:21:31.002Z</time></trkpt><trkpt lat="41.950841907790135" lon="2.875392004114596"><ele>266.0</ele><time>2026-04-08T14:21:32.002Z</time></trkpt><trkpt lat="41.95099853017683" lon="2.8755742309264183"><ele>266.0</ele><time>2026-04-08T14:21:33.002Z</time></trkpt><trkpt lat="41.951175960671584" lon="2.875770867259403"><ele>270.33333333333337</ele><time>2026-04-08T14:21:34.002Z</time></trkpt><trkpt lat="41.95132660443595" lon="2.8759861351238376"><ele>274.6666666666667</ele><time>2026-04-08T14:21:35.002Z</time></trkpt><trkpt lat="41.9514320237536" lon="2.8762118550042577"><ele>279.0</ele><time>2026-04-08T14:21:36.002Z</time></trkpt><trkpt lat="41.95153495261694" lon="2.876411213846585"><ele>279.0</ele><time>2026-04-08T14:21:37.002Z</time></trkpt><trkpt lat="41.95161793860899" lon="2.8766131437736577"><ele>279.0</ele><time>2026-04-08T14:21:38.002Z</time></trkpt><trkpt lat="41.9516764612175" lon="2.876804732404614"><ele>279.0</ele><time>2026-04-08T14:21:39.002Z</time></trkpt><trkpt lat="41.95176582722269" lon="2.8769581832376536"><ele>280.3333333333333</ele><time>2026-04-08T14:21:40.002Z</time></trkpt><trkpt lat="41.95187081650673" lon="2.877087485592582"><ele>281.66666666666663</ele><time>2026-04-08T14:21:41.002Z</time></trkpt><trkpt lat="41.95200310165299" lon="2.87717936175566"><ele>283.0</ele><time>2026-04-08T14:21:42.002Z</time></trkpt><trkpt lat="41.95215615012947" lon="2.8772569330415396"><ele>283.0</ele><time>2026-04-08T14:21:43.002Z</time></trkpt><trkpt lat="41.95233813365266" lon="2.877313603093537"><ele>283.0</ele><time>2026-04-08T14:21:44.002Z</time></trkpt><trkpt lat="41.95251643832016" lon="2.8773481752244305"><ele>283.0</ele><time>2026-04-08T14:21:45.002Z</time></trkpt><trkpt lat="41.952678270671115" lon="2.8773613959305595"><ele>284.25</ele><time>2026-04-08T14:21:46.002Z</time></trkpt><trkpt lat="41.95282718293141" lon="2.8774014664173713"><ele>285.5</ele><time>2026-04-08T14:21:47.002Z</time></trkpt><trkpt lat="41.95296922012737" lon="2.8774364229801432"><ele>286.75</ele><time>2026-04-08T14:21:48.002Z</time></trkpt><trkpt lat="41.95310263423523" lon="2.8774530436357932"><ele>288.0</ele><time>2026-04-08T14:21:49.002Z</time></trkpt><trkpt lat="41.95321831207263" lon="2.8775070075793767"><ele>288.0</ele><time>2026-04-08T14:21:50.002Z</time></trkpt><trkpt lat="41.953295942483194" lon="2.877581344578577"><ele>288.0</ele><time>2026-04-08T14:21:51.002Z</time></trkpt><trkpt lat="41.95334561756173" lon="2.8776830779877303"><ele>288.0</ele><time>2026-04-08T14:21:52.002Z</time></trkpt><trkpt lat="41.95336517926967" lon="2.877802328230242"><ele>288.0</ele><time>2026-04-08T14:21:53.002Z</time></trkpt><trkpt lat="41.953349316383054" lon="2.87792641184478"><ele>288.0</ele><time>2026-04-08T14:21:54.002Z</time></trkpt><trkpt lat="41.95328570273244" lon="2.878041531682472"><ele>290.2</ele><time>2026-04-08T14:21:55.002Z</time></trkpt><trkpt lat="41.9531942335312" lon="2.878148929542312"><ele>292.4</ele><time>2026-04-08T14:21:56.002Z</time></trkpt><trkpt lat="41.95314388599696" lon="2.878267184695566"><ele>294.59999999999997</ele><time>2026-04-08T14:21:57.002Z</time></trkpt><trkpt lat="41.953120172879956" lon="2.8783926271845424"><ele>296.8</ele><time>2026-04-08T14:21:58.002Z</time></trkpt><trkpt lat="41.953146154295794" lon="2.8785286074817784"><ele>299.0</ele><time>2026-04-08T14:21:59.002Z</time></trkpt><trkpt lat="41.95320742435324" lon="2.878642876817177"><ele>300.25</ele><time>2026-04-08T14:22:00.002Z</time></trkpt><trkpt lat="41.95329885507223" lon="2.878730228076137"><ele>301.5</ele><time>2026-04-08T14:22:01.003Z</time></trkpt><trkpt lat="41.95342073788254" lon="2.878796931227762"><ele>302.75</ele><time>2026-04-08T14:22:02.003Z</time></trkpt><trkpt lat="41.95355270771137" lon="2.878857290260243"><ele>304.0</ele><time>2026-04-08T14:22:03.003Z</time></trkpt><trkpt lat="41.953659151995275" lon="2.8789245485746124"><ele>306.4</ele><time>2026-04-08T14:22:04.003Z</time></trkpt><trkpt lat="41.953747839668814" lon="2.878999756437361"><ele>308.79999999999995</ele><time>2026-04-08T14:22:05.003Z</time></trkpt><trkpt lat="41.953791187590674" lon="2.879125076378894"><ele>311.20000000000005</ele><time>2026-04-08T14:22:06.003Z</time></trkpt><trkpt lat="41.9538054738108" lon="2.87923133855254"><ele>313.6</ele><time>2026-04-08T14:22:07.003Z</time></trkpt><trkpt lat="41.95379419798378" lon="2.8793450915227945"><ele>316.0</ele><time>2026-04-08T14:22:08.003Z</time></trkpt><trkpt lat="41.95372338069588" lon="2.879425243360397"><ele>316.2</ele><time>2026-04-08T14:22:09.003Z</time></trkpt><trkpt lat="41.953643806408586" lon="2.8794621553580533"><ele>316.40000000000003</ele><time>2026-04-08T14:22:10.003Z</time></trkpt><trkpt lat="41.95355188944289" lon="2.8794678234642777"><ele>316.6</ele><time>2026-04-08T14:22:11.003Z</time></trkpt><trkpt lat="41.953445190696634" lon="2.8794351164913756"><ele>316.8</ele><time>2026-04-08T14:22:12.003Z</time></trkpt><trkpt lat="41.95332057515683" lon="2.879432305277387"><ele>317.0</ele><time>2026-04-08T14:22:13.003Z</time></trkpt><trkpt lat="41.95321399290644" lon="2.8794736559016276"><ele>317.0</ele><time>2026-04-08T14:22:14.003Z</time></trkpt><trkpt lat="41.95312715772208" lon="2.879555830718577"><ele>317.0</ele><time>2026-04-08T14:22:14.999Z</time></trkpt><trkpt lat="41.95307827542517" lon="2.8796798603198273"><ele>317.0</ele><time>2026-04-08T14:22:15.999Z</time></trkpt><trkpt lat="41.9530813176835" lon="2.8798192591839302"><ele>317.0</ele><time>2026-04-08T14:22:16.999Z</time></trkpt><trkpt lat="41.9531257283893" lon="2.879970349696932"><ele>317.0</ele><time>2026-04-08T14:22:17.999Z</time></trkpt><trkpt lat="41.953200322167554" lon="2.880135588391967"><ele>318.33333333333337</ele><time>2026-04-08T14:22:18.999Z</time></trkpt><trkpt lat="41.953286978276935" lon="2.8803403721717227"><ele>319.6666666666667</ele><time>2026-04-08T14:22:19.999Z</time></trkpt><trkpt lat="41.953332601756934" lon="2.8805923330337504"><ele>321.0</ele><time>2026-04-08T14:22:20.999Z</time></trkpt><trkpt lat="41.95336528454372" lon="2.880843051719361"><ele>320.75</ele><time>2026-04-08T14:22:21.999Z</time></trkpt><trkpt lat="41.95341704313108" lon="2.8810502860459937"><ele>320.5</ele><time>2026-04-08T14:22:22.999Z</time></trkpt><trkpt lat="41.953432305827285" lon="2.881245338579564"><ele>320.25</ele><time>2026-04-08T14:22:23.999Z</time></trkpt><trkpt lat="41.95344350057395" lon="2.8814162727525883"><ele>320.0</ele><time>2026-04-08T14:22:24.999Z</time></trkpt><trkpt lat="41.95347632550442" lon="2.8815699556244336"><ele>320.0</ele><time>2026-04-08T14:22:25.999Z</time></trkpt><trkpt lat="41.953507464131434" lon="2.881711576785941"><ele>320.0</ele><time>2026-04-08T14:22:27Z</time></trkpt><trkpt lat="41.95361334222845" lon="2.8818137959886245"><ele>320.0</ele><time>2026-04-08T14:22:28Z</time></trkpt><trkpt lat="41.953735074335405" lon="2.8818982688662866"><ele>320.0</ele><time>2026-04-08T14:22:29Z</time></trkpt><trkpt lat="41.953855099180345" lon="2.881992677152584"><ele>321.75</ele><time>2026-04-08T14:22:30Z</time></trkpt><trkpt lat="41.95395149578391" lon="2.8821129576935167"><ele>323.5</ele><time>2026-04-08T14:22:31Z</time></trkpt><trkpt lat="41.95402389252824" lon="2.8822586951290856"><ele>325.25</ele><time>2026-04-08T14:22:32Z</time></trkpt><trkpt lat="41.95407840188706" lon="2.882432345673281"><ele>327.0</ele><time>2026-04-08T14:22:33Z</time></trkpt><trkpt lat="41.95411495263964" lon="2.882608372644039"><ele>327.0</ele><time>2026-04-08T14:22:34Z</time></trkpt><trkpt lat="41.95412851184956" lon="2.882762515684106"><ele>327.0</ele><time>2026-04-08T14:22:35Z</time></trkpt><trkpt lat="41.954129737807975" lon="2.882888722791863"><ele>327.0</ele><time>2026-04-08T14:22:36Z</time></trkpt><trkpt lat="41.95410775793947" lon="2.8829881325176445"><ele>327.0</ele><time>2026-04-08T14:22:37Z</time></trkpt><trkpt lat="41.954045122221494" lon="2.883065743409561"><ele>327.0</ele><time>2026-04-08T14:22:38Z</time></trkpt><trkpt lat="41.95393176860548" lon="2.8831170528680437"><ele>327.0</ele><time>2026-04-08T14:22:39Z</time></trkpt><trkpt lat="41.953816270982124" lon="2.883213398516288"><ele>327.0</ele><time>2026-04-08T14:22:40Z</time></trkpt><trkpt lat="41.9537138178284" lon="2.883289425141341"><ele>327.0</ele><time>2026-04-08T14:22:41Z</time></trkpt><trkpt lat="41.953658972173955" lon="2.883421644521915"><ele>327.0</ele><time>2026-04-08T14:22:42Z</time></trkpt><trkpt lat="41.95360730947843" lon="2.8835592404193324"><ele>326.0</ele><time>2026-04-08T14:22:43Z</time></trkpt><trkpt lat="41.9536217406216" lon="2.883742169525656"><ele>325.0</ele><time>2026-04-08T14:22:44Z</time></trkpt><trkpt lat="41.95365697489054" lon="2.883942467771918"><ele>324.0</ele><time>2026-04-08T14:22:45Z</time></trkpt><trkpt lat="41.95367895613108" lon="2.88411817457263"><ele>323.0</ele><time>2026-04-08T14:22:46Z</time></trkpt><trkpt lat="41.9536843387638" lon="2.8842850023707762"><ele>323.0</ele><time>2026-04-08T14:22:47Z</time></trkpt><trkpt lat="41.953624036750824" lon="2.8844601426906986"><ele>323.0</ele><time>2026-04-08T14:22:48Z</time></trkpt><trkpt lat="41.95359661942804" lon="2.884643377837452"><ele>323.0</ele><time>2026-04-08T14:22:49Z</time></trkpt><trkpt lat="41.95356238335636" lon="2.88479807740208"><ele>323.0</ele><time>2026-04-08T14:22:50.001Z</time></trkpt><trkpt lat="41.95359686241985" lon="2.8849536727666285"><ele>323.0</ele><time>2026-04-08T14:22:51.001Z</time></trkpt><trkpt lat="41.95366789252238" lon="2.885083196095011"><ele>323.0</ele><time>2026-04-08T14:22:52.001Z</time></trkpt><trkpt lat="41.9537874992111" lon="2.8851809488686655"><ele>323.0</ele><time>2026-04-08T14:22:53.001Z</time></trkpt><trkpt lat="41.95387771729431" lon="2.88528349226455"><ele>323.0</ele><time>2026-04-08T14:22:54.001Z</time></trkpt><trkpt lat="41.95396747236168" lon="2.885351539031086"><ele>325.2</ele><time>2026-04-08T14:22:55.001Z</time></trkpt><trkpt lat="41.95400911667788" lon="2.8854582036526226"><ele>327.4</ele><time>2026-04-08T14:22:56.001Z</time></trkpt><trkpt lat="41.954014392007664" lon="2.885594447212389"><ele>329.59999999999997</ele><time>2026-04-08T14:22:57.001Z</time></trkpt><trkpt lat="41.95396693882807" lon="2.8857246754370602"><ele>331.79999999999995</ele><time>2026-04-08T14:22:58.001Z</time></trkpt><trkpt lat="41.95389358036227" lon="2.8858583759608725"><ele>334.0</ele><time>2026-04-08T14:22:59.001Z</time></trkpt><trkpt lat="41.9538083403673" lon="2.8860252108201236"><ele>334.75</ele><time>2026-04-08T14:23:00.001Z</time></trkpt><trkpt lat="41.95372123446687" lon="2.8861607519960732"><ele>335.5</ele><time>2026-04-08T14:23:01.001Z</time></trkpt><trkpt lat="41.95366948034301" lon="2.886297398273957"><ele>336.25</ele><time>2026-04-08T14:23:02.001Z</time></trkpt><trkpt lat="41.95363538268038" lon="2.886424328559608"><ele>337.0</ele><time>2026-04-08T14:23:03.001Z</time></trkpt><trkpt lat="41.953659088847004" lon="2.886558705133203"><ele>337.0</ele><time>2026-04-08T14:23:04.001Z</time></trkpt><trkpt lat="41.95370759271711" lon="2.8867167704836683"><ele>337.0</ele><time>2026-04-08T14:23:05.001Z</time></trkpt><trkpt lat="41.95381705542836" lon="2.8868560653434563"><ele>337.0</ele><time>2026-04-08T14:23:06.001Z</time></trkpt><trkpt lat="41.95391901342556" lon="2.886999885263147"><ele>337.0</ele><time>2026-04-08T14:23:07.001Z</time></trkpt><trkpt lat="41.95400368761362" lon="2.8871329740809406"><ele>340.25</ele><time>2026-04-08T14:23:08.001Z</time></trkpt><trkpt lat="41.95407238904657" lon="2.8872692788947094"><ele>343.5</ele><time>2026-04-08T14:23:09.001Z</time></trkpt><trkpt lat="41.954106887560705" lon="2.8874176872413"><ele>346.75</ele><time>2026-04-08T14:23:10.001Z</time></trkpt><trkpt lat="41.95412470393954" lon="2.8875857918112504"><ele>350.0</ele><time>2026-04-08T14:23:11.001Z</time></trkpt><trkpt lat="41.954125690322975" lon="2.887742798706431"><ele>350.0</ele><time>2026-04-08T14:23:12.001Z</time></trkpt><trkpt lat="41.95411516778521" lon="2.8878997280070915"><ele>350.0</ele><time>2026-04-08T14:23:13.001Z</time></trkpt><trkpt lat="41.95405583956642" lon="2.888036037250037"><ele>350.0</ele><time>2026-04-08T14:23:14.001Z</time></trkpt><trkpt lat="41.954003081542275" lon="2.888214300798649"><ele>350.0</ele><time>2026-04-08T14:23:15.001Z</time></trkpt><trkpt lat="41.9539915451165" lon="2.8884377603566547"><ele>350.33333333333337</ele><time>2026-04-08T14:23:16.001Z</time></trkpt><trkpt lat="41.95399969720315" lon="2.8886623144430623"><ele>350.6666666666667</ele><time>2026-04-08T14:23:17.001Z</time></trkpt><trkpt lat="41.95397109372506" lon="2.8888863062415626"><ele>351.0</ele><time>2026-04-08T14:23:18.002Z</time></trkpt><trkpt lat="41.95389644828988" lon="2.889090106246251"><ele>351.3333333333333</ele><time>2026-04-08T14:23:19.002Z</time></trkpt><trkpt lat="41.953858203496075" lon="2.889307796198504"><ele>351.66666666666663</ele><time>2026-04-08T14:23:20.002Z</time></trkpt><trkpt lat="41.95383974601959" lon="2.88951198881576"><ele>352.0</ele><time>2026-04-08T14:23:21.002Z</time></trkpt><trkpt lat="41.953857578887686" lon="2.8896860248456506"><ele>352.0</ele><time>2026-04-08T14:23:22.002Z</time></trkpt><trkpt lat="41.95391542802121" lon="2.8898247863545223"><ele>352.0</ele><time>2026-04-08T14:23:23.002Z</time></trkpt><trkpt lat="41.95396651343952" lon="2.889988555601906"><ele>352.0</ele><time>2026-04-08T14:23:24.002Z</time></trkpt><trkpt lat="41.954013291940896" lon="2.8901642484780576"><ele>352.0</ele><time>2026-04-08T14:23:25.002Z</time></trkpt><trkpt lat="41.95404593190474" lon="2.890349409570123"><ele>350.66666666666663</ele><time>2026-04-08T14:23:26.002Z</time></trkpt><trkpt lat="41.95410328874011" lon="2.8905360889820497"><ele>349.3333333333333</ele><time>2026-04-08T14:23:27.002Z</time></trkpt><trkpt lat="41.95418108477832" lon="2.890739444791671"><ele>348.0</ele><time>2026-04-08T14:23:28.002Z</time></trkpt><trkpt lat="41.954274498669946" lon="2.890939813352292"><ele>348.0</ele><time>2026-04-08T14:23:29.002Z</time></trkpt><trkpt lat="41.95435264074735" lon="2.891184142850678"><ele>348.0</ele><time>2026-04-08T14:23:30.002Z</time></trkpt><trkpt lat="41.95444086283911" lon="2.8914059539896946"><ele>348.0</ele><time>2026-04-08T14:23:31.002Z</time></trkpt><trkpt lat="41.9545270648695" lon="2.891604510322297"><ele>350.6666666666667</ele><time>2026-04-08T14:23:32.002Z</time></trkpt><trkpt lat="41.954610083523946" lon="2.8918024787007965"><ele>353.33333333333337</ele><time>2026-04-08T14:23:33.002Z</time></trkpt><trkpt lat="41.95467667769629" lon="2.8920144047426493"><ele>356.0</ele><time>2026-04-08T14:23:34.002Z</time></trkpt><trkpt lat="41.95473144662137" lon="2.892246329690768"><ele>356.0</ele><time>2026-04-08T14:23:35.002Z</time></trkpt><trkpt lat="41.95476772090422" lon="2.8924909379890273"><ele>356.0</ele><time>2026-04-08T14:23:36.002Z</time></trkpt><trkpt lat="41.954793744931294" lon="2.8927397908090096"><ele>356.0</ele><time>2026-04-08T14:23:37.002Z</time></trkpt><trkpt lat="41.95483428948124" lon="2.8929695498069092"><ele>356.0</ele><time>2026-04-08T14:23:38.002Z</time></trkpt><trkpt lat="41.95483101165699" lon="2.893181726529669"><ele>356.0</ele><time>2026-04-08T14:23:39.002Z</time></trkpt><trkpt lat="41.95479021355319" lon="2.8933838665139473"><ele>356.0</ele><time>2026-04-08T14:23:40.002Z</time></trkpt><trkpt lat="41.95473930496759" lon="2.89358638400887"><ele>356.6666666666667</ele><time>2026-04-08T14:23:41.002Z</time></trkpt><trkpt lat="41.95466897039698" lon="2.893810476505971"><ele>357.3333333333333</ele><time>2026-04-08T14:23:42.002Z</time></trkpt><trkpt lat="41.954604827234526" lon="2.894009372122871"><ele>358.0</ele><time>2026-04-08T14:23:43.002Z</time></trkpt><trkpt lat="41.954546170515215" lon="2.8942030584094502"><ele>357.0</ele><time>2026-04-08T14:23:44.002Z</time></trkpt><trkpt lat="41.954488310081935" lon="2.894373973870719"><ele>356.0</ele><time>2026-04-08T14:23:45.002Z</time></trkpt><trkpt lat="41.95444785237341" lon="2.8945422741491393"><ele>355.0</ele><time>2026-04-08T14:23:46.002Z</time></trkpt><trkpt lat="41.95444044512954" lon="2.8947302361820144"><ele>354.0</ele><time>2026-04-08T14:23:47.002Z</time></trkpt><trkpt lat="41.95447684909659" lon="2.8949377512378462"><ele>352.6666666666667</ele><time>2026-04-08T14:23:48.002Z</time></trkpt><trkpt lat="41.95451731448377" lon="2.895137346514125"><ele>351.33333333333337</ele><time>2026-04-08T14:23:49.002Z</time></trkpt><trkpt lat="41.954516569205694" lon="2.8953536392794534"><ele>350.0</ele><time>2026-04-08T14:23:50.003Z</time></trkpt><trkpt lat="41.95449210767942" lon="2.8955842955596394"><ele>350.0</ele><time>2026-04-08T14:23:51.003Z</time></trkpt><trkpt lat="41.954472611382535" lon="2.8957902559865762"><ele>350.0</ele><time>2026-04-08T14:23:52.003Z</time></trkpt><trkpt lat="41.95446500299413" lon="2.8959862725198553"><ele>350.0</ele><time>2026-04-08T14:23:53.003Z</time></trkpt><trkpt lat="41.954486635985" lon="2.8961770095514043"><ele>350.0</ele><time>2026-04-08T14:23:54.003Z</time></trkpt><trkpt lat="41.954547195456" lon="2.896361087934097"><ele>352.0</ele><time>2026-04-08T14:23:55.003Z</time></trkpt><trkpt lat="41.954641417277074" lon="2.896513066764812"><ele>354.0</ele><time>2026-04-08T14:23:56.003Z</time></trkpt><trkpt lat="41.95469367649624" lon="2.896691187641403"><ele>356.0</ele><time>2026-04-08T14:23:57.003Z</time></trkpt><trkpt lat="41.95471207711327" lon="2.8968862043529153"><ele>358.0</ele><time>2026-04-08T14:23:58.003Z</time></trkpt><trkpt lat="41.954742396650964" lon="2.8971147033192914"><ele>359.66666666666663</ele><time>2026-04-08T14:23:59.003Z</time></trkpt><trkpt lat="41.95477964352713" lon="2.897350512180982"><ele>361.3333333333333</ele><time>2026-04-08T14:24:00.003Z</time></trkpt><trkpt lat="41.95481900130791" lon="2.8975870085148223"><ele>363.0</ele><time>2026-04-08T14:24:01.003Z</time></trkpt><trkpt lat="41.95486387553457" lon="2.897813446889231"><ele>364.6666666666667</ele><time>2026-04-08T14:24:02.003Z</time></trkpt><trkpt lat="41.95491521696363" lon="2.898025122434339"><ele>366.33333333333337</ele><time>2026-04-08T14:24:03.003Z</time></trkpt><trkpt lat="41.954955989378355" lon="2.898216880525952"><ele>368.0</ele><time>2026-04-08T14:24:04.003Z</time></trkpt><trkpt lat="41.954973950484536" lon="2.8984020655741856"><ele>368.75</ele><time>2026-04-08T14:24:05.003Z</time></trkpt><trkpt lat="41.954961125683866" lon="2.8985766277938776"><ele>369.5</ele><time>2026-04-08T14:24:06.003Z</time></trkpt><trkpt lat="41.954958282841964" lon="2.898742601685887"><ele>370.25</ele><time>2026-04-08T14:24:07.003Z</time></trkpt><trkpt lat="41.954947337134236" lon="2.89888352051513"><ele>371.0</ele><time>2026-04-08T14:24:08.003Z</time></trkpt><trkpt lat="41.95495897850867" lon="2.8990128302248968"><ele>371.0</ele><time>2026-04-08T14:24:09.003Z</time></trkpt><trkpt lat="41.955025572403194" lon="2.899121023636293"><ele>371.0</ele><time>2026-04-08T14:24:10.003Z</time></trkpt><trkpt lat="41.955126541221055" lon="2.899208465246257"><ele>371.0</ele><time>2026-04-08T14:24:11.003Z</time></trkpt><trkpt lat="41.955242536815106" lon="2.8993013066485296"><ele>371.0</ele><time>2026-04-08T14:24:12.003Z</time></trkpt><trkpt lat="41.955344975402355" lon="2.8994080257137544"><ele>373.20000000000005</ele><time>2026-04-08T14:24:13.003Z</time></trkpt><trkpt lat="41.95543797180856" lon="2.8995013766954987"><ele>375.40000000000003</ele><time>2026-04-08T14:24:14.003Z</time></trkpt><trkpt lat="41.95548929940149" lon="2.899629508199194"><ele>377.6</ele><time>2026-04-08T14:24:15.003Z</time></trkpt><trkpt lat="41.955503646733604" lon="2.89976118397333"><ele>379.8</ele><time>2026-04-08T14:24:16.003Z</time></trkpt><trkpt lat="41.95549282941209" lon="2.899899695336128"><ele>382.0</ele><time>2026-04-08T14:24:17.003Z</time></trkpt><trkpt lat="41.95542423800913" lon="2.9000229679335066"><ele>384.20000000000005</ele><time>2026-04-08T14:24:18.003Z</time></trkpt><trkpt lat="41.95534560685082" lon="2.90012864162602"><ele>386.4</ele><time>2026-04-08T14:24:19.003Z</time></trkpt><trkpt lat="41.955269548122835" lon="2.900251207579412"><ele>388.6</ele><time>2026-04-08T14:24:20.003Z</time></trkpt><trkpt lat="41.95521740845642" lon="2.900368230329435"><ele>390.79999999999995</ele><time>2026-04-08T14:24:21Z</time></trkpt><trkpt lat="41.95520483952568" lon="2.900517743447828"><ele>393.0</ele><time>2026-04-08T14:24:22Z</time></trkpt><trkpt lat="41.955227054558996" lon="2.90070737373926"><ele>393.0</ele><time>2026-04-08T14:24:23Z</time></trkpt><trkpt lat="41.955248553368115" lon="2.900892655471333"><ele>393.0</ele><time>2026-04-08T14:24:24Z</time></trkpt><trkpt lat="41.955265843816214" lon="2.901055632257126"><ele>393.0</ele><time>2026-04-08T14:24:25Z</time></trkpt><trkpt lat="41.95528251956727" lon="2.901201470523705"><ele>393.0</ele><time>2026-04-08T14:24:26Z</time></trkpt><trkpt lat="41.95523615860332" lon="2.901338599356808"><ele>391.75</ele><time>2026-04-08T14:24:27Z</time></trkpt><trkpt lat="41.95515436819073" lon="2.9014685556332425"><ele>390.5</ele><time>2026-04-08T14:24:28Z</time></trkpt><trkpt lat="41.955072221297876" lon="2.901593725398385"><ele>389.25</ele><time>2026-04-08T14:24:29Z</time></trkpt><trkpt lat="41.95501554869032" lon="2.901744494218272"><ele>388.0</ele><time>2026-04-08T14:24:30Z</time></trkpt><trkpt lat="41.954978572471205" lon="2.9019267081002544"><ele>388.0</ele><time>2026-04-08T14:24:31Z</time></trkpt><trkpt lat="41.95492922234219" lon="2.902104040038192"><ele>388.0</ele><time>2026-04-08T14:24:32Z</time></trkpt><trkpt lat="41.954841409550724" lon="2.902277368493575"><ele>388.0</ele><time>2026-04-08T14:24:33Z</time></trkpt><trkpt lat="41.95472372636844" lon="2.9024489489862275"><ele>392.0</ele><time>2026-04-08T14:24:34Z</time></trkpt><trkpt lat="41.95460858970634" lon="2.9026178010177333"><ele>396.0</ele><time>2026-04-08T14:24:35Z</time></trkpt><trkpt lat="41.95449682256105" lon="2.9027696095324873"><ele>400.0</ele><time>2026-04-08T14:24:36Z</time></trkpt><trkpt lat="41.954371206840996" lon="2.9028910571571327"><ele>400.0</ele><time>2026-04-08T14:24:37Z</time></trkpt><trkpt lat="41.95423351711599" lon="2.9029754334810196"><ele>400.0</ele><time>2026-04-08T14:24:38Z</time></trkpt><trkpt lat="41.95411064625051" lon="2.903034331104686"><ele>400.0</ele><time>2026-04-08T14:24:39Z</time></trkpt><trkpt lat="41.95398986642042" lon="2.903049974538652"><ele>400.0</ele><time>2026-04-08T14:24:40Z</time></trkpt><trkpt lat="41.95389626926756" lon="2.9030929017039564"><ele>396.25</ele><time>2026-04-08T14:24:41Z</time></trkpt><trkpt lat="41.953820131421814" lon="2.9031878215398765"><ele>392.5</ele><time>2026-04-08T14:24:42Z</time></trkpt><trkpt lat="41.95375715286883" lon="2.9033189204178114"><ele>388.75</ele><time>2026-04-08T14:24:43Z</time></trkpt><trkpt lat="41.953700298804804" lon="2.9034721689899747"><ele>385.0</ele><time>2026-04-08T14:24:44Z</time></trkpt><trkpt lat="41.95362962305258" lon="2.903622380938968"><ele>385.0</ele><time>2026-04-08T14:24:45Z</time></trkpt><trkpt lat="41.95357745273074" lon="2.9037539644899204"><ele>385.0</ele><time>2026-04-08T14:24:46Z</time></trkpt><trkpt lat="41.95353074268834" lon="2.9038689814681002"><ele>385.0</ele><time>2026-04-08T14:24:47Z</time></trkpt><trkpt lat="41.95353674517077" lon="2.904018418584907"><ele>385.0</ele><time>2026-04-08T14:24:48Z</time></trkpt><trkpt lat="41.95358934343933" lon="2.904187595091902"><ele>382.0</ele><time>2026-04-08T14:24:49Z</time></trkpt><trkpt lat="41.95366161047153" lon="2.90435924833357"><ele>379.0</ele><time>2026-04-08T14:24:50Z</time></trkpt><trkpt lat="41.95378727813275" lon="2.9045133777299665"><ele>376.0</ele><time>2026-04-08T14:24:51Z</time></trkpt><trkpt lat="41.953911524686816" lon="2.904673363843949"><ele>376.0</ele><time>2026-04-08T14:24:52.001Z</time></trkpt><trkpt lat="41.95403154425466" lon="2.9048046956699896"><ele>376.0</ele><time>2026-04-08T14:24:53.001Z</time></trkpt><trkpt lat="41.95413390389781" lon="2.904926182449996"><ele>376.0</ele><time>2026-04-08T14:24:54.001Z</time></trkpt><trkpt lat="41.954203563107974" lon="2.905051713311617"><ele>376.0</ele><time>2026-04-08T14:24:55.001Z</time></trkpt><trkpt lat="41.9542286627353" lon="2.9051865955773173"><ele>379.75</ele><time>2026-04-08T14:24:56.001Z</time></trkpt><trkpt lat="41.95422984351262" lon="2.9053190255818704"><ele>383.5</ele><time>2026-04-08T14:24:57.001Z</time></trkpt><trkpt lat="41.954249223651246" lon="2.9054668434398336"><ele>387.25</ele><time>2026-04-08T14:24:58.001Z</time></trkpt><trkpt lat="41.9543173491401" lon="2.905622163015815"><ele>391.0</ele><time>2026-04-08T14:24:59.001Z</time></trkpt><trkpt lat="41.95443844932282" lon="2.905763006916265"><ele>385.33333333333337</ele><time>2026-04-08T14:25:00.001Z</time></trkpt><trkpt lat="41.954503946333546" lon="2.9059514956917525"><ele>379.6666666666667</ele><time>2026-04-08T14:25:01.001Z</time></trkpt><trkpt lat="41.95455482584747" lon="2.906153283009674"><ele>374.0</ele><time>2026-04-08T14:25:02.001Z</time></trkpt><trkpt lat="41.95463730704816" lon="2.9063397430125204"><ele>374.0</ele><time>2026-04-08T14:25:03.001Z</time></trkpt><trkpt lat="41.95472812649467" lon="2.90653524705681"><ele>374.0</ele><time>2026-04-08T14:25:04.001Z</time></trkpt><trkpt lat="41.95482889760865" lon="2.9067130996727126"><ele>374.0</ele><time>2026-04-08T14:25:05.001Z</time></trkpt><trkpt lat="41.954921808463425" lon="2.9068757870917183"><ele>373.75</ele><time>2026-04-08T14:25:06.001Z</time></trkpt><trkpt lat="41.9550057915803" lon="2.907032570133059"><ele>373.5</ele><time>2026-04-08T14:25:07.001Z</time></trkpt><trkpt lat="41.955135049035434" lon="2.907137052846914"><ele>373.25</ele><time>2026-04-08T14:25:08.001Z</time></trkpt><trkpt lat="41.955268677803716" lon="2.9072282433649987"><ele>373.0</ele><time>2026-04-08T14:25:09.001Z</time></trkpt><trkpt lat="41.95536694252662" lon="2.9073499973728607"><ele>373.0</ele><time>2026-04-08T14:25:10.001Z</time></trkpt><trkpt lat="41.9554435657468" lon="2.907484818257008"><ele>373.0</ele><time>2026-04-08T14:25:11.001Z</time></trkpt><trkpt lat="41.95549709306523" lon="2.907680694771874"><ele>373.0</ele><time>2026-04-08T14:25:12.001Z</time></trkpt><trkpt lat="41.95558837856461" lon="2.9078953228241717"><ele>369.75</ele><time>2026-04-08T14:25:13.001Z</time></trkpt><trkpt lat="41.9557040630781" lon="2.9080616224571876"><ele>366.5</ele><time>2026-04-08T14:25:14.001Z</time></trkpt><trkpt lat="41.95580528130647" lon="2.9082109717982627"><ele>363.25</ele><time>2026-04-08T14:25:15.001Z</time></trkpt><trkpt lat="41.95586889396181" lon="2.908360045978253"><ele>360.0</ele><time>2026-04-08T14:25:16.001Z</time></trkpt><trkpt lat="41.95591129781377" lon="2.908515184511747"><ele>357.25</ele><time>2026-04-08T14:25:17.001Z</time></trkpt><trkpt lat="41.95591211412226" lon="2.9086857034907485"><ele>354.5</ele><time>2026-04-08T14:25:18.001Z</time></trkpt><trkpt lat="41.95589496066614" lon="2.908844453713253"><ele>351.75</ele><time>2026-04-08T14:25:19.001Z</time></trkpt><trkpt lat="41.955875859596745" lon="2.908988670764291"><ele>349.0</ele><time>2026-04-08T14:25:20.001Z</time></trkpt><trkpt lat="41.955883385410026" lon="2.9091196255301752"><ele>349.0</ele><time>2026-04-08T14:25:21.001Z</time></trkpt><trkpt lat="41.95591843213472" lon="2.909228846599195"><ele>349.0</ele><time>2026-04-08T14:25:22.001Z</time></trkpt><trkpt lat="41.95599700859376" lon="2.909320654623678"><ele>349.0</ele><time>2026-04-08T14:25:23.001Z</time></trkpt><trkpt lat="41.95609954388936" lon="2.9093765108500302"><ele>349.0</ele><time>2026-04-08T14:25:24.001Z</time></trkpt><trkpt lat="41.95622866001692" lon="2.9093701043888838"><ele>349.0</ele><time>2026-04-08T14:25:25.001Z</time></trkpt><trkpt lat="41.95639810931833" lon="2.909316807257081"><ele>347.0</ele><time>2026-04-08T14:25:26.002Z</time></trkpt><trkpt lat="41.95657839100927" lon="2.909251952899287"><ele>345.0</ele><time>2026-04-08T14:25:27.002Z</time></trkpt><trkpt lat="41.956749672106454" lon="2.909158318280654"><ele>343.0</ele><time>2026-04-08T14:25:28.002Z</time></trkpt><trkpt lat="41.956905970293896" lon="2.9090640924627835"><ele>343.0</ele><time>2026-04-08T14:25:29.002Z</time></trkpt><trkpt lat="41.95706346496405" lon="2.9090228006138754"><ele>343.0</ele><time>2026-04-08T14:25:30.002Z</time></trkpt><trkpt lat="41.957213331507724" lon="2.90907354785753"><ele>343.0</ele><time>2026-04-08T14:25:31.002Z</time></trkpt><trkpt lat="41.957379590785365" lon="2.9091213018816124"><ele>341.25</ele><time>2026-04-08T14:25:32.002Z</time></trkpt><trkpt lat="41.95754018686856" lon="2.9091709982394844"><ele>339.5</ele><time>2026-04-08T14:25:33.002Z</time></trkpt><trkpt lat="41.95767578126158" lon="2.9091971760929773"><ele>337.75</ele><time>2026-04-08T14:25:34.002Z</time></trkpt><trkpt lat="41.95778731800905" lon="2.9092390674988646"><ele>336.0</ele><time>2026-04-08T14:25:35.002Z</time></trkpt><trkpt lat="41.95785748313179" lon="2.9093117150113654"><ele>335.0</ele><time>2026-04-08T14:25:36.002Z</time></trkpt><trkpt lat="41.95791001421064" lon="2.909389532506528"><ele>334.0</ele><time>2026-04-08T14:25:37.002Z</time></trkpt><trkpt lat="41.95794734466401" lon="2.909515054047195"><ele>333.0</ele><time>2026-04-08T14:25:38.002Z</time></trkpt><trkpt lat="41.9579085420932" lon="2.909706781233542"><ele>332.0</ele><time>2026-04-08T14:25:39.002Z</time></trkpt><trkpt lat="41.95792061790426" lon="2.909945829187302"><ele>334.0</ele><time>2026-04-08T14:25:40.002Z</time></trkpt><trkpt lat="41.95794655578885" lon="2.9102123706077805"><ele>336.0</ele><time>2026-04-08T14:25:41.002Z</time></trkpt><trkpt lat="41.95796029758873" lon="2.9104589734755595"><ele>338.0</ele><time>2026-04-08T14:25:42.002Z</time></trkpt><trkpt lat="41.95797085629204" lon="2.910707190754632"><ele>338.33333333333337</ele><time>2026-04-08T14:25:43.002Z</time></trkpt><trkpt lat="41.95804114754817" lon="2.9109578551333275"><ele>338.6666666666667</ele><time>2026-04-08T14:25:44.002Z</time></trkpt><trkpt lat="41.95811525487208" lon="2.911201384033608"><ele>339.0</ele><time>2026-04-08T14:25:45.002Z</time></trkpt><trkpt lat="41.95814214512519" lon="2.911425816616017"><ele>339.0</ele><time>2026-04-08T14:25:46.002Z</time></trkpt><trkpt lat="41.958178061555614" lon="2.911633017980562"><ele>339.0</ele><time>2026-04-08T14:25:47.002Z</time></trkpt><trkpt lat="41.958248428814066" lon="2.9118113708572624"><ele>339.0</ele><time>2026-04-08T14:25:48.002Z</time></trkpt><trkpt lat="41.958337559955766" lon="2.911980465595074"><ele>339.5</ele><time>2026-04-08T14:25:49.002Z</time></trkpt><trkpt lat="41.95843605676257" lon="2.912121176919825"><ele>340.0</ele><time>2026-04-08T14:25:50.002Z</time></trkpt><trkpt lat="41.95849177402806" lon="2.9122825758690296"><ele>340.5</ele><time>2026-04-08T14:25:51.002Z</time></trkpt><trkpt lat="41.95852504016744" lon="2.9124528955718234"><ele>341.0</ele><time>2026-04-08T14:25:52.002Z</time></trkpt><trkpt lat="41.958565978743735" lon="2.9126815017083203"><ele>341.0</ele><time>2026-04-08T14:25:53.002Z</time></trkpt><trkpt lat="41.958604906252965" lon="2.9129006854231787"><ele>341.0</ele><time>2026-04-08T14:25:54.002Z</time></trkpt><trkpt lat="41.958648713210465" lon="2.913106845482295"><ele>341.0</ele><time>2026-04-08T14:25:55.002Z</time></trkpt><trkpt lat="41.95872978294968" lon="2.9132793559291668"><ele>341.0</ele><time>2026-04-08T14:25:56.002Z</time></trkpt><trkpt lat="41.958808018332334" lon="2.913442013592628"><ele>341.0</ele><time>2026-04-08T14:25:57.002Z</time></trkpt><trkpt lat="41.95885179537507" lon="2.913625679136315"><ele>341.0</ele><time>2026-04-08T14:25:58.002Z</time></trkpt><trkpt lat="41.95884162525806" lon="2.9138036282972704"><ele>341.0</ele><time>2026-04-08T14:25:59.003Z</time></trkpt><trkpt lat="41.95883075390882" lon="2.914017344161257"><ele>341.0</ele><time>2026-04-08T14:26:00.003Z</time></trkpt><trkpt lat="41.95882098985854" lon="2.9142201598029036"><ele>341.0</ele><time>2026-04-08T14:26:01.003Z</time></trkpt><trkpt lat="41.95882371844075" lon="2.9144133420801572"><ele>341.0</ele><time>2026-04-08T14:26:02.003Z</time></trkpt><trkpt lat="41.958861297099396" lon="2.9145966095384312"><ele>341.0</ele><time>2026-04-08T14:26:03.003Z</time></trkpt><trkpt lat="41.958915670071825" lon="2.914737258333475"><ele>341.4</ele><time>2026-04-08T14:26:04.003Z</time></trkpt><trkpt lat="41.95893679167576" lon="2.914859633135667"><ele>341.8</ele><time>2026-04-08T14:26:05.003Z</time></trkpt><trkpt lat="41.958907822546045" lon="2.914963759585619"><ele>342.2</ele><time>2026-04-08T14:26:06.003Z</time></trkpt><trkpt lat="41.95880300282601" lon="2.915019467868798"><ele>342.59999999999997</ele><time>2026-04-08T14:26:07.003Z</time></trkpt><trkpt lat="41.95873917365146" lon="2.915137996188016"><ele>343.0</ele><time>2026-04-08T14:26:08.003Z</time></trkpt><trkpt lat="41.95869352729481" lon="2.9152983976634492"><ele>342.59999999999997</ele><time>2026-04-08T14:26:09.003Z</time></trkpt><trkpt lat="41.95864807170249" lon="2.915432872134344"><ele>342.2</ele><time>2026-04-08T14:26:10.003Z</time></trkpt><trkpt lat="41.95862629625483" lon="2.9155519350740615"><ele>341.8</ele><time>2026-04-08T14:26:11.003Z</time></trkpt><trkpt lat="41.95863366848071" lon="2.9156766189403913"><ele>341.4</ele><time>2026-04-08T14:26:12.003Z</time></trkpt><trkpt lat="41.958673981602516" lon="2.9158106301923863"><ele>341.0</ele><time>2026-04-08T14:26:13.003Z</time></trkpt><trkpt lat="41.958744817885396" lon="2.915922860505705"><ele>341.0</ele><time>2026-04-08T14:26:14.003Z</time></trkpt><trkpt lat="41.95883547010071" lon="2.9160049508573613"><ele>341.0</ele><time>2026-04-08T14:26:15.003Z</time></trkpt><trkpt lat="41.958952395709325" lon="2.916061751339836"><ele>341.0</ele><time>2026-04-08T14:26:16.003Z</time></trkpt><trkpt lat="41.959094998573434" lon="2.916134994829748"><ele>341.0</ele><time>2026-04-08T14:26:17.003Z</time></trkpt><trkpt lat="41.95920207239743" lon="2.916247724916352"><ele>341.0</ele><time>2026-04-08T14:26:18.003Z</time></trkpt><trkpt lat="41.95927076470473" lon="2.916331552110096"><ele>341.0</ele><time>2026-04-08T14:26:19.003Z</time></trkpt><trkpt lat="41.95932112747962" lon="2.916416424092988"><ele>341.0</ele><time>2026-04-08T14:26:20.003Z</time></trkpt><trkpt lat="41.959273306093735" lon="2.9165446803058956"><ele>341.0</ele><time>2026-04-08T14:26:21.003Z</time></trkpt><trkpt lat="41.959214641846735" lon="2.916697518723274"><ele>341.0</ele><time>2026-04-08T14:26:22.003Z</time></trkpt><trkpt lat="41.959173355679674" lon="2.9168920797103812"><ele>341.0</ele><time>2026-04-08T14:26:23.003Z</time></trkpt><trkpt lat="41.95915808261881" lon="2.9170570938167817"><ele>341.0</ele><time>2026-04-08T14:26:24.003Z</time></trkpt><trkpt lat="41.95911382689319" lon="2.9171855475377666"><ele>341.0</ele><time>2026-04-08T14:26:25.003Z</time></trkpt><trkpt lat="41.95900385380792" lon="2.9172417790444487"><ele>341.0</ele><time>2026-04-08T14:26:26.003Z</time></trkpt><trkpt lat="41.95890779184243" lon="2.917339721510607"><ele>341.0</ele><time>2026-04-08T14:26:27Z</time></trkpt><trkpt lat="41.95883752560383" lon="2.9174701008375554"><ele>341.0</ele><time>2026-04-08T14:26:28Z</time></trkpt><trkpt lat="41.95878267428311" lon="2.917592874565153"><ele>341.0</ele><time>2026-04-08T14:26:29Z</time></trkpt><trkpt lat="41.95875168106282" lon="2.9177330193010347"><ele>341.0</ele><time>2026-04-08T14:26:30Z</time></trkpt><trkpt lat="41.95874585766729" lon="2.917873216575429"><ele>341.0</ele><time>2026-04-08T14:26:31Z</time></trkpt><trkpt lat="41.958780615785194" lon="2.9180053029193735"><ele>342.20000000000005</ele><time>2026-04-08T14:26:32Z</time></trkpt><trkpt lat="41.958831900448885" lon="2.918125909312808"><ele>343.40000000000003</ele><time>2026-04-08T14:26:33Z</time></trkpt><trkpt lat="41.95890926777959" lon="2.918232148337727"><ele>344.6</ele><time>2026-04-08T14:26:34Z</time></trkpt><trkpt lat="41.958995672348905" lon="2.918306909044131"><ele>345.8</ele><time>2026-04-08T14:26:35Z</time></trkpt><trkpt lat="41.959087764023685" lon="2.9183576747516247"><ele>347.0</ele><time>2026-04-08T14:26:36Z</time></trkpt><trkpt lat="41.95920311464158" lon="2.918381719607037"><ele>347.0</ele><time>2026-04-08T14:26:37Z</time></trkpt><trkpt lat="41.95932727656558" lon="2.9183738936977903"><ele>347.0</ele><time>2026-04-08T14:26:38Z</time></trkpt><trkpt lat="41.9594418327915" lon="2.918411661565511"><ele>347.0</ele><time>2026-04-08T14:26:39Z</time></trkpt><trkpt lat="41.959526737638136" lon="2.9185133896898225"><ele>347.0</ele><time>2026-04-08T14:26:40Z</time></trkpt><trkpt lat="41.959621296379744" lon="2.9185874942338033"><ele>345.5</ele><time>2026-04-08T14:26:41Z</time></trkpt><trkpt lat="41.959662332883696" lon="2.9186939186819014"><ele>344.0</ele><time>2026-04-08T14:26:42Z</time></trkpt><trkpt lat="41.95965149107395" lon="2.9188616701627765"><ele>342.5</ele><time>2026-04-08T14:26:43Z</time></trkpt><trkpt lat="41.95960364885419" lon="2.9190126741976474"><ele>341.0</ele><time>2026-04-08T14:26:44Z</time></trkpt><trkpt lat="41.95959051922919" lon="2.9191981314145194"><ele>341.0</ele><time>2026-04-08T14:26:45Z</time></trkpt><trkpt lat="41.95959532617947" lon="2.9193920440097334"><ele>341.0</ele><time>2026-04-08T14:26:46Z</time></trkpt><trkpt lat="41.95963097679173" lon="2.9195755414642974"><ele>341.0</ele><time>2026-04-08T14:26:47Z</time></trkpt><trkpt lat="41.95967327349183" lon="2.919728122040529"><ele>341.0</ele><time>2026-04-08T14:26:48Z</time></trkpt><trkpt lat="41.959708469583695" lon="2.9198600366140015"><ele>341.0</ele><time>2026-04-08T14:26:49Z</time></trkpt><trkpt lat="41.95968834206182" lon="2.9199835661211444"><ele>341.0</ele><time>2026-04-08T14:26:50Z</time></trkpt><trkpt lat="41.959634004405636" lon="2.92007085738852"><ele>341.0</ele><time>2026-04-08T14:26:51Z</time></trkpt><trkpt lat="41.959532757291846" lon="2.920101756287343"><ele>341.0</ele><time>2026-04-08T14:26:52Z</time></trkpt><trkpt lat="41.959440158697646" lon="2.9202039622573355"><ele>341.0</ele><time>2026-04-08T14:26:53Z</time></trkpt><trkpt lat="41.959340775428664" lon="2.920347892137062"><ele>343.25</ele><time>2026-04-08T14:26:54Z</time></trkpt><trkpt lat="41.95924625464243" lon="2.920504026427983"><ele>345.5</ele><time>2026-04-08T14:26:55Z</time></trkpt><trkpt lat="41.95915865666378" lon="2.9206681314689535"><ele>347.75</ele><time>2026-04-08T14:26:56Z</time></trkpt><trkpt lat="41.95911745420975" lon="2.92085051197502"><ele>350.0</ele><time>2026-04-08T14:26:57Z</time></trkpt><trkpt lat="41.95908553293734" lon="2.9210203740601983"><ele>344.5</ele><time>2026-04-08T14:26:58.001Z</time></trkpt><trkpt lat="41.95901926183098" lon="2.92114594288599"><ele>339.0</ele><time>2026-04-08T14:26:59.001Z</time></trkpt><trkpt lat="41.95894264037397" lon="2.921250828555795"><ele>333.5</ele><time>2026-04-08T14:27:00.001Z</time></trkpt><trkpt lat="41.95883111378423" lon="2.921304298585647"><ele>328.0</ele><time>2026-04-08T14:27:01.001Z</time></trkpt><trkpt lat="41.95874706657433" lon="2.9214194712901587"><ele>328.0</ele><time>2026-04-08T14:27:02.001Z</time></trkpt><trkpt lat="41.95869985078141" lon="2.9215414941323323"><ele>328.0</ele><time>2026-04-08T14:27:03.001Z</time></trkpt><trkpt lat="41.95867375383143" lon="2.9216626281007327"><ele>328.0</ele><time>2026-04-08T14:27:04.001Z</time></trkpt><trkpt lat="41.95868471950996" lon="2.9217877875137344"><ele>328.0</ele><time>2026-04-08T14:27:05.001Z</time></trkpt><trkpt lat="41.95872584713117" lon="2.9219327033833564"><ele>328.0</ele><time>2026-04-08T14:27:06.001Z</time></trkpt><trkpt lat="41.958775752729984" lon="2.922071535565438"><ele>329.0</ele><time>2026-04-08T14:27:07.001Z</time></trkpt><trkpt lat="41.95878048062656" lon="2.922199770151759"><ele>330.0</ele><time>2026-04-08T14:27:08.001Z</time></trkpt><trkpt lat="41.958730282405114" lon="2.9223207988104085"><ele>331.0</ele><time>2026-04-08T14:27:09.001Z</time></trkpt><trkpt lat="41.958661044214885" lon="2.922464962328494"><ele>332.0</ele><time>2026-04-08T14:27:10.001Z</time></trkpt><trkpt lat="41.95860791841631" lon="2.92263328635697"><ele>332.75</ele><time>2026-04-08T14:27:11.001Z</time></trkpt><trkpt lat="41.95858588795197" lon="2.922813732676459"><ele>333.5</ele><time>2026-04-08T14:27:12.001Z</time></trkpt><trkpt lat="41.95859436335013" lon="2.922993527211985"><ele>334.25</ele><time>2026-04-08T14:27:13.001Z</time></trkpt><trkpt lat="41.95862863787184" lon="2.9232118529173836"><ele>335.0</ele><time>2026-04-08T14:27:14.001Z</time></trkpt><trkpt lat="41.95860811581914" lon="2.92340110934423"><ele>332.75</ele><time>2026-04-08T14:27:15.001Z</time></trkpt><trkpt lat="41.95862191569087" lon="2.9235708088776757"><ele>330.5</ele><time>2026-04-08T14:27:16.001Z</time></trkpt><trkpt lat="41.9586763136055" lon="2.923733729493239"><ele>328.25</ele><time>2026-04-08T14:27:17.001Z</time></trkpt><trkpt lat="41.958732875772974" lon="2.9239404059802796"><ele>326.0</ele><time>2026-04-08T14:27:18.001Z</time></trkpt><trkpt lat="41.95879566743099" lon="2.924133574736947"><ele>323.75</ele><time>2026-04-08T14:27:19.001Z</time></trkpt><trkpt lat="41.958849168693554" lon="2.924296159991802"><ele>321.5</ele><time>2026-04-08T14:27:20.001Z</time></trkpt><trkpt lat="41.95891113265509" lon="2.9244336167830203"><ele>319.25</ele><time>2026-04-08T14:27:21.001Z</time></trkpt><trkpt lat="41.959017903228506" lon="2.924518930994093"><ele>317.0</ele><time>2026-04-08T14:27:22.001Z</time></trkpt><trkpt lat="41.959130456873204" lon="2.9246080927637323"><ele>324.25</ele><time>2026-04-08T14:27:23.001Z</time></trkpt><trkpt lat="41.95923565446865" lon="2.924707831257125"><ele>331.5</ele><time>2026-04-08T14:27:24.001Z</time></trkpt><trkpt lat="41.95930695199419" lon="2.9248212941844756"><ele>338.75</ele><time>2026-04-08T14:27:25.001Z</time></trkpt><trkpt lat="41.95932797898935" lon="2.9249618677159375"><ele>346.0</ele><time>2026-04-08T14:27:26.001Z</time></trkpt><trkpt lat="41.95933967054151" lon="2.925148574169233"><ele>346.0</ele><time>2026-04-08T14:27:27.001Z</time></trkpt><trkpt lat="41.95936491257402" lon="2.925339024868381"><ele>346.0</ele><time>2026-04-08T14:27:28.001Z</time></trkpt><trkpt lat="41.95939453292659" lon="2.9255625099347076"><ele>346.0</ele><time>2026-04-08T14:27:29.001Z</time></trkpt><trkpt lat="41.95942208852844" lon="2.925770416512904"><ele>345.25</ele><time>2026-04-08T14:27:30.001Z</time></trkpt><trkpt lat="41.95944274620279" lon="2.925931813549397"><ele>344.5</ele><time>2026-04-08T14:27:31.001Z</time></trkpt><trkpt lat="41.95946211453868" lon="2.926107815172275"><ele>343.75</ele><time>2026-04-08T14:27:32.001Z</time></trkpt><trkpt lat="41.95947427790845" lon="2.9262998472901143"><ele>343.0</ele><time>2026-04-08T14:27:33.001Z</time></trkpt><trkpt lat="41.95946358129332" lon="2.926469111352725"><ele>343.0</ele><time>2026-04-08T14:27:34.001Z</time></trkpt><trkpt lat="41.959424637418564" lon="2.9266518003946174"><ele>343.0</ele><time>2026-04-08T14:27:35.001Z</time></trkpt><trkpt lat="41.95938010506676" lon="2.926821781762762"><ele>343.0</ele><time>2026-04-08T14:27:36.002Z</time></trkpt><trkpt lat="41.95936092098553" lon="2.926982543973083"><ele>343.0</ele><time>2026-04-08T14:27:37.002Z</time></trkpt><trkpt lat="41.959389624819416" lon="2.927140339884082"><ele>339.66666666666663</ele><time>2026-04-08T14:27:38.002Z</time></trkpt><trkpt lat="41.959430185104424" lon="2.9273140641364233"><ele>336.3333333333333</ele><time>2026-04-08T14:27:39.002Z</time></trkpt><trkpt lat="41.95946890376473" lon="2.927547769412764"><ele>333.0</ele><time>2026-04-08T14:27:40.002Z</time></trkpt><trkpt lat="41.95954059508261" lon="2.9277255792978263"><ele>329.59999999999997</ele><time>2026-04-08T14:27:41.002Z</time></trkpt><trkpt lat="41.95957952811856" lon="2.9278875311790835"><ele>326.2</ele><time>2026-04-08T14:27:42.002Z</time></trkpt><trkpt lat="41.95955626564648" lon="2.9280355124767903"><ele>322.8</ele><time>2026-04-08T14:27:43.002Z</time></trkpt><trkpt lat="41.95951921802442" lon="2.9281560693203246"><ele>319.4</ele><time>2026-04-08T14:27:44.002Z</time></trkpt><trkpt lat="41.95945884281742" lon="2.928246728550958"><ele>316.0</ele><time>2026-04-08T14:27:45.002Z</time></trkpt><trkpt lat="41.95935969851601" lon="2.928296609133212"><ele>316.0</ele><time>2026-04-08T14:27:46.002Z</time></trkpt><trkpt lat="41.95923551616144" lon="2.928382566233926"><ele>316.0</ele><time>2026-04-08T14:27:47.002Z</time></trkpt><trkpt lat="41.959082393484096" lon="2.9284827861107945"><ele>316.0</ele><time>2026-04-08T14:27:48.002Z</time></trkpt><trkpt lat="41.95893982535531" lon="2.9285837071599747"><ele>320.0</ele><time>2026-04-08T14:27:49.002Z</time></trkpt><trkpt lat="41.958831252950624" lon="2.9286931761238515"><ele>324.0</ele><time>2026-04-08T14:27:50.002Z</time></trkpt><trkpt lat="41.95873848171563" lon="2.9287867346519136"><ele>328.0</ele><time>2026-04-08T14:27:51.002Z</time></trkpt><trkpt lat="41.95865504853245" lon="2.9288708973208757"><ele>332.0</ele><time>2026-04-08T14:27:52.002Z</time></trkpt><trkpt lat="41.95861874840199" lon="2.928999359041888"><ele>332.0</ele><time>2026-04-08T14:27:53.002Z</time></trkpt><trkpt lat="41.95859359411754" lon="2.929151256407727"><ele>332.0</ele><time>2026-04-08T14:27:54.002Z</time></trkpt><trkpt lat="41.95857933118841" lon="2.929350215367267"><ele>332.0</ele><time>2026-04-08T14:27:55.002Z</time></trkpt><trkpt lat="41.958565951658805" lon="2.9295822971172742"><ele>332.0</ele><time>2026-04-08T14:27:56.002Z</time></trkpt><trkpt lat="41.95855211307347" lon="2.9298036542309065"><ele>332.5</ele><time>2026-04-08T14:27:57.002Z</time></trkpt><trkpt lat="41.95850956917038" lon="2.9299868086636236"><ele>333.0</ele><time>2026-04-08T14:27:58.002Z</time></trkpt><trkpt lat="41.95845753479378" lon="2.9301542525930038"><ele>333.5</ele><time>2026-04-08T14:27:59.002Z</time></trkpt><trkpt lat="41.95836394339035" lon="2.9302888856149814"><ele>334.0</ele><time>2026-04-08T14:28:00.002Z</time></trkpt><trkpt lat="41.958266283672984" lon="2.9304311027854615"><ele>329.0</ele><time>2026-04-08T14:28:01.002Z</time></trkpt><trkpt lat="41.958187783283066" lon="2.9305743139654545"><ele>324.0</ele><time>2026-04-08T14:28:02.002Z</time></trkpt><trkpt lat="41.95810058202493" lon="2.9306814483392074"><ele>319.0</ele><time>2026-04-08T14:28:03.002Z</time></trkpt><trkpt lat="41.958029514783696" lon="2.930790444266981"><ele>314.0</ele><time>2026-04-08T14:28:04.002Z</time></trkpt><trkpt lat="41.95796659450903" lon="2.930887667125346"><ele>313.0</ele><time>2026-04-08T14:28:05.002Z</time></trkpt><trkpt lat="41.95789788805651" lon="2.930976779290565"><ele>312.0</ele><time>2026-04-08T14:28:06.002Z</time></trkpt><trkpt lat="41.95783586090239" lon="2.9310508831576527"><ele>311.0</ele><time>2026-04-08T14:28:07.002Z</time></trkpt><trkpt lat="41.957790583502884" lon="2.9311337715417616"><ele>310.0</ele><time>2026-04-08T14:28:08.002Z</time></trkpt><trkpt lat="41.957747558677276" lon="2.9312210594666053"><ele>309.0</ele><time>2026-04-08T14:28:09.002Z</time></trkpt><trkpt lat="41.957752353039076" lon="2.9313657557533235"><ele>308.0</ele><time>2026-04-08T14:28:10.002Z</time></trkpt><trkpt lat="41.957727791088395" lon="2.931484779599118"><ele>308.0</ele><time>2026-04-08T14:28:11.002Z</time></trkpt><trkpt lat="41.95770167228947" lon="2.931591333796574"><ele>308.0</ele><time>2026-04-08T14:28:12.002Z</time></trkpt><trkpt lat="41.95767753768003" lon="2.9316867842850867"><ele>308.0</ele><time>2026-04-08T14:28:13.003Z</time></trkpt><trkpt lat="41.95765055252906" lon="2.931779702931846"><ele>308.0</ele><time>2026-04-08T14:28:14.003Z</time></trkpt><trkpt lat="41.95762596959456" lon="2.9318786916239548"><ele>308.0</ele><time>2026-04-08T14:28:15.003Z</time></trkpt><trkpt lat="41.957598873330376" lon="2.9320000761290603"><ele>308.0</ele><time>2026-04-08T14:28:16.003Z</time></trkpt><trkpt lat="41.9575516318284" lon="2.932133773361214"><ele>306.5</ele><time>2026-04-08T14:28:17.003Z</time></trkpt><trkpt lat="41.957529834919114" lon="2.9322841029027296"><ele>305.0</ele><time>2026-04-08T14:28:18.003Z</time></trkpt><trkpt lat="41.95752800288211" lon="2.9324402541184287"><ele>303.5</ele><time>2026-04-08T14:28:19.003Z</time></trkpt><trkpt lat="41.9574991910396" lon="2.9325902797037475"><ele>302.0</ele><time>2026-04-08T14:28:20.003Z</time></trkpt><trkpt lat="41.95748973129646" lon="2.9327422373546996"><ele>300.0</ele><time>2026-04-08T14:28:21.003Z</time></trkpt><trkpt lat="41.95747746705703" lon="2.9328807002406854"><ele>298.0</ele><time>2026-04-08T14:28:22.003Z</time></trkpt><trkpt lat="41.95745969344455" lon="2.9330079604390575"><ele>296.0</ele><time>2026-04-08T14:28:23.003Z</time></trkpt><trkpt lat="41.957442514575" lon="2.9331235985743978"><ele>294.0</ele><time>2026-04-08T14:28:24.003Z</time></trkpt><trkpt lat="41.95741665218085" lon="2.9332280851580883"><ele>292.0</ele><time>2026-04-08T14:28:25.003Z</time></trkpt><trkpt lat="41.957375758813896" lon="2.933329723839166"><ele>290.16666666666663</ele><time>2026-04-08T14:28:26.003Z</time></trkpt><trkpt lat="41.95732086244112" lon="2.933440282219471"><ele>288.3333333333333</ele><time>2026-04-08T14:28:27.003Z</time></trkpt><trkpt lat="41.957267674753425" lon="2.9335443247261814"><ele>286.5</ele><time>2026-04-08T14:28:28.003Z</time></trkpt><trkpt lat="41.95720776395822" lon="2.9336109434991027"><ele>284.6666666666667</ele><time>2026-04-08T14:28:29.003Z</time></trkpt><trkpt lat="41.95715290527899" lon="2.933661871134943"><ele>282.83333333333337</ele><time>2026-04-08T14:28:30.003Z</time></trkpt><trkpt lat="41.957084662480035" lon="2.9337043253766892"><ele>281.0</ele><time>2026-04-08T14:28:31.003Z</time></trkpt><trkpt lat="41.956999277167085" lon="2.9337289395449253"><ele>281.0</ele><time>2026-04-08T14:28:32.003Z</time></trkpt><trkpt lat="41.956901561923175" lon="2.933754614493935"><ele>281.0</ele><time>2026-04-08T14:28:33Z</time></trkpt><trkpt lat="41.956786859881156" lon="2.9337692347687727"><ele>281.0</ele><time>2026-04-08T14:28:34Z</time></trkpt><trkpt lat="41.95667455987283" lon="2.9337809213979282"><ele>281.0</ele><time>2026-04-08T14:28:35Z</time></trkpt><trkpt lat="41.95657584738783" lon="2.9338194696609032"><ele>281.0</ele><time>2026-04-08T14:28:36Z</time></trkpt><trkpt lat="41.95648473572116" lon="2.9338417348161787"><ele>281.0</ele><time>2026-04-08T14:28:37Z</time></trkpt><trkpt lat="41.95641028567881" lon="2.9338851015347625"><ele>281.0</ele><time>2026-04-08T14:28:38Z</time></trkpt><trkpt lat="41.956340614263006" lon="2.9339515217133894"><ele>281.0</ele><time>2026-04-08T14:28:39Z</time></trkpt><trkpt lat="41.9562991429945" lon="2.934043641216654"><ele>281.0</ele><time>2026-04-08T14:28:40Z</time></trkpt><trkpt lat="41.9562706533699" lon="2.9341547916758963"><ele>281.0</ele><time>2026-04-08T14:28:41Z</time></trkpt><trkpt lat="41.95626700877384" lon="2.9342809425001866"><ele>281.0</ele><time>2026-04-08T14:28:42Z</time></trkpt><trkpt lat="41.956272978533875" lon="2.934423722616071"><ele>281.0</ele><time>2026-04-08T14:28:43Z</time></trkpt><trkpt lat="41.95627474496303" lon="2.9345456537830144"><ele>281.0</ele><time>2026-04-08T14:28:44Z</time></trkpt><trkpt lat="41.95626285523036" lon="2.9346617655776224"><ele>281.0</ele><time>2026-04-08T14:28:45Z</time></trkpt><trkpt lat="41.9562258057124" lon="2.9347607811411502"><ele>281.0</ele><time>2026-04-08T14:28:46Z</time></trkpt><trkpt lat="41.95617461263036" lon="2.934882220001528"><ele>281.0</ele><time>2026-04-08T14:28:47Z</time></trkpt><trkpt lat="41.95611728351216" lon="2.935024072773218"><ele>280.6</ele><time>2026-04-08T14:28:48Z</time></trkpt><trkpt lat="41.956061972228746" lon="2.9351620318435727"><ele>280.20000000000005</ele><time>2026-04-08T14:28:49Z</time></trkpt><trkpt lat="41.956016498984965" lon="2.93528481090535"><ele>279.79999999999995</ele><time>2026-04-08T14:28:50Z</time></trkpt><trkpt lat="41.95598892863874" lon="2.9354016002144565"><ele>279.4</ele><time>2026-04-08T14:28:51Z</time></trkpt><trkpt lat="41.95598528784189" lon="2.9355224782217917"><ele>279.0</ele><time>2026-04-08T14:28:52Z</time></trkpt><trkpt lat="41.95599500171325" lon="2.93561778319095"><ele>279.0</ele><time>2026-04-08T14:28:53Z</time></trkpt><trkpt lat="41.95601907593959" lon="2.9357396061095176"><ele>279.0</ele><time>2026-04-08T14:28:55Z</time></trkpt><trkpt lat="41.95591380113976" lon="2.935755903371229"><ele>279.0</ele><time>2026-04-08T14:28:58Z</time></trkpt><trkpt lat="41.95579946406272" lon="2.9357683507236763"><ele>279.0</ele><time>2026-04-08T14:29:00Z</time></trkpt><trkpt lat="41.95571622764575" lon="2.9357767655217257"><ele>279.0</ele><time>2026-04-08T14:29:01Z</time></trkpt><trkpt lat="41.955646741849534" lon="2.9357803537403204"><ele>280.4</ele><time>2026-04-08T14:29:02.001Z</time></trkpt><trkpt lat="41.95553620583473" lon="2.935756370563512"><ele>281.79999999999995</ele><time>2026-04-08T14:29:04.001Z</time></trkpt><trkpt lat="41.955429056221476" lon="2.935668511845281"><ele>283.20000000000005</ele><time>2026-04-08T14:29:06.001Z</time></trkpt><trkpt lat="41.9553910060096" lon="2.935569480746559"><ele>284.6</ele><time>2026-04-08T14:29:07.001Z</time></trkpt><trkpt lat="41.95534693378977" lon="2.9354680897835976"><ele>286.0</ele><time>2026-04-08T14:29:08.001Z</time></trkpt><trkpt lat="41.95530132370758" lon="2.9353992561067153"><ele>286.0</ele><time>2026-04-08T14:29:09.001Z</time></trkpt><trkpt lat="41.95526794969444" lon="2.9353173403364603"><ele>286.0</ele><time>2026-04-08T14:29:10.001Z</time></trkpt><trkpt lat="41.95520345363704" lon="2.9352080427024783"><ele>286.0</ele><time>2026-04-08T14:29:12.001Z</time></trkpt><trkpt lat="41.95507727524075" lon="2.935195003538566"><ele>286.0</ele><time>2026-04-08T14:29:14.001Z</time></trkpt><trkpt lat="41.95501977448403" lon="2.935237118478119"><ele>286.0</ele><time>2026-04-08T14:29:15.001Z</time></trkpt><trkpt lat="41.95495145464258" lon="2.9353927799586894"><ele>283.0</ele><time>2026-04-08T14:29:17.001Z</time></trkpt><trkpt lat="41.95495148383139" lon="2.935553290614337"><ele>280.0</ele><time>2026-04-08T14:29:19.001Z</time></trkpt><trkpt lat="41.954932383839385" lon="2.935651999568485"><ele>277.0</ele><time>2026-04-08T14:29:21.001Z</time></trkpt><trkpt lat="41.95487251224328" lon="2.93557251128573"><ele>274.0</ele><time>2026-04-08T14:29:25.001Z</time></trkpt><trkpt lat="41.95481091840085" lon="2.9354379774718584"><ele>271.0</ele><time>2026-04-08T14:29:27.001Z</time></trkpt><trkpt lat="41.95476510630332" lon="2.935339379177997"><ele>271.0</ele><time>2026-04-08T14:29:28.001Z</time></trkpt><trkpt lat="41.95468631044518" lon="2.9352255864185457"><ele>271.0</ele><time>2026-04-08T14:29:29.001Z</time></trkpt><trkpt lat="41.954616449964696" lon="2.935116993552385"><ele>271.0</ele><time>2026-04-08T14:29:30.001Z</time></trkpt><trkpt lat="41.95458214570766" lon="2.935010898018"><ele>271.0</ele><time>2026-04-08T14:29:31.001Z</time></trkpt><trkpt lat="41.95454593351046" lon="2.9349333638633754"><ele>271.0</ele><time>2026-04-08T14:29:32.001Z</time></trkpt><trkpt lat="41.95450164869995" lon="2.934854977722194"><ele>279.0</ele><time>2026-04-08T14:29:33.001Z</time></trkpt><trkpt lat="41.954483072451104" lon="2.934769604626655"><ele>279.0</ele><time>2026-04-08T14:29:34.001Z</time></trkpt><trkpt lat="41.95443918383023" lon="2.934704488124882"><ele>279.0</ele><time>2026-04-08T14:29:35.001Z</time></trkpt><trkpt lat="41.95439273643216" lon="2.934624470959393"><ele>279.0</ele><time>2026-04-08T14:29:36.001Z</time></trkpt><trkpt lat="41.954314761351085" lon="2.934539997705676"><ele>279.0</ele><time>2026-04-08T14:29:38.002Z</time></trkpt><trkpt lat="41.954254713669535" lon="2.934506361598865"><ele>279.0</ele><time>2026-04-08T14:29:40.002Z</time></trkpt></trkseg></trk></gpx>